<?xml version="1.0" encoding="UTF-8"?>
<gpx xmlns="http://www.topografix.com/GPX/1/1"
     creator="GpsDumpMac 0.36"
     version="1.1"
     xmlns:xsi="http://www.w3.org/2001/XMLSchema-instance"
     xsi:schemaLocation="http://www.topografix.com/GPX/1/1 http://www.topografix.com/GPX/1/1/gpx.xsd">
  <metadata>
    <link href="http://www.gethome.no/stein.sorensen/">
      <text>GPS dump for www.flightlog.org</text>
    </link>
    <time>2016-07-26T16:18:51Z</time>
    <bounds minlat="41.074817" minlon="-3.714567" maxlat="41.554217" maxlon="-3.196883"/>
  </metadata>
  <trk>
    <name>Track 001</name>
    <trkseg>
      <trkpt lat="41.077283" lon="-3.707900">
        <ele>1836.0</ele>
        <time>2016-07-25T11:45:55Z</time>
      </trkpt>
      <trkpt lat="41.077400" lon="-3.707917">
        <ele>1841.0</ele>
        <time>2016-07-25T11:45:57Z</time>
      </trkpt>
      <trkpt lat="41.077500" lon="-3.707933">
        <ele>1843.0</ele>
        <time>2016-07-25T11:45:59Z</time>
      </trkpt>
      <trkpt lat="41.077617" lon="-3.707967">
        <ele>1846.0</ele>
        <time>2016-07-25T11:46:01Z</time>
      </trkpt>
      <trkpt lat="41.077717" lon="-3.707967">
        <ele>1850.0</ele>
        <time>2016-07-25T11:46:03Z</time>
      </trkpt>
      <trkpt lat="41.077833" lon="-3.707950">
        <ele>1852.0</ele>
        <time>2016-07-25T11:46:05Z</time>
      </trkpt>
      <trkpt lat="41.077967" lon="-3.707983">
        <ele>1850.0</ele>
        <time>2016-07-25T11:46:07Z</time>
      </trkpt>
      <trkpt lat="41.078067" lon="-3.708067">
        <ele>1853.0</ele>
        <time>2016-07-25T11:46:09Z</time>
      </trkpt>
      <trkpt lat="41.078133" lon="-3.708117">
        <ele>1857.0</ele>
        <time>2016-07-25T11:46:11Z</time>
      </trkpt>
      <trkpt lat="41.078150" lon="-3.708217">
        <ele>1857.0</ele>
        <time>2016-07-25T11:46:13Z</time>
      </trkpt>
      <trkpt lat="41.078200" lon="-3.708333">
        <ele>1858.0</ele>
        <time>2016-07-25T11:46:15Z</time>
      </trkpt>
      <trkpt lat="41.078233" lon="-3.708433">
        <ele>1863.0</ele>
        <time>2016-07-25T11:46:17Z</time>
      </trkpt>
      <trkpt lat="41.078233" lon="-3.708517">
        <ele>1866.0</ele>
        <time>2016-07-25T11:46:19Z</time>
      </trkpt>
      <trkpt lat="41.078217" lon="-3.708633">
        <ele>1868.0</ele>
        <time>2016-07-25T11:46:21Z</time>
      </trkpt>
      <trkpt lat="41.078183" lon="-3.708750">
        <ele>1870.0</ele>
        <time>2016-07-25T11:46:23Z</time>
      </trkpt>
      <trkpt lat="41.078183" lon="-3.708867">
        <ele>1871.0</ele>
        <time>2016-07-25T11:46:25Z</time>
      </trkpt>
      <trkpt lat="41.078167" lon="-3.708967">
        <ele>1872.0</ele>
        <time>2016-07-25T11:46:27Z</time>
      </trkpt>
      <trkpt lat="41.078100" lon="-3.709133">
        <ele>1872.0</ele>
        <time>2016-07-25T11:46:29Z</time>
      </trkpt>
      <trkpt lat="41.078050" lon="-3.709283">
        <ele>1873.0</ele>
        <time>2016-07-25T11:46:31Z</time>
      </trkpt>
      <trkpt lat="41.077950" lon="-3.709400">
        <ele>1874.0</ele>
        <time>2016-07-25T11:46:33Z</time>
      </trkpt>
      <trkpt lat="41.077817" lon="-3.709533">
        <ele>1879.0</ele>
        <time>2016-07-25T11:46:35Z</time>
      </trkpt>
      <trkpt lat="41.077733" lon="-3.709633">
        <ele>1886.0</ele>
        <time>2016-07-25T11:46:37Z</time>
      </trkpt>
      <trkpt lat="41.077667" lon="-3.709733">
        <ele>1892.0</ele>
        <time>2016-07-25T11:46:39Z</time>
      </trkpt>
      <trkpt lat="41.077650" lon="-3.709867">
        <ele>1895.0</ele>
        <time>2016-07-25T11:46:41Z</time>
      </trkpt>
      <trkpt lat="41.077683" lon="-3.709983">
        <ele>1899.0</ele>
        <time>2016-07-25T11:46:43Z</time>
      </trkpt>
      <trkpt lat="41.077800" lon="-3.709967">
        <ele>1901.0</ele>
        <time>2016-07-25T11:46:45Z</time>
      </trkpt>
      <trkpt lat="41.077900" lon="-3.709783">
        <ele>1901.0</ele>
        <time>2016-07-25T11:46:47Z</time>
      </trkpt>
      <trkpt lat="41.077917" lon="-3.709517">
        <ele>1904.0</ele>
        <time>2016-07-25T11:46:49Z</time>
      </trkpt>
      <trkpt lat="41.077833" lon="-3.709250">
        <ele>1906.0</ele>
        <time>2016-07-25T11:46:51Z</time>
      </trkpt>
      <trkpt lat="41.077650" lon="-3.709017">
        <ele>1906.0</ele>
        <time>2016-07-25T11:46:53Z</time>
      </trkpt>
      <trkpt lat="41.077383" lon="-3.708983">
        <ele>1906.0</ele>
        <time>2016-07-25T11:46:55Z</time>
      </trkpt>
      <trkpt lat="41.077233" lon="-3.709100">
        <ele>1911.0</ele>
        <time>2016-07-25T11:46:57Z</time>
      </trkpt>
      <trkpt lat="41.077183" lon="-3.709200">
        <ele>1916.0</ele>
        <time>2016-07-25T11:46:59Z</time>
      </trkpt>
      <trkpt lat="41.077117" lon="-3.709317">
        <ele>1916.0</ele>
        <time>2016-07-25T11:47:01Z</time>
      </trkpt>
      <trkpt lat="41.077067" lon="-3.709467">
        <ele>1915.0</ele>
        <time>2016-07-25T11:47:03Z</time>
      </trkpt>
      <trkpt lat="41.077050" lon="-3.709600">
        <ele>1916.0</ele>
        <time>2016-07-25T11:47:05Z</time>
      </trkpt>
      <trkpt lat="41.077050" lon="-3.709700">
        <ele>1916.0</ele>
        <time>2016-07-25T11:47:07Z</time>
      </trkpt>
      <trkpt lat="41.077067" lon="-3.709833">
        <ele>1916.0</ele>
        <time>2016-07-25T11:47:09Z</time>
      </trkpt>
      <trkpt lat="41.077050" lon="-3.709917">
        <ele>1918.0</ele>
        <time>2016-07-25T11:47:11Z</time>
      </trkpt>
      <trkpt lat="41.077050" lon="-3.710000">
        <ele>1920.0</ele>
        <time>2016-07-25T11:47:13Z</time>
      </trkpt>
      <trkpt lat="41.077067" lon="-3.710100">
        <ele>1921.0</ele>
        <time>2016-07-25T11:47:15Z</time>
      </trkpt>
      <trkpt lat="41.077067" lon="-3.710183">
        <ele>1922.0</ele>
        <time>2016-07-25T11:47:17Z</time>
      </trkpt>
      <trkpt lat="41.077017" lon="-3.710300">
        <ele>1922.0</ele>
        <time>2016-07-25T11:47:19Z</time>
      </trkpt>
      <trkpt lat="41.076917" lon="-3.710433">
        <ele>1921.0</ele>
        <time>2016-07-25T11:47:21Z</time>
      </trkpt>
      <trkpt lat="41.076850" lon="-3.710550">
        <ele>1921.0</ele>
        <time>2016-07-25T11:47:23Z</time>
      </trkpt>
      <trkpt lat="41.076783" lon="-3.710667">
        <ele>1918.0</ele>
        <time>2016-07-25T11:47:25Z</time>
      </trkpt>
      <trkpt lat="41.076783" lon="-3.710800">
        <ele>1913.0</ele>
        <time>2016-07-25T11:47:27Z</time>
      </trkpt>
      <trkpt lat="41.076883" lon="-3.710867">
        <ele>1909.0</ele>
        <time>2016-07-25T11:47:29Z</time>
      </trkpt>
      <trkpt lat="41.077000" lon="-3.710800">
        <ele>1908.0</ele>
        <time>2016-07-25T11:47:31Z</time>
      </trkpt>
      <trkpt lat="41.077117" lon="-3.710683">
        <ele>1910.0</ele>
        <time>2016-07-25T11:47:33Z</time>
      </trkpt>
      <trkpt lat="41.077217" lon="-3.710567">
        <ele>1915.0</ele>
        <time>2016-07-25T11:47:35Z</time>
      </trkpt>
      <trkpt lat="41.077283" lon="-3.710450">
        <ele>1919.0</ele>
        <time>2016-07-25T11:47:37Z</time>
      </trkpt>
      <trkpt lat="41.077367" lon="-3.710283">
        <ele>1920.0</ele>
        <time>2016-07-25T11:47:39Z</time>
      </trkpt>
      <trkpt lat="41.077433" lon="-3.710033">
        <ele>1924.0</ele>
        <time>2016-07-25T11:47:41Z</time>
      </trkpt>
      <trkpt lat="41.077467" lon="-3.709783">
        <ele>1929.0</ele>
        <time>2016-07-25T11:47:43Z</time>
      </trkpt>
      <trkpt lat="41.077483" lon="-3.709550">
        <ele>1932.0</ele>
        <time>2016-07-25T11:47:45Z</time>
      </trkpt>
      <trkpt lat="41.077550" lon="-3.709367">
        <ele>1935.0</ele>
        <time>2016-07-25T11:47:47Z</time>
      </trkpt>
      <trkpt lat="41.077667" lon="-3.709250">
        <ele>1936.0</ele>
        <time>2016-07-25T11:47:49Z</time>
      </trkpt>
      <trkpt lat="41.077767" lon="-3.709300">
        <ele>1936.0</ele>
        <time>2016-07-25T11:47:51Z</time>
      </trkpt>
      <trkpt lat="41.077800" lon="-3.709450">
        <ele>1936.0</ele>
        <time>2016-07-25T11:47:53Z</time>
      </trkpt>
      <trkpt lat="41.077750" lon="-3.709600">
        <ele>1937.0</ele>
        <time>2016-07-25T11:47:55Z</time>
      </trkpt>
      <trkpt lat="41.077633" lon="-3.709767">
        <ele>1939.0</ele>
        <time>2016-07-25T11:47:57Z</time>
      </trkpt>
      <trkpt lat="41.077500" lon="-3.709917">
        <ele>1944.0</ele>
        <time>2016-07-25T11:47:59Z</time>
      </trkpt>
      <trkpt lat="41.077417" lon="-3.710050">
        <ele>1949.0</ele>
        <time>2016-07-25T11:48:01Z</time>
      </trkpt>
      <trkpt lat="41.077317" lon="-3.710183">
        <ele>1951.0</ele>
        <time>2016-07-25T11:48:03Z</time>
      </trkpt>
      <trkpt lat="41.077250" lon="-3.710333">
        <ele>1952.0</ele>
        <time>2016-07-25T11:48:05Z</time>
      </trkpt>
      <trkpt lat="41.077250" lon="-3.710467">
        <ele>1949.0</ele>
        <time>2016-07-25T11:48:07Z</time>
      </trkpt>
      <trkpt lat="41.077350" lon="-3.710533">
        <ele>1946.0</ele>
        <time>2016-07-25T11:48:09Z</time>
      </trkpt>
      <trkpt lat="41.077450" lon="-3.710450">
        <ele>1944.0</ele>
        <time>2016-07-25T11:48:11Z</time>
      </trkpt>
      <trkpt lat="41.077550" lon="-3.710317">
        <ele>1944.0</ele>
        <time>2016-07-25T11:48:13Z</time>
      </trkpt>
      <trkpt lat="41.077650" lon="-3.710117">
        <ele>1943.0</ele>
        <time>2016-07-25T11:48:15Z</time>
      </trkpt>
      <trkpt lat="41.077750" lon="-3.709867">
        <ele>1944.0</ele>
        <time>2016-07-25T11:48:17Z</time>
      </trkpt>
      <trkpt lat="41.077833" lon="-3.709633">
        <ele>1946.0</ele>
        <time>2016-07-25T11:48:19Z</time>
      </trkpt>
      <trkpt lat="41.077933" lon="-3.709383">
        <ele>1950.0</ele>
        <time>2016-07-25T11:48:21Z</time>
      </trkpt>
      <trkpt lat="41.078000" lon="-3.709150">
        <ele>1953.0</ele>
        <time>2016-07-25T11:48:23Z</time>
      </trkpt>
      <trkpt lat="41.078050" lon="-3.708900">
        <ele>1951.0</ele>
        <time>2016-07-25T11:48:25Z</time>
      </trkpt>
      <trkpt lat="41.078150" lon="-3.708733">
        <ele>1948.0</ele>
        <time>2016-07-25T11:48:27Z</time>
      </trkpt>
      <trkpt lat="41.078283" lon="-3.708633">
        <ele>1948.0</ele>
        <time>2016-07-25T11:48:29Z</time>
      </trkpt>
      <trkpt lat="41.078367" lon="-3.708600">
        <ele>1947.0</ele>
        <time>2016-07-25T11:48:31Z</time>
      </trkpt>
      <trkpt lat="41.078450" lon="-3.708683">
        <ele>1943.0</ele>
        <time>2016-07-25T11:48:33Z</time>
      </trkpt>
      <trkpt lat="41.078467" lon="-3.708850">
        <ele>1943.0</ele>
        <time>2016-07-25T11:48:35Z</time>
      </trkpt>
      <trkpt lat="41.078417" lon="-3.708967">
        <ele>1942.0</ele>
        <time>2016-07-25T11:48:37Z</time>
      </trkpt>
      <trkpt lat="41.078333" lon="-3.709133">
        <ele>1939.0</ele>
        <time>2016-07-25T11:48:39Z</time>
      </trkpt>
      <trkpt lat="41.078233" lon="-3.709300">
        <ele>1936.0</ele>
        <time>2016-07-25T11:48:41Z</time>
      </trkpt>
      <trkpt lat="41.078133" lon="-3.709500">
        <ele>1932.0</ele>
        <time>2016-07-25T11:48:43Z</time>
      </trkpt>
      <trkpt lat="41.078050" lon="-3.709717">
        <ele>1933.0</ele>
        <time>2016-07-25T11:48:45Z</time>
      </trkpt>
      <trkpt lat="41.078000" lon="-3.709900">
        <ele>1938.0</ele>
        <time>2016-07-25T11:48:47Z</time>
      </trkpt>
      <trkpt lat="41.077950" lon="-3.710067">
        <ele>1937.0</ele>
        <time>2016-07-25T11:48:49Z</time>
      </trkpt>
      <trkpt lat="41.077933" lon="-3.710267">
        <ele>1936.0</ele>
        <time>2016-07-25T11:48:51Z</time>
      </trkpt>
      <trkpt lat="41.077883" lon="-3.710450">
        <ele>1937.0</ele>
        <time>2016-07-25T11:48:53Z</time>
      </trkpt>
      <trkpt lat="41.077833" lon="-3.710600">
        <ele>1938.0</ele>
        <time>2016-07-25T11:48:55Z</time>
      </trkpt>
      <trkpt lat="41.077783" lon="-3.710733">
        <ele>1934.0</ele>
        <time>2016-07-25T11:48:57Z</time>
      </trkpt>
      <trkpt lat="41.077683" lon="-3.710900">
        <ele>1928.0</ele>
        <time>2016-07-25T11:48:59Z</time>
      </trkpt>
      <trkpt lat="41.077567" lon="-3.711100">
        <ele>1923.0</ele>
        <time>2016-07-25T11:49:01Z</time>
      </trkpt>
      <trkpt lat="41.077450" lon="-3.711267">
        <ele>1920.0</ele>
        <time>2016-07-25T11:49:03Z</time>
      </trkpt>
      <trkpt lat="41.077333" lon="-3.711417">
        <ele>1918.0</ele>
        <time>2016-07-25T11:49:05Z</time>
      </trkpt>
      <trkpt lat="41.077183" lon="-3.711550">
        <ele>1917.0</ele>
        <time>2016-07-25T11:49:07Z</time>
      </trkpt>
      <trkpt lat="41.077033" lon="-3.711700">
        <ele>1914.0</ele>
        <time>2016-07-25T11:49:09Z</time>
      </trkpt>
      <trkpt lat="41.076850" lon="-3.711900">
        <ele>1916.0</ele>
        <time>2016-07-25T11:49:11Z</time>
      </trkpt>
      <trkpt lat="41.076717" lon="-3.712050">
        <ele>1921.0</ele>
        <time>2016-07-25T11:49:13Z</time>
      </trkpt>
      <trkpt lat="41.076567" lon="-3.712150">
        <ele>1922.0</ele>
        <time>2016-07-25T11:49:15Z</time>
      </trkpt>
      <trkpt lat="41.076417" lon="-3.712333">
        <ele>1921.0</ele>
        <time>2016-07-25T11:49:17Z</time>
      </trkpt>
      <trkpt lat="41.076267" lon="-3.712533">
        <ele>1925.0</ele>
        <time>2016-07-25T11:49:19Z</time>
      </trkpt>
      <trkpt lat="41.076167" lon="-3.712683">
        <ele>1929.0</ele>
        <time>2016-07-25T11:49:21Z</time>
      </trkpt>
      <trkpt lat="41.076050" lon="-3.712800">
        <ele>1935.0</ele>
        <time>2016-07-25T11:49:23Z</time>
      </trkpt>
      <trkpt lat="41.075917" lon="-3.712933">
        <ele>1939.0</ele>
        <time>2016-07-25T11:49:25Z</time>
      </trkpt>
      <trkpt lat="41.075767" lon="-3.713067">
        <ele>1942.0</ele>
        <time>2016-07-25T11:49:27Z</time>
      </trkpt>
      <trkpt lat="41.075633" lon="-3.713233">
        <ele>1946.0</ele>
        <time>2016-07-25T11:49:29Z</time>
      </trkpt>
      <trkpt lat="41.075550" lon="-3.713400">
        <ele>1949.0</ele>
        <time>2016-07-25T11:49:31Z</time>
      </trkpt>
      <trkpt lat="41.075467" lon="-3.713567">
        <ele>1953.0</ele>
        <time>2016-07-25T11:49:33Z</time>
      </trkpt>
      <trkpt lat="41.075467" lon="-3.713750">
        <ele>1954.0</ele>
        <time>2016-07-25T11:49:35Z</time>
      </trkpt>
      <trkpt lat="41.075533" lon="-3.713917">
        <ele>1958.0</ele>
        <time>2016-07-25T11:49:37Z</time>
      </trkpt>
      <trkpt lat="41.075617" lon="-3.713983">
        <ele>1963.0</ele>
        <time>2016-07-25T11:49:39Z</time>
      </trkpt>
      <trkpt lat="41.075733" lon="-3.714033">
        <ele>1966.0</ele>
        <time>2016-07-25T11:49:41Z</time>
      </trkpt>
      <trkpt lat="41.075883" lon="-3.714033">
        <ele>1971.0</ele>
        <time>2016-07-25T11:49:43Z</time>
      </trkpt>
      <trkpt lat="41.076033" lon="-3.713950">
        <ele>1980.0</ele>
        <time>2016-07-25T11:49:45Z</time>
      </trkpt>
      <trkpt lat="41.076117" lon="-3.713800">
        <ele>1989.0</ele>
        <time>2016-07-25T11:49:47Z</time>
      </trkpt>
      <trkpt lat="41.076183" lon="-3.713633">
        <ele>1992.0</ele>
        <time>2016-07-25T11:49:49Z</time>
      </trkpt>
      <trkpt lat="41.076233" lon="-3.713317">
        <ele>1995.0</ele>
        <time>2016-07-25T11:49:51Z</time>
      </trkpt>
      <trkpt lat="41.076117" lon="-3.713017">
        <ele>2001.0</ele>
        <time>2016-07-25T11:49:53Z</time>
      </trkpt>
      <trkpt lat="41.075917" lon="-3.712833">
        <ele>2006.0</ele>
        <time>2016-07-25T11:49:55Z</time>
      </trkpt>
      <trkpt lat="41.075700" lon="-3.712800">
        <ele>2011.0</ele>
        <time>2016-07-25T11:49:57Z</time>
      </trkpt>
      <trkpt lat="41.075550" lon="-3.712917">
        <ele>2014.0</ele>
        <time>2016-07-25T11:49:59Z</time>
      </trkpt>
      <trkpt lat="41.075483" lon="-3.713100">
        <ele>2020.0</ele>
        <time>2016-07-25T11:50:01Z</time>
      </trkpt>
      <trkpt lat="41.075517" lon="-3.713233">
        <ele>2028.0</ele>
        <time>2016-07-25T11:50:03Z</time>
      </trkpt>
      <trkpt lat="41.075600" lon="-3.713283">
        <ele>2035.0</ele>
        <time>2016-07-25T11:50:05Z</time>
      </trkpt>
      <trkpt lat="41.075700" lon="-3.713250">
        <ele>2041.0</ele>
        <time>2016-07-25T11:50:07Z</time>
      </trkpt>
      <trkpt lat="41.075817" lon="-3.713100">
        <ele>2043.0</ele>
        <time>2016-07-25T11:50:09Z</time>
      </trkpt>
      <trkpt lat="41.075867" lon="-3.712800">
        <ele>2046.0</ele>
        <time>2016-07-25T11:50:11Z</time>
      </trkpt>
      <trkpt lat="41.075750" lon="-3.712500">
        <ele>2048.0</ele>
        <time>2016-07-25T11:50:13Z</time>
      </trkpt>
      <trkpt lat="41.075517" lon="-3.712350">
        <ele>2050.0</ele>
        <time>2016-07-25T11:50:15Z</time>
      </trkpt>
      <trkpt lat="41.075283" lon="-3.712350">
        <ele>2054.0</ele>
        <time>2016-07-25T11:50:17Z</time>
      </trkpt>
      <trkpt lat="41.075117" lon="-3.712450">
        <ele>2061.0</ele>
        <time>2016-07-25T11:50:19Z</time>
      </trkpt>
      <trkpt lat="41.074983" lon="-3.712550">
        <ele>2068.0</ele>
        <time>2016-07-25T11:50:21Z</time>
      </trkpt>
      <trkpt lat="41.074917" lon="-3.712683">
        <ele>2071.0</ele>
        <time>2016-07-25T11:50:23Z</time>
      </trkpt>
      <trkpt lat="41.074883" lon="-3.712883">
        <ele>2073.0</ele>
        <time>2016-07-25T11:50:25Z</time>
      </trkpt>
      <trkpt lat="41.074867" lon="-3.713117">
        <ele>2080.0</ele>
        <time>2016-07-25T11:50:27Z</time>
      </trkpt>
      <trkpt lat="41.074867" lon="-3.713250">
        <ele>2089.0</ele>
        <time>2016-07-25T11:50:29Z</time>
      </trkpt>
      <trkpt lat="41.074917" lon="-3.713333">
        <ele>2092.0</ele>
        <time>2016-07-25T11:50:31Z</time>
      </trkpt>
      <trkpt lat="41.074983" lon="-3.713467">
        <ele>2094.0</ele>
        <time>2016-07-25T11:50:33Z</time>
      </trkpt>
      <trkpt lat="41.075083" lon="-3.713600">
        <ele>2101.0</ele>
        <time>2016-07-25T11:50:35Z</time>
      </trkpt>
      <trkpt lat="41.075167" lon="-3.713650">
        <ele>2109.0</ele>
        <time>2016-07-25T11:50:37Z</time>
      </trkpt>
      <trkpt lat="41.075300" lon="-3.713617">
        <ele>2115.0</ele>
        <time>2016-07-25T11:50:39Z</time>
      </trkpt>
      <trkpt lat="41.075467" lon="-3.713483">
        <ele>2120.0</ele>
        <time>2016-07-25T11:50:41Z</time>
      </trkpt>
      <trkpt lat="41.075583" lon="-3.713217">
        <ele>2123.0</ele>
        <time>2016-07-25T11:50:43Z</time>
      </trkpt>
      <trkpt lat="41.075650" lon="-3.712883">
        <ele>2128.0</ele>
        <time>2016-07-25T11:50:45Z</time>
      </trkpt>
      <trkpt lat="41.075650" lon="-3.712533">
        <ele>2137.0</ele>
        <time>2016-07-25T11:50:47Z</time>
      </trkpt>
      <trkpt lat="41.075600" lon="-3.712300">
        <ele>2146.0</ele>
        <time>2016-07-25T11:50:49Z</time>
      </trkpt>
      <trkpt lat="41.075467" lon="-3.712100">
        <ele>2147.0</ele>
        <time>2016-07-25T11:50:51Z</time>
      </trkpt>
      <trkpt lat="41.075267" lon="-3.711983">
        <ele>2146.0</ele>
        <time>2016-07-25T11:50:53Z</time>
      </trkpt>
      <trkpt lat="41.075067" lon="-3.712050">
        <ele>2148.0</ele>
        <time>2016-07-25T11:50:55Z</time>
      </trkpt>
      <trkpt lat="41.074933" lon="-3.712167">
        <ele>2155.0</ele>
        <time>2016-07-25T11:50:57Z</time>
      </trkpt>
      <trkpt lat="41.074850" lon="-3.712283">
        <ele>2162.0</ele>
        <time>2016-07-25T11:50:59Z</time>
      </trkpt>
      <trkpt lat="41.074817" lon="-3.712400">
        <ele>2165.0</ele>
        <time>2016-07-25T11:51:01Z</time>
      </trkpt>
      <trkpt lat="41.074850" lon="-3.712533">
        <ele>2169.0</ele>
        <time>2016-07-25T11:51:03Z</time>
      </trkpt>
      <trkpt lat="41.074883" lon="-3.712667">
        <ele>2172.0</ele>
        <time>2016-07-25T11:51:05Z</time>
      </trkpt>
      <trkpt lat="41.074950" lon="-3.712733">
        <ele>2171.0</ele>
        <time>2016-07-25T11:51:07Z</time>
      </trkpt>
      <trkpt lat="41.075050" lon="-3.712767">
        <ele>2165.0</ele>
        <time>2016-07-25T11:51:09Z</time>
      </trkpt>
      <trkpt lat="41.075183" lon="-3.712800">
        <ele>2160.0</ele>
        <time>2016-07-25T11:51:11Z</time>
      </trkpt>
      <trkpt lat="41.075333" lon="-3.712817">
        <ele>2158.0</ele>
        <time>2016-07-25T11:51:13Z</time>
      </trkpt>
      <trkpt lat="41.075467" lon="-3.712817">
        <ele>2156.0</ele>
        <time>2016-07-25T11:51:15Z</time>
      </trkpt>
      <trkpt lat="41.075633" lon="-3.712767">
        <ele>2150.0</ele>
        <time>2016-07-25T11:51:17Z</time>
      </trkpt>
      <trkpt lat="41.075850" lon="-3.712650">
        <ele>2143.0</ele>
        <time>2016-07-25T11:51:19Z</time>
      </trkpt>
      <trkpt lat="41.076050" lon="-3.712500">
        <ele>2142.0</ele>
        <time>2016-07-25T11:51:21Z</time>
      </trkpt>
      <trkpt lat="41.076200" lon="-3.712350">
        <ele>2139.0</ele>
        <time>2016-07-25T11:51:23Z</time>
      </trkpt>
      <trkpt lat="41.076383" lon="-3.712100">
        <ele>2134.0</ele>
        <time>2016-07-25T11:51:25Z</time>
      </trkpt>
      <trkpt lat="41.076567" lon="-3.711917">
        <ele>2132.0</ele>
        <time>2016-07-25T11:51:27Z</time>
      </trkpt>
      <trkpt lat="41.076733" lon="-3.711817">
        <ele>2132.0</ele>
        <time>2016-07-25T11:51:29Z</time>
      </trkpt>
      <trkpt lat="41.076867" lon="-3.711783">
        <ele>2128.0</ele>
        <time>2016-07-25T11:51:31Z</time>
      </trkpt>
      <trkpt lat="41.077000" lon="-3.711850">
        <ele>2121.0</ele>
        <time>2016-07-25T11:51:33Z</time>
      </trkpt>
      <trkpt lat="41.077133" lon="-3.711900">
        <ele>2119.0</ele>
        <time>2016-07-25T11:51:35Z</time>
      </trkpt>
      <trkpt lat="41.077250" lon="-3.711900">
        <ele>2117.0</ele>
        <time>2016-07-25T11:51:37Z</time>
      </trkpt>
      <trkpt lat="41.077350" lon="-3.711950">
        <ele>2111.0</ele>
        <time>2016-07-25T11:51:39Z</time>
      </trkpt>
      <trkpt lat="41.077417" lon="-3.712083">
        <ele>2105.0</ele>
        <time>2016-07-25T11:51:41Z</time>
      </trkpt>
      <trkpt lat="41.077400" lon="-3.712233">
        <ele>2102.0</ele>
        <time>2016-07-25T11:51:43Z</time>
      </trkpt>
      <trkpt lat="41.077350" lon="-3.712383">
        <ele>2097.0</ele>
        <time>2016-07-25T11:51:45Z</time>
      </trkpt>
      <trkpt lat="41.077250" lon="-3.712550">
        <ele>2091.0</ele>
        <time>2016-07-25T11:51:47Z</time>
      </trkpt>
      <trkpt lat="41.077083" lon="-3.712667">
        <ele>2087.0</ele>
        <time>2016-07-25T11:51:49Z</time>
      </trkpt>
      <trkpt lat="41.076983" lon="-3.712733">
        <ele>2084.0</ele>
        <time>2016-07-25T11:51:51Z</time>
      </trkpt>
      <trkpt lat="41.076883" lon="-3.712883">
        <ele>2078.0</ele>
        <time>2016-07-25T11:51:53Z</time>
      </trkpt>
      <trkpt lat="41.076800" lon="-3.713000">
        <ele>2074.0</ele>
        <time>2016-07-25T11:51:55Z</time>
      </trkpt>
      <trkpt lat="41.076733" lon="-3.713133">
        <ele>2068.0</ele>
        <time>2016-07-25T11:51:57Z</time>
      </trkpt>
      <trkpt lat="41.076650" lon="-3.713283">
        <ele>2064.0</ele>
        <time>2016-07-25T11:51:59Z</time>
      </trkpt>
      <trkpt lat="41.076550" lon="-3.713383">
        <ele>2064.0</ele>
        <time>2016-07-25T11:52:01Z</time>
      </trkpt>
      <trkpt lat="41.076417" lon="-3.713467">
        <ele>2063.0</ele>
        <time>2016-07-25T11:52:03Z</time>
      </trkpt>
      <trkpt lat="41.076317" lon="-3.713567">
        <ele>2061.0</ele>
        <time>2016-07-25T11:52:05Z</time>
      </trkpt>
      <trkpt lat="41.076233" lon="-3.713683">
        <ele>2063.0</ele>
        <time>2016-07-25T11:52:07Z</time>
      </trkpt>
      <trkpt lat="41.076150" lon="-3.713733">
        <ele>2064.0</ele>
        <time>2016-07-25T11:52:09Z</time>
      </trkpt>
      <trkpt lat="41.076083" lon="-3.713817">
        <ele>2062.0</ele>
        <time>2016-07-25T11:52:11Z</time>
      </trkpt>
      <trkpt lat="41.076017" lon="-3.713933">
        <ele>2061.0</ele>
        <time>2016-07-25T11:52:13Z</time>
      </trkpt>
      <trkpt lat="41.075967" lon="-3.714000">
        <ele>2060.0</ele>
        <time>2016-07-25T11:52:15Z</time>
      </trkpt>
      <trkpt lat="41.076000" lon="-3.714050">
        <ele>2057.0</ele>
        <time>2016-07-25T11:52:17Z</time>
      </trkpt>
      <trkpt lat="41.076100" lon="-3.714083">
        <ele>2053.0</ele>
        <time>2016-07-25T11:52:19Z</time>
      </trkpt>
      <trkpt lat="41.076217" lon="-3.714117">
        <ele>2055.0</ele>
        <time>2016-07-25T11:52:21Z</time>
      </trkpt>
      <trkpt lat="41.076300" lon="-3.714133">
        <ele>2056.0</ele>
        <time>2016-07-25T11:52:23Z</time>
      </trkpt>
      <trkpt lat="41.076400" lon="-3.714167">
        <ele>2055.0</ele>
        <time>2016-07-25T11:52:25Z</time>
      </trkpt>
      <trkpt lat="41.076533" lon="-3.714200">
        <ele>2055.0</ele>
        <time>2016-07-25T11:52:27Z</time>
      </trkpt>
      <trkpt lat="41.076650" lon="-3.714217">
        <ele>2058.0</ele>
        <time>2016-07-25T11:52:29Z</time>
      </trkpt>
      <trkpt lat="41.076783" lon="-3.714233">
        <ele>2059.0</ele>
        <time>2016-07-25T11:52:31Z</time>
      </trkpt>
      <trkpt lat="41.076917" lon="-3.714233">
        <ele>2059.0</ele>
        <time>2016-07-25T11:52:33Z</time>
      </trkpt>
      <trkpt lat="41.077067" lon="-3.714167">
        <ele>2059.0</ele>
        <time>2016-07-25T11:52:35Z</time>
      </trkpt>
      <trkpt lat="41.077233" lon="-3.714017">
        <ele>2061.0</ele>
        <time>2016-07-25T11:52:37Z</time>
      </trkpt>
      <trkpt lat="41.077383" lon="-3.713850">
        <ele>2066.0</ele>
        <time>2016-07-25T11:52:39Z</time>
      </trkpt>
      <trkpt lat="41.077517" lon="-3.713733">
        <ele>2069.0</ele>
        <time>2016-07-25T11:52:41Z</time>
      </trkpt>
      <trkpt lat="41.077667" lon="-3.713633">
        <ele>2070.0</ele>
        <time>2016-07-25T11:52:43Z</time>
      </trkpt>
      <trkpt lat="41.077833" lon="-3.713583">
        <ele>2072.0</ele>
        <time>2016-07-25T11:52:45Z</time>
      </trkpt>
      <trkpt lat="41.078000" lon="-3.713567">
        <ele>2074.0</ele>
        <time>2016-07-25T11:52:47Z</time>
      </trkpt>
      <trkpt lat="41.078167" lon="-3.713550">
        <ele>2074.0</ele>
        <time>2016-07-25T11:52:49Z</time>
      </trkpt>
      <trkpt lat="41.078367" lon="-3.713550">
        <ele>2074.0</ele>
        <time>2016-07-25T11:52:51Z</time>
      </trkpt>
      <trkpt lat="41.078567" lon="-3.713583">
        <ele>2077.0</ele>
        <time>2016-07-25T11:52:53Z</time>
      </trkpt>
      <trkpt lat="41.078717" lon="-3.713600">
        <ele>2080.0</ele>
        <time>2016-07-25T11:52:55Z</time>
      </trkpt>
      <trkpt lat="41.078883" lon="-3.713617">
        <ele>2080.0</ele>
        <time>2016-07-25T11:52:57Z</time>
      </trkpt>
      <trkpt lat="41.079050" lon="-3.713633">
        <ele>2080.0</ele>
        <time>2016-07-25T11:52:59Z</time>
      </trkpt>
      <trkpt lat="41.079183" lon="-3.713700">
        <ele>2084.0</ele>
        <time>2016-07-25T11:53:01Z</time>
      </trkpt>
      <trkpt lat="41.079267" lon="-3.713750">
        <ele>2087.0</ele>
        <time>2016-07-25T11:53:03Z</time>
      </trkpt>
      <trkpt lat="41.079367" lon="-3.713850">
        <ele>2089.0</ele>
        <time>2016-07-25T11:53:05Z</time>
      </trkpt>
      <trkpt lat="41.079417" lon="-3.714050">
        <ele>2091.0</ele>
        <time>2016-07-25T11:53:07Z</time>
      </trkpt>
      <trkpt lat="41.079433" lon="-3.714233">
        <ele>2097.0</ele>
        <time>2016-07-25T11:53:09Z</time>
      </trkpt>
      <trkpt lat="41.079383" lon="-3.714383">
        <ele>2099.0</ele>
        <time>2016-07-25T11:53:11Z</time>
      </trkpt>
      <trkpt lat="41.079267" lon="-3.714517">
        <ele>2099.0</ele>
        <time>2016-07-25T11:53:13Z</time>
      </trkpt>
      <trkpt lat="41.079083" lon="-3.714567">
        <ele>2100.0</ele>
        <time>2016-07-25T11:53:15Z</time>
      </trkpt>
      <trkpt lat="41.078900" lon="-3.714550">
        <ele>2107.0</ele>
        <time>2016-07-25T11:53:17Z</time>
      </trkpt>
      <trkpt lat="41.078767" lon="-3.714517">
        <ele>2110.0</ele>
        <time>2016-07-25T11:53:19Z</time>
      </trkpt>
      <trkpt lat="41.078600" lon="-3.714400">
        <ele>2109.0</ele>
        <time>2016-07-25T11:53:21Z</time>
      </trkpt>
      <trkpt lat="41.078433" lon="-3.714167">
        <ele>2112.0</ele>
        <time>2016-07-25T11:53:23Z</time>
      </trkpt>
      <trkpt lat="41.078367" lon="-3.713900">
        <ele>2115.0</ele>
        <time>2016-07-25T11:53:25Z</time>
      </trkpt>
      <trkpt lat="41.078367" lon="-3.713633">
        <ele>2116.0</ele>
        <time>2016-07-25T11:53:27Z</time>
      </trkpt>
      <trkpt lat="41.078417" lon="-3.713333">
        <ele>2115.0</ele>
        <time>2016-07-25T11:53:29Z</time>
      </trkpt>
      <trkpt lat="41.078517" lon="-3.713083">
        <ele>2115.0</ele>
        <time>2016-07-25T11:53:31Z</time>
      </trkpt>
      <trkpt lat="41.078633" lon="-3.712883">
        <ele>2116.0</ele>
        <time>2016-07-25T11:53:33Z</time>
      </trkpt>
      <trkpt lat="41.078800" lon="-3.712767">
        <ele>2114.0</ele>
        <time>2016-07-25T11:53:35Z</time>
      </trkpt>
      <trkpt lat="41.079017" lon="-3.712650">
        <ele>2115.0</ele>
        <time>2016-07-25T11:53:37Z</time>
      </trkpt>
      <trkpt lat="41.079167" lon="-3.712567">
        <ele>2121.0</ele>
        <time>2016-07-25T11:53:39Z</time>
      </trkpt>
      <trkpt lat="41.079267" lon="-3.712517">
        <ele>2121.0</ele>
        <time>2016-07-25T11:53:41Z</time>
      </trkpt>
      <trkpt lat="41.079400" lon="-3.712467">
        <ele>2115.0</ele>
        <time>2016-07-25T11:53:43Z</time>
      </trkpt>
      <trkpt lat="41.079517" lon="-3.712533">
        <ele>2108.0</ele>
        <time>2016-07-25T11:53:45Z</time>
      </trkpt>
      <trkpt lat="41.079567" lon="-3.712683">
        <ele>2102.0</ele>
        <time>2016-07-25T11:53:47Z</time>
      </trkpt>
      <trkpt lat="41.079600" lon="-3.712833">
        <ele>2096.0</ele>
        <time>2016-07-25T11:53:49Z</time>
      </trkpt>
      <trkpt lat="41.079583" lon="-3.713033">
        <ele>2090.0</ele>
        <time>2016-07-25T11:53:51Z</time>
      </trkpt>
      <trkpt lat="41.079533" lon="-3.713250">
        <ele>2085.0</ele>
        <time>2016-07-25T11:53:53Z</time>
      </trkpt>
      <trkpt lat="41.079483" lon="-3.713433">
        <ele>2081.0</ele>
        <time>2016-07-25T11:53:55Z</time>
      </trkpt>
      <trkpt lat="41.079367" lon="-3.713617">
        <ele>2077.0</ele>
        <time>2016-07-25T11:53:57Z</time>
      </trkpt>
      <trkpt lat="41.079217" lon="-3.713750">
        <ele>2075.0</ele>
        <time>2016-07-25T11:53:59Z</time>
      </trkpt>
      <trkpt lat="41.079050" lon="-3.713817">
        <ele>2076.0</ele>
        <time>2016-07-25T11:54:01Z</time>
      </trkpt>
      <trkpt lat="41.078900" lon="-3.713883">
        <ele>2076.0</ele>
        <time>2016-07-25T11:54:03Z</time>
      </trkpt>
      <trkpt lat="41.078767" lon="-3.714000">
        <ele>2075.0</ele>
        <time>2016-07-25T11:54:05Z</time>
      </trkpt>
      <trkpt lat="41.078650" lon="-3.714083">
        <ele>2072.0</ele>
        <time>2016-07-25T11:54:07Z</time>
      </trkpt>
      <trkpt lat="41.078550" lon="-3.714233">
        <ele>2068.0</ele>
        <time>2016-07-25T11:54:09Z</time>
      </trkpt>
      <trkpt lat="41.078567" lon="-3.714417">
        <ele>2064.0</ele>
        <time>2016-07-25T11:54:11Z</time>
      </trkpt>
      <trkpt lat="41.078683" lon="-3.714517">
        <ele>2061.0</ele>
        <time>2016-07-25T11:54:13Z</time>
      </trkpt>
      <trkpt lat="41.078833" lon="-3.714517">
        <ele>2058.0</ele>
        <time>2016-07-25T11:54:15Z</time>
      </trkpt>
      <trkpt lat="41.078983" lon="-3.714433">
        <ele>2052.0</ele>
        <time>2016-07-25T11:54:17Z</time>
      </trkpt>
      <trkpt lat="41.079167" lon="-3.714333">
        <ele>2044.0</ele>
        <time>2016-07-25T11:54:19Z</time>
      </trkpt>
      <trkpt lat="41.079350" lon="-3.714217">
        <ele>2039.0</ele>
        <time>2016-07-25T11:54:21Z</time>
      </trkpt>
      <trkpt lat="41.079517" lon="-3.714083">
        <ele>2035.0</ele>
        <time>2016-07-25T11:54:23Z</time>
      </trkpt>
      <trkpt lat="41.079683" lon="-3.713917">
        <ele>2027.0</ele>
        <time>2016-07-25T11:54:25Z</time>
      </trkpt>
      <trkpt lat="41.079883" lon="-3.713733">
        <ele>2023.0</ele>
        <time>2016-07-25T11:54:27Z</time>
      </trkpt>
      <trkpt lat="41.080050" lon="-3.713550">
        <ele>2023.0</ele>
        <time>2016-07-25T11:54:29Z</time>
      </trkpt>
      <trkpt lat="41.080200" lon="-3.713367">
        <ele>2019.0</ele>
        <time>2016-07-25T11:54:31Z</time>
      </trkpt>
      <trkpt lat="41.080383" lon="-3.713167">
        <ele>2014.0</ele>
        <time>2016-07-25T11:54:33Z</time>
      </trkpt>
      <trkpt lat="41.080550" lon="-3.712967">
        <ele>2012.0</ele>
        <time>2016-07-25T11:54:35Z</time>
      </trkpt>
      <trkpt lat="41.080683" lon="-3.712750">
        <ele>2008.0</ele>
        <time>2016-07-25T11:54:37Z</time>
      </trkpt>
      <trkpt lat="41.080850" lon="-3.712550">
        <ele>2002.0</ele>
        <time>2016-07-25T11:54:39Z</time>
      </trkpt>
      <trkpt lat="41.081033" lon="-3.712333">
        <ele>1998.0</ele>
        <time>2016-07-25T11:54:41Z</time>
      </trkpt>
      <trkpt lat="41.081200" lon="-3.712133">
        <ele>1997.0</ele>
        <time>2016-07-25T11:54:43Z</time>
      </trkpt>
      <trkpt lat="41.081333" lon="-3.711950">
        <ele>1992.0</ele>
        <time>2016-07-25T11:54:45Z</time>
      </trkpt>
      <trkpt lat="41.081500" lon="-3.711783">
        <ele>1986.0</ele>
        <time>2016-07-25T11:54:47Z</time>
      </trkpt>
      <trkpt lat="41.081667" lon="-3.711600">
        <ele>1982.0</ele>
        <time>2016-07-25T11:54:49Z</time>
      </trkpt>
      <trkpt lat="41.081783" lon="-3.711400">
        <ele>1980.0</ele>
        <time>2016-07-25T11:54:51Z</time>
      </trkpt>
      <trkpt lat="41.081900" lon="-3.711183">
        <ele>1974.0</ele>
        <time>2016-07-25T11:54:53Z</time>
      </trkpt>
      <trkpt lat="41.082033" lon="-3.711000">
        <ele>1969.0</ele>
        <time>2016-07-25T11:54:55Z</time>
      </trkpt>
      <trkpt lat="41.082167" lon="-3.710817">
        <ele>1965.0</ele>
        <time>2016-07-25T11:54:57Z</time>
      </trkpt>
      <trkpt lat="41.082300" lon="-3.710667">
        <ele>1961.0</ele>
        <time>2016-07-25T11:54:59Z</time>
      </trkpt>
      <trkpt lat="41.082450" lon="-3.710517">
        <ele>1956.0</ele>
        <time>2016-07-25T11:55:01Z</time>
      </trkpt>
      <trkpt lat="41.082600" lon="-3.710400">
        <ele>1953.0</ele>
        <time>2016-07-25T11:55:03Z</time>
      </trkpt>
      <trkpt lat="41.082733" lon="-3.710283">
        <ele>1950.0</ele>
        <time>2016-07-25T11:55:05Z</time>
      </trkpt>
      <trkpt lat="41.082883" lon="-3.710117">
        <ele>1946.0</ele>
        <time>2016-07-25T11:55:07Z</time>
      </trkpt>
      <trkpt lat="41.083050" lon="-3.709967">
        <ele>1944.0</ele>
        <time>2016-07-25T11:55:09Z</time>
      </trkpt>
      <trkpt lat="41.083183" lon="-3.709833">
        <ele>1942.0</ele>
        <time>2016-07-25T11:55:11Z</time>
      </trkpt>
      <trkpt lat="41.083333" lon="-3.709717">
        <ele>1936.0</ele>
        <time>2016-07-25T11:55:13Z</time>
      </trkpt>
      <trkpt lat="41.083517" lon="-3.709600">
        <ele>1933.0</ele>
        <time>2016-07-25T11:55:15Z</time>
      </trkpt>
      <trkpt lat="41.083667" lon="-3.709500">
        <ele>1933.0</ele>
        <time>2016-07-25T11:55:17Z</time>
      </trkpt>
      <trkpt lat="41.083817" lon="-3.709400">
        <ele>1929.0</ele>
        <time>2016-07-25T11:55:19Z</time>
      </trkpt>
      <trkpt lat="41.083983" lon="-3.709333">
        <ele>1925.0</ele>
        <time>2016-07-25T11:55:21Z</time>
      </trkpt>
      <trkpt lat="41.084133" lon="-3.709300">
        <ele>1924.0</ele>
        <time>2016-07-25T11:55:23Z</time>
      </trkpt>
      <trkpt lat="41.084283" lon="-3.709250">
        <ele>1923.0</ele>
        <time>2016-07-25T11:55:25Z</time>
      </trkpt>
      <trkpt lat="41.084450" lon="-3.709183">
        <ele>1919.0</ele>
        <time>2016-07-25T11:55:27Z</time>
      </trkpt>
      <trkpt lat="41.084617" lon="-3.709133">
        <ele>1917.0</ele>
        <time>2016-07-25T11:55:29Z</time>
      </trkpt>
      <trkpt lat="41.084767" lon="-3.709100">
        <ele>1915.0</ele>
        <time>2016-07-25T11:55:31Z</time>
      </trkpt>
      <trkpt lat="41.084917" lon="-3.709050">
        <ele>1911.0</ele>
        <time>2016-07-25T11:55:33Z</time>
      </trkpt>
      <trkpt lat="41.085083" lon="-3.708983">
        <ele>1908.0</ele>
        <time>2016-07-25T11:55:35Z</time>
      </trkpt>
      <trkpt lat="41.085250" lon="-3.708933">
        <ele>1905.0</ele>
        <time>2016-07-25T11:55:37Z</time>
      </trkpt>
      <trkpt lat="41.085417" lon="-3.708867">
        <ele>1904.0</ele>
        <time>2016-07-25T11:55:39Z</time>
      </trkpt>
      <trkpt lat="41.085567" lon="-3.708783">
        <ele>1903.0</ele>
        <time>2016-07-25T11:55:41Z</time>
      </trkpt>
      <trkpt lat="41.085717" lon="-3.708700">
        <ele>1901.0</ele>
        <time>2016-07-25T11:55:43Z</time>
      </trkpt>
      <trkpt lat="41.085867" lon="-3.708600">
        <ele>1898.0</ele>
        <time>2016-07-25T11:55:45Z</time>
      </trkpt>
      <trkpt lat="41.086017" lon="-3.708500">
        <ele>1897.0</ele>
        <time>2016-07-25T11:55:47Z</time>
      </trkpt>
      <trkpt lat="41.086167" lon="-3.708417">
        <ele>1895.0</ele>
        <time>2016-07-25T11:55:49Z</time>
      </trkpt>
      <trkpt lat="41.086317" lon="-3.708317">
        <ele>1892.0</ele>
        <time>2016-07-25T11:55:51Z</time>
      </trkpt>
      <trkpt lat="41.086467" lon="-3.708283">
        <ele>1890.0</ele>
        <time>2016-07-25T11:55:53Z</time>
      </trkpt>
      <trkpt lat="41.086600" lon="-3.708267">
        <ele>1889.0</ele>
        <time>2016-07-25T11:55:55Z</time>
      </trkpt>
      <trkpt lat="41.086750" lon="-3.708233">
        <ele>1889.0</ele>
        <time>2016-07-25T11:55:57Z</time>
      </trkpt>
      <trkpt lat="41.086900" lon="-3.708200">
        <ele>1889.0</ele>
        <time>2016-07-25T11:55:59Z</time>
      </trkpt>
      <trkpt lat="41.087033" lon="-3.708183">
        <ele>1889.0</ele>
        <time>2016-07-25T11:56:01Z</time>
      </trkpt>
      <trkpt lat="41.087183" lon="-3.708167">
        <ele>1888.0</ele>
        <time>2016-07-25T11:56:03Z</time>
      </trkpt>
      <trkpt lat="41.087333" lon="-3.708133">
        <ele>1888.0</ele>
        <time>2016-07-25T11:56:05Z</time>
      </trkpt>
      <trkpt lat="41.087483" lon="-3.708117">
        <ele>1887.0</ele>
        <time>2016-07-25T11:56:07Z</time>
      </trkpt>
      <trkpt lat="41.087633" lon="-3.708083">
        <ele>1885.0</ele>
        <time>2016-07-25T11:56:09Z</time>
      </trkpt>
      <trkpt lat="41.087800" lon="-3.708050">
        <ele>1884.0</ele>
        <time>2016-07-25T11:56:11Z</time>
      </trkpt>
      <trkpt lat="41.087950" lon="-3.708017">
        <ele>1883.0</ele>
        <time>2016-07-25T11:56:13Z</time>
      </trkpt>
      <trkpt lat="41.088117" lon="-3.707967">
        <ele>1882.0</ele>
        <time>2016-07-25T11:56:15Z</time>
      </trkpt>
      <trkpt lat="41.088267" lon="-3.707917">
        <ele>1881.0</ele>
        <time>2016-07-25T11:56:17Z</time>
      </trkpt>
      <trkpt lat="41.088417" lon="-3.707867">
        <ele>1880.0</ele>
        <time>2016-07-25T11:56:19Z</time>
      </trkpt>
      <trkpt lat="41.088567" lon="-3.707850">
        <ele>1878.0</ele>
        <time>2016-07-25T11:56:21Z</time>
      </trkpt>
      <trkpt lat="41.088717" lon="-3.707850">
        <ele>1876.0</ele>
        <time>2016-07-25T11:56:23Z</time>
      </trkpt>
      <trkpt lat="41.088883" lon="-3.707817">
        <ele>1874.0</ele>
        <time>2016-07-25T11:56:25Z</time>
      </trkpt>
      <trkpt lat="41.089017" lon="-3.707783">
        <ele>1872.0</ele>
        <time>2016-07-25T11:56:27Z</time>
      </trkpt>
      <trkpt lat="41.089150" lon="-3.707783">
        <ele>1869.0</ele>
        <time>2016-07-25T11:56:29Z</time>
      </trkpt>
      <trkpt lat="41.089300" lon="-3.707750">
        <ele>1865.0</ele>
        <time>2016-07-25T11:56:31Z</time>
      </trkpt>
      <trkpt lat="41.089467" lon="-3.707733">
        <ele>1860.0</ele>
        <time>2016-07-25T11:56:33Z</time>
      </trkpt>
      <trkpt lat="41.089617" lon="-3.707733">
        <ele>1857.0</ele>
        <time>2016-07-25T11:56:35Z</time>
      </trkpt>
      <trkpt lat="41.089767" lon="-3.707750">
        <ele>1853.0</ele>
        <time>2016-07-25T11:56:37Z</time>
      </trkpt>
      <trkpt lat="41.089917" lon="-3.707800">
        <ele>1850.0</ele>
        <time>2016-07-25T11:56:39Z</time>
      </trkpt>
      <trkpt lat="41.090067" lon="-3.707800">
        <ele>1848.0</ele>
        <time>2016-07-25T11:56:41Z</time>
      </trkpt>
      <trkpt lat="41.090200" lon="-3.707817">
        <ele>1845.0</ele>
        <time>2016-07-25T11:56:43Z</time>
      </trkpt>
      <trkpt lat="41.090350" lon="-3.707833">
        <ele>1841.0</ele>
        <time>2016-07-25T11:56:45Z</time>
      </trkpt>
      <trkpt lat="41.090483" lon="-3.707850">
        <ele>1838.0</ele>
        <time>2016-07-25T11:56:47Z</time>
      </trkpt>
      <trkpt lat="41.090633" lon="-3.707867">
        <ele>1834.0</ele>
        <time>2016-07-25T11:56:49Z</time>
      </trkpt>
      <trkpt lat="41.090783" lon="-3.707883">
        <ele>1830.0</ele>
        <time>2016-07-25T11:56:51Z</time>
      </trkpt>
      <trkpt lat="41.090933" lon="-3.707883">
        <ele>1826.0</ele>
        <time>2016-07-25T11:56:53Z</time>
      </trkpt>
      <trkpt lat="41.091083" lon="-3.707867">
        <ele>1822.0</ele>
        <time>2016-07-25T11:56:55Z</time>
      </trkpt>
      <trkpt lat="41.091250" lon="-3.707850">
        <ele>1817.0</ele>
        <time>2016-07-25T11:56:57Z</time>
      </trkpt>
      <trkpt lat="41.091400" lon="-3.707850">
        <ele>1812.0</ele>
        <time>2016-07-25T11:56:59Z</time>
      </trkpt>
      <trkpt lat="41.091550" lon="-3.707850">
        <ele>1809.0</ele>
        <time>2016-07-25T11:57:01Z</time>
      </trkpt>
      <trkpt lat="41.091683" lon="-3.707867">
        <ele>1806.0</ele>
        <time>2016-07-25T11:57:03Z</time>
      </trkpt>
      <trkpt lat="41.091833" lon="-3.707900">
        <ele>1803.0</ele>
        <time>2016-07-25T11:57:05Z</time>
      </trkpt>
      <trkpt lat="41.091967" lon="-3.707900">
        <ele>1801.0</ele>
        <time>2016-07-25T11:57:07Z</time>
      </trkpt>
      <trkpt lat="41.092100" lon="-3.707933">
        <ele>1801.0</ele>
        <time>2016-07-25T11:57:09Z</time>
      </trkpt>
      <trkpt lat="41.092217" lon="-3.707967">
        <ele>1803.0</ele>
        <time>2016-07-25T11:57:11Z</time>
      </trkpt>
      <trkpt lat="41.092350" lon="-3.707983">
        <ele>1801.0</ele>
        <time>2016-07-25T11:57:13Z</time>
      </trkpt>
      <trkpt lat="41.092483" lon="-3.708017">
        <ele>1798.0</ele>
        <time>2016-07-25T11:57:15Z</time>
      </trkpt>
      <trkpt lat="41.092617" lon="-3.708067">
        <ele>1795.0</ele>
        <time>2016-07-25T11:57:17Z</time>
      </trkpt>
      <trkpt lat="41.092733" lon="-3.708100">
        <ele>1792.0</ele>
        <time>2016-07-25T11:57:19Z</time>
      </trkpt>
      <trkpt lat="41.092850" lon="-3.708167">
        <ele>1788.0</ele>
        <time>2016-07-25T11:57:21Z</time>
      </trkpt>
      <trkpt lat="41.092983" lon="-3.708217">
        <ele>1784.0</ele>
        <time>2016-07-25T11:57:23Z</time>
      </trkpt>
      <trkpt lat="41.093100" lon="-3.708267">
        <ele>1781.0</ele>
        <time>2016-07-25T11:57:25Z</time>
      </trkpt>
      <trkpt lat="41.093217" lon="-3.708300">
        <ele>1776.0</ele>
        <time>2016-07-25T11:57:27Z</time>
      </trkpt>
      <trkpt lat="41.093350" lon="-3.708350">
        <ele>1769.0</ele>
        <time>2016-07-25T11:57:29Z</time>
      </trkpt>
      <trkpt lat="41.093500" lon="-3.708383">
        <ele>1765.0</ele>
        <time>2016-07-25T11:57:31Z</time>
      </trkpt>
      <trkpt lat="41.093617" lon="-3.708400">
        <ele>1761.0</ele>
        <time>2016-07-25T11:57:33Z</time>
      </trkpt>
      <trkpt lat="41.093750" lon="-3.708433">
        <ele>1755.0</ele>
        <time>2016-07-25T11:57:35Z</time>
      </trkpt>
      <trkpt lat="41.093883" lon="-3.708450">
        <ele>1750.0</ele>
        <time>2016-07-25T11:57:37Z</time>
      </trkpt>
      <trkpt lat="41.094017" lon="-3.708467">
        <ele>1744.0</ele>
        <time>2016-07-25T11:57:39Z</time>
      </trkpt>
      <trkpt lat="41.094150" lon="-3.708483">
        <ele>1739.0</ele>
        <time>2016-07-25T11:57:41Z</time>
      </trkpt>
      <trkpt lat="41.094283" lon="-3.708517">
        <ele>1732.0</ele>
        <time>2016-07-25T11:57:43Z</time>
      </trkpt>
      <trkpt lat="41.094417" lon="-3.708550">
        <ele>1725.0</ele>
        <time>2016-07-25T11:57:45Z</time>
      </trkpt>
      <trkpt lat="41.094533" lon="-3.708617">
        <ele>1719.0</ele>
        <time>2016-07-25T11:57:47Z</time>
      </trkpt>
      <trkpt lat="41.094667" lon="-3.708667">
        <ele>1713.0</ele>
        <time>2016-07-25T11:57:49Z</time>
      </trkpt>
      <trkpt lat="41.094817" lon="-3.708700">
        <ele>1708.0</ele>
        <time>2016-07-25T11:57:51Z</time>
      </trkpt>
      <trkpt lat="41.094950" lon="-3.708700">
        <ele>1703.0</ele>
        <time>2016-07-25T11:57:53Z</time>
      </trkpt>
      <trkpt lat="41.095100" lon="-3.708717">
        <ele>1698.0</ele>
        <time>2016-07-25T11:57:55Z</time>
      </trkpt>
      <trkpt lat="41.095250" lon="-3.708733">
        <ele>1693.0</ele>
        <time>2016-07-25T11:57:57Z</time>
      </trkpt>
      <trkpt lat="41.095383" lon="-3.708750">
        <ele>1689.0</ele>
        <time>2016-07-25T11:57:59Z</time>
      </trkpt>
      <trkpt lat="41.095517" lon="-3.708767">
        <ele>1685.0</ele>
        <time>2016-07-25T11:58:01Z</time>
      </trkpt>
      <trkpt lat="41.095667" lon="-3.708767">
        <ele>1681.0</ele>
        <time>2016-07-25T11:58:03Z</time>
      </trkpt>
      <trkpt lat="41.095800" lon="-3.708783">
        <ele>1676.0</ele>
        <time>2016-07-25T11:58:05Z</time>
      </trkpt>
      <trkpt lat="41.095950" lon="-3.708783">
        <ele>1670.0</ele>
        <time>2016-07-25T11:58:07Z</time>
      </trkpt>
      <trkpt lat="41.096100" lon="-3.708783">
        <ele>1665.0</ele>
        <time>2016-07-25T11:58:09Z</time>
      </trkpt>
      <trkpt lat="41.096250" lon="-3.708783">
        <ele>1661.0</ele>
        <time>2016-07-25T11:58:11Z</time>
      </trkpt>
      <trkpt lat="41.096383" lon="-3.708800">
        <ele>1655.0</ele>
        <time>2016-07-25T11:58:13Z</time>
      </trkpt>
      <trkpt lat="41.096533" lon="-3.708833">
        <ele>1648.0</ele>
        <time>2016-07-25T11:58:15Z</time>
      </trkpt>
      <trkpt lat="41.096667" lon="-3.708867">
        <ele>1644.0</ele>
        <time>2016-07-25T11:58:17Z</time>
      </trkpt>
      <trkpt lat="41.096817" lon="-3.708883">
        <ele>1639.0</ele>
        <time>2016-07-25T11:58:19Z</time>
      </trkpt>
      <trkpt lat="41.096950" lon="-3.708900">
        <ele>1633.0</ele>
        <time>2016-07-25T11:58:21Z</time>
      </trkpt>
      <trkpt lat="41.097083" lon="-3.708933">
        <ele>1628.0</ele>
        <time>2016-07-25T11:58:23Z</time>
      </trkpt>
      <trkpt lat="41.097233" lon="-3.708950">
        <ele>1621.0</ele>
        <time>2016-07-25T11:58:25Z</time>
      </trkpt>
      <trkpt lat="41.097400" lon="-3.708967">
        <ele>1616.0</ele>
        <time>2016-07-25T11:58:27Z</time>
      </trkpt>
      <trkpt lat="41.097550" lon="-3.708983">
        <ele>1612.0</ele>
        <time>2016-07-25T11:58:29Z</time>
      </trkpt>
      <trkpt lat="41.097717" lon="-3.709017">
        <ele>1609.0</ele>
        <time>2016-07-25T11:58:31Z</time>
      </trkpt>
      <trkpt lat="41.097883" lon="-3.709017">
        <ele>1606.0</ele>
        <time>2016-07-25T11:58:33Z</time>
      </trkpt>
      <trkpt lat="41.098050" lon="-3.708967">
        <ele>1602.0</ele>
        <time>2016-07-25T11:58:35Z</time>
      </trkpt>
      <trkpt lat="41.098233" lon="-3.708933">
        <ele>1599.0</ele>
        <time>2016-07-25T11:58:37Z</time>
      </trkpt>
      <trkpt lat="41.098400" lon="-3.708883">
        <ele>1596.0</ele>
        <time>2016-07-25T11:58:39Z</time>
      </trkpt>
      <trkpt lat="41.098567" lon="-3.708833">
        <ele>1591.0</ele>
        <time>2016-07-25T11:58:41Z</time>
      </trkpt>
      <trkpt lat="41.098717" lon="-3.708867">
        <ele>1584.0</ele>
        <time>2016-07-25T11:58:43Z</time>
      </trkpt>
      <trkpt lat="41.098883" lon="-3.708917">
        <ele>1579.0</ele>
        <time>2016-07-25T11:58:45Z</time>
      </trkpt>
      <trkpt lat="41.099050" lon="-3.709000">
        <ele>1577.0</ele>
        <time>2016-07-25T11:58:47Z</time>
      </trkpt>
      <trkpt lat="41.099217" lon="-3.709083">
        <ele>1577.0</ele>
        <time>2016-07-25T11:58:49Z</time>
      </trkpt>
      <trkpt lat="41.099367" lon="-3.709150">
        <ele>1578.0</ele>
        <time>2016-07-25T11:58:51Z</time>
      </trkpt>
      <trkpt lat="41.099500" lon="-3.709217">
        <ele>1574.0</ele>
        <time>2016-07-25T11:58:53Z</time>
      </trkpt>
      <trkpt lat="41.099667" lon="-3.709283">
        <ele>1573.0</ele>
        <time>2016-07-25T11:58:55Z</time>
      </trkpt>
      <trkpt lat="41.099800" lon="-3.709350">
        <ele>1575.0</ele>
        <time>2016-07-25T11:58:57Z</time>
      </trkpt>
      <trkpt lat="41.099917" lon="-3.709417">
        <ele>1574.0</ele>
        <time>2016-07-25T11:58:59Z</time>
      </trkpt>
      <trkpt lat="41.100067" lon="-3.709483">
        <ele>1573.0</ele>
        <time>2016-07-25T11:59:01Z</time>
      </trkpt>
      <trkpt lat="41.100217" lon="-3.709517">
        <ele>1572.0</ele>
        <time>2016-07-25T11:59:03Z</time>
      </trkpt>
      <trkpt lat="41.100383" lon="-3.709567">
        <ele>1570.0</ele>
        <time>2016-07-25T11:59:05Z</time>
      </trkpt>
      <trkpt lat="41.100583" lon="-3.709617">
        <ele>1571.0</ele>
        <time>2016-07-25T11:59:07Z</time>
      </trkpt>
      <trkpt lat="41.100750" lon="-3.709700">
        <ele>1574.0</ele>
        <time>2016-07-25T11:59:09Z</time>
      </trkpt>
      <trkpt lat="41.100900" lon="-3.709733">
        <ele>1573.0</ele>
        <time>2016-07-25T11:59:11Z</time>
      </trkpt>
      <trkpt lat="41.101050" lon="-3.709767">
        <ele>1568.0</ele>
        <time>2016-07-25T11:59:13Z</time>
      </trkpt>
      <trkpt lat="41.101233" lon="-3.709833">
        <ele>1562.0</ele>
        <time>2016-07-25T11:59:15Z</time>
      </trkpt>
      <trkpt lat="41.101417" lon="-3.709933">
        <ele>1562.0</ele>
        <time>2016-07-25T11:59:17Z</time>
      </trkpt>
      <trkpt lat="41.101567" lon="-3.709967">
        <ele>1566.0</ele>
        <time>2016-07-25T11:59:19Z</time>
      </trkpt>
      <trkpt lat="41.101700" lon="-3.709983">
        <ele>1568.0</ele>
        <time>2016-07-25T11:59:21Z</time>
      </trkpt>
      <trkpt lat="41.101867" lon="-3.709983">
        <ele>1569.0</ele>
        <time>2016-07-25T11:59:23Z</time>
      </trkpt>
      <trkpt lat="41.102100" lon="-3.709867">
        <ele>1568.0</ele>
        <time>2016-07-25T11:59:25Z</time>
      </trkpt>
      <trkpt lat="41.102317" lon="-3.709717">
        <ele>1573.0</ele>
        <time>2016-07-25T11:59:27Z</time>
      </trkpt>
      <trkpt lat="41.102483" lon="-3.709583">
        <ele>1578.0</ele>
        <time>2016-07-25T11:59:29Z</time>
      </trkpt>
      <trkpt lat="41.102650" lon="-3.709417">
        <ele>1580.0</ele>
        <time>2016-07-25T11:59:31Z</time>
      </trkpt>
      <trkpt lat="41.102733" lon="-3.709100">
        <ele>1579.0</ele>
        <time>2016-07-25T11:59:33Z</time>
      </trkpt>
      <trkpt lat="41.102717" lon="-3.708817">
        <ele>1581.0</ele>
        <time>2016-07-25T11:59:35Z</time>
      </trkpt>
      <trkpt lat="41.102633" lon="-3.708583">
        <ele>1580.0</ele>
        <time>2016-07-25T11:59:37Z</time>
      </trkpt>
      <trkpt lat="41.102500" lon="-3.708383">
        <ele>1578.0</ele>
        <time>2016-07-25T11:59:39Z</time>
      </trkpt>
      <trkpt lat="41.102333" lon="-3.708333">
        <ele>1579.0</ele>
        <time>2016-07-25T11:59:41Z</time>
      </trkpt>
      <trkpt lat="41.102250" lon="-3.708367">
        <ele>1580.0</ele>
        <time>2016-07-25T11:59:43Z</time>
      </trkpt>
      <trkpt lat="41.102183" lon="-3.708383">
        <ele>1579.0</ele>
        <time>2016-07-25T11:59:45Z</time>
      </trkpt>
      <trkpt lat="41.102150" lon="-3.708450">
        <ele>1577.0</ele>
        <time>2016-07-25T11:59:47Z</time>
      </trkpt>
      <trkpt lat="41.102083" lon="-3.708567">
        <ele>1578.0</ele>
        <time>2016-07-25T11:59:49Z</time>
      </trkpt>
      <trkpt lat="41.102017" lon="-3.708617">
        <ele>1582.0</ele>
        <time>2016-07-25T11:59:51Z</time>
      </trkpt>
      <trkpt lat="41.101967" lon="-3.708667">
        <ele>1582.0</ele>
        <time>2016-07-25T11:59:53Z</time>
      </trkpt>
      <trkpt lat="41.101933" lon="-3.708783">
        <ele>1580.0</ele>
        <time>2016-07-25T11:59:55Z</time>
      </trkpt>
      <trkpt lat="41.101950" lon="-3.708933">
        <ele>1583.0</ele>
        <time>2016-07-25T11:59:57Z</time>
      </trkpt>
      <trkpt lat="41.102017" lon="-3.709067">
        <ele>1591.0</ele>
        <time>2016-07-25T11:59:59Z</time>
      </trkpt>
      <trkpt lat="41.102067" lon="-3.709200">
        <ele>1599.0</ele>
        <time>2016-07-25T12:00:01Z</time>
      </trkpt>
      <trkpt lat="41.102100" lon="-3.709333">
        <ele>1603.0</ele>
        <time>2016-07-25T12:00:03Z</time>
      </trkpt>
      <trkpt lat="41.102217" lon="-3.709467">
        <ele>1608.0</ele>
        <time>2016-07-25T12:00:05Z</time>
      </trkpt>
      <trkpt lat="41.102367" lon="-3.709483">
        <ele>1618.0</ele>
        <time>2016-07-25T12:00:07Z</time>
      </trkpt>
      <trkpt lat="41.102483" lon="-3.709400">
        <ele>1626.0</ele>
        <time>2016-07-25T12:00:09Z</time>
      </trkpt>
      <trkpt lat="41.102650" lon="-3.709250">
        <ele>1629.0</ele>
        <time>2016-07-25T12:00:11Z</time>
      </trkpt>
      <trkpt lat="41.102783" lon="-3.708983">
        <ele>1633.0</ele>
        <time>2016-07-25T12:00:13Z</time>
      </trkpt>
      <trkpt lat="41.102767" lon="-3.708700">
        <ele>1640.0</ele>
        <time>2016-07-25T12:00:15Z</time>
      </trkpt>
      <trkpt lat="41.102667" lon="-3.708483">
        <ele>1645.0</ele>
        <time>2016-07-25T12:00:17Z</time>
      </trkpt>
      <trkpt lat="41.102517" lon="-3.708317">
        <ele>1649.0</ele>
        <time>2016-07-25T12:00:19Z</time>
      </trkpt>
      <trkpt lat="41.102367" lon="-3.708250">
        <ele>1654.0</ele>
        <time>2016-07-25T12:00:21Z</time>
      </trkpt>
      <trkpt lat="41.102217" lon="-3.708283">
        <ele>1660.0</ele>
        <time>2016-07-25T12:00:23Z</time>
      </trkpt>
      <trkpt lat="41.102133" lon="-3.708367">
        <ele>1671.0</ele>
        <time>2016-07-25T12:00:25Z</time>
      </trkpt>
      <trkpt lat="41.102050" lon="-3.708450">
        <ele>1680.0</ele>
        <time>2016-07-25T12:00:27Z</time>
      </trkpt>
      <trkpt lat="41.101967" lon="-3.708583">
        <ele>1687.0</ele>
        <time>2016-07-25T12:00:29Z</time>
      </trkpt>
      <trkpt lat="41.102000" lon="-3.708750">
        <ele>1695.0</ele>
        <time>2016-07-25T12:00:31Z</time>
      </trkpt>
      <trkpt lat="41.102133" lon="-3.708817">
        <ele>1702.0</ele>
        <time>2016-07-25T12:00:33Z</time>
      </trkpt>
      <trkpt lat="41.102267" lon="-3.708817">
        <ele>1710.0</ele>
        <time>2016-07-25T12:00:35Z</time>
      </trkpt>
      <trkpt lat="41.102400" lon="-3.708717">
        <ele>1715.0</ele>
        <time>2016-07-25T12:00:37Z</time>
      </trkpt>
      <trkpt lat="41.102533" lon="-3.708483">
        <ele>1718.0</ele>
        <time>2016-07-25T12:00:39Z</time>
      </trkpt>
      <trkpt lat="41.102633" lon="-3.708250">
        <ele>1727.0</ele>
        <time>2016-07-25T12:00:41Z</time>
      </trkpt>
      <trkpt lat="41.102717" lon="-3.708050">
        <ele>1733.0</ele>
        <time>2016-07-25T12:00:43Z</time>
      </trkpt>
      <trkpt lat="41.102733" lon="-3.707767">
        <ele>1737.0</ele>
        <time>2016-07-25T12:00:45Z</time>
      </trkpt>
      <trkpt lat="41.102650" lon="-3.707467">
        <ele>1742.0</ele>
        <time>2016-07-25T12:00:47Z</time>
      </trkpt>
      <trkpt lat="41.102500" lon="-3.707300">
        <ele>1748.0</ele>
        <time>2016-07-25T12:00:49Z</time>
      </trkpt>
      <trkpt lat="41.102333" lon="-3.707233">
        <ele>1750.0</ele>
        <time>2016-07-25T12:00:51Z</time>
      </trkpt>
      <trkpt lat="41.102133" lon="-3.707250">
        <ele>1755.0</ele>
        <time>2016-07-25T12:00:53Z</time>
      </trkpt>
      <trkpt lat="41.101983" lon="-3.707300">
        <ele>1765.0</ele>
        <time>2016-07-25T12:00:55Z</time>
      </trkpt>
      <trkpt lat="41.101850" lon="-3.707350">
        <ele>1772.0</ele>
        <time>2016-07-25T12:00:57Z</time>
      </trkpt>
      <trkpt lat="41.101717" lon="-3.707500">
        <ele>1780.0</ele>
        <time>2016-07-25T12:00:59Z</time>
      </trkpt>
      <trkpt lat="41.101700" lon="-3.707650">
        <ele>1792.0</ele>
        <time>2016-07-25T12:01:01Z</time>
      </trkpt>
      <trkpt lat="41.101767" lon="-3.707683">
        <ele>1803.0</ele>
        <time>2016-07-25T12:01:03Z</time>
      </trkpt>
      <trkpt lat="41.101883" lon="-3.707700">
        <ele>1810.0</ele>
        <time>2016-07-25T12:01:05Z</time>
      </trkpt>
      <trkpt lat="41.102050" lon="-3.707667">
        <ele>1818.0</ele>
        <time>2016-07-25T12:01:07Z</time>
      </trkpt>
      <trkpt lat="41.102200" lon="-3.707533">
        <ele>1828.0</ele>
        <time>2016-07-25T12:01:09Z</time>
      </trkpt>
      <trkpt lat="41.102300" lon="-3.707350">
        <ele>1835.0</ele>
        <time>2016-07-25T12:01:11Z</time>
      </trkpt>
      <trkpt lat="41.102350" lon="-3.707100">
        <ele>1839.0</ele>
        <time>2016-07-25T12:01:13Z</time>
      </trkpt>
      <trkpt lat="41.102300" lon="-3.706767">
        <ele>1843.0</ele>
        <time>2016-07-25T12:01:15Z</time>
      </trkpt>
      <trkpt lat="41.102150" lon="-3.706517">
        <ele>1852.0</ele>
        <time>2016-07-25T12:01:17Z</time>
      </trkpt>
      <trkpt lat="41.102000" lon="-3.706367">
        <ele>1861.0</ele>
        <time>2016-07-25T12:01:19Z</time>
      </trkpt>
      <trkpt lat="41.101817" lon="-3.706217">
        <ele>1869.0</ele>
        <time>2016-07-25T12:01:21Z</time>
      </trkpt>
      <trkpt lat="41.101600" lon="-3.706117">
        <ele>1879.0</ele>
        <time>2016-07-25T12:01:23Z</time>
      </trkpt>
      <trkpt lat="41.101400" lon="-3.706100">
        <ele>1889.0</ele>
        <time>2016-07-25T12:01:25Z</time>
      </trkpt>
      <trkpt lat="41.101267" lon="-3.706150">
        <ele>1900.0</ele>
        <time>2016-07-25T12:01:27Z</time>
      </trkpt>
      <trkpt lat="41.101200" lon="-3.706233">
        <ele>1910.0</ele>
        <time>2016-07-25T12:01:29Z</time>
      </trkpt>
      <trkpt lat="41.101183" lon="-3.706300">
        <ele>1914.0</ele>
        <time>2016-07-25T12:01:31Z</time>
      </trkpt>
      <trkpt lat="41.101250" lon="-3.706417">
        <ele>1916.0</ele>
        <time>2016-07-25T12:01:33Z</time>
      </trkpt>
      <trkpt lat="41.101367" lon="-3.706467">
        <ele>1926.0</ele>
        <time>2016-07-25T12:01:35Z</time>
      </trkpt>
      <trkpt lat="41.101467" lon="-3.706483">
        <ele>1937.0</ele>
        <time>2016-07-25T12:01:37Z</time>
      </trkpt>
      <trkpt lat="41.101617" lon="-3.706450">
        <ele>1945.0</ele>
        <time>2016-07-25T12:01:39Z</time>
      </trkpt>
      <trkpt lat="41.101750" lon="-3.706367">
        <ele>1957.0</ele>
        <time>2016-07-25T12:01:41Z</time>
      </trkpt>
      <trkpt lat="41.101883" lon="-3.706200">
        <ele>1967.0</ele>
        <time>2016-07-25T12:01:43Z</time>
      </trkpt>
      <trkpt lat="41.101967" lon="-3.705917">
        <ele>1974.0</ele>
        <time>2016-07-25T12:01:45Z</time>
      </trkpt>
      <trkpt lat="41.101950" lon="-3.705600">
        <ele>1983.0</ele>
        <time>2016-07-25T12:01:47Z</time>
      </trkpt>
      <trkpt lat="41.101850" lon="-3.705317">
        <ele>1993.0</ele>
        <time>2016-07-25T12:01:49Z</time>
      </trkpt>
      <trkpt lat="41.101700" lon="-3.705083">
        <ele>2001.0</ele>
        <time>2016-07-25T12:01:51Z</time>
      </trkpt>
      <trkpt lat="41.101483" lon="-3.704900">
        <ele>2010.0</ele>
        <time>2016-07-25T12:01:53Z</time>
      </trkpt>
      <trkpt lat="41.101283" lon="-3.704817">
        <ele>2021.0</ele>
        <time>2016-07-25T12:01:55Z</time>
      </trkpt>
      <trkpt lat="41.101150" lon="-3.704767">
        <ele>2031.0</ele>
        <time>2016-07-25T12:01:57Z</time>
      </trkpt>
      <trkpt lat="41.101017" lon="-3.704700">
        <ele>2036.0</ele>
        <time>2016-07-25T12:01:59Z</time>
      </trkpt>
      <trkpt lat="41.100883" lon="-3.704717">
        <ele>2039.0</ele>
        <time>2016-07-25T12:02:01Z</time>
      </trkpt>
      <trkpt lat="41.100800" lon="-3.704817">
        <ele>2041.0</ele>
        <time>2016-07-25T12:02:03Z</time>
      </trkpt>
      <trkpt lat="41.100817" lon="-3.704983">
        <ele>2047.0</ele>
        <time>2016-07-25T12:02:05Z</time>
      </trkpt>
      <trkpt lat="41.100850" lon="-3.705067">
        <ele>2058.0</ele>
        <time>2016-07-25T12:02:07Z</time>
      </trkpt>
      <trkpt lat="41.100900" lon="-3.705117">
        <ele>2066.0</ele>
        <time>2016-07-25T12:02:09Z</time>
      </trkpt>
      <trkpt lat="41.101017" lon="-3.705150">
        <ele>2074.0</ele>
        <time>2016-07-25T12:02:11Z</time>
      </trkpt>
      <trkpt lat="41.101150" lon="-3.705150">
        <ele>2085.0</ele>
        <time>2016-07-25T12:02:13Z</time>
      </trkpt>
      <trkpt lat="41.101283" lon="-3.705050">
        <ele>2095.0</ele>
        <time>2016-07-25T12:02:15Z</time>
      </trkpt>
      <trkpt lat="41.101417" lon="-3.704917">
        <ele>2104.0</ele>
        <time>2016-07-25T12:02:17Z</time>
      </trkpt>
      <trkpt lat="41.101550" lon="-3.704650">
        <ele>2113.0</ele>
        <time>2016-07-25T12:02:19Z</time>
      </trkpt>
      <trkpt lat="41.101600" lon="-3.704317">
        <ele>2121.0</ele>
        <time>2016-07-25T12:02:21Z</time>
      </trkpt>
      <trkpt lat="41.101583" lon="-3.704000">
        <ele>2131.0</ele>
        <time>2016-07-25T12:02:23Z</time>
      </trkpt>
      <trkpt lat="41.101517" lon="-3.703683">
        <ele>2139.0</ele>
        <time>2016-07-25T12:02:25Z</time>
      </trkpt>
      <trkpt lat="41.101383" lon="-3.703383">
        <ele>2147.0</ele>
        <time>2016-07-25T12:02:27Z</time>
      </trkpt>
      <trkpt lat="41.101217" lon="-3.703200">
        <ele>2158.0</ele>
        <time>2016-07-25T12:02:29Z</time>
      </trkpt>
      <trkpt lat="41.101067" lon="-3.703100">
        <ele>2168.0</ele>
        <time>2016-07-25T12:02:31Z</time>
      </trkpt>
      <trkpt lat="41.100883" lon="-3.703017">
        <ele>2175.0</ele>
        <time>2016-07-25T12:02:33Z</time>
      </trkpt>
      <trkpt lat="41.100733" lon="-3.703067">
        <ele>2183.0</ele>
        <time>2016-07-25T12:02:35Z</time>
      </trkpt>
      <trkpt lat="41.100650" lon="-3.703183">
        <ele>2192.0</ele>
        <time>2016-07-25T12:02:37Z</time>
      </trkpt>
      <trkpt lat="41.100650" lon="-3.703283">
        <ele>2201.0</ele>
        <time>2016-07-25T12:02:39Z</time>
      </trkpt>
      <trkpt lat="41.100700" lon="-3.703417">
        <ele>2207.0</ele>
        <time>2016-07-25T12:02:41Z</time>
      </trkpt>
      <trkpt lat="41.100833" lon="-3.703500">
        <ele>2216.0</ele>
        <time>2016-07-25T12:02:43Z</time>
      </trkpt>
      <trkpt lat="41.101017" lon="-3.703500">
        <ele>2226.0</ele>
        <time>2016-07-25T12:02:45Z</time>
      </trkpt>
      <trkpt lat="41.101183" lon="-3.703433">
        <ele>2239.0</ele>
        <time>2016-07-25T12:02:47Z</time>
      </trkpt>
      <trkpt lat="41.101317" lon="-3.703283">
        <ele>2249.0</ele>
        <time>2016-07-25T12:02:49Z</time>
      </trkpt>
      <trkpt lat="41.101450" lon="-3.703067">
        <ele>2257.0</ele>
        <time>2016-07-25T12:02:51Z</time>
      </trkpt>
      <trkpt lat="41.101500" lon="-3.702783">
        <ele>2265.0</ele>
        <time>2016-07-25T12:02:53Z</time>
      </trkpt>
      <trkpt lat="41.101500" lon="-3.702467">
        <ele>2274.0</ele>
        <time>2016-07-25T12:02:55Z</time>
      </trkpt>
      <trkpt lat="41.101433" lon="-3.702183">
        <ele>2284.0</ele>
        <time>2016-07-25T12:02:57Z</time>
      </trkpt>
      <trkpt lat="41.101317" lon="-3.701933">
        <ele>2291.0</ele>
        <time>2016-07-25T12:02:59Z</time>
      </trkpt>
      <trkpt lat="41.101150" lon="-3.701733">
        <ele>2299.0</ele>
        <time>2016-07-25T12:03:01Z</time>
      </trkpt>
      <trkpt lat="41.100967" lon="-3.701650">
        <ele>2310.0</ele>
        <time>2016-07-25T12:03:03Z</time>
      </trkpt>
      <trkpt lat="41.100833" lon="-3.701683">
        <ele>2322.0</ele>
        <time>2016-07-25T12:03:05Z</time>
      </trkpt>
      <trkpt lat="41.100733" lon="-3.701767">
        <ele>2332.0</ele>
        <time>2016-07-25T12:03:07Z</time>
      </trkpt>
      <trkpt lat="41.100700" lon="-3.701900">
        <ele>2341.0</ele>
        <time>2016-07-25T12:03:09Z</time>
      </trkpt>
      <trkpt lat="41.100783" lon="-3.702050">
        <ele>2350.0</ele>
        <time>2016-07-25T12:03:11Z</time>
      </trkpt>
      <trkpt lat="41.100950" lon="-3.702117">
        <ele>2360.0</ele>
        <time>2016-07-25T12:03:13Z</time>
      </trkpt>
      <trkpt lat="41.101133" lon="-3.702067">
        <ele>2371.0</ele>
        <time>2016-07-25T12:03:15Z</time>
      </trkpt>
      <trkpt lat="41.101333" lon="-3.701933">
        <ele>2380.0</ele>
        <time>2016-07-25T12:03:17Z</time>
      </trkpt>
      <trkpt lat="41.101483" lon="-3.701700">
        <ele>2389.0</ele>
        <time>2016-07-25T12:03:19Z</time>
      </trkpt>
      <trkpt lat="41.101583" lon="-3.701450">
        <ele>2401.0</ele>
        <time>2016-07-25T12:03:21Z</time>
      </trkpt>
      <trkpt lat="41.101617" lon="-3.701200">
        <ele>2411.0</ele>
        <time>2016-07-25T12:03:23Z</time>
      </trkpt>
      <trkpt lat="41.101600" lon="-3.700917">
        <ele>2416.0</ele>
        <time>2016-07-25T12:03:25Z</time>
      </trkpt>
      <trkpt lat="41.101467" lon="-3.700683">
        <ele>2420.0</ele>
        <time>2016-07-25T12:03:27Z</time>
      </trkpt>
      <trkpt lat="41.101283" lon="-3.700550">
        <ele>2431.0</ele>
        <time>2016-07-25T12:03:29Z</time>
      </trkpt>
      <trkpt lat="41.101133" lon="-3.700567">
        <ele>2443.0</ele>
        <time>2016-07-25T12:03:31Z</time>
      </trkpt>
      <trkpt lat="41.101067" lon="-3.700683">
        <ele>2454.0</ele>
        <time>2016-07-25T12:03:33Z</time>
      </trkpt>
      <trkpt lat="41.101067" lon="-3.700867">
        <ele>2463.0</ele>
        <time>2016-07-25T12:03:35Z</time>
      </trkpt>
      <trkpt lat="41.101133" lon="-3.701000">
        <ele>2473.0</ele>
        <time>2016-07-25T12:03:37Z</time>
      </trkpt>
      <trkpt lat="41.101217" lon="-3.701100">
        <ele>2483.0</ele>
        <time>2016-07-25T12:03:39Z</time>
      </trkpt>
      <trkpt lat="41.101317" lon="-3.701200">
        <ele>2491.0</ele>
        <time>2016-07-25T12:03:41Z</time>
      </trkpt>
      <trkpt lat="41.101417" lon="-3.701317">
        <ele>2497.0</ele>
        <time>2016-07-25T12:03:43Z</time>
      </trkpt>
      <trkpt lat="41.101500" lon="-3.701450">
        <ele>2502.0</ele>
        <time>2016-07-25T12:03:45Z</time>
      </trkpt>
      <trkpt lat="41.101600" lon="-3.701550">
        <ele>2506.0</ele>
        <time>2016-07-25T12:03:47Z</time>
      </trkpt>
      <trkpt lat="41.101683" lon="-3.701667">
        <ele>2509.0</ele>
        <time>2016-07-25T12:03:49Z</time>
      </trkpt>
      <trkpt lat="41.101783" lon="-3.701800">
        <ele>2511.0</ele>
        <time>2016-07-25T12:03:51Z</time>
      </trkpt>
      <trkpt lat="41.101883" lon="-3.701933">
        <ele>2513.0</ele>
        <time>2016-07-25T12:03:53Z</time>
      </trkpt>
      <trkpt lat="41.102017" lon="-3.702033">
        <ele>2515.0</ele>
        <time>2016-07-25T12:03:55Z</time>
      </trkpt>
      <trkpt lat="41.102150" lon="-3.702117">
        <ele>2518.0</ele>
        <time>2016-07-25T12:03:57Z</time>
      </trkpt>
      <trkpt lat="41.102283" lon="-3.702200">
        <ele>2520.0</ele>
        <time>2016-07-25T12:03:59Z</time>
      </trkpt>
      <trkpt lat="41.102400" lon="-3.702250">
        <ele>2523.0</ele>
        <time>2016-07-25T12:04:01Z</time>
      </trkpt>
      <trkpt lat="41.102533" lon="-3.702317">
        <ele>2524.0</ele>
        <time>2016-07-25T12:04:03Z</time>
      </trkpt>
      <trkpt lat="41.102683" lon="-3.702383">
        <ele>2525.0</ele>
        <time>2016-07-25T12:04:05Z</time>
      </trkpt>
      <trkpt lat="41.102817" lon="-3.702417">
        <ele>2525.0</ele>
        <time>2016-07-25T12:04:07Z</time>
      </trkpt>
      <trkpt lat="41.102950" lon="-3.702467">
        <ele>2524.0</ele>
        <time>2016-07-25T12:04:09Z</time>
      </trkpt>
      <trkpt lat="41.103083" lon="-3.702533">
        <ele>2523.0</ele>
        <time>2016-07-25T12:04:11Z</time>
      </trkpt>
      <trkpt lat="41.103200" lon="-3.702633">
        <ele>2524.0</ele>
        <time>2016-07-25T12:04:13Z</time>
      </trkpt>
      <trkpt lat="41.103317" lon="-3.702717">
        <ele>2525.0</ele>
        <time>2016-07-25T12:04:15Z</time>
      </trkpt>
      <trkpt lat="41.103433" lon="-3.702800">
        <ele>2525.0</ele>
        <time>2016-07-25T12:04:17Z</time>
      </trkpt>
      <trkpt lat="41.103567" lon="-3.702833">
        <ele>2524.0</ele>
        <time>2016-07-25T12:04:19Z</time>
      </trkpt>
      <trkpt lat="41.103683" lon="-3.702883">
        <ele>2521.0</ele>
        <time>2016-07-25T12:04:21Z</time>
      </trkpt>
      <trkpt lat="41.103833" lon="-3.702883">
        <ele>2521.0</ele>
        <time>2016-07-25T12:04:23Z</time>
      </trkpt>
      <trkpt lat="41.103967" lon="-3.702833">
        <ele>2522.0</ele>
        <time>2016-07-25T12:04:25Z</time>
      </trkpt>
      <trkpt lat="41.104100" lon="-3.702767">
        <ele>2521.0</ele>
        <time>2016-07-25T12:04:27Z</time>
      </trkpt>
      <trkpt lat="41.104267" lon="-3.702683">
        <ele>2519.0</ele>
        <time>2016-07-25T12:04:29Z</time>
      </trkpt>
      <trkpt lat="41.104400" lon="-3.702600">
        <ele>2523.0</ele>
        <time>2016-07-25T12:04:31Z</time>
      </trkpt>
      <trkpt lat="41.104517" lon="-3.702517">
        <ele>2524.0</ele>
        <time>2016-07-25T12:04:33Z</time>
      </trkpt>
      <trkpt lat="41.104633" lon="-3.702433">
        <ele>2523.0</ele>
        <time>2016-07-25T12:04:35Z</time>
      </trkpt>
      <trkpt lat="41.104817" lon="-3.702383">
        <ele>2524.0</ele>
        <time>2016-07-25T12:04:37Z</time>
      </trkpt>
      <trkpt lat="41.104950" lon="-3.702317">
        <ele>2529.0</ele>
        <time>2016-07-25T12:04:39Z</time>
      </trkpt>
      <trkpt lat="41.105117" lon="-3.702283">
        <ele>2530.0</ele>
        <time>2016-07-25T12:04:41Z</time>
      </trkpt>
      <trkpt lat="41.105300" lon="-3.702250">
        <ele>2533.0</ele>
        <time>2016-07-25T12:04:43Z</time>
      </trkpt>
      <trkpt lat="41.105500" lon="-3.702217">
        <ele>2539.0</ele>
        <time>2016-07-25T12:04:45Z</time>
      </trkpt>
      <trkpt lat="41.105683" lon="-3.702183">
        <ele>2547.0</ele>
        <time>2016-07-25T12:04:47Z</time>
      </trkpt>
      <trkpt lat="41.105867" lon="-3.702133">
        <ele>2550.0</ele>
        <time>2016-07-25T12:04:49Z</time>
      </trkpt>
      <trkpt lat="41.106067" lon="-3.702050">
        <ele>2551.0</ele>
        <time>2016-07-25T12:04:51Z</time>
      </trkpt>
      <trkpt lat="41.106267" lon="-3.702017">
        <ele>2553.0</ele>
        <time>2016-07-25T12:04:53Z</time>
      </trkpt>
      <trkpt lat="41.106450" lon="-3.702017">
        <ele>2554.0</ele>
        <time>2016-07-25T12:04:55Z</time>
      </trkpt>
      <trkpt lat="41.106617" lon="-3.701983">
        <ele>2554.0</ele>
        <time>2016-07-25T12:04:57Z</time>
      </trkpt>
      <trkpt lat="41.106800" lon="-3.701917">
        <ele>2549.0</ele>
        <time>2016-07-25T12:04:59Z</time>
      </trkpt>
      <trkpt lat="41.107000" lon="-3.701883">
        <ele>2546.0</ele>
        <time>2016-07-25T12:05:01Z</time>
      </trkpt>
      <trkpt lat="41.107183" lon="-3.701833">
        <ele>2544.0</ele>
        <time>2016-07-25T12:05:03Z</time>
      </trkpt>
      <trkpt lat="41.107367" lon="-3.701783">
        <ele>2541.0</ele>
        <time>2016-07-25T12:05:05Z</time>
      </trkpt>
      <trkpt lat="41.107583" lon="-3.701733">
        <ele>2537.0</ele>
        <time>2016-07-25T12:05:07Z</time>
      </trkpt>
      <trkpt lat="41.107800" lon="-3.701700">
        <ele>2536.0</ele>
        <time>2016-07-25T12:05:09Z</time>
      </trkpt>
      <trkpt lat="41.107983" lon="-3.701667">
        <ele>2535.0</ele>
        <time>2016-07-25T12:05:11Z</time>
      </trkpt>
      <trkpt lat="41.108167" lon="-3.701600">
        <ele>2531.0</ele>
        <time>2016-07-25T12:05:13Z</time>
      </trkpt>
      <trkpt lat="41.108350" lon="-3.701533">
        <ele>2525.0</ele>
        <time>2016-07-25T12:05:15Z</time>
      </trkpt>
      <trkpt lat="41.108550" lon="-3.701483">
        <ele>2518.0</ele>
        <time>2016-07-25T12:05:17Z</time>
      </trkpt>
      <trkpt lat="41.108767" lon="-3.701433">
        <ele>2512.0</ele>
        <time>2016-07-25T12:05:19Z</time>
      </trkpt>
      <trkpt lat="41.108950" lon="-3.701367">
        <ele>2508.0</ele>
        <time>2016-07-25T12:05:21Z</time>
      </trkpt>
      <trkpt lat="41.109117" lon="-3.701300">
        <ele>2503.0</ele>
        <time>2016-07-25T12:05:23Z</time>
      </trkpt>
      <trkpt lat="41.109300" lon="-3.701200">
        <ele>2497.0</ele>
        <time>2016-07-25T12:05:25Z</time>
      </trkpt>
      <trkpt lat="41.109500" lon="-3.701100">
        <ele>2494.0</ele>
        <time>2016-07-25T12:05:27Z</time>
      </trkpt>
      <trkpt lat="41.109667" lon="-3.701017">
        <ele>2491.0</ele>
        <time>2016-07-25T12:05:29Z</time>
      </trkpt>
      <trkpt lat="41.109833" lon="-3.700933">
        <ele>2486.0</ele>
        <time>2016-07-25T12:05:31Z</time>
      </trkpt>
      <trkpt lat="41.110033" lon="-3.700833">
        <ele>2481.0</ele>
        <time>2016-07-25T12:05:33Z</time>
      </trkpt>
      <trkpt lat="41.110217" lon="-3.700750">
        <ele>2477.0</ele>
        <time>2016-07-25T12:05:35Z</time>
      </trkpt>
      <trkpt lat="41.110400" lon="-3.700683">
        <ele>2473.0</ele>
        <time>2016-07-25T12:05:37Z</time>
      </trkpt>
      <trkpt lat="41.110600" lon="-3.700583">
        <ele>2469.0</ele>
        <time>2016-07-25T12:05:39Z</time>
      </trkpt>
      <trkpt lat="41.110783" lon="-3.700450">
        <ele>2465.0</ele>
        <time>2016-07-25T12:05:41Z</time>
      </trkpt>
      <trkpt lat="41.110983" lon="-3.700283">
        <ele>2461.0</ele>
        <time>2016-07-25T12:05:43Z</time>
      </trkpt>
      <trkpt lat="41.111183" lon="-3.700133">
        <ele>2456.0</ele>
        <time>2016-07-25T12:05:45Z</time>
      </trkpt>
      <trkpt lat="41.111383" lon="-3.700000">
        <ele>2451.0</ele>
        <time>2016-07-25T12:05:47Z</time>
      </trkpt>
      <trkpt lat="41.111567" lon="-3.699867">
        <ele>2446.0</ele>
        <time>2016-07-25T12:05:49Z</time>
      </trkpt>
      <trkpt lat="41.111767" lon="-3.699733">
        <ele>2440.0</ele>
        <time>2016-07-25T12:05:51Z</time>
      </trkpt>
      <trkpt lat="41.111983" lon="-3.699600">
        <ele>2435.0</ele>
        <time>2016-07-25T12:05:53Z</time>
      </trkpt>
      <trkpt lat="41.112167" lon="-3.699467">
        <ele>2431.0</ele>
        <time>2016-07-25T12:05:55Z</time>
      </trkpt>
      <trkpt lat="41.112350" lon="-3.699350">
        <ele>2426.0</ele>
        <time>2016-07-25T12:05:57Z</time>
      </trkpt>
      <trkpt lat="41.112533" lon="-3.699217">
        <ele>2419.0</ele>
        <time>2016-07-25T12:05:59Z</time>
      </trkpt>
      <trkpt lat="41.112717" lon="-3.699067">
        <ele>2414.0</ele>
        <time>2016-07-25T12:06:01Z</time>
      </trkpt>
      <trkpt lat="41.112867" lon="-3.698883">
        <ele>2406.0</ele>
        <time>2016-07-25T12:06:03Z</time>
      </trkpt>
      <trkpt lat="41.113067" lon="-3.698733">
        <ele>2398.0</ele>
        <time>2016-07-25T12:06:05Z</time>
      </trkpt>
      <trkpt lat="41.113250" lon="-3.698567">
        <ele>2394.0</ele>
        <time>2016-07-25T12:06:07Z</time>
      </trkpt>
      <trkpt lat="41.113400" lon="-3.698400">
        <ele>2390.0</ele>
        <time>2016-07-25T12:06:09Z</time>
      </trkpt>
      <trkpt lat="41.113583" lon="-3.698267">
        <ele>2385.0</ele>
        <time>2016-07-25T12:06:11Z</time>
      </trkpt>
      <trkpt lat="41.113750" lon="-3.698150">
        <ele>2383.0</ele>
        <time>2016-07-25T12:06:13Z</time>
      </trkpt>
      <trkpt lat="41.113900" lon="-3.698017">
        <ele>2377.0</ele>
        <time>2016-07-25T12:06:15Z</time>
      </trkpt>
      <trkpt lat="41.114083" lon="-3.697900">
        <ele>2373.0</ele>
        <time>2016-07-25T12:06:17Z</time>
      </trkpt>
      <trkpt lat="41.114267" lon="-3.697750">
        <ele>2371.0</ele>
        <time>2016-07-25T12:06:19Z</time>
      </trkpt>
      <trkpt lat="41.114400" lon="-3.697600">
        <ele>2369.0</ele>
        <time>2016-07-25T12:06:21Z</time>
      </trkpt>
      <trkpt lat="41.114550" lon="-3.697450">
        <ele>2364.0</ele>
        <time>2016-07-25T12:06:23Z</time>
      </trkpt>
      <trkpt lat="41.114700" lon="-3.697267">
        <ele>2359.0</ele>
        <time>2016-07-25T12:06:25Z</time>
      </trkpt>
      <trkpt lat="41.114833" lon="-3.697117">
        <ele>2355.0</ele>
        <time>2016-07-25T12:06:27Z</time>
      </trkpt>
      <trkpt lat="41.114967" lon="-3.696950">
        <ele>2350.0</ele>
        <time>2016-07-25T12:06:29Z</time>
      </trkpt>
      <trkpt lat="41.115117" lon="-3.696767">
        <ele>2343.0</ele>
        <time>2016-07-25T12:06:31Z</time>
      </trkpt>
      <trkpt lat="41.115267" lon="-3.696617">
        <ele>2338.0</ele>
        <time>2016-07-25T12:06:33Z</time>
      </trkpt>
      <trkpt lat="41.115400" lon="-3.696517">
        <ele>2333.0</ele>
        <time>2016-07-25T12:06:35Z</time>
      </trkpt>
      <trkpt lat="41.115550" lon="-3.696450">
        <ele>2327.0</ele>
        <time>2016-07-25T12:06:37Z</time>
      </trkpt>
      <trkpt lat="41.115700" lon="-3.696350">
        <ele>2320.0</ele>
        <time>2016-07-25T12:06:39Z</time>
      </trkpt>
      <trkpt lat="41.115867" lon="-3.696283">
        <ele>2314.0</ele>
        <time>2016-07-25T12:06:41Z</time>
      </trkpt>
      <trkpt lat="41.116033" lon="-3.696200">
        <ele>2309.0</ele>
        <time>2016-07-25T12:06:43Z</time>
      </trkpt>
      <trkpt lat="41.116183" lon="-3.696133">
        <ele>2305.0</ele>
        <time>2016-07-25T12:06:45Z</time>
      </trkpt>
      <trkpt lat="41.116333" lon="-3.696083">
        <ele>2300.0</ele>
        <time>2016-07-25T12:06:47Z</time>
      </trkpt>
      <trkpt lat="41.116483" lon="-3.696067">
        <ele>2295.0</ele>
        <time>2016-07-25T12:06:49Z</time>
      </trkpt>
      <trkpt lat="41.116650" lon="-3.696033">
        <ele>2289.0</ele>
        <time>2016-07-25T12:06:51Z</time>
      </trkpt>
      <trkpt lat="41.116800" lon="-3.695983">
        <ele>2285.0</ele>
        <time>2016-07-25T12:06:53Z</time>
      </trkpt>
      <trkpt lat="41.116933" lon="-3.695900">
        <ele>2281.0</ele>
        <time>2016-07-25T12:06:55Z</time>
      </trkpt>
      <trkpt lat="41.117083" lon="-3.695800">
        <ele>2275.0</ele>
        <time>2016-07-25T12:06:57Z</time>
      </trkpt>
      <trkpt lat="41.117250" lon="-3.695700">
        <ele>2271.0</ele>
        <time>2016-07-25T12:06:59Z</time>
      </trkpt>
      <trkpt lat="41.117383" lon="-3.695583">
        <ele>2266.0</ele>
        <time>2016-07-25T12:07:01Z</time>
      </trkpt>
      <trkpt lat="41.117533" lon="-3.695467">
        <ele>2261.0</ele>
        <time>2016-07-25T12:07:03Z</time>
      </trkpt>
      <trkpt lat="41.117700" lon="-3.695333">
        <ele>2256.0</ele>
        <time>2016-07-25T12:07:05Z</time>
      </trkpt>
      <trkpt lat="41.117850" lon="-3.695183">
        <ele>2252.0</ele>
        <time>2016-07-25T12:07:07Z</time>
      </trkpt>
      <trkpt lat="41.118000" lon="-3.695017">
        <ele>2248.0</ele>
        <time>2016-07-25T12:07:09Z</time>
      </trkpt>
      <trkpt lat="41.118117" lon="-3.694817">
        <ele>2243.0</ele>
        <time>2016-07-25T12:07:11Z</time>
      </trkpt>
      <trkpt lat="41.118233" lon="-3.694550">
        <ele>2238.0</ele>
        <time>2016-07-25T12:07:13Z</time>
      </trkpt>
      <trkpt lat="41.118350" lon="-3.694283">
        <ele>2234.0</ele>
        <time>2016-07-25T12:07:15Z</time>
      </trkpt>
      <trkpt lat="41.118500" lon="-3.694067">
        <ele>2230.0</ele>
        <time>2016-07-25T12:07:17Z</time>
      </trkpt>
      <trkpt lat="41.118633" lon="-3.693817">
        <ele>2226.0</ele>
        <time>2016-07-25T12:07:19Z</time>
      </trkpt>
      <trkpt lat="41.118733" lon="-3.693517">
        <ele>2222.0</ele>
        <time>2016-07-25T12:07:21Z</time>
      </trkpt>
      <trkpt lat="41.118883" lon="-3.693300">
        <ele>2219.0</ele>
        <time>2016-07-25T12:07:23Z</time>
      </trkpt>
      <trkpt lat="41.119017" lon="-3.693117">
        <ele>2215.0</ele>
        <time>2016-07-25T12:07:25Z</time>
      </trkpt>
      <trkpt lat="41.119200" lon="-3.692933">
        <ele>2209.0</ele>
        <time>2016-07-25T12:07:27Z</time>
      </trkpt>
      <trkpt lat="41.119400" lon="-3.692800">
        <ele>2206.0</ele>
        <time>2016-07-25T12:07:29Z</time>
      </trkpt>
      <trkpt lat="41.119583" lon="-3.692683">
        <ele>2203.0</ele>
        <time>2016-07-25T12:07:31Z</time>
      </trkpt>
      <trkpt lat="41.119767" lon="-3.692583">
        <ele>2198.0</ele>
        <time>2016-07-25T12:07:33Z</time>
      </trkpt>
      <trkpt lat="41.119967" lon="-3.692467">
        <ele>2192.0</ele>
        <time>2016-07-25T12:07:35Z</time>
      </trkpt>
      <trkpt lat="41.120133" lon="-3.692350">
        <ele>2190.0</ele>
        <time>2016-07-25T12:07:37Z</time>
      </trkpt>
      <trkpt lat="41.120283" lon="-3.692217">
        <ele>2186.0</ele>
        <time>2016-07-25T12:07:39Z</time>
      </trkpt>
      <trkpt lat="41.120467" lon="-3.692083">
        <ele>2180.0</ele>
        <time>2016-07-25T12:07:41Z</time>
      </trkpt>
      <trkpt lat="41.120617" lon="-3.691933">
        <ele>2175.0</ele>
        <time>2016-07-25T12:07:43Z</time>
      </trkpt>
      <trkpt lat="41.120750" lon="-3.691800">
        <ele>2171.0</ele>
        <time>2016-07-25T12:07:45Z</time>
      </trkpt>
      <trkpt lat="41.120917" lon="-3.691667">
        <ele>2169.0</ele>
        <time>2016-07-25T12:07:47Z</time>
      </trkpt>
      <trkpt lat="41.121083" lon="-3.691600">
        <ele>2167.0</ele>
        <time>2016-07-25T12:07:49Z</time>
      </trkpt>
      <trkpt lat="41.121300" lon="-3.691583">
        <ele>2167.0</ele>
        <time>2016-07-25T12:07:51Z</time>
      </trkpt>
      <trkpt lat="41.121450" lon="-3.691550">
        <ele>2175.0</ele>
        <time>2016-07-25T12:07:53Z</time>
      </trkpt>
      <trkpt lat="41.121567" lon="-3.691533">
        <ele>2178.0</ele>
        <time>2016-07-25T12:07:55Z</time>
      </trkpt>
      <trkpt lat="41.121733" lon="-3.691500">
        <ele>2181.0</ele>
        <time>2016-07-25T12:07:57Z</time>
      </trkpt>
      <trkpt lat="41.121883" lon="-3.691433">
        <ele>2187.0</ele>
        <time>2016-07-25T12:07:59Z</time>
      </trkpt>
      <trkpt lat="41.122000" lon="-3.691450">
        <ele>2191.0</ele>
        <time>2016-07-25T12:08:01Z</time>
      </trkpt>
      <trkpt lat="41.122067" lon="-3.691567">
        <ele>2195.0</ele>
        <time>2016-07-25T12:08:03Z</time>
      </trkpt>
      <trkpt lat="41.122033" lon="-3.691700">
        <ele>2199.0</ele>
        <time>2016-07-25T12:08:05Z</time>
      </trkpt>
      <trkpt lat="41.121900" lon="-3.691817">
        <ele>2203.0</ele>
        <time>2016-07-25T12:08:07Z</time>
      </trkpt>
      <trkpt lat="41.121717" lon="-3.691800">
        <ele>2207.0</ele>
        <time>2016-07-25T12:08:09Z</time>
      </trkpt>
      <trkpt lat="41.121533" lon="-3.691700">
        <ele>2211.0</ele>
        <time>2016-07-25T12:08:11Z</time>
      </trkpt>
      <trkpt lat="41.121333" lon="-3.691533">
        <ele>2214.0</ele>
        <time>2016-07-25T12:08:13Z</time>
      </trkpt>
      <trkpt lat="41.121217" lon="-3.691300">
        <ele>2220.0</ele>
        <time>2016-07-25T12:08:15Z</time>
      </trkpt>
      <trkpt lat="41.121117" lon="-3.691033">
        <ele>2224.0</ele>
        <time>2016-07-25T12:08:17Z</time>
      </trkpt>
      <trkpt lat="41.121050" lon="-3.690783">
        <ele>2226.0</ele>
        <time>2016-07-25T12:08:19Z</time>
      </trkpt>
      <trkpt lat="41.121050" lon="-3.690483">
        <ele>2226.0</ele>
        <time>2016-07-25T12:08:21Z</time>
      </trkpt>
      <trkpt lat="41.121100" lon="-3.690200">
        <ele>2228.0</ele>
        <time>2016-07-25T12:08:23Z</time>
      </trkpt>
      <trkpt lat="41.121200" lon="-3.689967">
        <ele>2232.0</ele>
        <time>2016-07-25T12:08:25Z</time>
      </trkpt>
      <trkpt lat="41.121300" lon="-3.689783">
        <ele>2235.0</ele>
        <time>2016-07-25T12:08:27Z</time>
      </trkpt>
      <trkpt lat="41.121417" lon="-3.689600">
        <ele>2236.0</ele>
        <time>2016-07-25T12:08:29Z</time>
      </trkpt>
      <trkpt lat="41.121567" lon="-3.689433">
        <ele>2237.0</ele>
        <time>2016-07-25T12:08:31Z</time>
      </trkpt>
      <trkpt lat="41.121700" lon="-3.689317">
        <ele>2239.0</ele>
        <time>2016-07-25T12:08:33Z</time>
      </trkpt>
      <trkpt lat="41.121867" lon="-3.689217">
        <ele>2240.0</ele>
        <time>2016-07-25T12:08:35Z</time>
      </trkpt>
      <trkpt lat="41.122033" lon="-3.689117">
        <ele>2242.0</ele>
        <time>2016-07-25T12:08:37Z</time>
      </trkpt>
      <trkpt lat="41.122200" lon="-3.689050">
        <ele>2245.0</ele>
        <time>2016-07-25T12:08:39Z</time>
      </trkpt>
      <trkpt lat="41.122367" lon="-3.689017">
        <ele>2245.0</ele>
        <time>2016-07-25T12:08:41Z</time>
      </trkpt>
      <trkpt lat="41.122533" lon="-3.689033">
        <ele>2246.0</ele>
        <time>2016-07-25T12:08:43Z</time>
      </trkpt>
      <trkpt lat="41.122683" lon="-3.689050">
        <ele>2248.0</ele>
        <time>2016-07-25T12:08:45Z</time>
      </trkpt>
      <trkpt lat="41.122850" lon="-3.689050">
        <ele>2252.0</ele>
        <time>2016-07-25T12:08:47Z</time>
      </trkpt>
      <trkpt lat="41.122967" lon="-3.689017">
        <ele>2256.0</ele>
        <time>2016-07-25T12:08:49Z</time>
      </trkpt>
      <trkpt lat="41.123083" lon="-3.689000">
        <ele>2258.0</ele>
        <time>2016-07-25T12:08:51Z</time>
      </trkpt>
      <trkpt lat="41.123233" lon="-3.689017">
        <ele>2261.0</ele>
        <time>2016-07-25T12:08:53Z</time>
      </trkpt>
      <trkpt lat="41.123300" lon="-3.689150">
        <ele>2264.0</ele>
        <time>2016-07-25T12:08:55Z</time>
      </trkpt>
      <trkpt lat="41.123350" lon="-3.689333">
        <ele>2270.0</ele>
        <time>2016-07-25T12:08:57Z</time>
      </trkpt>
      <trkpt lat="41.123317" lon="-3.689517">
        <ele>2278.0</ele>
        <time>2016-07-25T12:08:59Z</time>
      </trkpt>
      <trkpt lat="41.123233" lon="-3.689650">
        <ele>2283.0</ele>
        <time>2016-07-25T12:09:01Z</time>
      </trkpt>
      <trkpt lat="41.123100" lon="-3.689733">
        <ele>2289.0</ele>
        <time>2016-07-25T12:09:03Z</time>
      </trkpt>
      <trkpt lat="41.122900" lon="-3.689733">
        <ele>2293.0</ele>
        <time>2016-07-25T12:09:05Z</time>
      </trkpt>
      <trkpt lat="41.122733" lon="-3.689650">
        <ele>2298.0</ele>
        <time>2016-07-25T12:09:07Z</time>
      </trkpt>
      <trkpt lat="41.122567" lon="-3.689467">
        <ele>2299.0</ele>
        <time>2016-07-25T12:09:09Z</time>
      </trkpt>
      <trkpt lat="41.122433" lon="-3.689183">
        <ele>2299.0</ele>
        <time>2016-07-25T12:09:11Z</time>
      </trkpt>
      <trkpt lat="41.122383" lon="-3.688883">
        <ele>2304.0</ele>
        <time>2016-07-25T12:09:13Z</time>
      </trkpt>
      <trkpt lat="41.122367" lon="-3.688650">
        <ele>2310.0</ele>
        <time>2016-07-25T12:09:15Z</time>
      </trkpt>
      <trkpt lat="41.122417" lon="-3.688450">
        <ele>2310.0</ele>
        <time>2016-07-25T12:09:17Z</time>
      </trkpt>
      <trkpt lat="41.122550" lon="-3.688300">
        <ele>2310.0</ele>
        <time>2016-07-25T12:09:19Z</time>
      </trkpt>
      <trkpt lat="41.122683" lon="-3.688200">
        <ele>2314.0</ele>
        <time>2016-07-25T12:09:21Z</time>
      </trkpt>
      <trkpt lat="41.122817" lon="-3.688233">
        <ele>2317.0</ele>
        <time>2016-07-25T12:09:23Z</time>
      </trkpt>
      <trkpt lat="41.122883" lon="-3.688350">
        <ele>2320.0</ele>
        <time>2016-07-25T12:09:25Z</time>
      </trkpt>
      <trkpt lat="41.122933" lon="-3.688483">
        <ele>2323.0</ele>
        <time>2016-07-25T12:09:27Z</time>
      </trkpt>
      <trkpt lat="41.122967" lon="-3.688667">
        <ele>2325.0</ele>
        <time>2016-07-25T12:09:29Z</time>
      </trkpt>
      <trkpt lat="41.122983" lon="-3.688850">
        <ele>2329.0</ele>
        <time>2016-07-25T12:09:31Z</time>
      </trkpt>
      <trkpt lat="41.122950" lon="-3.689017">
        <ele>2333.0</ele>
        <time>2016-07-25T12:09:33Z</time>
      </trkpt>
      <trkpt lat="41.122883" lon="-3.689150">
        <ele>2335.0</ele>
        <time>2016-07-25T12:09:35Z</time>
      </trkpt>
      <trkpt lat="41.122783" lon="-3.689317">
        <ele>2336.0</ele>
        <time>2016-07-25T12:09:37Z</time>
      </trkpt>
      <trkpt lat="41.122667" lon="-3.689450">
        <ele>2343.0</ele>
        <time>2016-07-25T12:09:39Z</time>
      </trkpt>
      <trkpt lat="41.122567" lon="-3.689567">
        <ele>2348.0</ele>
        <time>2016-07-25T12:09:41Z</time>
      </trkpt>
      <trkpt lat="41.122483" lon="-3.689733">
        <ele>2350.0</ele>
        <time>2016-07-25T12:09:43Z</time>
      </trkpt>
      <trkpt lat="41.122333" lon="-3.689883">
        <ele>2352.0</ele>
        <time>2016-07-25T12:09:45Z</time>
      </trkpt>
      <trkpt lat="41.122133" lon="-3.689867">
        <ele>2361.0</ele>
        <time>2016-07-25T12:09:47Z</time>
      </trkpt>
      <trkpt lat="41.122017" lon="-3.689800">
        <ele>2371.0</ele>
        <time>2016-07-25T12:09:49Z</time>
      </trkpt>
      <trkpt lat="41.121900" lon="-3.689717">
        <ele>2372.0</ele>
        <time>2016-07-25T12:09:51Z</time>
      </trkpt>
      <trkpt lat="41.121750" lon="-3.689550">
        <ele>2372.0</ele>
        <time>2016-07-25T12:09:53Z</time>
      </trkpt>
      <trkpt lat="41.121650" lon="-3.689300">
        <ele>2372.0</ele>
        <time>2016-07-25T12:09:55Z</time>
      </trkpt>
      <trkpt lat="41.121633" lon="-3.689017">
        <ele>2373.0</ele>
        <time>2016-07-25T12:09:57Z</time>
      </trkpt>
      <trkpt lat="41.121683" lon="-3.688750">
        <ele>2376.0</ele>
        <time>2016-07-25T12:09:59Z</time>
      </trkpt>
      <trkpt lat="41.121783" lon="-3.688550">
        <ele>2378.0</ele>
        <time>2016-07-25T12:10:01Z</time>
      </trkpt>
      <trkpt lat="41.121917" lon="-3.688400">
        <ele>2379.0</ele>
        <time>2016-07-25T12:10:03Z</time>
      </trkpt>
      <trkpt lat="41.122083" lon="-3.688333">
        <ele>2380.0</ele>
        <time>2016-07-25T12:10:05Z</time>
      </trkpt>
      <trkpt lat="41.122250" lon="-3.688317">
        <ele>2384.0</ele>
        <time>2016-07-25T12:10:07Z</time>
      </trkpt>
      <trkpt lat="41.122417" lon="-3.688300">
        <ele>2391.0</ele>
        <time>2016-07-25T12:10:09Z</time>
      </trkpt>
      <trkpt lat="41.122550" lon="-3.688267">
        <ele>2397.0</ele>
        <time>2016-07-25T12:10:11Z</time>
      </trkpt>
      <trkpt lat="41.122650" lon="-3.688283">
        <ele>2400.0</ele>
        <time>2016-07-25T12:10:13Z</time>
      </trkpt>
      <trkpt lat="41.122783" lon="-3.688383">
        <ele>2401.0</ele>
        <time>2016-07-25T12:10:15Z</time>
      </trkpt>
      <trkpt lat="41.122850" lon="-3.688533">
        <ele>2404.0</ele>
        <time>2016-07-25T12:10:17Z</time>
      </trkpt>
      <trkpt lat="41.122867" lon="-3.688683">
        <ele>2407.0</ele>
        <time>2016-07-25T12:10:19Z</time>
      </trkpt>
      <trkpt lat="41.122817" lon="-3.688867">
        <ele>2406.0</ele>
        <time>2016-07-25T12:10:21Z</time>
      </trkpt>
      <trkpt lat="41.122667" lon="-3.689017">
        <ele>2407.0</ele>
        <time>2016-07-25T12:10:23Z</time>
      </trkpt>
      <trkpt lat="41.122517" lon="-3.689100">
        <ele>2412.0</ele>
        <time>2016-07-25T12:10:25Z</time>
      </trkpt>
      <trkpt lat="41.122367" lon="-3.689133">
        <ele>2414.0</ele>
        <time>2016-07-25T12:10:27Z</time>
      </trkpt>
      <trkpt lat="41.122200" lon="-3.689150">
        <ele>2414.0</ele>
        <time>2016-07-25T12:10:29Z</time>
      </trkpt>
      <trkpt lat="41.122033" lon="-3.689067">
        <ele>2419.0</ele>
        <time>2016-07-25T12:10:31Z</time>
      </trkpt>
      <trkpt lat="41.121900" lon="-3.688917">
        <ele>2423.0</ele>
        <time>2016-07-25T12:10:33Z</time>
      </trkpt>
      <trkpt lat="41.121867" lon="-3.688667">
        <ele>2424.0</ele>
        <time>2016-07-25T12:10:35Z</time>
      </trkpt>
      <trkpt lat="41.121917" lon="-3.688383">
        <ele>2425.0</ele>
        <time>2016-07-25T12:10:37Z</time>
      </trkpt>
      <trkpt lat="41.122033" lon="-3.688150">
        <ele>2431.0</ele>
        <time>2016-07-25T12:10:39Z</time>
      </trkpt>
      <trkpt lat="41.122150" lon="-3.687967">
        <ele>2437.0</ele>
        <time>2016-07-25T12:10:41Z</time>
      </trkpt>
      <trkpt lat="41.122317" lon="-3.687833">
        <ele>2440.0</ele>
        <time>2016-07-25T12:10:43Z</time>
      </trkpt>
      <trkpt lat="41.122500" lon="-3.687733">
        <ele>2442.0</ele>
        <time>2016-07-25T12:10:45Z</time>
      </trkpt>
      <trkpt lat="41.122700" lon="-3.687683">
        <ele>2443.0</ele>
        <time>2016-07-25T12:10:47Z</time>
      </trkpt>
      <trkpt lat="41.122900" lon="-3.687683">
        <ele>2446.0</ele>
        <time>2016-07-25T12:10:49Z</time>
      </trkpt>
      <trkpt lat="41.123050" lon="-3.687683">
        <ele>2451.0</ele>
        <time>2016-07-25T12:10:51Z</time>
      </trkpt>
      <trkpt lat="41.123200" lon="-3.687683">
        <ele>2452.0</ele>
        <time>2016-07-25T12:10:53Z</time>
      </trkpt>
      <trkpt lat="41.123367" lon="-3.687667">
        <ele>2454.0</ele>
        <time>2016-07-25T12:10:55Z</time>
      </trkpt>
      <trkpt lat="41.123533" lon="-3.687667">
        <ele>2456.0</ele>
        <time>2016-07-25T12:10:57Z</time>
      </trkpt>
      <trkpt lat="41.123683" lon="-3.687700">
        <ele>2460.0</ele>
        <time>2016-07-25T12:10:59Z</time>
      </trkpt>
      <trkpt lat="41.123850" lon="-3.687733">
        <ele>2462.0</ele>
        <time>2016-07-25T12:11:01Z</time>
      </trkpt>
      <trkpt lat="41.124017" lon="-3.687767">
        <ele>2461.0</ele>
        <time>2016-07-25T12:11:03Z</time>
      </trkpt>
      <trkpt lat="41.124217" lon="-3.687817">
        <ele>2461.0</ele>
        <time>2016-07-25T12:11:05Z</time>
      </trkpt>
      <trkpt lat="41.124417" lon="-3.687817">
        <ele>2462.0</ele>
        <time>2016-07-25T12:11:07Z</time>
      </trkpt>
      <trkpt lat="41.124617" lon="-3.687850">
        <ele>2462.0</ele>
        <time>2016-07-25T12:11:09Z</time>
      </trkpt>
      <trkpt lat="41.124800" lon="-3.687833">
        <ele>2460.0</ele>
        <time>2016-07-25T12:11:11Z</time>
      </trkpt>
      <trkpt lat="41.124967" lon="-3.687800">
        <ele>2455.0</ele>
        <time>2016-07-25T12:11:13Z</time>
      </trkpt>
      <trkpt lat="41.125183" lon="-3.687783">
        <ele>2446.0</ele>
        <time>2016-07-25T12:11:15Z</time>
      </trkpt>
      <trkpt lat="41.125450" lon="-3.687767">
        <ele>2444.0</ele>
        <time>2016-07-25T12:11:17Z</time>
      </trkpt>
      <trkpt lat="41.125617" lon="-3.687750">
        <ele>2451.0</ele>
        <time>2016-07-25T12:11:19Z</time>
      </trkpt>
      <trkpt lat="41.125767" lon="-3.687750">
        <ele>2455.0</ele>
        <time>2016-07-25T12:11:21Z</time>
      </trkpt>
      <trkpt lat="41.125917" lon="-3.687733">
        <ele>2453.0</ele>
        <time>2016-07-25T12:11:23Z</time>
      </trkpt>
      <trkpt lat="41.126100" lon="-3.687717">
        <ele>2451.0</ele>
        <time>2016-07-25T12:11:25Z</time>
      </trkpt>
      <trkpt lat="41.126300" lon="-3.687683">
        <ele>2452.0</ele>
        <time>2016-07-25T12:11:27Z</time>
      </trkpt>
      <trkpt lat="41.126467" lon="-3.687667">
        <ele>2453.0</ele>
        <time>2016-07-25T12:11:29Z</time>
      </trkpt>
      <trkpt lat="41.126650" lon="-3.687667">
        <ele>2450.0</ele>
        <time>2016-07-25T12:11:31Z</time>
      </trkpt>
      <trkpt lat="41.126867" lon="-3.687650">
        <ele>2449.0</ele>
        <time>2016-07-25T12:11:33Z</time>
      </trkpt>
      <trkpt lat="41.127050" lon="-3.687617">
        <ele>2448.0</ele>
        <time>2016-07-25T12:11:35Z</time>
      </trkpt>
      <trkpt lat="41.127233" lon="-3.687583">
        <ele>2445.0</ele>
        <time>2016-07-25T12:11:37Z</time>
      </trkpt>
      <trkpt lat="41.127450" lon="-3.687550">
        <ele>2443.0</ele>
        <time>2016-07-25T12:11:39Z</time>
      </trkpt>
      <trkpt lat="41.127617" lon="-3.687500">
        <ele>2444.0</ele>
        <time>2016-07-25T12:11:41Z</time>
      </trkpt>
      <trkpt lat="41.127783" lon="-3.687433">
        <ele>2442.0</ele>
        <time>2016-07-25T12:11:43Z</time>
      </trkpt>
      <trkpt lat="41.128000" lon="-3.687367">
        <ele>2439.0</ele>
        <time>2016-07-25T12:11:45Z</time>
      </trkpt>
      <trkpt lat="41.128183" lon="-3.687317">
        <ele>2439.0</ele>
        <time>2016-07-25T12:11:47Z</time>
      </trkpt>
      <trkpt lat="41.128350" lon="-3.687200">
        <ele>2436.0</ele>
        <time>2016-07-25T12:11:49Z</time>
      </trkpt>
      <trkpt lat="41.128533" lon="-3.687067">
        <ele>2431.0</ele>
        <time>2016-07-25T12:11:51Z</time>
      </trkpt>
      <trkpt lat="41.128733" lon="-3.687000">
        <ele>2430.0</ele>
        <time>2016-07-25T12:11:53Z</time>
      </trkpt>
      <trkpt lat="41.128883" lon="-3.686950">
        <ele>2430.0</ele>
        <time>2016-07-25T12:11:55Z</time>
      </trkpt>
      <trkpt lat="41.129033" lon="-3.686867">
        <ele>2428.0</ele>
        <time>2016-07-25T12:11:57Z</time>
      </trkpt>
      <trkpt lat="41.129200" lon="-3.686800">
        <ele>2425.0</ele>
        <time>2016-07-25T12:11:59Z</time>
      </trkpt>
      <trkpt lat="41.129367" lon="-3.686750">
        <ele>2420.0</ele>
        <time>2016-07-25T12:12:01Z</time>
      </trkpt>
      <trkpt lat="41.129533" lon="-3.686717">
        <ele>2414.0</ele>
        <time>2016-07-25T12:12:03Z</time>
      </trkpt>
      <trkpt lat="41.129717" lon="-3.686667">
        <ele>2408.0</ele>
        <time>2016-07-25T12:12:05Z</time>
      </trkpt>
      <trkpt lat="41.129900" lon="-3.686617">
        <ele>2404.0</ele>
        <time>2016-07-25T12:12:07Z</time>
      </trkpt>
      <trkpt lat="41.130083" lon="-3.686567">
        <ele>2401.0</ele>
        <time>2016-07-25T12:12:09Z</time>
      </trkpt>
      <trkpt lat="41.130267" lon="-3.686500">
        <ele>2396.0</ele>
        <time>2016-07-25T12:12:11Z</time>
      </trkpt>
      <trkpt lat="41.130467" lon="-3.686433">
        <ele>2392.0</ele>
        <time>2016-07-25T12:12:13Z</time>
      </trkpt>
      <trkpt lat="41.130667" lon="-3.686333">
        <ele>2389.0</ele>
        <time>2016-07-25T12:12:15Z</time>
      </trkpt>
      <trkpt lat="41.130850" lon="-3.686250">
        <ele>2385.0</ele>
        <time>2016-07-25T12:12:17Z</time>
      </trkpt>
      <trkpt lat="41.131050" lon="-3.686167">
        <ele>2381.0</ele>
        <time>2016-07-25T12:12:19Z</time>
      </trkpt>
      <trkpt lat="41.131233" lon="-3.686100">
        <ele>2378.0</ele>
        <time>2016-07-25T12:12:21Z</time>
      </trkpt>
      <trkpt lat="41.131417" lon="-3.686017">
        <ele>2373.0</ele>
        <time>2016-07-25T12:12:23Z</time>
      </trkpt>
      <trkpt lat="41.131600" lon="-3.685933">
        <ele>2368.0</ele>
        <time>2016-07-25T12:12:25Z</time>
      </trkpt>
      <trkpt lat="41.131783" lon="-3.685833">
        <ele>2365.0</ele>
        <time>2016-07-25T12:12:27Z</time>
      </trkpt>
      <trkpt lat="41.131967" lon="-3.685733">
        <ele>2361.0</ele>
        <time>2016-07-25T12:12:29Z</time>
      </trkpt>
      <trkpt lat="41.132150" lon="-3.685633">
        <ele>2356.0</ele>
        <time>2016-07-25T12:12:31Z</time>
      </trkpt>
      <trkpt lat="41.132333" lon="-3.685517">
        <ele>2352.0</ele>
        <time>2016-07-25T12:12:33Z</time>
      </trkpt>
      <trkpt lat="41.132500" lon="-3.685383">
        <ele>2347.0</ele>
        <time>2016-07-25T12:12:35Z</time>
      </trkpt>
      <trkpt lat="41.132683" lon="-3.685267">
        <ele>2344.0</ele>
        <time>2016-07-25T12:12:37Z</time>
      </trkpt>
      <trkpt lat="41.132850" lon="-3.685150">
        <ele>2342.0</ele>
        <time>2016-07-25T12:12:39Z</time>
      </trkpt>
      <trkpt lat="41.133033" lon="-3.685033">
        <ele>2337.0</ele>
        <time>2016-07-25T12:12:41Z</time>
      </trkpt>
      <trkpt lat="41.133217" lon="-3.684933">
        <ele>2334.0</ele>
        <time>2016-07-25T12:12:43Z</time>
      </trkpt>
      <trkpt lat="41.133383" lon="-3.684833">
        <ele>2328.0</ele>
        <time>2016-07-25T12:12:45Z</time>
      </trkpt>
      <trkpt lat="41.133567" lon="-3.684733">
        <ele>2321.0</ele>
        <time>2016-07-25T12:12:47Z</time>
      </trkpt>
      <trkpt lat="41.133750" lon="-3.684617">
        <ele>2315.0</ele>
        <time>2016-07-25T12:12:49Z</time>
      </trkpt>
      <trkpt lat="41.133933" lon="-3.684500">
        <ele>2311.0</ele>
        <time>2016-07-25T12:12:51Z</time>
      </trkpt>
      <trkpt lat="41.134117" lon="-3.684367">
        <ele>2308.0</ele>
        <time>2016-07-25T12:12:53Z</time>
      </trkpt>
      <trkpt lat="41.134283" lon="-3.684250">
        <ele>2304.0</ele>
        <time>2016-07-25T12:12:55Z</time>
      </trkpt>
      <trkpt lat="41.134450" lon="-3.684117">
        <ele>2299.0</ele>
        <time>2016-07-25T12:12:57Z</time>
      </trkpt>
      <trkpt lat="41.134617" lon="-3.683983">
        <ele>2294.0</ele>
        <time>2016-07-25T12:12:59Z</time>
      </trkpt>
      <trkpt lat="41.134800" lon="-3.683850">
        <ele>2291.0</ele>
        <time>2016-07-25T12:13:01Z</time>
      </trkpt>
      <trkpt lat="41.134967" lon="-3.683783">
        <ele>2288.0</ele>
        <time>2016-07-25T12:13:03Z</time>
      </trkpt>
      <trkpt lat="41.135100" lon="-3.683700">
        <ele>2283.0</ele>
        <time>2016-07-25T12:13:05Z</time>
      </trkpt>
      <trkpt lat="41.135283" lon="-3.683617">
        <ele>2276.0</ele>
        <time>2016-07-25T12:13:07Z</time>
      </trkpt>
      <trkpt lat="41.135483" lon="-3.683550">
        <ele>2270.0</ele>
        <time>2016-07-25T12:13:09Z</time>
      </trkpt>
      <trkpt lat="41.135667" lon="-3.683467">
        <ele>2265.0</ele>
        <time>2016-07-25T12:13:11Z</time>
      </trkpt>
      <trkpt lat="41.135850" lon="-3.683367">
        <ele>2259.0</ele>
        <time>2016-07-25T12:13:13Z</time>
      </trkpt>
      <trkpt lat="41.136033" lon="-3.683300">
        <ele>2254.0</ele>
        <time>2016-07-25T12:13:15Z</time>
      </trkpt>
      <trkpt lat="41.136217" lon="-3.683250">
        <ele>2249.0</ele>
        <time>2016-07-25T12:13:17Z</time>
      </trkpt>
      <trkpt lat="41.136400" lon="-3.683200">
        <ele>2243.0</ele>
        <time>2016-07-25T12:13:19Z</time>
      </trkpt>
      <trkpt lat="41.136600" lon="-3.683117">
        <ele>2236.0</ele>
        <time>2016-07-25T12:13:21Z</time>
      </trkpt>
      <trkpt lat="41.136783" lon="-3.683000">
        <ele>2231.0</ele>
        <time>2016-07-25T12:13:23Z</time>
      </trkpt>
      <trkpt lat="41.136950" lon="-3.682900">
        <ele>2226.0</ele>
        <time>2016-07-25T12:13:25Z</time>
      </trkpt>
      <trkpt lat="41.137100" lon="-3.682783">
        <ele>2218.0</ele>
        <time>2016-07-25T12:13:27Z</time>
      </trkpt>
      <trkpt lat="41.137267" lon="-3.682667">
        <ele>2210.0</ele>
        <time>2016-07-25T12:13:29Z</time>
      </trkpt>
      <trkpt lat="41.137433" lon="-3.682550">
        <ele>2203.0</ele>
        <time>2016-07-25T12:13:31Z</time>
      </trkpt>
      <trkpt lat="41.137600" lon="-3.682450">
        <ele>2196.0</ele>
        <time>2016-07-25T12:13:33Z</time>
      </trkpt>
      <trkpt lat="41.137767" lon="-3.682350">
        <ele>2189.0</ele>
        <time>2016-07-25T12:13:35Z</time>
      </trkpt>
      <trkpt lat="41.137933" lon="-3.682267">
        <ele>2180.0</ele>
        <time>2016-07-25T12:13:37Z</time>
      </trkpt>
      <trkpt lat="41.138117" lon="-3.682167">
        <ele>2173.0</ele>
        <time>2016-07-25T12:13:39Z</time>
      </trkpt>
      <trkpt lat="41.138300" lon="-3.682050">
        <ele>2167.0</ele>
        <time>2016-07-25T12:13:41Z</time>
      </trkpt>
      <trkpt lat="41.138500" lon="-3.681950">
        <ele>2161.0</ele>
        <time>2016-07-25T12:13:43Z</time>
      </trkpt>
      <trkpt lat="41.138700" lon="-3.681833">
        <ele>2156.0</ele>
        <time>2016-07-25T12:13:45Z</time>
      </trkpt>
      <trkpt lat="41.138883" lon="-3.681683">
        <ele>2154.0</ele>
        <time>2016-07-25T12:13:47Z</time>
      </trkpt>
      <trkpt lat="41.139050" lon="-3.681517">
        <ele>2153.0</ele>
        <time>2016-07-25T12:13:49Z</time>
      </trkpt>
      <trkpt lat="41.139217" lon="-3.681350">
        <ele>2154.0</ele>
        <time>2016-07-25T12:13:51Z</time>
      </trkpt>
      <trkpt lat="41.139367" lon="-3.681250">
        <ele>2155.0</ele>
        <time>2016-07-25T12:13:53Z</time>
      </trkpt>
      <trkpt lat="41.139517" lon="-3.681167">
        <ele>2155.0</ele>
        <time>2016-07-25T12:13:55Z</time>
      </trkpt>
      <trkpt lat="41.139667" lon="-3.681083">
        <ele>2155.0</ele>
        <time>2016-07-25T12:13:57Z</time>
      </trkpt>
      <trkpt lat="41.139817" lon="-3.680983">
        <ele>2155.0</ele>
        <time>2016-07-25T12:13:59Z</time>
      </trkpt>
      <trkpt lat="41.139967" lon="-3.680867">
        <ele>2154.0</ele>
        <time>2016-07-25T12:14:01Z</time>
      </trkpt>
      <trkpt lat="41.140083" lon="-3.680700">
        <ele>2155.0</ele>
        <time>2016-07-25T12:14:03Z</time>
      </trkpt>
      <trkpt lat="41.140133" lon="-3.680467">
        <ele>2156.0</ele>
        <time>2016-07-25T12:14:05Z</time>
      </trkpt>
      <trkpt lat="41.140083" lon="-3.680150">
        <ele>2153.0</ele>
        <time>2016-07-25T12:14:07Z</time>
      </trkpt>
      <trkpt lat="41.139983" lon="-3.679800">
        <ele>2155.0</ele>
        <time>2016-07-25T12:14:09Z</time>
      </trkpt>
      <trkpt lat="41.139817" lon="-3.679550">
        <ele>2159.0</ele>
        <time>2016-07-25T12:14:11Z</time>
      </trkpt>
      <trkpt lat="41.139600" lon="-3.679350">
        <ele>2164.0</ele>
        <time>2016-07-25T12:14:13Z</time>
      </trkpt>
      <trkpt lat="41.139383" lon="-3.679200">
        <ele>2170.0</ele>
        <time>2016-07-25T12:14:15Z</time>
      </trkpt>
      <trkpt lat="41.139150" lon="-3.679117">
        <ele>2175.0</ele>
        <time>2016-07-25T12:14:17Z</time>
      </trkpt>
      <trkpt lat="41.138900" lon="-3.679017">
        <ele>2179.0</ele>
        <time>2016-07-25T12:14:19Z</time>
      </trkpt>
      <trkpt lat="41.138667" lon="-3.678850">
        <ele>2182.0</ele>
        <time>2016-07-25T12:14:21Z</time>
      </trkpt>
      <trkpt lat="41.138467" lon="-3.678650">
        <ele>2187.0</ele>
        <time>2016-07-25T12:14:23Z</time>
      </trkpt>
      <trkpt lat="41.138267" lon="-3.678450">
        <ele>2194.0</ele>
        <time>2016-07-25T12:14:25Z</time>
      </trkpt>
      <trkpt lat="41.138150" lon="-3.678167">
        <ele>2197.0</ele>
        <time>2016-07-25T12:14:27Z</time>
      </trkpt>
      <trkpt lat="41.138100" lon="-3.677867">
        <ele>2196.0</ele>
        <time>2016-07-25T12:14:29Z</time>
      </trkpt>
      <trkpt lat="41.138117" lon="-3.677567">
        <ele>2193.0</ele>
        <time>2016-07-25T12:14:31Z</time>
      </trkpt>
      <trkpt lat="41.138217" lon="-3.677283">
        <ele>2193.0</ele>
        <time>2016-07-25T12:14:33Z</time>
      </trkpt>
      <trkpt lat="41.138383" lon="-3.677100">
        <ele>2202.0</ele>
        <time>2016-07-25T12:14:35Z</time>
      </trkpt>
      <trkpt lat="41.138500" lon="-3.677017">
        <ele>2209.0</ele>
        <time>2016-07-25T12:14:37Z</time>
      </trkpt>
      <trkpt lat="41.138650" lon="-3.676950">
        <ele>2213.0</ele>
        <time>2016-07-25T12:14:39Z</time>
      </trkpt>
      <trkpt lat="41.138817" lon="-3.676917">
        <ele>2219.0</ele>
        <time>2016-07-25T12:14:41Z</time>
      </trkpt>
      <trkpt lat="41.138900" lon="-3.676967">
        <ele>2223.0</ele>
        <time>2016-07-25T12:14:43Z</time>
      </trkpt>
      <trkpt lat="41.138967" lon="-3.677100">
        <ele>2223.0</ele>
        <time>2016-07-25T12:14:45Z</time>
      </trkpt>
      <trkpt lat="41.139017" lon="-3.677267">
        <ele>2228.0</ele>
        <time>2016-07-25T12:14:47Z</time>
      </trkpt>
      <trkpt lat="41.139000" lon="-3.677467">
        <ele>2235.0</ele>
        <time>2016-07-25T12:14:49Z</time>
      </trkpt>
      <trkpt lat="41.138933" lon="-3.677667">
        <ele>2240.0</ele>
        <time>2016-07-25T12:14:51Z</time>
      </trkpt>
      <trkpt lat="41.138850" lon="-3.677867">
        <ele>2245.0</ele>
        <time>2016-07-25T12:14:53Z</time>
      </trkpt>
      <trkpt lat="41.138750" lon="-3.678050">
        <ele>2249.0</ele>
        <time>2016-07-25T12:14:55Z</time>
      </trkpt>
      <trkpt lat="41.138583" lon="-3.678250">
        <ele>2253.0</ele>
        <time>2016-07-25T12:14:57Z</time>
      </trkpt>
      <trkpt lat="41.138383" lon="-3.678367">
        <ele>2257.0</ele>
        <time>2016-07-25T12:14:59Z</time>
      </trkpt>
      <trkpt lat="41.138167" lon="-3.678400">
        <ele>2261.0</ele>
        <time>2016-07-25T12:15:01Z</time>
      </trkpt>
      <trkpt lat="41.137933" lon="-3.678333">
        <ele>2262.0</ele>
        <time>2016-07-25T12:15:03Z</time>
      </trkpt>
      <trkpt lat="41.137700" lon="-3.678167">
        <ele>2263.0</ele>
        <time>2016-07-25T12:15:05Z</time>
      </trkpt>
      <trkpt lat="41.137533" lon="-3.677950">
        <ele>2265.0</ele>
        <time>2016-07-25T12:15:07Z</time>
      </trkpt>
      <trkpt lat="41.137400" lon="-3.677683">
        <ele>2266.0</ele>
        <time>2016-07-25T12:15:09Z</time>
      </trkpt>
      <trkpt lat="41.137300" lon="-3.677383">
        <ele>2270.0</ele>
        <time>2016-07-25T12:15:11Z</time>
      </trkpt>
      <trkpt lat="41.137250" lon="-3.677100">
        <ele>2274.0</ele>
        <time>2016-07-25T12:15:13Z</time>
      </trkpt>
      <trkpt lat="41.137267" lon="-3.676833">
        <ele>2278.0</ele>
        <time>2016-07-25T12:15:15Z</time>
      </trkpt>
      <trkpt lat="41.137367" lon="-3.676633">
        <ele>2285.0</ele>
        <time>2016-07-25T12:15:17Z</time>
      </trkpt>
      <trkpt lat="41.137450" lon="-3.676517">
        <ele>2291.0</ele>
        <time>2016-07-25T12:15:19Z</time>
      </trkpt>
      <trkpt lat="41.137533" lon="-3.676433">
        <ele>2293.0</ele>
        <time>2016-07-25T12:15:21Z</time>
      </trkpt>
      <trkpt lat="41.137683" lon="-3.676367">
        <ele>2295.0</ele>
        <time>2016-07-25T12:15:23Z</time>
      </trkpt>
      <trkpt lat="41.137817" lon="-3.676400">
        <ele>2300.0</ele>
        <time>2016-07-25T12:15:25Z</time>
      </trkpt>
      <trkpt lat="41.137917" lon="-3.676383">
        <ele>2305.0</ele>
        <time>2016-07-25T12:15:27Z</time>
      </trkpt>
      <trkpt lat="41.138000" lon="-3.676367">
        <ele>2309.0</ele>
        <time>2016-07-25T12:15:29Z</time>
      </trkpt>
      <trkpt lat="41.138050" lon="-3.676467">
        <ele>2311.0</ele>
        <time>2016-07-25T12:15:31Z</time>
      </trkpt>
      <trkpt lat="41.138050" lon="-3.676633">
        <ele>2316.0</ele>
        <time>2016-07-25T12:15:33Z</time>
      </trkpt>
      <trkpt lat="41.137983" lon="-3.676783">
        <ele>2322.0</ele>
        <time>2016-07-25T12:15:35Z</time>
      </trkpt>
      <trkpt lat="41.137833" lon="-3.676900">
        <ele>2325.0</ele>
        <time>2016-07-25T12:15:37Z</time>
      </trkpt>
      <trkpt lat="41.137633" lon="-3.676983">
        <ele>2328.0</ele>
        <time>2016-07-25T12:15:39Z</time>
      </trkpt>
      <trkpt lat="41.137383" lon="-3.677017">
        <ele>2332.0</ele>
        <time>2016-07-25T12:15:41Z</time>
      </trkpt>
      <trkpt lat="41.137117" lon="-3.677000">
        <ele>2334.0</ele>
        <time>2016-07-25T12:15:43Z</time>
      </trkpt>
      <trkpt lat="41.136850" lon="-3.676867">
        <ele>2337.0</ele>
        <time>2016-07-25T12:15:45Z</time>
      </trkpt>
      <trkpt lat="41.136667" lon="-3.676667">
        <ele>2340.0</ele>
        <time>2016-07-25T12:15:47Z</time>
      </trkpt>
      <trkpt lat="41.136533" lon="-3.676417">
        <ele>2339.0</ele>
        <time>2016-07-25T12:15:49Z</time>
      </trkpt>
      <trkpt lat="41.136500" lon="-3.676067">
        <ele>2334.0</ele>
        <time>2016-07-25T12:15:51Z</time>
      </trkpt>
      <trkpt lat="41.136517" lon="-3.675767">
        <ele>2340.0</ele>
        <time>2016-07-25T12:15:53Z</time>
      </trkpt>
      <trkpt lat="41.136533" lon="-3.675600">
        <ele>2346.0</ele>
        <time>2016-07-25T12:15:55Z</time>
      </trkpt>
      <trkpt lat="41.136550" lon="-3.675450">
        <ele>2347.0</ele>
        <time>2016-07-25T12:15:57Z</time>
      </trkpt>
      <trkpt lat="41.136650" lon="-3.675317">
        <ele>2345.0</ele>
        <time>2016-07-25T12:15:59Z</time>
      </trkpt>
      <trkpt lat="41.136800" lon="-3.675250">
        <ele>2348.0</ele>
        <time>2016-07-25T12:16:01Z</time>
      </trkpt>
      <trkpt lat="41.136917" lon="-3.675250">
        <ele>2354.0</ele>
        <time>2016-07-25T12:16:03Z</time>
      </trkpt>
      <trkpt lat="41.137017" lon="-3.675317">
        <ele>2359.0</ele>
        <time>2016-07-25T12:16:05Z</time>
      </trkpt>
      <trkpt lat="41.137083" lon="-3.675433">
        <ele>2364.0</ele>
        <time>2016-07-25T12:16:07Z</time>
      </trkpt>
      <trkpt lat="41.137117" lon="-3.675583">
        <ele>2371.0</ele>
        <time>2016-07-25T12:16:09Z</time>
      </trkpt>
      <trkpt lat="41.137050" lon="-3.675733">
        <ele>2375.0</ele>
        <time>2016-07-25T12:16:11Z</time>
      </trkpt>
      <trkpt lat="41.136933" lon="-3.675900">
        <ele>2378.0</ele>
        <time>2016-07-25T12:16:13Z</time>
      </trkpt>
      <trkpt lat="41.136733" lon="-3.676000">
        <ele>2381.0</ele>
        <time>2016-07-25T12:16:15Z</time>
      </trkpt>
      <trkpt lat="41.136467" lon="-3.676050">
        <ele>2385.0</ele>
        <time>2016-07-25T12:16:17Z</time>
      </trkpt>
      <trkpt lat="41.136233" lon="-3.675967">
        <ele>2391.0</ele>
        <time>2016-07-25T12:16:19Z</time>
      </trkpt>
      <trkpt lat="41.136050" lon="-3.675800">
        <ele>2392.0</ele>
        <time>2016-07-25T12:16:21Z</time>
      </trkpt>
      <trkpt lat="41.135900" lon="-3.675550">
        <ele>2391.0</ele>
        <time>2016-07-25T12:16:23Z</time>
      </trkpt>
      <trkpt lat="41.135900" lon="-3.675250">
        <ele>2391.0</ele>
        <time>2016-07-25T12:16:25Z</time>
      </trkpt>
      <trkpt lat="41.135983" lon="-3.675000">
        <ele>2394.0</ele>
        <time>2016-07-25T12:16:27Z</time>
      </trkpt>
      <trkpt lat="41.136050" lon="-3.674850">
        <ele>2397.0</ele>
        <time>2016-07-25T12:16:29Z</time>
      </trkpt>
      <trkpt lat="41.136167" lon="-3.674783">
        <ele>2399.0</ele>
        <time>2016-07-25T12:16:31Z</time>
      </trkpt>
      <trkpt lat="41.136283" lon="-3.674767">
        <ele>2405.0</ele>
        <time>2016-07-25T12:16:33Z</time>
      </trkpt>
      <trkpt lat="41.136383" lon="-3.674767">
        <ele>2410.0</ele>
        <time>2016-07-25T12:16:35Z</time>
      </trkpt>
      <trkpt lat="41.136500" lon="-3.674767">
        <ele>2414.0</ele>
        <time>2016-07-25T12:16:37Z</time>
      </trkpt>
      <trkpt lat="41.136600" lon="-3.674800">
        <ele>2418.0</ele>
        <time>2016-07-25T12:16:39Z</time>
      </trkpt>
      <trkpt lat="41.136683" lon="-3.674867">
        <ele>2422.0</ele>
        <time>2016-07-25T12:16:41Z</time>
      </trkpt>
      <trkpt lat="41.136783" lon="-3.674950">
        <ele>2425.0</ele>
        <time>2016-07-25T12:16:43Z</time>
      </trkpt>
      <trkpt lat="41.136883" lon="-3.675000">
        <ele>2432.0</ele>
        <time>2016-07-25T12:16:45Z</time>
      </trkpt>
      <trkpt lat="41.136950" lon="-3.675017">
        <ele>2436.0</ele>
        <time>2016-07-25T12:16:47Z</time>
      </trkpt>
      <trkpt lat="41.137033" lon="-3.675067">
        <ele>2437.0</ele>
        <time>2016-07-25T12:16:49Z</time>
      </trkpt>
      <trkpt lat="41.137117" lon="-3.675133">
        <ele>2440.0</ele>
        <time>2016-07-25T12:16:51Z</time>
      </trkpt>
      <trkpt lat="41.137183" lon="-3.675167">
        <ele>2444.0</ele>
        <time>2016-07-25T12:16:53Z</time>
      </trkpt>
      <trkpt lat="41.137250" lon="-3.675233">
        <ele>2446.0</ele>
        <time>2016-07-25T12:16:55Z</time>
      </trkpt>
      <trkpt lat="41.137333" lon="-3.675317">
        <ele>2448.0</ele>
        <time>2016-07-25T12:16:57Z</time>
      </trkpt>
      <trkpt lat="41.137400" lon="-3.675400">
        <ele>2451.0</ele>
        <time>2016-07-25T12:16:59Z</time>
      </trkpt>
      <trkpt lat="41.137483" lon="-3.675450">
        <ele>2454.0</ele>
        <time>2016-07-25T12:17:01Z</time>
      </trkpt>
      <trkpt lat="41.137567" lon="-3.675550">
        <ele>2457.0</ele>
        <time>2016-07-25T12:17:03Z</time>
      </trkpt>
      <trkpt lat="41.137633" lon="-3.675650">
        <ele>2461.0</ele>
        <time>2016-07-25T12:17:05Z</time>
      </trkpt>
      <trkpt lat="41.137683" lon="-3.675733">
        <ele>2464.0</ele>
        <time>2016-07-25T12:17:07Z</time>
      </trkpt>
      <trkpt lat="41.137767" lon="-3.675850">
        <ele>2465.0</ele>
        <time>2016-07-25T12:17:09Z</time>
      </trkpt>
      <trkpt lat="41.137850" lon="-3.675967">
        <ele>2466.0</ele>
        <time>2016-07-25T12:17:11Z</time>
      </trkpt>
      <trkpt lat="41.137967" lon="-3.676050">
        <ele>2471.0</ele>
        <time>2016-07-25T12:17:13Z</time>
      </trkpt>
      <trkpt lat="41.138033" lon="-3.676133">
        <ele>2473.0</ele>
        <time>2016-07-25T12:17:15Z</time>
      </trkpt>
      <trkpt lat="41.138100" lon="-3.676300">
        <ele>2471.0</ele>
        <time>2016-07-25T12:17:17Z</time>
      </trkpt>
      <trkpt lat="41.138183" lon="-3.676533">
        <ele>2470.0</ele>
        <time>2016-07-25T12:17:19Z</time>
      </trkpt>
      <trkpt lat="41.138283" lon="-3.676700">
        <ele>2470.0</ele>
        <time>2016-07-25T12:17:21Z</time>
      </trkpt>
      <trkpt lat="41.138417" lon="-3.676817">
        <ele>2468.0</ele>
        <time>2016-07-25T12:17:23Z</time>
      </trkpt>
      <trkpt lat="41.138517" lon="-3.676950">
        <ele>2465.0</ele>
        <time>2016-07-25T12:17:25Z</time>
      </trkpt>
      <trkpt lat="41.138633" lon="-3.677050">
        <ele>2461.0</ele>
        <time>2016-07-25T12:17:27Z</time>
      </trkpt>
      <trkpt lat="41.138783" lon="-3.677117">
        <ele>2457.0</ele>
        <time>2016-07-25T12:17:29Z</time>
      </trkpt>
      <trkpt lat="41.138933" lon="-3.677150">
        <ele>2453.0</ele>
        <time>2016-07-25T12:17:31Z</time>
      </trkpt>
      <trkpt lat="41.139067" lon="-3.677133">
        <ele>2450.0</ele>
        <time>2016-07-25T12:17:33Z</time>
      </trkpt>
      <trkpt lat="41.139183" lon="-3.677100">
        <ele>2446.0</ele>
        <time>2016-07-25T12:17:35Z</time>
      </trkpt>
      <trkpt lat="41.139300" lon="-3.677050">
        <ele>2439.0</ele>
        <time>2016-07-25T12:17:37Z</time>
      </trkpt>
      <trkpt lat="41.139450" lon="-3.677050">
        <ele>2429.0</ele>
        <time>2016-07-25T12:17:39Z</time>
      </trkpt>
      <trkpt lat="41.139617" lon="-3.677100">
        <ele>2423.0</ele>
        <time>2016-07-25T12:17:41Z</time>
      </trkpt>
      <trkpt lat="41.139750" lon="-3.677083">
        <ele>2419.0</ele>
        <time>2016-07-25T12:17:43Z</time>
      </trkpt>
      <trkpt lat="41.139883" lon="-3.677050">
        <ele>2413.0</ele>
        <time>2016-07-25T12:17:45Z</time>
      </trkpt>
      <trkpt lat="41.140033" lon="-3.676983">
        <ele>2407.0</ele>
        <time>2016-07-25T12:17:47Z</time>
      </trkpt>
      <trkpt lat="41.140167" lon="-3.676933">
        <ele>2402.0</ele>
        <time>2016-07-25T12:17:49Z</time>
      </trkpt>
      <trkpt lat="41.140300" lon="-3.676900">
        <ele>2394.0</ele>
        <time>2016-07-25T12:17:51Z</time>
      </trkpt>
      <trkpt lat="41.140450" lon="-3.676833">
        <ele>2387.0</ele>
        <time>2016-07-25T12:17:53Z</time>
      </trkpt>
      <trkpt lat="41.140600" lon="-3.676767">
        <ele>2382.0</ele>
        <time>2016-07-25T12:17:55Z</time>
      </trkpt>
      <trkpt lat="41.140717" lon="-3.676700">
        <ele>2375.0</ele>
        <time>2016-07-25T12:17:57Z</time>
      </trkpt>
      <trkpt lat="41.140867" lon="-3.676617">
        <ele>2368.0</ele>
        <time>2016-07-25T12:17:59Z</time>
      </trkpt>
      <trkpt lat="41.141000" lon="-3.676583">
        <ele>2360.0</ele>
        <time>2016-07-25T12:18:01Z</time>
      </trkpt>
      <trkpt lat="41.141133" lon="-3.676567">
        <ele>2354.0</ele>
        <time>2016-07-25T12:18:03Z</time>
      </trkpt>
      <trkpt lat="41.141267" lon="-3.676533">
        <ele>2348.0</ele>
        <time>2016-07-25T12:18:05Z</time>
      </trkpt>
      <trkpt lat="41.141400" lon="-3.676500">
        <ele>2345.0</ele>
        <time>2016-07-25T12:18:07Z</time>
      </trkpt>
      <trkpt lat="41.141517" lon="-3.676450">
        <ele>2342.0</ele>
        <time>2016-07-25T12:18:09Z</time>
      </trkpt>
      <trkpt lat="41.141650" lon="-3.676417">
        <ele>2336.0</ele>
        <time>2016-07-25T12:18:11Z</time>
      </trkpt>
      <trkpt lat="41.141783" lon="-3.676350">
        <ele>2332.0</ele>
        <time>2016-07-25T12:18:13Z</time>
      </trkpt>
      <trkpt lat="41.141933" lon="-3.676333">
        <ele>2330.0</ele>
        <time>2016-07-25T12:18:15Z</time>
      </trkpt>
      <trkpt lat="41.142067" lon="-3.676267">
        <ele>2333.0</ele>
        <time>2016-07-25T12:18:17Z</time>
      </trkpt>
      <trkpt lat="41.142167" lon="-3.676217">
        <ele>2337.0</ele>
        <time>2016-07-25T12:18:19Z</time>
      </trkpt>
      <trkpt lat="41.142300" lon="-3.676150">
        <ele>2339.0</ele>
        <time>2016-07-25T12:18:21Z</time>
      </trkpt>
      <trkpt lat="41.142433" lon="-3.676067">
        <ele>2343.0</ele>
        <time>2016-07-25T12:18:23Z</time>
      </trkpt>
      <trkpt lat="41.142567" lon="-3.675983">
        <ele>2346.0</ele>
        <time>2016-07-25T12:18:25Z</time>
      </trkpt>
      <trkpt lat="41.142717" lon="-3.675933">
        <ele>2348.0</ele>
        <time>2016-07-25T12:18:27Z</time>
      </trkpt>
      <trkpt lat="41.142867" lon="-3.675883">
        <ele>2351.0</ele>
        <time>2016-07-25T12:18:29Z</time>
      </trkpt>
      <trkpt lat="41.142983" lon="-3.675800">
        <ele>2353.0</ele>
        <time>2016-07-25T12:18:31Z</time>
      </trkpt>
      <trkpt lat="41.143100" lon="-3.675717">
        <ele>2353.0</ele>
        <time>2016-07-25T12:18:33Z</time>
      </trkpt>
      <trkpt lat="41.143250" lon="-3.675633">
        <ele>2351.0</ele>
        <time>2016-07-25T12:18:35Z</time>
      </trkpt>
      <trkpt lat="41.143417" lon="-3.675550">
        <ele>2351.0</ele>
        <time>2016-07-25T12:18:37Z</time>
      </trkpt>
      <trkpt lat="41.143567" lon="-3.675467">
        <ele>2352.0</ele>
        <time>2016-07-25T12:18:39Z</time>
      </trkpt>
      <trkpt lat="41.143733" lon="-3.675400">
        <ele>2354.0</ele>
        <time>2016-07-25T12:18:41Z</time>
      </trkpt>
      <trkpt lat="41.143900" lon="-3.675283">
        <ele>2355.0</ele>
        <time>2016-07-25T12:18:43Z</time>
      </trkpt>
      <trkpt lat="41.144083" lon="-3.675183">
        <ele>2356.0</ele>
        <time>2016-07-25T12:18:45Z</time>
      </trkpt>
      <trkpt lat="41.144267" lon="-3.675067">
        <ele>2357.0</ele>
        <time>2016-07-25T12:18:47Z</time>
      </trkpt>
      <trkpt lat="41.144483" lon="-3.674933">
        <ele>2360.0</ele>
        <time>2016-07-25T12:18:49Z</time>
      </trkpt>
      <trkpt lat="41.144683" lon="-3.674833">
        <ele>2366.0</ele>
        <time>2016-07-25T12:18:51Z</time>
      </trkpt>
      <trkpt lat="41.144867" lon="-3.674700">
        <ele>2371.0</ele>
        <time>2016-07-25T12:18:53Z</time>
      </trkpt>
      <trkpt lat="41.145083" lon="-3.674583">
        <ele>2375.0</ele>
        <time>2016-07-25T12:18:55Z</time>
      </trkpt>
      <trkpt lat="41.145300" lon="-3.674450">
        <ele>2382.0</ele>
        <time>2016-07-25T12:18:57Z</time>
      </trkpt>
      <trkpt lat="41.145500" lon="-3.674317">
        <ele>2390.0</ele>
        <time>2016-07-25T12:18:59Z</time>
      </trkpt>
      <trkpt lat="41.145700" lon="-3.674200">
        <ele>2396.0</ele>
        <time>2016-07-25T12:19:01Z</time>
      </trkpt>
      <trkpt lat="41.145900" lon="-3.674083">
        <ele>2402.0</ele>
        <time>2016-07-25T12:19:03Z</time>
      </trkpt>
      <trkpt lat="41.146117" lon="-3.673950">
        <ele>2409.0</ele>
        <time>2016-07-25T12:19:05Z</time>
      </trkpt>
      <trkpt lat="41.146317" lon="-3.673850">
        <ele>2414.0</ele>
        <time>2016-07-25T12:19:07Z</time>
      </trkpt>
      <trkpt lat="41.146517" lon="-3.673717">
        <ele>2415.0</ele>
        <time>2016-07-25T12:19:09Z</time>
      </trkpt>
      <trkpt lat="41.146733" lon="-3.673617">
        <ele>2415.0</ele>
        <time>2016-07-25T12:19:11Z</time>
      </trkpt>
      <trkpt lat="41.146933" lon="-3.673467">
        <ele>2416.0</ele>
        <time>2016-07-25T12:19:13Z</time>
      </trkpt>
      <trkpt lat="41.147100" lon="-3.673300">
        <ele>2416.0</ele>
        <time>2016-07-25T12:19:15Z</time>
      </trkpt>
      <trkpt lat="41.147300" lon="-3.673167">
        <ele>2415.0</ele>
        <time>2016-07-25T12:19:17Z</time>
      </trkpt>
      <trkpt lat="41.147450" lon="-3.673000">
        <ele>2416.0</ele>
        <time>2016-07-25T12:19:19Z</time>
      </trkpt>
      <trkpt lat="41.147567" lon="-3.672833">
        <ele>2415.0</ele>
        <time>2016-07-25T12:19:21Z</time>
      </trkpt>
      <trkpt lat="41.147733" lon="-3.672717">
        <ele>2409.0</ele>
        <time>2016-07-25T12:19:23Z</time>
      </trkpt>
      <trkpt lat="41.147933" lon="-3.672633">
        <ele>2404.0</ele>
        <time>2016-07-25T12:19:25Z</time>
      </trkpt>
      <trkpt lat="41.148133" lon="-3.672550">
        <ele>2402.0</ele>
        <time>2016-07-25T12:19:27Z</time>
      </trkpt>
      <trkpt lat="41.148283" lon="-3.672450">
        <ele>2401.0</ele>
        <time>2016-07-25T12:19:29Z</time>
      </trkpt>
      <trkpt lat="41.148483" lon="-3.672333">
        <ele>2398.0</ele>
        <time>2016-07-25T12:19:31Z</time>
      </trkpt>
      <trkpt lat="41.148683" lon="-3.672200">
        <ele>2396.0</ele>
        <time>2016-07-25T12:19:33Z</time>
      </trkpt>
      <trkpt lat="41.148867" lon="-3.672067">
        <ele>2397.0</ele>
        <time>2016-07-25T12:19:35Z</time>
      </trkpt>
      <trkpt lat="41.149050" lon="-3.671933">
        <ele>2397.0</ele>
        <time>2016-07-25T12:19:37Z</time>
      </trkpt>
      <trkpt lat="41.149233" lon="-3.671817">
        <ele>2396.0</ele>
        <time>2016-07-25T12:19:39Z</time>
      </trkpt>
      <trkpt lat="41.149417" lon="-3.671717">
        <ele>2393.0</ele>
        <time>2016-07-25T12:19:41Z</time>
      </trkpt>
      <trkpt lat="41.149600" lon="-3.671633">
        <ele>2388.0</ele>
        <time>2016-07-25T12:19:43Z</time>
      </trkpt>
      <trkpt lat="41.149767" lon="-3.671533">
        <ele>2380.0</ele>
        <time>2016-07-25T12:19:45Z</time>
      </trkpt>
      <trkpt lat="41.149933" lon="-3.671433">
        <ele>2374.0</ele>
        <time>2016-07-25T12:19:47Z</time>
      </trkpt>
      <trkpt lat="41.150100" lon="-3.671317">
        <ele>2370.0</ele>
        <time>2016-07-25T12:19:49Z</time>
      </trkpt>
      <trkpt lat="41.150250" lon="-3.671200">
        <ele>2365.0</ele>
        <time>2016-07-25T12:19:51Z</time>
      </trkpt>
      <trkpt lat="41.150417" lon="-3.671100">
        <ele>2362.0</ele>
        <time>2016-07-25T12:19:53Z</time>
      </trkpt>
      <trkpt lat="41.150583" lon="-3.670967">
        <ele>2360.0</ele>
        <time>2016-07-25T12:19:55Z</time>
      </trkpt>
      <trkpt lat="41.150733" lon="-3.670833">
        <ele>2357.0</ele>
        <time>2016-07-25T12:19:57Z</time>
      </trkpt>
      <trkpt lat="41.150883" lon="-3.670700">
        <ele>2353.0</ele>
        <time>2016-07-25T12:19:59Z</time>
      </trkpt>
      <trkpt lat="41.151033" lon="-3.670567">
        <ele>2350.0</ele>
        <time>2016-07-25T12:20:01Z</time>
      </trkpt>
      <trkpt lat="41.151183" lon="-3.670417">
        <ele>2348.0</ele>
        <time>2016-07-25T12:20:03Z</time>
      </trkpt>
      <trkpt lat="41.151333" lon="-3.670283">
        <ele>2345.0</ele>
        <time>2016-07-25T12:20:05Z</time>
      </trkpt>
      <trkpt lat="41.151467" lon="-3.670133">
        <ele>2343.0</ele>
        <time>2016-07-25T12:20:07Z</time>
      </trkpt>
      <trkpt lat="41.151600" lon="-3.670000">
        <ele>2340.0</ele>
        <time>2016-07-25T12:20:09Z</time>
      </trkpt>
      <trkpt lat="41.151750" lon="-3.669917">
        <ele>2335.0</ele>
        <time>2016-07-25T12:20:11Z</time>
      </trkpt>
      <trkpt lat="41.151900" lon="-3.669833">
        <ele>2330.0</ele>
        <time>2016-07-25T12:20:13Z</time>
      </trkpt>
      <trkpt lat="41.152067" lon="-3.669750">
        <ele>2325.0</ele>
        <time>2016-07-25T12:20:15Z</time>
      </trkpt>
      <trkpt lat="41.152200" lon="-3.669650">
        <ele>2319.0</ele>
        <time>2016-07-25T12:20:17Z</time>
      </trkpt>
      <trkpt lat="41.152350" lon="-3.669550">
        <ele>2312.0</ele>
        <time>2016-07-25T12:20:19Z</time>
      </trkpt>
      <trkpt lat="41.152533" lon="-3.669433">
        <ele>2306.0</ele>
        <time>2016-07-25T12:20:21Z</time>
      </trkpt>
      <trkpt lat="41.152700" lon="-3.669317">
        <ele>2303.0</ele>
        <time>2016-07-25T12:20:23Z</time>
      </trkpt>
      <trkpt lat="41.152850" lon="-3.669200">
        <ele>2300.0</ele>
        <time>2016-07-25T12:20:25Z</time>
      </trkpt>
      <trkpt lat="41.153033" lon="-3.669083">
        <ele>2297.0</ele>
        <time>2016-07-25T12:20:27Z</time>
      </trkpt>
      <trkpt lat="41.153200" lon="-3.669000">
        <ele>2295.0</ele>
        <time>2016-07-25T12:20:29Z</time>
      </trkpt>
      <trkpt lat="41.153350" lon="-3.668950">
        <ele>2294.0</ele>
        <time>2016-07-25T12:20:31Z</time>
      </trkpt>
      <trkpt lat="41.153517" lon="-3.668867">
        <ele>2291.0</ele>
        <time>2016-07-25T12:20:33Z</time>
      </trkpt>
      <trkpt lat="41.153700" lon="-3.668767">
        <ele>2287.0</ele>
        <time>2016-07-25T12:20:35Z</time>
      </trkpt>
      <trkpt lat="41.153883" lon="-3.668683">
        <ele>2286.0</ele>
        <time>2016-07-25T12:20:37Z</time>
      </trkpt>
      <trkpt lat="41.154033" lon="-3.668583">
        <ele>2284.0</ele>
        <time>2016-07-25T12:20:39Z</time>
      </trkpt>
      <trkpt lat="41.154200" lon="-3.668467">
        <ele>2280.0</ele>
        <time>2016-07-25T12:20:41Z</time>
      </trkpt>
      <trkpt lat="41.154383" lon="-3.668367">
        <ele>2276.0</ele>
        <time>2016-07-25T12:20:43Z</time>
      </trkpt>
      <trkpt lat="41.154550" lon="-3.668267">
        <ele>2274.0</ele>
        <time>2016-07-25T12:20:45Z</time>
      </trkpt>
      <trkpt lat="41.154700" lon="-3.668167">
        <ele>2270.0</ele>
        <time>2016-07-25T12:20:47Z</time>
      </trkpt>
      <trkpt lat="41.154867" lon="-3.668067">
        <ele>2265.0</ele>
        <time>2016-07-25T12:20:49Z</time>
      </trkpt>
      <trkpt lat="41.155050" lon="-3.668000">
        <ele>2262.0</ele>
        <time>2016-07-25T12:20:51Z</time>
      </trkpt>
      <trkpt lat="41.155217" lon="-3.667917">
        <ele>2257.0</ele>
        <time>2016-07-25T12:20:53Z</time>
      </trkpt>
      <trkpt lat="41.155400" lon="-3.667833">
        <ele>2252.0</ele>
        <time>2016-07-25T12:20:55Z</time>
      </trkpt>
      <trkpt lat="41.155567" lon="-3.667733">
        <ele>2249.0</ele>
        <time>2016-07-25T12:20:57Z</time>
      </trkpt>
      <trkpt lat="41.155750" lon="-3.667650">
        <ele>2245.0</ele>
        <time>2016-07-25T12:20:59Z</time>
      </trkpt>
      <trkpt lat="41.155917" lon="-3.667550">
        <ele>2240.0</ele>
        <time>2016-07-25T12:21:01Z</time>
      </trkpt>
      <trkpt lat="41.156083" lon="-3.667483">
        <ele>2235.0</ele>
        <time>2016-07-25T12:21:03Z</time>
      </trkpt>
      <trkpt lat="41.156250" lon="-3.667400">
        <ele>2230.0</ele>
        <time>2016-07-25T12:21:05Z</time>
      </trkpt>
      <trkpt lat="41.156417" lon="-3.667300">
        <ele>2224.0</ele>
        <time>2016-07-25T12:21:07Z</time>
      </trkpt>
      <trkpt lat="41.156600" lon="-3.667217">
        <ele>2218.0</ele>
        <time>2016-07-25T12:21:09Z</time>
      </trkpt>
      <trkpt lat="41.156750" lon="-3.667150">
        <ele>2213.0</ele>
        <time>2016-07-25T12:21:11Z</time>
      </trkpt>
      <trkpt lat="41.156933" lon="-3.667117">
        <ele>2206.0</ele>
        <time>2016-07-25T12:21:13Z</time>
      </trkpt>
      <trkpt lat="41.157133" lon="-3.667083">
        <ele>2200.0</ele>
        <time>2016-07-25T12:21:15Z</time>
      </trkpt>
      <trkpt lat="41.157300" lon="-3.667033">
        <ele>2196.0</ele>
        <time>2016-07-25T12:21:17Z</time>
      </trkpt>
      <trkpt lat="41.157467" lon="-3.667000">
        <ele>2190.0</ele>
        <time>2016-07-25T12:21:19Z</time>
      </trkpt>
      <trkpt lat="41.157617" lon="-3.666967">
        <ele>2182.0</ele>
        <time>2016-07-25T12:21:21Z</time>
      </trkpt>
      <trkpt lat="41.157783" lon="-3.666900">
        <ele>2176.0</ele>
        <time>2016-07-25T12:21:23Z</time>
      </trkpt>
      <trkpt lat="41.157950" lon="-3.666800">
        <ele>2170.0</ele>
        <time>2016-07-25T12:21:25Z</time>
      </trkpt>
      <trkpt lat="41.158117" lon="-3.666667">
        <ele>2164.0</ele>
        <time>2016-07-25T12:21:27Z</time>
      </trkpt>
      <trkpt lat="41.158267" lon="-3.666533">
        <ele>2161.0</ele>
        <time>2016-07-25T12:21:29Z</time>
      </trkpt>
      <trkpt lat="41.158367" lon="-3.666417">
        <ele>2156.0</ele>
        <time>2016-07-25T12:21:31Z</time>
      </trkpt>
      <trkpt lat="41.158517" lon="-3.666283">
        <ele>2148.0</ele>
        <time>2016-07-25T12:21:33Z</time>
      </trkpt>
      <trkpt lat="41.158667" lon="-3.666183">
        <ele>2146.0</ele>
        <time>2016-07-25T12:21:35Z</time>
      </trkpt>
      <trkpt lat="41.158767" lon="-3.666050">
        <ele>2144.0</ele>
        <time>2016-07-25T12:21:37Z</time>
      </trkpt>
      <trkpt lat="41.158883" lon="-3.665917">
        <ele>2138.0</ele>
        <time>2016-07-25T12:21:39Z</time>
      </trkpt>
      <trkpt lat="41.159017" lon="-3.665767">
        <ele>2137.0</ele>
        <time>2016-07-25T12:21:41Z</time>
      </trkpt>
      <trkpt lat="41.159083" lon="-3.665650">
        <ele>2138.0</ele>
        <time>2016-07-25T12:21:43Z</time>
      </trkpt>
      <trkpt lat="41.159167" lon="-3.665533">
        <ele>2134.0</ele>
        <time>2016-07-25T12:21:45Z</time>
      </trkpt>
      <trkpt lat="41.159300" lon="-3.665417">
        <ele>2128.0</ele>
        <time>2016-07-25T12:21:47Z</time>
      </trkpt>
      <trkpt lat="41.159417" lon="-3.665300">
        <ele>2126.0</ele>
        <time>2016-07-25T12:21:49Z</time>
      </trkpt>
      <trkpt lat="41.159517" lon="-3.665167">
        <ele>2123.0</ele>
        <time>2016-07-25T12:21:51Z</time>
      </trkpt>
      <trkpt lat="41.159633" lon="-3.665017">
        <ele>2118.0</ele>
        <time>2016-07-25T12:21:53Z</time>
      </trkpt>
      <trkpt lat="41.159750" lon="-3.664850">
        <ele>2115.0</ele>
        <time>2016-07-25T12:21:55Z</time>
      </trkpt>
      <trkpt lat="41.159850" lon="-3.664700">
        <ele>2111.0</ele>
        <time>2016-07-25T12:21:57Z</time>
      </trkpt>
      <trkpt lat="41.159983" lon="-3.664533">
        <ele>2104.0</ele>
        <time>2016-07-25T12:21:59Z</time>
      </trkpt>
      <trkpt lat="41.160117" lon="-3.664367">
        <ele>2099.0</ele>
        <time>2016-07-25T12:22:01Z</time>
      </trkpt>
      <trkpt lat="41.160233" lon="-3.664250">
        <ele>2094.0</ele>
        <time>2016-07-25T12:22:03Z</time>
      </trkpt>
      <trkpt lat="41.160367" lon="-3.664083">
        <ele>2088.0</ele>
        <time>2016-07-25T12:22:05Z</time>
      </trkpt>
      <trkpt lat="41.160533" lon="-3.663900">
        <ele>2085.0</ele>
        <time>2016-07-25T12:22:07Z</time>
      </trkpt>
      <trkpt lat="41.160667" lon="-3.663767">
        <ele>2084.0</ele>
        <time>2016-07-25T12:22:09Z</time>
      </trkpt>
      <trkpt lat="41.160817" lon="-3.663617">
        <ele>2081.0</ele>
        <time>2016-07-25T12:22:11Z</time>
      </trkpt>
      <trkpt lat="41.160967" lon="-3.663467">
        <ele>2080.0</ele>
        <time>2016-07-25T12:22:13Z</time>
      </trkpt>
      <trkpt lat="41.161117" lon="-3.663350">
        <ele>2079.0</ele>
        <time>2016-07-25T12:22:15Z</time>
      </trkpt>
      <trkpt lat="41.161267" lon="-3.663217">
        <ele>2076.0</ele>
        <time>2016-07-25T12:22:17Z</time>
      </trkpt>
      <trkpt lat="41.161433" lon="-3.663083">
        <ele>2073.0</ele>
        <time>2016-07-25T12:22:19Z</time>
      </trkpt>
      <trkpt lat="41.161600" lon="-3.662933">
        <ele>2071.0</ele>
        <time>2016-07-25T12:22:21Z</time>
      </trkpt>
      <trkpt lat="41.161750" lon="-3.662800">
        <ele>2068.0</ele>
        <time>2016-07-25T12:22:23Z</time>
      </trkpt>
      <trkpt lat="41.161900" lon="-3.662650">
        <ele>2064.0</ele>
        <time>2016-07-25T12:22:25Z</time>
      </trkpt>
      <trkpt lat="41.162050" lon="-3.662517">
        <ele>2063.0</ele>
        <time>2016-07-25T12:22:27Z</time>
      </trkpt>
      <trkpt lat="41.162183" lon="-3.662350">
        <ele>2060.0</ele>
        <time>2016-07-25T12:22:29Z</time>
      </trkpt>
      <trkpt lat="41.162333" lon="-3.662167">
        <ele>2054.0</ele>
        <time>2016-07-25T12:22:31Z</time>
      </trkpt>
      <trkpt lat="41.162483" lon="-3.661983">
        <ele>2049.0</ele>
        <time>2016-07-25T12:22:33Z</time>
      </trkpt>
      <trkpt lat="41.162633" lon="-3.661817">
        <ele>2045.0</ele>
        <time>2016-07-25T12:22:35Z</time>
      </trkpt>
      <trkpt lat="41.162800" lon="-3.661733">
        <ele>2042.0</ele>
        <time>2016-07-25T12:22:37Z</time>
      </trkpt>
      <trkpt lat="41.162950" lon="-3.661617">
        <ele>2038.0</ele>
        <time>2016-07-25T12:22:39Z</time>
      </trkpt>
      <trkpt lat="41.163117" lon="-3.661467">
        <ele>2030.0</ele>
        <time>2016-07-25T12:22:41Z</time>
      </trkpt>
      <trkpt lat="41.163317" lon="-3.661317">
        <ele>2025.0</ele>
        <time>2016-07-25T12:22:43Z</time>
      </trkpt>
      <trkpt lat="41.163517" lon="-3.661167">
        <ele>2025.0</ele>
        <time>2016-07-25T12:22:45Z</time>
      </trkpt>
      <trkpt lat="41.163683" lon="-3.661033">
        <ele>2023.0</ele>
        <time>2016-07-25T12:22:47Z</time>
      </trkpt>
      <trkpt lat="41.163867" lon="-3.660883">
        <ele>2021.0</ele>
        <time>2016-07-25T12:22:49Z</time>
      </trkpt>
      <trkpt lat="41.164067" lon="-3.660717">
        <ele>2020.0</ele>
        <time>2016-07-25T12:22:51Z</time>
      </trkpt>
      <trkpt lat="41.164250" lon="-3.660550">
        <ele>2020.0</ele>
        <time>2016-07-25T12:22:53Z</time>
      </trkpt>
      <trkpt lat="41.164417" lon="-3.660400">
        <ele>2021.0</ele>
        <time>2016-07-25T12:22:55Z</time>
      </trkpt>
      <trkpt lat="41.164583" lon="-3.660200">
        <ele>2024.0</ele>
        <time>2016-07-25T12:22:57Z</time>
      </trkpt>
      <trkpt lat="41.164733" lon="-3.660000">
        <ele>2030.0</ele>
        <time>2016-07-25T12:22:59Z</time>
      </trkpt>
      <trkpt lat="41.164833" lon="-3.659767">
        <ele>2033.0</ele>
        <time>2016-07-25T12:23:01Z</time>
      </trkpt>
      <trkpt lat="41.164867" lon="-3.659500">
        <ele>2032.0</ele>
        <time>2016-07-25T12:23:03Z</time>
      </trkpt>
      <trkpt lat="41.164833" lon="-3.659217">
        <ele>2030.0</ele>
        <time>2016-07-25T12:23:05Z</time>
      </trkpt>
      <trkpt lat="41.164733" lon="-3.659000">
        <ele>2030.0</ele>
        <time>2016-07-25T12:23:07Z</time>
      </trkpt>
      <trkpt lat="41.164567" lon="-3.658850">
        <ele>2030.0</ele>
        <time>2016-07-25T12:23:09Z</time>
      </trkpt>
      <trkpt lat="41.164400" lon="-3.658783">
        <ele>2029.0</ele>
        <time>2016-07-25T12:23:11Z</time>
      </trkpt>
      <trkpt lat="41.164233" lon="-3.658800">
        <ele>2028.0</ele>
        <time>2016-07-25T12:23:13Z</time>
      </trkpt>
      <trkpt lat="41.164117" lon="-3.658917">
        <ele>2029.0</ele>
        <time>2016-07-25T12:23:15Z</time>
      </trkpt>
      <trkpt lat="41.164083" lon="-3.659067">
        <ele>2030.0</ele>
        <time>2016-07-25T12:23:17Z</time>
      </trkpt>
      <trkpt lat="41.164083" lon="-3.659217">
        <ele>2029.0</ele>
        <time>2016-07-25T12:23:19Z</time>
      </trkpt>
      <trkpt lat="41.164117" lon="-3.659417">
        <ele>2027.0</ele>
        <time>2016-07-25T12:23:21Z</time>
      </trkpt>
      <trkpt lat="41.164250" lon="-3.659533">
        <ele>2028.0</ele>
        <time>2016-07-25T12:23:23Z</time>
      </trkpt>
      <trkpt lat="41.164400" lon="-3.659583">
        <ele>2030.0</ele>
        <time>2016-07-25T12:23:25Z</time>
      </trkpt>
      <trkpt lat="41.164550" lon="-3.659617">
        <ele>2032.0</ele>
        <time>2016-07-25T12:23:27Z</time>
      </trkpt>
      <trkpt lat="41.164717" lon="-3.659633">
        <ele>2034.0</ele>
        <time>2016-07-25T12:23:29Z</time>
      </trkpt>
      <trkpt lat="41.164883" lon="-3.659617">
        <ele>2038.0</ele>
        <time>2016-07-25T12:23:31Z</time>
      </trkpt>
      <trkpt lat="41.165067" lon="-3.659483">
        <ele>2042.0</ele>
        <time>2016-07-25T12:23:33Z</time>
      </trkpt>
      <trkpt lat="41.165200" lon="-3.659300">
        <ele>2049.0</ele>
        <time>2016-07-25T12:23:35Z</time>
      </trkpt>
      <trkpt lat="41.165267" lon="-3.659083">
        <ele>2054.0</ele>
        <time>2016-07-25T12:23:37Z</time>
      </trkpt>
      <trkpt lat="41.165267" lon="-3.658817">
        <ele>2057.0</ele>
        <time>2016-07-25T12:23:39Z</time>
      </trkpt>
      <trkpt lat="41.165183" lon="-3.658600">
        <ele>2057.0</ele>
        <time>2016-07-25T12:23:41Z</time>
      </trkpt>
      <trkpt lat="41.165017" lon="-3.658433">
        <ele>2055.0</ele>
        <time>2016-07-25T12:23:43Z</time>
      </trkpt>
      <trkpt lat="41.164817" lon="-3.658400">
        <ele>2056.0</ele>
        <time>2016-07-25T12:23:45Z</time>
      </trkpt>
      <trkpt lat="41.164667" lon="-3.658483">
        <ele>2061.0</ele>
        <time>2016-07-25T12:23:47Z</time>
      </trkpt>
      <trkpt lat="41.164550" lon="-3.658550">
        <ele>2066.0</ele>
        <time>2016-07-25T12:23:49Z</time>
      </trkpt>
      <trkpt lat="41.164467" lon="-3.658633">
        <ele>2070.0</ele>
        <time>2016-07-25T12:23:51Z</time>
      </trkpt>
      <trkpt lat="41.164450" lon="-3.658783">
        <ele>2073.0</ele>
        <time>2016-07-25T12:23:53Z</time>
      </trkpt>
      <trkpt lat="41.164517" lon="-3.658933">
        <ele>2077.0</ele>
        <time>2016-07-25T12:23:55Z</time>
      </trkpt>
      <trkpt lat="41.164617" lon="-3.659050">
        <ele>2080.0</ele>
        <time>2016-07-25T12:23:57Z</time>
      </trkpt>
      <trkpt lat="41.164750" lon="-3.659133">
        <ele>2083.0</ele>
        <time>2016-07-25T12:23:59Z</time>
      </trkpt>
      <trkpt lat="41.164917" lon="-3.659183">
        <ele>2086.0</ele>
        <time>2016-07-25T12:24:01Z</time>
      </trkpt>
      <trkpt lat="41.165117" lon="-3.659133">
        <ele>2091.0</ele>
        <time>2016-07-25T12:24:03Z</time>
      </trkpt>
      <trkpt lat="41.165300" lon="-3.659017">
        <ele>2099.0</ele>
        <time>2016-07-25T12:24:05Z</time>
      </trkpt>
      <trkpt lat="41.165450" lon="-3.658883">
        <ele>2105.0</ele>
        <time>2016-07-25T12:24:07Z</time>
      </trkpt>
      <trkpt lat="41.165583" lon="-3.658700">
        <ele>2109.0</ele>
        <time>2016-07-25T12:24:09Z</time>
      </trkpt>
      <trkpt lat="41.165700" lon="-3.658433">
        <ele>2115.0</ele>
        <time>2016-07-25T12:24:11Z</time>
      </trkpt>
      <trkpt lat="41.165750" lon="-3.658167">
        <ele>2125.0</ele>
        <time>2016-07-25T12:24:13Z</time>
      </trkpt>
      <trkpt lat="41.165767" lon="-3.657933">
        <ele>2133.0</ele>
        <time>2016-07-25T12:24:15Z</time>
      </trkpt>
      <trkpt lat="41.165733" lon="-3.657683">
        <ele>2138.0</ele>
        <time>2016-07-25T12:24:17Z</time>
      </trkpt>
      <trkpt lat="41.165583" lon="-3.657467">
        <ele>2144.0</ele>
        <time>2016-07-25T12:24:19Z</time>
      </trkpt>
      <trkpt lat="41.165433" lon="-3.657367">
        <ele>2154.0</ele>
        <time>2016-07-25T12:24:21Z</time>
      </trkpt>
      <trkpt lat="41.165283" lon="-3.657383">
        <ele>2160.0</ele>
        <time>2016-07-25T12:24:23Z</time>
      </trkpt>
      <trkpt lat="41.165167" lon="-3.657483">
        <ele>2164.0</ele>
        <time>2016-07-25T12:24:25Z</time>
      </trkpt>
      <trkpt lat="41.165117" lon="-3.657667">
        <ele>2168.0</ele>
        <time>2016-07-25T12:24:27Z</time>
      </trkpt>
      <trkpt lat="41.165100" lon="-3.657850">
        <ele>2174.0</ele>
        <time>2016-07-25T12:24:29Z</time>
      </trkpt>
      <trkpt lat="41.165100" lon="-3.658017">
        <ele>2181.0</ele>
        <time>2016-07-25T12:24:31Z</time>
      </trkpt>
      <trkpt lat="41.165200" lon="-3.658200">
        <ele>2187.0</ele>
        <time>2016-07-25T12:24:33Z</time>
      </trkpt>
      <trkpt lat="41.165383" lon="-3.658317">
        <ele>2196.0</ele>
        <time>2016-07-25T12:24:35Z</time>
      </trkpt>
      <trkpt lat="41.165550" lon="-3.658333">
        <ele>2207.0</ele>
        <time>2016-07-25T12:24:37Z</time>
      </trkpt>
      <trkpt lat="41.165700" lon="-3.658283">
        <ele>2215.0</ele>
        <time>2016-07-25T12:24:39Z</time>
      </trkpt>
      <trkpt lat="41.165850" lon="-3.658117">
        <ele>2221.0</ele>
        <time>2016-07-25T12:24:41Z</time>
      </trkpt>
      <trkpt lat="41.165933" lon="-3.657883">
        <ele>2227.0</ele>
        <time>2016-07-25T12:24:43Z</time>
      </trkpt>
      <trkpt lat="41.165917" lon="-3.657633">
        <ele>2235.0</ele>
        <time>2016-07-25T12:24:45Z</time>
      </trkpt>
      <trkpt lat="41.165850" lon="-3.657450">
        <ele>2242.0</ele>
        <time>2016-07-25T12:24:47Z</time>
      </trkpt>
      <trkpt lat="41.165750" lon="-3.657267">
        <ele>2246.0</ele>
        <time>2016-07-25T12:24:49Z</time>
      </trkpt>
      <trkpt lat="41.165550" lon="-3.657167">
        <ele>2250.0</ele>
        <time>2016-07-25T12:24:51Z</time>
      </trkpt>
      <trkpt lat="41.165367" lon="-3.657200">
        <ele>2257.0</ele>
        <time>2016-07-25T12:24:53Z</time>
      </trkpt>
      <trkpt lat="41.165250" lon="-3.657300">
        <ele>2265.0</ele>
        <time>2016-07-25T12:24:55Z</time>
      </trkpt>
      <trkpt lat="41.165167" lon="-3.657467">
        <ele>2273.0</ele>
        <time>2016-07-25T12:24:57Z</time>
      </trkpt>
      <trkpt lat="41.165133" lon="-3.657633">
        <ele>2284.0</ele>
        <time>2016-07-25T12:24:59Z</time>
      </trkpt>
      <trkpt lat="41.165183" lon="-3.657783">
        <ele>2290.0</ele>
        <time>2016-07-25T12:25:01Z</time>
      </trkpt>
      <trkpt lat="41.165283" lon="-3.657933">
        <ele>2293.0</ele>
        <time>2016-07-25T12:25:03Z</time>
      </trkpt>
      <trkpt lat="41.165467" lon="-3.658050">
        <ele>2298.0</ele>
        <time>2016-07-25T12:25:05Z</time>
      </trkpt>
      <trkpt lat="41.165650" lon="-3.658000">
        <ele>2308.0</ele>
        <time>2016-07-25T12:25:07Z</time>
      </trkpt>
      <trkpt lat="41.165783" lon="-3.657900">
        <ele>2319.0</ele>
        <time>2016-07-25T12:25:09Z</time>
      </trkpt>
      <trkpt lat="41.165883" lon="-3.657767">
        <ele>2324.0</ele>
        <time>2016-07-25T12:25:11Z</time>
      </trkpt>
      <trkpt lat="41.165967" lon="-3.657567">
        <ele>2328.0</ele>
        <time>2016-07-25T12:25:13Z</time>
      </trkpt>
      <trkpt lat="41.166033" lon="-3.657333">
        <ele>2336.0</ele>
        <time>2016-07-25T12:25:15Z</time>
      </trkpt>
      <trkpt lat="41.166033" lon="-3.657117">
        <ele>2341.0</ele>
        <time>2016-07-25T12:25:17Z</time>
      </trkpt>
      <trkpt lat="41.165967" lon="-3.656883">
        <ele>2341.0</ele>
        <time>2016-07-25T12:25:19Z</time>
      </trkpt>
      <trkpt lat="41.165833" lon="-3.656633">
        <ele>2341.0</ele>
        <time>2016-07-25T12:25:21Z</time>
      </trkpt>
      <trkpt lat="41.165617" lon="-3.656483">
        <ele>2342.0</ele>
        <time>2016-07-25T12:25:23Z</time>
      </trkpt>
      <trkpt lat="41.165350" lon="-3.656483">
        <ele>2346.0</ele>
        <time>2016-07-25T12:25:25Z</time>
      </trkpt>
      <trkpt lat="41.165133" lon="-3.656517">
        <ele>2358.0</ele>
        <time>2016-07-25T12:25:27Z</time>
      </trkpt>
      <trkpt lat="41.164983" lon="-3.656567">
        <ele>2369.0</ele>
        <time>2016-07-25T12:25:29Z</time>
      </trkpt>
      <trkpt lat="41.164850" lon="-3.656667">
        <ele>2377.0</ele>
        <time>2016-07-25T12:25:31Z</time>
      </trkpt>
      <trkpt lat="41.164750" lon="-3.656800">
        <ele>2384.0</ele>
        <time>2016-07-25T12:25:33Z</time>
      </trkpt>
      <trkpt lat="41.164783" lon="-3.656983">
        <ele>2389.0</ele>
        <time>2016-07-25T12:25:35Z</time>
      </trkpt>
      <trkpt lat="41.164900" lon="-3.657150">
        <ele>2393.0</ele>
        <time>2016-07-25T12:25:37Z</time>
      </trkpt>
      <trkpt lat="41.165033" lon="-3.657300">
        <ele>2398.0</ele>
        <time>2016-07-25T12:25:39Z</time>
      </trkpt>
      <trkpt lat="41.165150" lon="-3.657450">
        <ele>2404.0</ele>
        <time>2016-07-25T12:25:41Z</time>
      </trkpt>
      <trkpt lat="41.165333" lon="-3.657483">
        <ele>2409.0</ele>
        <time>2016-07-25T12:25:43Z</time>
      </trkpt>
      <trkpt lat="41.165517" lon="-3.657433">
        <ele>2418.0</ele>
        <time>2016-07-25T12:25:45Z</time>
      </trkpt>
      <trkpt lat="41.165650" lon="-3.657333">
        <ele>2427.0</ele>
        <time>2016-07-25T12:25:47Z</time>
      </trkpt>
      <trkpt lat="41.165750" lon="-3.657150">
        <ele>2433.0</ele>
        <time>2016-07-25T12:25:49Z</time>
      </trkpt>
      <trkpt lat="41.165767" lon="-3.656883">
        <ele>2438.0</ele>
        <time>2016-07-25T12:25:51Z</time>
      </trkpt>
      <trkpt lat="41.165717" lon="-3.656617">
        <ele>2443.0</ele>
        <time>2016-07-25T12:25:53Z</time>
      </trkpt>
      <trkpt lat="41.165667" lon="-3.656367">
        <ele>2443.0</ele>
        <time>2016-07-25T12:25:55Z</time>
      </trkpt>
      <trkpt lat="41.165533" lon="-3.656150">
        <ele>2440.0</ele>
        <time>2016-07-25T12:25:57Z</time>
      </trkpt>
      <trkpt lat="41.165317" lon="-3.656017">
        <ele>2442.0</ele>
        <time>2016-07-25T12:25:59Z</time>
      </trkpt>
      <trkpt lat="41.165083" lon="-3.655967">
        <ele>2446.0</ele>
        <time>2016-07-25T12:26:01Z</time>
      </trkpt>
      <trkpt lat="41.164850" lon="-3.655967">
        <ele>2449.0</ele>
        <time>2016-07-25T12:26:03Z</time>
      </trkpt>
      <trkpt lat="41.164617" lon="-3.656000">
        <ele>2458.0</ele>
        <time>2016-07-25T12:26:05Z</time>
      </trkpt>
      <trkpt lat="41.164450" lon="-3.656050">
        <ele>2467.0</ele>
        <time>2016-07-25T12:26:07Z</time>
      </trkpt>
      <trkpt lat="41.164300" lon="-3.656133">
        <ele>2471.0</ele>
        <time>2016-07-25T12:26:09Z</time>
      </trkpt>
      <trkpt lat="41.164167" lon="-3.656317">
        <ele>2475.0</ele>
        <time>2016-07-25T12:26:11Z</time>
      </trkpt>
      <trkpt lat="41.164100" lon="-3.656500">
        <ele>2480.0</ele>
        <time>2016-07-25T12:26:13Z</time>
      </trkpt>
      <trkpt lat="41.164117" lon="-3.656683">
        <ele>2481.0</ele>
        <time>2016-07-25T12:26:15Z</time>
      </trkpt>
      <trkpt lat="41.164217" lon="-3.656883">
        <ele>2480.0</ele>
        <time>2016-07-25T12:26:17Z</time>
      </trkpt>
      <trkpt lat="41.164317" lon="-3.657083">
        <ele>2483.0</ele>
        <time>2016-07-25T12:26:19Z</time>
      </trkpt>
      <trkpt lat="41.164433" lon="-3.657233">
        <ele>2486.0</ele>
        <time>2016-07-25T12:26:21Z</time>
      </trkpt>
      <trkpt lat="41.164600" lon="-3.657333">
        <ele>2486.0</ele>
        <time>2016-07-25T12:26:23Z</time>
      </trkpt>
      <trkpt lat="41.164783" lon="-3.657400">
        <ele>2488.0</ele>
        <time>2016-07-25T12:26:25Z</time>
      </trkpt>
      <trkpt lat="41.164967" lon="-3.657433">
        <ele>2492.0</ele>
        <time>2016-07-25T12:26:27Z</time>
      </trkpt>
      <trkpt lat="41.165150" lon="-3.657433">
        <ele>2495.0</ele>
        <time>2016-07-25T12:26:29Z</time>
      </trkpt>
      <trkpt lat="41.165350" lon="-3.657400">
        <ele>2500.0</ele>
        <time>2016-07-25T12:26:31Z</time>
      </trkpt>
      <trkpt lat="41.165550" lon="-3.657317">
        <ele>2506.0</ele>
        <time>2016-07-25T12:26:33Z</time>
      </trkpt>
      <trkpt lat="41.165700" lon="-3.657200">
        <ele>2511.0</ele>
        <time>2016-07-25T12:26:35Z</time>
      </trkpt>
      <trkpt lat="41.165883" lon="-3.657100">
        <ele>2517.0</ele>
        <time>2016-07-25T12:26:37Z</time>
      </trkpt>
      <trkpt lat="41.166050" lon="-3.657000">
        <ele>2526.0</ele>
        <time>2016-07-25T12:26:39Z</time>
      </trkpt>
      <trkpt lat="41.166200" lon="-3.656900">
        <ele>2533.0</ele>
        <time>2016-07-25T12:26:41Z</time>
      </trkpt>
      <trkpt lat="41.166333" lon="-3.656817">
        <ele>2534.0</ele>
        <time>2016-07-25T12:26:43Z</time>
      </trkpt>
      <trkpt lat="41.166500" lon="-3.656750">
        <ele>2532.0</ele>
        <time>2016-07-25T12:26:45Z</time>
      </trkpt>
      <trkpt lat="41.166700" lon="-3.656683">
        <ele>2532.0</ele>
        <time>2016-07-25T12:26:47Z</time>
      </trkpt>
      <trkpt lat="41.166867" lon="-3.656633">
        <ele>2534.0</ele>
        <time>2016-07-25T12:26:49Z</time>
      </trkpt>
      <trkpt lat="41.167050" lon="-3.656583">
        <ele>2536.0</ele>
        <time>2016-07-25T12:26:51Z</time>
      </trkpt>
      <trkpt lat="41.167233" lon="-3.656533">
        <ele>2538.0</ele>
        <time>2016-07-25T12:26:53Z</time>
      </trkpt>
      <trkpt lat="41.167417" lon="-3.656483">
        <ele>2539.0</ele>
        <time>2016-07-25T12:26:55Z</time>
      </trkpt>
      <trkpt lat="41.167600" lon="-3.656400">
        <ele>2540.0</ele>
        <time>2016-07-25T12:26:57Z</time>
      </trkpt>
      <trkpt lat="41.167783" lon="-3.656317">
        <ele>2541.0</ele>
        <time>2016-07-25T12:26:59Z</time>
      </trkpt>
      <trkpt lat="41.167983" lon="-3.656250">
        <ele>2541.0</ele>
        <time>2016-07-25T12:27:01Z</time>
      </trkpt>
      <trkpt lat="41.168183" lon="-3.656167">
        <ele>2542.0</ele>
        <time>2016-07-25T12:27:03Z</time>
      </trkpt>
      <trkpt lat="41.168383" lon="-3.656083">
        <ele>2544.0</ele>
        <time>2016-07-25T12:27:05Z</time>
      </trkpt>
      <trkpt lat="41.168567" lon="-3.655983">
        <ele>2546.0</ele>
        <time>2016-07-25T12:27:07Z</time>
      </trkpt>
      <trkpt lat="41.168767" lon="-3.655883">
        <ele>2547.0</ele>
        <time>2016-07-25T12:27:09Z</time>
      </trkpt>
      <trkpt lat="41.168933" lon="-3.655767">
        <ele>2547.0</ele>
        <time>2016-07-25T12:27:11Z</time>
      </trkpt>
      <trkpt lat="41.169083" lon="-3.655600">
        <ele>2550.0</ele>
        <time>2016-07-25T12:27:13Z</time>
      </trkpt>
      <trkpt lat="41.169183" lon="-3.655500">
        <ele>2550.0</ele>
        <time>2016-07-25T12:27:15Z</time>
      </trkpt>
      <trkpt lat="41.169350" lon="-3.655433">
        <ele>2547.0</ele>
        <time>2016-07-25T12:27:17Z</time>
      </trkpt>
      <trkpt lat="41.169533" lon="-3.655333">
        <ele>2546.0</ele>
        <time>2016-07-25T12:27:19Z</time>
      </trkpt>
      <trkpt lat="41.169683" lon="-3.655233">
        <ele>2547.0</ele>
        <time>2016-07-25T12:27:21Z</time>
      </trkpt>
      <trkpt lat="41.169850" lon="-3.655133">
        <ele>2547.0</ele>
        <time>2016-07-25T12:27:23Z</time>
      </trkpt>
      <trkpt lat="41.170033" lon="-3.655050">
        <ele>2545.0</ele>
        <time>2016-07-25T12:27:25Z</time>
      </trkpt>
      <trkpt lat="41.170233" lon="-3.654950">
        <ele>2545.0</ele>
        <time>2016-07-25T12:27:27Z</time>
      </trkpt>
      <trkpt lat="41.170417" lon="-3.654833">
        <ele>2545.0</ele>
        <time>2016-07-25T12:27:29Z</time>
      </trkpt>
      <trkpt lat="41.170617" lon="-3.654733">
        <ele>2545.0</ele>
        <time>2016-07-25T12:27:31Z</time>
      </trkpt>
      <trkpt lat="41.170833" lon="-3.654633">
        <ele>2546.0</ele>
        <time>2016-07-25T12:27:33Z</time>
      </trkpt>
      <trkpt lat="41.171017" lon="-3.654533">
        <ele>2548.0</ele>
        <time>2016-07-25T12:27:35Z</time>
      </trkpt>
      <trkpt lat="41.171150" lon="-3.654450">
        <ele>2548.0</ele>
        <time>2016-07-25T12:27:37Z</time>
      </trkpt>
      <trkpt lat="41.171300" lon="-3.654350">
        <ele>2543.0</ele>
        <time>2016-07-25T12:27:39Z</time>
      </trkpt>
      <trkpt lat="41.171500" lon="-3.654233">
        <ele>2538.0</ele>
        <time>2016-07-25T12:27:41Z</time>
      </trkpt>
      <trkpt lat="41.171700" lon="-3.654167">
        <ele>2536.0</ele>
        <time>2016-07-25T12:27:43Z</time>
      </trkpt>
      <trkpt lat="41.171900" lon="-3.654050">
        <ele>2534.0</ele>
        <time>2016-07-25T12:27:45Z</time>
      </trkpt>
      <trkpt lat="41.172083" lon="-3.653900">
        <ele>2532.0</ele>
        <time>2016-07-25T12:27:47Z</time>
      </trkpt>
      <trkpt lat="41.172283" lon="-3.653767">
        <ele>2530.0</ele>
        <time>2016-07-25T12:27:49Z</time>
      </trkpt>
      <trkpt lat="41.172467" lon="-3.653700">
        <ele>2528.0</ele>
        <time>2016-07-25T12:27:51Z</time>
      </trkpt>
      <trkpt lat="41.172667" lon="-3.653650">
        <ele>2524.0</ele>
        <time>2016-07-25T12:27:53Z</time>
      </trkpt>
      <trkpt lat="41.172883" lon="-3.653583">
        <ele>2521.0</ele>
        <time>2016-07-25T12:27:55Z</time>
      </trkpt>
      <trkpt lat="41.173067" lon="-3.653533">
        <ele>2520.0</ele>
        <time>2016-07-25T12:27:57Z</time>
      </trkpt>
      <trkpt lat="41.173250" lon="-3.653483">
        <ele>2515.0</ele>
        <time>2016-07-25T12:27:59Z</time>
      </trkpt>
      <trkpt lat="41.173450" lon="-3.653417">
        <ele>2509.0</ele>
        <time>2016-07-25T12:28:01Z</time>
      </trkpt>
      <trkpt lat="41.173650" lon="-3.653350">
        <ele>2505.0</ele>
        <time>2016-07-25T12:28:03Z</time>
      </trkpt>
      <trkpt lat="41.173850" lon="-3.653300">
        <ele>2501.0</ele>
        <time>2016-07-25T12:28:05Z</time>
      </trkpt>
      <trkpt lat="41.174033" lon="-3.653233">
        <ele>2496.0</ele>
        <time>2016-07-25T12:28:07Z</time>
      </trkpt>
      <trkpt lat="41.174250" lon="-3.653183">
        <ele>2491.0</ele>
        <time>2016-07-25T12:28:09Z</time>
      </trkpt>
      <trkpt lat="41.174417" lon="-3.653133">
        <ele>2486.0</ele>
        <time>2016-07-25T12:28:11Z</time>
      </trkpt>
      <trkpt lat="41.174617" lon="-3.653067">
        <ele>2480.0</ele>
        <time>2016-07-25T12:28:13Z</time>
      </trkpt>
      <trkpt lat="41.174817" lon="-3.653000">
        <ele>2475.0</ele>
        <time>2016-07-25T12:28:15Z</time>
      </trkpt>
      <trkpt lat="41.175033" lon="-3.652917">
        <ele>2472.0</ele>
        <time>2016-07-25T12:28:17Z</time>
      </trkpt>
      <trkpt lat="41.175217" lon="-3.652833">
        <ele>2468.0</ele>
        <time>2016-07-25T12:28:19Z</time>
      </trkpt>
      <trkpt lat="41.175383" lon="-3.652733">
        <ele>2462.0</ele>
        <time>2016-07-25T12:28:21Z</time>
      </trkpt>
      <trkpt lat="41.175583" lon="-3.652617">
        <ele>2454.0</ele>
        <time>2016-07-25T12:28:23Z</time>
      </trkpt>
      <trkpt lat="41.175783" lon="-3.652483">
        <ele>2447.0</ele>
        <time>2016-07-25T12:28:25Z</time>
      </trkpt>
      <trkpt lat="41.175967" lon="-3.652350">
        <ele>2442.0</ele>
        <time>2016-07-25T12:28:27Z</time>
      </trkpt>
      <trkpt lat="41.176167" lon="-3.652233">
        <ele>2434.0</ele>
        <time>2016-07-25T12:28:29Z</time>
      </trkpt>
      <trkpt lat="41.176367" lon="-3.652100">
        <ele>2428.0</ele>
        <time>2016-07-25T12:28:31Z</time>
      </trkpt>
      <trkpt lat="41.176567" lon="-3.651983">
        <ele>2423.0</ele>
        <time>2016-07-25T12:28:33Z</time>
      </trkpt>
      <trkpt lat="41.176767" lon="-3.651867">
        <ele>2418.0</ele>
        <time>2016-07-25T12:28:35Z</time>
      </trkpt>
      <trkpt lat="41.176967" lon="-3.651750">
        <ele>2415.0</ele>
        <time>2016-07-25T12:28:37Z</time>
      </trkpt>
      <trkpt lat="41.177150" lon="-3.651650">
        <ele>2411.0</ele>
        <time>2016-07-25T12:28:39Z</time>
      </trkpt>
      <trkpt lat="41.177350" lon="-3.651550">
        <ele>2406.0</ele>
        <time>2016-07-25T12:28:41Z</time>
      </trkpt>
      <trkpt lat="41.177550" lon="-3.651450">
        <ele>2403.0</ele>
        <time>2016-07-25T12:28:43Z</time>
      </trkpt>
      <trkpt lat="41.177750" lon="-3.651333">
        <ele>2401.0</ele>
        <time>2016-07-25T12:28:45Z</time>
      </trkpt>
      <trkpt lat="41.177933" lon="-3.651217">
        <ele>2398.0</ele>
        <time>2016-07-25T12:28:47Z</time>
      </trkpt>
      <trkpt lat="41.178100" lon="-3.651100">
        <ele>2394.0</ele>
        <time>2016-07-25T12:28:49Z</time>
      </trkpt>
      <trkpt lat="41.178283" lon="-3.650983">
        <ele>2389.0</ele>
        <time>2016-07-25T12:28:51Z</time>
      </trkpt>
      <trkpt lat="41.178467" lon="-3.650833">
        <ele>2386.0</ele>
        <time>2016-07-25T12:28:53Z</time>
      </trkpt>
      <trkpt lat="41.178617" lon="-3.650700">
        <ele>2384.0</ele>
        <time>2016-07-25T12:28:55Z</time>
      </trkpt>
      <trkpt lat="41.178767" lon="-3.650600">
        <ele>2380.0</ele>
        <time>2016-07-25T12:28:57Z</time>
      </trkpt>
      <trkpt lat="41.178950" lon="-3.650500">
        <ele>2374.0</ele>
        <time>2016-07-25T12:28:59Z</time>
      </trkpt>
      <trkpt lat="41.179133" lon="-3.650367">
        <ele>2370.0</ele>
        <time>2016-07-25T12:29:01Z</time>
      </trkpt>
      <trkpt lat="41.179300" lon="-3.650250">
        <ele>2368.0</ele>
        <time>2016-07-25T12:29:03Z</time>
      </trkpt>
      <trkpt lat="41.179467" lon="-3.650117">
        <ele>2365.0</ele>
        <time>2016-07-25T12:29:05Z</time>
      </trkpt>
      <trkpt lat="41.179633" lon="-3.649983">
        <ele>2362.0</ele>
        <time>2016-07-25T12:29:07Z</time>
      </trkpt>
      <trkpt lat="41.179817" lon="-3.649867">
        <ele>2359.0</ele>
        <time>2016-07-25T12:29:09Z</time>
      </trkpt>
      <trkpt lat="41.180000" lon="-3.649750">
        <ele>2355.0</ele>
        <time>2016-07-25T12:29:11Z</time>
      </trkpt>
      <trkpt lat="41.180183" lon="-3.649617">
        <ele>2351.0</ele>
        <time>2016-07-25T12:29:13Z</time>
      </trkpt>
      <trkpt lat="41.180367" lon="-3.649483">
        <ele>2348.0</ele>
        <time>2016-07-25T12:29:15Z</time>
      </trkpt>
      <trkpt lat="41.180533" lon="-3.649350">
        <ele>2344.0</ele>
        <time>2016-07-25T12:29:17Z</time>
      </trkpt>
      <trkpt lat="41.180717" lon="-3.649217">
        <ele>2340.0</ele>
        <time>2016-07-25T12:29:19Z</time>
      </trkpt>
      <trkpt lat="41.180900" lon="-3.649067">
        <ele>2336.0</ele>
        <time>2016-07-25T12:29:21Z</time>
      </trkpt>
      <trkpt lat="41.181083" lon="-3.648917">
        <ele>2332.0</ele>
        <time>2016-07-25T12:29:23Z</time>
      </trkpt>
      <trkpt lat="41.181267" lon="-3.648767">
        <ele>2329.0</ele>
        <time>2016-07-25T12:29:25Z</time>
      </trkpt>
      <trkpt lat="41.181450" lon="-3.648600">
        <ele>2326.0</ele>
        <time>2016-07-25T12:29:27Z</time>
      </trkpt>
      <trkpt lat="41.181617" lon="-3.648417">
        <ele>2322.0</ele>
        <time>2016-07-25T12:29:29Z</time>
      </trkpt>
      <trkpt lat="41.181800" lon="-3.648250">
        <ele>2317.0</ele>
        <time>2016-07-25T12:29:31Z</time>
      </trkpt>
      <trkpt lat="41.181983" lon="-3.648050">
        <ele>2312.0</ele>
        <time>2016-07-25T12:29:33Z</time>
      </trkpt>
      <trkpt lat="41.182167" lon="-3.647900">
        <ele>2308.0</ele>
        <time>2016-07-25T12:29:35Z</time>
      </trkpt>
      <trkpt lat="41.182350" lon="-3.647733">
        <ele>2304.0</ele>
        <time>2016-07-25T12:29:37Z</time>
      </trkpt>
      <trkpt lat="41.182533" lon="-3.647567">
        <ele>2301.0</ele>
        <time>2016-07-25T12:29:39Z</time>
      </trkpt>
      <trkpt lat="41.182700" lon="-3.647433">
        <ele>2300.0</ele>
        <time>2016-07-25T12:29:41Z</time>
      </trkpt>
      <trkpt lat="41.182867" lon="-3.647300">
        <ele>2297.0</ele>
        <time>2016-07-25T12:29:43Z</time>
      </trkpt>
      <trkpt lat="41.183067" lon="-3.647150">
        <ele>2294.0</ele>
        <time>2016-07-25T12:29:45Z</time>
      </trkpt>
      <trkpt lat="41.183233" lon="-3.647000">
        <ele>2294.0</ele>
        <time>2016-07-25T12:29:47Z</time>
      </trkpt>
      <trkpt lat="41.183383" lon="-3.646867">
        <ele>2292.0</ele>
        <time>2016-07-25T12:29:49Z</time>
      </trkpt>
      <trkpt lat="41.183533" lon="-3.646733">
        <ele>2288.0</ele>
        <time>2016-07-25T12:29:51Z</time>
      </trkpt>
      <trkpt lat="41.183700" lon="-3.646583">
        <ele>2285.0</ele>
        <time>2016-07-25T12:29:53Z</time>
      </trkpt>
      <trkpt lat="41.183850" lon="-3.646450">
        <ele>2282.0</ele>
        <time>2016-07-25T12:29:55Z</time>
      </trkpt>
      <trkpt lat="41.184017" lon="-3.646333">
        <ele>2278.0</ele>
        <time>2016-07-25T12:29:57Z</time>
      </trkpt>
      <trkpt lat="41.184183" lon="-3.646217">
        <ele>2274.0</ele>
        <time>2016-07-25T12:29:59Z</time>
      </trkpt>
      <trkpt lat="41.184367" lon="-3.646100">
        <ele>2272.0</ele>
        <time>2016-07-25T12:30:01Z</time>
      </trkpt>
      <trkpt lat="41.184517" lon="-3.645983">
        <ele>2269.0</ele>
        <time>2016-07-25T12:30:03Z</time>
      </trkpt>
      <trkpt lat="41.184683" lon="-3.645833">
        <ele>2266.0</ele>
        <time>2016-07-25T12:30:05Z</time>
      </trkpt>
      <trkpt lat="41.184850" lon="-3.645700">
        <ele>2263.0</ele>
        <time>2016-07-25T12:30:07Z</time>
      </trkpt>
      <trkpt lat="41.185017" lon="-3.645567">
        <ele>2260.0</ele>
        <time>2016-07-25T12:30:09Z</time>
      </trkpt>
      <trkpt lat="41.185217" lon="-3.645467">
        <ele>2256.0</ele>
        <time>2016-07-25T12:30:11Z</time>
      </trkpt>
      <trkpt lat="41.185400" lon="-3.645350">
        <ele>2253.0</ele>
        <time>2016-07-25T12:30:13Z</time>
      </trkpt>
      <trkpt lat="41.185567" lon="-3.645250">
        <ele>2250.0</ele>
        <time>2016-07-25T12:30:15Z</time>
      </trkpt>
      <trkpt lat="41.185750" lon="-3.645133">
        <ele>2245.0</ele>
        <time>2016-07-25T12:30:17Z</time>
      </trkpt>
      <trkpt lat="41.185917" lon="-3.645017">
        <ele>2240.0</ele>
        <time>2016-07-25T12:30:19Z</time>
      </trkpt>
      <trkpt lat="41.186100" lon="-3.644883">
        <ele>2236.0</ele>
        <time>2016-07-25T12:30:21Z</time>
      </trkpt>
      <trkpt lat="41.186283" lon="-3.644750">
        <ele>2230.0</ele>
        <time>2016-07-25T12:30:23Z</time>
      </trkpt>
      <trkpt lat="41.186467" lon="-3.644617">
        <ele>2225.0</ele>
        <time>2016-07-25T12:30:25Z</time>
      </trkpt>
      <trkpt lat="41.186633" lon="-3.644500">
        <ele>2222.0</ele>
        <time>2016-07-25T12:30:27Z</time>
      </trkpt>
      <trkpt lat="41.186817" lon="-3.644400">
        <ele>2217.0</ele>
        <time>2016-07-25T12:30:29Z</time>
      </trkpt>
      <trkpt lat="41.187000" lon="-3.644267">
        <ele>2212.0</ele>
        <time>2016-07-25T12:30:31Z</time>
      </trkpt>
      <trkpt lat="41.187200" lon="-3.644117">
        <ele>2210.0</ele>
        <time>2016-07-25T12:30:33Z</time>
      </trkpt>
      <trkpt lat="41.187367" lon="-3.643983">
        <ele>2208.0</ele>
        <time>2016-07-25T12:30:35Z</time>
      </trkpt>
      <trkpt lat="41.187517" lon="-3.643817">
        <ele>2204.0</ele>
        <time>2016-07-25T12:30:37Z</time>
      </trkpt>
      <trkpt lat="41.187700" lon="-3.643617">
        <ele>2198.0</ele>
        <time>2016-07-25T12:30:39Z</time>
      </trkpt>
      <trkpt lat="41.187867" lon="-3.643433">
        <ele>2193.0</ele>
        <time>2016-07-25T12:30:41Z</time>
      </trkpt>
      <trkpt lat="41.188033" lon="-3.643250">
        <ele>2187.0</ele>
        <time>2016-07-25T12:30:43Z</time>
      </trkpt>
      <trkpt lat="41.188200" lon="-3.643083">
        <ele>2181.0</ele>
        <time>2016-07-25T12:30:45Z</time>
      </trkpt>
      <trkpt lat="41.188383" lon="-3.642950">
        <ele>2176.0</ele>
        <time>2016-07-25T12:30:47Z</time>
      </trkpt>
      <trkpt lat="41.188533" lon="-3.642800">
        <ele>2170.0</ele>
        <time>2016-07-25T12:30:49Z</time>
      </trkpt>
      <trkpt lat="41.188683" lon="-3.642633">
        <ele>2163.0</ele>
        <time>2016-07-25T12:30:51Z</time>
      </trkpt>
      <trkpt lat="41.188850" lon="-3.642483">
        <ele>2156.0</ele>
        <time>2016-07-25T12:30:53Z</time>
      </trkpt>
      <trkpt lat="41.189017" lon="-3.642333">
        <ele>2149.0</ele>
        <time>2016-07-25T12:30:55Z</time>
      </trkpt>
      <trkpt lat="41.189167" lon="-3.642183">
        <ele>2141.0</ele>
        <time>2016-07-25T12:30:57Z</time>
      </trkpt>
      <trkpt lat="41.189333" lon="-3.642033">
        <ele>2134.0</ele>
        <time>2016-07-25T12:30:59Z</time>
      </trkpt>
      <trkpt lat="41.189517" lon="-3.641917">
        <ele>2126.0</ele>
        <time>2016-07-25T12:31:01Z</time>
      </trkpt>
      <trkpt lat="41.189683" lon="-3.641817">
        <ele>2118.0</ele>
        <time>2016-07-25T12:31:03Z</time>
      </trkpt>
      <trkpt lat="41.189867" lon="-3.641683">
        <ele>2110.0</ele>
        <time>2016-07-25T12:31:05Z</time>
      </trkpt>
      <trkpt lat="41.190050" lon="-3.641567">
        <ele>2103.0</ele>
        <time>2016-07-25T12:31:07Z</time>
      </trkpt>
      <trkpt lat="41.190217" lon="-3.641433">
        <ele>2095.0</ele>
        <time>2016-07-25T12:31:09Z</time>
      </trkpt>
      <trkpt lat="41.190383" lon="-3.641267">
        <ele>2089.0</ele>
        <time>2016-07-25T12:31:11Z</time>
      </trkpt>
      <trkpt lat="41.190517" lon="-3.641083">
        <ele>2084.0</ele>
        <time>2016-07-25T12:31:13Z</time>
      </trkpt>
      <trkpt lat="41.190667" lon="-3.640900">
        <ele>2080.0</ele>
        <time>2016-07-25T12:31:15Z</time>
      </trkpt>
      <trkpt lat="41.190833" lon="-3.640733">
        <ele>2078.0</ele>
        <time>2016-07-25T12:31:17Z</time>
      </trkpt>
      <trkpt lat="41.190983" lon="-3.640567">
        <ele>2075.0</ele>
        <time>2016-07-25T12:31:19Z</time>
      </trkpt>
      <trkpt lat="41.191117" lon="-3.640417">
        <ele>2071.0</ele>
        <time>2016-07-25T12:31:21Z</time>
      </trkpt>
      <trkpt lat="41.191250" lon="-3.640233">
        <ele>2067.0</ele>
        <time>2016-07-25T12:31:23Z</time>
      </trkpt>
      <trkpt lat="41.191450" lon="-3.640117">
        <ele>2063.0</ele>
        <time>2016-07-25T12:31:25Z</time>
      </trkpt>
      <trkpt lat="41.191650" lon="-3.640017">
        <ele>2061.0</ele>
        <time>2016-07-25T12:31:27Z</time>
      </trkpt>
      <trkpt lat="41.191850" lon="-3.639900">
        <ele>2060.0</ele>
        <time>2016-07-25T12:31:29Z</time>
      </trkpt>
      <trkpt lat="41.192050" lon="-3.639750">
        <ele>2058.0</ele>
        <time>2016-07-25T12:31:31Z</time>
      </trkpt>
      <trkpt lat="41.192233" lon="-3.639583">
        <ele>2059.0</ele>
        <time>2016-07-25T12:31:33Z</time>
      </trkpt>
      <trkpt lat="41.192400" lon="-3.639417">
        <ele>2060.0</ele>
        <time>2016-07-25T12:31:35Z</time>
      </trkpt>
      <trkpt lat="41.192567" lon="-3.639267">
        <ele>2062.0</ele>
        <time>2016-07-25T12:31:37Z</time>
      </trkpt>
      <trkpt lat="41.192733" lon="-3.639100">
        <ele>2063.0</ele>
        <time>2016-07-25T12:31:39Z</time>
      </trkpt>
      <trkpt lat="41.192867" lon="-3.638867">
        <ele>2062.0</ele>
        <time>2016-07-25T12:31:41Z</time>
      </trkpt>
      <trkpt lat="41.192983" lon="-3.638600">
        <ele>2059.0</ele>
        <time>2016-07-25T12:31:43Z</time>
      </trkpt>
      <trkpt lat="41.193133" lon="-3.638350">
        <ele>2058.0</ele>
        <time>2016-07-25T12:31:45Z</time>
      </trkpt>
      <trkpt lat="41.193250" lon="-3.638083">
        <ele>2058.0</ele>
        <time>2016-07-25T12:31:47Z</time>
      </trkpt>
      <trkpt lat="41.193350" lon="-3.637767">
        <ele>2057.0</ele>
        <time>2016-07-25T12:31:49Z</time>
      </trkpt>
      <trkpt lat="41.193433" lon="-3.637450">
        <ele>2059.0</ele>
        <time>2016-07-25T12:31:51Z</time>
      </trkpt>
      <trkpt lat="41.193500" lon="-3.637150">
        <ele>2059.0</ele>
        <time>2016-07-25T12:31:53Z</time>
      </trkpt>
      <trkpt lat="41.193600" lon="-3.636817">
        <ele>2056.0</ele>
        <time>2016-07-25T12:31:55Z</time>
      </trkpt>
      <trkpt lat="41.193633" lon="-3.636467">
        <ele>2057.0</ele>
        <time>2016-07-25T12:31:57Z</time>
      </trkpt>
      <trkpt lat="41.193633" lon="-3.636133">
        <ele>2058.0</ele>
        <time>2016-07-25T12:31:59Z</time>
      </trkpt>
      <trkpt lat="41.193617" lon="-3.635800">
        <ele>2056.0</ele>
        <time>2016-07-25T12:32:01Z</time>
      </trkpt>
      <trkpt lat="41.193517" lon="-3.635483">
        <ele>2055.0</ele>
        <time>2016-07-25T12:32:03Z</time>
      </trkpt>
      <trkpt lat="41.193400" lon="-3.635200">
        <ele>2054.0</ele>
        <time>2016-07-25T12:32:05Z</time>
      </trkpt>
      <trkpt lat="41.193317" lon="-3.634883">
        <ele>2051.0</ele>
        <time>2016-07-25T12:32:07Z</time>
      </trkpt>
      <trkpt lat="41.193200" lon="-3.634567">
        <ele>2049.0</ele>
        <time>2016-07-25T12:32:09Z</time>
      </trkpt>
      <trkpt lat="41.193100" lon="-3.634283">
        <ele>2049.0</ele>
        <time>2016-07-25T12:32:11Z</time>
      </trkpt>
      <trkpt lat="41.193017" lon="-3.634017">
        <ele>2046.0</ele>
        <time>2016-07-25T12:32:13Z</time>
      </trkpt>
      <trkpt lat="41.192900" lon="-3.633717">
        <ele>2042.0</ele>
        <time>2016-07-25T12:32:15Z</time>
      </trkpt>
      <trkpt lat="41.192833" lon="-3.633400">
        <ele>2039.0</ele>
        <time>2016-07-25T12:32:17Z</time>
      </trkpt>
      <trkpt lat="41.192767" lon="-3.633083">
        <ele>2036.0</ele>
        <time>2016-07-25T12:32:19Z</time>
      </trkpt>
      <trkpt lat="41.192700" lon="-3.632783">
        <ele>2034.0</ele>
        <time>2016-07-25T12:32:21Z</time>
      </trkpt>
      <trkpt lat="41.192667" lon="-3.632500">
        <ele>2031.0</ele>
        <time>2016-07-25T12:32:23Z</time>
      </trkpt>
      <trkpt lat="41.192667" lon="-3.632217">
        <ele>2027.0</ele>
        <time>2016-07-25T12:32:25Z</time>
      </trkpt>
      <trkpt lat="41.192700" lon="-3.631967">
        <ele>2023.0</ele>
        <time>2016-07-25T12:32:27Z</time>
      </trkpt>
      <trkpt lat="41.192750" lon="-3.631717">
        <ele>2017.0</ele>
        <time>2016-07-25T12:32:29Z</time>
      </trkpt>
      <trkpt lat="41.192833" lon="-3.631483">
        <ele>2013.0</ele>
        <time>2016-07-25T12:32:31Z</time>
      </trkpt>
      <trkpt lat="41.192933" lon="-3.631283">
        <ele>2008.0</ele>
        <time>2016-07-25T12:32:33Z</time>
      </trkpt>
      <trkpt lat="41.193050" lon="-3.631133">
        <ele>2004.0</ele>
        <time>2016-07-25T12:32:35Z</time>
      </trkpt>
      <trkpt lat="41.193183" lon="-3.631000">
        <ele>1998.0</ele>
        <time>2016-07-25T12:32:37Z</time>
      </trkpt>
      <trkpt lat="41.193317" lon="-3.630850">
        <ele>1992.0</ele>
        <time>2016-07-25T12:32:39Z</time>
      </trkpt>
      <trkpt lat="41.193450" lon="-3.630700">
        <ele>1987.0</ele>
        <time>2016-07-25T12:32:41Z</time>
      </trkpt>
      <trkpt lat="41.193600" lon="-3.630583">
        <ele>1981.0</ele>
        <time>2016-07-25T12:32:43Z</time>
      </trkpt>
      <trkpt lat="41.193750" lon="-3.630450">
        <ele>1974.0</ele>
        <time>2016-07-25T12:32:45Z</time>
      </trkpt>
      <trkpt lat="41.193900" lon="-3.630317">
        <ele>1968.0</ele>
        <time>2016-07-25T12:32:47Z</time>
      </trkpt>
      <trkpt lat="41.194067" lon="-3.630200">
        <ele>1962.0</ele>
        <time>2016-07-25T12:32:49Z</time>
      </trkpt>
      <trkpt lat="41.194233" lon="-3.630100">
        <ele>1957.0</ele>
        <time>2016-07-25T12:32:51Z</time>
      </trkpt>
      <trkpt lat="41.194383" lon="-3.630000">
        <ele>1953.0</ele>
        <time>2016-07-25T12:32:53Z</time>
      </trkpt>
      <trkpt lat="41.194517" lon="-3.629933">
        <ele>1948.0</ele>
        <time>2016-07-25T12:32:55Z</time>
      </trkpt>
      <trkpt lat="41.194667" lon="-3.629850">
        <ele>1942.0</ele>
        <time>2016-07-25T12:32:57Z</time>
      </trkpt>
      <trkpt lat="41.194817" lon="-3.629783">
        <ele>1937.0</ele>
        <time>2016-07-25T12:32:59Z</time>
      </trkpt>
      <trkpt lat="41.194950" lon="-3.629700">
        <ele>1931.0</ele>
        <time>2016-07-25T12:33:01Z</time>
      </trkpt>
      <trkpt lat="41.195117" lon="-3.629633">
        <ele>1923.0</ele>
        <time>2016-07-25T12:33:03Z</time>
      </trkpt>
      <trkpt lat="41.195267" lon="-3.629583">
        <ele>1917.0</ele>
        <time>2016-07-25T12:33:05Z</time>
      </trkpt>
      <trkpt lat="41.195417" lon="-3.629533">
        <ele>1911.0</ele>
        <time>2016-07-25T12:33:07Z</time>
      </trkpt>
      <trkpt lat="41.195583" lon="-3.629483">
        <ele>1904.0</ele>
        <time>2016-07-25T12:33:09Z</time>
      </trkpt>
      <trkpt lat="41.195750" lon="-3.629433">
        <ele>1897.0</ele>
        <time>2016-07-25T12:33:11Z</time>
      </trkpt>
      <trkpt lat="41.195900" lon="-3.629367">
        <ele>1891.0</ele>
        <time>2016-07-25T12:33:13Z</time>
      </trkpt>
      <trkpt lat="41.196033" lon="-3.629283">
        <ele>1886.0</ele>
        <time>2016-07-25T12:33:15Z</time>
      </trkpt>
      <trkpt lat="41.196150" lon="-3.629217">
        <ele>1880.0</ele>
        <time>2016-07-25T12:33:17Z</time>
      </trkpt>
      <trkpt lat="41.196283" lon="-3.629133">
        <ele>1872.0</ele>
        <time>2016-07-25T12:33:19Z</time>
      </trkpt>
      <trkpt lat="41.196467" lon="-3.629083">
        <ele>1863.0</ele>
        <time>2016-07-25T12:33:21Z</time>
      </trkpt>
      <trkpt lat="41.196633" lon="-3.629033">
        <ele>1859.0</ele>
        <time>2016-07-25T12:33:23Z</time>
      </trkpt>
      <trkpt lat="41.196767" lon="-3.628967">
        <ele>1855.0</ele>
        <time>2016-07-25T12:33:25Z</time>
      </trkpt>
      <trkpt lat="41.196900" lon="-3.628933">
        <ele>1850.0</ele>
        <time>2016-07-25T12:33:27Z</time>
      </trkpt>
      <trkpt lat="41.197050" lon="-3.628850">
        <ele>1848.0</ele>
        <time>2016-07-25T12:33:29Z</time>
      </trkpt>
      <trkpt lat="41.197167" lon="-3.628767">
        <ele>1846.0</ele>
        <time>2016-07-25T12:33:31Z</time>
      </trkpt>
      <trkpt lat="41.197300" lon="-3.628667">
        <ele>1844.0</ele>
        <time>2016-07-25T12:33:33Z</time>
      </trkpt>
      <trkpt lat="41.197417" lon="-3.628500">
        <ele>1844.0</ele>
        <time>2016-07-25T12:33:35Z</time>
      </trkpt>
      <trkpt lat="41.197517" lon="-3.628350">
        <ele>1845.0</ele>
        <time>2016-07-25T12:33:37Z</time>
      </trkpt>
      <trkpt lat="41.197617" lon="-3.628183">
        <ele>1843.0</ele>
        <time>2016-07-25T12:33:39Z</time>
      </trkpt>
      <trkpt lat="41.197700" lon="-3.627933">
        <ele>1841.0</ele>
        <time>2016-07-25T12:33:41Z</time>
      </trkpt>
      <trkpt lat="41.197783" lon="-3.627683">
        <ele>1842.0</ele>
        <time>2016-07-25T12:33:43Z</time>
      </trkpt>
      <trkpt lat="41.197833" lon="-3.627467">
        <ele>1840.0</ele>
        <time>2016-07-25T12:33:45Z</time>
      </trkpt>
      <trkpt lat="41.197917" lon="-3.627200">
        <ele>1836.0</ele>
        <time>2016-07-25T12:33:47Z</time>
      </trkpt>
      <trkpt lat="41.198000" lon="-3.626933">
        <ele>1835.0</ele>
        <time>2016-07-25T12:33:49Z</time>
      </trkpt>
      <trkpt lat="41.198100" lon="-3.626683">
        <ele>1836.0</ele>
        <time>2016-07-25T12:33:51Z</time>
      </trkpt>
      <trkpt lat="41.198217" lon="-3.626433">
        <ele>1836.0</ele>
        <time>2016-07-25T12:33:53Z</time>
      </trkpt>
      <trkpt lat="41.198317" lon="-3.626233">
        <ele>1836.0</ele>
        <time>2016-07-25T12:33:55Z</time>
      </trkpt>
      <trkpt lat="41.198417" lon="-3.626000">
        <ele>1835.0</ele>
        <time>2016-07-25T12:33:57Z</time>
      </trkpt>
      <trkpt lat="41.198533" lon="-3.625783">
        <ele>1832.0</ele>
        <time>2016-07-25T12:33:59Z</time>
      </trkpt>
      <trkpt lat="41.198650" lon="-3.625567">
        <ele>1830.0</ele>
        <time>2016-07-25T12:34:01Z</time>
      </trkpt>
      <trkpt lat="41.198767" lon="-3.625367">
        <ele>1826.0</ele>
        <time>2016-07-25T12:34:03Z</time>
      </trkpt>
      <trkpt lat="41.198917" lon="-3.625183">
        <ele>1824.0</ele>
        <time>2016-07-25T12:34:05Z</time>
      </trkpt>
      <trkpt lat="41.199050" lon="-3.625000">
        <ele>1825.0</ele>
        <time>2016-07-25T12:34:07Z</time>
      </trkpt>
      <trkpt lat="41.199117" lon="-3.624817">
        <ele>1826.0</ele>
        <time>2016-07-25T12:34:09Z</time>
      </trkpt>
      <trkpt lat="41.199217" lon="-3.624600">
        <ele>1826.0</ele>
        <time>2016-07-25T12:34:11Z</time>
      </trkpt>
      <trkpt lat="41.199217" lon="-3.624350">
        <ele>1829.0</ele>
        <time>2016-07-25T12:34:13Z</time>
      </trkpt>
      <trkpt lat="41.199133" lon="-3.624067">
        <ele>1836.0</ele>
        <time>2016-07-25T12:34:15Z</time>
      </trkpt>
      <trkpt lat="41.199050" lon="-3.623867">
        <ele>1846.0</ele>
        <time>2016-07-25T12:34:17Z</time>
      </trkpt>
      <trkpt lat="41.198950" lon="-3.623717">
        <ele>1850.0</ele>
        <time>2016-07-25T12:34:19Z</time>
      </trkpt>
      <trkpt lat="41.198767" lon="-3.623533">
        <ele>1850.0</ele>
        <time>2016-07-25T12:34:21Z</time>
      </trkpt>
      <trkpt lat="41.198567" lon="-3.623450">
        <ele>1854.0</ele>
        <time>2016-07-25T12:34:23Z</time>
      </trkpt>
      <trkpt lat="41.198367" lon="-3.623517">
        <ele>1856.0</ele>
        <time>2016-07-25T12:34:25Z</time>
      </trkpt>
      <trkpt lat="41.198167" lon="-3.623650">
        <ele>1857.0</ele>
        <time>2016-07-25T12:34:27Z</time>
      </trkpt>
      <trkpt lat="41.197983" lon="-3.623833">
        <ele>1862.0</ele>
        <time>2016-07-25T12:34:29Z</time>
      </trkpt>
      <trkpt lat="41.197867" lon="-3.623950">
        <ele>1866.0</ele>
        <time>2016-07-25T12:34:31Z</time>
      </trkpt>
      <trkpt lat="41.197833" lon="-3.624100">
        <ele>1866.0</ele>
        <time>2016-07-25T12:34:33Z</time>
      </trkpt>
      <trkpt lat="41.197867" lon="-3.624267">
        <ele>1864.0</ele>
        <time>2016-07-25T12:34:35Z</time>
      </trkpt>
      <trkpt lat="41.197967" lon="-3.624367">
        <ele>1860.0</ele>
        <time>2016-07-25T12:34:37Z</time>
      </trkpt>
      <trkpt lat="41.198100" lon="-3.624383">
        <ele>1856.0</ele>
        <time>2016-07-25T12:34:39Z</time>
      </trkpt>
      <trkpt lat="41.198267" lon="-3.624317">
        <ele>1855.0</ele>
        <time>2016-07-25T12:34:41Z</time>
      </trkpt>
      <trkpt lat="41.198383" lon="-3.624233">
        <ele>1857.0</ele>
        <time>2016-07-25T12:34:43Z</time>
      </trkpt>
      <trkpt lat="41.198483" lon="-3.624150">
        <ele>1857.0</ele>
        <time>2016-07-25T12:34:45Z</time>
      </trkpt>
      <trkpt lat="41.198567" lon="-3.624000">
        <ele>1857.0</ele>
        <time>2016-07-25T12:34:47Z</time>
      </trkpt>
      <trkpt lat="41.198617" lon="-3.623783">
        <ele>1858.0</ele>
        <time>2016-07-25T12:34:49Z</time>
      </trkpt>
      <trkpt lat="41.198667" lon="-3.623600">
        <ele>1861.0</ele>
        <time>2016-07-25T12:34:51Z</time>
      </trkpt>
      <trkpt lat="41.198717" lon="-3.623450">
        <ele>1862.0</ele>
        <time>2016-07-25T12:34:53Z</time>
      </trkpt>
      <trkpt lat="41.198750" lon="-3.623250">
        <ele>1864.0</ele>
        <time>2016-07-25T12:34:55Z</time>
      </trkpt>
      <trkpt lat="41.198783" lon="-3.623017">
        <ele>1868.0</ele>
        <time>2016-07-25T12:34:57Z</time>
      </trkpt>
      <trkpt lat="41.198767" lon="-3.622800">
        <ele>1872.0</ele>
        <time>2016-07-25T12:34:59Z</time>
      </trkpt>
      <trkpt lat="41.198700" lon="-3.622550">
        <ele>1871.0</ele>
        <time>2016-07-25T12:35:01Z</time>
      </trkpt>
      <trkpt lat="41.198533" lon="-3.622300">
        <ele>1873.0</ele>
        <time>2016-07-25T12:35:03Z</time>
      </trkpt>
      <trkpt lat="41.198350" lon="-3.622183">
        <ele>1876.0</ele>
        <time>2016-07-25T12:35:05Z</time>
      </trkpt>
      <trkpt lat="41.198117" lon="-3.622117">
        <ele>1875.0</ele>
        <time>2016-07-25T12:35:07Z</time>
      </trkpt>
      <trkpt lat="41.197883" lon="-3.622150">
        <ele>1873.0</ele>
        <time>2016-07-25T12:35:09Z</time>
      </trkpt>
      <trkpt lat="41.197667" lon="-3.622300">
        <ele>1873.0</ele>
        <time>2016-07-25T12:35:11Z</time>
      </trkpt>
      <trkpt lat="41.197483" lon="-3.622467">
        <ele>1880.0</ele>
        <time>2016-07-25T12:35:13Z</time>
      </trkpt>
      <trkpt lat="41.197350" lon="-3.622617">
        <ele>1884.0</ele>
        <time>2016-07-25T12:35:15Z</time>
      </trkpt>
      <trkpt lat="41.197267" lon="-3.622817">
        <ele>1886.0</ele>
        <time>2016-07-25T12:35:17Z</time>
      </trkpt>
      <trkpt lat="41.197250" lon="-3.622983">
        <ele>1885.0</ele>
        <time>2016-07-25T12:35:19Z</time>
      </trkpt>
      <trkpt lat="41.197317" lon="-3.623117">
        <ele>1883.0</ele>
        <time>2016-07-25T12:35:21Z</time>
      </trkpt>
      <trkpt lat="41.197417" lon="-3.623183">
        <ele>1882.0</ele>
        <time>2016-07-25T12:35:23Z</time>
      </trkpt>
      <trkpt lat="41.197517" lon="-3.623100">
        <ele>1881.0</ele>
        <time>2016-07-25T12:35:25Z</time>
      </trkpt>
      <trkpt lat="41.197600" lon="-3.622933">
        <ele>1883.0</ele>
        <time>2016-07-25T12:35:27Z</time>
      </trkpt>
      <trkpt lat="41.197617" lon="-3.622700">
        <ele>1885.0</ele>
        <time>2016-07-25T12:35:29Z</time>
      </trkpt>
      <trkpt lat="41.197633" lon="-3.622450">
        <ele>1886.0</ele>
        <time>2016-07-25T12:35:31Z</time>
      </trkpt>
      <trkpt lat="41.197617" lon="-3.622183">
        <ele>1889.0</ele>
        <time>2016-07-25T12:35:33Z</time>
      </trkpt>
      <trkpt lat="41.197533" lon="-3.621950">
        <ele>1892.0</ele>
        <time>2016-07-25T12:35:35Z</time>
      </trkpt>
      <trkpt lat="41.197450" lon="-3.621733">
        <ele>1891.0</ele>
        <time>2016-07-25T12:35:37Z</time>
      </trkpt>
      <trkpt lat="41.197317" lon="-3.621533">
        <ele>1888.0</ele>
        <time>2016-07-25T12:35:39Z</time>
      </trkpt>
      <trkpt lat="41.197117" lon="-3.621350">
        <ele>1887.0</ele>
        <time>2016-07-25T12:35:41Z</time>
      </trkpt>
      <trkpt lat="41.196917" lon="-3.621250">
        <ele>1885.0</ele>
        <time>2016-07-25T12:35:43Z</time>
      </trkpt>
      <trkpt lat="41.196683" lon="-3.621250">
        <ele>1881.0</ele>
        <time>2016-07-25T12:35:45Z</time>
      </trkpt>
      <trkpt lat="41.196450" lon="-3.621333">
        <ele>1878.0</ele>
        <time>2016-07-25T12:35:47Z</time>
      </trkpt>
      <trkpt lat="41.196250" lon="-3.621450">
        <ele>1878.0</ele>
        <time>2016-07-25T12:35:49Z</time>
      </trkpt>
      <trkpt lat="41.196067" lon="-3.621600">
        <ele>1877.0</ele>
        <time>2016-07-25T12:35:51Z</time>
      </trkpt>
      <trkpt lat="41.195917" lon="-3.621800">
        <ele>1877.0</ele>
        <time>2016-07-25T12:35:53Z</time>
      </trkpt>
      <trkpt lat="41.195850" lon="-3.621983">
        <ele>1876.0</ele>
        <time>2016-07-25T12:35:55Z</time>
      </trkpt>
      <trkpt lat="41.195833" lon="-3.622133">
        <ele>1876.0</ele>
        <time>2016-07-25T12:35:57Z</time>
      </trkpt>
      <trkpt lat="41.195850" lon="-3.622233">
        <ele>1872.0</ele>
        <time>2016-07-25T12:35:59Z</time>
      </trkpt>
      <trkpt lat="41.195950" lon="-3.622317">
        <ele>1866.0</ele>
        <time>2016-07-25T12:36:01Z</time>
      </trkpt>
      <trkpt lat="41.196117" lon="-3.622267">
        <ele>1860.0</ele>
        <time>2016-07-25T12:36:03Z</time>
      </trkpt>
      <trkpt lat="41.196233" lon="-3.622200">
        <ele>1861.0</ele>
        <time>2016-07-25T12:36:05Z</time>
      </trkpt>
      <trkpt lat="41.196333" lon="-3.622100">
        <ele>1858.0</ele>
        <time>2016-07-25T12:36:07Z</time>
      </trkpt>
      <trkpt lat="41.196467" lon="-3.621983">
        <ele>1857.0</ele>
        <time>2016-07-25T12:36:09Z</time>
      </trkpt>
      <trkpt lat="41.196550" lon="-3.621850">
        <ele>1859.0</ele>
        <time>2016-07-25T12:36:11Z</time>
      </trkpt>
      <trkpt lat="41.196617" lon="-3.621633">
        <ele>1857.0</ele>
        <time>2016-07-25T12:36:13Z</time>
      </trkpt>
      <trkpt lat="41.196717" lon="-3.621333">
        <ele>1856.0</ele>
        <time>2016-07-25T12:36:15Z</time>
      </trkpt>
      <trkpt lat="41.196783" lon="-3.621067">
        <ele>1861.0</ele>
        <time>2016-07-25T12:36:17Z</time>
      </trkpt>
      <trkpt lat="41.196817" lon="-3.620817">
        <ele>1866.0</ele>
        <time>2016-07-25T12:36:19Z</time>
      </trkpt>
      <trkpt lat="41.196817" lon="-3.620550">
        <ele>1869.0</ele>
        <time>2016-07-25T12:36:21Z</time>
      </trkpt>
      <trkpt lat="41.196717" lon="-3.620267">
        <ele>1871.0</ele>
        <time>2016-07-25T12:36:23Z</time>
      </trkpt>
      <trkpt lat="41.196533" lon="-3.620017">
        <ele>1875.0</ele>
        <time>2016-07-25T12:36:25Z</time>
      </trkpt>
      <trkpt lat="41.196333" lon="-3.619867">
        <ele>1879.0</ele>
        <time>2016-07-25T12:36:27Z</time>
      </trkpt>
      <trkpt lat="41.196100" lon="-3.619783">
        <ele>1878.0</ele>
        <time>2016-07-25T12:36:29Z</time>
      </trkpt>
      <trkpt lat="41.195867" lon="-3.619783">
        <ele>1879.0</ele>
        <time>2016-07-25T12:36:31Z</time>
      </trkpt>
      <trkpt lat="41.195733" lon="-3.619900">
        <ele>1879.0</ele>
        <time>2016-07-25T12:36:33Z</time>
      </trkpt>
      <trkpt lat="41.195750" lon="-3.620050">
        <ele>1880.0</ele>
        <time>2016-07-25T12:36:35Z</time>
      </trkpt>
      <trkpt lat="41.195800" lon="-3.620100">
        <ele>1882.0</ele>
        <time>2016-07-25T12:36:37Z</time>
      </trkpt>
      <trkpt lat="41.195900" lon="-3.620033">
        <ele>1883.0</ele>
        <time>2016-07-25T12:36:39Z</time>
      </trkpt>
      <trkpt lat="41.195967" lon="-3.619833">
        <ele>1885.0</ele>
        <time>2016-07-25T12:36:41Z</time>
      </trkpt>
      <trkpt lat="41.196000" lon="-3.619583">
        <ele>1887.0</ele>
        <time>2016-07-25T12:36:43Z</time>
      </trkpt>
      <trkpt lat="41.196000" lon="-3.619333">
        <ele>1889.0</ele>
        <time>2016-07-25T12:36:45Z</time>
      </trkpt>
      <trkpt lat="41.195950" lon="-3.619067">
        <ele>1887.0</ele>
        <time>2016-07-25T12:36:47Z</time>
      </trkpt>
      <trkpt lat="41.195833" lon="-3.618783">
        <ele>1884.0</ele>
        <time>2016-07-25T12:36:49Z</time>
      </trkpt>
      <trkpt lat="41.195683" lon="-3.618500">
        <ele>1882.0</ele>
        <time>2016-07-25T12:36:51Z</time>
      </trkpt>
      <trkpt lat="41.195533" lon="-3.618250">
        <ele>1882.0</ele>
        <time>2016-07-25T12:36:53Z</time>
      </trkpt>
      <trkpt lat="41.195350" lon="-3.618050">
        <ele>1878.0</ele>
        <time>2016-07-25T12:36:55Z</time>
      </trkpt>
      <trkpt lat="41.195133" lon="-3.617883">
        <ele>1874.0</ele>
        <time>2016-07-25T12:36:57Z</time>
      </trkpt>
      <trkpt lat="41.194900" lon="-3.617783">
        <ele>1870.0</ele>
        <time>2016-07-25T12:36:59Z</time>
      </trkpt>
      <trkpt lat="41.194667" lon="-3.617767">
        <ele>1867.0</ele>
        <time>2016-07-25T12:37:01Z</time>
      </trkpt>
      <trkpt lat="41.194500" lon="-3.617800">
        <ele>1862.0</ele>
        <time>2016-07-25T12:37:03Z</time>
      </trkpt>
      <trkpt lat="41.194333" lon="-3.617917">
        <ele>1856.0</ele>
        <time>2016-07-25T12:37:05Z</time>
      </trkpt>
      <trkpt lat="41.194267" lon="-3.618083">
        <ele>1852.0</ele>
        <time>2016-07-25T12:37:07Z</time>
      </trkpt>
      <trkpt lat="41.194333" lon="-3.618217">
        <ele>1849.0</ele>
        <time>2016-07-25T12:37:09Z</time>
      </trkpt>
      <trkpt lat="41.194433" lon="-3.618233">
        <ele>1848.0</ele>
        <time>2016-07-25T12:37:11Z</time>
      </trkpt>
      <trkpt lat="41.194533" lon="-3.618200">
        <ele>1844.0</ele>
        <time>2016-07-25T12:37:13Z</time>
      </trkpt>
      <trkpt lat="41.194650" lon="-3.618133">
        <ele>1839.0</ele>
        <time>2016-07-25T12:37:15Z</time>
      </trkpt>
      <trkpt lat="41.194783" lon="-3.617983">
        <ele>1836.0</ele>
        <time>2016-07-25T12:37:17Z</time>
      </trkpt>
      <trkpt lat="41.194900" lon="-3.617850">
        <ele>1833.0</ele>
        <time>2016-07-25T12:37:19Z</time>
      </trkpt>
      <trkpt lat="41.195033" lon="-3.617717">
        <ele>1829.0</ele>
        <time>2016-07-25T12:37:21Z</time>
      </trkpt>
      <trkpt lat="41.195150" lon="-3.617567">
        <ele>1824.0</ele>
        <time>2016-07-25T12:37:23Z</time>
      </trkpt>
      <trkpt lat="41.195283" lon="-3.617367">
        <ele>1818.0</ele>
        <time>2016-07-25T12:37:25Z</time>
      </trkpt>
      <trkpt lat="41.195467" lon="-3.617200">
        <ele>1816.0</ele>
        <time>2016-07-25T12:37:27Z</time>
      </trkpt>
      <trkpt lat="41.195617" lon="-3.617050">
        <ele>1818.0</ele>
        <time>2016-07-25T12:37:29Z</time>
      </trkpt>
      <trkpt lat="41.195767" lon="-3.616917">
        <ele>1818.0</ele>
        <time>2016-07-25T12:37:31Z</time>
      </trkpt>
      <trkpt lat="41.195950" lon="-3.616767">
        <ele>1817.0</ele>
        <time>2016-07-25T12:37:33Z</time>
      </trkpt>
      <trkpt lat="41.196100" lon="-3.616633">
        <ele>1819.0</ele>
        <time>2016-07-25T12:37:35Z</time>
      </trkpt>
      <trkpt lat="41.196267" lon="-3.616467">
        <ele>1819.0</ele>
        <time>2016-07-25T12:37:37Z</time>
      </trkpt>
      <trkpt lat="41.196417" lon="-3.616283">
        <ele>1821.0</ele>
        <time>2016-07-25T12:37:39Z</time>
      </trkpt>
      <trkpt lat="41.196567" lon="-3.616183">
        <ele>1822.0</ele>
        <time>2016-07-25T12:37:41Z</time>
      </trkpt>
      <trkpt lat="41.196750" lon="-3.616117">
        <ele>1822.0</ele>
        <time>2016-07-25T12:37:43Z</time>
      </trkpt>
      <trkpt lat="41.196917" lon="-3.616100">
        <ele>1825.0</ele>
        <time>2016-07-25T12:37:45Z</time>
      </trkpt>
      <trkpt lat="41.197067" lon="-3.616117">
        <ele>1827.0</ele>
        <time>2016-07-25T12:37:47Z</time>
      </trkpt>
      <trkpt lat="41.197183" lon="-3.616233">
        <ele>1829.0</ele>
        <time>2016-07-25T12:37:49Z</time>
      </trkpt>
      <trkpt lat="41.197233" lon="-3.616467">
        <ele>1833.0</ele>
        <time>2016-07-25T12:37:51Z</time>
      </trkpt>
      <trkpt lat="41.197217" lon="-3.616633">
        <ele>1841.0</ele>
        <time>2016-07-25T12:37:53Z</time>
      </trkpt>
      <trkpt lat="41.197150" lon="-3.616800">
        <ele>1846.0</ele>
        <time>2016-07-25T12:37:55Z</time>
      </trkpt>
      <trkpt lat="41.197000" lon="-3.616933">
        <ele>1850.0</ele>
        <time>2016-07-25T12:37:57Z</time>
      </trkpt>
      <trkpt lat="41.196800" lon="-3.616917">
        <ele>1852.0</ele>
        <time>2016-07-25T12:37:59Z</time>
      </trkpt>
      <trkpt lat="41.196633" lon="-3.616767">
        <ele>1855.0</ele>
        <time>2016-07-25T12:38:01Z</time>
      </trkpt>
      <trkpt lat="41.196517" lon="-3.616583">
        <ele>1857.0</ele>
        <time>2016-07-25T12:38:03Z</time>
      </trkpt>
      <trkpt lat="41.196450" lon="-3.616333">
        <ele>1857.0</ele>
        <time>2016-07-25T12:38:05Z</time>
      </trkpt>
      <trkpt lat="41.196483" lon="-3.616033">
        <ele>1859.0</ele>
        <time>2016-07-25T12:38:07Z</time>
      </trkpt>
      <trkpt lat="41.196583" lon="-3.615817">
        <ele>1862.0</ele>
        <time>2016-07-25T12:38:09Z</time>
      </trkpt>
      <trkpt lat="41.196717" lon="-3.615650">
        <ele>1863.0</ele>
        <time>2016-07-25T12:38:11Z</time>
      </trkpt>
      <trkpt lat="41.196883" lon="-3.615517">
        <ele>1864.0</ele>
        <time>2016-07-25T12:38:13Z</time>
      </trkpt>
      <trkpt lat="41.197067" lon="-3.615450">
        <ele>1867.0</ele>
        <time>2016-07-25T12:38:15Z</time>
      </trkpt>
      <trkpt lat="41.197217" lon="-3.615417">
        <ele>1870.0</ele>
        <time>2016-07-25T12:38:17Z</time>
      </trkpt>
      <trkpt lat="41.197383" lon="-3.615400">
        <ele>1872.0</ele>
        <time>2016-07-25T12:38:19Z</time>
      </trkpt>
      <trkpt lat="41.197533" lon="-3.615483">
        <ele>1874.0</ele>
        <time>2016-07-25T12:38:21Z</time>
      </trkpt>
      <trkpt lat="41.197633" lon="-3.615650">
        <ele>1876.0</ele>
        <time>2016-07-25T12:38:23Z</time>
      </trkpt>
      <trkpt lat="41.197650" lon="-3.615867">
        <ele>1877.0</ele>
        <time>2016-07-25T12:38:25Z</time>
      </trkpt>
      <trkpt lat="41.197600" lon="-3.616100">
        <ele>1879.0</ele>
        <time>2016-07-25T12:38:27Z</time>
      </trkpt>
      <trkpt lat="41.197467" lon="-3.616267">
        <ele>1883.0</ele>
        <time>2016-07-25T12:38:29Z</time>
      </trkpt>
      <trkpt lat="41.197317" lon="-3.616383">
        <ele>1888.0</ele>
        <time>2016-07-25T12:38:31Z</time>
      </trkpt>
      <trkpt lat="41.197150" lon="-3.616417">
        <ele>1891.0</ele>
        <time>2016-07-25T12:38:33Z</time>
      </trkpt>
      <trkpt lat="41.196967" lon="-3.616350">
        <ele>1893.0</ele>
        <time>2016-07-25T12:38:35Z</time>
      </trkpt>
      <trkpt lat="41.196783" lon="-3.616217">
        <ele>1897.0</ele>
        <time>2016-07-25T12:38:37Z</time>
      </trkpt>
      <trkpt lat="41.196667" lon="-3.616017">
        <ele>1900.0</ele>
        <time>2016-07-25T12:38:39Z</time>
      </trkpt>
      <trkpt lat="41.196600" lon="-3.615800">
        <ele>1903.0</ele>
        <time>2016-07-25T12:38:41Z</time>
      </trkpt>
      <trkpt lat="41.196567" lon="-3.615550">
        <ele>1905.0</ele>
        <time>2016-07-25T12:38:43Z</time>
      </trkpt>
      <trkpt lat="41.196600" lon="-3.615317">
        <ele>1907.0</ele>
        <time>2016-07-25T12:38:45Z</time>
      </trkpt>
      <trkpt lat="41.196667" lon="-3.615117">
        <ele>1910.0</ele>
        <time>2016-07-25T12:38:47Z</time>
      </trkpt>
      <trkpt lat="41.196783" lon="-3.614917">
        <ele>1910.0</ele>
        <time>2016-07-25T12:38:49Z</time>
      </trkpt>
      <trkpt lat="41.196933" lon="-3.614783">
        <ele>1912.0</ele>
        <time>2016-07-25T12:38:51Z</time>
      </trkpt>
      <trkpt lat="41.197083" lon="-3.614750">
        <ele>1912.0</ele>
        <time>2016-07-25T12:38:53Z</time>
      </trkpt>
      <trkpt lat="41.197250" lon="-3.614767">
        <ele>1911.0</ele>
        <time>2016-07-25T12:38:55Z</time>
      </trkpt>
      <trkpt lat="41.197400" lon="-3.614883">
        <ele>1913.0</ele>
        <time>2016-07-25T12:38:57Z</time>
      </trkpt>
      <trkpt lat="41.197517" lon="-3.615000">
        <ele>1915.0</ele>
        <time>2016-07-25T12:38:59Z</time>
      </trkpt>
      <trkpt lat="41.197633" lon="-3.615183">
        <ele>1915.0</ele>
        <time>2016-07-25T12:39:01Z</time>
      </trkpt>
      <trkpt lat="41.197667" lon="-3.615450">
        <ele>1917.0</ele>
        <time>2016-07-25T12:39:03Z</time>
      </trkpt>
      <trkpt lat="41.197683" lon="-3.615700">
        <ele>1919.0</ele>
        <time>2016-07-25T12:39:05Z</time>
      </trkpt>
      <trkpt lat="41.197683" lon="-3.615933">
        <ele>1921.0</ele>
        <time>2016-07-25T12:39:07Z</time>
      </trkpt>
      <trkpt lat="41.197633" lon="-3.616183">
        <ele>1922.0</ele>
        <time>2016-07-25T12:39:09Z</time>
      </trkpt>
      <trkpt lat="41.197550" lon="-3.616400">
        <ele>1923.0</ele>
        <time>2016-07-25T12:39:11Z</time>
      </trkpt>
      <trkpt lat="41.197400" lon="-3.616550">
        <ele>1922.0</ele>
        <time>2016-07-25T12:39:13Z</time>
      </trkpt>
      <trkpt lat="41.197233" lon="-3.616650">
        <ele>1921.0</ele>
        <time>2016-07-25T12:39:15Z</time>
      </trkpt>
      <trkpt lat="41.197017" lon="-3.616650">
        <ele>1921.0</ele>
        <time>2016-07-25T12:39:17Z</time>
      </trkpt>
      <trkpt lat="41.196833" lon="-3.616550">
        <ele>1922.0</ele>
        <time>2016-07-25T12:39:19Z</time>
      </trkpt>
      <trkpt lat="41.196700" lon="-3.616400">
        <ele>1925.0</ele>
        <time>2016-07-25T12:39:21Z</time>
      </trkpt>
      <trkpt lat="41.196600" lon="-3.616200">
        <ele>1926.0</ele>
        <time>2016-07-25T12:39:23Z</time>
      </trkpt>
      <trkpt lat="41.196550" lon="-3.615983">
        <ele>1928.0</ele>
        <time>2016-07-25T12:39:25Z</time>
      </trkpt>
      <trkpt lat="41.196550" lon="-3.615783">
        <ele>1932.0</ele>
        <time>2016-07-25T12:39:27Z</time>
      </trkpt>
      <trkpt lat="41.196550" lon="-3.615600">
        <ele>1935.0</ele>
        <time>2016-07-25T12:39:29Z</time>
      </trkpt>
      <trkpt lat="41.196600" lon="-3.615433">
        <ele>1937.0</ele>
        <time>2016-07-25T12:39:31Z</time>
      </trkpt>
      <trkpt lat="41.196717" lon="-3.615317">
        <ele>1937.0</ele>
        <time>2016-07-25T12:39:33Z</time>
      </trkpt>
      <trkpt lat="41.196867" lon="-3.615300">
        <ele>1939.0</ele>
        <time>2016-07-25T12:39:35Z</time>
      </trkpt>
      <trkpt lat="41.197017" lon="-3.615333">
        <ele>1941.0</ele>
        <time>2016-07-25T12:39:37Z</time>
      </trkpt>
      <trkpt lat="41.197150" lon="-3.615433">
        <ele>1943.0</ele>
        <time>2016-07-25T12:39:39Z</time>
      </trkpt>
      <trkpt lat="41.197233" lon="-3.615633">
        <ele>1946.0</ele>
        <time>2016-07-25T12:39:41Z</time>
      </trkpt>
      <trkpt lat="41.197233" lon="-3.615850">
        <ele>1949.0</ele>
        <time>2016-07-25T12:39:43Z</time>
      </trkpt>
      <trkpt lat="41.197183" lon="-3.616050">
        <ele>1950.0</ele>
        <time>2016-07-25T12:39:45Z</time>
      </trkpt>
      <trkpt lat="41.197050" lon="-3.616233">
        <ele>1950.0</ele>
        <time>2016-07-25T12:39:47Z</time>
      </trkpt>
      <trkpt lat="41.196883" lon="-3.616333">
        <ele>1951.0</ele>
        <time>2016-07-25T12:39:49Z</time>
      </trkpt>
      <trkpt lat="41.196700" lon="-3.616333">
        <ele>1950.0</ele>
        <time>2016-07-25T12:39:51Z</time>
      </trkpt>
      <trkpt lat="41.196500" lon="-3.616233">
        <ele>1949.0</ele>
        <time>2016-07-25T12:39:53Z</time>
      </trkpt>
      <trkpt lat="41.196333" lon="-3.616017">
        <ele>1949.0</ele>
        <time>2016-07-25T12:39:55Z</time>
      </trkpt>
      <trkpt lat="41.196250" lon="-3.615783">
        <ele>1953.0</ele>
        <time>2016-07-25T12:39:57Z</time>
      </trkpt>
      <trkpt lat="41.196217" lon="-3.615583">
        <ele>1956.0</ele>
        <time>2016-07-25T12:39:59Z</time>
      </trkpt>
      <trkpt lat="41.196217" lon="-3.615367">
        <ele>1957.0</ele>
        <time>2016-07-25T12:40:01Z</time>
      </trkpt>
      <trkpt lat="41.196250" lon="-3.615150">
        <ele>1959.0</ele>
        <time>2016-07-25T12:40:03Z</time>
      </trkpt>
      <trkpt lat="41.196300" lon="-3.614967">
        <ele>1963.0</ele>
        <time>2016-07-25T12:40:05Z</time>
      </trkpt>
      <trkpt lat="41.196350" lon="-3.614783">
        <ele>1965.0</ele>
        <time>2016-07-25T12:40:07Z</time>
      </trkpt>
      <trkpt lat="41.196417" lon="-3.614617">
        <ele>1966.0</ele>
        <time>2016-07-25T12:40:09Z</time>
      </trkpt>
      <trkpt lat="41.196550" lon="-3.614500">
        <ele>1970.0</ele>
        <time>2016-07-25T12:40:11Z</time>
      </trkpt>
      <trkpt lat="41.196683" lon="-3.614467">
        <ele>1973.0</ele>
        <time>2016-07-25T12:40:13Z</time>
      </trkpt>
      <trkpt lat="41.196817" lon="-3.614533">
        <ele>1974.0</ele>
        <time>2016-07-25T12:40:15Z</time>
      </trkpt>
      <trkpt lat="41.196917" lon="-3.614700">
        <ele>1975.0</ele>
        <time>2016-07-25T12:40:17Z</time>
      </trkpt>
      <trkpt lat="41.196917" lon="-3.614900">
        <ele>1977.0</ele>
        <time>2016-07-25T12:40:19Z</time>
      </trkpt>
      <trkpt lat="41.196850" lon="-3.615117">
        <ele>1979.0</ele>
        <time>2016-07-25T12:40:21Z</time>
      </trkpt>
      <trkpt lat="41.196717" lon="-3.615283">
        <ele>1980.0</ele>
        <time>2016-07-25T12:40:23Z</time>
      </trkpt>
      <trkpt lat="41.196533" lon="-3.615367">
        <ele>1980.0</ele>
        <time>2016-07-25T12:40:25Z</time>
      </trkpt>
      <trkpt lat="41.196317" lon="-3.615367">
        <ele>1980.0</ele>
        <time>2016-07-25T12:40:27Z</time>
      </trkpt>
      <trkpt lat="41.196117" lon="-3.615267">
        <ele>1981.0</ele>
        <time>2016-07-25T12:40:29Z</time>
      </trkpt>
      <trkpt lat="41.195933" lon="-3.615067">
        <ele>1982.0</ele>
        <time>2016-07-25T12:40:31Z</time>
      </trkpt>
      <trkpt lat="41.195833" lon="-3.614850">
        <ele>1985.0</ele>
        <time>2016-07-25T12:40:33Z</time>
      </trkpt>
      <trkpt lat="41.195783" lon="-3.614617">
        <ele>1986.0</ele>
        <time>2016-07-25T12:40:35Z</time>
      </trkpt>
      <trkpt lat="41.195750" lon="-3.614367">
        <ele>1987.0</ele>
        <time>2016-07-25T12:40:37Z</time>
      </trkpt>
      <trkpt lat="41.195733" lon="-3.614133">
        <ele>1990.0</ele>
        <time>2016-07-25T12:40:39Z</time>
      </trkpt>
      <trkpt lat="41.195733" lon="-3.613950">
        <ele>1993.0</ele>
        <time>2016-07-25T12:40:41Z</time>
      </trkpt>
      <trkpt lat="41.195783" lon="-3.613750">
        <ele>1993.0</ele>
        <time>2016-07-25T12:40:43Z</time>
      </trkpt>
      <trkpt lat="41.195900" lon="-3.613550">
        <ele>1995.0</ele>
        <time>2016-07-25T12:40:45Z</time>
      </trkpt>
      <trkpt lat="41.196000" lon="-3.613417">
        <ele>1998.0</ele>
        <time>2016-07-25T12:40:47Z</time>
      </trkpt>
      <trkpt lat="41.196117" lon="-3.613317">
        <ele>2002.0</ele>
        <time>2016-07-25T12:40:49Z</time>
      </trkpt>
      <trkpt lat="41.196250" lon="-3.613233">
        <ele>2003.0</ele>
        <time>2016-07-25T12:40:51Z</time>
      </trkpt>
      <trkpt lat="41.196417" lon="-3.613183">
        <ele>2008.0</ele>
        <time>2016-07-25T12:40:53Z</time>
      </trkpt>
      <trkpt lat="41.196533" lon="-3.613200">
        <ele>2014.0</ele>
        <time>2016-07-25T12:40:55Z</time>
      </trkpt>
      <trkpt lat="41.196683" lon="-3.613283">
        <ele>2018.0</ele>
        <time>2016-07-25T12:40:57Z</time>
      </trkpt>
      <trkpt lat="41.196783" lon="-3.613433">
        <ele>2021.0</ele>
        <time>2016-07-25T12:40:59Z</time>
      </trkpt>
      <trkpt lat="41.196817" lon="-3.613617">
        <ele>2022.0</ele>
        <time>2016-07-25T12:41:01Z</time>
      </trkpt>
      <trkpt lat="41.196767" lon="-3.613817">
        <ele>2023.0</ele>
        <time>2016-07-25T12:41:03Z</time>
      </trkpt>
      <trkpt lat="41.196633" lon="-3.613967">
        <ele>2022.0</ele>
        <time>2016-07-25T12:41:05Z</time>
      </trkpt>
      <trkpt lat="41.196450" lon="-3.614017">
        <ele>2020.0</ele>
        <time>2016-07-25T12:41:07Z</time>
      </trkpt>
      <trkpt lat="41.196267" lon="-3.613900">
        <ele>2019.0</ele>
        <time>2016-07-25T12:41:09Z</time>
      </trkpt>
      <trkpt lat="41.196150" lon="-3.613667">
        <ele>2021.0</ele>
        <time>2016-07-25T12:41:11Z</time>
      </trkpt>
      <trkpt lat="41.196083" lon="-3.613450">
        <ele>2025.0</ele>
        <time>2016-07-25T12:41:13Z</time>
      </trkpt>
      <trkpt lat="41.196050" lon="-3.613217">
        <ele>2026.0</ele>
        <time>2016-07-25T12:41:15Z</time>
      </trkpt>
      <trkpt lat="41.196050" lon="-3.612967">
        <ele>2031.0</ele>
        <time>2016-07-25T12:41:17Z</time>
      </trkpt>
      <trkpt lat="41.196083" lon="-3.612767">
        <ele>2040.0</ele>
        <time>2016-07-25T12:41:19Z</time>
      </trkpt>
      <trkpt lat="41.196083" lon="-3.612600">
        <ele>2047.0</ele>
        <time>2016-07-25T12:41:21Z</time>
      </trkpt>
      <trkpt lat="41.196167" lon="-3.612417">
        <ele>2049.0</ele>
        <time>2016-07-25T12:41:23Z</time>
      </trkpt>
      <trkpt lat="41.196367" lon="-3.612400">
        <ele>2052.0</ele>
        <time>2016-07-25T12:41:25Z</time>
      </trkpt>
      <trkpt lat="41.196483" lon="-3.612533">
        <ele>2060.0</ele>
        <time>2016-07-25T12:41:27Z</time>
      </trkpt>
      <trkpt lat="41.196517" lon="-3.612700">
        <ele>2066.0</ele>
        <time>2016-07-25T12:41:29Z</time>
      </trkpt>
      <trkpt lat="41.196467" lon="-3.612867">
        <ele>2067.0</ele>
        <time>2016-07-25T12:41:31Z</time>
      </trkpt>
      <trkpt lat="41.196367" lon="-3.613050">
        <ele>2067.0</ele>
        <time>2016-07-25T12:41:33Z</time>
      </trkpt>
      <trkpt lat="41.196200" lon="-3.613133">
        <ele>2067.0</ele>
        <time>2016-07-25T12:41:35Z</time>
      </trkpt>
      <trkpt lat="41.196017" lon="-3.613083">
        <ele>2068.0</ele>
        <time>2016-07-25T12:41:37Z</time>
      </trkpt>
      <trkpt lat="41.195833" lon="-3.612967">
        <ele>2071.0</ele>
        <time>2016-07-25T12:41:39Z</time>
      </trkpt>
      <trkpt lat="41.195700" lon="-3.612783">
        <ele>2076.0</ele>
        <time>2016-07-25T12:41:41Z</time>
      </trkpt>
      <trkpt lat="41.195583" lon="-3.612617">
        <ele>2081.0</ele>
        <time>2016-07-25T12:41:43Z</time>
      </trkpt>
      <trkpt lat="41.195483" lon="-3.612450">
        <ele>2083.0</ele>
        <time>2016-07-25T12:41:45Z</time>
      </trkpt>
      <trkpt lat="41.195417" lon="-3.612217">
        <ele>2084.0</ele>
        <time>2016-07-25T12:41:47Z</time>
      </trkpt>
      <trkpt lat="41.195350" lon="-3.612017">
        <ele>2090.0</ele>
        <time>2016-07-25T12:41:49Z</time>
      </trkpt>
      <trkpt lat="41.195283" lon="-3.611817">
        <ele>2094.0</ele>
        <time>2016-07-25T12:41:51Z</time>
      </trkpt>
      <trkpt lat="41.195250" lon="-3.611583">
        <ele>2097.0</ele>
        <time>2016-07-25T12:41:53Z</time>
      </trkpt>
      <trkpt lat="41.195283" lon="-3.611350">
        <ele>2101.0</ele>
        <time>2016-07-25T12:41:55Z</time>
      </trkpt>
      <trkpt lat="41.195350" lon="-3.611133">
        <ele>2106.0</ele>
        <time>2016-07-25T12:41:57Z</time>
      </trkpt>
      <trkpt lat="41.195467" lon="-3.610983">
        <ele>2112.0</ele>
        <time>2016-07-25T12:41:59Z</time>
      </trkpt>
      <trkpt lat="41.195633" lon="-3.610900">
        <ele>2118.0</ele>
        <time>2016-07-25T12:42:01Z</time>
      </trkpt>
      <trkpt lat="41.195783" lon="-3.610917">
        <ele>2124.0</ele>
        <time>2016-07-25T12:42:03Z</time>
      </trkpt>
      <trkpt lat="41.195917" lon="-3.610983">
        <ele>2130.0</ele>
        <time>2016-07-25T12:42:05Z</time>
      </trkpt>
      <trkpt lat="41.196017" lon="-3.611133">
        <ele>2135.0</ele>
        <time>2016-07-25T12:42:07Z</time>
      </trkpt>
      <trkpt lat="41.196100" lon="-3.611300">
        <ele>2141.0</ele>
        <time>2016-07-25T12:42:09Z</time>
      </trkpt>
      <trkpt lat="41.196133" lon="-3.611500">
        <ele>2144.0</ele>
        <time>2016-07-25T12:42:11Z</time>
      </trkpt>
      <trkpt lat="41.196067" lon="-3.611717">
        <ele>2145.0</ele>
        <time>2016-07-25T12:42:13Z</time>
      </trkpt>
      <trkpt lat="41.195917" lon="-3.611833">
        <ele>2147.0</ele>
        <time>2016-07-25T12:42:15Z</time>
      </trkpt>
      <trkpt lat="41.195733" lon="-3.611867">
        <ele>2149.0</ele>
        <time>2016-07-25T12:42:17Z</time>
      </trkpt>
      <trkpt lat="41.195567" lon="-3.611833">
        <ele>2152.0</ele>
        <time>2016-07-25T12:42:19Z</time>
      </trkpt>
      <trkpt lat="41.195400" lon="-3.611683">
        <ele>2154.0</ele>
        <time>2016-07-25T12:42:21Z</time>
      </trkpt>
      <trkpt lat="41.195283" lon="-3.611467">
        <ele>2158.0</ele>
        <time>2016-07-25T12:42:23Z</time>
      </trkpt>
      <trkpt lat="41.195250" lon="-3.611250">
        <ele>2163.0</ele>
        <time>2016-07-25T12:42:25Z</time>
      </trkpt>
      <trkpt lat="41.195217" lon="-3.611033">
        <ele>2167.0</ele>
        <time>2016-07-25T12:42:27Z</time>
      </trkpt>
      <trkpt lat="41.195250" lon="-3.610833">
        <ele>2169.0</ele>
        <time>2016-07-25T12:42:29Z</time>
      </trkpt>
      <trkpt lat="41.195350" lon="-3.610667">
        <ele>2172.0</ele>
        <time>2016-07-25T12:42:31Z</time>
      </trkpt>
      <trkpt lat="41.195450" lon="-3.610567">
        <ele>2178.0</ele>
        <time>2016-07-25T12:42:33Z</time>
      </trkpt>
      <trkpt lat="41.195567" lon="-3.610533">
        <ele>2184.0</ele>
        <time>2016-07-25T12:42:35Z</time>
      </trkpt>
      <trkpt lat="41.195700" lon="-3.610517">
        <ele>2188.0</ele>
        <time>2016-07-25T12:42:37Z</time>
      </trkpt>
      <trkpt lat="41.195817" lon="-3.610567">
        <ele>2191.0</ele>
        <time>2016-07-25T12:42:39Z</time>
      </trkpt>
      <trkpt lat="41.195917" lon="-3.610717">
        <ele>2194.0</ele>
        <time>2016-07-25T12:42:41Z</time>
      </trkpt>
      <trkpt lat="41.195933" lon="-3.610900">
        <ele>2198.0</ele>
        <time>2016-07-25T12:42:43Z</time>
      </trkpt>
      <trkpt lat="41.195883" lon="-3.611067">
        <ele>2201.0</ele>
        <time>2016-07-25T12:42:45Z</time>
      </trkpt>
      <trkpt lat="41.195800" lon="-3.611200">
        <ele>2201.0</ele>
        <time>2016-07-25T12:42:47Z</time>
      </trkpt>
      <trkpt lat="41.195650" lon="-3.611300">
        <ele>2200.0</ele>
        <time>2016-07-25T12:42:49Z</time>
      </trkpt>
      <trkpt lat="41.195450" lon="-3.611283">
        <ele>2200.0</ele>
        <time>2016-07-25T12:42:51Z</time>
      </trkpt>
      <trkpt lat="41.195267" lon="-3.611133">
        <ele>2201.0</ele>
        <time>2016-07-25T12:42:53Z</time>
      </trkpt>
      <trkpt lat="41.195150" lon="-3.610933">
        <ele>2205.0</ele>
        <time>2016-07-25T12:42:55Z</time>
      </trkpt>
      <trkpt lat="41.195050" lon="-3.610717">
        <ele>2207.0</ele>
        <time>2016-07-25T12:42:57Z</time>
      </trkpt>
      <trkpt lat="41.194983" lon="-3.610483">
        <ele>2210.0</ele>
        <time>2016-07-25T12:42:59Z</time>
      </trkpt>
      <trkpt lat="41.194933" lon="-3.610217">
        <ele>2214.0</ele>
        <time>2016-07-25T12:43:01Z</time>
      </trkpt>
      <trkpt lat="41.194917" lon="-3.609950">
        <ele>2219.0</ele>
        <time>2016-07-25T12:43:03Z</time>
      </trkpt>
      <trkpt lat="41.194917" lon="-3.609717">
        <ele>2226.0</ele>
        <time>2016-07-25T12:43:05Z</time>
      </trkpt>
      <trkpt lat="41.194917" lon="-3.609517">
        <ele>2232.0</ele>
        <time>2016-07-25T12:43:07Z</time>
      </trkpt>
      <trkpt lat="41.194983" lon="-3.609333">
        <ele>2235.0</ele>
        <time>2016-07-25T12:43:09Z</time>
      </trkpt>
      <trkpt lat="41.195117" lon="-3.609200">
        <ele>2239.0</ele>
        <time>2016-07-25T12:43:11Z</time>
      </trkpt>
      <trkpt lat="41.195250" lon="-3.609150">
        <ele>2246.0</ele>
        <time>2016-07-25T12:43:13Z</time>
      </trkpt>
      <trkpt lat="41.195350" lon="-3.609167">
        <ele>2252.0</ele>
        <time>2016-07-25T12:43:15Z</time>
      </trkpt>
      <trkpt lat="41.195467" lon="-3.609250">
        <ele>2255.0</ele>
        <time>2016-07-25T12:43:17Z</time>
      </trkpt>
      <trkpt lat="41.195533" lon="-3.609417">
        <ele>2257.0</ele>
        <time>2016-07-25T12:43:19Z</time>
      </trkpt>
      <trkpt lat="41.195517" lon="-3.609600">
        <ele>2260.0</ele>
        <time>2016-07-25T12:43:21Z</time>
      </trkpt>
      <trkpt lat="41.195417" lon="-3.609750">
        <ele>2263.0</ele>
        <time>2016-07-25T12:43:23Z</time>
      </trkpt>
      <trkpt lat="41.195250" lon="-3.609867">
        <ele>2265.0</ele>
        <time>2016-07-25T12:43:25Z</time>
      </trkpt>
      <trkpt lat="41.195033" lon="-3.609900">
        <ele>2268.0</ele>
        <time>2016-07-25T12:43:27Z</time>
      </trkpt>
      <trkpt lat="41.194833" lon="-3.609833">
        <ele>2270.0</ele>
        <time>2016-07-25T12:43:29Z</time>
      </trkpt>
      <trkpt lat="41.194600" lon="-3.609717">
        <ele>2273.0</ele>
        <time>2016-07-25T12:43:31Z</time>
      </trkpt>
      <trkpt lat="41.194400" lon="-3.609533">
        <ele>2278.0</ele>
        <time>2016-07-25T12:43:33Z</time>
      </trkpt>
      <trkpt lat="41.194283" lon="-3.609300">
        <ele>2282.0</ele>
        <time>2016-07-25T12:43:35Z</time>
      </trkpt>
      <trkpt lat="41.194200" lon="-3.609050">
        <ele>2289.0</ele>
        <time>2016-07-25T12:43:37Z</time>
      </trkpt>
      <trkpt lat="41.194150" lon="-3.608817">
        <ele>2296.0</ele>
        <time>2016-07-25T12:43:39Z</time>
      </trkpt>
      <trkpt lat="41.194167" lon="-3.608583">
        <ele>2303.0</ele>
        <time>2016-07-25T12:43:41Z</time>
      </trkpt>
      <trkpt lat="41.194250" lon="-3.608417">
        <ele>2308.0</ele>
        <time>2016-07-25T12:43:43Z</time>
      </trkpt>
      <trkpt lat="41.194383" lon="-3.608333">
        <ele>2313.0</ele>
        <time>2016-07-25T12:43:45Z</time>
      </trkpt>
      <trkpt lat="41.194517" lon="-3.608367">
        <ele>2320.0</ele>
        <time>2016-07-25T12:43:47Z</time>
      </trkpt>
      <trkpt lat="41.194617" lon="-3.608467">
        <ele>2325.0</ele>
        <time>2016-07-25T12:43:49Z</time>
      </trkpt>
      <trkpt lat="41.194700" lon="-3.608600">
        <ele>2330.0</ele>
        <time>2016-07-25T12:43:51Z</time>
      </trkpt>
      <trkpt lat="41.194717" lon="-3.608783">
        <ele>2333.0</ele>
        <time>2016-07-25T12:43:53Z</time>
      </trkpt>
      <trkpt lat="41.194667" lon="-3.608983">
        <ele>2335.0</ele>
        <time>2016-07-25T12:43:55Z</time>
      </trkpt>
      <trkpt lat="41.194550" lon="-3.609150">
        <ele>2337.0</ele>
        <time>2016-07-25T12:43:57Z</time>
      </trkpt>
      <trkpt lat="41.194367" lon="-3.609267">
        <ele>2341.0</ele>
        <time>2016-07-25T12:43:59Z</time>
      </trkpt>
      <trkpt lat="41.194183" lon="-3.609300">
        <ele>2343.0</ele>
        <time>2016-07-25T12:44:01Z</time>
      </trkpt>
      <trkpt lat="41.193950" lon="-3.609267">
        <ele>2344.0</ele>
        <time>2016-07-25T12:44:03Z</time>
      </trkpt>
      <trkpt lat="41.193750" lon="-3.609100">
        <ele>2349.0</ele>
        <time>2016-07-25T12:44:05Z</time>
      </trkpt>
      <trkpt lat="41.193600" lon="-3.608883">
        <ele>2353.0</ele>
        <time>2016-07-25T12:44:07Z</time>
      </trkpt>
      <trkpt lat="41.193517" lon="-3.608633">
        <ele>2357.0</ele>
        <time>2016-07-25T12:44:09Z</time>
      </trkpt>
      <trkpt lat="41.193483" lon="-3.608383">
        <ele>2361.0</ele>
        <time>2016-07-25T12:44:11Z</time>
      </trkpt>
      <trkpt lat="41.193533" lon="-3.608183">
        <ele>2367.0</ele>
        <time>2016-07-25T12:44:13Z</time>
      </trkpt>
      <trkpt lat="41.193617" lon="-3.608067">
        <ele>2372.0</ele>
        <time>2016-07-25T12:44:15Z</time>
      </trkpt>
      <trkpt lat="41.193733" lon="-3.608017">
        <ele>2375.0</ele>
        <time>2016-07-25T12:44:17Z</time>
      </trkpt>
      <trkpt lat="41.193900" lon="-3.608017">
        <ele>2379.0</ele>
        <time>2016-07-25T12:44:19Z</time>
      </trkpt>
      <trkpt lat="41.194000" lon="-3.608067">
        <ele>2386.0</ele>
        <time>2016-07-25T12:44:21Z</time>
      </trkpt>
      <trkpt lat="41.194083" lon="-3.608133">
        <ele>2388.0</ele>
        <time>2016-07-25T12:44:23Z</time>
      </trkpt>
      <trkpt lat="41.194150" lon="-3.608317">
        <ele>2387.0</ele>
        <time>2016-07-25T12:44:25Z</time>
      </trkpt>
      <trkpt lat="41.194133" lon="-3.608533">
        <ele>2390.0</ele>
        <time>2016-07-25T12:44:27Z</time>
      </trkpt>
      <trkpt lat="41.194067" lon="-3.608667">
        <ele>2396.0</ele>
        <time>2016-07-25T12:44:29Z</time>
      </trkpt>
      <trkpt lat="41.193967" lon="-3.608817">
        <ele>2397.0</ele>
        <time>2016-07-25T12:44:31Z</time>
      </trkpt>
      <trkpt lat="41.193833" lon="-3.608983">
        <ele>2398.0</ele>
        <time>2016-07-25T12:44:33Z</time>
      </trkpt>
      <trkpt lat="41.193650" lon="-3.609033">
        <ele>2399.0</ele>
        <time>2016-07-25T12:44:35Z</time>
      </trkpt>
      <trkpt lat="41.193433" lon="-3.608950">
        <ele>2399.0</ele>
        <time>2016-07-25T12:44:37Z</time>
      </trkpt>
      <trkpt lat="41.193250" lon="-3.608817">
        <ele>2402.0</ele>
        <time>2016-07-25T12:44:39Z</time>
      </trkpt>
      <trkpt lat="41.193117" lon="-3.608600">
        <ele>2403.0</ele>
        <time>2016-07-25T12:44:41Z</time>
      </trkpt>
      <trkpt lat="41.193017" lon="-3.608350">
        <ele>2406.0</ele>
        <time>2016-07-25T12:44:43Z</time>
      </trkpt>
      <trkpt lat="41.192950" lon="-3.608083">
        <ele>2407.0</ele>
        <time>2016-07-25T12:44:45Z</time>
      </trkpt>
      <trkpt lat="41.192933" lon="-3.607817">
        <ele>2408.0</ele>
        <time>2016-07-25T12:44:47Z</time>
      </trkpt>
      <trkpt lat="41.192950" lon="-3.607550">
        <ele>2412.0</ele>
        <time>2016-07-25T12:44:49Z</time>
      </trkpt>
      <trkpt lat="41.192983" lon="-3.607333">
        <ele>2414.0</ele>
        <time>2016-07-25T12:44:51Z</time>
      </trkpt>
      <trkpt lat="41.193083" lon="-3.607117">
        <ele>2414.0</ele>
        <time>2016-07-25T12:44:53Z</time>
      </trkpt>
      <trkpt lat="41.193233" lon="-3.606933">
        <ele>2417.0</ele>
        <time>2016-07-25T12:44:55Z</time>
      </trkpt>
      <trkpt lat="41.193317" lon="-3.606733">
        <ele>2421.0</ele>
        <time>2016-07-25T12:44:57Z</time>
      </trkpt>
      <trkpt lat="41.193450" lon="-3.606567">
        <ele>2424.0</ele>
        <time>2016-07-25T12:44:59Z</time>
      </trkpt>
      <trkpt lat="41.193550" lon="-3.606433">
        <ele>2430.0</ele>
        <time>2016-07-25T12:45:01Z</time>
      </trkpt>
      <trkpt lat="41.193683" lon="-3.606433">
        <ele>2431.0</ele>
        <time>2016-07-25T12:45:03Z</time>
      </trkpt>
      <trkpt lat="41.193817" lon="-3.606567">
        <ele>2434.0</ele>
        <time>2016-07-25T12:45:05Z</time>
      </trkpt>
      <trkpt lat="41.193833" lon="-3.606750">
        <ele>2440.0</ele>
        <time>2016-07-25T12:45:07Z</time>
      </trkpt>
      <trkpt lat="41.193750" lon="-3.606883">
        <ele>2443.0</ele>
        <time>2016-07-25T12:45:09Z</time>
      </trkpt>
      <trkpt lat="41.193600" lon="-3.607000">
        <ele>2444.0</ele>
        <time>2016-07-25T12:45:11Z</time>
      </trkpt>
      <trkpt lat="41.193400" lon="-3.607017">
        <ele>2444.0</ele>
        <time>2016-07-25T12:45:13Z</time>
      </trkpt>
      <trkpt lat="41.193183" lon="-3.606883">
        <ele>2445.0</ele>
        <time>2016-07-25T12:45:15Z</time>
      </trkpt>
      <trkpt lat="41.193033" lon="-3.606667">
        <ele>2447.0</ele>
        <time>2016-07-25T12:45:17Z</time>
      </trkpt>
      <trkpt lat="41.192967" lon="-3.606417">
        <ele>2451.0</ele>
        <time>2016-07-25T12:45:19Z</time>
      </trkpt>
      <trkpt lat="41.192967" lon="-3.606167">
        <ele>2452.0</ele>
        <time>2016-07-25T12:45:21Z</time>
      </trkpt>
      <trkpt lat="41.193033" lon="-3.605917">
        <ele>2454.0</ele>
        <time>2016-07-25T12:45:23Z</time>
      </trkpt>
      <trkpt lat="41.193133" lon="-3.605717">
        <ele>2458.0</ele>
        <time>2016-07-25T12:45:25Z</time>
      </trkpt>
      <trkpt lat="41.193267" lon="-3.605583">
        <ele>2462.0</ele>
        <time>2016-07-25T12:45:27Z</time>
      </trkpt>
      <trkpt lat="41.193383" lon="-3.605483">
        <ele>2465.0</ele>
        <time>2016-07-25T12:45:29Z</time>
      </trkpt>
      <trkpt lat="41.193517" lon="-3.605450">
        <ele>2466.0</ele>
        <time>2016-07-25T12:45:31Z</time>
      </trkpt>
      <trkpt lat="41.193633" lon="-3.605500">
        <ele>2466.0</ele>
        <time>2016-07-25T12:45:33Z</time>
      </trkpt>
      <trkpt lat="41.193700" lon="-3.605633">
        <ele>2467.0</ele>
        <time>2016-07-25T12:45:35Z</time>
      </trkpt>
      <trkpt lat="41.193700" lon="-3.605783">
        <ele>2469.0</ele>
        <time>2016-07-25T12:45:37Z</time>
      </trkpt>
      <trkpt lat="41.193650" lon="-3.605933">
        <ele>2468.0</ele>
        <time>2016-07-25T12:45:39Z</time>
      </trkpt>
      <trkpt lat="41.193533" lon="-3.606100">
        <ele>2468.0</ele>
        <time>2016-07-25T12:45:41Z</time>
      </trkpt>
      <trkpt lat="41.193350" lon="-3.606167">
        <ele>2468.0</ele>
        <time>2016-07-25T12:45:43Z</time>
      </trkpt>
      <trkpt lat="41.193150" lon="-3.606133">
        <ele>2471.0</ele>
        <time>2016-07-25T12:45:45Z</time>
      </trkpt>
      <trkpt lat="41.192967" lon="-3.606017">
        <ele>2471.0</ele>
        <time>2016-07-25T12:45:47Z</time>
      </trkpt>
      <trkpt lat="41.192833" lon="-3.605767">
        <ele>2472.0</ele>
        <time>2016-07-25T12:45:49Z</time>
      </trkpt>
      <trkpt lat="41.192767" lon="-3.605533">
        <ele>2477.0</ele>
        <time>2016-07-25T12:45:51Z</time>
      </trkpt>
      <trkpt lat="41.192733" lon="-3.605317">
        <ele>2478.0</ele>
        <time>2016-07-25T12:45:53Z</time>
      </trkpt>
      <trkpt lat="41.192733" lon="-3.605017">
        <ele>2478.0</ele>
        <time>2016-07-25T12:45:55Z</time>
      </trkpt>
      <trkpt lat="41.192783" lon="-3.604767">
        <ele>2482.0</ele>
        <time>2016-07-25T12:45:57Z</time>
      </trkpt>
      <trkpt lat="41.192800" lon="-3.604533">
        <ele>2484.0</ele>
        <time>2016-07-25T12:45:59Z</time>
      </trkpt>
      <trkpt lat="41.192867" lon="-3.604317">
        <ele>2483.0</ele>
        <time>2016-07-25T12:46:01Z</time>
      </trkpt>
      <trkpt lat="41.193000" lon="-3.604100">
        <ele>2484.0</ele>
        <time>2016-07-25T12:46:03Z</time>
      </trkpt>
      <trkpt lat="41.193100" lon="-3.603917">
        <ele>2485.0</ele>
        <time>2016-07-25T12:46:05Z</time>
      </trkpt>
      <trkpt lat="41.193217" lon="-3.603700">
        <ele>2483.0</ele>
        <time>2016-07-25T12:46:07Z</time>
      </trkpt>
      <trkpt lat="41.193350" lon="-3.603483">
        <ele>2482.0</ele>
        <time>2016-07-25T12:46:09Z</time>
      </trkpt>
      <trkpt lat="41.193467" lon="-3.603250">
        <ele>2482.0</ele>
        <time>2016-07-25T12:46:11Z</time>
      </trkpt>
      <trkpt lat="41.193583" lon="-3.603033">
        <ele>2484.0</ele>
        <time>2016-07-25T12:46:13Z</time>
      </trkpt>
      <trkpt lat="41.193683" lon="-3.602800">
        <ele>2488.0</ele>
        <time>2016-07-25T12:46:15Z</time>
      </trkpt>
      <trkpt lat="41.193783" lon="-3.602550">
        <ele>2491.0</ele>
        <time>2016-07-25T12:46:17Z</time>
      </trkpt>
      <trkpt lat="41.193867" lon="-3.602317">
        <ele>2498.0</ele>
        <time>2016-07-25T12:46:19Z</time>
      </trkpt>
      <trkpt lat="41.193950" lon="-3.602150">
        <ele>2500.0</ele>
        <time>2016-07-25T12:46:21Z</time>
      </trkpt>
      <trkpt lat="41.194083" lon="-3.602033">
        <ele>2499.0</ele>
        <time>2016-07-25T12:46:23Z</time>
      </trkpt>
      <trkpt lat="41.194283" lon="-3.602017">
        <ele>2498.0</ele>
        <time>2016-07-25T12:46:25Z</time>
      </trkpt>
      <trkpt lat="41.194433" lon="-3.602117">
        <ele>2500.0</ele>
        <time>2016-07-25T12:46:27Z</time>
      </trkpt>
      <trkpt lat="41.194517" lon="-3.602200">
        <ele>2499.0</ele>
        <time>2016-07-25T12:46:29Z</time>
      </trkpt>
      <trkpt lat="41.194583" lon="-3.602350">
        <ele>2492.0</ele>
        <time>2016-07-25T12:46:31Z</time>
      </trkpt>
      <trkpt lat="41.194650" lon="-3.602533">
        <ele>2486.0</ele>
        <time>2016-07-25T12:46:33Z</time>
      </trkpt>
      <trkpt lat="41.194783" lon="-3.602667">
        <ele>2482.0</ele>
        <time>2016-07-25T12:46:35Z</time>
      </trkpt>
      <trkpt lat="41.194950" lon="-3.602733">
        <ele>2483.0</ele>
        <time>2016-07-25T12:46:37Z</time>
      </trkpt>
      <trkpt lat="41.195150" lon="-3.602733">
        <ele>2484.0</ele>
        <time>2016-07-25T12:46:39Z</time>
      </trkpt>
      <trkpt lat="41.195350" lon="-3.602717">
        <ele>2488.0</ele>
        <time>2016-07-25T12:46:41Z</time>
      </trkpt>
      <trkpt lat="41.195533" lon="-3.602617">
        <ele>2495.0</ele>
        <time>2016-07-25T12:46:43Z</time>
      </trkpt>
      <trkpt lat="41.195650" lon="-3.602417">
        <ele>2500.0</ele>
        <time>2016-07-25T12:46:45Z</time>
      </trkpt>
      <trkpt lat="41.195667" lon="-3.602150">
        <ele>2500.0</ele>
        <time>2016-07-25T12:46:47Z</time>
      </trkpt>
      <trkpt lat="41.195617" lon="-3.601867">
        <ele>2501.0</ele>
        <time>2016-07-25T12:46:49Z</time>
      </trkpt>
      <trkpt lat="41.195517" lon="-3.601667">
        <ele>2502.0</ele>
        <time>2016-07-25T12:46:51Z</time>
      </trkpt>
      <trkpt lat="41.195317" lon="-3.601583">
        <ele>2501.0</ele>
        <time>2016-07-25T12:46:53Z</time>
      </trkpt>
      <trkpt lat="41.195150" lon="-3.601633">
        <ele>2501.0</ele>
        <time>2016-07-25T12:46:55Z</time>
      </trkpt>
      <trkpt lat="41.195050" lon="-3.601767">
        <ele>2501.0</ele>
        <time>2016-07-25T12:46:57Z</time>
      </trkpt>
      <trkpt lat="41.195067" lon="-3.601950">
        <ele>2500.0</ele>
        <time>2016-07-25T12:46:59Z</time>
      </trkpt>
      <trkpt lat="41.195200" lon="-3.602117">
        <ele>2499.0</ele>
        <time>2016-07-25T12:47:01Z</time>
      </trkpt>
      <trkpt lat="41.195333" lon="-3.602317">
        <ele>2504.0</ele>
        <time>2016-07-25T12:47:03Z</time>
      </trkpt>
      <trkpt lat="41.195467" lon="-3.602467">
        <ele>2511.0</ele>
        <time>2016-07-25T12:47:05Z</time>
      </trkpt>
      <trkpt lat="41.195600" lon="-3.602483">
        <ele>2514.0</ele>
        <time>2016-07-25T12:47:07Z</time>
      </trkpt>
      <trkpt lat="41.195717" lon="-3.602433">
        <ele>2514.0</ele>
        <time>2016-07-25T12:47:09Z</time>
      </trkpt>
      <trkpt lat="41.195867" lon="-3.602300">
        <ele>2511.0</ele>
        <time>2016-07-25T12:47:11Z</time>
      </trkpt>
      <trkpt lat="41.196000" lon="-3.602117">
        <ele>2509.0</ele>
        <time>2016-07-25T12:47:13Z</time>
      </trkpt>
      <trkpt lat="41.196183" lon="-3.601967">
        <ele>2508.0</ele>
        <time>2016-07-25T12:47:15Z</time>
      </trkpt>
      <trkpt lat="41.196350" lon="-3.601833">
        <ele>2508.0</ele>
        <time>2016-07-25T12:47:17Z</time>
      </trkpt>
      <trkpt lat="41.196517" lon="-3.601683">
        <ele>2509.0</ele>
        <time>2016-07-25T12:47:19Z</time>
      </trkpt>
      <trkpt lat="41.196700" lon="-3.601550">
        <ele>2511.0</ele>
        <time>2016-07-25T12:47:21Z</time>
      </trkpt>
      <trkpt lat="41.196867" lon="-3.601433">
        <ele>2514.0</ele>
        <time>2016-07-25T12:47:23Z</time>
      </trkpt>
      <trkpt lat="41.196983" lon="-3.601283">
        <ele>2515.0</ele>
        <time>2016-07-25T12:47:25Z</time>
      </trkpt>
      <trkpt lat="41.197100" lon="-3.601083">
        <ele>2512.0</ele>
        <time>2016-07-25T12:47:27Z</time>
      </trkpt>
      <trkpt lat="41.197217" lon="-3.600850">
        <ele>2509.0</ele>
        <time>2016-07-25T12:47:29Z</time>
      </trkpt>
      <trkpt lat="41.197350" lon="-3.600667">
        <ele>2512.0</ele>
        <time>2016-07-25T12:47:31Z</time>
      </trkpt>
      <trkpt lat="41.197467" lon="-3.600550">
        <ele>2516.0</ele>
        <time>2016-07-25T12:47:33Z</time>
      </trkpt>
      <trkpt lat="41.197583" lon="-3.600367">
        <ele>2517.0</ele>
        <time>2016-07-25T12:47:35Z</time>
      </trkpt>
      <trkpt lat="41.197683" lon="-3.600117">
        <ele>2520.0</ele>
        <time>2016-07-25T12:47:37Z</time>
      </trkpt>
      <trkpt lat="41.197783" lon="-3.599933">
        <ele>2524.0</ele>
        <time>2016-07-25T12:47:39Z</time>
      </trkpt>
      <trkpt lat="41.197850" lon="-3.599767">
        <ele>2525.0</ele>
        <time>2016-07-25T12:47:41Z</time>
      </trkpt>
      <trkpt lat="41.197883" lon="-3.599550">
        <ele>2522.0</ele>
        <time>2016-07-25T12:47:43Z</time>
      </trkpt>
      <trkpt lat="41.197917" lon="-3.599300">
        <ele>2520.0</ele>
        <time>2016-07-25T12:47:45Z</time>
      </trkpt>
      <trkpt lat="41.197950" lon="-3.599050">
        <ele>2521.0</ele>
        <time>2016-07-25T12:47:47Z</time>
      </trkpt>
      <trkpt lat="41.197950" lon="-3.598783">
        <ele>2520.0</ele>
        <time>2016-07-25T12:47:49Z</time>
      </trkpt>
      <trkpt lat="41.197983" lon="-3.598533">
        <ele>2520.0</ele>
        <time>2016-07-25T12:47:51Z</time>
      </trkpt>
      <trkpt lat="41.198050" lon="-3.598267">
        <ele>2515.0</ele>
        <time>2016-07-25T12:47:53Z</time>
      </trkpt>
      <trkpt lat="41.198150" lon="-3.597950">
        <ele>2508.0</ele>
        <time>2016-07-25T12:47:55Z</time>
      </trkpt>
      <trkpt lat="41.198217" lon="-3.597633">
        <ele>2505.0</ele>
        <time>2016-07-25T12:47:57Z</time>
      </trkpt>
      <trkpt lat="41.198250" lon="-3.597333">
        <ele>2503.0</ele>
        <time>2016-07-25T12:47:59Z</time>
      </trkpt>
      <trkpt lat="41.198300" lon="-3.597033">
        <ele>2496.0</ele>
        <time>2016-07-25T12:48:01Z</time>
      </trkpt>
      <trkpt lat="41.198367" lon="-3.596700">
        <ele>2488.0</ele>
        <time>2016-07-25T12:48:03Z</time>
      </trkpt>
      <trkpt lat="41.198433" lon="-3.596383">
        <ele>2485.0</ele>
        <time>2016-07-25T12:48:05Z</time>
      </trkpt>
      <trkpt lat="41.198517" lon="-3.596100">
        <ele>2483.0</ele>
        <time>2016-07-25T12:48:07Z</time>
      </trkpt>
      <trkpt lat="41.198600" lon="-3.595817">
        <ele>2479.0</ele>
        <time>2016-07-25T12:48:09Z</time>
      </trkpt>
      <trkpt lat="41.198733" lon="-3.595500">
        <ele>2476.0</ele>
        <time>2016-07-25T12:48:11Z</time>
      </trkpt>
      <trkpt lat="41.198900" lon="-3.595250">
        <ele>2474.0</ele>
        <time>2016-07-25T12:48:13Z</time>
      </trkpt>
      <trkpt lat="41.199033" lon="-3.595000">
        <ele>2470.0</ele>
        <time>2016-07-25T12:48:15Z</time>
      </trkpt>
      <trkpt lat="41.199150" lon="-3.594717">
        <ele>2468.0</ele>
        <time>2016-07-25T12:48:17Z</time>
      </trkpt>
      <trkpt lat="41.199267" lon="-3.594483">
        <ele>2466.0</ele>
        <time>2016-07-25T12:48:19Z</time>
      </trkpt>
      <trkpt lat="41.199367" lon="-3.594233">
        <ele>2461.0</ele>
        <time>2016-07-25T12:48:21Z</time>
      </trkpt>
      <trkpt lat="41.199483" lon="-3.594000">
        <ele>2457.0</ele>
        <time>2016-07-25T12:48:23Z</time>
      </trkpt>
      <trkpt lat="41.199633" lon="-3.593783">
        <ele>2453.0</ele>
        <time>2016-07-25T12:48:25Z</time>
      </trkpt>
      <trkpt lat="41.199800" lon="-3.593600">
        <ele>2449.0</ele>
        <time>2016-07-25T12:48:27Z</time>
      </trkpt>
      <trkpt lat="41.199950" lon="-3.593417">
        <ele>2444.0</ele>
        <time>2016-07-25T12:48:29Z</time>
      </trkpt>
      <trkpt lat="41.200133" lon="-3.593233">
        <ele>2438.0</ele>
        <time>2016-07-25T12:48:31Z</time>
      </trkpt>
      <trkpt lat="41.200317" lon="-3.593050">
        <ele>2433.0</ele>
        <time>2016-07-25T12:48:33Z</time>
      </trkpt>
      <trkpt lat="41.200500" lon="-3.592883">
        <ele>2428.0</ele>
        <time>2016-07-25T12:48:35Z</time>
      </trkpt>
      <trkpt lat="41.200667" lon="-3.592717">
        <ele>2422.0</ele>
        <time>2016-07-25T12:48:37Z</time>
      </trkpt>
      <trkpt lat="41.200867" lon="-3.592517">
        <ele>2416.0</ele>
        <time>2016-07-25T12:48:39Z</time>
      </trkpt>
      <trkpt lat="41.201067" lon="-3.592333">
        <ele>2411.0</ele>
        <time>2016-07-25T12:48:41Z</time>
      </trkpt>
      <trkpt lat="41.201233" lon="-3.592167">
        <ele>2406.0</ele>
        <time>2016-07-25T12:48:43Z</time>
      </trkpt>
      <trkpt lat="41.201417" lon="-3.591967">
        <ele>2400.0</ele>
        <time>2016-07-25T12:48:45Z</time>
      </trkpt>
      <trkpt lat="41.201600" lon="-3.591767">
        <ele>2396.0</ele>
        <time>2016-07-25T12:48:47Z</time>
      </trkpt>
      <trkpt lat="41.201767" lon="-3.591583">
        <ele>2391.0</ele>
        <time>2016-07-25T12:48:49Z</time>
      </trkpt>
      <trkpt lat="41.201950" lon="-3.591400">
        <ele>2385.0</ele>
        <time>2016-07-25T12:48:51Z</time>
      </trkpt>
      <trkpt lat="41.202117" lon="-3.591183">
        <ele>2381.0</ele>
        <time>2016-07-25T12:48:53Z</time>
      </trkpt>
      <trkpt lat="41.202283" lon="-3.591033">
        <ele>2378.0</ele>
        <time>2016-07-25T12:48:55Z</time>
      </trkpt>
      <trkpt lat="41.202450" lon="-3.590833">
        <ele>2372.0</ele>
        <time>2016-07-25T12:48:57Z</time>
      </trkpt>
      <trkpt lat="41.202633" lon="-3.590633">
        <ele>2368.0</ele>
        <time>2016-07-25T12:48:59Z</time>
      </trkpt>
      <trkpt lat="41.202800" lon="-3.590467">
        <ele>2365.0</ele>
        <time>2016-07-25T12:49:01Z</time>
      </trkpt>
      <trkpt lat="41.202967" lon="-3.590283">
        <ele>2360.0</ele>
        <time>2016-07-25T12:49:03Z</time>
      </trkpt>
      <trkpt lat="41.203150" lon="-3.590083">
        <ele>2353.0</ele>
        <time>2016-07-25T12:49:05Z</time>
      </trkpt>
      <trkpt lat="41.203333" lon="-3.589900">
        <ele>2349.0</ele>
        <time>2016-07-25T12:49:07Z</time>
      </trkpt>
      <trkpt lat="41.203500" lon="-3.589733">
        <ele>2345.0</ele>
        <time>2016-07-25T12:49:09Z</time>
      </trkpt>
      <trkpt lat="41.203700" lon="-3.589567">
        <ele>2340.0</ele>
        <time>2016-07-25T12:49:11Z</time>
      </trkpt>
      <trkpt lat="41.203883" lon="-3.589400">
        <ele>2335.0</ele>
        <time>2016-07-25T12:49:13Z</time>
      </trkpt>
      <trkpt lat="41.204067" lon="-3.589250">
        <ele>2329.0</ele>
        <time>2016-07-25T12:49:15Z</time>
      </trkpt>
      <trkpt lat="41.204267" lon="-3.589083">
        <ele>2324.0</ele>
        <time>2016-07-25T12:49:17Z</time>
      </trkpt>
      <trkpt lat="41.204467" lon="-3.588950">
        <ele>2320.0</ele>
        <time>2016-07-25T12:49:19Z</time>
      </trkpt>
      <trkpt lat="41.204650" lon="-3.588817">
        <ele>2315.0</ele>
        <time>2016-07-25T12:49:21Z</time>
      </trkpt>
      <trkpt lat="41.204817" lon="-3.588667">
        <ele>2309.0</ele>
        <time>2016-07-25T12:49:23Z</time>
      </trkpt>
      <trkpt lat="41.204983" lon="-3.588500">
        <ele>2304.0</ele>
        <time>2016-07-25T12:49:25Z</time>
      </trkpt>
      <trkpt lat="41.205150" lon="-3.588350">
        <ele>2299.0</ele>
        <time>2016-07-25T12:49:27Z</time>
      </trkpt>
      <trkpt lat="41.205317" lon="-3.588200">
        <ele>2294.0</ele>
        <time>2016-07-25T12:49:29Z</time>
      </trkpt>
      <trkpt lat="41.205483" lon="-3.588067">
        <ele>2289.0</ele>
        <time>2016-07-25T12:49:31Z</time>
      </trkpt>
      <trkpt lat="41.205633" lon="-3.587917">
        <ele>2285.0</ele>
        <time>2016-07-25T12:49:33Z</time>
      </trkpt>
      <trkpt lat="41.205800" lon="-3.587767">
        <ele>2280.0</ele>
        <time>2016-07-25T12:49:35Z</time>
      </trkpt>
      <trkpt lat="41.205967" lon="-3.587633">
        <ele>2275.0</ele>
        <time>2016-07-25T12:49:37Z</time>
      </trkpt>
      <trkpt lat="41.206133" lon="-3.587500">
        <ele>2270.0</ele>
        <time>2016-07-25T12:49:39Z</time>
      </trkpt>
      <trkpt lat="41.206267" lon="-3.587367">
        <ele>2267.0</ele>
        <time>2016-07-25T12:49:41Z</time>
      </trkpt>
      <trkpt lat="41.206417" lon="-3.587217">
        <ele>2262.0</ele>
        <time>2016-07-25T12:49:43Z</time>
      </trkpt>
      <trkpt lat="41.206550" lon="-3.587067">
        <ele>2256.0</ele>
        <time>2016-07-25T12:49:45Z</time>
      </trkpt>
      <trkpt lat="41.206700" lon="-3.586917">
        <ele>2251.0</ele>
        <time>2016-07-25T12:49:47Z</time>
      </trkpt>
      <trkpt lat="41.206850" lon="-3.586783">
        <ele>2247.0</ele>
        <time>2016-07-25T12:49:49Z</time>
      </trkpt>
      <trkpt lat="41.207000" lon="-3.586667">
        <ele>2242.0</ele>
        <time>2016-07-25T12:49:51Z</time>
      </trkpt>
      <trkpt lat="41.207150" lon="-3.586533">
        <ele>2237.0</ele>
        <time>2016-07-25T12:49:53Z</time>
      </trkpt>
      <trkpt lat="41.207300" lon="-3.586383">
        <ele>2233.0</ele>
        <time>2016-07-25T12:49:55Z</time>
      </trkpt>
      <trkpt lat="41.207450" lon="-3.586233">
        <ele>2228.0</ele>
        <time>2016-07-25T12:49:57Z</time>
      </trkpt>
      <trkpt lat="41.207600" lon="-3.586083">
        <ele>2222.0</ele>
        <time>2016-07-25T12:49:59Z</time>
      </trkpt>
      <trkpt lat="41.207750" lon="-3.585950">
        <ele>2218.0</ele>
        <time>2016-07-25T12:50:01Z</time>
      </trkpt>
      <trkpt lat="41.207883" lon="-3.585850">
        <ele>2213.0</ele>
        <time>2016-07-25T12:50:03Z</time>
      </trkpt>
      <trkpt lat="41.208033" lon="-3.585700">
        <ele>2208.0</ele>
        <time>2016-07-25T12:50:05Z</time>
      </trkpt>
      <trkpt lat="41.208183" lon="-3.585550">
        <ele>2203.0</ele>
        <time>2016-07-25T12:50:07Z</time>
      </trkpt>
      <trkpt lat="41.208333" lon="-3.585400">
        <ele>2201.0</ele>
        <time>2016-07-25T12:50:09Z</time>
      </trkpt>
      <trkpt lat="41.208450" lon="-3.585267">
        <ele>2199.0</ele>
        <time>2016-07-25T12:50:11Z</time>
      </trkpt>
      <trkpt lat="41.208600" lon="-3.585133">
        <ele>2195.0</ele>
        <time>2016-07-25T12:50:13Z</time>
      </trkpt>
      <trkpt lat="41.208767" lon="-3.585017">
        <ele>2192.0</ele>
        <time>2016-07-25T12:50:15Z</time>
      </trkpt>
      <trkpt lat="41.208883" lon="-3.584883">
        <ele>2188.0</ele>
        <time>2016-07-25T12:50:17Z</time>
      </trkpt>
      <trkpt lat="41.209033" lon="-3.584750">
        <ele>2184.0</ele>
        <time>2016-07-25T12:50:19Z</time>
      </trkpt>
      <trkpt lat="41.209167" lon="-3.584600">
        <ele>2180.0</ele>
        <time>2016-07-25T12:50:21Z</time>
      </trkpt>
      <trkpt lat="41.209300" lon="-3.584467">
        <ele>2177.0</ele>
        <time>2016-07-25T12:50:23Z</time>
      </trkpt>
      <trkpt lat="41.209433" lon="-3.584333">
        <ele>2173.0</ele>
        <time>2016-07-25T12:50:25Z</time>
      </trkpt>
      <trkpt lat="41.209567" lon="-3.584217">
        <ele>2169.0</ele>
        <time>2016-07-25T12:50:27Z</time>
      </trkpt>
      <trkpt lat="41.209717" lon="-3.584100">
        <ele>2165.0</ele>
        <time>2016-07-25T12:50:29Z</time>
      </trkpt>
      <trkpt lat="41.209850" lon="-3.584000">
        <ele>2161.0</ele>
        <time>2016-07-25T12:50:31Z</time>
      </trkpt>
      <trkpt lat="41.209983" lon="-3.583900">
        <ele>2156.0</ele>
        <time>2016-07-25T12:50:33Z</time>
      </trkpt>
      <trkpt lat="41.210117" lon="-3.583817">
        <ele>2150.0</ele>
        <time>2016-07-25T12:50:35Z</time>
      </trkpt>
      <trkpt lat="41.210267" lon="-3.583700">
        <ele>2144.0</ele>
        <time>2016-07-25T12:50:37Z</time>
      </trkpt>
      <trkpt lat="41.210400" lon="-3.583583">
        <ele>2141.0</ele>
        <time>2016-07-25T12:50:39Z</time>
      </trkpt>
      <trkpt lat="41.210500" lon="-3.583450">
        <ele>2138.0</ele>
        <time>2016-07-25T12:50:41Z</time>
      </trkpt>
      <trkpt lat="41.210617" lon="-3.583317">
        <ele>2131.0</ele>
        <time>2016-07-25T12:50:43Z</time>
      </trkpt>
      <trkpt lat="41.210750" lon="-3.583167">
        <ele>2125.0</ele>
        <time>2016-07-25T12:50:45Z</time>
      </trkpt>
      <trkpt lat="41.210850" lon="-3.583017">
        <ele>2120.0</ele>
        <time>2016-07-25T12:50:47Z</time>
      </trkpt>
      <trkpt lat="41.210967" lon="-3.582883">
        <ele>2115.0</ele>
        <time>2016-07-25T12:50:49Z</time>
      </trkpt>
      <trkpt lat="41.211083" lon="-3.582733">
        <ele>2108.0</ele>
        <time>2016-07-25T12:50:51Z</time>
      </trkpt>
      <trkpt lat="41.211200" lon="-3.582600">
        <ele>2103.0</ele>
        <time>2016-07-25T12:50:53Z</time>
      </trkpt>
      <trkpt lat="41.211317" lon="-3.582467">
        <ele>2098.0</ele>
        <time>2016-07-25T12:50:55Z</time>
      </trkpt>
      <trkpt lat="41.211433" lon="-3.582333">
        <ele>2092.0</ele>
        <time>2016-07-25T12:50:57Z</time>
      </trkpt>
      <trkpt lat="41.211550" lon="-3.582183">
        <ele>2087.0</ele>
        <time>2016-07-25T12:50:59Z</time>
      </trkpt>
      <trkpt lat="41.211650" lon="-3.582050">
        <ele>2083.0</ele>
        <time>2016-07-25T12:51:01Z</time>
      </trkpt>
      <trkpt lat="41.211767" lon="-3.581933">
        <ele>2079.0</ele>
        <time>2016-07-25T12:51:03Z</time>
      </trkpt>
      <trkpt lat="41.211867" lon="-3.581783">
        <ele>2075.0</ele>
        <time>2016-07-25T12:51:05Z</time>
      </trkpt>
      <trkpt lat="41.211983" lon="-3.581667">
        <ele>2069.0</ele>
        <time>2016-07-25T12:51:07Z</time>
      </trkpt>
      <trkpt lat="41.212133" lon="-3.581533">
        <ele>2064.0</ele>
        <time>2016-07-25T12:51:09Z</time>
      </trkpt>
      <trkpt lat="41.212250" lon="-3.581400">
        <ele>2060.0</ele>
        <time>2016-07-25T12:51:11Z</time>
      </trkpt>
      <trkpt lat="41.212367" lon="-3.581267">
        <ele>2054.0</ele>
        <time>2016-07-25T12:51:13Z</time>
      </trkpt>
      <trkpt lat="41.212500" lon="-3.581133">
        <ele>2047.0</ele>
        <time>2016-07-25T12:51:15Z</time>
      </trkpt>
      <trkpt lat="41.212617" lon="-3.580983">
        <ele>2042.0</ele>
        <time>2016-07-25T12:51:17Z</time>
      </trkpt>
      <trkpt lat="41.212733" lon="-3.580850">
        <ele>2036.0</ele>
        <time>2016-07-25T12:51:19Z</time>
      </trkpt>
      <trkpt lat="41.212883" lon="-3.580717">
        <ele>2029.0</ele>
        <time>2016-07-25T12:51:21Z</time>
      </trkpt>
      <trkpt lat="41.213017" lon="-3.580567">
        <ele>2023.0</ele>
        <time>2016-07-25T12:51:23Z</time>
      </trkpt>
      <trkpt lat="41.213150" lon="-3.580417">
        <ele>2018.0</ele>
        <time>2016-07-25T12:51:25Z</time>
      </trkpt>
      <trkpt lat="41.213267" lon="-3.580267">
        <ele>2011.0</ele>
        <time>2016-07-25T12:51:27Z</time>
      </trkpt>
      <trkpt lat="41.213400" lon="-3.580083">
        <ele>2004.0</ele>
        <time>2016-07-25T12:51:29Z</time>
      </trkpt>
      <trkpt lat="41.213500" lon="-3.579917">
        <ele>1998.0</ele>
        <time>2016-07-25T12:51:31Z</time>
      </trkpt>
      <trkpt lat="41.213600" lon="-3.579767">
        <ele>1992.0</ele>
        <time>2016-07-25T12:51:33Z</time>
      </trkpt>
      <trkpt lat="41.213717" lon="-3.579617">
        <ele>1985.0</ele>
        <time>2016-07-25T12:51:35Z</time>
      </trkpt>
      <trkpt lat="41.213833" lon="-3.579467">
        <ele>1979.0</ele>
        <time>2016-07-25T12:51:37Z</time>
      </trkpt>
      <trkpt lat="41.213950" lon="-3.579333">
        <ele>1972.0</ele>
        <time>2016-07-25T12:51:39Z</time>
      </trkpt>
      <trkpt lat="41.214067" lon="-3.579183">
        <ele>1964.0</ele>
        <time>2016-07-25T12:51:41Z</time>
      </trkpt>
      <trkpt lat="41.214217" lon="-3.579067">
        <ele>1957.0</ele>
        <time>2016-07-25T12:51:43Z</time>
      </trkpt>
      <trkpt lat="41.214333" lon="-3.578950">
        <ele>1950.0</ele>
        <time>2016-07-25T12:51:45Z</time>
      </trkpt>
      <trkpt lat="41.214467" lon="-3.578833">
        <ele>1942.0</ele>
        <time>2016-07-25T12:51:47Z</time>
      </trkpt>
      <trkpt lat="41.214617" lon="-3.578717">
        <ele>1935.0</ele>
        <time>2016-07-25T12:51:49Z</time>
      </trkpt>
      <trkpt lat="41.214750" lon="-3.578617">
        <ele>1927.0</ele>
        <time>2016-07-25T12:51:51Z</time>
      </trkpt>
      <trkpt lat="41.214900" lon="-3.578533">
        <ele>1920.0</ele>
        <time>2016-07-25T12:51:53Z</time>
      </trkpt>
      <trkpt lat="41.215050" lon="-3.578517">
        <ele>1913.0</ele>
        <time>2016-07-25T12:51:55Z</time>
      </trkpt>
      <trkpt lat="41.215200" lon="-3.578483">
        <ele>1906.0</ele>
        <time>2016-07-25T12:51:57Z</time>
      </trkpt>
      <trkpt lat="41.215317" lon="-3.578483">
        <ele>1901.0</ele>
        <time>2016-07-25T12:51:59Z</time>
      </trkpt>
      <trkpt lat="41.215433" lon="-3.578533">
        <ele>1895.0</ele>
        <time>2016-07-25T12:52:01Z</time>
      </trkpt>
      <trkpt lat="41.215533" lon="-3.578600">
        <ele>1887.0</ele>
        <time>2016-07-25T12:52:03Z</time>
      </trkpt>
      <trkpt lat="41.215633" lon="-3.578717">
        <ele>1880.0</ele>
        <time>2016-07-25T12:52:05Z</time>
      </trkpt>
      <trkpt lat="41.215700" lon="-3.578833">
        <ele>1874.0</ele>
        <time>2016-07-25T12:52:07Z</time>
      </trkpt>
      <trkpt lat="41.215783" lon="-3.578950">
        <ele>1867.0</ele>
        <time>2016-07-25T12:52:09Z</time>
      </trkpt>
      <trkpt lat="41.215867" lon="-3.579067">
        <ele>1861.0</ele>
        <time>2016-07-25T12:52:11Z</time>
      </trkpt>
      <trkpt lat="41.215950" lon="-3.579150">
        <ele>1855.0</ele>
        <time>2016-07-25T12:52:13Z</time>
      </trkpt>
      <trkpt lat="41.216017" lon="-3.579250">
        <ele>1847.0</ele>
        <time>2016-07-25T12:52:15Z</time>
      </trkpt>
      <trkpt lat="41.216100" lon="-3.579367">
        <ele>1838.0</ele>
        <time>2016-07-25T12:52:17Z</time>
      </trkpt>
      <trkpt lat="41.216183" lon="-3.579483">
        <ele>1832.0</ele>
        <time>2016-07-25T12:52:19Z</time>
      </trkpt>
      <trkpt lat="41.216267" lon="-3.579583">
        <ele>1825.0</ele>
        <time>2016-07-25T12:52:21Z</time>
      </trkpt>
      <trkpt lat="41.216367" lon="-3.579700">
        <ele>1818.0</ele>
        <time>2016-07-25T12:52:23Z</time>
      </trkpt>
      <trkpt lat="41.216450" lon="-3.579817">
        <ele>1812.0</ele>
        <time>2016-07-25T12:52:25Z</time>
      </trkpt>
      <trkpt lat="41.216550" lon="-3.579900">
        <ele>1805.0</ele>
        <time>2016-07-25T12:52:27Z</time>
      </trkpt>
      <trkpt lat="41.216667" lon="-3.579967">
        <ele>1797.0</ele>
        <time>2016-07-25T12:52:29Z</time>
      </trkpt>
      <trkpt lat="41.216783" lon="-3.580050">
        <ele>1789.0</ele>
        <time>2016-07-25T12:52:31Z</time>
      </trkpt>
      <trkpt lat="41.216900" lon="-3.580117">
        <ele>1782.0</ele>
        <time>2016-07-25T12:52:33Z</time>
      </trkpt>
      <trkpt lat="41.217017" lon="-3.580183">
        <ele>1774.0</ele>
        <time>2016-07-25T12:52:35Z</time>
      </trkpt>
      <trkpt lat="41.217117" lon="-3.580300">
        <ele>1766.0</ele>
        <time>2016-07-25T12:52:37Z</time>
      </trkpt>
      <trkpt lat="41.217233" lon="-3.580400">
        <ele>1760.0</ele>
        <time>2016-07-25T12:52:39Z</time>
      </trkpt>
      <trkpt lat="41.217317" lon="-3.580517">
        <ele>1752.0</ele>
        <time>2016-07-25T12:52:41Z</time>
      </trkpt>
      <trkpt lat="41.217450" lon="-3.580617">
        <ele>1744.0</ele>
        <time>2016-07-25T12:52:43Z</time>
      </trkpt>
      <trkpt lat="41.217583" lon="-3.580683">
        <ele>1739.0</ele>
        <time>2016-07-25T12:52:45Z</time>
      </trkpt>
      <trkpt lat="41.217700" lon="-3.580750">
        <ele>1732.0</ele>
        <time>2016-07-25T12:52:47Z</time>
      </trkpt>
      <trkpt lat="41.217850" lon="-3.580800">
        <ele>1723.0</ele>
        <time>2016-07-25T12:52:49Z</time>
      </trkpt>
      <trkpt lat="41.218017" lon="-3.580833">
        <ele>1716.0</ele>
        <time>2016-07-25T12:52:51Z</time>
      </trkpt>
      <trkpt lat="41.218183" lon="-3.580833">
        <ele>1710.0</ele>
        <time>2016-07-25T12:52:53Z</time>
      </trkpt>
      <trkpt lat="41.218350" lon="-3.580833">
        <ele>1703.0</ele>
        <time>2016-07-25T12:52:55Z</time>
      </trkpt>
      <trkpt lat="41.218533" lon="-3.580833">
        <ele>1696.0</ele>
        <time>2016-07-25T12:52:57Z</time>
      </trkpt>
      <trkpt lat="41.218700" lon="-3.580817">
        <ele>1691.0</ele>
        <time>2016-07-25T12:52:59Z</time>
      </trkpt>
      <trkpt lat="41.218867" lon="-3.580817">
        <ele>1683.0</ele>
        <time>2016-07-25T12:53:01Z</time>
      </trkpt>
      <trkpt lat="41.219050" lon="-3.580767">
        <ele>1674.0</ele>
        <time>2016-07-25T12:53:03Z</time>
      </trkpt>
      <trkpt lat="41.219233" lon="-3.580683">
        <ele>1667.0</ele>
        <time>2016-07-25T12:53:05Z</time>
      </trkpt>
      <trkpt lat="41.219400" lon="-3.580600">
        <ele>1662.0</ele>
        <time>2016-07-25T12:53:07Z</time>
      </trkpt>
      <trkpt lat="41.219600" lon="-3.580500">
        <ele>1657.0</ele>
        <time>2016-07-25T12:53:09Z</time>
      </trkpt>
      <trkpt lat="41.219767" lon="-3.580417">
        <ele>1656.0</ele>
        <time>2016-07-25T12:53:11Z</time>
      </trkpt>
      <trkpt lat="41.219917" lon="-3.580350">
        <ele>1656.0</ele>
        <time>2016-07-25T12:53:13Z</time>
      </trkpt>
      <trkpt lat="41.220083" lon="-3.580233">
        <ele>1655.0</ele>
        <time>2016-07-25T12:53:15Z</time>
      </trkpt>
      <trkpt lat="41.220250" lon="-3.580133">
        <ele>1654.0</ele>
        <time>2016-07-25T12:53:17Z</time>
      </trkpt>
      <trkpt lat="41.220417" lon="-3.580017">
        <ele>1654.0</ele>
        <time>2016-07-25T12:53:19Z</time>
      </trkpt>
      <trkpt lat="41.220583" lon="-3.579900">
        <ele>1655.0</ele>
        <time>2016-07-25T12:53:21Z</time>
      </trkpt>
      <trkpt lat="41.220733" lon="-3.579717">
        <ele>1656.0</ele>
        <time>2016-07-25T12:53:23Z</time>
      </trkpt>
      <trkpt lat="41.220883" lon="-3.579517">
        <ele>1656.0</ele>
        <time>2016-07-25T12:53:25Z</time>
      </trkpt>
      <trkpt lat="41.221017" lon="-3.579283">
        <ele>1657.0</ele>
        <time>2016-07-25T12:53:27Z</time>
      </trkpt>
      <trkpt lat="41.221100" lon="-3.579033">
        <ele>1658.0</ele>
        <time>2016-07-25T12:53:29Z</time>
      </trkpt>
      <trkpt lat="41.221167" lon="-3.578767">
        <ele>1659.0</ele>
        <time>2016-07-25T12:53:31Z</time>
      </trkpt>
      <trkpt lat="41.221200" lon="-3.578450">
        <ele>1658.0</ele>
        <time>2016-07-25T12:53:33Z</time>
      </trkpt>
      <trkpt lat="41.221167" lon="-3.578133">
        <ele>1655.0</ele>
        <time>2016-07-25T12:53:35Z</time>
      </trkpt>
      <trkpt lat="41.221083" lon="-3.577833">
        <ele>1655.0</ele>
        <time>2016-07-25T12:53:37Z</time>
      </trkpt>
      <trkpt lat="41.221017" lon="-3.577567">
        <ele>1655.0</ele>
        <time>2016-07-25T12:53:39Z</time>
      </trkpt>
      <trkpt lat="41.220917" lon="-3.577350">
        <ele>1653.0</ele>
        <time>2016-07-25T12:53:41Z</time>
      </trkpt>
      <trkpt lat="41.220750" lon="-3.577167">
        <ele>1648.0</ele>
        <time>2016-07-25T12:53:43Z</time>
      </trkpt>
      <trkpt lat="41.220567" lon="-3.577033">
        <ele>1644.0</ele>
        <time>2016-07-25T12:53:45Z</time>
      </trkpt>
      <trkpt lat="41.220383" lon="-3.577000">
        <ele>1641.0</ele>
        <time>2016-07-25T12:53:47Z</time>
      </trkpt>
      <trkpt lat="41.220233" lon="-3.577050">
        <ele>1639.0</ele>
        <time>2016-07-25T12:53:49Z</time>
      </trkpt>
      <trkpt lat="41.220100" lon="-3.577167">
        <ele>1636.0</ele>
        <time>2016-07-25T12:53:51Z</time>
      </trkpt>
      <trkpt lat="41.220050" lon="-3.577333">
        <ele>1632.0</ele>
        <time>2016-07-25T12:53:53Z</time>
      </trkpt>
      <trkpt lat="41.220050" lon="-3.577483">
        <ele>1629.0</ele>
        <time>2016-07-25T12:53:55Z</time>
      </trkpt>
      <trkpt lat="41.220083" lon="-3.577617">
        <ele>1625.0</ele>
        <time>2016-07-25T12:53:57Z</time>
      </trkpt>
      <trkpt lat="41.220150" lon="-3.577783">
        <ele>1619.0</ele>
        <time>2016-07-25T12:53:59Z</time>
      </trkpt>
      <trkpt lat="41.220217" lon="-3.577983">
        <ele>1615.0</ele>
        <time>2016-07-25T12:54:01Z</time>
      </trkpt>
      <trkpt lat="41.220317" lon="-3.578117">
        <ele>1614.0</ele>
        <time>2016-07-25T12:54:03Z</time>
      </trkpt>
      <trkpt lat="41.220417" lon="-3.578233">
        <ele>1611.0</ele>
        <time>2016-07-25T12:54:05Z</time>
      </trkpt>
      <trkpt lat="41.220533" lon="-3.578383">
        <ele>1606.0</ele>
        <time>2016-07-25T12:54:07Z</time>
      </trkpt>
      <trkpt lat="41.220667" lon="-3.578517">
        <ele>1606.0</ele>
        <time>2016-07-25T12:54:09Z</time>
      </trkpt>
      <trkpt lat="41.220817" lon="-3.578667">
        <ele>1606.0</ele>
        <time>2016-07-25T12:54:11Z</time>
      </trkpt>
      <trkpt lat="41.220967" lon="-3.578800">
        <ele>1609.0</ele>
        <time>2016-07-25T12:54:13Z</time>
      </trkpt>
      <trkpt lat="41.221117" lon="-3.578917">
        <ele>1611.0</ele>
        <time>2016-07-25T12:54:15Z</time>
      </trkpt>
      <trkpt lat="41.221267" lon="-3.579033">
        <ele>1612.0</ele>
        <time>2016-07-25T12:54:17Z</time>
      </trkpt>
      <trkpt lat="41.221467" lon="-3.579083">
        <ele>1614.0</ele>
        <time>2016-07-25T12:54:19Z</time>
      </trkpt>
      <trkpt lat="41.221667" lon="-3.579067">
        <ele>1615.0</ele>
        <time>2016-07-25T12:54:21Z</time>
      </trkpt>
      <trkpt lat="41.221867" lon="-3.579083">
        <ele>1616.0</ele>
        <time>2016-07-25T12:54:23Z</time>
      </trkpt>
      <trkpt lat="41.222117" lon="-3.579033">
        <ele>1617.0</ele>
        <time>2016-07-25T12:54:25Z</time>
      </trkpt>
      <trkpt lat="41.222317" lon="-3.578900">
        <ele>1622.0</ele>
        <time>2016-07-25T12:54:27Z</time>
      </trkpt>
      <trkpt lat="41.222467" lon="-3.578800">
        <ele>1624.0</ele>
        <time>2016-07-25T12:54:29Z</time>
      </trkpt>
      <trkpt lat="41.222650" lon="-3.578683">
        <ele>1622.0</ele>
        <time>2016-07-25T12:54:31Z</time>
      </trkpt>
      <trkpt lat="41.222817" lon="-3.578467">
        <ele>1622.0</ele>
        <time>2016-07-25T12:54:33Z</time>
      </trkpt>
      <trkpt lat="41.222883" lon="-3.578200">
        <ele>1625.0</ele>
        <time>2016-07-25T12:54:35Z</time>
      </trkpt>
      <trkpt lat="41.222867" lon="-3.577900">
        <ele>1625.0</ele>
        <time>2016-07-25T12:54:37Z</time>
      </trkpt>
      <trkpt lat="41.222800" lon="-3.577583">
        <ele>1627.0</ele>
        <time>2016-07-25T12:54:39Z</time>
      </trkpt>
      <trkpt lat="41.222667" lon="-3.577383">
        <ele>1631.0</ele>
        <time>2016-07-25T12:54:41Z</time>
      </trkpt>
      <trkpt lat="41.222517" lon="-3.577267">
        <ele>1635.0</ele>
        <time>2016-07-25T12:54:43Z</time>
      </trkpt>
      <trkpt lat="41.222400" lon="-3.577233">
        <ele>1638.0</ele>
        <time>2016-07-25T12:54:45Z</time>
      </trkpt>
      <trkpt lat="41.222317" lon="-3.577333">
        <ele>1636.0</ele>
        <time>2016-07-25T12:54:47Z</time>
      </trkpt>
      <trkpt lat="41.222300" lon="-3.577467">
        <ele>1638.0</ele>
        <time>2016-07-25T12:54:49Z</time>
      </trkpt>
      <trkpt lat="41.222317" lon="-3.577550">
        <ele>1641.0</ele>
        <time>2016-07-25T12:54:51Z</time>
      </trkpt>
      <trkpt lat="41.222400" lon="-3.577633">
        <ele>1639.0</ele>
        <time>2016-07-25T12:54:53Z</time>
      </trkpt>
      <trkpt lat="41.222567" lon="-3.577717">
        <ele>1637.0</ele>
        <time>2016-07-25T12:54:55Z</time>
      </trkpt>
      <trkpt lat="41.222733" lon="-3.577700">
        <ele>1642.0</ele>
        <time>2016-07-25T12:54:57Z</time>
      </trkpt>
      <trkpt lat="41.222900" lon="-3.577617">
        <ele>1646.0</ele>
        <time>2016-07-25T12:54:59Z</time>
      </trkpt>
      <trkpt lat="41.223083" lon="-3.577517">
        <ele>1647.0</ele>
        <time>2016-07-25T12:55:01Z</time>
      </trkpt>
      <trkpt lat="41.223267" lon="-3.577383">
        <ele>1648.0</ele>
        <time>2016-07-25T12:55:03Z</time>
      </trkpt>
      <trkpt lat="41.223467" lon="-3.577200">
        <ele>1651.0</ele>
        <time>2016-07-25T12:55:05Z</time>
      </trkpt>
      <trkpt lat="41.223650" lon="-3.577033">
        <ele>1656.0</ele>
        <time>2016-07-25T12:55:07Z</time>
      </trkpt>
      <trkpt lat="41.223767" lon="-3.576850">
        <ele>1660.0</ele>
        <time>2016-07-25T12:55:09Z</time>
      </trkpt>
      <trkpt lat="41.223850" lon="-3.576600">
        <ele>1660.0</ele>
        <time>2016-07-25T12:55:11Z</time>
      </trkpt>
      <trkpt lat="41.223867" lon="-3.576267">
        <ele>1661.0</ele>
        <time>2016-07-25T12:55:13Z</time>
      </trkpt>
      <trkpt lat="41.223767" lon="-3.576017">
        <ele>1664.0</ele>
        <time>2016-07-25T12:55:15Z</time>
      </trkpt>
      <trkpt lat="41.223650" lon="-3.575850">
        <ele>1668.0</ele>
        <time>2016-07-25T12:55:17Z</time>
      </trkpt>
      <trkpt lat="41.223517" lon="-3.575750">
        <ele>1669.0</ele>
        <time>2016-07-25T12:55:19Z</time>
      </trkpt>
      <trkpt lat="41.223350" lon="-3.575767">
        <ele>1670.0</ele>
        <time>2016-07-25T12:55:21Z</time>
      </trkpt>
      <trkpt lat="41.223267" lon="-3.575850">
        <ele>1673.0</ele>
        <time>2016-07-25T12:55:23Z</time>
      </trkpt>
      <trkpt lat="41.223233" lon="-3.575967">
        <ele>1675.0</ele>
        <time>2016-07-25T12:55:25Z</time>
      </trkpt>
      <trkpt lat="41.223283" lon="-3.576083">
        <ele>1677.0</ele>
        <time>2016-07-25T12:55:27Z</time>
      </trkpt>
      <trkpt lat="41.223417" lon="-3.576167">
        <ele>1680.0</ele>
        <time>2016-07-25T12:55:29Z</time>
      </trkpt>
      <trkpt lat="41.223583" lon="-3.576183">
        <ele>1687.0</ele>
        <time>2016-07-25T12:55:31Z</time>
      </trkpt>
      <trkpt lat="41.223733" lon="-3.576117">
        <ele>1692.0</ele>
        <time>2016-07-25T12:55:33Z</time>
      </trkpt>
      <trkpt lat="41.223900" lon="-3.575967">
        <ele>1694.0</ele>
        <time>2016-07-25T12:55:35Z</time>
      </trkpt>
      <trkpt lat="41.224017" lon="-3.575717">
        <ele>1696.0</ele>
        <time>2016-07-25T12:55:37Z</time>
      </trkpt>
      <trkpt lat="41.224000" lon="-3.575417">
        <ele>1697.0</ele>
        <time>2016-07-25T12:55:39Z</time>
      </trkpt>
      <trkpt lat="41.223917" lon="-3.575167">
        <ele>1700.0</ele>
        <time>2016-07-25T12:55:41Z</time>
      </trkpt>
      <trkpt lat="41.223783" lon="-3.574967">
        <ele>1700.0</ele>
        <time>2016-07-25T12:55:43Z</time>
      </trkpt>
      <trkpt lat="41.223583" lon="-3.574867">
        <ele>1702.0</ele>
        <time>2016-07-25T12:55:45Z</time>
      </trkpt>
      <trkpt lat="41.223433" lon="-3.574867">
        <ele>1708.0</ele>
        <time>2016-07-25T12:55:47Z</time>
      </trkpt>
      <trkpt lat="41.223333" lon="-3.574883">
        <ele>1713.0</ele>
        <time>2016-07-25T12:55:49Z</time>
      </trkpt>
      <trkpt lat="41.223250" lon="-3.575017">
        <ele>1712.0</ele>
        <time>2016-07-25T12:55:51Z</time>
      </trkpt>
      <trkpt lat="41.223283" lon="-3.575200">
        <ele>1715.0</ele>
        <time>2016-07-25T12:55:53Z</time>
      </trkpt>
      <trkpt lat="41.223400" lon="-3.575300">
        <ele>1720.0</ele>
        <time>2016-07-25T12:55:55Z</time>
      </trkpt>
      <trkpt lat="41.223567" lon="-3.575367">
        <ele>1723.0</ele>
        <time>2016-07-25T12:55:57Z</time>
      </trkpt>
      <trkpt lat="41.223750" lon="-3.575383">
        <ele>1725.0</ele>
        <time>2016-07-25T12:55:59Z</time>
      </trkpt>
      <trkpt lat="41.223950" lon="-3.575283">
        <ele>1729.0</ele>
        <time>2016-07-25T12:56:01Z</time>
      </trkpt>
      <trkpt lat="41.224117" lon="-3.575133">
        <ele>1733.0</ele>
        <time>2016-07-25T12:56:03Z</time>
      </trkpt>
      <trkpt lat="41.224250" lon="-3.574917">
        <ele>1735.0</ele>
        <time>2016-07-25T12:56:05Z</time>
      </trkpt>
      <trkpt lat="41.224367" lon="-3.574633">
        <ele>1738.0</ele>
        <time>2016-07-25T12:56:07Z</time>
      </trkpt>
      <trkpt lat="41.224433" lon="-3.574350">
        <ele>1741.0</ele>
        <time>2016-07-25T12:56:09Z</time>
      </trkpt>
      <trkpt lat="41.224450" lon="-3.574050">
        <ele>1743.0</ele>
        <time>2016-07-25T12:56:11Z</time>
      </trkpt>
      <trkpt lat="41.224433" lon="-3.573717">
        <ele>1746.0</ele>
        <time>2016-07-25T12:56:13Z</time>
      </trkpt>
      <trkpt lat="41.224383" lon="-3.573433">
        <ele>1751.0</ele>
        <time>2016-07-25T12:56:15Z</time>
      </trkpt>
      <trkpt lat="41.224300" lon="-3.573183">
        <ele>1753.0</ele>
        <time>2016-07-25T12:56:17Z</time>
      </trkpt>
      <trkpt lat="41.224150" lon="-3.572967">
        <ele>1753.0</ele>
        <time>2016-07-25T12:56:19Z</time>
      </trkpt>
      <trkpt lat="41.223950" lon="-3.572850">
        <ele>1754.0</ele>
        <time>2016-07-25T12:56:21Z</time>
      </trkpt>
      <trkpt lat="41.223767" lon="-3.572800">
        <ele>1758.0</ele>
        <time>2016-07-25T12:56:23Z</time>
      </trkpt>
      <trkpt lat="41.223633" lon="-3.572767">
        <ele>1759.0</ele>
        <time>2016-07-25T12:56:25Z</time>
      </trkpt>
      <trkpt lat="41.223483" lon="-3.572817">
        <ele>1760.0</ele>
        <time>2016-07-25T12:56:27Z</time>
      </trkpt>
      <trkpt lat="41.223383" lon="-3.572933">
        <ele>1763.0</ele>
        <time>2016-07-25T12:56:29Z</time>
      </trkpt>
      <trkpt lat="41.223317" lon="-3.573083">
        <ele>1764.0</ele>
        <time>2016-07-25T12:56:31Z</time>
      </trkpt>
      <trkpt lat="41.223317" lon="-3.573250">
        <ele>1766.0</ele>
        <time>2016-07-25T12:56:33Z</time>
      </trkpt>
      <trkpt lat="41.223400" lon="-3.573400">
        <ele>1766.0</ele>
        <time>2016-07-25T12:56:35Z</time>
      </trkpt>
      <trkpt lat="41.223533" lon="-3.573517">
        <ele>1769.0</ele>
        <time>2016-07-25T12:56:37Z</time>
      </trkpt>
      <trkpt lat="41.223683" lon="-3.573583">
        <ele>1774.0</ele>
        <time>2016-07-25T12:56:39Z</time>
      </trkpt>
      <trkpt lat="41.223850" lon="-3.573600">
        <ele>1779.0</ele>
        <time>2016-07-25T12:56:41Z</time>
      </trkpt>
      <trkpt lat="41.224000" lon="-3.573600">
        <ele>1781.0</ele>
        <time>2016-07-25T12:56:43Z</time>
      </trkpt>
      <trkpt lat="41.224200" lon="-3.573533">
        <ele>1781.0</ele>
        <time>2016-07-25T12:56:45Z</time>
      </trkpt>
      <trkpt lat="41.224400" lon="-3.573383">
        <ele>1784.0</ele>
        <time>2016-07-25T12:56:47Z</time>
      </trkpt>
      <trkpt lat="41.224550" lon="-3.573217">
        <ele>1790.0</ele>
        <time>2016-07-25T12:56:49Z</time>
      </trkpt>
      <trkpt lat="41.224667" lon="-3.573017">
        <ele>1793.0</ele>
        <time>2016-07-25T12:56:51Z</time>
      </trkpt>
      <trkpt lat="41.224767" lon="-3.572733">
        <ele>1793.0</ele>
        <time>2016-07-25T12:56:53Z</time>
      </trkpt>
      <trkpt lat="41.224817" lon="-3.572450">
        <ele>1797.0</ele>
        <time>2016-07-25T12:56:55Z</time>
      </trkpt>
      <trkpt lat="41.224800" lon="-3.572150">
        <ele>1798.0</ele>
        <time>2016-07-25T12:56:57Z</time>
      </trkpt>
      <trkpt lat="41.224717" lon="-3.571833">
        <ele>1798.0</ele>
        <time>2016-07-25T12:56:59Z</time>
      </trkpt>
      <trkpt lat="41.224567" lon="-3.571550">
        <ele>1800.0</ele>
        <time>2016-07-25T12:57:01Z</time>
      </trkpt>
      <trkpt lat="41.224383" lon="-3.571350">
        <ele>1803.0</ele>
        <time>2016-07-25T12:57:03Z</time>
      </trkpt>
      <trkpt lat="41.224200" lon="-3.571233">
        <ele>1805.0</ele>
        <time>2016-07-25T12:57:05Z</time>
      </trkpt>
      <trkpt lat="41.224017" lon="-3.571250">
        <ele>1805.0</ele>
        <time>2016-07-25T12:57:07Z</time>
      </trkpt>
      <trkpt lat="41.223867" lon="-3.571350">
        <ele>1808.0</ele>
        <time>2016-07-25T12:57:09Z</time>
      </trkpt>
      <trkpt lat="41.223783" lon="-3.571450">
        <ele>1812.0</ele>
        <time>2016-07-25T12:57:11Z</time>
      </trkpt>
      <trkpt lat="41.223750" lon="-3.571567">
        <ele>1814.0</ele>
        <time>2016-07-25T12:57:13Z</time>
      </trkpt>
      <trkpt lat="41.223767" lon="-3.571700">
        <ele>1815.0</ele>
        <time>2016-07-25T12:57:15Z</time>
      </trkpt>
      <trkpt lat="41.223867" lon="-3.571817">
        <ele>1817.0</ele>
        <time>2016-07-25T12:57:17Z</time>
      </trkpt>
      <trkpt lat="41.223983" lon="-3.571867">
        <ele>1820.0</ele>
        <time>2016-07-25T12:57:19Z</time>
      </trkpt>
      <trkpt lat="41.224150" lon="-3.571850">
        <ele>1821.0</ele>
        <time>2016-07-25T12:57:21Z</time>
      </trkpt>
      <trkpt lat="41.224333" lon="-3.571783">
        <ele>1823.0</ele>
        <time>2016-07-25T12:57:23Z</time>
      </trkpt>
      <trkpt lat="41.224483" lon="-3.571700">
        <ele>1828.0</ele>
        <time>2016-07-25T12:57:25Z</time>
      </trkpt>
      <trkpt lat="41.224600" lon="-3.571533">
        <ele>1830.0</ele>
        <time>2016-07-25T12:57:27Z</time>
      </trkpt>
      <trkpt lat="41.224733" lon="-3.571333">
        <ele>1831.0</ele>
        <time>2016-07-25T12:57:29Z</time>
      </trkpt>
      <trkpt lat="41.224817" lon="-3.571083">
        <ele>1835.0</ele>
        <time>2016-07-25T12:57:31Z</time>
      </trkpt>
      <trkpt lat="41.224833" lon="-3.570800">
        <ele>1837.0</ele>
        <time>2016-07-25T12:57:33Z</time>
      </trkpt>
      <trkpt lat="41.224783" lon="-3.570483">
        <ele>1838.0</ele>
        <time>2016-07-25T12:57:35Z</time>
      </trkpt>
      <trkpt lat="41.224650" lon="-3.570200">
        <ele>1840.0</ele>
        <time>2016-07-25T12:57:37Z</time>
      </trkpt>
      <trkpt lat="41.224450" lon="-3.570033">
        <ele>1845.0</ele>
        <time>2016-07-25T12:57:39Z</time>
      </trkpt>
      <trkpt lat="41.224267" lon="-3.569950">
        <ele>1848.0</ele>
        <time>2016-07-25T12:57:41Z</time>
      </trkpt>
      <trkpt lat="41.224050" lon="-3.569900">
        <ele>1850.0</ele>
        <time>2016-07-25T12:57:43Z</time>
      </trkpt>
      <trkpt lat="41.223833" lon="-3.569933">
        <ele>1851.0</ele>
        <time>2016-07-25T12:57:45Z</time>
      </trkpt>
      <trkpt lat="41.223700" lon="-3.570050">
        <ele>1855.0</ele>
        <time>2016-07-25T12:57:47Z</time>
      </trkpt>
      <trkpt lat="41.223650" lon="-3.570183">
        <ele>1857.0</ele>
        <time>2016-07-25T12:57:49Z</time>
      </trkpt>
      <trkpt lat="41.223667" lon="-3.570333">
        <ele>1859.0</ele>
        <time>2016-07-25T12:57:51Z</time>
      </trkpt>
      <trkpt lat="41.223750" lon="-3.570433">
        <ele>1861.0</ele>
        <time>2016-07-25T12:57:53Z</time>
      </trkpt>
      <trkpt lat="41.223850" lon="-3.570483">
        <ele>1863.0</ele>
        <time>2016-07-25T12:57:55Z</time>
      </trkpt>
      <trkpt lat="41.224000" lon="-3.570467">
        <ele>1864.0</ele>
        <time>2016-07-25T12:57:57Z</time>
      </trkpt>
      <trkpt lat="41.224133" lon="-3.570383">
        <ele>1867.0</ele>
        <time>2016-07-25T12:57:59Z</time>
      </trkpt>
      <trkpt lat="41.224267" lon="-3.570283">
        <ele>1869.0</ele>
        <time>2016-07-25T12:58:01Z</time>
      </trkpt>
      <trkpt lat="41.224400" lon="-3.570067">
        <ele>1870.0</ele>
        <time>2016-07-25T12:58:03Z</time>
      </trkpt>
      <trkpt lat="41.224483" lon="-3.569800">
        <ele>1873.0</ele>
        <time>2016-07-25T12:58:05Z</time>
      </trkpt>
      <trkpt lat="41.224517" lon="-3.569483">
        <ele>1877.0</ele>
        <time>2016-07-25T12:58:07Z</time>
      </trkpt>
      <trkpt lat="41.224483" lon="-3.569150">
        <ele>1882.0</ele>
        <time>2016-07-25T12:58:09Z</time>
      </trkpt>
      <trkpt lat="41.224450" lon="-3.568833">
        <ele>1885.0</ele>
        <time>2016-07-25T12:58:11Z</time>
      </trkpt>
      <trkpt lat="41.224350" lon="-3.568517">
        <ele>1886.0</ele>
        <time>2016-07-25T12:58:13Z</time>
      </trkpt>
      <trkpt lat="41.224167" lon="-3.568267">
        <ele>1889.0</ele>
        <time>2016-07-25T12:58:15Z</time>
      </trkpt>
      <trkpt lat="41.223967" lon="-3.568167">
        <ele>1891.0</ele>
        <time>2016-07-25T12:58:17Z</time>
      </trkpt>
      <trkpt lat="41.223733" lon="-3.568150">
        <ele>1893.0</ele>
        <time>2016-07-25T12:58:19Z</time>
      </trkpt>
      <trkpt lat="41.223550" lon="-3.568233">
        <ele>1899.0</ele>
        <time>2016-07-25T12:58:21Z</time>
      </trkpt>
      <trkpt lat="41.223433" lon="-3.568350">
        <ele>1904.0</ele>
        <time>2016-07-25T12:58:23Z</time>
      </trkpt>
      <trkpt lat="41.223350" lon="-3.568550">
        <ele>1906.0</ele>
        <time>2016-07-25T12:58:25Z</time>
      </trkpt>
      <trkpt lat="41.223383" lon="-3.568717">
        <ele>1906.0</ele>
        <time>2016-07-25T12:58:27Z</time>
      </trkpt>
      <trkpt lat="41.223550" lon="-3.568717">
        <ele>1908.0</ele>
        <time>2016-07-25T12:58:29Z</time>
      </trkpt>
      <trkpt lat="41.223683" lon="-3.568683">
        <ele>1913.0</ele>
        <time>2016-07-25T12:58:31Z</time>
      </trkpt>
      <trkpt lat="41.223817" lon="-3.568667">
        <ele>1913.0</ele>
        <time>2016-07-25T12:58:33Z</time>
      </trkpt>
      <trkpt lat="41.223983" lon="-3.568550">
        <ele>1913.0</ele>
        <time>2016-07-25T12:58:35Z</time>
      </trkpt>
      <trkpt lat="41.224100" lon="-3.568300">
        <ele>1918.0</ele>
        <time>2016-07-25T12:58:37Z</time>
      </trkpt>
      <trkpt lat="41.224150" lon="-3.568017">
        <ele>1923.0</ele>
        <time>2016-07-25T12:58:39Z</time>
      </trkpt>
      <trkpt lat="41.224133" lon="-3.567717">
        <ele>1926.0</ele>
        <time>2016-07-25T12:58:41Z</time>
      </trkpt>
      <trkpt lat="41.224083" lon="-3.567367">
        <ele>1930.0</ele>
        <time>2016-07-25T12:58:43Z</time>
      </trkpt>
      <trkpt lat="41.223950" lon="-3.567067">
        <ele>1935.0</ele>
        <time>2016-07-25T12:58:45Z</time>
      </trkpt>
      <trkpt lat="41.223800" lon="-3.566867">
        <ele>1939.0</ele>
        <time>2016-07-25T12:58:47Z</time>
      </trkpt>
      <trkpt lat="41.223617" lon="-3.566717">
        <ele>1939.0</ele>
        <time>2016-07-25T12:58:49Z</time>
      </trkpt>
      <trkpt lat="41.223383" lon="-3.566617">
        <ele>1938.0</ele>
        <time>2016-07-25T12:58:51Z</time>
      </trkpt>
      <trkpt lat="41.223150" lon="-3.566617">
        <ele>1939.0</ele>
        <time>2016-07-25T12:58:53Z</time>
      </trkpt>
      <trkpt lat="41.222983" lon="-3.566717">
        <ele>1938.0</ele>
        <time>2016-07-25T12:58:55Z</time>
      </trkpt>
      <trkpt lat="41.222833" lon="-3.566933">
        <ele>1938.0</ele>
        <time>2016-07-25T12:58:57Z</time>
      </trkpt>
      <trkpt lat="41.222767" lon="-3.567167">
        <ele>1947.0</ele>
        <time>2016-07-25T12:58:59Z</time>
      </trkpt>
      <trkpt lat="41.222733" lon="-3.567283">
        <ele>1954.0</ele>
        <time>2016-07-25T12:59:01Z</time>
      </trkpt>
      <trkpt lat="41.222733" lon="-3.567417">
        <ele>1956.0</ele>
        <time>2016-07-25T12:59:03Z</time>
      </trkpt>
      <trkpt lat="41.222800" lon="-3.567550">
        <ele>1957.0</ele>
        <time>2016-07-25T12:59:05Z</time>
      </trkpt>
      <trkpt lat="41.222933" lon="-3.567550">
        <ele>1959.0</ele>
        <time>2016-07-25T12:59:07Z</time>
      </trkpt>
      <trkpt lat="41.223067" lon="-3.567433">
        <ele>1960.0</ele>
        <time>2016-07-25T12:59:09Z</time>
      </trkpt>
      <trkpt lat="41.223183" lon="-3.567233">
        <ele>1965.0</ele>
        <time>2016-07-25T12:59:11Z</time>
      </trkpt>
      <trkpt lat="41.223250" lon="-3.566983">
        <ele>1971.0</ele>
        <time>2016-07-25T12:59:13Z</time>
      </trkpt>
      <trkpt lat="41.223267" lon="-3.566717">
        <ele>1975.0</ele>
        <time>2016-07-25T12:59:15Z</time>
      </trkpt>
      <trkpt lat="41.223217" lon="-3.566417">
        <ele>1978.0</ele>
        <time>2016-07-25T12:59:17Z</time>
      </trkpt>
      <trkpt lat="41.223067" lon="-3.566133">
        <ele>1983.0</ele>
        <time>2016-07-25T12:59:19Z</time>
      </trkpt>
      <trkpt lat="41.222867" lon="-3.565967">
        <ele>1988.0</ele>
        <time>2016-07-25T12:59:21Z</time>
      </trkpt>
      <trkpt lat="41.222650" lon="-3.565867">
        <ele>1991.0</ele>
        <time>2016-07-25T12:59:23Z</time>
      </trkpt>
      <trkpt lat="41.222417" lon="-3.565883">
        <ele>1994.0</ele>
        <time>2016-07-25T12:59:25Z</time>
      </trkpt>
      <trkpt lat="41.222233" lon="-3.566000">
        <ele>1998.0</ele>
        <time>2016-07-25T12:59:27Z</time>
      </trkpt>
      <trkpt lat="41.222133" lon="-3.566117">
        <ele>2003.0</ele>
        <time>2016-07-25T12:59:29Z</time>
      </trkpt>
      <trkpt lat="41.222100" lon="-3.566283">
        <ele>2004.0</ele>
        <time>2016-07-25T12:59:31Z</time>
      </trkpt>
      <trkpt lat="41.222183" lon="-3.566433">
        <ele>2007.0</ele>
        <time>2016-07-25T12:59:33Z</time>
      </trkpt>
      <trkpt lat="41.222267" lon="-3.566467">
        <ele>2013.0</ele>
        <time>2016-07-25T12:59:35Z</time>
      </trkpt>
      <trkpt lat="41.222350" lon="-3.566467">
        <ele>2013.0</ele>
        <time>2016-07-25T12:59:37Z</time>
      </trkpt>
      <trkpt lat="41.222533" lon="-3.566450">
        <ele>2011.0</ele>
        <time>2016-07-25T12:59:39Z</time>
      </trkpt>
      <trkpt lat="41.222700" lon="-3.566367">
        <ele>2018.0</ele>
        <time>2016-07-25T12:59:41Z</time>
      </trkpt>
      <trkpt lat="41.222817" lon="-3.566283">
        <ele>2023.0</ele>
        <time>2016-07-25T12:59:43Z</time>
      </trkpt>
      <trkpt lat="41.222933" lon="-3.566200">
        <ele>2026.0</ele>
        <time>2016-07-25T12:59:45Z</time>
      </trkpt>
      <trkpt lat="41.223033" lon="-3.566017">
        <ele>2034.0</ele>
        <time>2016-07-25T12:59:47Z</time>
      </trkpt>
      <trkpt lat="41.223067" lon="-3.565800">
        <ele>2043.0</ele>
        <time>2016-07-25T12:59:49Z</time>
      </trkpt>
      <trkpt lat="41.223050" lon="-3.565550">
        <ele>2049.0</ele>
        <time>2016-07-25T12:59:51Z</time>
      </trkpt>
      <trkpt lat="41.222983" lon="-3.565233">
        <ele>2054.0</ele>
        <time>2016-07-25T12:59:53Z</time>
      </trkpt>
      <trkpt lat="41.222850" lon="-3.565017">
        <ele>2060.0</ele>
        <time>2016-07-25T12:59:55Z</time>
      </trkpt>
      <trkpt lat="41.222667" lon="-3.564883">
        <ele>2063.0</ele>
        <time>2016-07-25T12:59:57Z</time>
      </trkpt>
      <trkpt lat="41.222450" lon="-3.564850">
        <ele>2065.0</ele>
        <time>2016-07-25T12:59:59Z</time>
      </trkpt>
      <trkpt lat="41.222283" lon="-3.564967">
        <ele>2068.0</ele>
        <time>2016-07-25T13:00:01Z</time>
      </trkpt>
      <trkpt lat="41.222167" lon="-3.565133">
        <ele>2074.0</ele>
        <time>2016-07-25T13:00:03Z</time>
      </trkpt>
      <trkpt lat="41.222083" lon="-3.565233">
        <ele>2080.0</ele>
        <time>2016-07-25T13:00:05Z</time>
      </trkpt>
      <trkpt lat="41.222083" lon="-3.565317">
        <ele>2082.0</ele>
        <time>2016-07-25T13:00:07Z</time>
      </trkpt>
      <trkpt lat="41.222117" lon="-3.565417">
        <ele>2085.0</ele>
        <time>2016-07-25T13:00:09Z</time>
      </trkpt>
      <trkpt lat="41.222200" lon="-3.565450">
        <ele>2089.0</ele>
        <time>2016-07-25T13:00:11Z</time>
      </trkpt>
      <trkpt lat="41.222317" lon="-3.565400">
        <ele>2094.0</ele>
        <time>2016-07-25T13:00:13Z</time>
      </trkpt>
      <trkpt lat="41.222400" lon="-3.565300">
        <ele>2100.0</ele>
        <time>2016-07-25T13:00:15Z</time>
      </trkpt>
      <trkpt lat="41.222450" lon="-3.565100">
        <ele>2104.0</ele>
        <time>2016-07-25T13:00:17Z</time>
      </trkpt>
      <trkpt lat="41.222450" lon="-3.564833">
        <ele>2110.0</ele>
        <time>2016-07-25T13:00:19Z</time>
      </trkpt>
      <trkpt lat="41.222433" lon="-3.564583">
        <ele>2116.0</ele>
        <time>2016-07-25T13:00:21Z</time>
      </trkpt>
      <trkpt lat="41.222333" lon="-3.564300">
        <ele>2120.0</ele>
        <time>2016-07-25T13:00:23Z</time>
      </trkpt>
      <trkpt lat="41.222150" lon="-3.564100">
        <ele>2124.0</ele>
        <time>2016-07-25T13:00:25Z</time>
      </trkpt>
      <trkpt lat="41.221967" lon="-3.564050">
        <ele>2127.0</ele>
        <time>2016-07-25T13:00:27Z</time>
      </trkpt>
      <trkpt lat="41.221767" lon="-3.564100">
        <ele>2126.0</ele>
        <time>2016-07-25T13:00:29Z</time>
      </trkpt>
      <trkpt lat="41.221600" lon="-3.564250">
        <ele>2130.0</ele>
        <time>2016-07-25T13:00:31Z</time>
      </trkpt>
      <trkpt lat="41.221483" lon="-3.564417">
        <ele>2136.0</ele>
        <time>2016-07-25T13:00:33Z</time>
      </trkpt>
      <trkpt lat="41.221350" lon="-3.564550">
        <ele>2142.0</ele>
        <time>2016-07-25T13:00:35Z</time>
      </trkpt>
      <trkpt lat="41.221250" lon="-3.564717">
        <ele>2147.0</ele>
        <time>2016-07-25T13:00:37Z</time>
      </trkpt>
      <trkpt lat="41.221217" lon="-3.564883">
        <ele>2151.0</ele>
        <time>2016-07-25T13:00:39Z</time>
      </trkpt>
      <trkpt lat="41.221250" lon="-3.565033">
        <ele>2154.0</ele>
        <time>2016-07-25T13:00:41Z</time>
      </trkpt>
      <trkpt lat="41.221333" lon="-3.565117">
        <ele>2155.0</ele>
        <time>2016-07-25T13:00:43Z</time>
      </trkpt>
      <trkpt lat="41.221467" lon="-3.565133">
        <ele>2156.0</ele>
        <time>2016-07-25T13:00:45Z</time>
      </trkpt>
      <trkpt lat="41.221617" lon="-3.565050">
        <ele>2157.0</ele>
        <time>2016-07-25T13:00:47Z</time>
      </trkpt>
      <trkpt lat="41.221750" lon="-3.564850">
        <ele>2156.0</ele>
        <time>2016-07-25T13:00:49Z</time>
      </trkpt>
      <trkpt lat="41.221833" lon="-3.564600">
        <ele>2157.0</ele>
        <time>2016-07-25T13:00:51Z</time>
      </trkpt>
      <trkpt lat="41.221867" lon="-3.564317">
        <ele>2160.0</ele>
        <time>2016-07-25T13:00:53Z</time>
      </trkpt>
      <trkpt lat="41.221817" lon="-3.564000">
        <ele>2165.0</ele>
        <time>2016-07-25T13:00:55Z</time>
      </trkpt>
      <trkpt lat="41.221700" lon="-3.563717">
        <ele>2169.0</ele>
        <time>2016-07-25T13:00:57Z</time>
      </trkpt>
      <trkpt lat="41.221500" lon="-3.563517">
        <ele>2172.0</ele>
        <time>2016-07-25T13:00:59Z</time>
      </trkpt>
      <trkpt lat="41.221267" lon="-3.563417">
        <ele>2174.0</ele>
        <time>2016-07-25T13:01:01Z</time>
      </trkpt>
      <trkpt lat="41.221033" lon="-3.563400">
        <ele>2176.0</ele>
        <time>2016-07-25T13:01:03Z</time>
      </trkpt>
      <trkpt lat="41.220800" lon="-3.563500">
        <ele>2177.0</ele>
        <time>2016-07-25T13:01:05Z</time>
      </trkpt>
      <trkpt lat="41.220633" lon="-3.563683">
        <ele>2180.0</ele>
        <time>2016-07-25T13:01:07Z</time>
      </trkpt>
      <trkpt lat="41.220533" lon="-3.563867">
        <ele>2184.0</ele>
        <time>2016-07-25T13:01:09Z</time>
      </trkpt>
      <trkpt lat="41.220483" lon="-3.564067">
        <ele>2186.0</ele>
        <time>2016-07-25T13:01:11Z</time>
      </trkpt>
      <trkpt lat="41.220500" lon="-3.564267">
        <ele>2188.0</ele>
        <time>2016-07-25T13:01:13Z</time>
      </trkpt>
      <trkpt lat="41.220550" lon="-3.564450">
        <ele>2193.0</ele>
        <time>2016-07-25T13:01:15Z</time>
      </trkpt>
      <trkpt lat="41.220617" lon="-3.564583">
        <ele>2197.0</ele>
        <time>2016-07-25T13:01:17Z</time>
      </trkpt>
      <trkpt lat="41.220733" lon="-3.564667">
        <ele>2198.0</ele>
        <time>2016-07-25T13:01:19Z</time>
      </trkpt>
      <trkpt lat="41.220883" lon="-3.564700">
        <ele>2200.0</ele>
        <time>2016-07-25T13:01:21Z</time>
      </trkpt>
      <trkpt lat="41.221033" lon="-3.564633">
        <ele>2203.0</ele>
        <time>2016-07-25T13:01:23Z</time>
      </trkpt>
      <trkpt lat="41.221150" lon="-3.564500">
        <ele>2206.0</ele>
        <time>2016-07-25T13:01:25Z</time>
      </trkpt>
      <trkpt lat="41.221250" lon="-3.564317">
        <ele>2207.0</ele>
        <time>2016-07-25T13:01:27Z</time>
      </trkpt>
      <trkpt lat="41.221317" lon="-3.564050">
        <ele>2209.0</ele>
        <time>2016-07-25T13:01:29Z</time>
      </trkpt>
      <trkpt lat="41.221283" lon="-3.563783">
        <ele>2213.0</ele>
        <time>2016-07-25T13:01:31Z</time>
      </trkpt>
      <trkpt lat="41.221167" lon="-3.563550">
        <ele>2215.0</ele>
        <time>2016-07-25T13:01:33Z</time>
      </trkpt>
      <trkpt lat="41.220967" lon="-3.563400">
        <ele>2216.0</ele>
        <time>2016-07-25T13:01:35Z</time>
      </trkpt>
      <trkpt lat="41.220750" lon="-3.563400">
        <ele>2217.0</ele>
        <time>2016-07-25T13:01:37Z</time>
      </trkpt>
      <trkpt lat="41.220583" lon="-3.563533">
        <ele>2221.0</ele>
        <time>2016-07-25T13:01:39Z</time>
      </trkpt>
      <trkpt lat="41.220500" lon="-3.563683">
        <ele>2225.0</ele>
        <time>2016-07-25T13:01:41Z</time>
      </trkpt>
      <trkpt lat="41.220467" lon="-3.563850">
        <ele>2227.0</ele>
        <time>2016-07-25T13:01:43Z</time>
      </trkpt>
      <trkpt lat="41.220483" lon="-3.564067">
        <ele>2229.0</ele>
        <time>2016-07-25T13:01:45Z</time>
      </trkpt>
      <trkpt lat="41.220550" lon="-3.564233">
        <ele>2233.0</ele>
        <time>2016-07-25T13:01:47Z</time>
      </trkpt>
      <trkpt lat="41.220667" lon="-3.564350">
        <ele>2236.0</ele>
        <time>2016-07-25T13:01:49Z</time>
      </trkpt>
      <trkpt lat="41.220800" lon="-3.564383">
        <ele>2239.0</ele>
        <time>2016-07-25T13:01:51Z</time>
      </trkpt>
      <trkpt lat="41.220950" lon="-3.564367">
        <ele>2239.0</ele>
        <time>2016-07-25T13:01:53Z</time>
      </trkpt>
      <trkpt lat="41.221150" lon="-3.564267">
        <ele>2238.0</ele>
        <time>2016-07-25T13:01:55Z</time>
      </trkpt>
      <trkpt lat="41.221300" lon="-3.564067">
        <ele>2241.0</ele>
        <time>2016-07-25T13:01:57Z</time>
      </trkpt>
      <trkpt lat="41.221400" lon="-3.563850">
        <ele>2245.0</ele>
        <time>2016-07-25T13:01:59Z</time>
      </trkpt>
      <trkpt lat="41.221450" lon="-3.563567">
        <ele>2247.0</ele>
        <time>2016-07-25T13:02:01Z</time>
      </trkpt>
      <trkpt lat="41.221367" lon="-3.563267">
        <ele>2251.0</ele>
        <time>2016-07-25T13:02:03Z</time>
      </trkpt>
      <trkpt lat="41.221250" lon="-3.563050">
        <ele>2256.0</ele>
        <time>2016-07-25T13:02:05Z</time>
      </trkpt>
      <trkpt lat="41.221083" lon="-3.562917">
        <ele>2260.0</ele>
        <time>2016-07-25T13:02:07Z</time>
      </trkpt>
      <trkpt lat="41.220883" lon="-3.562883">
        <ele>2264.0</ele>
        <time>2016-07-25T13:02:09Z</time>
      </trkpt>
      <trkpt lat="41.220750" lon="-3.562967">
        <ele>2269.0</ele>
        <time>2016-07-25T13:02:11Z</time>
      </trkpt>
      <trkpt lat="41.220667" lon="-3.563083">
        <ele>2274.0</ele>
        <time>2016-07-25T13:02:13Z</time>
      </trkpt>
      <trkpt lat="41.220650" lon="-3.563250">
        <ele>2277.0</ele>
        <time>2016-07-25T13:02:15Z</time>
      </trkpt>
      <trkpt lat="41.220733" lon="-3.563383">
        <ele>2278.0</ele>
        <time>2016-07-25T13:02:17Z</time>
      </trkpt>
      <trkpt lat="41.220917" lon="-3.563417">
        <ele>2279.0</ele>
        <time>2016-07-25T13:02:19Z</time>
      </trkpt>
      <trkpt lat="41.221100" lon="-3.563400">
        <ele>2283.0</ele>
        <time>2016-07-25T13:02:21Z</time>
      </trkpt>
      <trkpt lat="41.221267" lon="-3.563317">
        <ele>2287.0</ele>
        <time>2016-07-25T13:02:23Z</time>
      </trkpt>
      <trkpt lat="41.221433" lon="-3.563133">
        <ele>2288.0</ele>
        <time>2016-07-25T13:02:25Z</time>
      </trkpt>
      <trkpt lat="41.221583" lon="-3.562883">
        <ele>2290.0</ele>
        <time>2016-07-25T13:02:27Z</time>
      </trkpt>
      <trkpt lat="41.221633" lon="-3.562583">
        <ele>2295.0</ele>
        <time>2016-07-25T13:02:29Z</time>
      </trkpt>
      <trkpt lat="41.221633" lon="-3.562267">
        <ele>2298.0</ele>
        <time>2016-07-25T13:02:31Z</time>
      </trkpt>
      <trkpt lat="41.221550" lon="-3.561950">
        <ele>2301.0</ele>
        <time>2016-07-25T13:02:33Z</time>
      </trkpt>
      <trkpt lat="41.221383" lon="-3.561717">
        <ele>2304.0</ele>
        <time>2016-07-25T13:02:35Z</time>
      </trkpt>
      <trkpt lat="41.221200" lon="-3.561600">
        <ele>2308.0</ele>
        <time>2016-07-25T13:02:37Z</time>
      </trkpt>
      <trkpt lat="41.221017" lon="-3.561617">
        <ele>2311.0</ele>
        <time>2016-07-25T13:02:39Z</time>
      </trkpt>
      <trkpt lat="41.220883" lon="-3.561750">
        <ele>2315.0</ele>
        <time>2016-07-25T13:02:41Z</time>
      </trkpt>
      <trkpt lat="41.220850" lon="-3.561917">
        <ele>2320.0</ele>
        <time>2016-07-25T13:02:43Z</time>
      </trkpt>
      <trkpt lat="41.220933" lon="-3.562050">
        <ele>2324.0</ele>
        <time>2016-07-25T13:02:45Z</time>
      </trkpt>
      <trkpt lat="41.221050" lon="-3.562117">
        <ele>2327.0</ele>
        <time>2016-07-25T13:02:47Z</time>
      </trkpt>
      <trkpt lat="41.221217" lon="-3.562100">
        <ele>2329.0</ele>
        <time>2016-07-25T13:02:49Z</time>
      </trkpt>
      <trkpt lat="41.221400" lon="-3.561967">
        <ele>2333.0</ele>
        <time>2016-07-25T13:02:51Z</time>
      </trkpt>
      <trkpt lat="41.221533" lon="-3.561783">
        <ele>2338.0</ele>
        <time>2016-07-25T13:02:53Z</time>
      </trkpt>
      <trkpt lat="41.221633" lon="-3.561533">
        <ele>2340.0</ele>
        <time>2016-07-25T13:02:55Z</time>
      </trkpt>
      <trkpt lat="41.221683" lon="-3.561217">
        <ele>2341.0</ele>
        <time>2016-07-25T13:02:57Z</time>
      </trkpt>
      <trkpt lat="41.221667" lon="-3.560900">
        <ele>2344.0</ele>
        <time>2016-07-25T13:02:59Z</time>
      </trkpt>
      <trkpt lat="41.221567" lon="-3.560600">
        <ele>2347.0</ele>
        <time>2016-07-25T13:03:01Z</time>
      </trkpt>
      <trkpt lat="41.221400" lon="-3.560350">
        <ele>2349.0</ele>
        <time>2016-07-25T13:03:03Z</time>
      </trkpt>
      <trkpt lat="41.221200" lon="-3.560217">
        <ele>2352.0</ele>
        <time>2016-07-25T13:03:05Z</time>
      </trkpt>
      <trkpt lat="41.221000" lon="-3.560183">
        <ele>2357.0</ele>
        <time>2016-07-25T13:03:07Z</time>
      </trkpt>
      <trkpt lat="41.220867" lon="-3.560267">
        <ele>2361.0</ele>
        <time>2016-07-25T13:03:09Z</time>
      </trkpt>
      <trkpt lat="41.220783" lon="-3.560383">
        <ele>2366.0</ele>
        <time>2016-07-25T13:03:11Z</time>
      </trkpt>
      <trkpt lat="41.220783" lon="-3.560533">
        <ele>2369.0</ele>
        <time>2016-07-25T13:03:13Z</time>
      </trkpt>
      <trkpt lat="41.220817" lon="-3.560683">
        <ele>2374.0</ele>
        <time>2016-07-25T13:03:15Z</time>
      </trkpt>
      <trkpt lat="41.220917" lon="-3.560767">
        <ele>2379.0</ele>
        <time>2016-07-25T13:03:17Z</time>
      </trkpt>
      <trkpt lat="41.221067" lon="-3.560767">
        <ele>2381.0</ele>
        <time>2016-07-25T13:03:19Z</time>
      </trkpt>
      <trkpt lat="41.221233" lon="-3.560667">
        <ele>2384.0</ele>
        <time>2016-07-25T13:03:21Z</time>
      </trkpt>
      <trkpt lat="41.221383" lon="-3.560467">
        <ele>2388.0</ele>
        <time>2016-07-25T13:03:23Z</time>
      </trkpt>
      <trkpt lat="41.221450" lon="-3.560183">
        <ele>2391.0</ele>
        <time>2016-07-25T13:03:25Z</time>
      </trkpt>
      <trkpt lat="41.221433" lon="-3.559883">
        <ele>2392.0</ele>
        <time>2016-07-25T13:03:27Z</time>
      </trkpt>
      <trkpt lat="41.221350" lon="-3.559567">
        <ele>2393.0</ele>
        <time>2016-07-25T13:03:29Z</time>
      </trkpt>
      <trkpt lat="41.221183" lon="-3.559317">
        <ele>2395.0</ele>
        <time>2016-07-25T13:03:31Z</time>
      </trkpt>
      <trkpt lat="41.220983" lon="-3.559200">
        <ele>2397.0</ele>
        <time>2016-07-25T13:03:33Z</time>
      </trkpt>
      <trkpt lat="41.220783" lon="-3.559233">
        <ele>2399.0</ele>
        <time>2016-07-25T13:03:35Z</time>
      </trkpt>
      <trkpt lat="41.220650" lon="-3.559317">
        <ele>2404.0</ele>
        <time>2016-07-25T13:03:37Z</time>
      </trkpt>
      <trkpt lat="41.220550" lon="-3.559417">
        <ele>2409.0</ele>
        <time>2016-07-25T13:03:39Z</time>
      </trkpt>
      <trkpt lat="41.220517" lon="-3.559533">
        <ele>2411.0</ele>
        <time>2016-07-25T13:03:41Z</time>
      </trkpt>
      <trkpt lat="41.220583" lon="-3.559683">
        <ele>2415.0</ele>
        <time>2016-07-25T13:03:43Z</time>
      </trkpt>
      <trkpt lat="41.220683" lon="-3.559767">
        <ele>2420.0</ele>
        <time>2016-07-25T13:03:45Z</time>
      </trkpt>
      <trkpt lat="41.220817" lon="-3.559817">
        <ele>2422.0</ele>
        <time>2016-07-25T13:03:47Z</time>
      </trkpt>
      <trkpt lat="41.221000" lon="-3.559783">
        <ele>2424.0</ele>
        <time>2016-07-25T13:03:49Z</time>
      </trkpt>
      <trkpt lat="41.221133" lon="-3.559633">
        <ele>2428.0</ele>
        <time>2016-07-25T13:03:51Z</time>
      </trkpt>
      <trkpt lat="41.221250" lon="-3.559483">
        <ele>2429.0</ele>
        <time>2016-07-25T13:03:53Z</time>
      </trkpt>
      <trkpt lat="41.221317" lon="-3.559217">
        <ele>2429.0</ele>
        <time>2016-07-25T13:03:55Z</time>
      </trkpt>
      <trkpt lat="41.221317" lon="-3.558917">
        <ele>2433.0</ele>
        <time>2016-07-25T13:03:57Z</time>
      </trkpt>
      <trkpt lat="41.221250" lon="-3.558633">
        <ele>2437.0</ele>
        <time>2016-07-25T13:03:59Z</time>
      </trkpt>
      <trkpt lat="41.221117" lon="-3.558383">
        <ele>2438.0</ele>
        <time>2016-07-25T13:04:01Z</time>
      </trkpt>
      <trkpt lat="41.220917" lon="-3.558200">
        <ele>2439.0</ele>
        <time>2016-07-25T13:04:03Z</time>
      </trkpt>
      <trkpt lat="41.220700" lon="-3.558167">
        <ele>2439.0</ele>
        <time>2016-07-25T13:04:05Z</time>
      </trkpt>
      <trkpt lat="41.220533" lon="-3.558217">
        <ele>2439.0</ele>
        <time>2016-07-25T13:04:07Z</time>
      </trkpt>
      <trkpt lat="41.220383" lon="-3.558317">
        <ele>2438.0</ele>
        <time>2016-07-25T13:04:09Z</time>
      </trkpt>
      <trkpt lat="41.220317" lon="-3.558467">
        <ele>2440.0</ele>
        <time>2016-07-25T13:04:11Z</time>
      </trkpt>
      <trkpt lat="41.220333" lon="-3.558617">
        <ele>2445.0</ele>
        <time>2016-07-25T13:04:13Z</time>
      </trkpt>
      <trkpt lat="41.220367" lon="-3.558750">
        <ele>2453.0</ele>
        <time>2016-07-25T13:04:15Z</time>
      </trkpt>
      <trkpt lat="41.220383" lon="-3.558867">
        <ele>2461.0</ele>
        <time>2016-07-25T13:04:17Z</time>
      </trkpt>
      <trkpt lat="41.220483" lon="-3.558933">
        <ele>2464.0</ele>
        <time>2016-07-25T13:04:19Z</time>
      </trkpt>
      <trkpt lat="41.220650" lon="-3.558933">
        <ele>2471.0</ele>
        <time>2016-07-25T13:04:21Z</time>
      </trkpt>
      <trkpt lat="41.220800" lon="-3.558850">
        <ele>2478.0</ele>
        <time>2016-07-25T13:04:23Z</time>
      </trkpt>
      <trkpt lat="41.220950" lon="-3.558633">
        <ele>2483.0</ele>
        <time>2016-07-25T13:04:25Z</time>
      </trkpt>
      <trkpt lat="41.221017" lon="-3.558350">
        <ele>2486.0</ele>
        <time>2016-07-25T13:04:27Z</time>
      </trkpt>
      <trkpt lat="41.220967" lon="-3.558033">
        <ele>2486.0</ele>
        <time>2016-07-25T13:04:29Z</time>
      </trkpt>
      <trkpt lat="41.220833" lon="-3.557750">
        <ele>2487.0</ele>
        <time>2016-07-25T13:04:31Z</time>
      </trkpt>
      <trkpt lat="41.220633" lon="-3.557583">
        <ele>2487.0</ele>
        <time>2016-07-25T13:04:33Z</time>
      </trkpt>
      <trkpt lat="41.220433" lon="-3.557600">
        <ele>2486.0</ele>
        <time>2016-07-25T13:04:35Z</time>
      </trkpt>
      <trkpt lat="41.220350" lon="-3.557767">
        <ele>2488.0</ele>
        <time>2016-07-25T13:04:37Z</time>
      </trkpt>
      <trkpt lat="41.220250" lon="-3.557983">
        <ele>2498.0</ele>
        <time>2016-07-25T13:04:39Z</time>
      </trkpt>
      <trkpt lat="41.220133" lon="-3.558100">
        <ele>2508.0</ele>
        <time>2016-07-25T13:04:41Z</time>
      </trkpt>
      <trkpt lat="41.220067" lon="-3.558217">
        <ele>2512.0</ele>
        <time>2016-07-25T13:04:43Z</time>
      </trkpt>
      <trkpt lat="41.220100" lon="-3.558400">
        <ele>2514.0</ele>
        <time>2016-07-25T13:04:45Z</time>
      </trkpt>
      <trkpt lat="41.220217" lon="-3.558483">
        <ele>2519.0</ele>
        <time>2016-07-25T13:04:47Z</time>
      </trkpt>
      <trkpt lat="41.220350" lon="-3.558467">
        <ele>2523.0</ele>
        <time>2016-07-25T13:04:49Z</time>
      </trkpt>
      <trkpt lat="41.220500" lon="-3.558350">
        <ele>2523.0</ele>
        <time>2016-07-25T13:04:51Z</time>
      </trkpt>
      <trkpt lat="41.220633" lon="-3.558117">
        <ele>2525.0</ele>
        <time>2016-07-25T13:04:53Z</time>
      </trkpt>
      <trkpt lat="41.220717" lon="-3.557833">
        <ele>2531.0</ele>
        <time>2016-07-25T13:04:55Z</time>
      </trkpt>
      <trkpt lat="41.220733" lon="-3.557567">
        <ele>2535.0</ele>
        <time>2016-07-25T13:04:57Z</time>
      </trkpt>
      <trkpt lat="41.220700" lon="-3.557233">
        <ele>2538.0</ele>
        <time>2016-07-25T13:04:59Z</time>
      </trkpt>
      <trkpt lat="41.220550" lon="-3.556950">
        <ele>2541.0</ele>
        <time>2016-07-25T13:05:01Z</time>
      </trkpt>
      <trkpt lat="41.220350" lon="-3.556817">
        <ele>2545.0</ele>
        <time>2016-07-25T13:05:03Z</time>
      </trkpt>
      <trkpt lat="41.220117" lon="-3.556833">
        <ele>2550.0</ele>
        <time>2016-07-25T13:05:05Z</time>
      </trkpt>
      <trkpt lat="41.219933" lon="-3.556883">
        <ele>2561.0</ele>
        <time>2016-07-25T13:05:07Z</time>
      </trkpt>
      <trkpt lat="41.219800" lon="-3.556967">
        <ele>2568.0</ele>
        <time>2016-07-25T13:05:09Z</time>
      </trkpt>
      <trkpt lat="41.219733" lon="-3.557117">
        <ele>2571.0</ele>
        <time>2016-07-25T13:05:11Z</time>
      </trkpt>
      <trkpt lat="41.219767" lon="-3.557267">
        <ele>2574.0</ele>
        <time>2016-07-25T13:05:13Z</time>
      </trkpt>
      <trkpt lat="41.219850" lon="-3.557367">
        <ele>2577.0</ele>
        <time>2016-07-25T13:05:15Z</time>
      </trkpt>
      <trkpt lat="41.219983" lon="-3.557450">
        <ele>2579.0</ele>
        <time>2016-07-25T13:05:17Z</time>
      </trkpt>
      <trkpt lat="41.220150" lon="-3.557450">
        <ele>2581.0</ele>
        <time>2016-07-25T13:05:19Z</time>
      </trkpt>
      <trkpt lat="41.220300" lon="-3.557400">
        <ele>2585.0</ele>
        <time>2016-07-25T13:05:21Z</time>
      </trkpt>
      <trkpt lat="41.220467" lon="-3.557317">
        <ele>2587.0</ele>
        <time>2016-07-25T13:05:23Z</time>
      </trkpt>
      <trkpt lat="41.220650" lon="-3.557150">
        <ele>2591.0</ele>
        <time>2016-07-25T13:05:25Z</time>
      </trkpt>
      <trkpt lat="41.220783" lon="-3.556917">
        <ele>2600.0</ele>
        <time>2016-07-25T13:05:27Z</time>
      </trkpt>
      <trkpt lat="41.220833" lon="-3.556683">
        <ele>2605.0</ele>
        <time>2016-07-25T13:05:29Z</time>
      </trkpt>
      <trkpt lat="41.220817" lon="-3.556383">
        <ele>2607.0</ele>
        <time>2016-07-25T13:05:31Z</time>
      </trkpt>
      <trkpt lat="41.220700" lon="-3.556067">
        <ele>2610.0</ele>
        <time>2016-07-25T13:05:33Z</time>
      </trkpt>
      <trkpt lat="41.220533" lon="-3.555900">
        <ele>2612.0</ele>
        <time>2016-07-25T13:05:35Z</time>
      </trkpt>
      <trkpt lat="41.220350" lon="-3.555833">
        <ele>2615.0</ele>
        <time>2016-07-25T13:05:37Z</time>
      </trkpt>
      <trkpt lat="41.220150" lon="-3.555833">
        <ele>2620.0</ele>
        <time>2016-07-25T13:05:39Z</time>
      </trkpt>
      <trkpt lat="41.220000" lon="-3.555933">
        <ele>2627.0</ele>
        <time>2016-07-25T13:05:41Z</time>
      </trkpt>
      <trkpt lat="41.219917" lon="-3.556083">
        <ele>2634.0</ele>
        <time>2016-07-25T13:05:43Z</time>
      </trkpt>
      <trkpt lat="41.219900" lon="-3.556217">
        <ele>2640.0</ele>
        <time>2016-07-25T13:05:45Z</time>
      </trkpt>
      <trkpt lat="41.219933" lon="-3.556333">
        <ele>2641.0</ele>
        <time>2016-07-25T13:05:47Z</time>
      </trkpt>
      <trkpt lat="41.220050" lon="-3.556450">
        <ele>2642.0</ele>
        <time>2016-07-25T13:05:49Z</time>
      </trkpt>
      <trkpt lat="41.220233" lon="-3.556467">
        <ele>2648.0</ele>
        <time>2016-07-25T13:05:51Z</time>
      </trkpt>
      <trkpt lat="41.220400" lon="-3.556400">
        <ele>2656.0</ele>
        <time>2016-07-25T13:05:53Z</time>
      </trkpt>
      <trkpt lat="41.220533" lon="-3.556250">
        <ele>2662.0</ele>
        <time>2016-07-25T13:05:55Z</time>
      </trkpt>
      <trkpt lat="41.220633" lon="-3.556033">
        <ele>2667.0</ele>
        <time>2016-07-25T13:05:57Z</time>
      </trkpt>
      <trkpt lat="41.220667" lon="-3.555783">
        <ele>2672.0</ele>
        <time>2016-07-25T13:05:59Z</time>
      </trkpt>
      <trkpt lat="41.220600" lon="-3.555500">
        <ele>2676.0</ele>
        <time>2016-07-25T13:06:01Z</time>
      </trkpt>
      <trkpt lat="41.220433" lon="-3.555300">
        <ele>2680.0</ele>
        <time>2016-07-25T13:06:03Z</time>
      </trkpt>
      <trkpt lat="41.220233" lon="-3.555217">
        <ele>2686.0</ele>
        <time>2016-07-25T13:06:05Z</time>
      </trkpt>
      <trkpt lat="41.220050" lon="-3.555233">
        <ele>2692.0</ele>
        <time>2016-07-25T13:06:07Z</time>
      </trkpt>
      <trkpt lat="41.219917" lon="-3.555333">
        <ele>2697.0</ele>
        <time>2016-07-25T13:06:09Z</time>
      </trkpt>
      <trkpt lat="41.219867" lon="-3.555500">
        <ele>2702.0</ele>
        <time>2016-07-25T13:06:11Z</time>
      </trkpt>
      <trkpt lat="41.219867" lon="-3.555667">
        <ele>2706.0</ele>
        <time>2016-07-25T13:06:13Z</time>
      </trkpt>
      <trkpt lat="41.219933" lon="-3.555817">
        <ele>2710.0</ele>
        <time>2016-07-25T13:06:15Z</time>
      </trkpt>
      <trkpt lat="41.220083" lon="-3.555917">
        <ele>2712.0</ele>
        <time>2016-07-25T13:06:17Z</time>
      </trkpt>
      <trkpt lat="41.220267" lon="-3.555933">
        <ele>2719.0</ele>
        <time>2016-07-25T13:06:19Z</time>
      </trkpt>
      <trkpt lat="41.220417" lon="-3.555867">
        <ele>2727.0</ele>
        <time>2016-07-25T13:06:21Z</time>
      </trkpt>
      <trkpt lat="41.220550" lon="-3.555750">
        <ele>2730.0</ele>
        <time>2016-07-25T13:06:23Z</time>
      </trkpt>
      <trkpt lat="41.220667" lon="-3.555533">
        <ele>2732.0</ele>
        <time>2016-07-25T13:06:25Z</time>
      </trkpt>
      <trkpt lat="41.220717" lon="-3.555250">
        <ele>2735.0</ele>
        <time>2016-07-25T13:06:27Z</time>
      </trkpt>
      <trkpt lat="41.220683" lon="-3.554983">
        <ele>2738.0</ele>
        <time>2016-07-25T13:06:29Z</time>
      </trkpt>
      <trkpt lat="41.220567" lon="-3.554717">
        <ele>2737.0</ele>
        <time>2016-07-25T13:06:31Z</time>
      </trkpt>
      <trkpt lat="41.220333" lon="-3.554533">
        <ele>2738.0</ele>
        <time>2016-07-25T13:06:33Z</time>
      </trkpt>
      <trkpt lat="41.220133" lon="-3.554500">
        <ele>2748.0</ele>
        <time>2016-07-25T13:06:35Z</time>
      </trkpt>
      <trkpt lat="41.219967" lon="-3.554483">
        <ele>2755.0</ele>
        <time>2016-07-25T13:06:37Z</time>
      </trkpt>
      <trkpt lat="41.219833" lon="-3.554550">
        <ele>2757.0</ele>
        <time>2016-07-25T13:06:39Z</time>
      </trkpt>
      <trkpt lat="41.219717" lon="-3.554700">
        <ele>2760.0</ele>
        <time>2016-07-25T13:06:41Z</time>
      </trkpt>
      <trkpt lat="41.219700" lon="-3.554850">
        <ele>2766.0</ele>
        <time>2016-07-25T13:06:43Z</time>
      </trkpt>
      <trkpt lat="41.219767" lon="-3.555000">
        <ele>2770.0</ele>
        <time>2016-07-25T13:06:45Z</time>
      </trkpt>
      <trkpt lat="41.219867" lon="-3.555067">
        <ele>2775.0</ele>
        <time>2016-07-25T13:06:47Z</time>
      </trkpt>
      <trkpt lat="41.220000" lon="-3.555033">
        <ele>2779.0</ele>
        <time>2016-07-25T13:06:49Z</time>
      </trkpt>
      <trkpt lat="41.220083" lon="-3.554833">
        <ele>2779.0</ele>
        <time>2016-07-25T13:06:51Z</time>
      </trkpt>
      <trkpt lat="41.220150" lon="-3.554567">
        <ele>2784.0</ele>
        <time>2016-07-25T13:06:53Z</time>
      </trkpt>
      <trkpt lat="41.220167" lon="-3.554333">
        <ele>2790.0</ele>
        <time>2016-07-25T13:06:55Z</time>
      </trkpt>
      <trkpt lat="41.220150" lon="-3.554067">
        <ele>2790.0</ele>
        <time>2016-07-25T13:06:57Z</time>
      </trkpt>
      <trkpt lat="41.220067" lon="-3.553767">
        <ele>2789.0</ele>
        <time>2016-07-25T13:06:59Z</time>
      </trkpt>
      <trkpt lat="41.219900" lon="-3.553533">
        <ele>2791.0</ele>
        <time>2016-07-25T13:07:01Z</time>
      </trkpt>
      <trkpt lat="41.219700" lon="-3.553417">
        <ele>2796.0</ele>
        <time>2016-07-25T13:07:03Z</time>
      </trkpt>
      <trkpt lat="41.219500" lon="-3.553417">
        <ele>2799.0</ele>
        <time>2016-07-25T13:07:05Z</time>
      </trkpt>
      <trkpt lat="41.219350" lon="-3.553500">
        <ele>2803.0</ele>
        <time>2016-07-25T13:07:07Z</time>
      </trkpt>
      <trkpt lat="41.219283" lon="-3.553633">
        <ele>2807.0</ele>
        <time>2016-07-25T13:07:09Z</time>
      </trkpt>
      <trkpt lat="41.219267" lon="-3.553783">
        <ele>2808.0</ele>
        <time>2016-07-25T13:07:11Z</time>
      </trkpt>
      <trkpt lat="41.219317" lon="-3.553950">
        <ele>2809.0</ele>
        <time>2016-07-25T13:07:13Z</time>
      </trkpt>
      <trkpt lat="41.219433" lon="-3.554050">
        <ele>2811.0</ele>
        <time>2016-07-25T13:07:15Z</time>
      </trkpt>
      <trkpt lat="41.219567" lon="-3.554083">
        <ele>2814.0</ele>
        <time>2016-07-25T13:07:17Z</time>
      </trkpt>
      <trkpt lat="41.219700" lon="-3.554017">
        <ele>2818.0</ele>
        <time>2016-07-25T13:07:19Z</time>
      </trkpt>
      <trkpt lat="41.219800" lon="-3.553883">
        <ele>2822.0</ele>
        <time>2016-07-25T13:07:21Z</time>
      </trkpt>
      <trkpt lat="41.219900" lon="-3.553683">
        <ele>2825.0</ele>
        <time>2016-07-25T13:07:23Z</time>
      </trkpt>
      <trkpt lat="41.219933" lon="-3.553417">
        <ele>2829.0</ele>
        <time>2016-07-25T13:07:25Z</time>
      </trkpt>
      <trkpt lat="41.219833" lon="-3.553117">
        <ele>2833.0</ele>
        <time>2016-07-25T13:07:27Z</time>
      </trkpt>
      <trkpt lat="41.219683" lon="-3.552917">
        <ele>2837.0</ele>
        <time>2016-07-25T13:07:29Z</time>
      </trkpt>
      <trkpt lat="41.219500" lon="-3.552833">
        <ele>2838.0</ele>
        <time>2016-07-25T13:07:31Z</time>
      </trkpt>
      <trkpt lat="41.219283" lon="-3.552867">
        <ele>2837.0</ele>
        <time>2016-07-25T13:07:33Z</time>
      </trkpt>
      <trkpt lat="41.219117" lon="-3.553000">
        <ele>2839.0</ele>
        <time>2016-07-25T13:07:35Z</time>
      </trkpt>
      <trkpt lat="41.219050" lon="-3.553183">
        <ele>2840.0</ele>
        <time>2016-07-25T13:07:37Z</time>
      </trkpt>
      <trkpt lat="41.219067" lon="-3.553350">
        <ele>2842.0</ele>
        <time>2016-07-25T13:07:39Z</time>
      </trkpt>
      <trkpt lat="41.219167" lon="-3.553483">
        <ele>2844.0</ele>
        <time>2016-07-25T13:07:41Z</time>
      </trkpt>
      <trkpt lat="41.219300" lon="-3.553550">
        <ele>2847.0</ele>
        <time>2016-07-25T13:07:43Z</time>
      </trkpt>
      <trkpt lat="41.219417" lon="-3.553583">
        <ele>2850.0</ele>
        <time>2016-07-25T13:07:45Z</time>
      </trkpt>
      <trkpt lat="41.219567" lon="-3.553583">
        <ele>2853.0</ele>
        <time>2016-07-25T13:07:47Z</time>
      </trkpt>
      <trkpt lat="41.219717" lon="-3.553550">
        <ele>2857.0</ele>
        <time>2016-07-25T13:07:49Z</time>
      </trkpt>
      <trkpt lat="41.219833" lon="-3.553500">
        <ele>2862.0</ele>
        <time>2016-07-25T13:07:51Z</time>
      </trkpt>
      <trkpt lat="41.219967" lon="-3.553417">
        <ele>2865.0</ele>
        <time>2016-07-25T13:07:53Z</time>
      </trkpt>
      <trkpt lat="41.220067" lon="-3.553300">
        <ele>2866.0</ele>
        <time>2016-07-25T13:07:55Z</time>
      </trkpt>
      <trkpt lat="41.220183" lon="-3.553167">
        <ele>2863.0</ele>
        <time>2016-07-25T13:07:57Z</time>
      </trkpt>
      <trkpt lat="41.220317" lon="-3.553033">
        <ele>2859.0</ele>
        <time>2016-07-25T13:07:59Z</time>
      </trkpt>
      <trkpt lat="41.220450" lon="-3.552883">
        <ele>2861.0</ele>
        <time>2016-07-25T13:08:01Z</time>
      </trkpt>
      <trkpt lat="41.220567" lon="-3.552750">
        <ele>2866.0</ele>
        <time>2016-07-25T13:08:03Z</time>
      </trkpt>
      <trkpt lat="41.220667" lon="-3.552633">
        <ele>2869.0</ele>
        <time>2016-07-25T13:08:05Z</time>
      </trkpt>
      <trkpt lat="41.220817" lon="-3.552467">
        <ele>2870.0</ele>
        <time>2016-07-25T13:08:07Z</time>
      </trkpt>
      <trkpt lat="41.220950" lon="-3.552317">
        <ele>2875.0</ele>
        <time>2016-07-25T13:08:09Z</time>
      </trkpt>
      <trkpt lat="41.221067" lon="-3.552150">
        <ele>2879.0</ele>
        <time>2016-07-25T13:08:11Z</time>
      </trkpt>
      <trkpt lat="41.221200" lon="-3.551967">
        <ele>2881.0</ele>
        <time>2016-07-25T13:08:13Z</time>
      </trkpt>
      <trkpt lat="41.221350" lon="-3.551783">
        <ele>2886.0</ele>
        <time>2016-07-25T13:08:15Z</time>
      </trkpt>
      <trkpt lat="41.221483" lon="-3.551600">
        <ele>2891.0</ele>
        <time>2016-07-25T13:08:17Z</time>
      </trkpt>
      <trkpt lat="41.221633" lon="-3.551450">
        <ele>2893.0</ele>
        <time>2016-07-25T13:08:19Z</time>
      </trkpt>
      <trkpt lat="41.221800" lon="-3.551283">
        <ele>2893.0</ele>
        <time>2016-07-25T13:08:21Z</time>
      </trkpt>
      <trkpt lat="41.221967" lon="-3.551117">
        <ele>2895.0</ele>
        <time>2016-07-25T13:08:23Z</time>
      </trkpt>
      <trkpt lat="41.222117" lon="-3.550983">
        <ele>2897.0</ele>
        <time>2016-07-25T13:08:25Z</time>
      </trkpt>
      <trkpt lat="41.222250" lon="-3.550833">
        <ele>2898.0</ele>
        <time>2016-07-25T13:08:27Z</time>
      </trkpt>
      <trkpt lat="41.222417" lon="-3.550650">
        <ele>2898.0</ele>
        <time>2016-07-25T13:08:29Z</time>
      </trkpt>
      <trkpt lat="41.222567" lon="-3.550483">
        <ele>2897.0</ele>
        <time>2016-07-25T13:08:31Z</time>
      </trkpt>
      <trkpt lat="41.222733" lon="-3.550283">
        <ele>2896.0</ele>
        <time>2016-07-25T13:08:33Z</time>
      </trkpt>
      <trkpt lat="41.222900" lon="-3.550067">
        <ele>2897.0</ele>
        <time>2016-07-25T13:08:35Z</time>
      </trkpt>
      <trkpt lat="41.223050" lon="-3.549883">
        <ele>2898.0</ele>
        <time>2016-07-25T13:08:37Z</time>
      </trkpt>
      <trkpt lat="41.223233" lon="-3.549700">
        <ele>2899.0</ele>
        <time>2016-07-25T13:08:39Z</time>
      </trkpt>
      <trkpt lat="41.223400" lon="-3.549483">
        <ele>2905.0</ele>
        <time>2016-07-25T13:08:41Z</time>
      </trkpt>
      <trkpt lat="41.223533" lon="-3.549333">
        <ele>2913.0</ele>
        <time>2016-07-25T13:08:43Z</time>
      </trkpt>
      <trkpt lat="41.223683" lon="-3.549183">
        <ele>2918.0</ele>
        <time>2016-07-25T13:08:45Z</time>
      </trkpt>
      <trkpt lat="41.223833" lon="-3.548983">
        <ele>2925.0</ele>
        <time>2016-07-25T13:08:47Z</time>
      </trkpt>
      <trkpt lat="41.223967" lon="-3.548817">
        <ele>2930.0</ele>
        <time>2016-07-25T13:08:49Z</time>
      </trkpt>
      <trkpt lat="41.224133" lon="-3.548617">
        <ele>2931.0</ele>
        <time>2016-07-25T13:08:51Z</time>
      </trkpt>
      <trkpt lat="41.224300" lon="-3.548383">
        <ele>2933.0</ele>
        <time>2016-07-25T13:08:53Z</time>
      </trkpt>
      <trkpt lat="41.224467" lon="-3.548167">
        <ele>2938.0</ele>
        <time>2016-07-25T13:08:55Z</time>
      </trkpt>
      <trkpt lat="41.224617" lon="-3.547950">
        <ele>2944.0</ele>
        <time>2016-07-25T13:08:57Z</time>
      </trkpt>
      <trkpt lat="41.224767" lon="-3.547750">
        <ele>2949.0</ele>
        <time>2016-07-25T13:08:59Z</time>
      </trkpt>
      <trkpt lat="41.224933" lon="-3.547567">
        <ele>2953.0</ele>
        <time>2016-07-25T13:09:01Z</time>
      </trkpt>
      <trkpt lat="41.225067" lon="-3.547367">
        <ele>2956.0</ele>
        <time>2016-07-25T13:09:03Z</time>
      </trkpt>
      <trkpt lat="41.225233" lon="-3.547200">
        <ele>2957.0</ele>
        <time>2016-07-25T13:09:05Z</time>
      </trkpt>
      <trkpt lat="41.225433" lon="-3.547050">
        <ele>2959.0</ele>
        <time>2016-07-25T13:09:07Z</time>
      </trkpt>
      <trkpt lat="41.225617" lon="-3.546883">
        <ele>2962.0</ele>
        <time>2016-07-25T13:09:09Z</time>
      </trkpt>
      <trkpt lat="41.225800" lon="-3.546717">
        <ele>2964.0</ele>
        <time>2016-07-25T13:09:11Z</time>
      </trkpt>
      <trkpt lat="41.225967" lon="-3.546500">
        <ele>2964.0</ele>
        <time>2016-07-25T13:09:13Z</time>
      </trkpt>
      <trkpt lat="41.226150" lon="-3.546333">
        <ele>2962.0</ele>
        <time>2016-07-25T13:09:15Z</time>
      </trkpt>
      <trkpt lat="41.226350" lon="-3.546150">
        <ele>2960.0</ele>
        <time>2016-07-25T13:09:17Z</time>
      </trkpt>
      <trkpt lat="41.226567" lon="-3.545933">
        <ele>2962.0</ele>
        <time>2016-07-25T13:09:19Z</time>
      </trkpt>
      <trkpt lat="41.226733" lon="-3.545750">
        <ele>2964.0</ele>
        <time>2016-07-25T13:09:21Z</time>
      </trkpt>
      <trkpt lat="41.226900" lon="-3.545567">
        <ele>2962.0</ele>
        <time>2016-07-25T13:09:23Z</time>
      </trkpt>
      <trkpt lat="41.227100" lon="-3.545317">
        <ele>2959.0</ele>
        <time>2016-07-25T13:09:25Z</time>
      </trkpt>
      <trkpt lat="41.227300" lon="-3.545117">
        <ele>2961.0</ele>
        <time>2016-07-25T13:09:27Z</time>
      </trkpt>
      <trkpt lat="41.227467" lon="-3.544967">
        <ele>2963.0</ele>
        <time>2016-07-25T13:09:29Z</time>
      </trkpt>
      <trkpt lat="41.227617" lon="-3.544800">
        <ele>2961.0</ele>
        <time>2016-07-25T13:09:31Z</time>
      </trkpt>
      <trkpt lat="41.227817" lon="-3.544617">
        <ele>2958.0</ele>
        <time>2016-07-25T13:09:33Z</time>
      </trkpt>
      <trkpt lat="41.227983" lon="-3.544417">
        <ele>2958.0</ele>
        <time>2016-07-25T13:09:35Z</time>
      </trkpt>
      <trkpt lat="41.228150" lon="-3.544233">
        <ele>2956.0</ele>
        <time>2016-07-25T13:09:37Z</time>
      </trkpt>
      <trkpt lat="41.228333" lon="-3.544050">
        <ele>2953.0</ele>
        <time>2016-07-25T13:09:39Z</time>
      </trkpt>
      <trkpt lat="41.228517" lon="-3.543867">
        <ele>2953.0</ele>
        <time>2016-07-25T13:09:41Z</time>
      </trkpt>
      <trkpt lat="41.228683" lon="-3.543717">
        <ele>2950.0</ele>
        <time>2016-07-25T13:09:43Z</time>
      </trkpt>
      <trkpt lat="41.228867" lon="-3.543533">
        <ele>2946.0</ele>
        <time>2016-07-25T13:09:45Z</time>
      </trkpt>
      <trkpt lat="41.229050" lon="-3.543350">
        <ele>2942.0</ele>
        <time>2016-07-25T13:09:47Z</time>
      </trkpt>
      <trkpt lat="41.229217" lon="-3.543200">
        <ele>2934.0</ele>
        <time>2016-07-25T13:09:49Z</time>
      </trkpt>
      <trkpt lat="41.229433" lon="-3.543083">
        <ele>2926.0</ele>
        <time>2016-07-25T13:09:51Z</time>
      </trkpt>
      <trkpt lat="41.229667" lon="-3.543033">
        <ele>2921.0</ele>
        <time>2016-07-25T13:09:53Z</time>
      </trkpt>
      <trkpt lat="41.229833" lon="-3.542950">
        <ele>2918.0</ele>
        <time>2016-07-25T13:09:55Z</time>
      </trkpt>
      <trkpt lat="41.230000" lon="-3.542833">
        <ele>2912.0</ele>
        <time>2016-07-25T13:09:57Z</time>
      </trkpt>
      <trkpt lat="41.230200" lon="-3.542700">
        <ele>2906.0</ele>
        <time>2016-07-25T13:09:59Z</time>
      </trkpt>
      <trkpt lat="41.230400" lon="-3.542583">
        <ele>2902.0</ele>
        <time>2016-07-25T13:10:01Z</time>
      </trkpt>
      <trkpt lat="41.230567" lon="-3.542517">
        <ele>2899.0</ele>
        <time>2016-07-25T13:10:03Z</time>
      </trkpt>
      <trkpt lat="41.230733" lon="-3.542433">
        <ele>2892.0</ele>
        <time>2016-07-25T13:10:05Z</time>
      </trkpt>
      <trkpt lat="41.230917" lon="-3.542317">
        <ele>2887.0</ele>
        <time>2016-07-25T13:10:07Z</time>
      </trkpt>
      <trkpt lat="41.231067" lon="-3.542200">
        <ele>2885.0</ele>
        <time>2016-07-25T13:10:09Z</time>
      </trkpt>
      <trkpt lat="41.231200" lon="-3.542100">
        <ele>2878.0</ele>
        <time>2016-07-25T13:10:11Z</time>
      </trkpt>
      <trkpt lat="41.231383" lon="-3.542017">
        <ele>2871.0</ele>
        <time>2016-07-25T13:10:13Z</time>
      </trkpt>
      <trkpt lat="41.231567" lon="-3.541950">
        <ele>2867.0</ele>
        <time>2016-07-25T13:10:15Z</time>
      </trkpt>
      <trkpt lat="41.231717" lon="-3.541867">
        <ele>2863.0</ele>
        <time>2016-07-25T13:10:17Z</time>
      </trkpt>
      <trkpt lat="41.231883" lon="-3.541767">
        <ele>2855.0</ele>
        <time>2016-07-25T13:10:19Z</time>
      </trkpt>
      <trkpt lat="41.232083" lon="-3.541617">
        <ele>2848.0</ele>
        <time>2016-07-25T13:10:21Z</time>
      </trkpt>
      <trkpt lat="41.232267" lon="-3.541450">
        <ele>2844.0</ele>
        <time>2016-07-25T13:10:23Z</time>
      </trkpt>
      <trkpt lat="41.232433" lon="-3.541317">
        <ele>2839.0</ele>
        <time>2016-07-25T13:10:25Z</time>
      </trkpt>
      <trkpt lat="41.232633" lon="-3.541183">
        <ele>2834.0</ele>
        <time>2016-07-25T13:10:27Z</time>
      </trkpt>
      <trkpt lat="41.232800" lon="-3.541033">
        <ele>2830.0</ele>
        <time>2016-07-25T13:10:29Z</time>
      </trkpt>
      <trkpt lat="41.232983" lon="-3.540900">
        <ele>2824.0</ele>
        <time>2016-07-25T13:10:31Z</time>
      </trkpt>
      <trkpt lat="41.233183" lon="-3.540767">
        <ele>2817.0</ele>
        <time>2016-07-25T13:10:33Z</time>
      </trkpt>
      <trkpt lat="41.233383" lon="-3.540633">
        <ele>2814.0</ele>
        <time>2016-07-25T13:10:35Z</time>
      </trkpt>
      <trkpt lat="41.233550" lon="-3.540467">
        <ele>2810.0</ele>
        <time>2016-07-25T13:10:37Z</time>
      </trkpt>
      <trkpt lat="41.233733" lon="-3.540283">
        <ele>2805.0</ele>
        <time>2016-07-25T13:10:39Z</time>
      </trkpt>
      <trkpt lat="41.233917" lon="-3.540100">
        <ele>2803.0</ele>
        <time>2016-07-25T13:10:41Z</time>
      </trkpt>
      <trkpt lat="41.234067" lon="-3.539917">
        <ele>2801.0</ele>
        <time>2016-07-25T13:10:43Z</time>
      </trkpt>
      <trkpt lat="41.234233" lon="-3.539733">
        <ele>2795.0</ele>
        <time>2016-07-25T13:10:45Z</time>
      </trkpt>
      <trkpt lat="41.234417" lon="-3.539517">
        <ele>2792.0</ele>
        <time>2016-07-25T13:10:47Z</time>
      </trkpt>
      <trkpt lat="41.234567" lon="-3.539317">
        <ele>2791.0</ele>
        <time>2016-07-25T13:10:49Z</time>
      </trkpt>
      <trkpt lat="41.234700" lon="-3.539133">
        <ele>2786.0</ele>
        <time>2016-07-25T13:10:51Z</time>
      </trkpt>
      <trkpt lat="41.234817" lon="-3.538917">
        <ele>2780.0</ele>
        <time>2016-07-25T13:10:53Z</time>
      </trkpt>
      <trkpt lat="41.234950" lon="-3.538717">
        <ele>2775.0</ele>
        <time>2016-07-25T13:10:55Z</time>
      </trkpt>
      <trkpt lat="41.235083" lon="-3.538517">
        <ele>2772.0</ele>
        <time>2016-07-25T13:10:57Z</time>
      </trkpt>
      <trkpt lat="41.235233" lon="-3.538317">
        <ele>2771.0</ele>
        <time>2016-07-25T13:10:59Z</time>
      </trkpt>
      <trkpt lat="41.235417" lon="-3.538150">
        <ele>2767.0</ele>
        <time>2016-07-25T13:11:01Z</time>
      </trkpt>
      <trkpt lat="41.235600" lon="-3.537950">
        <ele>2767.0</ele>
        <time>2016-07-25T13:11:03Z</time>
      </trkpt>
      <trkpt lat="41.235750" lon="-3.537767">
        <ele>2768.0</ele>
        <time>2016-07-25T13:11:05Z</time>
      </trkpt>
      <trkpt lat="41.235883" lon="-3.537600">
        <ele>2763.0</ele>
        <time>2016-07-25T13:11:07Z</time>
      </trkpt>
      <trkpt lat="41.236067" lon="-3.537433">
        <ele>2757.0</ele>
        <time>2016-07-25T13:11:09Z</time>
      </trkpt>
      <trkpt lat="41.236250" lon="-3.537267">
        <ele>2755.0</ele>
        <time>2016-07-25T13:11:11Z</time>
      </trkpt>
      <trkpt lat="41.236417" lon="-3.537133">
        <ele>2752.0</ele>
        <time>2016-07-25T13:11:13Z</time>
      </trkpt>
      <trkpt lat="41.236583" lon="-3.536967">
        <ele>2748.0</ele>
        <time>2016-07-25T13:11:15Z</time>
      </trkpt>
      <trkpt lat="41.236750" lon="-3.536783">
        <ele>2746.0</ele>
        <time>2016-07-25T13:11:17Z</time>
      </trkpt>
      <trkpt lat="41.236867" lon="-3.536567">
        <ele>2745.0</ele>
        <time>2016-07-25T13:11:19Z</time>
      </trkpt>
      <trkpt lat="41.236983" lon="-3.536367">
        <ele>2742.0</ele>
        <time>2016-07-25T13:11:21Z</time>
      </trkpt>
      <trkpt lat="41.237133" lon="-3.536183">
        <ele>2737.0</ele>
        <time>2016-07-25T13:11:23Z</time>
      </trkpt>
      <trkpt lat="41.237283" lon="-3.535983">
        <ele>2735.0</ele>
        <time>2016-07-25T13:11:25Z</time>
      </trkpt>
      <trkpt lat="41.237433" lon="-3.535783">
        <ele>2734.0</ele>
        <time>2016-07-25T13:11:27Z</time>
      </trkpt>
      <trkpt lat="41.237567" lon="-3.535583">
        <ele>2732.0</ele>
        <time>2016-07-25T13:11:29Z</time>
      </trkpt>
      <trkpt lat="41.237700" lon="-3.535383">
        <ele>2731.0</ele>
        <time>2016-07-25T13:11:31Z</time>
      </trkpt>
      <trkpt lat="41.237833" lon="-3.535167">
        <ele>2729.0</ele>
        <time>2016-07-25T13:11:33Z</time>
      </trkpt>
      <trkpt lat="41.237983" lon="-3.534983">
        <ele>2726.0</ele>
        <time>2016-07-25T13:11:35Z</time>
      </trkpt>
      <trkpt lat="41.238133" lon="-3.534800">
        <ele>2725.0</ele>
        <time>2016-07-25T13:11:37Z</time>
      </trkpt>
      <trkpt lat="41.238283" lon="-3.534617">
        <ele>2723.0</ele>
        <time>2016-07-25T13:11:39Z</time>
      </trkpt>
      <trkpt lat="41.238417" lon="-3.534433">
        <ele>2721.0</ele>
        <time>2016-07-25T13:11:41Z</time>
      </trkpt>
      <trkpt lat="41.238567" lon="-3.534250">
        <ele>2719.0</ele>
        <time>2016-07-25T13:11:43Z</time>
      </trkpt>
      <trkpt lat="41.238717" lon="-3.534067">
        <ele>2716.0</ele>
        <time>2016-07-25T13:11:45Z</time>
      </trkpt>
      <trkpt lat="41.238883" lon="-3.533883">
        <ele>2713.0</ele>
        <time>2016-07-25T13:11:47Z</time>
      </trkpt>
      <trkpt lat="41.239050" lon="-3.533683">
        <ele>2712.0</ele>
        <time>2016-07-25T13:11:49Z</time>
      </trkpt>
      <trkpt lat="41.239200" lon="-3.533483">
        <ele>2711.0</ele>
        <time>2016-07-25T13:11:51Z</time>
      </trkpt>
      <trkpt lat="41.239350" lon="-3.533317">
        <ele>2711.0</ele>
        <time>2016-07-25T13:11:53Z</time>
      </trkpt>
      <trkpt lat="41.239533" lon="-3.533150">
        <ele>2710.0</ele>
        <time>2016-07-25T13:11:55Z</time>
      </trkpt>
      <trkpt lat="41.239700" lon="-3.532983">
        <ele>2711.0</ele>
        <time>2016-07-25T13:11:57Z</time>
      </trkpt>
      <trkpt lat="41.239867" lon="-3.532817">
        <ele>2711.0</ele>
        <time>2016-07-25T13:11:59Z</time>
      </trkpt>
      <trkpt lat="41.240033" lon="-3.532650">
        <ele>2710.0</ele>
        <time>2016-07-25T13:12:01Z</time>
      </trkpt>
      <trkpt lat="41.240183" lon="-3.532467">
        <ele>2710.0</ele>
        <time>2016-07-25T13:12:03Z</time>
      </trkpt>
      <trkpt lat="41.240317" lon="-3.532283">
        <ele>2709.0</ele>
        <time>2016-07-25T13:12:05Z</time>
      </trkpt>
      <trkpt lat="41.240450" lon="-3.532100">
        <ele>2706.0</ele>
        <time>2016-07-25T13:12:07Z</time>
      </trkpt>
      <trkpt lat="41.240617" lon="-3.531967">
        <ele>2702.0</ele>
        <time>2016-07-25T13:12:09Z</time>
      </trkpt>
      <trkpt lat="41.240767" lon="-3.531817">
        <ele>2697.0</ele>
        <time>2016-07-25T13:12:11Z</time>
      </trkpt>
      <trkpt lat="41.240917" lon="-3.531650">
        <ele>2693.0</ele>
        <time>2016-07-25T13:12:13Z</time>
      </trkpt>
      <trkpt lat="41.241083" lon="-3.531483">
        <ele>2689.0</ele>
        <time>2016-07-25T13:12:15Z</time>
      </trkpt>
      <trkpt lat="41.241233" lon="-3.531333">
        <ele>2685.0</ele>
        <time>2016-07-25T13:12:17Z</time>
      </trkpt>
      <trkpt lat="41.241400" lon="-3.531183">
        <ele>2680.0</ele>
        <time>2016-07-25T13:12:19Z</time>
      </trkpt>
      <trkpt lat="41.241550" lon="-3.531017">
        <ele>2675.0</ele>
        <time>2016-07-25T13:12:21Z</time>
      </trkpt>
      <trkpt lat="41.241717" lon="-3.530867">
        <ele>2669.0</ele>
        <time>2016-07-25T13:12:23Z</time>
      </trkpt>
      <trkpt lat="41.241883" lon="-3.530683">
        <ele>2665.0</ele>
        <time>2016-07-25T13:12:25Z</time>
      </trkpt>
      <trkpt lat="41.242033" lon="-3.530517">
        <ele>2661.0</ele>
        <time>2016-07-25T13:12:27Z</time>
      </trkpt>
      <trkpt lat="41.242183" lon="-3.530350">
        <ele>2656.0</ele>
        <time>2016-07-25T13:12:29Z</time>
      </trkpt>
      <trkpt lat="41.242333" lon="-3.530183">
        <ele>2652.0</ele>
        <time>2016-07-25T13:12:31Z</time>
      </trkpt>
      <trkpt lat="41.242483" lon="-3.530000">
        <ele>2647.0</ele>
        <time>2016-07-25T13:12:33Z</time>
      </trkpt>
      <trkpt lat="41.242633" lon="-3.529817">
        <ele>2644.0</ele>
        <time>2016-07-25T13:12:35Z</time>
      </trkpt>
      <trkpt lat="41.242783" lon="-3.529617">
        <ele>2639.0</ele>
        <time>2016-07-25T13:12:37Z</time>
      </trkpt>
      <trkpt lat="41.242933" lon="-3.529417">
        <ele>2636.0</ele>
        <time>2016-07-25T13:12:39Z</time>
      </trkpt>
      <trkpt lat="41.243083" lon="-3.529233">
        <ele>2635.0</ele>
        <time>2016-07-25T13:12:41Z</time>
      </trkpt>
      <trkpt lat="41.243217" lon="-3.529050">
        <ele>2634.0</ele>
        <time>2016-07-25T13:12:43Z</time>
      </trkpt>
      <trkpt lat="41.243350" lon="-3.528917">
        <ele>2633.0</ele>
        <time>2016-07-25T13:12:45Z</time>
      </trkpt>
      <trkpt lat="41.243500" lon="-3.528767">
        <ele>2629.0</ele>
        <time>2016-07-25T13:12:47Z</time>
      </trkpt>
      <trkpt lat="41.243650" lon="-3.528583">
        <ele>2626.0</ele>
        <time>2016-07-25T13:12:49Z</time>
      </trkpt>
      <trkpt lat="41.243783" lon="-3.528417">
        <ele>2625.0</ele>
        <time>2016-07-25T13:12:51Z</time>
      </trkpt>
      <trkpt lat="41.243917" lon="-3.528233">
        <ele>2623.0</ele>
        <time>2016-07-25T13:12:53Z</time>
      </trkpt>
      <trkpt lat="41.244067" lon="-3.528050">
        <ele>2620.0</ele>
        <time>2016-07-25T13:12:55Z</time>
      </trkpt>
      <trkpt lat="41.244200" lon="-3.527850">
        <ele>2619.0</ele>
        <time>2016-07-25T13:12:57Z</time>
      </trkpt>
      <trkpt lat="41.244350" lon="-3.527650">
        <ele>2619.0</ele>
        <time>2016-07-25T13:12:59Z</time>
      </trkpt>
      <trkpt lat="41.244467" lon="-3.527450">
        <ele>2618.0</ele>
        <time>2016-07-25T13:13:01Z</time>
      </trkpt>
      <trkpt lat="41.244583" lon="-3.527233">
        <ele>2616.0</ele>
        <time>2016-07-25T13:13:03Z</time>
      </trkpt>
      <trkpt lat="41.244717" lon="-3.527033">
        <ele>2612.0</ele>
        <time>2016-07-25T13:13:05Z</time>
      </trkpt>
      <trkpt lat="41.244867" lon="-3.526850">
        <ele>2611.0</ele>
        <time>2016-07-25T13:13:07Z</time>
      </trkpt>
      <trkpt lat="41.245000" lon="-3.526667">
        <ele>2610.0</ele>
        <time>2016-07-25T13:13:09Z</time>
      </trkpt>
      <trkpt lat="41.245133" lon="-3.526467">
        <ele>2607.0</ele>
        <time>2016-07-25T13:13:11Z</time>
      </trkpt>
      <trkpt lat="41.245283" lon="-3.526267">
        <ele>2605.0</ele>
        <time>2016-07-25T13:13:13Z</time>
      </trkpt>
      <trkpt lat="41.245417" lon="-3.526083">
        <ele>2604.0</ele>
        <time>2016-07-25T13:13:15Z</time>
      </trkpt>
      <trkpt lat="41.245550" lon="-3.525917">
        <ele>2601.0</ele>
        <time>2016-07-25T13:13:17Z</time>
      </trkpt>
      <trkpt lat="41.245700" lon="-3.525717">
        <ele>2596.0</ele>
        <time>2016-07-25T13:13:19Z</time>
      </trkpt>
      <trkpt lat="41.245850" lon="-3.525550">
        <ele>2593.0</ele>
        <time>2016-07-25T13:13:21Z</time>
      </trkpt>
      <trkpt lat="41.246000" lon="-3.525367">
        <ele>2589.0</ele>
        <time>2016-07-25T13:13:23Z</time>
      </trkpt>
      <trkpt lat="41.246133" lon="-3.525183">
        <ele>2585.0</ele>
        <time>2016-07-25T13:13:25Z</time>
      </trkpt>
      <trkpt lat="41.246300" lon="-3.525017">
        <ele>2581.0</ele>
        <time>2016-07-25T13:13:27Z</time>
      </trkpt>
      <trkpt lat="41.246433" lon="-3.524833">
        <ele>2577.0</ele>
        <time>2016-07-25T13:13:29Z</time>
      </trkpt>
      <trkpt lat="41.246567" lon="-3.524650">
        <ele>2572.0</ele>
        <time>2016-07-25T13:13:31Z</time>
      </trkpt>
      <trkpt lat="41.246717" lon="-3.524483">
        <ele>2568.0</ele>
        <time>2016-07-25T13:13:33Z</time>
      </trkpt>
      <trkpt lat="41.246867" lon="-3.524317">
        <ele>2565.0</ele>
        <time>2016-07-25T13:13:35Z</time>
      </trkpt>
      <trkpt lat="41.247017" lon="-3.524150">
        <ele>2562.0</ele>
        <time>2016-07-25T13:13:37Z</time>
      </trkpt>
      <trkpt lat="41.247150" lon="-3.523983">
        <ele>2559.0</ele>
        <time>2016-07-25T13:13:39Z</time>
      </trkpt>
      <trkpt lat="41.247300" lon="-3.523817">
        <ele>2554.0</ele>
        <time>2016-07-25T13:13:41Z</time>
      </trkpt>
      <trkpt lat="41.247467" lon="-3.523650">
        <ele>2550.0</ele>
        <time>2016-07-25T13:13:43Z</time>
      </trkpt>
      <trkpt lat="41.247617" lon="-3.523483">
        <ele>2547.0</ele>
        <time>2016-07-25T13:13:45Z</time>
      </trkpt>
      <trkpt lat="41.247750" lon="-3.523300">
        <ele>2543.0</ele>
        <time>2016-07-25T13:13:47Z</time>
      </trkpt>
      <trkpt lat="41.247917" lon="-3.523133">
        <ele>2539.0</ele>
        <time>2016-07-25T13:13:49Z</time>
      </trkpt>
      <trkpt lat="41.248050" lon="-3.522933">
        <ele>2535.0</ele>
        <time>2016-07-25T13:13:51Z</time>
      </trkpt>
      <trkpt lat="41.248200" lon="-3.522750">
        <ele>2532.0</ele>
        <time>2016-07-25T13:13:53Z</time>
      </trkpt>
      <trkpt lat="41.248333" lon="-3.522583">
        <ele>2527.0</ele>
        <time>2016-07-25T13:13:55Z</time>
      </trkpt>
      <trkpt lat="41.248483" lon="-3.522383">
        <ele>2521.0</ele>
        <time>2016-07-25T13:13:57Z</time>
      </trkpt>
      <trkpt lat="41.248633" lon="-3.522183">
        <ele>2518.0</ele>
        <time>2016-07-25T13:13:59Z</time>
      </trkpt>
      <trkpt lat="41.248750" lon="-3.522000">
        <ele>2514.0</ele>
        <time>2016-07-25T13:14:01Z</time>
      </trkpt>
      <trkpt lat="41.248883" lon="-3.521817">
        <ele>2509.0</ele>
        <time>2016-07-25T13:14:03Z</time>
      </trkpt>
      <trkpt lat="41.249033" lon="-3.521633">
        <ele>2503.0</ele>
        <time>2016-07-25T13:14:05Z</time>
      </trkpt>
      <trkpt lat="41.249183" lon="-3.521450">
        <ele>2498.0</ele>
        <time>2016-07-25T13:14:07Z</time>
      </trkpt>
      <trkpt lat="41.249333" lon="-3.521283">
        <ele>2493.0</ele>
        <time>2016-07-25T13:14:09Z</time>
      </trkpt>
      <trkpt lat="41.249467" lon="-3.521117">
        <ele>2488.0</ele>
        <time>2016-07-25T13:14:11Z</time>
      </trkpt>
      <trkpt lat="41.249617" lon="-3.520967">
        <ele>2483.0</ele>
        <time>2016-07-25T13:14:13Z</time>
      </trkpt>
      <trkpt lat="41.249750" lon="-3.520783">
        <ele>2478.0</ele>
        <time>2016-07-25T13:14:15Z</time>
      </trkpt>
      <trkpt lat="41.249883" lon="-3.520617">
        <ele>2474.0</ele>
        <time>2016-07-25T13:14:17Z</time>
      </trkpt>
      <trkpt lat="41.250000" lon="-3.520467">
        <ele>2468.0</ele>
        <time>2016-07-25T13:14:19Z</time>
      </trkpt>
      <trkpt lat="41.250133" lon="-3.520300">
        <ele>2462.0</ele>
        <time>2016-07-25T13:14:21Z</time>
      </trkpt>
      <trkpt lat="41.250267" lon="-3.520083">
        <ele>2460.0</ele>
        <time>2016-07-25T13:14:23Z</time>
      </trkpt>
      <trkpt lat="41.250367" lon="-3.519883">
        <ele>2457.0</ele>
        <time>2016-07-25T13:14:25Z</time>
      </trkpt>
      <trkpt lat="41.250483" lon="-3.519650">
        <ele>2453.0</ele>
        <time>2016-07-25T13:14:27Z</time>
      </trkpt>
      <trkpt lat="41.250617" lon="-3.519417">
        <ele>2452.0</ele>
        <time>2016-07-25T13:14:29Z</time>
      </trkpt>
      <trkpt lat="41.250733" lon="-3.519217">
        <ele>2451.0</ele>
        <time>2016-07-25T13:14:31Z</time>
      </trkpt>
      <trkpt lat="41.250850" lon="-3.519017">
        <ele>2447.0</ele>
        <time>2016-07-25T13:14:33Z</time>
      </trkpt>
      <trkpt lat="41.251000" lon="-3.518800">
        <ele>2443.0</ele>
        <time>2016-07-25T13:14:35Z</time>
      </trkpt>
      <trkpt lat="41.251133" lon="-3.518600">
        <ele>2441.0</ele>
        <time>2016-07-25T13:14:37Z</time>
      </trkpt>
      <trkpt lat="41.251250" lon="-3.518383">
        <ele>2439.0</ele>
        <time>2016-07-25T13:14:39Z</time>
      </trkpt>
      <trkpt lat="41.251400" lon="-3.518133">
        <ele>2438.0</ele>
        <time>2016-07-25T13:14:41Z</time>
      </trkpt>
      <trkpt lat="41.251517" lon="-3.517950">
        <ele>2438.0</ele>
        <time>2016-07-25T13:14:43Z</time>
      </trkpt>
      <trkpt lat="41.251633" lon="-3.517750">
        <ele>2433.0</ele>
        <time>2016-07-25T13:14:45Z</time>
      </trkpt>
      <trkpt lat="41.251783" lon="-3.517550">
        <ele>2428.0</ele>
        <time>2016-07-25T13:14:47Z</time>
      </trkpt>
      <trkpt lat="41.251933" lon="-3.517367">
        <ele>2427.0</ele>
        <time>2016-07-25T13:14:49Z</time>
      </trkpt>
      <trkpt lat="41.252050" lon="-3.517150">
        <ele>2427.0</ele>
        <time>2016-07-25T13:14:51Z</time>
      </trkpt>
      <trkpt lat="41.252150" lon="-3.516933">
        <ele>2426.0</ele>
        <time>2016-07-25T13:14:53Z</time>
      </trkpt>
      <trkpt lat="41.252267" lon="-3.516750">
        <ele>2421.0</ele>
        <time>2016-07-25T13:14:55Z</time>
      </trkpt>
      <trkpt lat="41.252383" lon="-3.516533">
        <ele>2415.0</ele>
        <time>2016-07-25T13:14:57Z</time>
      </trkpt>
      <trkpt lat="41.252500" lon="-3.516317">
        <ele>2411.0</ele>
        <time>2016-07-25T13:14:59Z</time>
      </trkpt>
      <trkpt lat="41.252617" lon="-3.516117">
        <ele>2407.0</ele>
        <time>2016-07-25T13:15:01Z</time>
      </trkpt>
      <trkpt lat="41.252717" lon="-3.515950">
        <ele>2400.0</ele>
        <time>2016-07-25T13:15:03Z</time>
      </trkpt>
      <trkpt lat="41.252850" lon="-3.515750">
        <ele>2393.0</ele>
        <time>2016-07-25T13:15:05Z</time>
      </trkpt>
      <trkpt lat="41.252983" lon="-3.515517">
        <ele>2388.0</ele>
        <time>2016-07-25T13:15:07Z</time>
      </trkpt>
      <trkpt lat="41.253100" lon="-3.515300">
        <ele>2383.0</ele>
        <time>2016-07-25T13:15:09Z</time>
      </trkpt>
      <trkpt lat="41.253200" lon="-3.515083">
        <ele>2378.0</ele>
        <time>2016-07-25T13:15:11Z</time>
      </trkpt>
      <trkpt lat="41.253300" lon="-3.514867">
        <ele>2374.0</ele>
        <time>2016-07-25T13:15:13Z</time>
      </trkpt>
      <trkpt lat="41.253400" lon="-3.514683">
        <ele>2370.0</ele>
        <time>2016-07-25T13:15:15Z</time>
      </trkpt>
      <trkpt lat="41.253533" lon="-3.514517">
        <ele>2363.0</ele>
        <time>2016-07-25T13:15:17Z</time>
      </trkpt>
      <trkpt lat="41.253683" lon="-3.514333">
        <ele>2357.0</ele>
        <time>2016-07-25T13:15:19Z</time>
      </trkpt>
      <trkpt lat="41.253800" lon="-3.514150">
        <ele>2354.0</ele>
        <time>2016-07-25T13:15:21Z</time>
      </trkpt>
      <trkpt lat="41.253917" lon="-3.513983">
        <ele>2348.0</ele>
        <time>2016-07-25T13:15:23Z</time>
      </trkpt>
      <trkpt lat="41.254067" lon="-3.513817">
        <ele>2343.0</ele>
        <time>2016-07-25T13:15:25Z</time>
      </trkpt>
      <trkpt lat="41.254200" lon="-3.513667">
        <ele>2339.0</ele>
        <time>2016-07-25T13:15:27Z</time>
      </trkpt>
      <trkpt lat="41.254333" lon="-3.513533">
        <ele>2334.0</ele>
        <time>2016-07-25T13:15:29Z</time>
      </trkpt>
      <trkpt lat="41.254483" lon="-3.513417">
        <ele>2327.0</ele>
        <time>2016-07-25T13:15:31Z</time>
      </trkpt>
      <trkpt lat="41.254633" lon="-3.513283">
        <ele>2321.0</ele>
        <time>2016-07-25T13:15:33Z</time>
      </trkpt>
      <trkpt lat="41.254750" lon="-3.513133">
        <ele>2316.0</ele>
        <time>2016-07-25T13:15:35Z</time>
      </trkpt>
      <trkpt lat="41.254867" lon="-3.512967">
        <ele>2310.0</ele>
        <time>2016-07-25T13:15:37Z</time>
      </trkpt>
      <trkpt lat="41.255000" lon="-3.512817">
        <ele>2303.0</ele>
        <time>2016-07-25T13:15:39Z</time>
      </trkpt>
      <trkpt lat="41.255117" lon="-3.512683">
        <ele>2296.0</ele>
        <time>2016-07-25T13:15:41Z</time>
      </trkpt>
      <trkpt lat="41.255267" lon="-3.512550">
        <ele>2289.0</ele>
        <time>2016-07-25T13:15:43Z</time>
      </trkpt>
      <trkpt lat="41.255400" lon="-3.512417">
        <ele>2284.0</ele>
        <time>2016-07-25T13:15:45Z</time>
      </trkpt>
      <trkpt lat="41.255533" lon="-3.512250">
        <ele>2279.0</ele>
        <time>2016-07-25T13:15:47Z</time>
      </trkpt>
      <trkpt lat="41.255650" lon="-3.512100">
        <ele>2274.0</ele>
        <time>2016-07-25T13:15:49Z</time>
      </trkpt>
      <trkpt lat="41.255750" lon="-3.511933">
        <ele>2269.0</ele>
        <time>2016-07-25T13:15:51Z</time>
      </trkpt>
      <trkpt lat="41.255867" lon="-3.511733">
        <ele>2263.0</ele>
        <time>2016-07-25T13:15:53Z</time>
      </trkpt>
      <trkpt lat="41.256017" lon="-3.511550">
        <ele>2258.0</ele>
        <time>2016-07-25T13:15:55Z</time>
      </trkpt>
      <trkpt lat="41.256133" lon="-3.511350">
        <ele>2254.0</ele>
        <time>2016-07-25T13:15:57Z</time>
      </trkpt>
      <trkpt lat="41.256250" lon="-3.511150">
        <ele>2250.0</ele>
        <time>2016-07-25T13:15:59Z</time>
      </trkpt>
      <trkpt lat="41.256367" lon="-3.510950">
        <ele>2245.0</ele>
        <time>2016-07-25T13:16:01Z</time>
      </trkpt>
      <trkpt lat="41.256483" lon="-3.510733">
        <ele>2241.0</ele>
        <time>2016-07-25T13:16:03Z</time>
      </trkpt>
      <trkpt lat="41.256600" lon="-3.510533">
        <ele>2238.0</ele>
        <time>2016-07-25T13:16:05Z</time>
      </trkpt>
      <trkpt lat="41.256717" lon="-3.510350">
        <ele>2232.0</ele>
        <time>2016-07-25T13:16:07Z</time>
      </trkpt>
      <trkpt lat="41.256850" lon="-3.510167">
        <ele>2227.0</ele>
        <time>2016-07-25T13:16:09Z</time>
      </trkpt>
      <trkpt lat="41.256983" lon="-3.510000">
        <ele>2224.0</ele>
        <time>2016-07-25T13:16:11Z</time>
      </trkpt>
      <trkpt lat="41.257083" lon="-3.509817">
        <ele>2221.0</ele>
        <time>2016-07-25T13:16:13Z</time>
      </trkpt>
      <trkpt lat="41.257200" lon="-3.509650">
        <ele>2216.0</ele>
        <time>2016-07-25T13:16:15Z</time>
      </trkpt>
      <trkpt lat="41.257317" lon="-3.509467">
        <ele>2212.0</ele>
        <time>2016-07-25T13:16:17Z</time>
      </trkpt>
      <trkpt lat="41.257450" lon="-3.509300">
        <ele>2208.0</ele>
        <time>2016-07-25T13:16:19Z</time>
      </trkpt>
      <trkpt lat="41.257550" lon="-3.509167">
        <ele>2202.0</ele>
        <time>2016-07-25T13:16:21Z</time>
      </trkpt>
      <trkpt lat="41.257683" lon="-3.509033">
        <ele>2195.0</ele>
        <time>2016-07-25T13:16:23Z</time>
      </trkpt>
      <trkpt lat="41.257817" lon="-3.508867">
        <ele>2187.0</ele>
        <time>2016-07-25T13:16:25Z</time>
      </trkpt>
      <trkpt lat="41.257933" lon="-3.508717">
        <ele>2181.0</ele>
        <time>2016-07-25T13:16:27Z</time>
      </trkpt>
      <trkpt lat="41.258067" lon="-3.508600">
        <ele>2175.0</ele>
        <time>2016-07-25T13:16:29Z</time>
      </trkpt>
      <trkpt lat="41.258167" lon="-3.508467">
        <ele>2167.0</ele>
        <time>2016-07-25T13:16:31Z</time>
      </trkpt>
      <trkpt lat="41.258283" lon="-3.508317">
        <ele>2160.0</ele>
        <time>2016-07-25T13:16:33Z</time>
      </trkpt>
      <trkpt lat="41.258383" lon="-3.508167">
        <ele>2153.0</ele>
        <time>2016-07-25T13:16:35Z</time>
      </trkpt>
      <trkpt lat="41.258483" lon="-3.507967">
        <ele>2146.0</ele>
        <time>2016-07-25T13:16:37Z</time>
      </trkpt>
      <trkpt lat="41.258600" lon="-3.507767">
        <ele>2140.0</ele>
        <time>2016-07-25T13:16:39Z</time>
      </trkpt>
      <trkpt lat="41.258717" lon="-3.507550">
        <ele>2138.0</ele>
        <time>2016-07-25T13:16:41Z</time>
      </trkpt>
      <trkpt lat="41.258800" lon="-3.507350">
        <ele>2135.0</ele>
        <time>2016-07-25T13:16:43Z</time>
      </trkpt>
      <trkpt lat="41.258883" lon="-3.507150">
        <ele>2130.0</ele>
        <time>2016-07-25T13:16:45Z</time>
      </trkpt>
      <trkpt lat="41.259000" lon="-3.506950">
        <ele>2125.0</ele>
        <time>2016-07-25T13:16:47Z</time>
      </trkpt>
      <trkpt lat="41.259083" lon="-3.506750">
        <ele>2120.0</ele>
        <time>2016-07-25T13:16:49Z</time>
      </trkpt>
      <trkpt lat="41.259183" lon="-3.506533">
        <ele>2115.0</ele>
        <time>2016-07-25T13:16:51Z</time>
      </trkpt>
      <trkpt lat="41.259283" lon="-3.506333">
        <ele>2111.0</ele>
        <time>2016-07-25T13:16:53Z</time>
      </trkpt>
      <trkpt lat="41.259383" lon="-3.506133">
        <ele>2106.0</ele>
        <time>2016-07-25T13:16:55Z</time>
      </trkpt>
      <trkpt lat="41.259483" lon="-3.505917">
        <ele>2101.0</ele>
        <time>2016-07-25T13:16:57Z</time>
      </trkpt>
      <trkpt lat="41.259583" lon="-3.505717">
        <ele>2095.0</ele>
        <time>2016-07-25T13:16:59Z</time>
      </trkpt>
      <trkpt lat="41.259700" lon="-3.505500">
        <ele>2088.0</ele>
        <time>2016-07-25T13:17:01Z</time>
      </trkpt>
      <trkpt lat="41.259817" lon="-3.505267">
        <ele>2081.0</ele>
        <time>2016-07-25T13:17:03Z</time>
      </trkpt>
      <trkpt lat="41.259950" lon="-3.505067">
        <ele>2076.0</ele>
        <time>2016-07-25T13:17:05Z</time>
      </trkpt>
      <trkpt lat="41.260067" lon="-3.504867">
        <ele>2072.0</ele>
        <time>2016-07-25T13:17:07Z</time>
      </trkpt>
      <trkpt lat="41.260183" lon="-3.504667">
        <ele>2070.0</ele>
        <time>2016-07-25T13:17:09Z</time>
      </trkpt>
      <trkpt lat="41.260283" lon="-3.504483">
        <ele>2067.0</ele>
        <time>2016-07-25T13:17:11Z</time>
      </trkpt>
      <trkpt lat="41.260383" lon="-3.504283">
        <ele>2061.0</ele>
        <time>2016-07-25T13:17:13Z</time>
      </trkpt>
      <trkpt lat="41.260500" lon="-3.504083">
        <ele>2054.0</ele>
        <time>2016-07-25T13:17:15Z</time>
      </trkpt>
      <trkpt lat="41.260617" lon="-3.503867">
        <ele>2048.0</ele>
        <time>2016-07-25T13:17:17Z</time>
      </trkpt>
      <trkpt lat="41.260733" lon="-3.503650">
        <ele>2043.0</ele>
        <time>2016-07-25T13:17:19Z</time>
      </trkpt>
      <trkpt lat="41.260850" lon="-3.503467">
        <ele>2039.0</ele>
        <time>2016-07-25T13:17:21Z</time>
      </trkpt>
      <trkpt lat="41.260967" lon="-3.503267">
        <ele>2033.0</ele>
        <time>2016-07-25T13:17:23Z</time>
      </trkpt>
      <trkpt lat="41.261083" lon="-3.503033">
        <ele>2026.0</ele>
        <time>2016-07-25T13:17:25Z</time>
      </trkpt>
      <trkpt lat="41.261183" lon="-3.502800">
        <ele>2023.0</ele>
        <time>2016-07-25T13:17:27Z</time>
      </trkpt>
      <trkpt lat="41.261267" lon="-3.502600">
        <ele>2017.0</ele>
        <time>2016-07-25T13:17:29Z</time>
      </trkpt>
      <trkpt lat="41.261383" lon="-3.502350">
        <ele>2012.0</ele>
        <time>2016-07-25T13:17:31Z</time>
      </trkpt>
      <trkpt lat="41.261467" lon="-3.502100">
        <ele>2009.0</ele>
        <time>2016-07-25T13:17:33Z</time>
      </trkpt>
      <trkpt lat="41.261583" lon="-3.501850">
        <ele>2007.0</ele>
        <time>2016-07-25T13:17:35Z</time>
      </trkpt>
      <trkpt lat="41.261667" lon="-3.501600">
        <ele>2006.0</ele>
        <time>2016-07-25T13:17:37Z</time>
      </trkpt>
      <trkpt lat="41.261750" lon="-3.501367">
        <ele>2005.0</ele>
        <time>2016-07-25T13:17:39Z</time>
      </trkpt>
      <trkpt lat="41.261800" lon="-3.501100">
        <ele>2003.0</ele>
        <time>2016-07-25T13:17:41Z</time>
      </trkpt>
      <trkpt lat="41.261850" lon="-3.500833">
        <ele>2000.0</ele>
        <time>2016-07-25T13:17:43Z</time>
      </trkpt>
      <trkpt lat="41.261900" lon="-3.500550">
        <ele>1997.0</ele>
        <time>2016-07-25T13:17:45Z</time>
      </trkpt>
      <trkpt lat="41.261950" lon="-3.500283">
        <ele>1993.0</ele>
        <time>2016-07-25T13:17:47Z</time>
      </trkpt>
      <trkpt lat="41.262000" lon="-3.499967">
        <ele>1989.0</ele>
        <time>2016-07-25T13:17:49Z</time>
      </trkpt>
      <trkpt lat="41.262033" lon="-3.499683">
        <ele>1988.0</ele>
        <time>2016-07-25T13:17:51Z</time>
      </trkpt>
      <trkpt lat="41.262067" lon="-3.499417">
        <ele>1988.0</ele>
        <time>2016-07-25T13:17:53Z</time>
      </trkpt>
      <trkpt lat="41.262100" lon="-3.499167">
        <ele>1985.0</ele>
        <time>2016-07-25T13:17:55Z</time>
      </trkpt>
      <trkpt lat="41.262133" lon="-3.498883">
        <ele>1980.0</ele>
        <time>2016-07-25T13:17:57Z</time>
      </trkpt>
      <trkpt lat="41.262183" lon="-3.498600">
        <ele>1977.0</ele>
        <time>2016-07-25T13:17:59Z</time>
      </trkpt>
      <trkpt lat="41.262233" lon="-3.498333">
        <ele>1974.0</ele>
        <time>2016-07-25T13:18:01Z</time>
      </trkpt>
      <trkpt lat="41.262267" lon="-3.498050">
        <ele>1970.0</ele>
        <time>2016-07-25T13:18:03Z</time>
      </trkpt>
      <trkpt lat="41.262283" lon="-3.497767">
        <ele>1967.0</ele>
        <time>2016-07-25T13:18:05Z</time>
      </trkpt>
      <trkpt lat="41.262317" lon="-3.497517">
        <ele>1964.0</ele>
        <time>2016-07-25T13:18:07Z</time>
      </trkpt>
      <trkpt lat="41.262367" lon="-3.497250">
        <ele>1959.0</ele>
        <time>2016-07-25T13:18:09Z</time>
      </trkpt>
      <trkpt lat="41.262433" lon="-3.496967">
        <ele>1955.0</ele>
        <time>2016-07-25T13:18:11Z</time>
      </trkpt>
      <trkpt lat="41.262500" lon="-3.496683">
        <ele>1951.0</ele>
        <time>2016-07-25T13:18:13Z</time>
      </trkpt>
      <trkpt lat="41.262567" lon="-3.496383">
        <ele>1949.0</ele>
        <time>2016-07-25T13:18:15Z</time>
      </trkpt>
      <trkpt lat="41.262650" lon="-3.496117">
        <ele>1946.0</ele>
        <time>2016-07-25T13:18:17Z</time>
      </trkpt>
      <trkpt lat="41.262733" lon="-3.495817">
        <ele>1945.0</ele>
        <time>2016-07-25T13:18:19Z</time>
      </trkpt>
      <trkpt lat="41.262817" lon="-3.495550">
        <ele>1947.0</ele>
        <time>2016-07-25T13:18:21Z</time>
      </trkpt>
      <trkpt lat="41.262883" lon="-3.495250">
        <ele>1946.0</ele>
        <time>2016-07-25T13:18:23Z</time>
      </trkpt>
      <trkpt lat="41.262933" lon="-3.494933">
        <ele>1945.0</ele>
        <time>2016-07-25T13:18:25Z</time>
      </trkpt>
      <trkpt lat="41.262983" lon="-3.494600">
        <ele>1946.0</ele>
        <time>2016-07-25T13:18:27Z</time>
      </trkpt>
      <trkpt lat="41.263033" lon="-3.494283">
        <ele>1947.0</ele>
        <time>2016-07-25T13:18:29Z</time>
      </trkpt>
      <trkpt lat="41.263083" lon="-3.493933">
        <ele>1948.0</ele>
        <time>2016-07-25T13:18:31Z</time>
      </trkpt>
      <trkpt lat="41.263167" lon="-3.493633">
        <ele>1953.0</ele>
        <time>2016-07-25T13:18:33Z</time>
      </trkpt>
      <trkpt lat="41.263233" lon="-3.493367">
        <ele>1957.0</ele>
        <time>2016-07-25T13:18:35Z</time>
      </trkpt>
      <trkpt lat="41.263283" lon="-3.493083">
        <ele>1958.0</ele>
        <time>2016-07-25T13:18:37Z</time>
      </trkpt>
      <trkpt lat="41.263283" lon="-3.492783">
        <ele>1961.0</ele>
        <time>2016-07-25T13:18:39Z</time>
      </trkpt>
      <trkpt lat="41.263200" lon="-3.492550">
        <ele>1963.0</ele>
        <time>2016-07-25T13:18:41Z</time>
      </trkpt>
      <trkpt lat="41.263050" lon="-3.492383">
        <ele>1966.0</ele>
        <time>2016-07-25T13:18:43Z</time>
      </trkpt>
      <trkpt lat="41.262900" lon="-3.492317">
        <ele>1968.0</ele>
        <time>2016-07-25T13:18:45Z</time>
      </trkpt>
      <trkpt lat="41.262767" lon="-3.492383">
        <ele>1968.0</ele>
        <time>2016-07-25T13:18:47Z</time>
      </trkpt>
      <trkpt lat="41.262683" lon="-3.492533">
        <ele>1970.0</ele>
        <time>2016-07-25T13:18:49Z</time>
      </trkpt>
      <trkpt lat="41.262700" lon="-3.492700">
        <ele>1970.0</ele>
        <time>2016-07-25T13:18:51Z</time>
      </trkpt>
      <trkpt lat="41.262783" lon="-3.492850">
        <ele>1970.0</ele>
        <time>2016-07-25T13:18:53Z</time>
      </trkpt>
      <trkpt lat="41.262950" lon="-3.492933">
        <ele>1971.0</ele>
        <time>2016-07-25T13:18:55Z</time>
      </trkpt>
      <trkpt lat="41.263133" lon="-3.492867">
        <ele>1973.0</ele>
        <time>2016-07-25T13:18:57Z</time>
      </trkpt>
      <trkpt lat="41.263283" lon="-3.492717">
        <ele>1976.0</ele>
        <time>2016-07-25T13:18:59Z</time>
      </trkpt>
      <trkpt lat="41.263417" lon="-3.492500">
        <ele>1979.0</ele>
        <time>2016-07-25T13:19:01Z</time>
      </trkpt>
      <trkpt lat="41.263500" lon="-3.492233">
        <ele>1979.0</ele>
        <time>2016-07-25T13:19:03Z</time>
      </trkpt>
      <trkpt lat="41.263600" lon="-3.491933">
        <ele>1981.0</ele>
        <time>2016-07-25T13:19:05Z</time>
      </trkpt>
      <trkpt lat="41.263700" lon="-3.491633">
        <ele>1983.0</ele>
        <time>2016-07-25T13:19:07Z</time>
      </trkpt>
      <trkpt lat="41.263767" lon="-3.491333">
        <ele>1985.0</ele>
        <time>2016-07-25T13:19:09Z</time>
      </trkpt>
      <trkpt lat="41.263817" lon="-3.491033">
        <ele>1989.0</ele>
        <time>2016-07-25T13:19:11Z</time>
      </trkpt>
      <trkpt lat="41.263833" lon="-3.490750">
        <ele>1991.0</ele>
        <time>2016-07-25T13:19:13Z</time>
      </trkpt>
      <trkpt lat="41.263833" lon="-3.490450">
        <ele>1992.0</ele>
        <time>2016-07-25T13:19:15Z</time>
      </trkpt>
      <trkpt lat="41.263783" lon="-3.490183">
        <ele>1996.0</ele>
        <time>2016-07-25T13:19:17Z</time>
      </trkpt>
      <trkpt lat="41.263683" lon="-3.489983">
        <ele>2000.0</ele>
        <time>2016-07-25T13:19:19Z</time>
      </trkpt>
      <trkpt lat="41.263550" lon="-3.489850">
        <ele>2001.0</ele>
        <time>2016-07-25T13:19:21Z</time>
      </trkpt>
      <trkpt lat="41.263400" lon="-3.489833">
        <ele>2002.0</ele>
        <time>2016-07-25T13:19:23Z</time>
      </trkpt>
      <trkpt lat="41.263267" lon="-3.489917">
        <ele>2005.0</ele>
        <time>2016-07-25T13:19:25Z</time>
      </trkpt>
      <trkpt lat="41.263200" lon="-3.490067">
        <ele>2007.0</ele>
        <time>2016-07-25T13:19:27Z</time>
      </trkpt>
      <trkpt lat="41.263200" lon="-3.490233">
        <ele>2008.0</ele>
        <time>2016-07-25T13:19:29Z</time>
      </trkpt>
      <trkpt lat="41.263283" lon="-3.490400">
        <ele>2011.0</ele>
        <time>2016-07-25T13:19:31Z</time>
      </trkpt>
      <trkpt lat="41.263400" lon="-3.490517">
        <ele>2014.0</ele>
        <time>2016-07-25T13:19:33Z</time>
      </trkpt>
      <trkpt lat="41.263533" lon="-3.490600">
        <ele>2016.0</ele>
        <time>2016-07-25T13:19:35Z</time>
      </trkpt>
      <trkpt lat="41.263700" lon="-3.490600">
        <ele>2016.0</ele>
        <time>2016-07-25T13:19:37Z</time>
      </trkpt>
      <trkpt lat="41.263883" lon="-3.490533">
        <ele>2019.0</ele>
        <time>2016-07-25T13:19:39Z</time>
      </trkpt>
      <trkpt lat="41.264050" lon="-3.490400">
        <ele>2020.0</ele>
        <time>2016-07-25T13:19:41Z</time>
      </trkpt>
      <trkpt lat="41.264200" lon="-3.490183">
        <ele>2020.0</ele>
        <time>2016-07-25T13:19:43Z</time>
      </trkpt>
      <trkpt lat="41.264283" lon="-3.489900">
        <ele>2022.0</ele>
        <time>2016-07-25T13:19:45Z</time>
      </trkpt>
      <trkpt lat="41.264317" lon="-3.489600">
        <ele>2025.0</ele>
        <time>2016-07-25T13:19:47Z</time>
      </trkpt>
      <trkpt lat="41.264333" lon="-3.489317">
        <ele>2029.0</ele>
        <time>2016-07-25T13:19:49Z</time>
      </trkpt>
      <trkpt lat="41.264317" lon="-3.489067">
        <ele>2031.0</ele>
        <time>2016-07-25T13:19:51Z</time>
      </trkpt>
      <trkpt lat="41.264217" lon="-3.488800">
        <ele>2031.0</ele>
        <time>2016-07-25T13:19:53Z</time>
      </trkpt>
      <trkpt lat="41.264067" lon="-3.488617">
        <ele>2034.0</ele>
        <time>2016-07-25T13:19:55Z</time>
      </trkpt>
      <trkpt lat="41.263900" lon="-3.488550">
        <ele>2038.0</ele>
        <time>2016-07-25T13:19:57Z</time>
      </trkpt>
      <trkpt lat="41.263750" lon="-3.488550">
        <ele>2042.0</ele>
        <time>2016-07-25T13:19:59Z</time>
      </trkpt>
      <trkpt lat="41.263617" lon="-3.488650">
        <ele>2047.0</ele>
        <time>2016-07-25T13:20:01Z</time>
      </trkpt>
      <trkpt lat="41.263567" lon="-3.488833">
        <ele>2053.0</ele>
        <time>2016-07-25T13:20:03Z</time>
      </trkpt>
      <trkpt lat="41.263600" lon="-3.489000">
        <ele>2057.0</ele>
        <time>2016-07-25T13:20:05Z</time>
      </trkpt>
      <trkpt lat="41.263717" lon="-3.489117">
        <ele>2060.0</ele>
        <time>2016-07-25T13:20:07Z</time>
      </trkpt>
      <trkpt lat="41.263883" lon="-3.489150">
        <ele>2061.0</ele>
        <time>2016-07-25T13:20:09Z</time>
      </trkpt>
      <trkpt lat="41.264050" lon="-3.489050">
        <ele>2063.0</ele>
        <time>2016-07-25T13:20:11Z</time>
      </trkpt>
      <trkpt lat="41.264217" lon="-3.488850">
        <ele>2065.0</ele>
        <time>2016-07-25T13:20:13Z</time>
      </trkpt>
      <trkpt lat="41.264317" lon="-3.488600">
        <ele>2068.0</ele>
        <time>2016-07-25T13:20:15Z</time>
      </trkpt>
      <trkpt lat="41.264367" lon="-3.488333">
        <ele>2070.0</ele>
        <time>2016-07-25T13:20:17Z</time>
      </trkpt>
      <trkpt lat="41.264300" lon="-3.488050">
        <ele>2074.0</ele>
        <time>2016-07-25T13:20:19Z</time>
      </trkpt>
      <trkpt lat="41.264183" lon="-3.487850">
        <ele>2078.0</ele>
        <time>2016-07-25T13:20:21Z</time>
      </trkpt>
      <trkpt lat="41.264017" lon="-3.487767">
        <ele>2084.0</ele>
        <time>2016-07-25T13:20:23Z</time>
      </trkpt>
      <trkpt lat="41.263867" lon="-3.487750">
        <ele>2089.0</ele>
        <time>2016-07-25T13:20:25Z</time>
      </trkpt>
      <trkpt lat="41.263733" lon="-3.487817">
        <ele>2092.0</ele>
        <time>2016-07-25T13:20:27Z</time>
      </trkpt>
      <trkpt lat="41.263650" lon="-3.488000">
        <ele>2096.0</ele>
        <time>2016-07-25T13:20:29Z</time>
      </trkpt>
      <trkpt lat="41.263633" lon="-3.488183">
        <ele>2102.0</ele>
        <time>2016-07-25T13:20:31Z</time>
      </trkpt>
      <trkpt lat="41.263667" lon="-3.488317">
        <ele>2107.0</ele>
        <time>2016-07-25T13:20:33Z</time>
      </trkpt>
      <trkpt lat="41.263767" lon="-3.488417">
        <ele>2107.0</ele>
        <time>2016-07-25T13:20:35Z</time>
      </trkpt>
      <trkpt lat="41.263933" lon="-3.488483">
        <ele>2107.0</ele>
        <time>2016-07-25T13:20:37Z</time>
      </trkpt>
      <trkpt lat="41.264117" lon="-3.488417">
        <ele>2110.0</ele>
        <time>2016-07-25T13:20:39Z</time>
      </trkpt>
      <trkpt lat="41.264283" lon="-3.488250">
        <ele>2112.0</ele>
        <time>2016-07-25T13:20:41Z</time>
      </trkpt>
      <trkpt lat="41.264400" lon="-3.488050">
        <ele>2114.0</ele>
        <time>2016-07-25T13:20:43Z</time>
      </trkpt>
      <trkpt lat="41.264467" lon="-3.487783">
        <ele>2114.0</ele>
        <time>2016-07-25T13:20:45Z</time>
      </trkpt>
      <trkpt lat="41.264450" lon="-3.487450">
        <ele>2118.0</ele>
        <time>2016-07-25T13:20:47Z</time>
      </trkpt>
      <trkpt lat="41.264383" lon="-3.487183">
        <ele>2126.0</ele>
        <time>2016-07-25T13:20:49Z</time>
      </trkpt>
      <trkpt lat="41.264333" lon="-3.486983">
        <ele>2134.0</ele>
        <time>2016-07-25T13:20:51Z</time>
      </trkpt>
      <trkpt lat="41.264233" lon="-3.486850">
        <ele>2138.0</ele>
        <time>2016-07-25T13:20:53Z</time>
      </trkpt>
      <trkpt lat="41.264067" lon="-3.486800">
        <ele>2142.0</ele>
        <time>2016-07-25T13:20:55Z</time>
      </trkpt>
      <trkpt lat="41.263917" lon="-3.486850">
        <ele>2147.0</ele>
        <time>2016-07-25T13:20:57Z</time>
      </trkpt>
      <trkpt lat="41.263817" lon="-3.486967">
        <ele>2150.0</ele>
        <time>2016-07-25T13:20:59Z</time>
      </trkpt>
      <trkpt lat="41.263800" lon="-3.487150">
        <ele>2154.0</ele>
        <time>2016-07-25T13:21:01Z</time>
      </trkpt>
      <trkpt lat="41.263833" lon="-3.487333">
        <ele>2162.0</ele>
        <time>2016-07-25T13:21:03Z</time>
      </trkpt>
      <trkpt lat="41.263917" lon="-3.487450">
        <ele>2168.0</ele>
        <time>2016-07-25T13:21:05Z</time>
      </trkpt>
      <trkpt lat="41.264050" lon="-3.487567">
        <ele>2171.0</ele>
        <time>2016-07-25T13:21:07Z</time>
      </trkpt>
      <trkpt lat="41.264217" lon="-3.487617">
        <ele>2175.0</ele>
        <time>2016-07-25T13:21:09Z</time>
      </trkpt>
      <trkpt lat="41.264383" lon="-3.487600">
        <ele>2178.0</ele>
        <time>2016-07-25T13:21:11Z</time>
      </trkpt>
      <trkpt lat="41.264550" lon="-3.487500">
        <ele>2178.0</ele>
        <time>2016-07-25T13:21:13Z</time>
      </trkpt>
      <trkpt lat="41.264717" lon="-3.487283">
        <ele>2177.0</ele>
        <time>2016-07-25T13:21:15Z</time>
      </trkpt>
      <trkpt lat="41.264800" lon="-3.487000">
        <ele>2180.0</ele>
        <time>2016-07-25T13:21:17Z</time>
      </trkpt>
      <trkpt lat="41.264833" lon="-3.486700">
        <ele>2182.0</ele>
        <time>2016-07-25T13:21:19Z</time>
      </trkpt>
      <trkpt lat="41.264817" lon="-3.486383">
        <ele>2186.0</ele>
        <time>2016-07-25T13:21:21Z</time>
      </trkpt>
      <trkpt lat="41.264750" lon="-3.486117">
        <ele>2189.0</ele>
        <time>2016-07-25T13:21:23Z</time>
      </trkpt>
      <trkpt lat="41.264650" lon="-3.485867">
        <ele>2191.0</ele>
        <time>2016-07-25T13:21:25Z</time>
      </trkpt>
      <trkpt lat="41.264517" lon="-3.485650">
        <ele>2194.0</ele>
        <time>2016-07-25T13:21:27Z</time>
      </trkpt>
      <trkpt lat="41.264367" lon="-3.485483">
        <ele>2195.0</ele>
        <time>2016-07-25T13:21:29Z</time>
      </trkpt>
      <trkpt lat="41.264167" lon="-3.485417">
        <ele>2196.0</ele>
        <time>2016-07-25T13:21:31Z</time>
      </trkpt>
      <trkpt lat="41.263967" lon="-3.485400">
        <ele>2203.0</ele>
        <time>2016-07-25T13:21:33Z</time>
      </trkpt>
      <trkpt lat="41.263800" lon="-3.485367">
        <ele>2207.0</ele>
        <time>2016-07-25T13:21:35Z</time>
      </trkpt>
      <trkpt lat="41.263617" lon="-3.485417">
        <ele>2207.0</ele>
        <time>2016-07-25T13:21:37Z</time>
      </trkpt>
      <trkpt lat="41.263467" lon="-3.485583">
        <ele>2208.0</ele>
        <time>2016-07-25T13:21:39Z</time>
      </trkpt>
      <trkpt lat="41.263417" lon="-3.485783">
        <ele>2211.0</ele>
        <time>2016-07-25T13:21:41Z</time>
      </trkpt>
      <trkpt lat="41.263433" lon="-3.485950">
        <ele>2213.0</ele>
        <time>2016-07-25T13:21:43Z</time>
      </trkpt>
      <trkpt lat="41.263533" lon="-3.486133">
        <ele>2215.0</ele>
        <time>2016-07-25T13:21:45Z</time>
      </trkpt>
      <trkpt lat="41.263667" lon="-3.486283">
        <ele>2220.0</ele>
        <time>2016-07-25T13:21:47Z</time>
      </trkpt>
      <trkpt lat="41.263833" lon="-3.486350">
        <ele>2225.0</ele>
        <time>2016-07-25T13:21:49Z</time>
      </trkpt>
      <trkpt lat="41.264000" lon="-3.486250">
        <ele>2228.0</ele>
        <time>2016-07-25T13:21:51Z</time>
      </trkpt>
      <trkpt lat="41.264150" lon="-3.486033">
        <ele>2230.0</ele>
        <time>2016-07-25T13:21:53Z</time>
      </trkpt>
      <trkpt lat="41.264233" lon="-3.485750">
        <ele>2235.0</ele>
        <time>2016-07-25T13:21:55Z</time>
      </trkpt>
      <trkpt lat="41.264233" lon="-3.485500">
        <ele>2240.0</ele>
        <time>2016-07-25T13:21:57Z</time>
      </trkpt>
      <trkpt lat="41.264167" lon="-3.485267">
        <ele>2242.0</ele>
        <time>2016-07-25T13:21:59Z</time>
      </trkpt>
      <trkpt lat="41.264050" lon="-3.485083">
        <ele>2243.0</ele>
        <time>2016-07-25T13:22:01Z</time>
      </trkpt>
      <trkpt lat="41.263867" lon="-3.484950">
        <ele>2244.0</ele>
        <time>2016-07-25T13:22:03Z</time>
      </trkpt>
      <trkpt lat="41.263683" lon="-3.484933">
        <ele>2245.0</ele>
        <time>2016-07-25T13:22:05Z</time>
      </trkpt>
      <trkpt lat="41.263533" lon="-3.485033">
        <ele>2246.0</ele>
        <time>2016-07-25T13:22:07Z</time>
      </trkpt>
      <trkpt lat="41.263483" lon="-3.485200">
        <ele>2244.0</ele>
        <time>2016-07-25T13:22:09Z</time>
      </trkpt>
      <trkpt lat="41.263517" lon="-3.485417">
        <ele>2243.0</ele>
        <time>2016-07-25T13:22:11Z</time>
      </trkpt>
      <trkpt lat="41.263617" lon="-3.485633">
        <ele>2247.0</ele>
        <time>2016-07-25T13:22:13Z</time>
      </trkpt>
      <trkpt lat="41.263700" lon="-3.485800">
        <ele>2254.0</ele>
        <time>2016-07-25T13:22:15Z</time>
      </trkpt>
      <trkpt lat="41.263783" lon="-3.485933">
        <ele>2258.0</ele>
        <time>2016-07-25T13:22:17Z</time>
      </trkpt>
      <trkpt lat="41.263950" lon="-3.486017">
        <ele>2258.0</ele>
        <time>2016-07-25T13:22:19Z</time>
      </trkpt>
      <trkpt lat="41.264150" lon="-3.485983">
        <ele>2259.0</ele>
        <time>2016-07-25T13:22:21Z</time>
      </trkpt>
      <trkpt lat="41.264317" lon="-3.485833">
        <ele>2261.0</ele>
        <time>2016-07-25T13:22:23Z</time>
      </trkpt>
      <trkpt lat="41.264450" lon="-3.485617">
        <ele>2263.0</ele>
        <time>2016-07-25T13:22:25Z</time>
      </trkpt>
      <trkpt lat="41.264550" lon="-3.485383">
        <ele>2269.0</ele>
        <time>2016-07-25T13:22:27Z</time>
      </trkpt>
      <trkpt lat="41.264583" lon="-3.485167">
        <ele>2272.0</ele>
        <time>2016-07-25T13:22:29Z</time>
      </trkpt>
      <trkpt lat="41.264567" lon="-3.484933">
        <ele>2272.0</ele>
        <time>2016-07-25T13:22:31Z</time>
      </trkpt>
      <trkpt lat="41.264450" lon="-3.484700">
        <ele>2273.0</ele>
        <time>2016-07-25T13:22:33Z</time>
      </trkpt>
      <trkpt lat="41.264283" lon="-3.484583">
        <ele>2277.0</ele>
        <time>2016-07-25T13:22:35Z</time>
      </trkpt>
      <trkpt lat="41.264117" lon="-3.484533">
        <ele>2279.0</ele>
        <time>2016-07-25T13:22:37Z</time>
      </trkpt>
      <trkpt lat="41.263933" lon="-3.484550">
        <ele>2278.0</ele>
        <time>2016-07-25T13:22:39Z</time>
      </trkpt>
      <trkpt lat="41.263767" lon="-3.484700">
        <ele>2279.0</ele>
        <time>2016-07-25T13:22:41Z</time>
      </trkpt>
      <trkpt lat="41.263683" lon="-3.484883">
        <ele>2282.0</ele>
        <time>2016-07-25T13:22:43Z</time>
      </trkpt>
      <trkpt lat="41.263650" lon="-3.485050">
        <ele>2284.0</ele>
        <time>2016-07-25T13:22:45Z</time>
      </trkpt>
      <trkpt lat="41.263700" lon="-3.485233">
        <ele>2286.0</ele>
        <time>2016-07-25T13:22:47Z</time>
      </trkpt>
      <trkpt lat="41.263783" lon="-3.485383">
        <ele>2291.0</ele>
        <time>2016-07-25T13:22:49Z</time>
      </trkpt>
      <trkpt lat="41.263883" lon="-3.485467">
        <ele>2293.0</ele>
        <time>2016-07-25T13:22:51Z</time>
      </trkpt>
      <trkpt lat="41.264033" lon="-3.485517">
        <ele>2293.0</ele>
        <time>2016-07-25T13:22:53Z</time>
      </trkpt>
      <trkpt lat="41.264200" lon="-3.485533">
        <ele>2295.0</ele>
        <time>2016-07-25T13:22:55Z</time>
      </trkpt>
      <trkpt lat="41.264383" lon="-3.485450">
        <ele>2297.0</ele>
        <time>2016-07-25T13:22:57Z</time>
      </trkpt>
      <trkpt lat="41.264550" lon="-3.485283">
        <ele>2297.0</ele>
        <time>2016-07-25T13:22:59Z</time>
      </trkpt>
      <trkpt lat="41.264683" lon="-3.485050">
        <ele>2299.0</ele>
        <time>2016-07-25T13:23:01Z</time>
      </trkpt>
      <trkpt lat="41.264733" lon="-3.484800">
        <ele>2300.0</ele>
        <time>2016-07-25T13:23:03Z</time>
      </trkpt>
      <trkpt lat="41.264733" lon="-3.484550">
        <ele>2300.0</ele>
        <time>2016-07-25T13:23:05Z</time>
      </trkpt>
      <trkpt lat="41.264667" lon="-3.484317">
        <ele>2301.0</ele>
        <time>2016-07-25T13:23:07Z</time>
      </trkpt>
      <trkpt lat="41.264567" lon="-3.484167">
        <ele>2303.0</ele>
        <time>2016-07-25T13:23:09Z</time>
      </trkpt>
      <trkpt lat="41.264417" lon="-3.484000">
        <ele>2302.0</ele>
        <time>2016-07-25T13:23:11Z</time>
      </trkpt>
      <trkpt lat="41.264233" lon="-3.483967">
        <ele>2301.0</ele>
        <time>2016-07-25T13:23:13Z</time>
      </trkpt>
      <trkpt lat="41.264117" lon="-3.484050">
        <ele>2301.0</ele>
        <time>2016-07-25T13:23:15Z</time>
      </trkpt>
      <trkpt lat="41.264033" lon="-3.484183">
        <ele>2300.0</ele>
        <time>2016-07-25T13:23:17Z</time>
      </trkpt>
      <trkpt lat="41.263983" lon="-3.484367">
        <ele>2298.0</ele>
        <time>2016-07-25T13:23:19Z</time>
      </trkpt>
      <trkpt lat="41.263983" lon="-3.484567">
        <ele>2298.0</ele>
        <time>2016-07-25T13:23:21Z</time>
      </trkpt>
      <trkpt lat="41.264033" lon="-3.484717">
        <ele>2300.0</ele>
        <time>2016-07-25T13:23:23Z</time>
      </trkpt>
      <trkpt lat="41.264183" lon="-3.484850">
        <ele>2299.0</ele>
        <time>2016-07-25T13:23:25Z</time>
      </trkpt>
      <trkpt lat="41.264333" lon="-3.484933">
        <ele>2299.0</ele>
        <time>2016-07-25T13:23:27Z</time>
      </trkpt>
      <trkpt lat="41.264533" lon="-3.484983">
        <ele>2299.0</ele>
        <time>2016-07-25T13:23:29Z</time>
      </trkpt>
      <trkpt lat="41.264733" lon="-3.484983">
        <ele>2301.0</ele>
        <time>2016-07-25T13:23:31Z</time>
      </trkpt>
      <trkpt lat="41.264917" lon="-3.485033">
        <ele>2302.0</ele>
        <time>2016-07-25T13:23:33Z</time>
      </trkpt>
      <trkpt lat="41.265100" lon="-3.485083">
        <ele>2301.0</ele>
        <time>2016-07-25T13:23:35Z</time>
      </trkpt>
      <trkpt lat="41.265300" lon="-3.485050">
        <ele>2299.0</ele>
        <time>2016-07-25T13:23:37Z</time>
      </trkpt>
      <trkpt lat="41.265500" lon="-3.485000">
        <ele>2298.0</ele>
        <time>2016-07-25T13:23:39Z</time>
      </trkpt>
      <trkpt lat="41.265683" lon="-3.484917">
        <ele>2297.0</ele>
        <time>2016-07-25T13:23:41Z</time>
      </trkpt>
      <trkpt lat="41.265867" lon="-3.484783">
        <ele>2296.0</ele>
        <time>2016-07-25T13:23:43Z</time>
      </trkpt>
      <trkpt lat="41.266033" lon="-3.484617">
        <ele>2295.0</ele>
        <time>2016-07-25T13:23:45Z</time>
      </trkpt>
      <trkpt lat="41.266167" lon="-3.484433">
        <ele>2294.0</ele>
        <time>2016-07-25T13:23:47Z</time>
      </trkpt>
      <trkpt lat="41.266283" lon="-3.484217">
        <ele>2292.0</ele>
        <time>2016-07-25T13:23:49Z</time>
      </trkpt>
      <trkpt lat="41.266350" lon="-3.483950">
        <ele>2289.0</ele>
        <time>2016-07-25T13:23:51Z</time>
      </trkpt>
      <trkpt lat="41.266367" lon="-3.483683">
        <ele>2287.0</ele>
        <time>2016-07-25T13:23:53Z</time>
      </trkpt>
      <trkpt lat="41.266350" lon="-3.483467">
        <ele>2284.0</ele>
        <time>2016-07-25T13:23:55Z</time>
      </trkpt>
      <trkpt lat="41.266300" lon="-3.483217">
        <ele>2278.0</ele>
        <time>2016-07-25T13:23:57Z</time>
      </trkpt>
      <trkpt lat="41.266233" lon="-3.482950">
        <ele>2277.0</ele>
        <time>2016-07-25T13:23:59Z</time>
      </trkpt>
      <trkpt lat="41.266183" lon="-3.482700">
        <ele>2280.0</ele>
        <time>2016-07-25T13:24:01Z</time>
      </trkpt>
      <trkpt lat="41.266133" lon="-3.482450">
        <ele>2282.0</ele>
        <time>2016-07-25T13:24:03Z</time>
      </trkpt>
      <trkpt lat="41.266067" lon="-3.482183">
        <ele>2284.0</ele>
        <time>2016-07-25T13:24:05Z</time>
      </trkpt>
      <trkpt lat="41.265967" lon="-3.482000">
        <ele>2290.0</ele>
        <time>2016-07-25T13:24:07Z</time>
      </trkpt>
      <trkpt lat="41.265817" lon="-3.481900">
        <ele>2294.0</ele>
        <time>2016-07-25T13:24:09Z</time>
      </trkpt>
      <trkpt lat="41.265633" lon="-3.481883">
        <ele>2296.0</ele>
        <time>2016-07-25T13:24:11Z</time>
      </trkpt>
      <trkpt lat="41.265467" lon="-3.481983">
        <ele>2300.0</ele>
        <time>2016-07-25T13:24:13Z</time>
      </trkpt>
      <trkpt lat="41.265350" lon="-3.482183">
        <ele>2305.0</ele>
        <time>2016-07-25T13:24:15Z</time>
      </trkpt>
      <trkpt lat="41.265367" lon="-3.482350">
        <ele>2307.0</ele>
        <time>2016-07-25T13:24:17Z</time>
      </trkpt>
      <trkpt lat="41.265433" lon="-3.482533">
        <ele>2308.0</ele>
        <time>2016-07-25T13:24:19Z</time>
      </trkpt>
      <trkpt lat="41.265550" lon="-3.482717">
        <ele>2308.0</ele>
        <time>2016-07-25T13:24:21Z</time>
      </trkpt>
      <trkpt lat="41.265700" lon="-3.482750">
        <ele>2306.0</ele>
        <time>2016-07-25T13:24:23Z</time>
      </trkpt>
      <trkpt lat="41.265867" lon="-3.482667">
        <ele>2304.0</ele>
        <time>2016-07-25T13:24:25Z</time>
      </trkpt>
      <trkpt lat="41.266017" lon="-3.482567">
        <ele>2303.0</ele>
        <time>2016-07-25T13:24:27Z</time>
      </trkpt>
      <trkpt lat="41.266167" lon="-3.482367">
        <ele>2302.0</ele>
        <time>2016-07-25T13:24:29Z</time>
      </trkpt>
      <trkpt lat="41.266233" lon="-3.482117">
        <ele>2305.0</ele>
        <time>2016-07-25T13:24:31Z</time>
      </trkpt>
      <trkpt lat="41.266217" lon="-3.481883">
        <ele>2309.0</ele>
        <time>2016-07-25T13:24:33Z</time>
      </trkpt>
      <trkpt lat="41.266150" lon="-3.481683">
        <ele>2313.0</ele>
        <time>2016-07-25T13:24:35Z</time>
      </trkpt>
      <trkpt lat="41.266000" lon="-3.481583">
        <ele>2315.0</ele>
        <time>2016-07-25T13:24:37Z</time>
      </trkpt>
      <trkpt lat="41.265833" lon="-3.481617">
        <ele>2318.0</ele>
        <time>2016-07-25T13:24:39Z</time>
      </trkpt>
      <trkpt lat="41.265717" lon="-3.481783">
        <ele>2322.0</ele>
        <time>2016-07-25T13:24:41Z</time>
      </trkpt>
      <trkpt lat="41.265733" lon="-3.481983">
        <ele>2325.0</ele>
        <time>2016-07-25T13:24:43Z</time>
      </trkpt>
      <trkpt lat="41.265817" lon="-3.482133">
        <ele>2328.0</ele>
        <time>2016-07-25T13:24:45Z</time>
      </trkpt>
      <trkpt lat="41.265950" lon="-3.482200">
        <ele>2328.0</ele>
        <time>2016-07-25T13:24:47Z</time>
      </trkpt>
      <trkpt lat="41.266133" lon="-3.482200">
        <ele>2325.0</ele>
        <time>2016-07-25T13:24:49Z</time>
      </trkpt>
      <trkpt lat="41.266333" lon="-3.482117">
        <ele>2323.0</ele>
        <time>2016-07-25T13:24:51Z</time>
      </trkpt>
      <trkpt lat="41.266517" lon="-3.481967">
        <ele>2325.0</ele>
        <time>2016-07-25T13:24:53Z</time>
      </trkpt>
      <trkpt lat="41.266633" lon="-3.481750">
        <ele>2328.0</ele>
        <time>2016-07-25T13:24:55Z</time>
      </trkpt>
      <trkpt lat="41.266667" lon="-3.481533">
        <ele>2329.0</ele>
        <time>2016-07-25T13:24:57Z</time>
      </trkpt>
      <trkpt lat="41.266617" lon="-3.481317">
        <ele>2328.0</ele>
        <time>2016-07-25T13:24:59Z</time>
      </trkpt>
      <trkpt lat="41.266483" lon="-3.481133">
        <ele>2329.0</ele>
        <time>2016-07-25T13:25:01Z</time>
      </trkpt>
      <trkpt lat="41.266333" lon="-3.481067">
        <ele>2332.0</ele>
        <time>2016-07-25T13:25:03Z</time>
      </trkpt>
      <trkpt lat="41.266183" lon="-3.481067">
        <ele>2336.0</ele>
        <time>2016-07-25T13:25:05Z</time>
      </trkpt>
      <trkpt lat="41.266083" lon="-3.481167">
        <ele>2339.0</ele>
        <time>2016-07-25T13:25:07Z</time>
      </trkpt>
      <trkpt lat="41.266033" lon="-3.481317">
        <ele>2341.0</ele>
        <time>2016-07-25T13:25:09Z</time>
      </trkpt>
      <trkpt lat="41.266067" lon="-3.481517">
        <ele>2343.0</ele>
        <time>2016-07-25T13:25:11Z</time>
      </trkpt>
      <trkpt lat="41.266183" lon="-3.481667">
        <ele>2344.0</ele>
        <time>2016-07-25T13:25:13Z</time>
      </trkpt>
      <trkpt lat="41.266350" lon="-3.481767">
        <ele>2344.0</ele>
        <time>2016-07-25T13:25:15Z</time>
      </trkpt>
      <trkpt lat="41.266550" lon="-3.481783">
        <ele>2342.0</ele>
        <time>2016-07-25T13:25:17Z</time>
      </trkpt>
      <trkpt lat="41.266750" lon="-3.481717">
        <ele>2340.0</ele>
        <time>2016-07-25T13:25:19Z</time>
      </trkpt>
      <trkpt lat="41.266967" lon="-3.481633">
        <ele>2339.0</ele>
        <time>2016-07-25T13:25:21Z</time>
      </trkpt>
      <trkpt lat="41.267183" lon="-3.481517">
        <ele>2337.0</ele>
        <time>2016-07-25T13:25:23Z</time>
      </trkpt>
      <trkpt lat="41.267367" lon="-3.481333">
        <ele>2338.0</ele>
        <time>2016-07-25T13:25:25Z</time>
      </trkpt>
      <trkpt lat="41.267500" lon="-3.481100">
        <ele>2340.0</ele>
        <time>2016-07-25T13:25:27Z</time>
      </trkpt>
      <trkpt lat="41.267633" lon="-3.480850">
        <ele>2341.0</ele>
        <time>2016-07-25T13:25:29Z</time>
      </trkpt>
      <trkpt lat="41.267683" lon="-3.480567">
        <ele>2342.0</ele>
        <time>2016-07-25T13:25:31Z</time>
      </trkpt>
      <trkpt lat="41.267667" lon="-3.480333">
        <ele>2343.0</ele>
        <time>2016-07-25T13:25:33Z</time>
      </trkpt>
      <trkpt lat="41.267600" lon="-3.480150">
        <ele>2342.0</ele>
        <time>2016-07-25T13:25:35Z</time>
      </trkpt>
      <trkpt lat="41.267483" lon="-3.480000">
        <ele>2339.0</ele>
        <time>2016-07-25T13:25:37Z</time>
      </trkpt>
      <trkpt lat="41.267333" lon="-3.479950">
        <ele>2337.0</ele>
        <time>2016-07-25T13:25:39Z</time>
      </trkpt>
      <trkpt lat="41.267200" lon="-3.479983">
        <ele>2335.0</ele>
        <time>2016-07-25T13:25:41Z</time>
      </trkpt>
      <trkpt lat="41.267067" lon="-3.480117">
        <ele>2333.0</ele>
        <time>2016-07-25T13:25:43Z</time>
      </trkpt>
      <trkpt lat="41.266983" lon="-3.480300">
        <ele>2334.0</ele>
        <time>2016-07-25T13:25:45Z</time>
      </trkpt>
      <trkpt lat="41.266933" lon="-3.480483">
        <ele>2339.0</ele>
        <time>2016-07-25T13:25:47Z</time>
      </trkpt>
      <trkpt lat="41.266933" lon="-3.480683">
        <ele>2342.0</ele>
        <time>2016-07-25T13:25:49Z</time>
      </trkpt>
      <trkpt lat="41.267000" lon="-3.480833">
        <ele>2345.0</ele>
        <time>2016-07-25T13:25:51Z</time>
      </trkpt>
      <trkpt lat="41.267150" lon="-3.480917">
        <ele>2344.0</ele>
        <time>2016-07-25T13:25:53Z</time>
      </trkpt>
      <trkpt lat="41.267333" lon="-3.480983">
        <ele>2342.0</ele>
        <time>2016-07-25T13:25:55Z</time>
      </trkpt>
      <trkpt lat="41.267517" lon="-3.481033">
        <ele>2342.0</ele>
        <time>2016-07-25T13:25:57Z</time>
      </trkpt>
      <trkpt lat="41.267700" lon="-3.481067">
        <ele>2341.0</ele>
        <time>2016-07-25T13:25:59Z</time>
      </trkpt>
      <trkpt lat="41.267883" lon="-3.481100">
        <ele>2336.0</ele>
        <time>2016-07-25T13:26:01Z</time>
      </trkpt>
      <trkpt lat="41.268100" lon="-3.481117">
        <ele>2331.0</ele>
        <time>2016-07-25T13:26:03Z</time>
      </trkpt>
      <trkpt lat="41.268333" lon="-3.481133">
        <ele>2325.0</ele>
        <time>2016-07-25T13:26:05Z</time>
      </trkpt>
      <trkpt lat="41.268583" lon="-3.481150">
        <ele>2321.0</ele>
        <time>2016-07-25T13:26:07Z</time>
      </trkpt>
      <trkpt lat="41.268783" lon="-3.481200">
        <ele>2318.0</ele>
        <time>2016-07-25T13:26:09Z</time>
      </trkpt>
      <trkpt lat="41.269000" lon="-3.481233">
        <ele>2316.0</ele>
        <time>2016-07-25T13:26:11Z</time>
      </trkpt>
      <trkpt lat="41.269200" lon="-3.481250">
        <ele>2317.0</ele>
        <time>2016-07-25T13:26:13Z</time>
      </trkpt>
      <trkpt lat="41.269367" lon="-3.481300">
        <ele>2314.0</ele>
        <time>2016-07-25T13:26:15Z</time>
      </trkpt>
      <trkpt lat="41.269483" lon="-3.481433">
        <ele>2306.0</ele>
        <time>2016-07-25T13:26:17Z</time>
      </trkpt>
      <trkpt lat="41.269650" lon="-3.481533">
        <ele>2300.0</ele>
        <time>2016-07-25T13:26:19Z</time>
      </trkpt>
      <trkpt lat="41.269817" lon="-3.481583">
        <ele>2297.0</ele>
        <time>2016-07-25T13:26:21Z</time>
      </trkpt>
      <trkpt lat="41.269967" lon="-3.481650">
        <ele>2293.0</ele>
        <time>2016-07-25T13:26:23Z</time>
      </trkpt>
      <trkpt lat="41.270133" lon="-3.481667">
        <ele>2286.0</ele>
        <time>2016-07-25T13:26:25Z</time>
      </trkpt>
      <trkpt lat="41.270300" lon="-3.481667">
        <ele>2279.0</ele>
        <time>2016-07-25T13:26:27Z</time>
      </trkpt>
      <trkpt lat="41.270450" lon="-3.481683">
        <ele>2273.0</ele>
        <time>2016-07-25T13:26:29Z</time>
      </trkpt>
      <trkpt lat="41.270633" lon="-3.481700">
        <ele>2273.0</ele>
        <time>2016-07-25T13:26:31Z</time>
      </trkpt>
      <trkpt lat="41.270767" lon="-3.481667">
        <ele>2274.0</ele>
        <time>2016-07-25T13:26:33Z</time>
      </trkpt>
      <trkpt lat="41.270900" lon="-3.481633">
        <ele>2273.0</ele>
        <time>2016-07-25T13:26:35Z</time>
      </trkpt>
      <trkpt lat="41.271083" lon="-3.481617">
        <ele>2270.0</ele>
        <time>2016-07-25T13:26:37Z</time>
      </trkpt>
      <trkpt lat="41.271250" lon="-3.481583">
        <ele>2270.0</ele>
        <time>2016-07-25T13:26:39Z</time>
      </trkpt>
      <trkpt lat="41.271383" lon="-3.481583">
        <ele>2269.0</ele>
        <time>2016-07-25T13:26:41Z</time>
      </trkpt>
      <trkpt lat="41.271533" lon="-3.481583">
        <ele>2266.0</ele>
        <time>2016-07-25T13:26:43Z</time>
      </trkpt>
      <trkpt lat="41.271700" lon="-3.481550">
        <ele>2264.0</ele>
        <time>2016-07-25T13:26:45Z</time>
      </trkpt>
      <trkpt lat="41.271850" lon="-3.481517">
        <ele>2262.0</ele>
        <time>2016-07-25T13:26:47Z</time>
      </trkpt>
      <trkpt lat="41.272017" lon="-3.481500">
        <ele>2259.0</ele>
        <time>2016-07-25T13:26:49Z</time>
      </trkpt>
      <trkpt lat="41.272233" lon="-3.481500">
        <ele>2257.0</ele>
        <time>2016-07-25T13:26:51Z</time>
      </trkpt>
      <trkpt lat="41.272417" lon="-3.481433">
        <ele>2259.0</ele>
        <time>2016-07-25T13:26:53Z</time>
      </trkpt>
      <trkpt lat="41.272567" lon="-3.481367">
        <ele>2257.0</ele>
        <time>2016-07-25T13:26:55Z</time>
      </trkpt>
      <trkpt lat="41.272733" lon="-3.481283">
        <ele>2251.0</ele>
        <time>2016-07-25T13:26:57Z</time>
      </trkpt>
      <trkpt lat="41.272950" lon="-3.481217">
        <ele>2247.0</ele>
        <time>2016-07-25T13:26:59Z</time>
      </trkpt>
      <trkpt lat="41.273133" lon="-3.481100">
        <ele>2247.0</ele>
        <time>2016-07-25T13:27:01Z</time>
      </trkpt>
      <trkpt lat="41.273300" lon="-3.480950">
        <ele>2245.0</ele>
        <time>2016-07-25T13:27:03Z</time>
      </trkpt>
      <trkpt lat="41.273467" lon="-3.480800">
        <ele>2242.0</ele>
        <time>2016-07-25T13:27:05Z</time>
      </trkpt>
      <trkpt lat="41.273633" lon="-3.480717">
        <ele>2240.0</ele>
        <time>2016-07-25T13:27:07Z</time>
      </trkpt>
      <trkpt lat="41.273783" lon="-3.480650">
        <ele>2238.0</ele>
        <time>2016-07-25T13:27:09Z</time>
      </trkpt>
      <trkpt lat="41.273933" lon="-3.480617">
        <ele>2234.0</ele>
        <time>2016-07-25T13:27:11Z</time>
      </trkpt>
      <trkpt lat="41.274100" lon="-3.480567">
        <ele>2228.0</ele>
        <time>2016-07-25T13:27:13Z</time>
      </trkpt>
      <trkpt lat="41.274267" lon="-3.480517">
        <ele>2223.0</ele>
        <time>2016-07-25T13:27:15Z</time>
      </trkpt>
      <trkpt lat="41.274450" lon="-3.480467">
        <ele>2217.0</ele>
        <time>2016-07-25T13:27:17Z</time>
      </trkpt>
      <trkpt lat="41.274633" lon="-3.480383">
        <ele>2213.0</ele>
        <time>2016-07-25T13:27:19Z</time>
      </trkpt>
      <trkpt lat="41.274800" lon="-3.480300">
        <ele>2209.0</ele>
        <time>2016-07-25T13:27:21Z</time>
      </trkpt>
      <trkpt lat="41.274950" lon="-3.480217">
        <ele>2203.0</ele>
        <time>2016-07-25T13:27:23Z</time>
      </trkpt>
      <trkpt lat="41.275133" lon="-3.480150">
        <ele>2195.0</ele>
        <time>2016-07-25T13:27:25Z</time>
      </trkpt>
      <trkpt lat="41.275317" lon="-3.480083">
        <ele>2191.0</ele>
        <time>2016-07-25T13:27:27Z</time>
      </trkpt>
      <trkpt lat="41.275483" lon="-3.480033">
        <ele>2187.0</ele>
        <time>2016-07-25T13:27:29Z</time>
      </trkpt>
      <trkpt lat="41.275650" lon="-3.479967">
        <ele>2180.0</ele>
        <time>2016-07-25T13:27:31Z</time>
      </trkpt>
      <trkpt lat="41.275833" lon="-3.479933">
        <ele>2174.0</ele>
        <time>2016-07-25T13:27:33Z</time>
      </trkpt>
      <trkpt lat="41.276017" lon="-3.479900">
        <ele>2168.0</ele>
        <time>2016-07-25T13:27:35Z</time>
      </trkpt>
      <trkpt lat="41.276183" lon="-3.479867">
        <ele>2162.0</ele>
        <time>2016-07-25T13:27:37Z</time>
      </trkpt>
      <trkpt lat="41.276350" lon="-3.479850">
        <ele>2154.0</ele>
        <time>2016-07-25T13:27:39Z</time>
      </trkpt>
      <trkpt lat="41.276533" lon="-3.479850">
        <ele>2149.0</ele>
        <time>2016-07-25T13:27:41Z</time>
      </trkpt>
      <trkpt lat="41.276733" lon="-3.479817">
        <ele>2143.0</ele>
        <time>2016-07-25T13:27:43Z</time>
      </trkpt>
      <trkpt lat="41.276917" lon="-3.479783">
        <ele>2140.0</ele>
        <time>2016-07-25T13:27:45Z</time>
      </trkpt>
      <trkpt lat="41.277100" lon="-3.479750">
        <ele>2136.0</ele>
        <time>2016-07-25T13:27:47Z</time>
      </trkpt>
      <trkpt lat="41.277283" lon="-3.479733">
        <ele>2130.0</ele>
        <time>2016-07-25T13:27:49Z</time>
      </trkpt>
      <trkpt lat="41.277483" lon="-3.479717">
        <ele>2125.0</ele>
        <time>2016-07-25T13:27:51Z</time>
      </trkpt>
      <trkpt lat="41.277667" lon="-3.479733">
        <ele>2120.0</ele>
        <time>2016-07-25T13:27:53Z</time>
      </trkpt>
      <trkpt lat="41.277850" lon="-3.479717">
        <ele>2114.0</ele>
        <time>2016-07-25T13:27:55Z</time>
      </trkpt>
      <trkpt lat="41.278050" lon="-3.479750">
        <ele>2106.0</ele>
        <time>2016-07-25T13:27:57Z</time>
      </trkpt>
      <trkpt lat="41.278250" lon="-3.479783">
        <ele>2100.0</ele>
        <time>2016-07-25T13:27:59Z</time>
      </trkpt>
      <trkpt lat="41.278433" lon="-3.479800">
        <ele>2095.0</ele>
        <time>2016-07-25T13:28:01Z</time>
      </trkpt>
      <trkpt lat="41.278633" lon="-3.479817">
        <ele>2088.0</ele>
        <time>2016-07-25T13:28:03Z</time>
      </trkpt>
      <trkpt lat="41.278850" lon="-3.479800">
        <ele>2083.0</ele>
        <time>2016-07-25T13:28:05Z</time>
      </trkpt>
      <trkpt lat="41.279050" lon="-3.479817">
        <ele>2079.0</ele>
        <time>2016-07-25T13:28:07Z</time>
      </trkpt>
      <trkpt lat="41.279233" lon="-3.479817">
        <ele>2074.0</ele>
        <time>2016-07-25T13:28:09Z</time>
      </trkpt>
      <trkpt lat="41.279417" lon="-3.479833">
        <ele>2068.0</ele>
        <time>2016-07-25T13:28:11Z</time>
      </trkpt>
      <trkpt lat="41.279617" lon="-3.479833">
        <ele>2064.0</ele>
        <time>2016-07-25T13:28:13Z</time>
      </trkpt>
      <trkpt lat="41.279800" lon="-3.479800">
        <ele>2058.0</ele>
        <time>2016-07-25T13:28:15Z</time>
      </trkpt>
      <trkpt lat="41.279983" lon="-3.479800">
        <ele>2051.0</ele>
        <time>2016-07-25T13:28:17Z</time>
      </trkpt>
      <trkpt lat="41.280167" lon="-3.479800">
        <ele>2047.0</ele>
        <time>2016-07-25T13:28:19Z</time>
      </trkpt>
      <trkpt lat="41.280317" lon="-3.479817">
        <ele>2045.0</ele>
        <time>2016-07-25T13:28:21Z</time>
      </trkpt>
      <trkpt lat="41.280500" lon="-3.479867">
        <ele>2040.0</ele>
        <time>2016-07-25T13:28:23Z</time>
      </trkpt>
      <trkpt lat="41.280700" lon="-3.479950">
        <ele>2043.0</ele>
        <time>2016-07-25T13:28:25Z</time>
      </trkpt>
      <trkpt lat="41.280833" lon="-3.480017">
        <ele>2049.0</ele>
        <time>2016-07-25T13:28:27Z</time>
      </trkpt>
      <trkpt lat="41.280950" lon="-3.480050">
        <ele>2052.0</ele>
        <time>2016-07-25T13:28:29Z</time>
      </trkpt>
      <trkpt lat="41.281100" lon="-3.479933">
        <ele>2052.0</ele>
        <time>2016-07-25T13:28:31Z</time>
      </trkpt>
      <trkpt lat="41.281200" lon="-3.479733">
        <ele>2057.0</ele>
        <time>2016-07-25T13:28:33Z</time>
      </trkpt>
      <trkpt lat="41.281300" lon="-3.479583">
        <ele>2061.0</ele>
        <time>2016-07-25T13:28:35Z</time>
      </trkpt>
      <trkpt lat="41.281433" lon="-3.479517">
        <ele>2061.0</ele>
        <time>2016-07-25T13:28:37Z</time>
      </trkpt>
      <trkpt lat="41.281633" lon="-3.479583">
        <ele>2062.0</ele>
        <time>2016-07-25T13:28:39Z</time>
      </trkpt>
      <trkpt lat="41.281767" lon="-3.479750">
        <ele>2069.0</ele>
        <time>2016-07-25T13:28:41Z</time>
      </trkpt>
      <trkpt lat="41.281733" lon="-3.479933">
        <ele>2075.0</ele>
        <time>2016-07-25T13:28:43Z</time>
      </trkpt>
      <trkpt lat="41.281650" lon="-3.480083">
        <ele>2078.0</ele>
        <time>2016-07-25T13:28:45Z</time>
      </trkpt>
      <trkpt lat="41.281483" lon="-3.480200">
        <ele>2082.0</ele>
        <time>2016-07-25T13:28:47Z</time>
      </trkpt>
      <trkpt lat="41.281267" lon="-3.480183">
        <ele>2086.0</ele>
        <time>2016-07-25T13:28:49Z</time>
      </trkpt>
      <trkpt lat="41.281100" lon="-3.480067">
        <ele>2090.0</ele>
        <time>2016-07-25T13:28:51Z</time>
      </trkpt>
      <trkpt lat="41.280967" lon="-3.479900">
        <ele>2092.0</ele>
        <time>2016-07-25T13:28:53Z</time>
      </trkpt>
      <trkpt lat="41.280883" lon="-3.479667">
        <ele>2094.0</ele>
        <time>2016-07-25T13:28:55Z</time>
      </trkpt>
      <trkpt lat="41.280867" lon="-3.479400">
        <ele>2097.0</ele>
        <time>2016-07-25T13:28:57Z</time>
      </trkpt>
      <trkpt lat="41.280917" lon="-3.479167">
        <ele>2101.0</ele>
        <time>2016-07-25T13:28:59Z</time>
      </trkpt>
      <trkpt lat="41.281050" lon="-3.479017">
        <ele>2104.0</ele>
        <time>2016-07-25T13:29:01Z</time>
      </trkpt>
      <trkpt lat="41.281217" lon="-3.478950">
        <ele>2108.0</ele>
        <time>2016-07-25T13:29:03Z</time>
      </trkpt>
      <trkpt lat="41.281367" lon="-3.479000">
        <ele>2112.0</ele>
        <time>2016-07-25T13:29:05Z</time>
      </trkpt>
      <trkpt lat="41.281467" lon="-3.479133">
        <ele>2115.0</ele>
        <time>2016-07-25T13:29:07Z</time>
      </trkpt>
      <trkpt lat="41.281483" lon="-3.479300">
        <ele>2118.0</ele>
        <time>2016-07-25T13:29:09Z</time>
      </trkpt>
      <trkpt lat="41.281433" lon="-3.479500">
        <ele>2119.0</ele>
        <time>2016-07-25T13:29:11Z</time>
      </trkpt>
      <trkpt lat="41.281317" lon="-3.479650">
        <ele>2121.0</ele>
        <time>2016-07-25T13:29:13Z</time>
      </trkpt>
      <trkpt lat="41.281117" lon="-3.479683">
        <ele>2123.0</ele>
        <time>2016-07-25T13:29:15Z</time>
      </trkpt>
      <trkpt lat="41.280933" lon="-3.479600">
        <ele>2126.0</ele>
        <time>2016-07-25T13:29:17Z</time>
      </trkpt>
      <trkpt lat="41.280783" lon="-3.479433">
        <ele>2128.0</ele>
        <time>2016-07-25T13:29:19Z</time>
      </trkpt>
      <trkpt lat="41.280683" lon="-3.479167">
        <ele>2131.0</ele>
        <time>2016-07-25T13:29:21Z</time>
      </trkpt>
      <trkpt lat="41.280700" lon="-3.478933">
        <ele>2135.0</ele>
        <time>2016-07-25T13:29:23Z</time>
      </trkpt>
      <trkpt lat="41.280767" lon="-3.478767">
        <ele>2139.0</ele>
        <time>2016-07-25T13:29:25Z</time>
      </trkpt>
      <trkpt lat="41.280900" lon="-3.478633">
        <ele>2141.0</ele>
        <time>2016-07-25T13:29:27Z</time>
      </trkpt>
      <trkpt lat="41.281067" lon="-3.478617">
        <ele>2143.0</ele>
        <time>2016-07-25T13:29:29Z</time>
      </trkpt>
      <trkpt lat="41.281233" lon="-3.478750">
        <ele>2146.0</ele>
        <time>2016-07-25T13:29:31Z</time>
      </trkpt>
      <trkpt lat="41.281317" lon="-3.478950">
        <ele>2151.0</ele>
        <time>2016-07-25T13:29:33Z</time>
      </trkpt>
      <trkpt lat="41.281350" lon="-3.479117">
        <ele>2153.0</ele>
        <time>2016-07-25T13:29:35Z</time>
      </trkpt>
      <trkpt lat="41.281267" lon="-3.479317">
        <ele>2150.0</ele>
        <time>2016-07-25T13:29:37Z</time>
      </trkpt>
      <trkpt lat="41.281117" lon="-3.479483">
        <ele>2150.0</ele>
        <time>2016-07-25T13:29:39Z</time>
      </trkpt>
      <trkpt lat="41.280933" lon="-3.479517">
        <ele>2154.0</ele>
        <time>2016-07-25T13:29:41Z</time>
      </trkpt>
      <trkpt lat="41.280783" lon="-3.479483">
        <ele>2157.0</ele>
        <time>2016-07-25T13:29:43Z</time>
      </trkpt>
      <trkpt lat="41.280617" lon="-3.479383">
        <ele>2158.0</ele>
        <time>2016-07-25T13:29:45Z</time>
      </trkpt>
      <trkpt lat="41.280500" lon="-3.479150">
        <ele>2159.0</ele>
        <time>2016-07-25T13:29:47Z</time>
      </trkpt>
      <trkpt lat="41.280450" lon="-3.478900">
        <ele>2162.0</ele>
        <time>2016-07-25T13:29:49Z</time>
      </trkpt>
      <trkpt lat="41.280417" lon="-3.478683">
        <ele>2165.0</ele>
        <time>2016-07-25T13:29:51Z</time>
      </trkpt>
      <trkpt lat="41.280433" lon="-3.478467">
        <ele>2166.0</ele>
        <time>2016-07-25T13:29:53Z</time>
      </trkpt>
      <trkpt lat="41.280533" lon="-3.478300">
        <ele>2168.0</ele>
        <time>2016-07-25T13:29:55Z</time>
      </trkpt>
      <trkpt lat="41.280683" lon="-3.478200">
        <ele>2169.0</ele>
        <time>2016-07-25T13:29:57Z</time>
      </trkpt>
      <trkpt lat="41.280867" lon="-3.478200">
        <ele>2170.0</ele>
        <time>2016-07-25T13:29:59Z</time>
      </trkpt>
      <trkpt lat="41.281017" lon="-3.478300">
        <ele>2172.0</ele>
        <time>2016-07-25T13:30:01Z</time>
      </trkpt>
      <trkpt lat="41.281133" lon="-3.478483">
        <ele>2174.0</ele>
        <time>2016-07-25T13:30:03Z</time>
      </trkpt>
      <trkpt lat="41.281183" lon="-3.478733">
        <ele>2175.0</ele>
        <time>2016-07-25T13:30:05Z</time>
      </trkpt>
      <trkpt lat="41.281200" lon="-3.478967">
        <ele>2177.0</ele>
        <time>2016-07-25T13:30:07Z</time>
      </trkpt>
      <trkpt lat="41.281183" lon="-3.479167">
        <ele>2177.0</ele>
        <time>2016-07-25T13:30:09Z</time>
      </trkpt>
      <trkpt lat="41.281100" lon="-3.479350">
        <ele>2173.0</ele>
        <time>2016-07-25T13:30:11Z</time>
      </trkpt>
      <trkpt lat="41.280933" lon="-3.479533">
        <ele>2171.0</ele>
        <time>2016-07-25T13:30:13Z</time>
      </trkpt>
      <trkpt lat="41.280717" lon="-3.479683">
        <ele>2172.0</ele>
        <time>2016-07-25T13:30:15Z</time>
      </trkpt>
      <trkpt lat="41.280500" lon="-3.479800">
        <ele>2177.0</ele>
        <time>2016-07-25T13:30:17Z</time>
      </trkpt>
      <trkpt lat="41.280300" lon="-3.479850">
        <ele>2180.0</ele>
        <time>2016-07-25T13:30:19Z</time>
      </trkpt>
      <trkpt lat="41.280067" lon="-3.479817">
        <ele>2180.0</ele>
        <time>2016-07-25T13:30:21Z</time>
      </trkpt>
      <trkpt lat="41.279850" lon="-3.479667">
        <ele>2183.0</ele>
        <time>2016-07-25T13:30:23Z</time>
      </trkpt>
      <trkpt lat="41.279700" lon="-3.479483">
        <ele>2187.0</ele>
        <time>2016-07-25T13:30:25Z</time>
      </trkpt>
      <trkpt lat="41.279583" lon="-3.479283">
        <ele>2189.0</ele>
        <time>2016-07-25T13:30:27Z</time>
      </trkpt>
      <trkpt lat="41.279517" lon="-3.479017">
        <ele>2189.0</ele>
        <time>2016-07-25T13:30:29Z</time>
      </trkpt>
      <trkpt lat="41.279550" lon="-3.478817">
        <ele>2188.0</ele>
        <time>2016-07-25T13:30:31Z</time>
      </trkpt>
      <trkpt lat="41.279650" lon="-3.478667">
        <ele>2187.0</ele>
        <time>2016-07-25T13:30:33Z</time>
      </trkpt>
      <trkpt lat="41.279767" lon="-3.478583">
        <ele>2185.0</ele>
        <time>2016-07-25T13:30:35Z</time>
      </trkpt>
      <trkpt lat="41.279917" lon="-3.478617">
        <ele>2182.0</ele>
        <time>2016-07-25T13:30:37Z</time>
      </trkpt>
      <trkpt lat="41.280033" lon="-3.478750">
        <ele>2180.0</ele>
        <time>2016-07-25T13:30:39Z</time>
      </trkpt>
      <trkpt lat="41.280150" lon="-3.478917">
        <ele>2180.0</ele>
        <time>2016-07-25T13:30:41Z</time>
      </trkpt>
      <trkpt lat="41.280217" lon="-3.479117">
        <ele>2180.0</ele>
        <time>2016-07-25T13:30:43Z</time>
      </trkpt>
      <trkpt lat="41.280250" lon="-3.479367">
        <ele>2179.0</ele>
        <time>2016-07-25T13:30:45Z</time>
      </trkpt>
      <trkpt lat="41.280283" lon="-3.479617">
        <ele>2177.0</ele>
        <time>2016-07-25T13:30:47Z</time>
      </trkpt>
      <trkpt lat="41.280300" lon="-3.479883">
        <ele>2176.0</ele>
        <time>2016-07-25T13:30:49Z</time>
      </trkpt>
      <trkpt lat="41.280300" lon="-3.480117">
        <ele>2179.0</ele>
        <time>2016-07-25T13:30:51Z</time>
      </trkpt>
      <trkpt lat="41.280317" lon="-3.480317">
        <ele>2181.0</ele>
        <time>2016-07-25T13:30:53Z</time>
      </trkpt>
      <trkpt lat="41.280367" lon="-3.480533">
        <ele>2182.0</ele>
        <time>2016-07-25T13:30:55Z</time>
      </trkpt>
      <trkpt lat="41.280467" lon="-3.480667">
        <ele>2184.0</ele>
        <time>2016-07-25T13:30:57Z</time>
      </trkpt>
      <trkpt lat="41.280600" lon="-3.480717">
        <ele>2185.0</ele>
        <time>2016-07-25T13:30:59Z</time>
      </trkpt>
      <trkpt lat="41.280750" lon="-3.480750">
        <ele>2186.0</ele>
        <time>2016-07-25T13:31:01Z</time>
      </trkpt>
      <trkpt lat="41.280867" lon="-3.480667">
        <ele>2184.0</ele>
        <time>2016-07-25T13:31:03Z</time>
      </trkpt>
      <trkpt lat="41.280933" lon="-3.480483">
        <ele>2184.0</ele>
        <time>2016-07-25T13:31:05Z</time>
      </trkpt>
      <trkpt lat="41.280917" lon="-3.480283">
        <ele>2185.0</ele>
        <time>2016-07-25T13:31:07Z</time>
      </trkpt>
      <trkpt lat="41.280833" lon="-3.480100">
        <ele>2184.0</ele>
        <time>2016-07-25T13:31:09Z</time>
      </trkpt>
      <trkpt lat="41.280683" lon="-3.479950">
        <ele>2182.0</ele>
        <time>2016-07-25T13:31:11Z</time>
      </trkpt>
      <trkpt lat="41.280483" lon="-3.479883">
        <ele>2185.0</ele>
        <time>2016-07-25T13:31:13Z</time>
      </trkpt>
      <trkpt lat="41.280300" lon="-3.479933">
        <ele>2188.0</ele>
        <time>2016-07-25T13:31:15Z</time>
      </trkpt>
      <trkpt lat="41.280133" lon="-3.480017">
        <ele>2186.0</ele>
        <time>2016-07-25T13:31:17Z</time>
      </trkpt>
      <trkpt lat="41.280000" lon="-3.480217">
        <ele>2180.0</ele>
        <time>2016-07-25T13:31:19Z</time>
      </trkpt>
      <trkpt lat="41.279900" lon="-3.480500">
        <ele>2178.0</ele>
        <time>2016-07-25T13:31:21Z</time>
      </trkpt>
      <trkpt lat="41.279817" lon="-3.480750">
        <ele>2180.0</ele>
        <time>2016-07-25T13:31:23Z</time>
      </trkpt>
      <trkpt lat="41.279750" lon="-3.480967">
        <ele>2182.0</ele>
        <time>2016-07-25T13:31:25Z</time>
      </trkpt>
      <trkpt lat="41.279733" lon="-3.481167">
        <ele>2182.0</ele>
        <time>2016-07-25T13:31:27Z</time>
      </trkpt>
      <trkpt lat="41.279767" lon="-3.481350">
        <ele>2179.0</ele>
        <time>2016-07-25T13:31:29Z</time>
      </trkpt>
      <trkpt lat="41.279850" lon="-3.481533">
        <ele>2177.0</ele>
        <time>2016-07-25T13:31:31Z</time>
      </trkpt>
      <trkpt lat="41.279917" lon="-3.481700">
        <ele>2177.0</ele>
        <time>2016-07-25T13:31:33Z</time>
      </trkpt>
      <trkpt lat="41.279983" lon="-3.481867">
        <ele>2176.0</ele>
        <time>2016-07-25T13:31:35Z</time>
      </trkpt>
      <trkpt lat="41.280083" lon="-3.482017">
        <ele>2173.0</ele>
        <time>2016-07-25T13:31:37Z</time>
      </trkpt>
      <trkpt lat="41.280217" lon="-3.482117">
        <ele>2170.0</ele>
        <time>2016-07-25T13:31:39Z</time>
      </trkpt>
      <trkpt lat="41.280350" lon="-3.482250">
        <ele>2166.0</ele>
        <time>2016-07-25T13:31:41Z</time>
      </trkpt>
      <trkpt lat="41.280467" lon="-3.482467">
        <ele>2162.0</ele>
        <time>2016-07-25T13:31:43Z</time>
      </trkpt>
      <trkpt lat="41.280567" lon="-3.482683">
        <ele>2162.0</ele>
        <time>2016-07-25T13:31:45Z</time>
      </trkpt>
      <trkpt lat="41.280650" lon="-3.482817">
        <ele>2161.0</ele>
        <time>2016-07-25T13:31:47Z</time>
      </trkpt>
      <trkpt lat="41.280783" lon="-3.482917">
        <ele>2159.0</ele>
        <time>2016-07-25T13:31:49Z</time>
      </trkpt>
      <trkpt lat="41.280917" lon="-3.483033">
        <ele>2158.0</ele>
        <time>2016-07-25T13:31:51Z</time>
      </trkpt>
      <trkpt lat="41.281067" lon="-3.483150">
        <ele>2161.0</ele>
        <time>2016-07-25T13:31:53Z</time>
      </trkpt>
      <trkpt lat="41.281183" lon="-3.483267">
        <ele>2164.0</ele>
        <time>2016-07-25T13:31:55Z</time>
      </trkpt>
      <trkpt lat="41.281333" lon="-3.483300">
        <ele>2166.0</ele>
        <time>2016-07-25T13:31:57Z</time>
      </trkpt>
      <trkpt lat="41.281450" lon="-3.483233">
        <ele>2166.0</ele>
        <time>2016-07-25T13:31:59Z</time>
      </trkpt>
      <trkpt lat="41.281550" lon="-3.483083">
        <ele>2167.0</ele>
        <time>2016-07-25T13:32:01Z</time>
      </trkpt>
      <trkpt lat="41.281600" lon="-3.482900">
        <ele>2167.0</ele>
        <time>2016-07-25T13:32:03Z</time>
      </trkpt>
      <trkpt lat="41.281583" lon="-3.482667">
        <ele>2166.0</ele>
        <time>2016-07-25T13:32:05Z</time>
      </trkpt>
      <trkpt lat="41.281450" lon="-3.482467">
        <ele>2168.0</ele>
        <time>2016-07-25T13:32:07Z</time>
      </trkpt>
      <trkpt lat="41.281333" lon="-3.482383">
        <ele>2169.0</ele>
        <time>2016-07-25T13:32:09Z</time>
      </trkpt>
      <trkpt lat="41.281200" lon="-3.482283">
        <ele>2165.0</ele>
        <time>2016-07-25T13:32:11Z</time>
      </trkpt>
      <trkpt lat="41.281017" lon="-3.482200">
        <ele>2163.0</ele>
        <time>2016-07-25T13:32:13Z</time>
      </trkpt>
      <trkpt lat="41.280800" lon="-3.482267">
        <ele>2165.0</ele>
        <time>2016-07-25T13:32:15Z</time>
      </trkpt>
      <trkpt lat="41.280650" lon="-3.482433">
        <ele>2170.0</ele>
        <time>2016-07-25T13:32:17Z</time>
      </trkpt>
      <trkpt lat="41.280567" lon="-3.482600">
        <ele>2173.0</ele>
        <time>2016-07-25T13:32:19Z</time>
      </trkpt>
      <trkpt lat="41.280533" lon="-3.482833">
        <ele>2173.0</ele>
        <time>2016-07-25T13:32:21Z</time>
      </trkpt>
      <trkpt lat="41.280633" lon="-3.483033">
        <ele>2174.0</ele>
        <time>2016-07-25T13:32:23Z</time>
      </trkpt>
      <trkpt lat="41.280767" lon="-3.483167">
        <ele>2178.0</ele>
        <time>2016-07-25T13:32:25Z</time>
      </trkpt>
      <trkpt lat="41.280900" lon="-3.483250">
        <ele>2180.0</ele>
        <time>2016-07-25T13:32:27Z</time>
      </trkpt>
      <trkpt lat="41.281067" lon="-3.483250">
        <ele>2180.0</ele>
        <time>2016-07-25T13:32:29Z</time>
      </trkpt>
      <trkpt lat="41.281217" lon="-3.483183">
        <ele>2182.0</ele>
        <time>2016-07-25T13:32:31Z</time>
      </trkpt>
      <trkpt lat="41.281333" lon="-3.483067">
        <ele>2182.0</ele>
        <time>2016-07-25T13:32:33Z</time>
      </trkpt>
      <trkpt lat="41.281400" lon="-3.482867">
        <ele>2179.0</ele>
        <time>2016-07-25T13:32:35Z</time>
      </trkpt>
      <trkpt lat="41.281433" lon="-3.482617">
        <ele>2178.0</ele>
        <time>2016-07-25T13:32:37Z</time>
      </trkpt>
      <trkpt lat="41.281433" lon="-3.482417">
        <ele>2179.0</ele>
        <time>2016-07-25T13:32:39Z</time>
      </trkpt>
      <trkpt lat="41.281383" lon="-3.482233">
        <ele>2177.0</ele>
        <time>2016-07-25T13:32:41Z</time>
      </trkpt>
      <trkpt lat="41.281283" lon="-3.482033">
        <ele>2173.0</ele>
        <time>2016-07-25T13:32:43Z</time>
      </trkpt>
      <trkpt lat="41.281133" lon="-3.481850">
        <ele>2174.0</ele>
        <time>2016-07-25T13:32:45Z</time>
      </trkpt>
      <trkpt lat="41.280950" lon="-3.481783">
        <ele>2176.0</ele>
        <time>2016-07-25T13:32:47Z</time>
      </trkpt>
      <trkpt lat="41.280767" lon="-3.481817">
        <ele>2177.0</ele>
        <time>2016-07-25T13:32:49Z</time>
      </trkpt>
      <trkpt lat="41.280600" lon="-3.481900">
        <ele>2177.0</ele>
        <time>2016-07-25T13:32:51Z</time>
      </trkpt>
      <trkpt lat="41.280483" lon="-3.482083">
        <ele>2178.0</ele>
        <time>2016-07-25T13:32:53Z</time>
      </trkpt>
      <trkpt lat="41.280483" lon="-3.482350">
        <ele>2179.0</ele>
        <time>2016-07-25T13:32:55Z</time>
      </trkpt>
      <trkpt lat="41.280617" lon="-3.482533">
        <ele>2182.0</ele>
        <time>2016-07-25T13:32:57Z</time>
      </trkpt>
      <trkpt lat="41.280750" lon="-3.482550">
        <ele>2185.0</ele>
        <time>2016-07-25T13:32:59Z</time>
      </trkpt>
      <trkpt lat="41.280867" lon="-3.482583">
        <ele>2183.0</ele>
        <time>2016-07-25T13:33:01Z</time>
      </trkpt>
      <trkpt lat="41.281050" lon="-3.482583">
        <ele>2179.0</ele>
        <time>2016-07-25T13:33:03Z</time>
      </trkpt>
      <trkpt lat="41.281233" lon="-3.482583">
        <ele>2178.0</ele>
        <time>2016-07-25T13:33:05Z</time>
      </trkpt>
      <trkpt lat="41.281400" lon="-3.482583">
        <ele>2176.0</ele>
        <time>2016-07-25T13:33:07Z</time>
      </trkpt>
      <trkpt lat="41.281583" lon="-3.482600">
        <ele>2171.0</ele>
        <time>2016-07-25T13:33:09Z</time>
      </trkpt>
      <trkpt lat="41.281783" lon="-3.482650">
        <ele>2167.0</ele>
        <time>2016-07-25T13:33:11Z</time>
      </trkpt>
      <trkpt lat="41.281967" lon="-3.482700">
        <ele>2166.0</ele>
        <time>2016-07-25T13:33:13Z</time>
      </trkpt>
      <trkpt lat="41.282133" lon="-3.482767">
        <ele>2166.0</ele>
        <time>2016-07-25T13:33:15Z</time>
      </trkpt>
      <trkpt lat="41.282283" lon="-3.482833">
        <ele>2167.0</ele>
        <time>2016-07-25T13:33:17Z</time>
      </trkpt>
      <trkpt lat="41.282433" lon="-3.482900">
        <ele>2171.0</ele>
        <time>2016-07-25T13:33:19Z</time>
      </trkpt>
      <trkpt lat="41.282550" lon="-3.482933">
        <ele>2175.0</ele>
        <time>2016-07-25T13:33:21Z</time>
      </trkpt>
      <trkpt lat="41.282633" lon="-3.482933">
        <ele>2177.0</ele>
        <time>2016-07-25T13:33:23Z</time>
      </trkpt>
      <trkpt lat="41.282750" lon="-3.482950">
        <ele>2176.0</ele>
        <time>2016-07-25T13:33:25Z</time>
      </trkpt>
      <trkpt lat="41.282900" lon="-3.482967">
        <ele>2176.0</ele>
        <time>2016-07-25T13:33:27Z</time>
      </trkpt>
      <trkpt lat="41.283050" lon="-3.482967">
        <ele>2179.0</ele>
        <time>2016-07-25T13:33:29Z</time>
      </trkpt>
      <trkpt lat="41.283200" lon="-3.483017">
        <ele>2182.0</ele>
        <time>2016-07-25T13:33:31Z</time>
      </trkpt>
      <trkpt lat="41.283350" lon="-3.483050">
        <ele>2183.0</ele>
        <time>2016-07-25T13:33:33Z</time>
      </trkpt>
      <trkpt lat="41.283500" lon="-3.483033">
        <ele>2185.0</ele>
        <time>2016-07-25T13:33:35Z</time>
      </trkpt>
      <trkpt lat="41.283667" lon="-3.483050">
        <ele>2187.0</ele>
        <time>2016-07-25T13:33:37Z</time>
      </trkpt>
      <trkpt lat="41.283833" lon="-3.483083">
        <ele>2188.0</ele>
        <time>2016-07-25T13:33:39Z</time>
      </trkpt>
      <trkpt lat="41.284017" lon="-3.483100">
        <ele>2191.0</ele>
        <time>2016-07-25T13:33:41Z</time>
      </trkpt>
      <trkpt lat="41.284183" lon="-3.483100">
        <ele>2196.0</ele>
        <time>2016-07-25T13:33:43Z</time>
      </trkpt>
      <trkpt lat="41.284317" lon="-3.483100">
        <ele>2199.0</ele>
        <time>2016-07-25T13:33:45Z</time>
      </trkpt>
      <trkpt lat="41.284483" lon="-3.483083">
        <ele>2199.0</ele>
        <time>2016-07-25T13:33:47Z</time>
      </trkpt>
      <trkpt lat="41.284650" lon="-3.483083">
        <ele>2201.0</ele>
        <time>2016-07-25T13:33:49Z</time>
      </trkpt>
      <trkpt lat="41.284800" lon="-3.483050">
        <ele>2204.0</ele>
        <time>2016-07-25T13:33:51Z</time>
      </trkpt>
      <trkpt lat="41.284967" lon="-3.483000">
        <ele>2206.0</ele>
        <time>2016-07-25T13:33:53Z</time>
      </trkpt>
      <trkpt lat="41.285117" lon="-3.482950">
        <ele>2209.0</ele>
        <time>2016-07-25T13:33:55Z</time>
      </trkpt>
      <trkpt lat="41.285283" lon="-3.482900">
        <ele>2213.0</ele>
        <time>2016-07-25T13:33:57Z</time>
      </trkpt>
      <trkpt lat="41.285417" lon="-3.482850">
        <ele>2217.0</ele>
        <time>2016-07-25T13:33:59Z</time>
      </trkpt>
      <trkpt lat="41.285567" lon="-3.482817">
        <ele>2218.0</ele>
        <time>2016-07-25T13:34:01Z</time>
      </trkpt>
      <trkpt lat="41.285733" lon="-3.482767">
        <ele>2221.0</ele>
        <time>2016-07-25T13:34:03Z</time>
      </trkpt>
      <trkpt lat="41.285850" lon="-3.482617">
        <ele>2225.0</ele>
        <time>2016-07-25T13:34:05Z</time>
      </trkpt>
      <trkpt lat="41.285883" lon="-3.482367">
        <ele>2225.0</ele>
        <time>2016-07-25T13:34:07Z</time>
      </trkpt>
      <trkpt lat="41.285817" lon="-3.482083">
        <ele>2226.0</ele>
        <time>2016-07-25T13:34:09Z</time>
      </trkpt>
      <trkpt lat="41.285700" lon="-3.481883">
        <ele>2228.0</ele>
        <time>2016-07-25T13:34:11Z</time>
      </trkpt>
      <trkpt lat="41.285533" lon="-3.481783">
        <ele>2226.0</ele>
        <time>2016-07-25T13:34:13Z</time>
      </trkpt>
      <trkpt lat="41.285283" lon="-3.481767">
        <ele>2228.0</ele>
        <time>2016-07-25T13:34:15Z</time>
      </trkpt>
      <trkpt lat="41.285100" lon="-3.481800">
        <ele>2237.0</ele>
        <time>2016-07-25T13:34:17Z</time>
      </trkpt>
      <trkpt lat="41.284967" lon="-3.481833">
        <ele>2242.0</ele>
        <time>2016-07-25T13:34:19Z</time>
      </trkpt>
      <trkpt lat="41.284850" lon="-3.481950">
        <ele>2245.0</ele>
        <time>2016-07-25T13:34:21Z</time>
      </trkpt>
      <trkpt lat="41.284833" lon="-3.482167">
        <ele>2244.0</ele>
        <time>2016-07-25T13:34:23Z</time>
      </trkpt>
      <trkpt lat="41.284917" lon="-3.482350">
        <ele>2248.0</ele>
        <time>2016-07-25T13:34:25Z</time>
      </trkpt>
      <trkpt lat="41.285033" lon="-3.482433">
        <ele>2254.0</ele>
        <time>2016-07-25T13:34:27Z</time>
      </trkpt>
      <trkpt lat="41.285150" lon="-3.482483">
        <ele>2255.0</ele>
        <time>2016-07-25T13:34:29Z</time>
      </trkpt>
      <trkpt lat="41.285300" lon="-3.482483">
        <ele>2256.0</ele>
        <time>2016-07-25T13:34:31Z</time>
      </trkpt>
      <trkpt lat="41.285450" lon="-3.482467">
        <ele>2258.0</ele>
        <time>2016-07-25T13:34:33Z</time>
      </trkpt>
      <trkpt lat="41.285600" lon="-3.482467">
        <ele>2260.0</ele>
        <time>2016-07-25T13:34:35Z</time>
      </trkpt>
      <trkpt lat="41.285767" lon="-3.482467">
        <ele>2259.0</ele>
        <time>2016-07-25T13:34:37Z</time>
      </trkpt>
      <trkpt lat="41.285950" lon="-3.482433">
        <ele>2259.0</ele>
        <time>2016-07-25T13:34:39Z</time>
      </trkpt>
      <trkpt lat="41.286100" lon="-3.482383">
        <ele>2261.0</ele>
        <time>2016-07-25T13:34:41Z</time>
      </trkpt>
      <trkpt lat="41.286250" lon="-3.482350">
        <ele>2260.0</ele>
        <time>2016-07-25T13:34:43Z</time>
      </trkpt>
      <trkpt lat="41.286417" lon="-3.482333">
        <ele>2258.0</ele>
        <time>2016-07-25T13:34:45Z</time>
      </trkpt>
      <trkpt lat="41.286583" lon="-3.482300">
        <ele>2256.0</ele>
        <time>2016-07-25T13:34:47Z</time>
      </trkpt>
      <trkpt lat="41.286750" lon="-3.482267">
        <ele>2253.0</ele>
        <time>2016-07-25T13:34:49Z</time>
      </trkpt>
      <trkpt lat="41.286917" lon="-3.482250">
        <ele>2249.0</ele>
        <time>2016-07-25T13:34:51Z</time>
      </trkpt>
      <trkpt lat="41.287083" lon="-3.482217">
        <ele>2244.0</ele>
        <time>2016-07-25T13:34:53Z</time>
      </trkpt>
      <trkpt lat="41.287250" lon="-3.482200">
        <ele>2241.0</ele>
        <time>2016-07-25T13:34:55Z</time>
      </trkpt>
      <trkpt lat="41.287450" lon="-3.482150">
        <ele>2238.0</ele>
        <time>2016-07-25T13:34:57Z</time>
      </trkpt>
      <trkpt lat="41.287633" lon="-3.482167">
        <ele>2237.0</ele>
        <time>2016-07-25T13:34:59Z</time>
      </trkpt>
      <trkpt lat="41.287817" lon="-3.482167">
        <ele>2235.0</ele>
        <time>2016-07-25T13:35:01Z</time>
      </trkpt>
      <trkpt lat="41.288017" lon="-3.482167">
        <ele>2233.0</ele>
        <time>2016-07-25T13:35:03Z</time>
      </trkpt>
      <trkpt lat="41.288233" lon="-3.482167">
        <ele>2233.0</ele>
        <time>2016-07-25T13:35:05Z</time>
      </trkpt>
      <trkpt lat="41.288417" lon="-3.482167">
        <ele>2234.0</ele>
        <time>2016-07-25T13:35:07Z</time>
      </trkpt>
      <trkpt lat="41.288583" lon="-3.482183">
        <ele>2232.0</ele>
        <time>2016-07-25T13:35:09Z</time>
      </trkpt>
      <trkpt lat="41.288783" lon="-3.482200">
        <ele>2231.0</ele>
        <time>2016-07-25T13:35:11Z</time>
      </trkpt>
      <trkpt lat="41.288950" lon="-3.482183">
        <ele>2233.0</ele>
        <time>2016-07-25T13:35:13Z</time>
      </trkpt>
      <trkpt lat="41.289117" lon="-3.482200">
        <ele>2232.0</ele>
        <time>2016-07-25T13:35:15Z</time>
      </trkpt>
      <trkpt lat="41.289317" lon="-3.482200">
        <ele>2229.0</ele>
        <time>2016-07-25T13:35:17Z</time>
      </trkpt>
      <trkpt lat="41.289533" lon="-3.482167">
        <ele>2230.0</ele>
        <time>2016-07-25T13:35:19Z</time>
      </trkpt>
      <trkpt lat="41.289717" lon="-3.482183">
        <ele>2232.0</ele>
        <time>2016-07-25T13:35:21Z</time>
      </trkpt>
      <trkpt lat="41.289933" lon="-3.482167">
        <ele>2233.0</ele>
        <time>2016-07-25T13:35:23Z</time>
      </trkpt>
      <trkpt lat="41.290150" lon="-3.482150">
        <ele>2238.0</ele>
        <time>2016-07-25T13:35:25Z</time>
      </trkpt>
      <trkpt lat="41.290350" lon="-3.482167">
        <ele>2244.0</ele>
        <time>2016-07-25T13:35:27Z</time>
      </trkpt>
      <trkpt lat="41.290517" lon="-3.482117">
        <ele>2248.0</ele>
        <time>2016-07-25T13:35:29Z</time>
      </trkpt>
      <trkpt lat="41.290633" lon="-3.481983">
        <ele>2251.0</ele>
        <time>2016-07-25T13:35:31Z</time>
      </trkpt>
      <trkpt lat="41.290717" lon="-3.481767">
        <ele>2255.0</ele>
        <time>2016-07-25T13:35:33Z</time>
      </trkpt>
      <trkpt lat="41.290667" lon="-3.481550">
        <ele>2260.0</ele>
        <time>2016-07-25T13:35:35Z</time>
      </trkpt>
      <trkpt lat="41.290517" lon="-3.481417">
        <ele>2266.0</ele>
        <time>2016-07-25T13:35:37Z</time>
      </trkpt>
      <trkpt lat="41.290333" lon="-3.481433">
        <ele>2271.0</ele>
        <time>2016-07-25T13:35:39Z</time>
      </trkpt>
      <trkpt lat="41.290200" lon="-3.481633">
        <ele>2274.0</ele>
        <time>2016-07-25T13:35:41Z</time>
      </trkpt>
      <trkpt lat="41.290167" lon="-3.481900">
        <ele>2281.0</ele>
        <time>2016-07-25T13:35:43Z</time>
      </trkpt>
      <trkpt lat="41.290217" lon="-3.482133">
        <ele>2289.0</ele>
        <time>2016-07-25T13:35:45Z</time>
      </trkpt>
      <trkpt lat="41.290317" lon="-3.482317">
        <ele>2293.0</ele>
        <time>2016-07-25T13:35:47Z</time>
      </trkpt>
      <trkpt lat="41.290467" lon="-3.482433">
        <ele>2294.0</ele>
        <time>2016-07-25T13:35:49Z</time>
      </trkpt>
      <trkpt lat="41.290667" lon="-3.482417">
        <ele>2295.0</ele>
        <time>2016-07-25T13:35:51Z</time>
      </trkpt>
      <trkpt lat="41.290817" lon="-3.482333">
        <ele>2298.0</ele>
        <time>2016-07-25T13:35:53Z</time>
      </trkpt>
      <trkpt lat="41.290883" lon="-3.482133">
        <ele>2302.0</ele>
        <time>2016-07-25T13:35:55Z</time>
      </trkpt>
      <trkpt lat="41.290867" lon="-3.481933">
        <ele>2305.0</ele>
        <time>2016-07-25T13:35:57Z</time>
      </trkpt>
      <trkpt lat="41.290750" lon="-3.481767">
        <ele>2306.0</ele>
        <time>2016-07-25T13:35:59Z</time>
      </trkpt>
      <trkpt lat="41.290550" lon="-3.481717">
        <ele>2308.0</ele>
        <time>2016-07-25T13:36:01Z</time>
      </trkpt>
      <trkpt lat="41.290367" lon="-3.481817">
        <ele>2313.0</ele>
        <time>2016-07-25T13:36:03Z</time>
      </trkpt>
      <trkpt lat="41.290250" lon="-3.481983">
        <ele>2319.0</ele>
        <time>2016-07-25T13:36:05Z</time>
      </trkpt>
      <trkpt lat="41.290183" lon="-3.482217">
        <ele>2323.0</ele>
        <time>2016-07-25T13:36:07Z</time>
      </trkpt>
      <trkpt lat="41.290183" lon="-3.482450">
        <ele>2325.0</ele>
        <time>2016-07-25T13:36:09Z</time>
      </trkpt>
      <trkpt lat="41.290283" lon="-3.482667">
        <ele>2325.0</ele>
        <time>2016-07-25T13:36:11Z</time>
      </trkpt>
      <trkpt lat="41.290433" lon="-3.482833">
        <ele>2327.0</ele>
        <time>2016-07-25T13:36:13Z</time>
      </trkpt>
      <trkpt lat="41.290583" lon="-3.482917">
        <ele>2327.0</ele>
        <time>2016-07-25T13:36:15Z</time>
      </trkpt>
      <trkpt lat="41.290750" lon="-3.482900">
        <ele>2327.0</ele>
        <time>2016-07-25T13:36:17Z</time>
      </trkpt>
      <trkpt lat="41.290917" lon="-3.482800">
        <ele>2327.0</ele>
        <time>2016-07-25T13:36:19Z</time>
      </trkpt>
      <trkpt lat="41.291050" lon="-3.482717">
        <ele>2328.0</ele>
        <time>2016-07-25T13:36:21Z</time>
      </trkpt>
      <trkpt lat="41.291200" lon="-3.482667">
        <ele>2327.0</ele>
        <time>2016-07-25T13:36:23Z</time>
      </trkpt>
      <trkpt lat="41.291383" lon="-3.482600">
        <ele>2324.0</ele>
        <time>2016-07-25T13:36:25Z</time>
      </trkpt>
      <trkpt lat="41.291550" lon="-3.482550">
        <ele>2321.0</ele>
        <time>2016-07-25T13:36:27Z</time>
      </trkpt>
      <trkpt lat="41.291733" lon="-3.482483">
        <ele>2317.0</ele>
        <time>2016-07-25T13:36:29Z</time>
      </trkpt>
      <trkpt lat="41.291917" lon="-3.482450">
        <ele>2313.0</ele>
        <time>2016-07-25T13:36:31Z</time>
      </trkpt>
      <trkpt lat="41.292100" lon="-3.482400">
        <ele>2309.0</ele>
        <time>2016-07-25T13:36:33Z</time>
      </trkpt>
      <trkpt lat="41.292267" lon="-3.482350">
        <ele>2304.0</ele>
        <time>2016-07-25T13:36:35Z</time>
      </trkpt>
      <trkpt lat="41.292433" lon="-3.482300">
        <ele>2298.0</ele>
        <time>2016-07-25T13:36:37Z</time>
      </trkpt>
      <trkpt lat="41.292617" lon="-3.482250">
        <ele>2290.0</ele>
        <time>2016-07-25T13:36:39Z</time>
      </trkpt>
      <trkpt lat="41.292817" lon="-3.482183">
        <ele>2283.0</ele>
        <time>2016-07-25T13:36:41Z</time>
      </trkpt>
      <trkpt lat="41.293000" lon="-3.482117">
        <ele>2277.0</ele>
        <time>2016-07-25T13:36:43Z</time>
      </trkpt>
      <trkpt lat="41.293200" lon="-3.482100">
        <ele>2274.0</ele>
        <time>2016-07-25T13:36:45Z</time>
      </trkpt>
      <trkpt lat="41.293383" lon="-3.482183">
        <ele>2277.0</ele>
        <time>2016-07-25T13:36:47Z</time>
      </trkpt>
      <trkpt lat="41.293500" lon="-3.482250">
        <ele>2277.0</ele>
        <time>2016-07-25T13:36:49Z</time>
      </trkpt>
      <trkpt lat="41.293700" lon="-3.482250">
        <ele>2273.0</ele>
        <time>2016-07-25T13:36:51Z</time>
      </trkpt>
      <trkpt lat="41.293900" lon="-3.482233">
        <ele>2271.0</ele>
        <time>2016-07-25T13:36:53Z</time>
      </trkpt>
      <trkpt lat="41.294083" lon="-3.482217">
        <ele>2271.0</ele>
        <time>2016-07-25T13:36:55Z</time>
      </trkpt>
      <trkpt lat="41.294267" lon="-3.482217">
        <ele>2267.0</ele>
        <time>2016-07-25T13:36:57Z</time>
      </trkpt>
      <trkpt lat="41.294467" lon="-3.482200">
        <ele>2267.0</ele>
        <time>2016-07-25T13:36:59Z</time>
      </trkpt>
      <trkpt lat="41.294633" lon="-3.482183">
        <ele>2267.0</ele>
        <time>2016-07-25T13:37:01Z</time>
      </trkpt>
      <trkpt lat="41.294800" lon="-3.482150">
        <ele>2265.0</ele>
        <time>2016-07-25T13:37:03Z</time>
      </trkpt>
      <trkpt lat="41.295000" lon="-3.482117">
        <ele>2265.0</ele>
        <time>2016-07-25T13:37:05Z</time>
      </trkpt>
      <trkpt lat="41.295167" lon="-3.482050">
        <ele>2264.0</ele>
        <time>2016-07-25T13:37:07Z</time>
      </trkpt>
      <trkpt lat="41.295333" lon="-3.481967">
        <ele>2262.0</ele>
        <time>2016-07-25T13:37:09Z</time>
      </trkpt>
      <trkpt lat="41.295517" lon="-3.481917">
        <ele>2262.0</ele>
        <time>2016-07-25T13:37:11Z</time>
      </trkpt>
      <trkpt lat="41.295700" lon="-3.481867">
        <ele>2263.0</ele>
        <time>2016-07-25T13:37:13Z</time>
      </trkpt>
      <trkpt lat="41.295850" lon="-3.481800">
        <ele>2262.0</ele>
        <time>2016-07-25T13:37:15Z</time>
      </trkpt>
      <trkpt lat="41.296017" lon="-3.481800">
        <ele>2260.0</ele>
        <time>2016-07-25T13:37:17Z</time>
      </trkpt>
      <trkpt lat="41.296167" lon="-3.481783">
        <ele>2255.0</ele>
        <time>2016-07-25T13:37:19Z</time>
      </trkpt>
      <trkpt lat="41.296333" lon="-3.481767">
        <ele>2247.0</ele>
        <time>2016-07-25T13:37:21Z</time>
      </trkpt>
      <trkpt lat="41.296533" lon="-3.481767">
        <ele>2240.0</ele>
        <time>2016-07-25T13:37:23Z</time>
      </trkpt>
      <trkpt lat="41.296700" lon="-3.481750">
        <ele>2238.0</ele>
        <time>2016-07-25T13:37:25Z</time>
      </trkpt>
      <trkpt lat="41.296817" lon="-3.481767">
        <ele>2233.0</ele>
        <time>2016-07-25T13:37:27Z</time>
      </trkpt>
      <trkpt lat="41.296967" lon="-3.481783">
        <ele>2224.0</ele>
        <time>2016-07-25T13:37:29Z</time>
      </trkpt>
      <trkpt lat="41.297150" lon="-3.481800">
        <ele>2216.0</ele>
        <time>2016-07-25T13:37:31Z</time>
      </trkpt>
      <trkpt lat="41.297300" lon="-3.481833">
        <ele>2212.0</ele>
        <time>2016-07-25T13:37:33Z</time>
      </trkpt>
      <trkpt lat="41.297433" lon="-3.481833">
        <ele>2205.0</ele>
        <time>2016-07-25T13:37:35Z</time>
      </trkpt>
      <trkpt lat="41.297600" lon="-3.481833">
        <ele>2198.0</ele>
        <time>2016-07-25T13:37:37Z</time>
      </trkpt>
      <trkpt lat="41.297767" lon="-3.481817">
        <ele>2192.0</ele>
        <time>2016-07-25T13:37:39Z</time>
      </trkpt>
      <trkpt lat="41.297933" lon="-3.481783">
        <ele>2188.0</ele>
        <time>2016-07-25T13:37:41Z</time>
      </trkpt>
      <trkpt lat="41.298100" lon="-3.481733">
        <ele>2186.0</ele>
        <time>2016-07-25T13:37:43Z</time>
      </trkpt>
      <trkpt lat="41.298233" lon="-3.481683">
        <ele>2184.0</ele>
        <time>2016-07-25T13:37:45Z</time>
      </trkpt>
      <trkpt lat="41.298367" lon="-3.481667">
        <ele>2181.0</ele>
        <time>2016-07-25T13:37:47Z</time>
      </trkpt>
      <trkpt lat="41.298500" lon="-3.481683">
        <ele>2179.0</ele>
        <time>2016-07-25T13:37:49Z</time>
      </trkpt>
      <trkpt lat="41.298667" lon="-3.481700">
        <ele>2178.0</ele>
        <time>2016-07-25T13:37:51Z</time>
      </trkpt>
      <trkpt lat="41.298800" lon="-3.481683">
        <ele>2182.0</ele>
        <time>2016-07-25T13:37:53Z</time>
      </trkpt>
      <trkpt lat="41.298917" lon="-3.481667">
        <ele>2183.0</ele>
        <time>2016-07-25T13:37:55Z</time>
      </trkpt>
      <trkpt lat="41.299017" lon="-3.481633">
        <ele>2183.0</ele>
        <time>2016-07-25T13:37:57Z</time>
      </trkpt>
      <trkpt lat="41.299117" lon="-3.481567">
        <ele>2183.0</ele>
        <time>2016-07-25T13:37:59Z</time>
      </trkpt>
      <trkpt lat="41.299233" lon="-3.481550">
        <ele>2180.0</ele>
        <time>2016-07-25T13:38:01Z</time>
      </trkpt>
      <trkpt lat="41.299350" lon="-3.481517">
        <ele>2177.0</ele>
        <time>2016-07-25T13:38:03Z</time>
      </trkpt>
      <trkpt lat="41.299467" lon="-3.481483">
        <ele>2175.0</ele>
        <time>2016-07-25T13:38:05Z</time>
      </trkpt>
      <trkpt lat="41.299583" lon="-3.481467">
        <ele>2172.0</ele>
        <time>2016-07-25T13:38:07Z</time>
      </trkpt>
      <trkpt lat="41.299717" lon="-3.481450">
        <ele>2170.0</ele>
        <time>2016-07-25T13:38:09Z</time>
      </trkpt>
      <trkpt lat="41.299867" lon="-3.481433">
        <ele>2170.0</ele>
        <time>2016-07-25T13:38:11Z</time>
      </trkpt>
      <trkpt lat="41.299967" lon="-3.481417">
        <ele>2169.0</ele>
        <time>2016-07-25T13:38:13Z</time>
      </trkpt>
      <trkpt lat="41.300100" lon="-3.481367">
        <ele>2167.0</ele>
        <time>2016-07-25T13:38:15Z</time>
      </trkpt>
      <trkpt lat="41.300233" lon="-3.481333">
        <ele>2164.0</ele>
        <time>2016-07-25T13:38:17Z</time>
      </trkpt>
      <trkpt lat="41.300417" lon="-3.481333">
        <ele>2162.0</ele>
        <time>2016-07-25T13:38:19Z</time>
      </trkpt>
      <trkpt lat="41.300600" lon="-3.481333">
        <ele>2166.0</ele>
        <time>2016-07-25T13:38:21Z</time>
      </trkpt>
      <trkpt lat="41.300717" lon="-3.481317">
        <ele>2172.0</ele>
        <time>2016-07-25T13:38:23Z</time>
      </trkpt>
      <trkpt lat="41.300850" lon="-3.481300">
        <ele>2174.0</ele>
        <time>2016-07-25T13:38:25Z</time>
      </trkpt>
      <trkpt lat="41.300950" lon="-3.481183">
        <ele>2177.0</ele>
        <time>2016-07-25T13:38:27Z</time>
      </trkpt>
      <trkpt lat="41.300950" lon="-3.481000">
        <ele>2181.0</ele>
        <time>2016-07-25T13:38:29Z</time>
      </trkpt>
      <trkpt lat="41.300917" lon="-3.480850">
        <ele>2188.0</ele>
        <time>2016-07-25T13:38:31Z</time>
      </trkpt>
      <trkpt lat="41.300833" lon="-3.480783">
        <ele>2189.0</ele>
        <time>2016-07-25T13:38:33Z</time>
      </trkpt>
      <trkpt lat="41.300650" lon="-3.480800">
        <ele>2187.0</ele>
        <time>2016-07-25T13:38:35Z</time>
      </trkpt>
      <trkpt lat="41.300483" lon="-3.480950">
        <ele>2190.0</ele>
        <time>2016-07-25T13:38:37Z</time>
      </trkpt>
      <trkpt lat="41.300383" lon="-3.481167">
        <ele>2192.0</ele>
        <time>2016-07-25T13:38:39Z</time>
      </trkpt>
      <trkpt lat="41.300333" lon="-3.481383">
        <ele>2195.0</ele>
        <time>2016-07-25T13:38:41Z</time>
      </trkpt>
      <trkpt lat="41.300383" lon="-3.481567">
        <ele>2195.0</ele>
        <time>2016-07-25T13:38:43Z</time>
      </trkpt>
      <trkpt lat="41.300483" lon="-3.481683">
        <ele>2196.0</ele>
        <time>2016-07-25T13:38:45Z</time>
      </trkpt>
      <trkpt lat="41.300583" lon="-3.481717">
        <ele>2195.0</ele>
        <time>2016-07-25T13:38:47Z</time>
      </trkpt>
      <trkpt lat="41.300683" lon="-3.481717">
        <ele>2194.0</ele>
        <time>2016-07-25T13:38:49Z</time>
      </trkpt>
      <trkpt lat="41.300817" lon="-3.481767">
        <ele>2194.0</ele>
        <time>2016-07-25T13:38:51Z</time>
      </trkpt>
      <trkpt lat="41.300950" lon="-3.481800">
        <ele>2197.0</ele>
        <time>2016-07-25T13:38:53Z</time>
      </trkpt>
      <trkpt lat="41.301067" lon="-3.481817">
        <ele>2198.0</ele>
        <time>2016-07-25T13:38:55Z</time>
      </trkpt>
      <trkpt lat="41.301217" lon="-3.481917">
        <ele>2198.0</ele>
        <time>2016-07-25T13:38:57Z</time>
      </trkpt>
      <trkpt lat="41.301367" lon="-3.481967">
        <ele>2200.0</ele>
        <time>2016-07-25T13:38:59Z</time>
      </trkpt>
      <trkpt lat="41.301500" lon="-3.481983">
        <ele>2203.0</ele>
        <time>2016-07-25T13:39:01Z</time>
      </trkpt>
      <trkpt lat="41.301617" lon="-3.481983">
        <ele>2204.0</ele>
        <time>2016-07-25T13:39:03Z</time>
      </trkpt>
      <trkpt lat="41.301750" lon="-3.481983">
        <ele>2202.0</ele>
        <time>2016-07-25T13:39:05Z</time>
      </trkpt>
      <trkpt lat="41.301883" lon="-3.481933">
        <ele>2202.0</ele>
        <time>2016-07-25T13:39:07Z</time>
      </trkpt>
      <trkpt lat="41.302033" lon="-3.481917">
        <ele>2202.0</ele>
        <time>2016-07-25T13:39:09Z</time>
      </trkpt>
      <trkpt lat="41.302183" lon="-3.481883">
        <ele>2201.0</ele>
        <time>2016-07-25T13:39:11Z</time>
      </trkpt>
      <trkpt lat="41.302333" lon="-3.481850">
        <ele>2198.0</ele>
        <time>2016-07-25T13:39:13Z</time>
      </trkpt>
      <trkpt lat="41.302500" lon="-3.481817">
        <ele>2194.0</ele>
        <time>2016-07-25T13:39:15Z</time>
      </trkpt>
      <trkpt lat="41.302683" lon="-3.481783">
        <ele>2193.0</ele>
        <time>2016-07-25T13:39:17Z</time>
      </trkpt>
      <trkpt lat="41.302833" lon="-3.481750">
        <ele>2193.0</ele>
        <time>2016-07-25T13:39:19Z</time>
      </trkpt>
      <trkpt lat="41.303000" lon="-3.481683">
        <ele>2192.0</ele>
        <time>2016-07-25T13:39:21Z</time>
      </trkpt>
      <trkpt lat="41.303183" lon="-3.481633">
        <ele>2192.0</ele>
        <time>2016-07-25T13:39:23Z</time>
      </trkpt>
      <trkpt lat="41.303350" lon="-3.481600">
        <ele>2192.0</ele>
        <time>2016-07-25T13:39:25Z</time>
      </trkpt>
      <trkpt lat="41.303567" lon="-3.481567">
        <ele>2192.0</ele>
        <time>2016-07-25T13:39:27Z</time>
      </trkpt>
      <trkpt lat="41.303767" lon="-3.481550">
        <ele>2195.0</ele>
        <time>2016-07-25T13:39:29Z</time>
      </trkpt>
      <trkpt lat="41.303933" lon="-3.481550">
        <ele>2195.0</ele>
        <time>2016-07-25T13:39:31Z</time>
      </trkpt>
      <trkpt lat="41.304150" lon="-3.481517">
        <ele>2194.0</ele>
        <time>2016-07-25T13:39:33Z</time>
      </trkpt>
      <trkpt lat="41.304383" lon="-3.481450">
        <ele>2196.0</ele>
        <time>2016-07-25T13:39:35Z</time>
      </trkpt>
      <trkpt lat="41.304583" lon="-3.481400">
        <ele>2199.0</ele>
        <time>2016-07-25T13:39:37Z</time>
      </trkpt>
      <trkpt lat="41.304767" lon="-3.481283">
        <ele>2199.0</ele>
        <time>2016-07-25T13:39:39Z</time>
      </trkpt>
      <trkpt lat="41.304967" lon="-3.481167">
        <ele>2197.0</ele>
        <time>2016-07-25T13:39:41Z</time>
      </trkpt>
      <trkpt lat="41.305150" lon="-3.481050">
        <ele>2193.0</ele>
        <time>2016-07-25T13:39:43Z</time>
      </trkpt>
      <trkpt lat="41.305350" lon="-3.480900">
        <ele>2184.0</ele>
        <time>2016-07-25T13:39:45Z</time>
      </trkpt>
      <trkpt lat="41.305533" lon="-3.480783">
        <ele>2176.0</ele>
        <time>2016-07-25T13:39:47Z</time>
      </trkpt>
      <trkpt lat="41.305717" lon="-3.480700">
        <ele>2169.0</ele>
        <time>2016-07-25T13:39:49Z</time>
      </trkpt>
      <trkpt lat="41.305883" lon="-3.480600">
        <ele>2163.0</ele>
        <time>2016-07-25T13:39:51Z</time>
      </trkpt>
      <trkpt lat="41.306050" lon="-3.480550">
        <ele>2159.0</ele>
        <time>2016-07-25T13:39:53Z</time>
      </trkpt>
      <trkpt lat="41.306217" lon="-3.480550">
        <ele>2156.0</ele>
        <time>2016-07-25T13:39:55Z</time>
      </trkpt>
      <trkpt lat="41.306383" lon="-3.480500">
        <ele>2152.0</ele>
        <time>2016-07-25T13:39:57Z</time>
      </trkpt>
      <trkpt lat="41.306533" lon="-3.480467">
        <ele>2149.0</ele>
        <time>2016-07-25T13:39:59Z</time>
      </trkpt>
      <trkpt lat="41.306700" lon="-3.480417">
        <ele>2147.0</ele>
        <time>2016-07-25T13:40:01Z</time>
      </trkpt>
      <trkpt lat="41.306900" lon="-3.480367">
        <ele>2145.0</ele>
        <time>2016-07-25T13:40:03Z</time>
      </trkpt>
      <trkpt lat="41.307083" lon="-3.480333">
        <ele>2146.0</ele>
        <time>2016-07-25T13:40:05Z</time>
      </trkpt>
      <trkpt lat="41.307267" lon="-3.480317">
        <ele>2146.0</ele>
        <time>2016-07-25T13:40:07Z</time>
      </trkpt>
      <trkpt lat="41.307450" lon="-3.480217">
        <ele>2143.0</ele>
        <time>2016-07-25T13:40:09Z</time>
      </trkpt>
      <trkpt lat="41.307600" lon="-3.480133">
        <ele>2143.0</ele>
        <time>2016-07-25T13:40:11Z</time>
      </trkpt>
      <trkpt lat="41.307750" lon="-3.480067">
        <ele>2143.0</ele>
        <time>2016-07-25T13:40:13Z</time>
      </trkpt>
      <trkpt lat="41.307917" lon="-3.479983">
        <ele>2140.0</ele>
        <time>2016-07-25T13:40:15Z</time>
      </trkpt>
      <trkpt lat="41.308100" lon="-3.479900">
        <ele>2139.0</ele>
        <time>2016-07-25T13:40:17Z</time>
      </trkpt>
      <trkpt lat="41.308250" lon="-3.479817">
        <ele>2140.0</ele>
        <time>2016-07-25T13:40:19Z</time>
      </trkpt>
      <trkpt lat="41.308417" lon="-3.479700">
        <ele>2139.0</ele>
        <time>2016-07-25T13:40:21Z</time>
      </trkpt>
      <trkpt lat="41.308567" lon="-3.479583">
        <ele>2141.0</ele>
        <time>2016-07-25T13:40:23Z</time>
      </trkpt>
      <trkpt lat="41.308717" lon="-3.479467">
        <ele>2145.0</ele>
        <time>2016-07-25T13:40:25Z</time>
      </trkpt>
      <trkpt lat="41.308883" lon="-3.479350">
        <ele>2148.0</ele>
        <time>2016-07-25T13:40:27Z</time>
      </trkpt>
      <trkpt lat="41.309017" lon="-3.479233">
        <ele>2152.0</ele>
        <time>2016-07-25T13:40:29Z</time>
      </trkpt>
      <trkpt lat="41.309167" lon="-3.479067">
        <ele>2155.0</ele>
        <time>2016-07-25T13:40:31Z</time>
      </trkpt>
      <trkpt lat="41.309250" lon="-3.478850">
        <ele>2160.0</ele>
        <time>2016-07-25T13:40:33Z</time>
      </trkpt>
      <trkpt lat="41.309250" lon="-3.478583">
        <ele>2164.0</ele>
        <time>2016-07-25T13:40:35Z</time>
      </trkpt>
      <trkpt lat="41.309167" lon="-3.478333">
        <ele>2168.0</ele>
        <time>2016-07-25T13:40:37Z</time>
      </trkpt>
      <trkpt lat="41.308967" lon="-3.478167">
        <ele>2170.0</ele>
        <time>2016-07-25T13:40:39Z</time>
      </trkpt>
      <trkpt lat="41.308767" lon="-3.478150">
        <ele>2176.0</ele>
        <time>2016-07-25T13:40:41Z</time>
      </trkpt>
      <trkpt lat="41.308617" lon="-3.478250">
        <ele>2180.0</ele>
        <time>2016-07-25T13:40:43Z</time>
      </trkpt>
      <trkpt lat="41.308533" lon="-3.478417">
        <ele>2183.0</ele>
        <time>2016-07-25T13:40:45Z</time>
      </trkpt>
      <trkpt lat="41.308533" lon="-3.478583">
        <ele>2186.0</ele>
        <time>2016-07-25T13:40:47Z</time>
      </trkpt>
      <trkpt lat="41.308633" lon="-3.478733">
        <ele>2189.0</ele>
        <time>2016-07-25T13:40:49Z</time>
      </trkpt>
      <trkpt lat="41.308767" lon="-3.478800">
        <ele>2194.0</ele>
        <time>2016-07-25T13:40:51Z</time>
      </trkpt>
      <trkpt lat="41.308917" lon="-3.478767">
        <ele>2198.0</ele>
        <time>2016-07-25T13:40:53Z</time>
      </trkpt>
      <trkpt lat="41.309067" lon="-3.478617">
        <ele>2201.0</ele>
        <time>2016-07-25T13:40:55Z</time>
      </trkpt>
      <trkpt lat="41.309133" lon="-3.478383">
        <ele>2206.0</ele>
        <time>2016-07-25T13:40:57Z</time>
      </trkpt>
      <trkpt lat="41.309117" lon="-3.478133">
        <ele>2212.0</ele>
        <time>2016-07-25T13:40:59Z</time>
      </trkpt>
      <trkpt lat="41.309017" lon="-3.477900">
        <ele>2216.0</ele>
        <time>2016-07-25T13:41:01Z</time>
      </trkpt>
      <trkpt lat="41.308850" lon="-3.477733">
        <ele>2219.0</ele>
        <time>2016-07-25T13:41:03Z</time>
      </trkpt>
      <trkpt lat="41.308650" lon="-3.477717">
        <ele>2223.0</ele>
        <time>2016-07-25T13:41:05Z</time>
      </trkpt>
      <trkpt lat="41.308500" lon="-3.477817">
        <ele>2229.0</ele>
        <time>2016-07-25T13:41:07Z</time>
      </trkpt>
      <trkpt lat="41.308450" lon="-3.477967">
        <ele>2232.0</ele>
        <time>2016-07-25T13:41:09Z</time>
      </trkpt>
      <trkpt lat="41.308467" lon="-3.478150">
        <ele>2237.0</ele>
        <time>2016-07-25T13:41:11Z</time>
      </trkpt>
      <trkpt lat="41.308567" lon="-3.478300">
        <ele>2241.0</ele>
        <time>2016-07-25T13:41:13Z</time>
      </trkpt>
      <trkpt lat="41.308717" lon="-3.478350">
        <ele>2245.0</ele>
        <time>2016-07-25T13:41:15Z</time>
      </trkpt>
      <trkpt lat="41.308867" lon="-3.478267">
        <ele>2250.0</ele>
        <time>2016-07-25T13:41:17Z</time>
      </trkpt>
      <trkpt lat="41.308983" lon="-3.478083">
        <ele>2255.0</ele>
        <time>2016-07-25T13:41:19Z</time>
      </trkpt>
      <trkpt lat="41.309017" lon="-3.477833">
        <ele>2257.0</ele>
        <time>2016-07-25T13:41:21Z</time>
      </trkpt>
      <trkpt lat="41.308967" lon="-3.477533">
        <ele>2261.0</ele>
        <time>2016-07-25T13:41:23Z</time>
      </trkpt>
      <trkpt lat="41.308817" lon="-3.477367">
        <ele>2267.0</ele>
        <time>2016-07-25T13:41:25Z</time>
      </trkpt>
      <trkpt lat="41.308633" lon="-3.477333">
        <ele>2273.0</ele>
        <time>2016-07-25T13:41:27Z</time>
      </trkpt>
      <trkpt lat="41.308467" lon="-3.477367">
        <ele>2277.0</ele>
        <time>2016-07-25T13:41:29Z</time>
      </trkpt>
      <trkpt lat="41.308367" lon="-3.477533">
        <ele>2280.0</ele>
        <time>2016-07-25T13:41:31Z</time>
      </trkpt>
      <trkpt lat="41.308383" lon="-3.477750">
        <ele>2285.0</ele>
        <time>2016-07-25T13:41:33Z</time>
      </trkpt>
      <trkpt lat="41.308500" lon="-3.477867">
        <ele>2292.0</ele>
        <time>2016-07-25T13:41:35Z</time>
      </trkpt>
      <trkpt lat="41.308633" lon="-3.477917">
        <ele>2300.0</ele>
        <time>2016-07-25T13:41:37Z</time>
      </trkpt>
      <trkpt lat="41.308800" lon="-3.477867">
        <ele>2305.0</ele>
        <time>2016-07-25T13:41:39Z</time>
      </trkpt>
      <trkpt lat="41.308967" lon="-3.477717">
        <ele>2309.0</ele>
        <time>2016-07-25T13:41:41Z</time>
      </trkpt>
      <trkpt lat="41.309067" lon="-3.477450">
        <ele>2313.0</ele>
        <time>2016-07-25T13:41:43Z</time>
      </trkpt>
      <trkpt lat="41.309050" lon="-3.477183">
        <ele>2320.0</ele>
        <time>2016-07-25T13:41:45Z</time>
      </trkpt>
      <trkpt lat="41.308933" lon="-3.476983">
        <ele>2324.0</ele>
        <time>2016-07-25T13:41:47Z</time>
      </trkpt>
      <trkpt lat="41.308767" lon="-3.476883">
        <ele>2328.0</ele>
        <time>2016-07-25T13:41:49Z</time>
      </trkpt>
      <trkpt lat="41.308583" lon="-3.476917">
        <ele>2332.0</ele>
        <time>2016-07-25T13:41:51Z</time>
      </trkpt>
      <trkpt lat="41.308467" lon="-3.477050">
        <ele>2338.0</ele>
        <time>2016-07-25T13:41:53Z</time>
      </trkpt>
      <trkpt lat="41.308417" lon="-3.477217">
        <ele>2342.0</ele>
        <time>2016-07-25T13:41:55Z</time>
      </trkpt>
      <trkpt lat="41.308433" lon="-3.477400">
        <ele>2346.0</ele>
        <time>2016-07-25T13:41:57Z</time>
      </trkpt>
      <trkpt lat="41.308550" lon="-3.477583">
        <ele>2353.0</ele>
        <time>2016-07-25T13:41:59Z</time>
      </trkpt>
      <trkpt lat="41.308683" lon="-3.477667">
        <ele>2362.0</ele>
        <time>2016-07-25T13:42:01Z</time>
      </trkpt>
      <trkpt lat="41.308833" lon="-3.477683">
        <ele>2368.0</ele>
        <time>2016-07-25T13:42:03Z</time>
      </trkpt>
      <trkpt lat="41.309000" lon="-3.477550">
        <ele>2370.0</ele>
        <time>2016-07-25T13:42:05Z</time>
      </trkpt>
      <trkpt lat="41.309083" lon="-3.477283">
        <ele>2374.0</ele>
        <time>2016-07-25T13:42:07Z</time>
      </trkpt>
      <trkpt lat="41.309033" lon="-3.477017">
        <ele>2379.0</ele>
        <time>2016-07-25T13:42:09Z</time>
      </trkpt>
      <trkpt lat="41.308917" lon="-3.476817">
        <ele>2382.0</ele>
        <time>2016-07-25T13:42:11Z</time>
      </trkpt>
      <trkpt lat="41.308733" lon="-3.476683">
        <ele>2386.0</ele>
        <time>2016-07-25T13:42:13Z</time>
      </trkpt>
      <trkpt lat="41.308550" lon="-3.476700">
        <ele>2392.0</ele>
        <time>2016-07-25T13:42:15Z</time>
      </trkpt>
      <trkpt lat="41.308417" lon="-3.476817">
        <ele>2399.0</ele>
        <time>2016-07-25T13:42:17Z</time>
      </trkpt>
      <trkpt lat="41.308350" lon="-3.476967">
        <ele>2404.0</ele>
        <time>2016-07-25T13:42:19Z</time>
      </trkpt>
      <trkpt lat="41.308367" lon="-3.477150">
        <ele>2408.0</ele>
        <time>2016-07-25T13:42:21Z</time>
      </trkpt>
      <trkpt lat="41.308467" lon="-3.477283">
        <ele>2413.0</ele>
        <time>2016-07-25T13:42:23Z</time>
      </trkpt>
      <trkpt lat="41.308617" lon="-3.477317">
        <ele>2419.0</ele>
        <time>2016-07-25T13:42:25Z</time>
      </trkpt>
      <trkpt lat="41.308767" lon="-3.477233">
        <ele>2424.0</ele>
        <time>2016-07-25T13:42:27Z</time>
      </trkpt>
      <trkpt lat="41.308883" lon="-3.477033">
        <ele>2428.0</ele>
        <time>2016-07-25T13:42:29Z</time>
      </trkpt>
      <trkpt lat="41.308900" lon="-3.476783">
        <ele>2432.0</ele>
        <time>2016-07-25T13:42:31Z</time>
      </trkpt>
      <trkpt lat="41.308817" lon="-3.476533">
        <ele>2435.0</ele>
        <time>2016-07-25T13:42:33Z</time>
      </trkpt>
      <trkpt lat="41.308650" lon="-3.476383">
        <ele>2438.0</ele>
        <time>2016-07-25T13:42:35Z</time>
      </trkpt>
      <trkpt lat="41.308450" lon="-3.476350">
        <ele>2443.0</ele>
        <time>2016-07-25T13:42:37Z</time>
      </trkpt>
      <trkpt lat="41.308283" lon="-3.476433">
        <ele>2449.0</ele>
        <time>2016-07-25T13:42:39Z</time>
      </trkpt>
      <trkpt lat="41.308183" lon="-3.476567">
        <ele>2454.0</ele>
        <time>2016-07-25T13:42:41Z</time>
      </trkpt>
      <trkpt lat="41.308200" lon="-3.476733">
        <ele>2459.0</ele>
        <time>2016-07-25T13:42:43Z</time>
      </trkpt>
      <trkpt lat="41.308300" lon="-3.476850">
        <ele>2465.0</ele>
        <time>2016-07-25T13:42:45Z</time>
      </trkpt>
      <trkpt lat="41.308450" lon="-3.476883">
        <ele>2469.0</ele>
        <time>2016-07-25T13:42:47Z</time>
      </trkpt>
      <trkpt lat="41.308633" lon="-3.476817">
        <ele>2472.0</ele>
        <time>2016-07-25T13:42:49Z</time>
      </trkpt>
      <trkpt lat="41.308767" lon="-3.476617">
        <ele>2476.0</ele>
        <time>2016-07-25T13:42:51Z</time>
      </trkpt>
      <trkpt lat="41.308817" lon="-3.476350">
        <ele>2480.0</ele>
        <time>2016-07-25T13:42:53Z</time>
      </trkpt>
      <trkpt lat="41.308767" lon="-3.476050">
        <ele>2484.0</ele>
        <time>2016-07-25T13:42:55Z</time>
      </trkpt>
      <trkpt lat="41.308633" lon="-3.475817">
        <ele>2488.0</ele>
        <time>2016-07-25T13:42:57Z</time>
      </trkpt>
      <trkpt lat="41.308450" lon="-3.475700">
        <ele>2494.0</ele>
        <time>2016-07-25T13:42:59Z</time>
      </trkpt>
      <trkpt lat="41.308283" lon="-3.475683">
        <ele>2499.0</ele>
        <time>2016-07-25T13:43:01Z</time>
      </trkpt>
      <trkpt lat="41.308150" lon="-3.475750">
        <ele>2502.0</ele>
        <time>2016-07-25T13:43:03Z</time>
      </trkpt>
      <trkpt lat="41.308067" lon="-3.475933">
        <ele>2507.0</ele>
        <time>2016-07-25T13:43:05Z</time>
      </trkpt>
      <trkpt lat="41.308067" lon="-3.476100">
        <ele>2515.0</ele>
        <time>2016-07-25T13:43:07Z</time>
      </trkpt>
      <trkpt lat="41.308183" lon="-3.476200">
        <ele>2522.0</ele>
        <time>2016-07-25T13:43:09Z</time>
      </trkpt>
      <trkpt lat="41.308317" lon="-3.476233">
        <ele>2527.0</ele>
        <time>2016-07-25T13:43:11Z</time>
      </trkpt>
      <trkpt lat="41.308467" lon="-3.476150">
        <ele>2532.0</ele>
        <time>2016-07-25T13:43:13Z</time>
      </trkpt>
      <trkpt lat="41.308600" lon="-3.475950">
        <ele>2535.0</ele>
        <time>2016-07-25T13:43:15Z</time>
      </trkpt>
      <trkpt lat="41.308650" lon="-3.475667">
        <ele>2538.0</ele>
        <time>2016-07-25T13:43:17Z</time>
      </trkpt>
      <trkpt lat="41.308567" lon="-3.475383">
        <ele>2543.0</ele>
        <time>2016-07-25T13:43:19Z</time>
      </trkpt>
      <trkpt lat="41.308417" lon="-3.475183">
        <ele>2548.0</ele>
        <time>2016-07-25T13:43:21Z</time>
      </trkpt>
      <trkpt lat="41.308217" lon="-3.475100">
        <ele>2552.0</ele>
        <time>2016-07-25T13:43:23Z</time>
      </trkpt>
      <trkpt lat="41.308033" lon="-3.475167">
        <ele>2557.0</ele>
        <time>2016-07-25T13:43:25Z</time>
      </trkpt>
      <trkpt lat="41.307950" lon="-3.475317">
        <ele>2563.0</ele>
        <time>2016-07-25T13:43:27Z</time>
      </trkpt>
      <trkpt lat="41.307967" lon="-3.475483">
        <ele>2570.0</ele>
        <time>2016-07-25T13:43:29Z</time>
      </trkpt>
      <trkpt lat="41.308067" lon="-3.475600">
        <ele>2574.0</ele>
        <time>2016-07-25T13:43:31Z</time>
      </trkpt>
      <trkpt lat="41.308217" lon="-3.475617">
        <ele>2578.0</ele>
        <time>2016-07-25T13:43:33Z</time>
      </trkpt>
      <trkpt lat="41.308383" lon="-3.475533">
        <ele>2583.0</ele>
        <time>2016-07-25T13:43:35Z</time>
      </trkpt>
      <trkpt lat="41.308517" lon="-3.475300">
        <ele>2589.0</ele>
        <time>2016-07-25T13:43:37Z</time>
      </trkpt>
      <trkpt lat="41.308567" lon="-3.475017">
        <ele>2594.0</ele>
        <time>2016-07-25T13:43:39Z</time>
      </trkpt>
      <trkpt lat="41.308517" lon="-3.474700">
        <ele>2597.0</ele>
        <time>2016-07-25T13:43:41Z</time>
      </trkpt>
      <trkpt lat="41.308350" lon="-3.474467">
        <ele>2601.0</ele>
        <time>2016-07-25T13:43:43Z</time>
      </trkpt>
      <trkpt lat="41.308167" lon="-3.474383">
        <ele>2607.0</ele>
        <time>2016-07-25T13:43:45Z</time>
      </trkpt>
      <trkpt lat="41.308017" lon="-3.474450">
        <ele>2612.0</ele>
        <time>2016-07-25T13:43:47Z</time>
      </trkpt>
      <trkpt lat="41.307917" lon="-3.474600">
        <ele>2617.0</ele>
        <time>2016-07-25T13:43:49Z</time>
      </trkpt>
      <trkpt lat="41.307933" lon="-3.474800">
        <ele>2622.0</ele>
        <time>2016-07-25T13:43:51Z</time>
      </trkpt>
      <trkpt lat="41.308050" lon="-3.474950">
        <ele>2629.0</ele>
        <time>2016-07-25T13:43:53Z</time>
      </trkpt>
      <trkpt lat="41.308200" lon="-3.474983">
        <ele>2637.0</ele>
        <time>2016-07-25T13:43:55Z</time>
      </trkpt>
      <trkpt lat="41.308367" lon="-3.474917">
        <ele>2642.0</ele>
        <time>2016-07-25T13:43:57Z</time>
      </trkpt>
      <trkpt lat="41.308517" lon="-3.474717">
        <ele>2648.0</ele>
        <time>2016-07-25T13:43:59Z</time>
      </trkpt>
      <trkpt lat="41.308567" lon="-3.474433">
        <ele>2651.0</ele>
        <time>2016-07-25T13:44:01Z</time>
      </trkpt>
      <trkpt lat="41.308517" lon="-3.474133">
        <ele>2655.0</ele>
        <time>2016-07-25T13:44:03Z</time>
      </trkpt>
      <trkpt lat="41.308367" lon="-3.473900">
        <ele>2659.0</ele>
        <time>2016-07-25T13:44:05Z</time>
      </trkpt>
      <trkpt lat="41.308167" lon="-3.473850">
        <ele>2664.0</ele>
        <time>2016-07-25T13:44:07Z</time>
      </trkpt>
      <trkpt lat="41.308017" lon="-3.473933">
        <ele>2671.0</ele>
        <time>2016-07-25T13:44:09Z</time>
      </trkpt>
      <trkpt lat="41.307950" lon="-3.474100">
        <ele>2676.0</ele>
        <time>2016-07-25T13:44:11Z</time>
      </trkpt>
      <trkpt lat="41.307983" lon="-3.474317">
        <ele>2679.0</ele>
        <time>2016-07-25T13:44:13Z</time>
      </trkpt>
      <trkpt lat="41.308100" lon="-3.474467">
        <ele>2685.0</ele>
        <time>2016-07-25T13:44:15Z</time>
      </trkpt>
      <trkpt lat="41.308233" lon="-3.474533">
        <ele>2692.0</ele>
        <time>2016-07-25T13:44:17Z</time>
      </trkpt>
      <trkpt lat="41.308417" lon="-3.474567">
        <ele>2696.0</ele>
        <time>2016-07-25T13:44:19Z</time>
      </trkpt>
      <trkpt lat="41.308617" lon="-3.474600">
        <ele>2702.0</ele>
        <time>2016-07-25T13:44:21Z</time>
      </trkpt>
      <trkpt lat="41.308817" lon="-3.474600">
        <ele>2710.0</ele>
        <time>2016-07-25T13:44:23Z</time>
      </trkpt>
      <trkpt lat="41.309000" lon="-3.474583">
        <ele>2714.0</ele>
        <time>2016-07-25T13:44:25Z</time>
      </trkpt>
      <trkpt lat="41.309167" lon="-3.474550">
        <ele>2715.0</ele>
        <time>2016-07-25T13:44:27Z</time>
      </trkpt>
      <trkpt lat="41.309350" lon="-3.474467">
        <ele>2715.0</ele>
        <time>2016-07-25T13:44:29Z</time>
      </trkpt>
      <trkpt lat="41.309517" lon="-3.474417">
        <ele>2713.0</ele>
        <time>2016-07-25T13:44:31Z</time>
      </trkpt>
      <trkpt lat="41.309683" lon="-3.474333">
        <ele>2708.0</ele>
        <time>2016-07-25T13:44:33Z</time>
      </trkpt>
      <trkpt lat="41.309883" lon="-3.474233">
        <ele>2704.0</ele>
        <time>2016-07-25T13:44:35Z</time>
      </trkpt>
      <trkpt lat="41.310067" lon="-3.474133">
        <ele>2701.0</ele>
        <time>2016-07-25T13:44:37Z</time>
      </trkpt>
      <trkpt lat="41.310233" lon="-3.474067">
        <ele>2697.0</ele>
        <time>2016-07-25T13:44:39Z</time>
      </trkpt>
      <trkpt lat="41.310433" lon="-3.474000">
        <ele>2691.0</ele>
        <time>2016-07-25T13:44:41Z</time>
      </trkpt>
      <trkpt lat="41.310633" lon="-3.473950">
        <ele>2687.0</ele>
        <time>2016-07-25T13:44:43Z</time>
      </trkpt>
      <trkpt lat="41.310817" lon="-3.473950">
        <ele>2683.0</ele>
        <time>2016-07-25T13:44:45Z</time>
      </trkpt>
      <trkpt lat="41.311000" lon="-3.473967">
        <ele>2676.0</ele>
        <time>2016-07-25T13:44:47Z</time>
      </trkpt>
      <trkpt lat="41.311200" lon="-3.474000">
        <ele>2668.0</ele>
        <time>2016-07-25T13:44:49Z</time>
      </trkpt>
      <trkpt lat="41.311383" lon="-3.474017">
        <ele>2662.0</ele>
        <time>2016-07-25T13:44:51Z</time>
      </trkpt>
      <trkpt lat="41.311550" lon="-3.474050">
        <ele>2653.0</ele>
        <time>2016-07-25T13:44:53Z</time>
      </trkpt>
      <trkpt lat="41.311767" lon="-3.474067">
        <ele>2645.0</ele>
        <time>2016-07-25T13:44:55Z</time>
      </trkpt>
      <trkpt lat="41.311950" lon="-3.474050">
        <ele>2642.0</ele>
        <time>2016-07-25T13:44:57Z</time>
      </trkpt>
      <trkpt lat="41.312117" lon="-3.474017">
        <ele>2636.0</ele>
        <time>2016-07-25T13:44:59Z</time>
      </trkpt>
      <trkpt lat="41.312317" lon="-3.474017">
        <ele>2626.0</ele>
        <time>2016-07-25T13:45:01Z</time>
      </trkpt>
      <trkpt lat="41.312550" lon="-3.474017">
        <ele>2621.0</ele>
        <time>2016-07-25T13:45:03Z</time>
      </trkpt>
      <trkpt lat="41.312733" lon="-3.473983">
        <ele>2619.0</ele>
        <time>2016-07-25T13:45:05Z</time>
      </trkpt>
      <trkpt lat="41.312917" lon="-3.473917">
        <ele>2613.0</ele>
        <time>2016-07-25T13:45:07Z</time>
      </trkpt>
      <trkpt lat="41.313133" lon="-3.473833">
        <ele>2606.0</ele>
        <time>2016-07-25T13:45:09Z</time>
      </trkpt>
      <trkpt lat="41.313333" lon="-3.473733">
        <ele>2601.0</ele>
        <time>2016-07-25T13:45:11Z</time>
      </trkpt>
      <trkpt lat="41.313517" lon="-3.473617">
        <ele>2595.0</ele>
        <time>2016-07-25T13:45:13Z</time>
      </trkpt>
      <trkpt lat="41.313700" lon="-3.473483">
        <ele>2589.0</ele>
        <time>2016-07-25T13:45:15Z</time>
      </trkpt>
      <trkpt lat="41.313883" lon="-3.473350">
        <ele>2582.0</ele>
        <time>2016-07-25T13:45:17Z</time>
      </trkpt>
      <trkpt lat="41.314083" lon="-3.473233">
        <ele>2578.0</ele>
        <time>2016-07-25T13:45:19Z</time>
      </trkpt>
      <trkpt lat="41.314250" lon="-3.473117">
        <ele>2573.0</ele>
        <time>2016-07-25T13:45:21Z</time>
      </trkpt>
      <trkpt lat="41.314417" lon="-3.473000">
        <ele>2566.0</ele>
        <time>2016-07-25T13:45:23Z</time>
      </trkpt>
      <trkpt lat="41.314583" lon="-3.472883">
        <ele>2560.0</ele>
        <time>2016-07-25T13:45:25Z</time>
      </trkpt>
      <trkpt lat="41.314767" lon="-3.472767">
        <ele>2554.0</ele>
        <time>2016-07-25T13:45:27Z</time>
      </trkpt>
      <trkpt lat="41.314933" lon="-3.472633">
        <ele>2549.0</ele>
        <time>2016-07-25T13:45:29Z</time>
      </trkpt>
      <trkpt lat="41.315083" lon="-3.472517">
        <ele>2545.0</ele>
        <time>2016-07-25T13:45:31Z</time>
      </trkpt>
      <trkpt lat="41.315267" lon="-3.472350">
        <ele>2539.0</ele>
        <time>2016-07-25T13:45:33Z</time>
      </trkpt>
      <trkpt lat="41.315450" lon="-3.472200">
        <ele>2534.0</ele>
        <time>2016-07-25T13:45:35Z</time>
      </trkpt>
      <trkpt lat="41.315633" lon="-3.472083">
        <ele>2530.0</ele>
        <time>2016-07-25T13:45:37Z</time>
      </trkpt>
      <trkpt lat="41.315817" lon="-3.471883">
        <ele>2528.0</ele>
        <time>2016-07-25T13:45:39Z</time>
      </trkpt>
      <trkpt lat="41.316000" lon="-3.471733">
        <ele>2526.0</ele>
        <time>2016-07-25T13:45:41Z</time>
      </trkpt>
      <trkpt lat="41.316200" lon="-3.471600">
        <ele>2522.0</ele>
        <time>2016-07-25T13:45:43Z</time>
      </trkpt>
      <trkpt lat="41.316383" lon="-3.471467">
        <ele>2518.0</ele>
        <time>2016-07-25T13:45:45Z</time>
      </trkpt>
      <trkpt lat="41.316567" lon="-3.471333">
        <ele>2514.0</ele>
        <time>2016-07-25T13:45:47Z</time>
      </trkpt>
      <trkpt lat="41.316733" lon="-3.471183">
        <ele>2508.0</ele>
        <time>2016-07-25T13:45:49Z</time>
      </trkpt>
      <trkpt lat="41.316917" lon="-3.471033">
        <ele>2503.0</ele>
        <time>2016-07-25T13:45:51Z</time>
      </trkpt>
      <trkpt lat="41.317083" lon="-3.470900">
        <ele>2497.0</ele>
        <time>2016-07-25T13:45:53Z</time>
      </trkpt>
      <trkpt lat="41.317267" lon="-3.470800">
        <ele>2490.0</ele>
        <time>2016-07-25T13:45:55Z</time>
      </trkpt>
      <trkpt lat="41.317450" lon="-3.470683">
        <ele>2485.0</ele>
        <time>2016-07-25T13:45:57Z</time>
      </trkpt>
      <trkpt lat="41.317617" lon="-3.470583">
        <ele>2481.0</ele>
        <time>2016-07-25T13:45:59Z</time>
      </trkpt>
      <trkpt lat="41.317800" lon="-3.470483">
        <ele>2476.0</ele>
        <time>2016-07-25T13:46:01Z</time>
      </trkpt>
      <trkpt lat="41.317983" lon="-3.470383">
        <ele>2471.0</ele>
        <time>2016-07-25T13:46:03Z</time>
      </trkpt>
      <trkpt lat="41.318183" lon="-3.470250">
        <ele>2467.0</ele>
        <time>2016-07-25T13:46:05Z</time>
      </trkpt>
      <trkpt lat="41.318367" lon="-3.470117">
        <ele>2467.0</ele>
        <time>2016-07-25T13:46:07Z</time>
      </trkpt>
      <trkpt lat="41.318517" lon="-3.470000">
        <ele>2465.0</ele>
        <time>2016-07-25T13:46:09Z</time>
      </trkpt>
      <trkpt lat="41.318683" lon="-3.469917">
        <ele>2459.0</ele>
        <time>2016-07-25T13:46:11Z</time>
      </trkpt>
      <trkpt lat="41.318883" lon="-3.469817">
        <ele>2454.0</ele>
        <time>2016-07-25T13:46:13Z</time>
      </trkpt>
      <trkpt lat="41.319067" lon="-3.469683">
        <ele>2453.0</ele>
        <time>2016-07-25T13:46:15Z</time>
      </trkpt>
      <trkpt lat="41.319217" lon="-3.469567">
        <ele>2451.0</ele>
        <time>2016-07-25T13:46:17Z</time>
      </trkpt>
      <trkpt lat="41.319367" lon="-3.469450">
        <ele>2449.0</ele>
        <time>2016-07-25T13:46:19Z</time>
      </trkpt>
      <trkpt lat="41.319533" lon="-3.469350">
        <ele>2445.0</ele>
        <time>2016-07-25T13:46:21Z</time>
      </trkpt>
      <trkpt lat="41.319717" lon="-3.469267">
        <ele>2439.0</ele>
        <time>2016-07-25T13:46:23Z</time>
      </trkpt>
      <trkpt lat="41.319900" lon="-3.469133">
        <ele>2438.0</ele>
        <time>2016-07-25T13:46:25Z</time>
      </trkpt>
      <trkpt lat="41.320067" lon="-3.469000">
        <ele>2437.0</ele>
        <time>2016-07-25T13:46:27Z</time>
      </trkpt>
      <trkpt lat="41.320200" lon="-3.468850">
        <ele>2433.0</ele>
        <time>2016-07-25T13:46:29Z</time>
      </trkpt>
      <trkpt lat="41.320350" lon="-3.468700">
        <ele>2424.0</ele>
        <time>2016-07-25T13:46:31Z</time>
      </trkpt>
      <trkpt lat="41.320517" lon="-3.468550">
        <ele>2416.0</ele>
        <time>2016-07-25T13:46:33Z</time>
      </trkpt>
      <trkpt lat="41.320683" lon="-3.468383">
        <ele>2411.0</ele>
        <time>2016-07-25T13:46:35Z</time>
      </trkpt>
      <trkpt lat="41.320833" lon="-3.468250">
        <ele>2405.0</ele>
        <time>2016-07-25T13:46:37Z</time>
      </trkpt>
      <trkpt lat="41.321000" lon="-3.468133">
        <ele>2397.0</ele>
        <time>2016-07-25T13:46:39Z</time>
      </trkpt>
      <trkpt lat="41.321183" lon="-3.467983">
        <ele>2392.0</ele>
        <time>2016-07-25T13:46:41Z</time>
      </trkpt>
      <trkpt lat="41.321350" lon="-3.467850">
        <ele>2387.0</ele>
        <time>2016-07-25T13:46:43Z</time>
      </trkpt>
      <trkpt lat="41.321533" lon="-3.467700">
        <ele>2381.0</ele>
        <time>2016-07-25T13:46:45Z</time>
      </trkpt>
      <trkpt lat="41.321717" lon="-3.467550">
        <ele>2377.0</ele>
        <time>2016-07-25T13:46:47Z</time>
      </trkpt>
      <trkpt lat="41.321900" lon="-3.467400">
        <ele>2374.0</ele>
        <time>2016-07-25T13:46:49Z</time>
      </trkpt>
      <trkpt lat="41.322067" lon="-3.467250">
        <ele>2371.0</ele>
        <time>2016-07-25T13:46:51Z</time>
      </trkpt>
      <trkpt lat="41.322250" lon="-3.467133">
        <ele>2366.0</ele>
        <time>2016-07-25T13:46:53Z</time>
      </trkpt>
      <trkpt lat="41.322433" lon="-3.467033">
        <ele>2362.0</ele>
        <time>2016-07-25T13:46:55Z</time>
      </trkpt>
      <trkpt lat="41.322617" lon="-3.466917">
        <ele>2359.0</ele>
        <time>2016-07-25T13:46:57Z</time>
      </trkpt>
      <trkpt lat="41.322800" lon="-3.466850">
        <ele>2356.0</ele>
        <time>2016-07-25T13:46:59Z</time>
      </trkpt>
      <trkpt lat="41.322983" lon="-3.466783">
        <ele>2351.0</ele>
        <time>2016-07-25T13:47:01Z</time>
      </trkpt>
      <trkpt lat="41.323183" lon="-3.466717">
        <ele>2346.0</ele>
        <time>2016-07-25T13:47:03Z</time>
      </trkpt>
      <trkpt lat="41.323383" lon="-3.466700">
        <ele>2339.0</ele>
        <time>2016-07-25T13:47:05Z</time>
      </trkpt>
      <trkpt lat="41.323550" lon="-3.466700">
        <ele>2336.0</ele>
        <time>2016-07-25T13:47:07Z</time>
      </trkpt>
      <trkpt lat="41.323700" lon="-3.466683">
        <ele>2331.0</ele>
        <time>2016-07-25T13:47:09Z</time>
      </trkpt>
      <trkpt lat="41.323867" lon="-3.466633">
        <ele>2324.0</ele>
        <time>2016-07-25T13:47:11Z</time>
      </trkpt>
      <trkpt lat="41.324067" lon="-3.466617">
        <ele>2318.0</ele>
        <time>2016-07-25T13:47:13Z</time>
      </trkpt>
      <trkpt lat="41.324267" lon="-3.466617">
        <ele>2314.0</ele>
        <time>2016-07-25T13:47:15Z</time>
      </trkpt>
      <trkpt lat="41.324417" lon="-3.466567">
        <ele>2308.0</ele>
        <time>2016-07-25T13:47:17Z</time>
      </trkpt>
      <trkpt lat="41.324600" lon="-3.466517">
        <ele>2299.0</ele>
        <time>2016-07-25T13:47:19Z</time>
      </trkpt>
      <trkpt lat="41.324783" lon="-3.466417">
        <ele>2294.0</ele>
        <time>2016-07-25T13:47:21Z</time>
      </trkpt>
      <trkpt lat="41.324950" lon="-3.466317">
        <ele>2291.0</ele>
        <time>2016-07-25T13:47:23Z</time>
      </trkpt>
      <trkpt lat="41.325100" lon="-3.466217">
        <ele>2286.0</ele>
        <time>2016-07-25T13:47:25Z</time>
      </trkpt>
      <trkpt lat="41.325283" lon="-3.466100">
        <ele>2280.0</ele>
        <time>2016-07-25T13:47:27Z</time>
      </trkpt>
      <trkpt lat="41.325450" lon="-3.466017">
        <ele>2276.0</ele>
        <time>2016-07-25T13:47:29Z</time>
      </trkpt>
      <trkpt lat="41.325633" lon="-3.465967">
        <ele>2271.0</ele>
        <time>2016-07-25T13:47:31Z</time>
      </trkpt>
      <trkpt lat="41.325817" lon="-3.465900">
        <ele>2267.0</ele>
        <time>2016-07-25T13:47:33Z</time>
      </trkpt>
      <trkpt lat="41.325983" lon="-3.465750">
        <ele>2266.0</ele>
        <time>2016-07-25T13:47:35Z</time>
      </trkpt>
      <trkpt lat="41.326150" lon="-3.465633">
        <ele>2267.0</ele>
        <time>2016-07-25T13:47:37Z</time>
      </trkpt>
      <trkpt lat="41.326267" lon="-3.465517">
        <ele>2267.0</ele>
        <time>2016-07-25T13:47:39Z</time>
      </trkpt>
      <trkpt lat="41.326367" lon="-3.465367">
        <ele>2262.0</ele>
        <time>2016-07-25T13:47:41Z</time>
      </trkpt>
      <trkpt lat="41.326500" lon="-3.465200">
        <ele>2256.0</ele>
        <time>2016-07-25T13:47:43Z</time>
      </trkpt>
      <trkpt lat="41.326667" lon="-3.465067">
        <ele>2251.0</ele>
        <time>2016-07-25T13:47:45Z</time>
      </trkpt>
      <trkpt lat="41.326817" lon="-3.464950">
        <ele>2248.0</ele>
        <time>2016-07-25T13:47:47Z</time>
      </trkpt>
      <trkpt lat="41.326950" lon="-3.464833">
        <ele>2245.0</ele>
        <time>2016-07-25T13:47:49Z</time>
      </trkpt>
      <trkpt lat="41.327083" lon="-3.464700">
        <ele>2240.0</ele>
        <time>2016-07-25T13:47:51Z</time>
      </trkpt>
      <trkpt lat="41.327267" lon="-3.464583">
        <ele>2236.0</ele>
        <time>2016-07-25T13:47:53Z</time>
      </trkpt>
      <trkpt lat="41.327417" lon="-3.464500">
        <ele>2237.0</ele>
        <time>2016-07-25T13:47:55Z</time>
      </trkpt>
      <trkpt lat="41.327533" lon="-3.464417">
        <ele>2235.0</ele>
        <time>2016-07-25T13:47:57Z</time>
      </trkpt>
      <trkpt lat="41.327650" lon="-3.464300">
        <ele>2227.0</ele>
        <time>2016-07-25T13:47:59Z</time>
      </trkpt>
      <trkpt lat="41.327800" lon="-3.464183">
        <ele>2221.0</ele>
        <time>2016-07-25T13:48:01Z</time>
      </trkpt>
      <trkpt lat="41.327950" lon="-3.464050">
        <ele>2217.0</ele>
        <time>2016-07-25T13:48:03Z</time>
      </trkpt>
      <trkpt lat="41.328067" lon="-3.463917">
        <ele>2213.0</ele>
        <time>2016-07-25T13:48:05Z</time>
      </trkpt>
      <trkpt lat="41.328200" lon="-3.463767">
        <ele>2207.0</ele>
        <time>2016-07-25T13:48:07Z</time>
      </trkpt>
      <trkpt lat="41.328350" lon="-3.463633">
        <ele>2203.0</ele>
        <time>2016-07-25T13:48:09Z</time>
      </trkpt>
      <trkpt lat="41.328467" lon="-3.463517">
        <ele>2199.0</ele>
        <time>2016-07-25T13:48:11Z</time>
      </trkpt>
      <trkpt lat="41.328583" lon="-3.463417">
        <ele>2193.0</ele>
        <time>2016-07-25T13:48:13Z</time>
      </trkpt>
      <trkpt lat="41.328767" lon="-3.463350">
        <ele>2186.0</ele>
        <time>2016-07-25T13:48:15Z</time>
      </trkpt>
      <trkpt lat="41.328950" lon="-3.463233">
        <ele>2186.0</ele>
        <time>2016-07-25T13:48:17Z</time>
      </trkpt>
      <trkpt lat="41.329067" lon="-3.463133">
        <ele>2186.0</ele>
        <time>2016-07-25T13:48:19Z</time>
      </trkpt>
      <trkpt lat="41.329217" lon="-3.463050">
        <ele>2180.0</ele>
        <time>2016-07-25T13:48:21Z</time>
      </trkpt>
      <trkpt lat="41.329400" lon="-3.462933">
        <ele>2175.0</ele>
        <time>2016-07-25T13:48:23Z</time>
      </trkpt>
      <trkpt lat="41.329533" lon="-3.462850">
        <ele>2174.0</ele>
        <time>2016-07-25T13:48:25Z</time>
      </trkpt>
      <trkpt lat="41.329683" lon="-3.462767">
        <ele>2171.0</ele>
        <time>2016-07-25T13:48:27Z</time>
      </trkpt>
      <trkpt lat="41.329833" lon="-3.462667">
        <ele>2167.0</ele>
        <time>2016-07-25T13:48:29Z</time>
      </trkpt>
      <trkpt lat="41.329967" lon="-3.462617">
        <ele>2168.0</ele>
        <time>2016-07-25T13:48:31Z</time>
      </trkpt>
      <trkpt lat="41.330050" lon="-3.462550">
        <ele>2165.0</ele>
        <time>2016-07-25T13:48:33Z</time>
      </trkpt>
      <trkpt lat="41.330167" lon="-3.462433">
        <ele>2160.0</ele>
        <time>2016-07-25T13:48:35Z</time>
      </trkpt>
      <trkpt lat="41.330300" lon="-3.462350">
        <ele>2160.0</ele>
        <time>2016-07-25T13:48:37Z</time>
      </trkpt>
      <trkpt lat="41.330400" lon="-3.462250">
        <ele>2158.0</ele>
        <time>2016-07-25T13:48:39Z</time>
      </trkpt>
      <trkpt lat="41.330533" lon="-3.462150">
        <ele>2156.0</ele>
        <time>2016-07-25T13:48:41Z</time>
      </trkpt>
      <trkpt lat="41.330667" lon="-3.462083">
        <ele>2156.0</ele>
        <time>2016-07-25T13:48:43Z</time>
      </trkpt>
      <trkpt lat="41.330783" lon="-3.462067">
        <ele>2155.0</ele>
        <time>2016-07-25T13:48:45Z</time>
      </trkpt>
      <trkpt lat="41.330917" lon="-3.462033">
        <ele>2153.0</ele>
        <time>2016-07-25T13:48:47Z</time>
      </trkpt>
      <trkpt lat="41.331067" lon="-3.461967">
        <ele>2152.0</ele>
        <time>2016-07-25T13:48:49Z</time>
      </trkpt>
      <trkpt lat="41.331217" lon="-3.461850">
        <ele>2154.0</ele>
        <time>2016-07-25T13:48:51Z</time>
      </trkpt>
      <trkpt lat="41.331350" lon="-3.461700">
        <ele>2155.0</ele>
        <time>2016-07-25T13:48:53Z</time>
      </trkpt>
      <trkpt lat="41.331483" lon="-3.461567">
        <ele>2155.0</ele>
        <time>2016-07-25T13:48:55Z</time>
      </trkpt>
      <trkpt lat="41.331617" lon="-3.461417">
        <ele>2157.0</ele>
        <time>2016-07-25T13:48:57Z</time>
      </trkpt>
      <trkpt lat="41.331700" lon="-3.461200">
        <ele>2158.0</ele>
        <time>2016-07-25T13:48:59Z</time>
      </trkpt>
      <trkpt lat="41.331783" lon="-3.460950">
        <ele>2158.0</ele>
        <time>2016-07-25T13:49:01Z</time>
      </trkpt>
      <trkpt lat="41.331850" lon="-3.460683">
        <ele>2159.0</ele>
        <time>2016-07-25T13:49:03Z</time>
      </trkpt>
      <trkpt lat="41.331817" lon="-3.460383">
        <ele>2161.0</ele>
        <time>2016-07-25T13:49:05Z</time>
      </trkpt>
      <trkpt lat="41.331750" lon="-3.460117">
        <ele>2162.0</ele>
        <time>2016-07-25T13:49:07Z</time>
      </trkpt>
      <trkpt lat="41.331667" lon="-3.459817">
        <ele>2163.0</ele>
        <time>2016-07-25T13:49:09Z</time>
      </trkpt>
      <trkpt lat="41.331550" lon="-3.459500">
        <ele>2164.0</ele>
        <time>2016-07-25T13:49:11Z</time>
      </trkpt>
      <trkpt lat="41.331450" lon="-3.459200">
        <ele>2170.0</ele>
        <time>2016-07-25T13:49:13Z</time>
      </trkpt>
      <trkpt lat="41.331350" lon="-3.458950">
        <ele>2176.0</ele>
        <time>2016-07-25T13:49:15Z</time>
      </trkpt>
      <trkpt lat="41.331333" lon="-3.458700">
        <ele>2176.0</ele>
        <time>2016-07-25T13:49:17Z</time>
      </trkpt>
      <trkpt lat="41.331433" lon="-3.458433">
        <ele>2177.0</ele>
        <time>2016-07-25T13:49:19Z</time>
      </trkpt>
      <trkpt lat="41.331583" lon="-3.458333">
        <ele>2181.0</ele>
        <time>2016-07-25T13:49:21Z</time>
      </trkpt>
      <trkpt lat="41.331717" lon="-3.458333">
        <ele>2186.0</ele>
        <time>2016-07-25T13:49:23Z</time>
      </trkpt>
      <trkpt lat="41.331817" lon="-3.458383">
        <ele>2190.0</ele>
        <time>2016-07-25T13:49:25Z</time>
      </trkpt>
      <trkpt lat="41.331867" lon="-3.458483">
        <ele>2192.0</ele>
        <time>2016-07-25T13:49:27Z</time>
      </trkpt>
      <trkpt lat="41.331833" lon="-3.458633">
        <ele>2194.0</ele>
        <time>2016-07-25T13:49:29Z</time>
      </trkpt>
      <trkpt lat="41.331700" lon="-3.458767">
        <ele>2196.0</ele>
        <time>2016-07-25T13:49:31Z</time>
      </trkpt>
      <trkpt lat="41.331500" lon="-3.458800">
        <ele>2196.0</ele>
        <time>2016-07-25T13:49:33Z</time>
      </trkpt>
      <trkpt lat="41.331283" lon="-3.458700">
        <ele>2198.0</ele>
        <time>2016-07-25T13:49:35Z</time>
      </trkpt>
      <trkpt lat="41.331117" lon="-3.458483">
        <ele>2201.0</ele>
        <time>2016-07-25T13:49:37Z</time>
      </trkpt>
      <trkpt lat="41.331000" lon="-3.458267">
        <ele>2204.0</ele>
        <time>2016-07-25T13:49:39Z</time>
      </trkpt>
      <trkpt lat="41.330933" lon="-3.458033">
        <ele>2206.0</ele>
        <time>2016-07-25T13:49:41Z</time>
      </trkpt>
      <trkpt lat="41.330950" lon="-3.457767">
        <ele>2204.0</ele>
        <time>2016-07-25T13:49:43Z</time>
      </trkpt>
      <trkpt lat="41.331017" lon="-3.457533">
        <ele>2205.0</ele>
        <time>2016-07-25T13:49:45Z</time>
      </trkpt>
      <trkpt lat="41.331150" lon="-3.457383">
        <ele>2205.0</ele>
        <time>2016-07-25T13:49:47Z</time>
      </trkpt>
      <trkpt lat="41.331283" lon="-3.457250">
        <ele>2207.0</ele>
        <time>2016-07-25T13:49:49Z</time>
      </trkpt>
      <trkpt lat="41.331417" lon="-3.457133">
        <ele>2207.0</ele>
        <time>2016-07-25T13:49:51Z</time>
      </trkpt>
      <trkpt lat="41.331583" lon="-3.457100">
        <ele>2207.0</ele>
        <time>2016-07-25T13:49:53Z</time>
      </trkpt>
      <trkpt lat="41.331750" lon="-3.457050">
        <ele>2213.0</ele>
        <time>2016-07-25T13:49:55Z</time>
      </trkpt>
      <trkpt lat="41.331883" lon="-3.457000">
        <ele>2220.0</ele>
        <time>2016-07-25T13:49:57Z</time>
      </trkpt>
      <trkpt lat="41.332017" lon="-3.457033">
        <ele>2225.0</ele>
        <time>2016-07-25T13:49:59Z</time>
      </trkpt>
      <trkpt lat="41.332100" lon="-3.457167">
        <ele>2232.0</ele>
        <time>2016-07-25T13:50:01Z</time>
      </trkpt>
      <trkpt lat="41.332133" lon="-3.457333">
        <ele>2238.0</ele>
        <time>2016-07-25T13:50:03Z</time>
      </trkpt>
      <trkpt lat="41.332117" lon="-3.457517">
        <ele>2243.0</ele>
        <time>2016-07-25T13:50:05Z</time>
      </trkpt>
      <trkpt lat="41.332183" lon="-3.457667">
        <ele>2246.0</ele>
        <time>2016-07-25T13:50:07Z</time>
      </trkpt>
      <trkpt lat="41.332317" lon="-3.457683">
        <ele>2248.0</ele>
        <time>2016-07-25T13:50:09Z</time>
      </trkpt>
      <trkpt lat="41.332433" lon="-3.457517">
        <ele>2248.0</ele>
        <time>2016-07-25T13:50:11Z</time>
      </trkpt>
      <trkpt lat="41.332500" lon="-3.457233">
        <ele>2251.0</ele>
        <time>2016-07-25T13:50:13Z</time>
      </trkpt>
      <trkpt lat="41.332583" lon="-3.456950">
        <ele>2257.0</ele>
        <time>2016-07-25T13:50:15Z</time>
      </trkpt>
      <trkpt lat="41.332683" lon="-3.456717">
        <ele>2261.0</ele>
        <time>2016-07-25T13:50:17Z</time>
      </trkpt>
      <trkpt lat="41.332800" lon="-3.456550">
        <ele>2266.0</ele>
        <time>2016-07-25T13:50:19Z</time>
      </trkpt>
      <trkpt lat="41.332933" lon="-3.456517">
        <ele>2270.0</ele>
        <time>2016-07-25T13:50:21Z</time>
      </trkpt>
      <trkpt lat="41.333033" lon="-3.456617">
        <ele>2278.0</ele>
        <time>2016-07-25T13:50:23Z</time>
      </trkpt>
      <trkpt lat="41.333033" lon="-3.456750">
        <ele>2286.0</ele>
        <time>2016-07-25T13:50:25Z</time>
      </trkpt>
      <trkpt lat="41.332933" lon="-3.456883">
        <ele>2291.0</ele>
        <time>2016-07-25T13:50:27Z</time>
      </trkpt>
      <trkpt lat="41.332733" lon="-3.456950">
        <ele>2295.0</ele>
        <time>2016-07-25T13:50:29Z</time>
      </trkpt>
      <trkpt lat="41.332533" lon="-3.456800">
        <ele>2300.0</ele>
        <time>2016-07-25T13:50:31Z</time>
      </trkpt>
      <trkpt lat="41.332383" lon="-3.456533">
        <ele>2304.0</ele>
        <time>2016-07-25T13:50:33Z</time>
      </trkpt>
      <trkpt lat="41.332333" lon="-3.456217">
        <ele>2308.0</ele>
        <time>2016-07-25T13:50:35Z</time>
      </trkpt>
      <trkpt lat="41.332400" lon="-3.455933">
        <ele>2314.0</ele>
        <time>2016-07-25T13:50:37Z</time>
      </trkpt>
      <trkpt lat="41.332550" lon="-3.455767">
        <ele>2320.0</ele>
        <time>2016-07-25T13:50:39Z</time>
      </trkpt>
      <trkpt lat="41.332667" lon="-3.455750">
        <ele>2326.0</ele>
        <time>2016-07-25T13:50:41Z</time>
      </trkpt>
      <trkpt lat="41.332750" lon="-3.455850">
        <ele>2332.0</ele>
        <time>2016-07-25T13:50:43Z</time>
      </trkpt>
      <trkpt lat="41.332767" lon="-3.456000">
        <ele>2341.0</ele>
        <time>2016-07-25T13:50:45Z</time>
      </trkpt>
      <trkpt lat="41.332717" lon="-3.456117">
        <ele>2347.0</ele>
        <time>2016-07-25T13:50:47Z</time>
      </trkpt>
      <trkpt lat="41.332567" lon="-3.456217">
        <ele>2352.0</ele>
        <time>2016-07-25T13:50:49Z</time>
      </trkpt>
      <trkpt lat="41.332350" lon="-3.456200">
        <ele>2356.0</ele>
        <time>2016-07-25T13:50:51Z</time>
      </trkpt>
      <trkpt lat="41.332167" lon="-3.456000">
        <ele>2360.0</ele>
        <time>2016-07-25T13:50:53Z</time>
      </trkpt>
      <trkpt lat="41.332033" lon="-3.455733">
        <ele>2362.0</ele>
        <time>2016-07-25T13:50:55Z</time>
      </trkpt>
      <trkpt lat="41.331983" lon="-3.455400">
        <ele>2364.0</ele>
        <time>2016-07-25T13:50:57Z</time>
      </trkpt>
      <trkpt lat="41.332067" lon="-3.455100">
        <ele>2368.0</ele>
        <time>2016-07-25T13:50:59Z</time>
      </trkpt>
      <trkpt lat="41.332183" lon="-3.454900">
        <ele>2376.0</ele>
        <time>2016-07-25T13:51:01Z</time>
      </trkpt>
      <trkpt lat="41.332283" lon="-3.454783">
        <ele>2382.0</ele>
        <time>2016-07-25T13:51:03Z</time>
      </trkpt>
      <trkpt lat="41.332417" lon="-3.454750">
        <ele>2386.0</ele>
        <time>2016-07-25T13:51:05Z</time>
      </trkpt>
      <trkpt lat="41.332517" lon="-3.454817">
        <ele>2392.0</ele>
        <time>2016-07-25T13:51:07Z</time>
      </trkpt>
      <trkpt lat="41.332550" lon="-3.454950">
        <ele>2398.0</ele>
        <time>2016-07-25T13:51:09Z</time>
      </trkpt>
      <trkpt lat="41.332533" lon="-3.455133">
        <ele>2403.0</ele>
        <time>2016-07-25T13:51:11Z</time>
      </trkpt>
      <trkpt lat="41.332417" lon="-3.455300">
        <ele>2410.0</ele>
        <time>2016-07-25T13:51:13Z</time>
      </trkpt>
      <trkpt lat="41.332233" lon="-3.455367">
        <ele>2414.0</ele>
        <time>2016-07-25T13:51:15Z</time>
      </trkpt>
      <trkpt lat="41.332000" lon="-3.455283">
        <ele>2415.0</ele>
        <time>2016-07-25T13:51:17Z</time>
      </trkpt>
      <trkpt lat="41.331800" lon="-3.455117">
        <ele>2420.0</ele>
        <time>2016-07-25T13:51:19Z</time>
      </trkpt>
      <trkpt lat="41.331667" lon="-3.454867">
        <ele>2421.0</ele>
        <time>2016-07-25T13:51:21Z</time>
      </trkpt>
      <trkpt lat="41.331600" lon="-3.454517">
        <ele>2421.0</ele>
        <time>2016-07-25T13:51:23Z</time>
      </trkpt>
      <trkpt lat="41.331650" lon="-3.454183">
        <ele>2423.0</ele>
        <time>2016-07-25T13:51:25Z</time>
      </trkpt>
      <trkpt lat="41.331750" lon="-3.453917">
        <ele>2428.0</ele>
        <time>2016-07-25T13:51:27Z</time>
      </trkpt>
      <trkpt lat="41.331833" lon="-3.453667">
        <ele>2433.0</ele>
        <time>2016-07-25T13:51:29Z</time>
      </trkpt>
      <trkpt lat="41.331967" lon="-3.453467">
        <ele>2440.0</ele>
        <time>2016-07-25T13:51:31Z</time>
      </trkpt>
      <trkpt lat="41.332117" lon="-3.453383">
        <ele>2449.0</ele>
        <time>2016-07-25T13:51:33Z</time>
      </trkpt>
      <trkpt lat="41.332267" lon="-3.453383">
        <ele>2461.0</ele>
        <time>2016-07-25T13:51:35Z</time>
      </trkpt>
      <trkpt lat="41.332350" lon="-3.453483">
        <ele>2471.0</ele>
        <time>2016-07-25T13:51:37Z</time>
      </trkpt>
      <trkpt lat="41.332367" lon="-3.453617">
        <ele>2478.0</ele>
        <time>2016-07-25T13:51:39Z</time>
      </trkpt>
      <trkpt lat="41.332283" lon="-3.453767">
        <ele>2484.0</ele>
        <time>2016-07-25T13:51:41Z</time>
      </trkpt>
      <trkpt lat="41.332117" lon="-3.453867">
        <ele>2490.0</ele>
        <time>2016-07-25T13:51:43Z</time>
      </trkpt>
      <trkpt lat="41.331883" lon="-3.453900">
        <ele>2497.0</ele>
        <time>2016-07-25T13:51:45Z</time>
      </trkpt>
      <trkpt lat="41.331667" lon="-3.453783">
        <ele>2505.0</ele>
        <time>2016-07-25T13:51:47Z</time>
      </trkpt>
      <trkpt lat="41.331500" lon="-3.453550">
        <ele>2510.0</ele>
        <time>2016-07-25T13:51:49Z</time>
      </trkpt>
      <trkpt lat="41.331417" lon="-3.453233">
        <ele>2514.0</ele>
        <time>2016-07-25T13:51:51Z</time>
      </trkpt>
      <trkpt lat="41.331433" lon="-3.452917">
        <ele>2518.0</ele>
        <time>2016-07-25T13:51:53Z</time>
      </trkpt>
      <trkpt lat="41.331500" lon="-3.452617">
        <ele>2524.0</ele>
        <time>2016-07-25T13:51:55Z</time>
      </trkpt>
      <trkpt lat="41.331583" lon="-3.452350">
        <ele>2531.0</ele>
        <time>2016-07-25T13:51:57Z</time>
      </trkpt>
      <trkpt lat="41.331733" lon="-3.452133">
        <ele>2540.0</ele>
        <time>2016-07-25T13:51:59Z</time>
      </trkpt>
      <trkpt lat="41.331900" lon="-3.452033">
        <ele>2551.0</ele>
        <time>2016-07-25T13:52:01Z</time>
      </trkpt>
      <trkpt lat="41.332033" lon="-3.452000">
        <ele>2559.0</ele>
        <time>2016-07-25T13:52:03Z</time>
      </trkpt>
      <trkpt lat="41.332133" lon="-3.452050">
        <ele>2562.0</ele>
        <time>2016-07-25T13:52:05Z</time>
      </trkpt>
      <trkpt lat="41.332150" lon="-3.452233">
        <ele>2562.0</ele>
        <time>2016-07-25T13:52:07Z</time>
      </trkpt>
      <trkpt lat="41.332083" lon="-3.452417">
        <ele>2569.0</ele>
        <time>2016-07-25T13:52:09Z</time>
      </trkpt>
      <trkpt lat="41.331933" lon="-3.452500">
        <ele>2577.0</ele>
        <time>2016-07-25T13:52:11Z</time>
      </trkpt>
      <trkpt lat="41.331750" lon="-3.452533">
        <ele>2582.0</ele>
        <time>2016-07-25T13:52:13Z</time>
      </trkpt>
      <trkpt lat="41.331517" lon="-3.452467">
        <ele>2590.0</ele>
        <time>2016-07-25T13:52:15Z</time>
      </trkpt>
      <trkpt lat="41.331367" lon="-3.452250">
        <ele>2600.0</ele>
        <time>2016-07-25T13:52:17Z</time>
      </trkpt>
      <trkpt lat="41.331300" lon="-3.451967">
        <ele>2606.0</ele>
        <time>2016-07-25T13:52:19Z</time>
      </trkpt>
      <trkpt lat="41.331283" lon="-3.451667">
        <ele>2611.0</ele>
        <time>2016-07-25T13:52:21Z</time>
      </trkpt>
      <trkpt lat="41.331333" lon="-3.451367">
        <ele>2617.0</ele>
        <time>2016-07-25T13:52:23Z</time>
      </trkpt>
      <trkpt lat="41.331433" lon="-3.451100">
        <ele>2626.0</ele>
        <time>2016-07-25T13:52:25Z</time>
      </trkpt>
      <trkpt lat="41.331567" lon="-3.450900">
        <ele>2635.0</ele>
        <time>2016-07-25T13:52:27Z</time>
      </trkpt>
      <trkpt lat="41.331717" lon="-3.450817">
        <ele>2641.0</ele>
        <time>2016-07-25T13:52:29Z</time>
      </trkpt>
      <trkpt lat="41.331883" lon="-3.450850">
        <ele>2646.0</ele>
        <time>2016-07-25T13:52:31Z</time>
      </trkpt>
      <trkpt lat="41.332000" lon="-3.450967">
        <ele>2653.0</ele>
        <time>2016-07-25T13:52:33Z</time>
      </trkpt>
      <trkpt lat="41.332033" lon="-3.451100">
        <ele>2657.0</ele>
        <time>2016-07-25T13:52:35Z</time>
      </trkpt>
      <trkpt lat="41.331967" lon="-3.451233">
        <ele>2660.0</ele>
        <time>2016-07-25T13:52:37Z</time>
      </trkpt>
      <trkpt lat="41.331833" lon="-3.451367">
        <ele>2663.0</ele>
        <time>2016-07-25T13:52:39Z</time>
      </trkpt>
      <trkpt lat="41.331633" lon="-3.451400">
        <ele>2669.0</ele>
        <time>2016-07-25T13:52:41Z</time>
      </trkpt>
      <trkpt lat="41.331433" lon="-3.451283">
        <ele>2675.0</ele>
        <time>2016-07-25T13:52:43Z</time>
      </trkpt>
      <trkpt lat="41.331300" lon="-3.451050">
        <ele>2680.0</ele>
        <time>2016-07-25T13:52:45Z</time>
      </trkpt>
      <trkpt lat="41.331317" lon="-3.450767">
        <ele>2685.0</ele>
        <time>2016-07-25T13:52:47Z</time>
      </trkpt>
      <trkpt lat="41.331383" lon="-3.450517">
        <ele>2692.0</ele>
        <time>2016-07-25T13:52:49Z</time>
      </trkpt>
      <trkpt lat="41.331500" lon="-3.450317">
        <ele>2699.0</ele>
        <time>2016-07-25T13:52:51Z</time>
      </trkpt>
      <trkpt lat="41.331633" lon="-3.450133">
        <ele>2705.0</ele>
        <time>2016-07-25T13:52:53Z</time>
      </trkpt>
      <trkpt lat="41.331800" lon="-3.450000">
        <ele>2712.0</ele>
        <time>2016-07-25T13:52:55Z</time>
      </trkpt>
      <trkpt lat="41.331950" lon="-3.449833">
        <ele>2718.0</ele>
        <time>2016-07-25T13:52:57Z</time>
      </trkpt>
      <trkpt lat="41.332100" lon="-3.449683">
        <ele>2721.0</ele>
        <time>2016-07-25T13:52:59Z</time>
      </trkpt>
      <trkpt lat="41.332250" lon="-3.449550">
        <ele>2722.0</ele>
        <time>2016-07-25T13:53:01Z</time>
      </trkpt>
      <trkpt lat="41.332450" lon="-3.449383">
        <ele>2726.0</ele>
        <time>2016-07-25T13:53:03Z</time>
      </trkpt>
      <trkpt lat="41.332617" lon="-3.449250">
        <ele>2733.0</ele>
        <time>2016-07-25T13:53:05Z</time>
      </trkpt>
      <trkpt lat="41.332767" lon="-3.449183">
        <ele>2737.0</ele>
        <time>2016-07-25T13:53:07Z</time>
      </trkpt>
      <trkpt lat="41.332967" lon="-3.449133">
        <ele>2740.0</ele>
        <time>2016-07-25T13:53:09Z</time>
      </trkpt>
      <trkpt lat="41.333167" lon="-3.449067">
        <ele>2745.0</ele>
        <time>2016-07-25T13:53:11Z</time>
      </trkpt>
      <trkpt lat="41.333350" lon="-3.449000">
        <ele>2748.0</ele>
        <time>2016-07-25T13:53:13Z</time>
      </trkpt>
      <trkpt lat="41.333550" lon="-3.448867">
        <ele>2749.0</ele>
        <time>2016-07-25T13:53:15Z</time>
      </trkpt>
      <trkpt lat="41.333783" lon="-3.448767">
        <ele>2752.0</ele>
        <time>2016-07-25T13:53:17Z</time>
      </trkpt>
      <trkpt lat="41.333983" lon="-3.448667">
        <ele>2755.0</ele>
        <time>2016-07-25T13:53:19Z</time>
      </trkpt>
      <trkpt lat="41.334183" lon="-3.448583">
        <ele>2760.0</ele>
        <time>2016-07-25T13:53:21Z</time>
      </trkpt>
      <trkpt lat="41.334383" lon="-3.448533">
        <ele>2760.0</ele>
        <time>2016-07-25T13:53:23Z</time>
      </trkpt>
      <trkpt lat="41.334617" lon="-3.448467">
        <ele>2758.0</ele>
        <time>2016-07-25T13:53:25Z</time>
      </trkpt>
      <trkpt lat="41.334817" lon="-3.448400">
        <ele>2756.0</ele>
        <time>2016-07-25T13:53:27Z</time>
      </trkpt>
      <trkpt lat="41.335017" lon="-3.448350">
        <ele>2749.0</ele>
        <time>2016-07-25T13:53:29Z</time>
      </trkpt>
      <trkpt lat="41.335233" lon="-3.448283">
        <ele>2743.0</ele>
        <time>2016-07-25T13:53:31Z</time>
      </trkpt>
      <trkpt lat="41.335400" lon="-3.448200">
        <ele>2741.0</ele>
        <time>2016-07-25T13:53:33Z</time>
      </trkpt>
      <trkpt lat="41.335583" lon="-3.448133">
        <ele>2736.0</ele>
        <time>2016-07-25T13:53:35Z</time>
      </trkpt>
      <trkpt lat="41.335800" lon="-3.448033">
        <ele>2734.0</ele>
        <time>2016-07-25T13:53:37Z</time>
      </trkpt>
      <trkpt lat="41.335983" lon="-3.447933">
        <ele>2734.0</ele>
        <time>2016-07-25T13:53:39Z</time>
      </trkpt>
      <trkpt lat="41.336150" lon="-3.447883">
        <ele>2735.0</ele>
        <time>2016-07-25T13:53:41Z</time>
      </trkpt>
      <trkpt lat="41.336317" lon="-3.447833">
        <ele>2734.0</ele>
        <time>2016-07-25T13:53:43Z</time>
      </trkpt>
      <trkpt lat="41.336500" lon="-3.447750">
        <ele>2729.0</ele>
        <time>2016-07-25T13:53:45Z</time>
      </trkpt>
      <trkpt lat="41.336717" lon="-3.447683">
        <ele>2726.0</ele>
        <time>2016-07-25T13:53:47Z</time>
      </trkpt>
      <trkpt lat="41.336933" lon="-3.447600">
        <ele>2726.0</ele>
        <time>2016-07-25T13:53:49Z</time>
      </trkpt>
      <trkpt lat="41.337100" lon="-3.447533">
        <ele>2725.0</ele>
        <time>2016-07-25T13:53:51Z</time>
      </trkpt>
      <trkpt lat="41.337250" lon="-3.447450">
        <ele>2720.0</ele>
        <time>2016-07-25T13:53:53Z</time>
      </trkpt>
      <trkpt lat="41.337450" lon="-3.447383">
        <ele>2713.0</ele>
        <time>2016-07-25T13:53:55Z</time>
      </trkpt>
      <trkpt lat="41.337633" lon="-3.447350">
        <ele>2710.0</ele>
        <time>2016-07-25T13:53:57Z</time>
      </trkpt>
      <trkpt lat="41.337783" lon="-3.447267">
        <ele>2707.0</ele>
        <time>2016-07-25T13:53:59Z</time>
      </trkpt>
      <trkpt lat="41.337967" lon="-3.447167">
        <ele>2701.0</ele>
        <time>2016-07-25T13:54:01Z</time>
      </trkpt>
      <trkpt lat="41.338133" lon="-3.447083">
        <ele>2697.0</ele>
        <time>2016-07-25T13:54:03Z</time>
      </trkpt>
      <trkpt lat="41.338283" lon="-3.447017">
        <ele>2689.0</ele>
        <time>2016-07-25T13:54:05Z</time>
      </trkpt>
      <trkpt lat="41.338450" lon="-3.446933">
        <ele>2679.0</ele>
        <time>2016-07-25T13:54:07Z</time>
      </trkpt>
      <trkpt lat="41.338667" lon="-3.446850">
        <ele>2672.0</ele>
        <time>2016-07-25T13:54:09Z</time>
      </trkpt>
      <trkpt lat="41.338833" lon="-3.446767">
        <ele>2669.0</ele>
        <time>2016-07-25T13:54:11Z</time>
      </trkpt>
      <trkpt lat="41.338983" lon="-3.446700">
        <ele>2662.0</ele>
        <time>2016-07-25T13:54:13Z</time>
      </trkpt>
      <trkpt lat="41.339167" lon="-3.446633">
        <ele>2653.0</ele>
        <time>2016-07-25T13:54:15Z</time>
      </trkpt>
      <trkpt lat="41.339333" lon="-3.446533">
        <ele>2647.0</ele>
        <time>2016-07-25T13:54:17Z</time>
      </trkpt>
      <trkpt lat="41.339517" lon="-3.446450">
        <ele>2641.0</ele>
        <time>2016-07-25T13:54:19Z</time>
      </trkpt>
      <trkpt lat="41.339683" lon="-3.446367">
        <ele>2637.0</ele>
        <time>2016-07-25T13:54:21Z</time>
      </trkpt>
      <trkpt lat="41.339850" lon="-3.446283">
        <ele>2634.0</ele>
        <time>2016-07-25T13:54:23Z</time>
      </trkpt>
      <trkpt lat="41.340000" lon="-3.446200">
        <ele>2630.0</ele>
        <time>2016-07-25T13:54:25Z</time>
      </trkpt>
      <trkpt lat="41.340167" lon="-3.446150">
        <ele>2624.0</ele>
        <time>2016-07-25T13:54:27Z</time>
      </trkpt>
      <trkpt lat="41.340333" lon="-3.446117">
        <ele>2619.0</ele>
        <time>2016-07-25T13:54:29Z</time>
      </trkpt>
      <trkpt lat="41.340500" lon="-3.446067">
        <ele>2615.0</ele>
        <time>2016-07-25T13:54:31Z</time>
      </trkpt>
      <trkpt lat="41.340667" lon="-3.446033">
        <ele>2610.0</ele>
        <time>2016-07-25T13:54:33Z</time>
      </trkpt>
      <trkpt lat="41.340817" lon="-3.446017">
        <ele>2604.0</ele>
        <time>2016-07-25T13:54:35Z</time>
      </trkpt>
      <trkpt lat="41.340983" lon="-3.445967">
        <ele>2598.0</ele>
        <time>2016-07-25T13:54:37Z</time>
      </trkpt>
      <trkpt lat="41.341150" lon="-3.445900">
        <ele>2593.0</ele>
        <time>2016-07-25T13:54:39Z</time>
      </trkpt>
      <trkpt lat="41.341317" lon="-3.445833">
        <ele>2590.0</ele>
        <time>2016-07-25T13:54:41Z</time>
      </trkpt>
      <trkpt lat="41.341483" lon="-3.445750">
        <ele>2585.0</ele>
        <time>2016-07-25T13:54:43Z</time>
      </trkpt>
      <trkpt lat="41.341633" lon="-3.445650">
        <ele>2581.0</ele>
        <time>2016-07-25T13:54:45Z</time>
      </trkpt>
      <trkpt lat="41.341817" lon="-3.445567">
        <ele>2576.0</ele>
        <time>2016-07-25T13:54:47Z</time>
      </trkpt>
      <trkpt lat="41.341983" lon="-3.445500">
        <ele>2572.0</ele>
        <time>2016-07-25T13:54:49Z</time>
      </trkpt>
      <trkpt lat="41.342133" lon="-3.445433">
        <ele>2569.0</ele>
        <time>2016-07-25T13:54:51Z</time>
      </trkpt>
      <trkpt lat="41.342283" lon="-3.445333">
        <ele>2563.0</ele>
        <time>2016-07-25T13:54:53Z</time>
      </trkpt>
      <trkpt lat="41.342450" lon="-3.445267">
        <ele>2558.0</ele>
        <time>2016-07-25T13:54:55Z</time>
      </trkpt>
      <trkpt lat="41.342617" lon="-3.445167">
        <ele>2553.0</ele>
        <time>2016-07-25T13:54:57Z</time>
      </trkpt>
      <trkpt lat="41.342767" lon="-3.445083">
        <ele>2548.0</ele>
        <time>2016-07-25T13:54:59Z</time>
      </trkpt>
      <trkpt lat="41.342917" lon="-3.445000">
        <ele>2542.0</ele>
        <time>2016-07-25T13:55:01Z</time>
      </trkpt>
      <trkpt lat="41.343083" lon="-3.444967">
        <ele>2537.0</ele>
        <time>2016-07-25T13:55:03Z</time>
      </trkpt>
      <trkpt lat="41.343233" lon="-3.444933">
        <ele>2531.0</ele>
        <time>2016-07-25T13:55:05Z</time>
      </trkpt>
      <trkpt lat="41.343400" lon="-3.444883">
        <ele>2525.0</ele>
        <time>2016-07-25T13:55:07Z</time>
      </trkpt>
      <trkpt lat="41.343567" lon="-3.444833">
        <ele>2520.0</ele>
        <time>2016-07-25T13:55:09Z</time>
      </trkpt>
      <trkpt lat="41.343717" lon="-3.444800">
        <ele>2515.0</ele>
        <time>2016-07-25T13:55:11Z</time>
      </trkpt>
      <trkpt lat="41.343850" lon="-3.444733">
        <ele>2508.0</ele>
        <time>2016-07-25T13:55:13Z</time>
      </trkpt>
      <trkpt lat="41.344000" lon="-3.444683">
        <ele>2501.0</ele>
        <time>2016-07-25T13:55:15Z</time>
      </trkpt>
      <trkpt lat="41.344150" lon="-3.444617">
        <ele>2496.0</ele>
        <time>2016-07-25T13:55:17Z</time>
      </trkpt>
      <trkpt lat="41.344283" lon="-3.444533">
        <ele>2491.0</ele>
        <time>2016-07-25T13:55:19Z</time>
      </trkpt>
      <trkpt lat="41.344417" lon="-3.444450">
        <ele>2486.0</ele>
        <time>2016-07-25T13:55:21Z</time>
      </trkpt>
      <trkpt lat="41.344533" lon="-3.444350">
        <ele>2481.0</ele>
        <time>2016-07-25T13:55:23Z</time>
      </trkpt>
      <trkpt lat="41.344667" lon="-3.444283">
        <ele>2474.0</ele>
        <time>2016-07-25T13:55:25Z</time>
      </trkpt>
      <trkpt lat="41.344817" lon="-3.444183">
        <ele>2469.0</ele>
        <time>2016-07-25T13:55:27Z</time>
      </trkpt>
      <trkpt lat="41.344933" lon="-3.444100">
        <ele>2466.0</ele>
        <time>2016-07-25T13:55:29Z</time>
      </trkpt>
      <trkpt lat="41.345050" lon="-3.444017">
        <ele>2460.0</ele>
        <time>2016-07-25T13:55:31Z</time>
      </trkpt>
      <trkpt lat="41.345200" lon="-3.443917">
        <ele>2453.0</ele>
        <time>2016-07-25T13:55:33Z</time>
      </trkpt>
      <trkpt lat="41.345333" lon="-3.443800">
        <ele>2448.0</ele>
        <time>2016-07-25T13:55:35Z</time>
      </trkpt>
      <trkpt lat="41.345433" lon="-3.443683">
        <ele>2442.0</ele>
        <time>2016-07-25T13:55:37Z</time>
      </trkpt>
      <trkpt lat="41.345550" lon="-3.443533">
        <ele>2434.0</ele>
        <time>2016-07-25T13:55:39Z</time>
      </trkpt>
      <trkpt lat="41.345683" lon="-3.443367">
        <ele>2426.0</ele>
        <time>2016-07-25T13:55:41Z</time>
      </trkpt>
      <trkpt lat="41.345817" lon="-3.443200">
        <ele>2419.0</ele>
        <time>2016-07-25T13:55:43Z</time>
      </trkpt>
      <trkpt lat="41.345950" lon="-3.443017">
        <ele>2414.0</ele>
        <time>2016-07-25T13:55:45Z</time>
      </trkpt>
      <trkpt lat="41.346083" lon="-3.442883">
        <ele>2409.0</ele>
        <time>2016-07-25T13:55:47Z</time>
      </trkpt>
      <trkpt lat="41.346200" lon="-3.442767">
        <ele>2403.0</ele>
        <time>2016-07-25T13:55:49Z</time>
      </trkpt>
      <trkpt lat="41.346317" lon="-3.442600">
        <ele>2397.0</ele>
        <time>2016-07-25T13:55:51Z</time>
      </trkpt>
      <trkpt lat="41.346450" lon="-3.442450">
        <ele>2393.0</ele>
        <time>2016-07-25T13:55:53Z</time>
      </trkpt>
      <trkpt lat="41.346567" lon="-3.442333">
        <ele>2388.0</ele>
        <time>2016-07-25T13:55:55Z</time>
      </trkpt>
      <trkpt lat="41.346700" lon="-3.442200">
        <ele>2381.0</ele>
        <time>2016-07-25T13:55:57Z</time>
      </trkpt>
      <trkpt lat="41.346833" lon="-3.442033">
        <ele>2379.0</ele>
        <time>2016-07-25T13:55:59Z</time>
      </trkpt>
      <trkpt lat="41.346933" lon="-3.441900">
        <ele>2376.0</ele>
        <time>2016-07-25T13:56:01Z</time>
      </trkpt>
      <trkpt lat="41.347050" lon="-3.441750">
        <ele>2371.0</ele>
        <time>2016-07-25T13:56:03Z</time>
      </trkpt>
      <trkpt lat="41.347200" lon="-3.441583">
        <ele>2367.0</ele>
        <time>2016-07-25T13:56:05Z</time>
      </trkpt>
      <trkpt lat="41.347367" lon="-3.441417">
        <ele>2363.0</ele>
        <time>2016-07-25T13:56:07Z</time>
      </trkpt>
      <trkpt lat="41.347500" lon="-3.441300">
        <ele>2364.0</ele>
        <time>2016-07-25T13:56:09Z</time>
      </trkpt>
      <trkpt lat="41.347617" lon="-3.441233">
        <ele>2360.0</ele>
        <time>2016-07-25T13:56:11Z</time>
      </trkpt>
      <trkpt lat="41.347767" lon="-3.441133">
        <ele>2352.0</ele>
        <time>2016-07-25T13:56:13Z</time>
      </trkpt>
      <trkpt lat="41.347900" lon="-3.440967">
        <ele>2347.0</ele>
        <time>2016-07-25T13:56:15Z</time>
      </trkpt>
      <trkpt lat="41.348017" lon="-3.440800">
        <ele>2344.0</ele>
        <time>2016-07-25T13:56:17Z</time>
      </trkpt>
      <trkpt lat="41.348133" lon="-3.440633">
        <ele>2338.0</ele>
        <time>2016-07-25T13:56:19Z</time>
      </trkpt>
      <trkpt lat="41.348283" lon="-3.440467">
        <ele>2333.0</ele>
        <time>2016-07-25T13:56:21Z</time>
      </trkpt>
      <trkpt lat="41.348417" lon="-3.440300">
        <ele>2334.0</ele>
        <time>2016-07-25T13:56:23Z</time>
      </trkpt>
      <trkpt lat="41.348500" lon="-3.440167">
        <ele>2334.0</ele>
        <time>2016-07-25T13:56:25Z</time>
      </trkpt>
      <trkpt lat="41.348600" lon="-3.439967">
        <ele>2338.0</ele>
        <time>2016-07-25T13:56:27Z</time>
      </trkpt>
      <trkpt lat="41.348683" lon="-3.439783">
        <ele>2344.0</ele>
        <time>2016-07-25T13:56:29Z</time>
      </trkpt>
      <trkpt lat="41.348767" lon="-3.439617">
        <ele>2348.0</ele>
        <time>2016-07-25T13:56:31Z</time>
      </trkpt>
      <trkpt lat="41.348883" lon="-3.439433">
        <ele>2351.0</ele>
        <time>2016-07-25T13:56:33Z</time>
      </trkpt>
      <trkpt lat="41.349000" lon="-3.439250">
        <ele>2354.0</ele>
        <time>2016-07-25T13:56:35Z</time>
      </trkpt>
      <trkpt lat="41.349083" lon="-3.439033">
        <ele>2356.0</ele>
        <time>2016-07-25T13:56:37Z</time>
      </trkpt>
      <trkpt lat="41.349100" lon="-3.438783">
        <ele>2357.0</ele>
        <time>2016-07-25T13:56:39Z</time>
      </trkpt>
      <trkpt lat="41.349067" lon="-3.438500">
        <ele>2358.0</ele>
        <time>2016-07-25T13:56:41Z</time>
      </trkpt>
      <trkpt lat="41.348950" lon="-3.438250">
        <ele>2360.0</ele>
        <time>2016-07-25T13:56:43Z</time>
      </trkpt>
      <trkpt lat="41.348767" lon="-3.438083">
        <ele>2361.0</ele>
        <time>2016-07-25T13:56:45Z</time>
      </trkpt>
      <trkpt lat="41.348517" lon="-3.438000">
        <ele>2363.0</ele>
        <time>2016-07-25T13:56:47Z</time>
      </trkpt>
      <trkpt lat="41.348283" lon="-3.438017">
        <ele>2368.0</ele>
        <time>2016-07-25T13:56:49Z</time>
      </trkpt>
      <trkpt lat="41.348133" lon="-3.438133">
        <ele>2371.0</ele>
        <time>2016-07-25T13:56:51Z</time>
      </trkpt>
      <trkpt lat="41.348083" lon="-3.438300">
        <ele>2373.0</ele>
        <time>2016-07-25T13:56:53Z</time>
      </trkpt>
      <trkpt lat="41.348083" lon="-3.438483">
        <ele>2376.0</ele>
        <time>2016-07-25T13:56:55Z</time>
      </trkpt>
      <trkpt lat="41.348167" lon="-3.438600">
        <ele>2382.0</ele>
        <time>2016-07-25T13:56:57Z</time>
      </trkpt>
      <trkpt lat="41.348250" lon="-3.438617">
        <ele>2391.0</ele>
        <time>2016-07-25T13:56:59Z</time>
      </trkpt>
      <trkpt lat="41.348350" lon="-3.438600">
        <ele>2398.0</ele>
        <time>2016-07-25T13:57:01Z</time>
      </trkpt>
      <trkpt lat="41.348450" lon="-3.438533">
        <ele>2403.0</ele>
        <time>2016-07-25T13:57:03Z</time>
      </trkpt>
      <trkpt lat="41.348533" lon="-3.438383">
        <ele>2404.0</ele>
        <time>2016-07-25T13:57:05Z</time>
      </trkpt>
      <trkpt lat="41.348550" lon="-3.438100">
        <ele>2405.0</ele>
        <time>2016-07-25T13:57:07Z</time>
      </trkpt>
      <trkpt lat="41.348467" lon="-3.437800">
        <ele>2406.0</ele>
        <time>2016-07-25T13:57:09Z</time>
      </trkpt>
      <trkpt lat="41.348267" lon="-3.437583">
        <ele>2409.0</ele>
        <time>2016-07-25T13:57:11Z</time>
      </trkpt>
      <trkpt lat="41.348050" lon="-3.437450">
        <ele>2413.0</ele>
        <time>2016-07-25T13:57:13Z</time>
      </trkpt>
      <trkpt lat="41.347817" lon="-3.437417">
        <ele>2418.0</ele>
        <time>2016-07-25T13:57:15Z</time>
      </trkpt>
      <trkpt lat="41.347650" lon="-3.437517">
        <ele>2421.0</ele>
        <time>2016-07-25T13:57:17Z</time>
      </trkpt>
      <trkpt lat="41.347533" lon="-3.437633">
        <ele>2423.0</ele>
        <time>2016-07-25T13:57:19Z</time>
      </trkpt>
      <trkpt lat="41.347450" lon="-3.437833">
        <ele>2421.0</ele>
        <time>2016-07-25T13:57:21Z</time>
      </trkpt>
      <trkpt lat="41.347467" lon="-3.438050">
        <ele>2424.0</ele>
        <time>2016-07-25T13:57:23Z</time>
      </trkpt>
      <trkpt lat="41.347517" lon="-3.438167">
        <ele>2431.0</ele>
        <time>2016-07-25T13:57:25Z</time>
      </trkpt>
      <trkpt lat="41.347583" lon="-3.438250">
        <ele>2434.0</ele>
        <time>2016-07-25T13:57:27Z</time>
      </trkpt>
      <trkpt lat="41.347667" lon="-3.438267">
        <ele>2434.0</ele>
        <time>2016-07-25T13:57:29Z</time>
      </trkpt>
      <trkpt lat="41.347783" lon="-3.438200">
        <ele>2436.0</ele>
        <time>2016-07-25T13:57:31Z</time>
      </trkpt>
      <trkpt lat="41.347867" lon="-3.438100">
        <ele>2439.0</ele>
        <time>2016-07-25T13:57:33Z</time>
      </trkpt>
      <trkpt lat="41.347983" lon="-3.438000">
        <ele>2441.0</ele>
        <time>2016-07-25T13:57:35Z</time>
      </trkpt>
      <trkpt lat="41.348117" lon="-3.437867">
        <ele>2447.0</ele>
        <time>2016-07-25T13:57:37Z</time>
      </trkpt>
      <trkpt lat="41.348217" lon="-3.437750">
        <ele>2456.0</ele>
        <time>2016-07-25T13:57:39Z</time>
      </trkpt>
      <trkpt lat="41.348317" lon="-3.437583">
        <ele>2462.0</ele>
        <time>2016-07-25T13:57:41Z</time>
      </trkpt>
      <trkpt lat="41.348333" lon="-3.437300">
        <ele>2465.0</ele>
        <time>2016-07-25T13:57:43Z</time>
      </trkpt>
      <trkpt lat="41.348267" lon="-3.437033">
        <ele>2471.0</ele>
        <time>2016-07-25T13:57:45Z</time>
      </trkpt>
      <trkpt lat="41.348150" lon="-3.436867">
        <ele>2477.0</ele>
        <time>2016-07-25T13:57:47Z</time>
      </trkpt>
      <trkpt lat="41.347967" lon="-3.436733">
        <ele>2482.0</ele>
        <time>2016-07-25T13:57:49Z</time>
      </trkpt>
      <trkpt lat="41.347733" lon="-3.436700">
        <ele>2487.0</ele>
        <time>2016-07-25T13:57:51Z</time>
      </trkpt>
      <trkpt lat="41.347517" lon="-3.436833">
        <ele>2494.0</ele>
        <time>2016-07-25T13:57:53Z</time>
      </trkpt>
      <trkpt lat="41.347400" lon="-3.437050">
        <ele>2500.0</ele>
        <time>2016-07-25T13:57:55Z</time>
      </trkpt>
      <trkpt lat="41.347333" lon="-3.437267">
        <ele>2503.0</ele>
        <time>2016-07-25T13:57:57Z</time>
      </trkpt>
      <trkpt lat="41.347317" lon="-3.437450">
        <ele>2502.0</ele>
        <time>2016-07-25T13:57:59Z</time>
      </trkpt>
      <trkpt lat="41.347400" lon="-3.437550">
        <ele>2499.0</ele>
        <time>2016-07-25T13:58:01Z</time>
      </trkpt>
      <trkpt lat="41.347567" lon="-3.437617">
        <ele>2501.0</ele>
        <time>2016-07-25T13:58:03Z</time>
      </trkpt>
      <trkpt lat="41.347700" lon="-3.437633">
        <ele>2508.0</ele>
        <time>2016-07-25T13:58:05Z</time>
      </trkpt>
      <trkpt lat="41.347850" lon="-3.437650">
        <ele>2516.0</ele>
        <time>2016-07-25T13:58:07Z</time>
      </trkpt>
      <trkpt lat="41.348000" lon="-3.437633">
        <ele>2524.0</ele>
        <time>2016-07-25T13:58:09Z</time>
      </trkpt>
      <trkpt lat="41.348133" lon="-3.437550">
        <ele>2529.0</ele>
        <time>2016-07-25T13:58:11Z</time>
      </trkpt>
      <trkpt lat="41.348250" lon="-3.437350">
        <ele>2530.0</ele>
        <time>2016-07-25T13:58:13Z</time>
      </trkpt>
      <trkpt lat="41.348333" lon="-3.437083">
        <ele>2529.0</ele>
        <time>2016-07-25T13:58:15Z</time>
      </trkpt>
      <trkpt lat="41.348317" lon="-3.436800">
        <ele>2530.0</ele>
        <time>2016-07-25T13:58:17Z</time>
      </trkpt>
      <trkpt lat="41.348217" lon="-3.436617">
        <ele>2531.0</ele>
        <time>2016-07-25T13:58:19Z</time>
      </trkpt>
      <trkpt lat="41.348050" lon="-3.436500">
        <ele>2530.0</ele>
        <time>2016-07-25T13:58:21Z</time>
      </trkpt>
      <trkpt lat="41.347833" lon="-3.436500">
        <ele>2531.0</ele>
        <time>2016-07-25T13:58:23Z</time>
      </trkpt>
      <trkpt lat="41.347683" lon="-3.436633">
        <ele>2534.0</ele>
        <time>2016-07-25T13:58:25Z</time>
      </trkpt>
      <trkpt lat="41.347600" lon="-3.436833">
        <ele>2539.0</ele>
        <time>2016-07-25T13:58:27Z</time>
      </trkpt>
      <trkpt lat="41.347583" lon="-3.437050">
        <ele>2544.0</ele>
        <time>2016-07-25T13:58:29Z</time>
      </trkpt>
      <trkpt lat="41.347600" lon="-3.437267">
        <ele>2549.0</ele>
        <time>2016-07-25T13:58:31Z</time>
      </trkpt>
      <trkpt lat="41.347683" lon="-3.437417">
        <ele>2555.0</ele>
        <time>2016-07-25T13:58:33Z</time>
      </trkpt>
      <trkpt lat="41.347850" lon="-3.437483">
        <ele>2557.0</ele>
        <time>2016-07-25T13:58:35Z</time>
      </trkpt>
      <trkpt lat="41.347983" lon="-3.437483">
        <ele>2560.0</ele>
        <time>2016-07-25T13:58:37Z</time>
      </trkpt>
      <trkpt lat="41.348117" lon="-3.437417">
        <ele>2558.0</ele>
        <time>2016-07-25T13:58:39Z</time>
      </trkpt>
      <trkpt lat="41.348267" lon="-3.437317">
        <ele>2552.0</ele>
        <time>2016-07-25T13:58:41Z</time>
      </trkpt>
      <trkpt lat="41.348433" lon="-3.437200">
        <ele>2549.0</ele>
        <time>2016-07-25T13:58:43Z</time>
      </trkpt>
      <trkpt lat="41.348550" lon="-3.437100">
        <ele>2551.0</ele>
        <time>2016-07-25T13:58:45Z</time>
      </trkpt>
      <trkpt lat="41.348633" lon="-3.436967">
        <ele>2546.0</ele>
        <time>2016-07-25T13:58:47Z</time>
      </trkpt>
      <trkpt lat="41.348750" lon="-3.436800">
        <ele>2539.0</ele>
        <time>2016-07-25T13:58:49Z</time>
      </trkpt>
      <trkpt lat="41.348867" lon="-3.436633">
        <ele>2534.0</ele>
        <time>2016-07-25T13:58:51Z</time>
      </trkpt>
      <trkpt lat="41.348967" lon="-3.436483">
        <ele>2528.0</ele>
        <time>2016-07-25T13:58:53Z</time>
      </trkpt>
      <trkpt lat="41.349117" lon="-3.436333">
        <ele>2523.0</ele>
        <time>2016-07-25T13:58:55Z</time>
      </trkpt>
      <trkpt lat="41.349217" lon="-3.436217">
        <ele>2520.0</ele>
        <time>2016-07-25T13:58:57Z</time>
      </trkpt>
      <trkpt lat="41.349300" lon="-3.436067">
        <ele>2517.0</ele>
        <time>2016-07-25T13:58:59Z</time>
      </trkpt>
      <trkpt lat="41.349400" lon="-3.435900">
        <ele>2512.0</ele>
        <time>2016-07-25T13:59:01Z</time>
      </trkpt>
      <trkpt lat="41.349517" lon="-3.435767">
        <ele>2509.0</ele>
        <time>2016-07-25T13:59:03Z</time>
      </trkpt>
      <trkpt lat="41.349583" lon="-3.435617">
        <ele>2508.0</ele>
        <time>2016-07-25T13:59:05Z</time>
      </trkpt>
      <trkpt lat="41.349633" lon="-3.435433">
        <ele>2506.0</ele>
        <time>2016-07-25T13:59:07Z</time>
      </trkpt>
      <trkpt lat="41.349717" lon="-3.435250">
        <ele>2503.0</ele>
        <time>2016-07-25T13:59:09Z</time>
      </trkpt>
      <trkpt lat="41.349817" lon="-3.435017">
        <ele>2502.0</ele>
        <time>2016-07-25T13:59:11Z</time>
      </trkpt>
      <trkpt lat="41.349917" lon="-3.434800">
        <ele>2508.0</ele>
        <time>2016-07-25T13:59:13Z</time>
      </trkpt>
      <trkpt lat="41.350000" lon="-3.434667">
        <ele>2515.0</ele>
        <time>2016-07-25T13:59:15Z</time>
      </trkpt>
      <trkpt lat="41.350100" lon="-3.434467">
        <ele>2518.0</ele>
        <time>2016-07-25T13:59:17Z</time>
      </trkpt>
      <trkpt lat="41.350200" lon="-3.434283">
        <ele>2523.0</ele>
        <time>2016-07-25T13:59:19Z</time>
      </trkpt>
      <trkpt lat="41.350317" lon="-3.434117">
        <ele>2528.0</ele>
        <time>2016-07-25T13:59:21Z</time>
      </trkpt>
      <trkpt lat="41.350383" lon="-3.433883">
        <ele>2536.0</ele>
        <time>2016-07-25T13:59:23Z</time>
      </trkpt>
      <trkpt lat="41.350350" lon="-3.433617">
        <ele>2540.0</ele>
        <time>2016-07-25T13:59:25Z</time>
      </trkpt>
      <trkpt lat="41.350267" lon="-3.433300">
        <ele>2544.0</ele>
        <time>2016-07-25T13:59:27Z</time>
      </trkpt>
      <trkpt lat="41.350100" lon="-3.433017">
        <ele>2549.0</ele>
        <time>2016-07-25T13:59:29Z</time>
      </trkpt>
      <trkpt lat="41.349867" lon="-3.432833">
        <ele>2553.0</ele>
        <time>2016-07-25T13:59:31Z</time>
      </trkpt>
      <trkpt lat="41.349633" lon="-3.432750">
        <ele>2558.0</ele>
        <time>2016-07-25T13:59:33Z</time>
      </trkpt>
      <trkpt lat="41.349450" lon="-3.432783">
        <ele>2564.0</ele>
        <time>2016-07-25T13:59:35Z</time>
      </trkpt>
      <trkpt lat="41.349333" lon="-3.432917">
        <ele>2568.0</ele>
        <time>2016-07-25T13:59:37Z</time>
      </trkpt>
      <trkpt lat="41.349250" lon="-3.433100">
        <ele>2571.0</ele>
        <time>2016-07-25T13:59:39Z</time>
      </trkpt>
      <trkpt lat="41.349283" lon="-3.433267">
        <ele>2575.0</ele>
        <time>2016-07-25T13:59:41Z</time>
      </trkpt>
      <trkpt lat="41.349417" lon="-3.433283">
        <ele>2579.0</ele>
        <time>2016-07-25T13:59:43Z</time>
      </trkpt>
      <trkpt lat="41.349533" lon="-3.433150">
        <ele>2587.0</ele>
        <time>2016-07-25T13:59:45Z</time>
      </trkpt>
      <trkpt lat="41.349617" lon="-3.432983">
        <ele>2595.0</ele>
        <time>2016-07-25T13:59:47Z</time>
      </trkpt>
      <trkpt lat="41.349667" lon="-3.432750">
        <ele>2599.0</ele>
        <time>2016-07-25T13:59:49Z</time>
      </trkpt>
      <trkpt lat="41.349650" lon="-3.432400">
        <ele>2602.0</ele>
        <time>2016-07-25T13:59:51Z</time>
      </trkpt>
      <trkpt lat="41.349533" lon="-3.432067">
        <ele>2609.0</ele>
        <time>2016-07-25T13:59:53Z</time>
      </trkpt>
      <trkpt lat="41.349333" lon="-3.431867">
        <ele>2614.0</ele>
        <time>2016-07-25T13:59:55Z</time>
      </trkpt>
      <trkpt lat="41.349100" lon="-3.431767">
        <ele>2619.0</ele>
        <time>2016-07-25T13:59:57Z</time>
      </trkpt>
      <trkpt lat="41.348867" lon="-3.431783">
        <ele>2625.0</ele>
        <time>2016-07-25T13:59:59Z</time>
      </trkpt>
      <trkpt lat="41.348733" lon="-3.431900">
        <ele>2629.0</ele>
        <time>2016-07-25T14:00:01Z</time>
      </trkpt>
      <trkpt lat="41.348667" lon="-3.432067">
        <ele>2634.0</ele>
        <time>2016-07-25T14:00:03Z</time>
      </trkpt>
      <trkpt lat="41.348667" lon="-3.432200">
        <ele>2639.0</ele>
        <time>2016-07-25T14:00:05Z</time>
      </trkpt>
      <trkpt lat="41.348750" lon="-3.432267">
        <ele>2644.0</ele>
        <time>2016-07-25T14:00:07Z</time>
      </trkpt>
      <trkpt lat="41.348850" lon="-3.432233">
        <ele>2652.0</ele>
        <time>2016-07-25T14:00:09Z</time>
      </trkpt>
      <trkpt lat="41.348933" lon="-3.432167">
        <ele>2658.0</ele>
        <time>2016-07-25T14:00:11Z</time>
      </trkpt>
      <trkpt lat="41.349050" lon="-3.432067">
        <ele>2660.0</ele>
        <time>2016-07-25T14:00:13Z</time>
      </trkpt>
      <trkpt lat="41.349167" lon="-3.431917">
        <ele>2664.0</ele>
        <time>2016-07-25T14:00:15Z</time>
      </trkpt>
      <trkpt lat="41.349283" lon="-3.431767">
        <ele>2671.0</ele>
        <time>2016-07-25T14:00:17Z</time>
      </trkpt>
      <trkpt lat="41.349383" lon="-3.431633">
        <ele>2676.0</ele>
        <time>2016-07-25T14:00:19Z</time>
      </trkpt>
      <trkpt lat="41.349533" lon="-3.431467">
        <ele>2679.0</ele>
        <time>2016-07-25T14:00:21Z</time>
      </trkpt>
      <trkpt lat="41.349650" lon="-3.431300">
        <ele>2686.0</ele>
        <time>2016-07-25T14:00:23Z</time>
      </trkpt>
      <trkpt lat="41.349733" lon="-3.431150">
        <ele>2692.0</ele>
        <time>2016-07-25T14:00:25Z</time>
      </trkpt>
      <trkpt lat="41.349850" lon="-3.430983">
        <ele>2695.0</ele>
        <time>2016-07-25T14:00:27Z</time>
      </trkpt>
      <trkpt lat="41.349983" lon="-3.430800">
        <ele>2698.0</ele>
        <time>2016-07-25T14:00:29Z</time>
      </trkpt>
      <trkpt lat="41.350100" lon="-3.430617">
        <ele>2704.0</ele>
        <time>2016-07-25T14:00:31Z</time>
      </trkpt>
      <trkpt lat="41.350200" lon="-3.430433">
        <ele>2710.0</ele>
        <time>2016-07-25T14:00:33Z</time>
      </trkpt>
      <trkpt lat="41.350300" lon="-3.430250">
        <ele>2715.0</ele>
        <time>2016-07-25T14:00:35Z</time>
      </trkpt>
      <trkpt lat="41.350417" lon="-3.430067">
        <ele>2719.0</ele>
        <time>2016-07-25T14:00:37Z</time>
      </trkpt>
      <trkpt lat="41.350483" lon="-3.429883">
        <ele>2721.0</ele>
        <time>2016-07-25T14:00:39Z</time>
      </trkpt>
      <trkpt lat="41.350583" lon="-3.429733">
        <ele>2717.0</ele>
        <time>2016-07-25T14:00:41Z</time>
      </trkpt>
      <trkpt lat="41.350700" lon="-3.429583">
        <ele>2712.0</ele>
        <time>2016-07-25T14:00:43Z</time>
      </trkpt>
      <trkpt lat="41.350817" lon="-3.429433">
        <ele>2712.0</ele>
        <time>2016-07-25T14:00:45Z</time>
      </trkpt>
      <trkpt lat="41.350933" lon="-3.429283">
        <ele>2715.0</ele>
        <time>2016-07-25T14:00:47Z</time>
      </trkpt>
      <trkpt lat="41.351033" lon="-3.429133">
        <ele>2716.0</ele>
        <time>2016-07-25T14:00:49Z</time>
      </trkpt>
      <trkpt lat="41.351150" lon="-3.428967">
        <ele>2716.0</ele>
        <time>2016-07-25T14:00:51Z</time>
      </trkpt>
      <trkpt lat="41.351267" lon="-3.428817">
        <ele>2716.0</ele>
        <time>2016-07-25T14:00:53Z</time>
      </trkpt>
      <trkpt lat="41.351383" lon="-3.428667">
        <ele>2716.0</ele>
        <time>2016-07-25T14:00:55Z</time>
      </trkpt>
      <trkpt lat="41.351500" lon="-3.428533">
        <ele>2716.0</ele>
        <time>2016-07-25T14:00:57Z</time>
      </trkpt>
      <trkpt lat="41.351600" lon="-3.428383">
        <ele>2718.0</ele>
        <time>2016-07-25T14:00:59Z</time>
      </trkpt>
      <trkpt lat="41.351717" lon="-3.428250">
        <ele>2717.0</ele>
        <time>2016-07-25T14:01:01Z</time>
      </trkpt>
      <trkpt lat="41.351850" lon="-3.428117">
        <ele>2716.0</ele>
        <time>2016-07-25T14:01:03Z</time>
      </trkpt>
      <trkpt lat="41.351983" lon="-3.427950">
        <ele>2715.0</ele>
        <time>2016-07-25T14:01:05Z</time>
      </trkpt>
      <trkpt lat="41.352083" lon="-3.427783">
        <ele>2712.0</ele>
        <time>2016-07-25T14:01:07Z</time>
      </trkpt>
      <trkpt lat="41.352200" lon="-3.427633">
        <ele>2707.0</ele>
        <time>2016-07-25T14:01:09Z</time>
      </trkpt>
      <trkpt lat="41.352300" lon="-3.427483">
        <ele>2703.0</ele>
        <time>2016-07-25T14:01:11Z</time>
      </trkpt>
      <trkpt lat="41.352417" lon="-3.427367">
        <ele>2700.0</ele>
        <time>2016-07-25T14:01:13Z</time>
      </trkpt>
      <trkpt lat="41.352517" lon="-3.427217">
        <ele>2698.0</ele>
        <time>2016-07-25T14:01:15Z</time>
      </trkpt>
      <trkpt lat="41.352600" lon="-3.427100">
        <ele>2698.0</ele>
        <time>2016-07-25T14:01:17Z</time>
      </trkpt>
      <trkpt lat="41.352667" lon="-3.427017">
        <ele>2694.0</ele>
        <time>2016-07-25T14:01:19Z</time>
      </trkpt>
      <trkpt lat="41.352767" lon="-3.426917">
        <ele>2688.0</ele>
        <time>2016-07-25T14:01:21Z</time>
      </trkpt>
      <trkpt lat="41.352883" lon="-3.426817">
        <ele>2684.0</ele>
        <time>2016-07-25T14:01:23Z</time>
      </trkpt>
      <trkpt lat="41.352983" lon="-3.426700">
        <ele>2682.0</ele>
        <time>2016-07-25T14:01:25Z</time>
      </trkpt>
      <trkpt lat="41.353067" lon="-3.426533">
        <ele>2679.0</ele>
        <time>2016-07-25T14:01:27Z</time>
      </trkpt>
      <trkpt lat="41.353133" lon="-3.426367">
        <ele>2677.0</ele>
        <time>2016-07-25T14:01:29Z</time>
      </trkpt>
      <trkpt lat="41.353250" lon="-3.426233">
        <ele>2675.0</ele>
        <time>2016-07-25T14:01:31Z</time>
      </trkpt>
      <trkpt lat="41.353350" lon="-3.426083">
        <ele>2673.0</ele>
        <time>2016-07-25T14:01:33Z</time>
      </trkpt>
      <trkpt lat="41.353433" lon="-3.425967">
        <ele>2669.0</ele>
        <time>2016-07-25T14:01:35Z</time>
      </trkpt>
      <trkpt lat="41.353550" lon="-3.425850">
        <ele>2664.0</ele>
        <time>2016-07-25T14:01:37Z</time>
      </trkpt>
      <trkpt lat="41.353650" lon="-3.425733">
        <ele>2659.0</ele>
        <time>2016-07-25T14:01:39Z</time>
      </trkpt>
      <trkpt lat="41.353750" lon="-3.425600">
        <ele>2654.0</ele>
        <time>2016-07-25T14:01:41Z</time>
      </trkpt>
      <trkpt lat="41.353867" lon="-3.425450">
        <ele>2648.0</ele>
        <time>2016-07-25T14:01:43Z</time>
      </trkpt>
      <trkpt lat="41.354000" lon="-3.425317">
        <ele>2644.0</ele>
        <time>2016-07-25T14:01:45Z</time>
      </trkpt>
      <trkpt lat="41.354117" lon="-3.425200">
        <ele>2641.0</ele>
        <time>2016-07-25T14:01:47Z</time>
      </trkpt>
      <trkpt lat="41.354233" lon="-3.425067">
        <ele>2635.0</ele>
        <time>2016-07-25T14:01:49Z</time>
      </trkpt>
      <trkpt lat="41.354333" lon="-3.424883">
        <ele>2630.0</ele>
        <time>2016-07-25T14:01:51Z</time>
      </trkpt>
      <trkpt lat="41.354417" lon="-3.424700">
        <ele>2628.0</ele>
        <time>2016-07-25T14:01:53Z</time>
      </trkpt>
      <trkpt lat="41.354517" lon="-3.424600">
        <ele>2624.0</ele>
        <time>2016-07-25T14:01:55Z</time>
      </trkpt>
      <trkpt lat="41.354617" lon="-3.424517">
        <ele>2619.0</ele>
        <time>2016-07-25T14:01:57Z</time>
      </trkpt>
      <trkpt lat="41.354733" lon="-3.424383">
        <ele>2614.0</ele>
        <time>2016-07-25T14:01:59Z</time>
      </trkpt>
      <trkpt lat="41.354867" lon="-3.424267">
        <ele>2609.0</ele>
        <time>2016-07-25T14:02:01Z</time>
      </trkpt>
      <trkpt lat="41.355000" lon="-3.424150">
        <ele>2606.0</ele>
        <time>2016-07-25T14:02:03Z</time>
      </trkpt>
      <trkpt lat="41.355150" lon="-3.424000">
        <ele>2604.0</ele>
        <time>2016-07-25T14:02:05Z</time>
      </trkpt>
      <trkpt lat="41.355283" lon="-3.423850">
        <ele>2604.0</ele>
        <time>2016-07-25T14:02:07Z</time>
      </trkpt>
      <trkpt lat="41.355417" lon="-3.423717">
        <ele>2604.0</ele>
        <time>2016-07-25T14:02:09Z</time>
      </trkpt>
      <trkpt lat="41.355550" lon="-3.423583">
        <ele>2604.0</ele>
        <time>2016-07-25T14:02:11Z</time>
      </trkpt>
      <trkpt lat="41.355667" lon="-3.423467">
        <ele>2606.0</ele>
        <time>2016-07-25T14:02:13Z</time>
      </trkpt>
      <trkpt lat="41.355767" lon="-3.423333">
        <ele>2606.0</ele>
        <time>2016-07-25T14:02:15Z</time>
      </trkpt>
      <trkpt lat="41.355900" lon="-3.423167">
        <ele>2604.0</ele>
        <time>2016-07-25T14:02:17Z</time>
      </trkpt>
      <trkpt lat="41.356033" lon="-3.423000">
        <ele>2604.0</ele>
        <time>2016-07-25T14:02:19Z</time>
      </trkpt>
      <trkpt lat="41.356133" lon="-3.422833">
        <ele>2605.0</ele>
        <time>2016-07-25T14:02:21Z</time>
      </trkpt>
      <trkpt lat="41.356250" lon="-3.422667">
        <ele>2605.0</ele>
        <time>2016-07-25T14:02:23Z</time>
      </trkpt>
      <trkpt lat="41.356367" lon="-3.422517">
        <ele>2604.0</ele>
        <time>2016-07-25T14:02:25Z</time>
      </trkpt>
      <trkpt lat="41.356483" lon="-3.422350">
        <ele>2606.0</ele>
        <time>2016-07-25T14:02:27Z</time>
      </trkpt>
      <trkpt lat="41.356567" lon="-3.422200">
        <ele>2608.0</ele>
        <time>2016-07-25T14:02:29Z</time>
      </trkpt>
      <trkpt lat="41.356667" lon="-3.422033">
        <ele>2607.0</ele>
        <time>2016-07-25T14:02:31Z</time>
      </trkpt>
      <trkpt lat="41.356783" lon="-3.421850">
        <ele>2607.0</ele>
        <time>2016-07-25T14:02:33Z</time>
      </trkpt>
      <trkpt lat="41.356900" lon="-3.421700">
        <ele>2609.0</ele>
        <time>2016-07-25T14:02:35Z</time>
      </trkpt>
      <trkpt lat="41.357000" lon="-3.421550">
        <ele>2610.0</ele>
        <time>2016-07-25T14:02:37Z</time>
      </trkpt>
      <trkpt lat="41.357117" lon="-3.421383">
        <ele>2608.0</ele>
        <time>2016-07-25T14:02:39Z</time>
      </trkpt>
      <trkpt lat="41.357250" lon="-3.421217">
        <ele>2608.0</ele>
        <time>2016-07-25T14:02:41Z</time>
      </trkpt>
      <trkpt lat="41.357350" lon="-3.421050">
        <ele>2610.0</ele>
        <time>2016-07-25T14:02:43Z</time>
      </trkpt>
      <trkpt lat="41.357450" lon="-3.420900">
        <ele>2610.0</ele>
        <time>2016-07-25T14:02:45Z</time>
      </trkpt>
      <trkpt lat="41.357567" lon="-3.420733">
        <ele>2608.0</ele>
        <time>2016-07-25T14:02:47Z</time>
      </trkpt>
      <trkpt lat="41.357667" lon="-3.420550">
        <ele>2609.0</ele>
        <time>2016-07-25T14:02:49Z</time>
      </trkpt>
      <trkpt lat="41.357767" lon="-3.420367">
        <ele>2608.0</ele>
        <time>2016-07-25T14:02:51Z</time>
      </trkpt>
      <trkpt lat="41.357883" lon="-3.420200">
        <ele>2606.0</ele>
        <time>2016-07-25T14:02:53Z</time>
      </trkpt>
      <trkpt lat="41.358017" lon="-3.420033">
        <ele>2607.0</ele>
        <time>2016-07-25T14:02:55Z</time>
      </trkpt>
      <trkpt lat="41.358117" lon="-3.419883">
        <ele>2607.0</ele>
        <time>2016-07-25T14:02:57Z</time>
      </trkpt>
      <trkpt lat="41.358233" lon="-3.419733">
        <ele>2604.0</ele>
        <time>2016-07-25T14:02:59Z</time>
      </trkpt>
      <trkpt lat="41.358383" lon="-3.419567">
        <ele>2603.0</ele>
        <time>2016-07-25T14:03:01Z</time>
      </trkpt>
      <trkpt lat="41.358517" lon="-3.419400">
        <ele>2603.0</ele>
        <time>2016-07-25T14:03:03Z</time>
      </trkpt>
      <trkpt lat="41.358633" lon="-3.419233">
        <ele>2603.0</ele>
        <time>2016-07-25T14:03:05Z</time>
      </trkpt>
      <trkpt lat="41.358733" lon="-3.419067">
        <ele>2602.0</ele>
        <time>2016-07-25T14:03:07Z</time>
      </trkpt>
      <trkpt lat="41.358817" lon="-3.418867">
        <ele>2599.0</ele>
        <time>2016-07-25T14:03:09Z</time>
      </trkpt>
      <trkpt lat="41.358950" lon="-3.418700">
        <ele>2595.0</ele>
        <time>2016-07-25T14:03:11Z</time>
      </trkpt>
      <trkpt lat="41.359067" lon="-3.418500">
        <ele>2595.0</ele>
        <time>2016-07-25T14:03:13Z</time>
      </trkpt>
      <trkpt lat="41.359150" lon="-3.418283">
        <ele>2594.0</ele>
        <time>2016-07-25T14:03:15Z</time>
      </trkpt>
      <trkpt lat="41.359250" lon="-3.418067">
        <ele>2591.0</ele>
        <time>2016-07-25T14:03:17Z</time>
      </trkpt>
      <trkpt lat="41.359350" lon="-3.417833">
        <ele>2589.0</ele>
        <time>2016-07-25T14:03:19Z</time>
      </trkpt>
      <trkpt lat="41.359467" lon="-3.417617">
        <ele>2590.0</ele>
        <time>2016-07-25T14:03:21Z</time>
      </trkpt>
      <trkpt lat="41.359550" lon="-3.417400">
        <ele>2593.0</ele>
        <time>2016-07-25T14:03:23Z</time>
      </trkpt>
      <trkpt lat="41.359650" lon="-3.417200">
        <ele>2594.0</ele>
        <time>2016-07-25T14:03:25Z</time>
      </trkpt>
      <trkpt lat="41.359750" lon="-3.417000">
        <ele>2593.0</ele>
        <time>2016-07-25T14:03:27Z</time>
      </trkpt>
      <trkpt lat="41.359850" lon="-3.416817">
        <ele>2592.0</ele>
        <time>2016-07-25T14:03:29Z</time>
      </trkpt>
      <trkpt lat="41.359933" lon="-3.416650">
        <ele>2590.0</ele>
        <time>2016-07-25T14:03:31Z</time>
      </trkpt>
      <trkpt lat="41.360033" lon="-3.416450">
        <ele>2588.0</ele>
        <time>2016-07-25T14:03:33Z</time>
      </trkpt>
      <trkpt lat="41.360133" lon="-3.416300">
        <ele>2589.0</ele>
        <time>2016-07-25T14:03:35Z</time>
      </trkpt>
      <trkpt lat="41.360217" lon="-3.416200">
        <ele>2590.0</ele>
        <time>2016-07-25T14:03:37Z</time>
      </trkpt>
      <trkpt lat="41.360317" lon="-3.416083">
        <ele>2591.0</ele>
        <time>2016-07-25T14:03:39Z</time>
      </trkpt>
      <trkpt lat="41.360450" lon="-3.416033">
        <ele>2595.0</ele>
        <time>2016-07-25T14:03:41Z</time>
      </trkpt>
      <trkpt lat="41.360567" lon="-3.416083">
        <ele>2599.0</ele>
        <time>2016-07-25T14:03:43Z</time>
      </trkpt>
      <trkpt lat="41.360650" lon="-3.416133">
        <ele>2604.0</ele>
        <time>2016-07-25T14:03:45Z</time>
      </trkpt>
      <trkpt lat="41.360717" lon="-3.416233">
        <ele>2606.0</ele>
        <time>2016-07-25T14:03:47Z</time>
      </trkpt>
      <trkpt lat="41.360717" lon="-3.416367">
        <ele>2602.0</ele>
        <time>2016-07-25T14:03:49Z</time>
      </trkpt>
      <trkpt lat="41.360633" lon="-3.416533">
        <ele>2597.0</ele>
        <time>2016-07-25T14:03:51Z</time>
      </trkpt>
      <trkpt lat="41.360467" lon="-3.416633">
        <ele>2594.0</ele>
        <time>2016-07-25T14:03:53Z</time>
      </trkpt>
      <trkpt lat="41.360250" lon="-3.416617">
        <ele>2594.0</ele>
        <time>2016-07-25T14:03:55Z</time>
      </trkpt>
      <trkpt lat="41.360050" lon="-3.416500">
        <ele>2592.0</ele>
        <time>2016-07-25T14:03:57Z</time>
      </trkpt>
      <trkpt lat="41.359867" lon="-3.416300">
        <ele>2586.0</ele>
        <time>2016-07-25T14:03:59Z</time>
      </trkpt>
      <trkpt lat="41.359717" lon="-3.415950">
        <ele>2579.0</ele>
        <time>2016-07-25T14:04:01Z</time>
      </trkpt>
      <trkpt lat="41.359667" lon="-3.415567">
        <ele>2580.0</ele>
        <time>2016-07-25T14:04:03Z</time>
      </trkpt>
      <trkpt lat="41.359650" lon="-3.415283">
        <ele>2581.0</ele>
        <time>2016-07-25T14:04:05Z</time>
      </trkpt>
      <trkpt lat="41.359683" lon="-3.415033">
        <ele>2580.0</ele>
        <time>2016-07-25T14:04:07Z</time>
      </trkpt>
      <trkpt lat="41.359733" lon="-3.414800">
        <ele>2581.0</ele>
        <time>2016-07-25T14:04:09Z</time>
      </trkpt>
      <trkpt lat="41.359817" lon="-3.414617">
        <ele>2581.0</ele>
        <time>2016-07-25T14:04:11Z</time>
      </trkpt>
      <trkpt lat="41.359933" lon="-3.414450">
        <ele>2581.0</ele>
        <time>2016-07-25T14:04:13Z</time>
      </trkpt>
      <trkpt lat="41.360083" lon="-3.414300">
        <ele>2581.0</ele>
        <time>2016-07-25T14:04:15Z</time>
      </trkpt>
      <trkpt lat="41.360233" lon="-3.414200">
        <ele>2583.0</ele>
        <time>2016-07-25T14:04:17Z</time>
      </trkpt>
      <trkpt lat="41.360367" lon="-3.414100">
        <ele>2583.0</ele>
        <time>2016-07-25T14:04:19Z</time>
      </trkpt>
      <trkpt lat="41.360483" lon="-3.413967">
        <ele>2584.0</ele>
        <time>2016-07-25T14:04:21Z</time>
      </trkpt>
      <trkpt lat="41.360600" lon="-3.413883">
        <ele>2584.0</ele>
        <time>2016-07-25T14:04:23Z</time>
      </trkpt>
      <trkpt lat="41.360750" lon="-3.413817">
        <ele>2584.0</ele>
        <time>2016-07-25T14:04:25Z</time>
      </trkpt>
      <trkpt lat="41.360883" lon="-3.413717">
        <ele>2587.0</ele>
        <time>2016-07-25T14:04:27Z</time>
      </trkpt>
      <trkpt lat="41.361017" lon="-3.413650">
        <ele>2591.0</ele>
        <time>2016-07-25T14:04:29Z</time>
      </trkpt>
      <trkpt lat="41.361150" lon="-3.413583">
        <ele>2593.0</ele>
        <time>2016-07-25T14:04:31Z</time>
      </trkpt>
      <trkpt lat="41.361283" lon="-3.413533">
        <ele>2596.0</ele>
        <time>2016-07-25T14:04:33Z</time>
      </trkpt>
      <trkpt lat="41.361417" lon="-3.413517">
        <ele>2599.0</ele>
        <time>2016-07-25T14:04:35Z</time>
      </trkpt>
      <trkpt lat="41.361550" lon="-3.413500">
        <ele>2600.0</ele>
        <time>2016-07-25T14:04:37Z</time>
      </trkpt>
      <trkpt lat="41.361700" lon="-3.413450">
        <ele>2598.0</ele>
        <time>2016-07-25T14:04:39Z</time>
      </trkpt>
      <trkpt lat="41.361833" lon="-3.413367">
        <ele>2597.0</ele>
        <time>2016-07-25T14:04:41Z</time>
      </trkpt>
      <trkpt lat="41.361983" lon="-3.413300">
        <ele>2593.0</ele>
        <time>2016-07-25T14:04:43Z</time>
      </trkpt>
      <trkpt lat="41.362150" lon="-3.413217">
        <ele>2592.0</ele>
        <time>2016-07-25T14:04:45Z</time>
      </trkpt>
      <trkpt lat="41.362317" lon="-3.413167">
        <ele>2592.0</ele>
        <time>2016-07-25T14:04:47Z</time>
      </trkpt>
      <trkpt lat="41.362483" lon="-3.413083">
        <ele>2589.0</ele>
        <time>2016-07-25T14:04:49Z</time>
      </trkpt>
      <trkpt lat="41.362650" lon="-3.412950">
        <ele>2586.0</ele>
        <time>2016-07-25T14:04:51Z</time>
      </trkpt>
      <trkpt lat="41.362800" lon="-3.412833">
        <ele>2584.0</ele>
        <time>2016-07-25T14:04:53Z</time>
      </trkpt>
      <trkpt lat="41.362950" lon="-3.412750">
        <ele>2579.0</ele>
        <time>2016-07-25T14:04:55Z</time>
      </trkpt>
      <trkpt lat="41.363117" lon="-3.412700">
        <ele>2572.0</ele>
        <time>2016-07-25T14:04:57Z</time>
      </trkpt>
      <trkpt lat="41.363317" lon="-3.412617">
        <ele>2570.0</ele>
        <time>2016-07-25T14:04:59Z</time>
      </trkpt>
      <trkpt lat="41.363500" lon="-3.412500">
        <ele>2571.0</ele>
        <time>2016-07-25T14:05:01Z</time>
      </trkpt>
      <trkpt lat="41.363650" lon="-3.412417">
        <ele>2568.0</ele>
        <time>2016-07-25T14:05:03Z</time>
      </trkpt>
      <trkpt lat="41.363833" lon="-3.412333">
        <ele>2565.0</ele>
        <time>2016-07-25T14:05:05Z</time>
      </trkpt>
      <trkpt lat="41.363983" lon="-3.412233">
        <ele>2560.0</ele>
        <time>2016-07-25T14:05:07Z</time>
      </trkpt>
      <trkpt lat="41.364133" lon="-3.412083">
        <ele>2553.0</ele>
        <time>2016-07-25T14:05:09Z</time>
      </trkpt>
      <trkpt lat="41.364317" lon="-3.411967">
        <ele>2549.0</ele>
        <time>2016-07-25T14:05:11Z</time>
      </trkpt>
      <trkpt lat="41.364450" lon="-3.411917">
        <ele>2549.0</ele>
        <time>2016-07-25T14:05:13Z</time>
      </trkpt>
      <trkpt lat="41.364567" lon="-3.411883">
        <ele>2546.0</ele>
        <time>2016-07-25T14:05:15Z</time>
      </trkpt>
      <trkpt lat="41.364717" lon="-3.411800">
        <ele>2539.0</ele>
        <time>2016-07-25T14:05:17Z</time>
      </trkpt>
      <trkpt lat="41.364850" lon="-3.411767">
        <ele>2535.0</ele>
        <time>2016-07-25T14:05:19Z</time>
      </trkpt>
      <trkpt lat="41.364967" lon="-3.411733">
        <ele>2531.0</ele>
        <time>2016-07-25T14:05:21Z</time>
      </trkpt>
      <trkpt lat="41.365100" lon="-3.411617">
        <ele>2525.0</ele>
        <time>2016-07-25T14:05:23Z</time>
      </trkpt>
      <trkpt lat="41.365267" lon="-3.411483">
        <ele>2522.0</ele>
        <time>2016-07-25T14:05:25Z</time>
      </trkpt>
      <trkpt lat="41.365400" lon="-3.411367">
        <ele>2524.0</ele>
        <time>2016-07-25T14:05:27Z</time>
      </trkpt>
      <trkpt lat="41.365533" lon="-3.411283">
        <ele>2522.0</ele>
        <time>2016-07-25T14:05:29Z</time>
      </trkpt>
      <trkpt lat="41.365700" lon="-3.411167">
        <ele>2517.0</ele>
        <time>2016-07-25T14:05:31Z</time>
      </trkpt>
      <trkpt lat="41.365883" lon="-3.411033">
        <ele>2513.0</ele>
        <time>2016-07-25T14:05:33Z</time>
      </trkpt>
      <trkpt lat="41.366033" lon="-3.410917">
        <ele>2508.0</ele>
        <time>2016-07-25T14:05:35Z</time>
      </trkpt>
      <trkpt lat="41.366183" lon="-3.410817">
        <ele>2501.0</ele>
        <time>2016-07-25T14:05:37Z</time>
      </trkpt>
      <trkpt lat="41.366333" lon="-3.410750">
        <ele>2494.0</ele>
        <time>2016-07-25T14:05:39Z</time>
      </trkpt>
      <trkpt lat="41.366483" lon="-3.410717">
        <ele>2485.0</ele>
        <time>2016-07-25T14:05:41Z</time>
      </trkpt>
      <trkpt lat="41.366650" lon="-3.410650">
        <ele>2475.0</ele>
        <time>2016-07-25T14:05:43Z</time>
      </trkpt>
      <trkpt lat="41.366817" lon="-3.410583">
        <ele>2467.0</ele>
        <time>2016-07-25T14:05:45Z</time>
      </trkpt>
      <trkpt lat="41.366967" lon="-3.410533">
        <ele>2461.0</ele>
        <time>2016-07-25T14:05:47Z</time>
      </trkpt>
      <trkpt lat="41.367100" lon="-3.410483">
        <ele>2453.0</ele>
        <time>2016-07-25T14:05:49Z</time>
      </trkpt>
      <trkpt lat="41.367250" lon="-3.410417">
        <ele>2446.0</ele>
        <time>2016-07-25T14:05:51Z</time>
      </trkpt>
      <trkpt lat="41.367400" lon="-3.410400">
        <ele>2440.0</ele>
        <time>2016-07-25T14:05:53Z</time>
      </trkpt>
      <trkpt lat="41.367533" lon="-3.410383">
        <ele>2435.0</ele>
        <time>2016-07-25T14:05:55Z</time>
      </trkpt>
      <trkpt lat="41.367683" lon="-3.410333">
        <ele>2431.0</ele>
        <time>2016-07-25T14:05:57Z</time>
      </trkpt>
      <trkpt lat="41.367817" lon="-3.410283">
        <ele>2430.0</ele>
        <time>2016-07-25T14:05:59Z</time>
      </trkpt>
      <trkpt lat="41.367933" lon="-3.410200">
        <ele>2430.0</ele>
        <time>2016-07-25T14:06:01Z</time>
      </trkpt>
      <trkpt lat="41.368067" lon="-3.410067">
        <ele>2426.0</ele>
        <time>2016-07-25T14:06:03Z</time>
      </trkpt>
      <trkpt lat="41.368217" lon="-3.409933">
        <ele>2424.0</ele>
        <time>2016-07-25T14:06:05Z</time>
      </trkpt>
      <trkpt lat="41.368350" lon="-3.409850">
        <ele>2423.0</ele>
        <time>2016-07-25T14:06:07Z</time>
      </trkpt>
      <trkpt lat="41.368500" lon="-3.409750">
        <ele>2419.0</ele>
        <time>2016-07-25T14:06:09Z</time>
      </trkpt>
      <trkpt lat="41.368650" lon="-3.409633">
        <ele>2417.0</ele>
        <time>2016-07-25T14:06:11Z</time>
      </trkpt>
      <trkpt lat="41.368800" lon="-3.409533">
        <ele>2419.0</ele>
        <time>2016-07-25T14:06:13Z</time>
      </trkpt>
      <trkpt lat="41.368933" lon="-3.409467">
        <ele>2421.0</ele>
        <time>2016-07-25T14:06:15Z</time>
      </trkpt>
      <trkpt lat="41.369083" lon="-3.409383">
        <ele>2421.0</ele>
        <time>2016-07-25T14:06:17Z</time>
      </trkpt>
      <trkpt lat="41.369233" lon="-3.409283">
        <ele>2425.0</ele>
        <time>2016-07-25T14:06:19Z</time>
      </trkpt>
      <trkpt lat="41.369350" lon="-3.409200">
        <ele>2430.0</ele>
        <time>2016-07-25T14:06:21Z</time>
      </trkpt>
      <trkpt lat="41.369450" lon="-3.409083">
        <ele>2433.0</ele>
        <time>2016-07-25T14:06:23Z</time>
      </trkpt>
      <trkpt lat="41.369500" lon="-3.408867">
        <ele>2435.0</ele>
        <time>2016-07-25T14:06:25Z</time>
      </trkpt>
      <trkpt lat="41.369500" lon="-3.408583">
        <ele>2438.0</ele>
        <time>2016-07-25T14:06:27Z</time>
      </trkpt>
      <trkpt lat="41.369383" lon="-3.408317">
        <ele>2442.0</ele>
        <time>2016-07-25T14:06:29Z</time>
      </trkpt>
      <trkpt lat="41.369183" lon="-3.408117">
        <ele>2444.0</ele>
        <time>2016-07-25T14:06:31Z</time>
      </trkpt>
      <trkpt lat="41.368933" lon="-3.408033">
        <ele>2449.0</ele>
        <time>2016-07-25T14:06:33Z</time>
      </trkpt>
      <trkpt lat="41.368717" lon="-3.408100">
        <ele>2454.0</ele>
        <time>2016-07-25T14:06:35Z</time>
      </trkpt>
      <trkpt lat="41.368567" lon="-3.408217">
        <ele>2456.0</ele>
        <time>2016-07-25T14:06:37Z</time>
      </trkpt>
      <trkpt lat="41.368500" lon="-3.408400">
        <ele>2456.0</ele>
        <time>2016-07-25T14:06:39Z</time>
      </trkpt>
      <trkpt lat="41.368533" lon="-3.408550">
        <ele>2456.0</ele>
        <time>2016-07-25T14:06:41Z</time>
      </trkpt>
      <trkpt lat="41.368600" lon="-3.408683">
        <ele>2457.0</ele>
        <time>2016-07-25T14:06:43Z</time>
      </trkpt>
      <trkpt lat="41.368683" lon="-3.408800">
        <ele>2458.0</ele>
        <time>2016-07-25T14:06:45Z</time>
      </trkpt>
      <trkpt lat="41.368817" lon="-3.408867">
        <ele>2460.0</ele>
        <time>2016-07-25T14:06:47Z</time>
      </trkpt>
      <trkpt lat="41.368950" lon="-3.408867">
        <ele>2462.0</ele>
        <time>2016-07-25T14:06:49Z</time>
      </trkpt>
      <trkpt lat="41.369067" lon="-3.408817">
        <ele>2465.0</ele>
        <time>2016-07-25T14:06:51Z</time>
      </trkpt>
      <trkpt lat="41.369183" lon="-3.408717">
        <ele>2466.0</ele>
        <time>2016-07-25T14:06:53Z</time>
      </trkpt>
      <trkpt lat="41.369267" lon="-3.408533">
        <ele>2467.0</ele>
        <time>2016-07-25T14:06:55Z</time>
      </trkpt>
      <trkpt lat="41.369300" lon="-3.408300">
        <ele>2469.0</ele>
        <time>2016-07-25T14:06:57Z</time>
      </trkpt>
      <trkpt lat="41.369267" lon="-3.408033">
        <ele>2470.0</ele>
        <time>2016-07-25T14:06:59Z</time>
      </trkpt>
      <trkpt lat="41.369167" lon="-3.407750">
        <ele>2472.0</ele>
        <time>2016-07-25T14:07:01Z</time>
      </trkpt>
      <trkpt lat="41.368967" lon="-3.407567">
        <ele>2474.0</ele>
        <time>2016-07-25T14:07:03Z</time>
      </trkpt>
      <trkpt lat="41.368750" lon="-3.407517">
        <ele>2476.0</ele>
        <time>2016-07-25T14:07:05Z</time>
      </trkpt>
      <trkpt lat="41.368533" lon="-3.407583">
        <ele>2480.0</ele>
        <time>2016-07-25T14:07:07Z</time>
      </trkpt>
      <trkpt lat="41.368383" lon="-3.407700">
        <ele>2485.0</ele>
        <time>2016-07-25T14:07:09Z</time>
      </trkpt>
      <trkpt lat="41.368317" lon="-3.407883">
        <ele>2488.0</ele>
        <time>2016-07-25T14:07:11Z</time>
      </trkpt>
      <trkpt lat="41.368300" lon="-3.408083">
        <ele>2490.0</ele>
        <time>2016-07-25T14:07:13Z</time>
      </trkpt>
      <trkpt lat="41.368350" lon="-3.408233">
        <ele>2493.0</ele>
        <time>2016-07-25T14:07:15Z</time>
      </trkpt>
      <trkpt lat="41.368467" lon="-3.408300">
        <ele>2495.0</ele>
        <time>2016-07-25T14:07:17Z</time>
      </trkpt>
      <trkpt lat="41.368583" lon="-3.408300">
        <ele>2496.0</ele>
        <time>2016-07-25T14:07:19Z</time>
      </trkpt>
      <trkpt lat="41.368700" lon="-3.408233">
        <ele>2497.0</ele>
        <time>2016-07-25T14:07:21Z</time>
      </trkpt>
      <trkpt lat="41.368817" lon="-3.408133">
        <ele>2499.0</ele>
        <time>2016-07-25T14:07:23Z</time>
      </trkpt>
      <trkpt lat="41.368917" lon="-3.408033">
        <ele>2498.0</ele>
        <time>2016-07-25T14:07:25Z</time>
      </trkpt>
      <trkpt lat="41.369050" lon="-3.407933">
        <ele>2496.0</ele>
        <time>2016-07-25T14:07:27Z</time>
      </trkpt>
      <trkpt lat="41.369200" lon="-3.407850">
        <ele>2500.0</ele>
        <time>2016-07-25T14:07:29Z</time>
      </trkpt>
      <trkpt lat="41.369300" lon="-3.407783">
        <ele>2506.0</ele>
        <time>2016-07-25T14:07:31Z</time>
      </trkpt>
      <trkpt lat="41.369350" lon="-3.407650">
        <ele>2508.0</ele>
        <time>2016-07-25T14:07:33Z</time>
      </trkpt>
      <trkpt lat="41.369367" lon="-3.407467">
        <ele>2508.0</ele>
        <time>2016-07-25T14:07:35Z</time>
      </trkpt>
      <trkpt lat="41.369383" lon="-3.407250">
        <ele>2507.0</ele>
        <time>2016-07-25T14:07:37Z</time>
      </trkpt>
      <trkpt lat="41.369467" lon="-3.407100">
        <ele>2505.0</ele>
        <time>2016-07-25T14:07:39Z</time>
      </trkpt>
      <trkpt lat="41.369567" lon="-3.406967">
        <ele>2504.0</ele>
        <time>2016-07-25T14:07:41Z</time>
      </trkpt>
      <trkpt lat="41.369683" lon="-3.406867">
        <ele>2506.0</ele>
        <time>2016-07-25T14:07:43Z</time>
      </trkpt>
      <trkpt lat="41.369800" lon="-3.406800">
        <ele>2507.0</ele>
        <time>2016-07-25T14:07:45Z</time>
      </trkpt>
      <trkpt lat="41.369933" lon="-3.406767">
        <ele>2508.0</ele>
        <time>2016-07-25T14:07:47Z</time>
      </trkpt>
      <trkpt lat="41.370067" lon="-3.406717">
        <ele>2510.0</ele>
        <time>2016-07-25T14:07:49Z</time>
      </trkpt>
      <trkpt lat="41.370183" lon="-3.406667">
        <ele>2511.0</ele>
        <time>2016-07-25T14:07:51Z</time>
      </trkpt>
      <trkpt lat="41.370300" lon="-3.406600">
        <ele>2510.0</ele>
        <time>2016-07-25T14:07:53Z</time>
      </trkpt>
      <trkpt lat="41.370450" lon="-3.406533">
        <ele>2511.0</ele>
        <time>2016-07-25T14:07:55Z</time>
      </trkpt>
      <trkpt lat="41.370567" lon="-3.406450">
        <ele>2511.0</ele>
        <time>2016-07-25T14:07:57Z</time>
      </trkpt>
      <trkpt lat="41.370683" lon="-3.406367">
        <ele>2508.0</ele>
        <time>2016-07-25T14:07:59Z</time>
      </trkpt>
      <trkpt lat="41.370850" lon="-3.406250">
        <ele>2504.0</ele>
        <time>2016-07-25T14:08:01Z</time>
      </trkpt>
      <trkpt lat="41.371000" lon="-3.406133">
        <ele>2505.0</ele>
        <time>2016-07-25T14:08:03Z</time>
      </trkpt>
      <trkpt lat="41.371117" lon="-3.406050">
        <ele>2506.0</ele>
        <time>2016-07-25T14:08:05Z</time>
      </trkpt>
      <trkpt lat="41.371250" lon="-3.405950">
        <ele>2503.0</ele>
        <time>2016-07-25T14:08:07Z</time>
      </trkpt>
      <trkpt lat="41.371383" lon="-3.405883">
        <ele>2500.0</ele>
        <time>2016-07-25T14:08:09Z</time>
      </trkpt>
      <trkpt lat="41.371533" lon="-3.405817">
        <ele>2497.0</ele>
        <time>2016-07-25T14:08:11Z</time>
      </trkpt>
      <trkpt lat="41.371667" lon="-3.405750">
        <ele>2495.0</ele>
        <time>2016-07-25T14:08:13Z</time>
      </trkpt>
      <trkpt lat="41.371783" lon="-3.405700">
        <ele>2494.0</ele>
        <time>2016-07-25T14:08:15Z</time>
      </trkpt>
      <trkpt lat="41.371900" lon="-3.405650">
        <ele>2493.0</ele>
        <time>2016-07-25T14:08:17Z</time>
      </trkpt>
      <trkpt lat="41.372017" lon="-3.405567">
        <ele>2493.0</ele>
        <time>2016-07-25T14:08:19Z</time>
      </trkpt>
      <trkpt lat="41.372133" lon="-3.405467">
        <ele>2495.0</ele>
        <time>2016-07-25T14:08:21Z</time>
      </trkpt>
      <trkpt lat="41.372250" lon="-3.405383">
        <ele>2495.0</ele>
        <time>2016-07-25T14:08:23Z</time>
      </trkpt>
      <trkpt lat="41.372383" lon="-3.405300">
        <ele>2494.0</ele>
        <time>2016-07-25T14:08:25Z</time>
      </trkpt>
      <trkpt lat="41.372517" lon="-3.405183">
        <ele>2495.0</ele>
        <time>2016-07-25T14:08:27Z</time>
      </trkpt>
      <trkpt lat="41.372633" lon="-3.405083">
        <ele>2494.0</ele>
        <time>2016-07-25T14:08:29Z</time>
      </trkpt>
      <trkpt lat="41.372733" lon="-3.405017">
        <ele>2492.0</ele>
        <time>2016-07-25T14:08:31Z</time>
      </trkpt>
      <trkpt lat="41.372883" lon="-3.404933">
        <ele>2487.0</ele>
        <time>2016-07-25T14:08:33Z</time>
      </trkpt>
      <trkpt lat="41.373017" lon="-3.404833">
        <ele>2486.0</ele>
        <time>2016-07-25T14:08:35Z</time>
      </trkpt>
      <trkpt lat="41.373150" lon="-3.404750">
        <ele>2483.0</ele>
        <time>2016-07-25T14:08:37Z</time>
      </trkpt>
      <trkpt lat="41.373300" lon="-3.404667">
        <ele>2478.0</ele>
        <time>2016-07-25T14:08:39Z</time>
      </trkpt>
      <trkpt lat="41.373450" lon="-3.404550">
        <ele>2474.0</ele>
        <time>2016-07-25T14:08:41Z</time>
      </trkpt>
      <trkpt lat="41.373600" lon="-3.404400">
        <ele>2468.0</ele>
        <time>2016-07-25T14:08:43Z</time>
      </trkpt>
      <trkpt lat="41.373767" lon="-3.404233">
        <ele>2462.0</ele>
        <time>2016-07-25T14:08:45Z</time>
      </trkpt>
      <trkpt lat="41.373900" lon="-3.404083">
        <ele>2457.0</ele>
        <time>2016-07-25T14:08:47Z</time>
      </trkpt>
      <trkpt lat="41.374050" lon="-3.403983">
        <ele>2452.0</ele>
        <time>2016-07-25T14:08:49Z</time>
      </trkpt>
      <trkpt lat="41.374200" lon="-3.403900">
        <ele>2447.0</ele>
        <time>2016-07-25T14:08:51Z</time>
      </trkpt>
      <trkpt lat="41.374350" lon="-3.403783">
        <ele>2443.0</ele>
        <time>2016-07-25T14:08:53Z</time>
      </trkpt>
      <trkpt lat="41.374500" lon="-3.403650">
        <ele>2438.0</ele>
        <time>2016-07-25T14:08:55Z</time>
      </trkpt>
      <trkpt lat="41.374650" lon="-3.403483">
        <ele>2435.0</ele>
        <time>2016-07-25T14:08:57Z</time>
      </trkpt>
      <trkpt lat="41.374783" lon="-3.403333">
        <ele>2434.0</ele>
        <time>2016-07-25T14:08:59Z</time>
      </trkpt>
      <trkpt lat="41.374933" lon="-3.403183">
        <ele>2432.0</ele>
        <time>2016-07-25T14:09:01Z</time>
      </trkpt>
      <trkpt lat="41.375067" lon="-3.403050">
        <ele>2428.0</ele>
        <time>2016-07-25T14:09:03Z</time>
      </trkpt>
      <trkpt lat="41.375233" lon="-3.402900">
        <ele>2426.0</ele>
        <time>2016-07-25T14:09:05Z</time>
      </trkpt>
      <trkpt lat="41.375367" lon="-3.402767">
        <ele>2425.0</ele>
        <time>2016-07-25T14:09:07Z</time>
      </trkpt>
      <trkpt lat="41.375500" lon="-3.402650">
        <ele>2422.0</ele>
        <time>2016-07-25T14:09:09Z</time>
      </trkpt>
      <trkpt lat="41.375650" lon="-3.402517">
        <ele>2418.0</ele>
        <time>2016-07-25T14:09:11Z</time>
      </trkpt>
      <trkpt lat="41.375800" lon="-3.402383">
        <ele>2416.0</ele>
        <time>2016-07-25T14:09:13Z</time>
      </trkpt>
      <trkpt lat="41.375950" lon="-3.402267">
        <ele>2415.0</ele>
        <time>2016-07-25T14:09:15Z</time>
      </trkpt>
      <trkpt lat="41.376083" lon="-3.402133">
        <ele>2411.0</ele>
        <time>2016-07-25T14:09:17Z</time>
      </trkpt>
      <trkpt lat="41.376267" lon="-3.402000">
        <ele>2408.0</ele>
        <time>2016-07-25T14:09:19Z</time>
      </trkpt>
      <trkpt lat="41.376400" lon="-3.401883">
        <ele>2408.0</ele>
        <time>2016-07-25T14:09:21Z</time>
      </trkpt>
      <trkpt lat="41.376517" lon="-3.401767">
        <ele>2407.0</ele>
        <time>2016-07-25T14:09:23Z</time>
      </trkpt>
      <trkpt lat="41.376667" lon="-3.401667">
        <ele>2402.0</ele>
        <time>2016-07-25T14:09:25Z</time>
      </trkpt>
      <trkpt lat="41.376833" lon="-3.401550">
        <ele>2400.0</ele>
        <time>2016-07-25T14:09:27Z</time>
      </trkpt>
      <trkpt lat="41.376967" lon="-3.401417">
        <ele>2401.0</ele>
        <time>2016-07-25T14:09:29Z</time>
      </trkpt>
      <trkpt lat="41.377100" lon="-3.401317">
        <ele>2397.0</ele>
        <time>2016-07-25T14:09:31Z</time>
      </trkpt>
      <trkpt lat="41.377250" lon="-3.401200">
        <ele>2390.0</ele>
        <time>2016-07-25T14:09:33Z</time>
      </trkpt>
      <trkpt lat="41.377417" lon="-3.401083">
        <ele>2386.0</ele>
        <time>2016-07-25T14:09:35Z</time>
      </trkpt>
      <trkpt lat="41.377583" lon="-3.400967">
        <ele>2381.0</ele>
        <time>2016-07-25T14:09:37Z</time>
      </trkpt>
      <trkpt lat="41.377750" lon="-3.400833">
        <ele>2376.0</ele>
        <time>2016-07-25T14:09:39Z</time>
      </trkpt>
      <trkpt lat="41.377917" lon="-3.400717">
        <ele>2372.0</ele>
        <time>2016-07-25T14:09:41Z</time>
      </trkpt>
      <trkpt lat="41.378067" lon="-3.400617">
        <ele>2369.0</ele>
        <time>2016-07-25T14:09:43Z</time>
      </trkpt>
      <trkpt lat="41.378250" lon="-3.400483">
        <ele>2366.0</ele>
        <time>2016-07-25T14:09:45Z</time>
      </trkpt>
      <trkpt lat="41.378417" lon="-3.400350">
        <ele>2365.0</ele>
        <time>2016-07-25T14:09:47Z</time>
      </trkpt>
      <trkpt lat="41.378567" lon="-3.400233">
        <ele>2363.0</ele>
        <time>2016-07-25T14:09:49Z</time>
      </trkpt>
      <trkpt lat="41.378700" lon="-3.400117">
        <ele>2358.0</ele>
        <time>2016-07-25T14:09:51Z</time>
      </trkpt>
      <trkpt lat="41.378867" lon="-3.400000">
        <ele>2353.0</ele>
        <time>2016-07-25T14:09:53Z</time>
      </trkpt>
      <trkpt lat="41.379017" lon="-3.399917">
        <ele>2350.0</ele>
        <time>2016-07-25T14:09:55Z</time>
      </trkpt>
      <trkpt lat="41.379150" lon="-3.399817">
        <ele>2346.0</ele>
        <time>2016-07-25T14:09:57Z</time>
      </trkpt>
      <trkpt lat="41.379300" lon="-3.399717">
        <ele>2340.0</ele>
        <time>2016-07-25T14:09:59Z</time>
      </trkpt>
      <trkpt lat="41.379450" lon="-3.399600">
        <ele>2336.0</ele>
        <time>2016-07-25T14:10:01Z</time>
      </trkpt>
      <trkpt lat="41.379600" lon="-3.399500">
        <ele>2330.0</ele>
        <time>2016-07-25T14:10:03Z</time>
      </trkpt>
      <trkpt lat="41.379750" lon="-3.399417">
        <ele>2325.0</ele>
        <time>2016-07-25T14:10:05Z</time>
      </trkpt>
      <trkpt lat="41.379917" lon="-3.399333">
        <ele>2321.0</ele>
        <time>2016-07-25T14:10:07Z</time>
      </trkpt>
      <trkpt lat="41.380067" lon="-3.399217">
        <ele>2318.0</ele>
        <time>2016-07-25T14:10:09Z</time>
      </trkpt>
      <trkpt lat="41.380217" lon="-3.399083">
        <ele>2315.0</ele>
        <time>2016-07-25T14:10:11Z</time>
      </trkpt>
      <trkpt lat="41.380350" lon="-3.398917">
        <ele>2313.0</ele>
        <time>2016-07-25T14:10:13Z</time>
      </trkpt>
      <trkpt lat="41.380483" lon="-3.398750">
        <ele>2309.0</ele>
        <time>2016-07-25T14:10:15Z</time>
      </trkpt>
      <trkpt lat="41.380617" lon="-3.398600">
        <ele>2305.0</ele>
        <time>2016-07-25T14:10:17Z</time>
      </trkpt>
      <trkpt lat="41.380767" lon="-3.398467">
        <ele>2302.0</ele>
        <time>2016-07-25T14:10:19Z</time>
      </trkpt>
      <trkpt lat="41.380900" lon="-3.398350">
        <ele>2298.0</ele>
        <time>2016-07-25T14:10:21Z</time>
      </trkpt>
      <trkpt lat="41.381033" lon="-3.398200">
        <ele>2294.0</ele>
        <time>2016-07-25T14:10:23Z</time>
      </trkpt>
      <trkpt lat="41.381183" lon="-3.398067">
        <ele>2290.0</ele>
        <time>2016-07-25T14:10:25Z</time>
      </trkpt>
      <trkpt lat="41.381317" lon="-3.397967">
        <ele>2288.0</ele>
        <time>2016-07-25T14:10:27Z</time>
      </trkpt>
      <trkpt lat="41.381450" lon="-3.397867">
        <ele>2284.0</ele>
        <time>2016-07-25T14:10:29Z</time>
      </trkpt>
      <trkpt lat="41.381617" lon="-3.397783">
        <ele>2281.0</ele>
        <time>2016-07-25T14:10:31Z</time>
      </trkpt>
      <trkpt lat="41.381750" lon="-3.397683">
        <ele>2278.0</ele>
        <time>2016-07-25T14:10:33Z</time>
      </trkpt>
      <trkpt lat="41.381900" lon="-3.397583">
        <ele>2274.0</ele>
        <time>2016-07-25T14:10:35Z</time>
      </trkpt>
      <trkpt lat="41.382083" lon="-3.397467">
        <ele>2270.0</ele>
        <time>2016-07-25T14:10:37Z</time>
      </trkpt>
      <trkpt lat="41.382250" lon="-3.397367">
        <ele>2269.0</ele>
        <time>2016-07-25T14:10:39Z</time>
      </trkpt>
      <trkpt lat="41.382400" lon="-3.397283">
        <ele>2268.0</ele>
        <time>2016-07-25T14:10:41Z</time>
      </trkpt>
      <trkpt lat="41.382533" lon="-3.397217">
        <ele>2266.0</ele>
        <time>2016-07-25T14:10:43Z</time>
      </trkpt>
      <trkpt lat="41.382717" lon="-3.397133">
        <ele>2262.0</ele>
        <time>2016-07-25T14:10:45Z</time>
      </trkpt>
      <trkpt lat="41.382883" lon="-3.397067">
        <ele>2260.0</ele>
        <time>2016-07-25T14:10:47Z</time>
      </trkpt>
      <trkpt lat="41.383067" lon="-3.397017">
        <ele>2261.0</ele>
        <time>2016-07-25T14:10:49Z</time>
      </trkpt>
      <trkpt lat="41.383233" lon="-3.396933">
        <ele>2263.0</ele>
        <time>2016-07-25T14:10:51Z</time>
      </trkpt>
      <trkpt lat="41.383383" lon="-3.396850">
        <ele>2261.0</ele>
        <time>2016-07-25T14:10:53Z</time>
      </trkpt>
      <trkpt lat="41.383567" lon="-3.396733">
        <ele>2254.0</ele>
        <time>2016-07-25T14:10:55Z</time>
      </trkpt>
      <trkpt lat="41.383783" lon="-3.396650">
        <ele>2252.0</ele>
        <time>2016-07-25T14:10:57Z</time>
      </trkpt>
      <trkpt lat="41.383950" lon="-3.396567">
        <ele>2249.0</ele>
        <time>2016-07-25T14:10:59Z</time>
      </trkpt>
      <trkpt lat="41.384117" lon="-3.396467">
        <ele>2244.0</ele>
        <time>2016-07-25T14:11:01Z</time>
      </trkpt>
      <trkpt lat="41.384317" lon="-3.396367">
        <ele>2240.0</ele>
        <time>2016-07-25T14:11:03Z</time>
      </trkpt>
      <trkpt lat="41.384467" lon="-3.396250">
        <ele>2236.0</ele>
        <time>2016-07-25T14:11:05Z</time>
      </trkpt>
      <trkpt lat="41.384650" lon="-3.396133">
        <ele>2231.0</ele>
        <time>2016-07-25T14:11:07Z</time>
      </trkpt>
      <trkpt lat="41.384833" lon="-3.396017">
        <ele>2227.0</ele>
        <time>2016-07-25T14:11:09Z</time>
      </trkpt>
      <trkpt lat="41.385000" lon="-3.395883">
        <ele>2224.0</ele>
        <time>2016-07-25T14:11:11Z</time>
      </trkpt>
      <trkpt lat="41.385167" lon="-3.395783">
        <ele>2220.0</ele>
        <time>2016-07-25T14:11:13Z</time>
      </trkpt>
      <trkpt lat="41.385333" lon="-3.395667">
        <ele>2218.0</ele>
        <time>2016-07-25T14:11:15Z</time>
      </trkpt>
      <trkpt lat="41.385517" lon="-3.395583">
        <ele>2217.0</ele>
        <time>2016-07-25T14:11:17Z</time>
      </trkpt>
      <trkpt lat="41.385667" lon="-3.395483">
        <ele>2214.0</ele>
        <time>2016-07-25T14:11:19Z</time>
      </trkpt>
      <trkpt lat="41.385850" lon="-3.395350">
        <ele>2211.0</ele>
        <time>2016-07-25T14:11:21Z</time>
      </trkpt>
      <trkpt lat="41.386033" lon="-3.395200">
        <ele>2210.0</ele>
        <time>2016-07-25T14:11:23Z</time>
      </trkpt>
      <trkpt lat="41.386200" lon="-3.395083">
        <ele>2208.0</ele>
        <time>2016-07-25T14:11:25Z</time>
      </trkpt>
      <trkpt lat="41.386367" lon="-3.394950">
        <ele>2209.0</ele>
        <time>2016-07-25T14:11:27Z</time>
      </trkpt>
      <trkpt lat="41.386517" lon="-3.394850">
        <ele>2208.0</ele>
        <time>2016-07-25T14:11:29Z</time>
      </trkpt>
      <trkpt lat="41.386650" lon="-3.394750">
        <ele>2205.0</ele>
        <time>2016-07-25T14:11:31Z</time>
      </trkpt>
      <trkpt lat="41.386783" lon="-3.394633">
        <ele>2200.0</ele>
        <time>2016-07-25T14:11:33Z</time>
      </trkpt>
      <trkpt lat="41.386933" lon="-3.394533">
        <ele>2196.0</ele>
        <time>2016-07-25T14:11:35Z</time>
      </trkpt>
      <trkpt lat="41.387067" lon="-3.394433">
        <ele>2193.0</ele>
        <time>2016-07-25T14:11:37Z</time>
      </trkpt>
      <trkpt lat="41.387183" lon="-3.394300">
        <ele>2188.0</ele>
        <time>2016-07-25T14:11:39Z</time>
      </trkpt>
      <trkpt lat="41.387317" lon="-3.394150">
        <ele>2181.0</ele>
        <time>2016-07-25T14:11:41Z</time>
      </trkpt>
      <trkpt lat="41.387433" lon="-3.394017">
        <ele>2176.0</ele>
        <time>2016-07-25T14:11:43Z</time>
      </trkpt>
      <trkpt lat="41.387583" lon="-3.393900">
        <ele>2170.0</ele>
        <time>2016-07-25T14:11:45Z</time>
      </trkpt>
      <trkpt lat="41.387733" lon="-3.393783">
        <ele>2165.0</ele>
        <time>2016-07-25T14:11:47Z</time>
      </trkpt>
      <trkpt lat="41.387883" lon="-3.393650">
        <ele>2161.0</ele>
        <time>2016-07-25T14:11:49Z</time>
      </trkpt>
      <trkpt lat="41.388033" lon="-3.393533">
        <ele>2154.0</ele>
        <time>2016-07-25T14:11:51Z</time>
      </trkpt>
      <trkpt lat="41.388167" lon="-3.393400">
        <ele>2148.0</ele>
        <time>2016-07-25T14:11:53Z</time>
      </trkpt>
      <trkpt lat="41.388300" lon="-3.393267">
        <ele>2140.0</ele>
        <time>2016-07-25T14:11:55Z</time>
      </trkpt>
      <trkpt lat="41.388467" lon="-3.393133">
        <ele>2131.0</ele>
        <time>2016-07-25T14:11:57Z</time>
      </trkpt>
      <trkpt lat="41.388633" lon="-3.392983">
        <ele>2125.0</ele>
        <time>2016-07-25T14:11:59Z</time>
      </trkpt>
      <trkpt lat="41.388800" lon="-3.392883">
        <ele>2118.0</ele>
        <time>2016-07-25T14:12:01Z</time>
      </trkpt>
      <trkpt lat="41.389000" lon="-3.392817">
        <ele>2111.0</ele>
        <time>2016-07-25T14:12:03Z</time>
      </trkpt>
      <trkpt lat="41.389183" lon="-3.392700">
        <ele>2106.0</ele>
        <time>2016-07-25T14:12:05Z</time>
      </trkpt>
      <trkpt lat="41.389350" lon="-3.392583">
        <ele>2100.0</ele>
        <time>2016-07-25T14:12:07Z</time>
      </trkpt>
      <trkpt lat="41.389533" lon="-3.392467">
        <ele>2094.0</ele>
        <time>2016-07-25T14:12:09Z</time>
      </trkpt>
      <trkpt lat="41.389717" lon="-3.392367">
        <ele>2089.0</ele>
        <time>2016-07-25T14:12:11Z</time>
      </trkpt>
      <trkpt lat="41.389883" lon="-3.392400">
        <ele>2087.0</ele>
        <time>2016-07-25T14:12:13Z</time>
      </trkpt>
      <trkpt lat="41.390000" lon="-3.392400">
        <ele>2090.0</ele>
        <time>2016-07-25T14:12:15Z</time>
      </trkpt>
      <trkpt lat="41.390117" lon="-3.392383">
        <ele>2088.0</ele>
        <time>2016-07-25T14:12:17Z</time>
      </trkpt>
      <trkpt lat="41.390217" lon="-3.392383">
        <ele>2085.0</ele>
        <time>2016-07-25T14:12:19Z</time>
      </trkpt>
      <trkpt lat="41.390283" lon="-3.392333">
        <ele>2080.0</ele>
        <time>2016-07-25T14:12:21Z</time>
      </trkpt>
      <trkpt lat="41.390333" lon="-3.392250">
        <ele>2070.0</ele>
        <time>2016-07-25T14:12:23Z</time>
      </trkpt>
      <trkpt lat="41.390417" lon="-3.392150">
        <ele>2058.0</ele>
        <time>2016-07-25T14:12:25Z</time>
      </trkpt>
      <trkpt lat="41.390500" lon="-3.392033">
        <ele>2047.0</ele>
        <time>2016-07-25T14:12:27Z</time>
      </trkpt>
      <trkpt lat="41.390600" lon="-3.391900">
        <ele>2038.0</ele>
        <time>2016-07-25T14:12:29Z</time>
      </trkpt>
      <trkpt lat="41.390717" lon="-3.391783">
        <ele>2029.0</ele>
        <time>2016-07-25T14:12:31Z</time>
      </trkpt>
      <trkpt lat="41.390817" lon="-3.391683">
        <ele>2022.0</ele>
        <time>2016-07-25T14:12:33Z</time>
      </trkpt>
      <trkpt lat="41.390933" lon="-3.391600">
        <ele>2015.0</ele>
        <time>2016-07-25T14:12:35Z</time>
      </trkpt>
      <trkpt lat="41.391017" lon="-3.391583">
        <ele>2008.0</ele>
        <time>2016-07-25T14:12:37Z</time>
      </trkpt>
      <trkpt lat="41.391100" lon="-3.391650">
        <ele>2001.0</ele>
        <time>2016-07-25T14:12:39Z</time>
      </trkpt>
      <trkpt lat="41.391200" lon="-3.391717">
        <ele>1997.0</ele>
        <time>2016-07-25T14:12:41Z</time>
      </trkpt>
      <trkpt lat="41.391283" lon="-3.391783">
        <ele>1993.0</ele>
        <time>2016-07-25T14:12:43Z</time>
      </trkpt>
      <trkpt lat="41.391367" lon="-3.391867">
        <ele>1990.0</ele>
        <time>2016-07-25T14:12:45Z</time>
      </trkpt>
      <trkpt lat="41.391467" lon="-3.391950">
        <ele>1987.0</ele>
        <time>2016-07-25T14:12:47Z</time>
      </trkpt>
      <trkpt lat="41.391567" lon="-3.392033">
        <ele>1986.0</ele>
        <time>2016-07-25T14:12:49Z</time>
      </trkpt>
      <trkpt lat="41.391650" lon="-3.392100">
        <ele>1986.0</ele>
        <time>2016-07-25T14:12:51Z</time>
      </trkpt>
      <trkpt lat="41.391717" lon="-3.392167">
        <ele>1985.0</ele>
        <time>2016-07-25T14:12:53Z</time>
      </trkpt>
      <trkpt lat="41.391800" lon="-3.392233">
        <ele>1984.0</ele>
        <time>2016-07-25T14:12:55Z</time>
      </trkpt>
      <trkpt lat="41.391917" lon="-3.392300">
        <ele>1982.0</ele>
        <time>2016-07-25T14:12:57Z</time>
      </trkpt>
      <trkpt lat="41.392017" lon="-3.392383">
        <ele>1982.0</ele>
        <time>2016-07-25T14:12:59Z</time>
      </trkpt>
      <trkpt lat="41.392117" lon="-3.392450">
        <ele>1983.0</ele>
        <time>2016-07-25T14:13:01Z</time>
      </trkpt>
      <trkpt lat="41.392200" lon="-3.392517">
        <ele>1984.0</ele>
        <time>2016-07-25T14:13:03Z</time>
      </trkpt>
      <trkpt lat="41.392283" lon="-3.392600">
        <ele>1985.0</ele>
        <time>2016-07-25T14:13:05Z</time>
      </trkpt>
      <trkpt lat="41.392383" lon="-3.392683">
        <ele>1987.0</ele>
        <time>2016-07-25T14:13:07Z</time>
      </trkpt>
      <trkpt lat="41.392483" lon="-3.392717">
        <ele>1989.0</ele>
        <time>2016-07-25T14:13:09Z</time>
      </trkpt>
      <trkpt lat="41.392567" lon="-3.392717">
        <ele>1992.0</ele>
        <time>2016-07-25T14:13:11Z</time>
      </trkpt>
      <trkpt lat="41.392650" lon="-3.392667">
        <ele>1994.0</ele>
        <time>2016-07-25T14:13:13Z</time>
      </trkpt>
      <trkpt lat="41.392750" lon="-3.392550">
        <ele>1994.0</ele>
        <time>2016-07-25T14:13:15Z</time>
      </trkpt>
      <trkpt lat="41.392833" lon="-3.392350">
        <ele>1993.0</ele>
        <time>2016-07-25T14:13:17Z</time>
      </trkpt>
      <trkpt lat="41.392867" lon="-3.392083">
        <ele>1994.0</ele>
        <time>2016-07-25T14:13:19Z</time>
      </trkpt>
      <trkpt lat="41.392833" lon="-3.391783">
        <ele>1994.0</ele>
        <time>2016-07-25T14:13:21Z</time>
      </trkpt>
      <trkpt lat="41.392733" lon="-3.391483">
        <ele>1995.0</ele>
        <time>2016-07-25T14:13:23Z</time>
      </trkpt>
      <trkpt lat="41.392567" lon="-3.391200">
        <ele>1996.0</ele>
        <time>2016-07-25T14:13:25Z</time>
      </trkpt>
      <trkpt lat="41.392383" lon="-3.391000">
        <ele>1999.0</ele>
        <time>2016-07-25T14:13:27Z</time>
      </trkpt>
      <trkpt lat="41.392183" lon="-3.390883">
        <ele>2000.0</ele>
        <time>2016-07-25T14:13:29Z</time>
      </trkpt>
      <trkpt lat="41.391967" lon="-3.390817">
        <ele>2000.0</ele>
        <time>2016-07-25T14:13:31Z</time>
      </trkpt>
      <trkpt lat="41.391767" lon="-3.390833">
        <ele>2003.0</ele>
        <time>2016-07-25T14:13:33Z</time>
      </trkpt>
      <trkpt lat="41.391600" lon="-3.390883">
        <ele>2005.0</ele>
        <time>2016-07-25T14:13:35Z</time>
      </trkpt>
      <trkpt lat="41.391433" lon="-3.390983">
        <ele>2005.0</ele>
        <time>2016-07-25T14:13:37Z</time>
      </trkpt>
      <trkpt lat="41.391317" lon="-3.391150">
        <ele>2005.0</ele>
        <time>2016-07-25T14:13:39Z</time>
      </trkpt>
      <trkpt lat="41.391267" lon="-3.391317">
        <ele>2008.0</ele>
        <time>2016-07-25T14:13:41Z</time>
      </trkpt>
      <trkpt lat="41.391283" lon="-3.391417">
        <ele>2011.0</ele>
        <time>2016-07-25T14:13:43Z</time>
      </trkpt>
      <trkpt lat="41.391350" lon="-3.391467">
        <ele>2011.0</ele>
        <time>2016-07-25T14:13:45Z</time>
      </trkpt>
      <trkpt lat="41.391433" lon="-3.391483">
        <ele>2011.0</ele>
        <time>2016-07-25T14:13:47Z</time>
      </trkpt>
      <trkpt lat="41.391517" lon="-3.391433">
        <ele>2013.0</ele>
        <time>2016-07-25T14:13:49Z</time>
      </trkpt>
      <trkpt lat="41.391583" lon="-3.391333">
        <ele>2014.0</ele>
        <time>2016-07-25T14:13:51Z</time>
      </trkpt>
      <trkpt lat="41.391650" lon="-3.391183">
        <ele>2013.0</ele>
        <time>2016-07-25T14:13:53Z</time>
      </trkpt>
      <trkpt lat="41.391700" lon="-3.390950">
        <ele>2010.0</ele>
        <time>2016-07-25T14:13:55Z</time>
      </trkpt>
      <trkpt lat="41.391717" lon="-3.390650">
        <ele>2008.0</ele>
        <time>2016-07-25T14:13:57Z</time>
      </trkpt>
      <trkpt lat="41.391750" lon="-3.390367">
        <ele>2010.0</ele>
        <time>2016-07-25T14:13:59Z</time>
      </trkpt>
      <trkpt lat="41.391700" lon="-3.390100">
        <ele>2010.0</ele>
        <time>2016-07-25T14:14:01Z</time>
      </trkpt>
      <trkpt lat="41.391533" lon="-3.389817">
        <ele>2007.0</ele>
        <time>2016-07-25T14:14:03Z</time>
      </trkpt>
      <trkpt lat="41.391300" lon="-3.389617">
        <ele>2006.0</ele>
        <time>2016-07-25T14:14:05Z</time>
      </trkpt>
      <trkpt lat="41.391050" lon="-3.389517">
        <ele>2008.0</ele>
        <time>2016-07-25T14:14:07Z</time>
      </trkpt>
      <trkpt lat="41.390833" lon="-3.389533">
        <ele>2010.0</ele>
        <time>2016-07-25T14:14:09Z</time>
      </trkpt>
      <trkpt lat="41.390667" lon="-3.389667">
        <ele>2010.0</ele>
        <time>2016-07-25T14:14:11Z</time>
      </trkpt>
      <trkpt lat="41.390550" lon="-3.389833">
        <ele>2012.0</ele>
        <time>2016-07-25T14:14:13Z</time>
      </trkpt>
      <trkpt lat="41.390483" lon="-3.389967">
        <ele>2014.0</ele>
        <time>2016-07-25T14:14:15Z</time>
      </trkpt>
      <trkpt lat="41.390467" lon="-3.390067">
        <ele>2014.0</ele>
        <time>2016-07-25T14:14:17Z</time>
      </trkpt>
      <trkpt lat="41.390517" lon="-3.390150">
        <ele>2011.0</ele>
        <time>2016-07-25T14:14:19Z</time>
      </trkpt>
      <trkpt lat="41.390567" lon="-3.390200">
        <ele>2010.0</ele>
        <time>2016-07-25T14:14:21Z</time>
      </trkpt>
      <trkpt lat="41.390633" lon="-3.390217">
        <ele>2008.0</ele>
        <time>2016-07-25T14:14:23Z</time>
      </trkpt>
      <trkpt lat="41.390733" lon="-3.390217">
        <ele>2003.0</ele>
        <time>2016-07-25T14:14:25Z</time>
      </trkpt>
      <trkpt lat="41.390850" lon="-3.390233">
        <ele>2002.0</ele>
        <time>2016-07-25T14:14:27Z</time>
      </trkpt>
      <trkpt lat="41.390917" lon="-3.390233">
        <ele>2002.0</ele>
        <time>2016-07-25T14:14:29Z</time>
      </trkpt>
      <trkpt lat="41.391000" lon="-3.390217">
        <ele>1997.0</ele>
        <time>2016-07-25T14:14:31Z</time>
      </trkpt>
      <trkpt lat="41.391100" lon="-3.390233">
        <ele>1992.0</ele>
        <time>2016-07-25T14:14:33Z</time>
      </trkpt>
      <trkpt lat="41.391183" lon="-3.390283">
        <ele>1989.0</ele>
        <time>2016-07-25T14:14:35Z</time>
      </trkpt>
      <trkpt lat="41.391233" lon="-3.390300">
        <ele>1987.0</ele>
        <time>2016-07-25T14:14:37Z</time>
      </trkpt>
      <trkpt lat="41.391317" lon="-3.390317">
        <ele>1981.0</ele>
        <time>2016-07-25T14:14:39Z</time>
      </trkpt>
      <trkpt lat="41.391417" lon="-3.390333">
        <ele>1980.0</ele>
        <time>2016-07-25T14:14:41Z</time>
      </trkpt>
      <trkpt lat="41.391483" lon="-3.390350">
        <ele>1980.0</ele>
        <time>2016-07-25T14:14:43Z</time>
      </trkpt>
      <trkpt lat="41.391517" lon="-3.390367">
        <ele>1976.0</ele>
        <time>2016-07-25T14:14:45Z</time>
      </trkpt>
      <trkpt lat="41.391600" lon="-3.390417">
        <ele>1968.0</ele>
        <time>2016-07-25T14:14:47Z</time>
      </trkpt>
      <trkpt lat="41.391667" lon="-3.390483">
        <ele>1966.0</ele>
        <time>2016-07-25T14:14:49Z</time>
      </trkpt>
      <trkpt lat="41.391717" lon="-3.390500">
        <ele>1964.0</ele>
        <time>2016-07-25T14:14:51Z</time>
      </trkpt>
      <trkpt lat="41.391767" lon="-3.390483">
        <ele>1956.0</ele>
        <time>2016-07-25T14:14:53Z</time>
      </trkpt>
      <trkpt lat="41.391867" lon="-3.390517">
        <ele>1948.0</ele>
        <time>2016-07-25T14:14:55Z</time>
      </trkpt>
      <trkpt lat="41.391933" lon="-3.390533">
        <ele>1945.0</ele>
        <time>2016-07-25T14:14:57Z</time>
      </trkpt>
      <trkpt lat="41.392000" lon="-3.390533">
        <ele>1942.0</ele>
        <time>2016-07-25T14:14:59Z</time>
      </trkpt>
      <trkpt lat="41.392083" lon="-3.390517">
        <ele>1938.0</ele>
        <time>2016-07-25T14:15:01Z</time>
      </trkpt>
      <trkpt lat="41.392150" lon="-3.390533">
        <ele>1934.0</ele>
        <time>2016-07-25T14:15:03Z</time>
      </trkpt>
      <trkpt lat="41.392233" lon="-3.390550">
        <ele>1930.0</ele>
        <time>2016-07-25T14:15:05Z</time>
      </trkpt>
      <trkpt lat="41.392333" lon="-3.390600">
        <ele>1927.0</ele>
        <time>2016-07-25T14:15:07Z</time>
      </trkpt>
      <trkpt lat="41.392417" lon="-3.390617">
        <ele>1924.0</ele>
        <time>2016-07-25T14:15:09Z</time>
      </trkpt>
      <trkpt lat="41.392517" lon="-3.390617">
        <ele>1920.0</ele>
        <time>2016-07-25T14:15:11Z</time>
      </trkpt>
      <trkpt lat="41.392633" lon="-3.390583">
        <ele>1916.0</ele>
        <time>2016-07-25T14:15:13Z</time>
      </trkpt>
      <trkpt lat="41.392750" lon="-3.390550">
        <ele>1915.0</ele>
        <time>2016-07-25T14:15:15Z</time>
      </trkpt>
      <trkpt lat="41.392850" lon="-3.390483">
        <ele>1913.0</ele>
        <time>2016-07-25T14:15:17Z</time>
      </trkpt>
      <trkpt lat="41.392967" lon="-3.390417">
        <ele>1908.0</ele>
        <time>2016-07-25T14:15:19Z</time>
      </trkpt>
      <trkpt lat="41.393083" lon="-3.390383">
        <ele>1905.0</ele>
        <time>2016-07-25T14:15:21Z</time>
      </trkpt>
      <trkpt lat="41.393200" lon="-3.390333">
        <ele>1904.0</ele>
        <time>2016-07-25T14:15:23Z</time>
      </trkpt>
      <trkpt lat="41.393317" lon="-3.390267">
        <ele>1902.0</ele>
        <time>2016-07-25T14:15:25Z</time>
      </trkpt>
      <trkpt lat="41.393450" lon="-3.390217">
        <ele>1902.0</ele>
        <time>2016-07-25T14:15:27Z</time>
      </trkpt>
      <trkpt lat="41.393567" lon="-3.390150">
        <ele>1903.0</ele>
        <time>2016-07-25T14:15:29Z</time>
      </trkpt>
      <trkpt lat="41.393700" lon="-3.390083">
        <ele>1902.0</ele>
        <time>2016-07-25T14:15:31Z</time>
      </trkpt>
      <trkpt lat="41.393833" lon="-3.390050">
        <ele>1905.0</ele>
        <time>2016-07-25T14:15:33Z</time>
      </trkpt>
      <trkpt lat="41.393950" lon="-3.390017">
        <ele>1911.0</ele>
        <time>2016-07-25T14:15:35Z</time>
      </trkpt>
      <trkpt lat="41.394050" lon="-3.389967">
        <ele>1914.0</ele>
        <time>2016-07-25T14:15:37Z</time>
      </trkpt>
      <trkpt lat="41.394133" lon="-3.389783">
        <ele>1913.0</ele>
        <time>2016-07-25T14:15:39Z</time>
      </trkpt>
      <trkpt lat="41.394200" lon="-3.389500">
        <ele>1913.0</ele>
        <time>2016-07-25T14:15:41Z</time>
      </trkpt>
      <trkpt lat="41.394167" lon="-3.389200">
        <ele>1916.0</ele>
        <time>2016-07-25T14:15:43Z</time>
      </trkpt>
      <trkpt lat="41.394067" lon="-3.388867">
        <ele>1918.0</ele>
        <time>2016-07-25T14:15:45Z</time>
      </trkpt>
      <trkpt lat="41.393917" lon="-3.388567">
        <ele>1920.0</ele>
        <time>2016-07-25T14:15:47Z</time>
      </trkpt>
      <trkpt lat="41.393700" lon="-3.388350">
        <ele>1921.0</ele>
        <time>2016-07-25T14:15:49Z</time>
      </trkpt>
      <trkpt lat="41.393450" lon="-3.388200">
        <ele>1924.0</ele>
        <time>2016-07-25T14:15:51Z</time>
      </trkpt>
      <trkpt lat="41.393233" lon="-3.388133">
        <ele>1928.0</ele>
        <time>2016-07-25T14:15:53Z</time>
      </trkpt>
      <trkpt lat="41.393033" lon="-3.388133">
        <ele>1930.0</ele>
        <time>2016-07-25T14:15:55Z</time>
      </trkpt>
      <trkpt lat="41.392867" lon="-3.388217">
        <ele>1932.0</ele>
        <time>2016-07-25T14:15:57Z</time>
      </trkpt>
      <trkpt lat="41.392767" lon="-3.388317">
        <ele>1934.0</ele>
        <time>2016-07-25T14:15:59Z</time>
      </trkpt>
      <trkpt lat="41.392733" lon="-3.388417">
        <ele>1934.0</ele>
        <time>2016-07-25T14:16:01Z</time>
      </trkpt>
      <trkpt lat="41.392750" lon="-3.388533">
        <ele>1935.0</ele>
        <time>2016-07-25T14:16:03Z</time>
      </trkpt>
      <trkpt lat="41.392800" lon="-3.388633">
        <ele>1936.0</ele>
        <time>2016-07-25T14:16:05Z</time>
      </trkpt>
      <trkpt lat="41.392850" lon="-3.388717">
        <ele>1939.0</ele>
        <time>2016-07-25T14:16:07Z</time>
      </trkpt>
      <trkpt lat="41.392917" lon="-3.388767">
        <ele>1941.0</ele>
        <time>2016-07-25T14:16:09Z</time>
      </trkpt>
      <trkpt lat="41.393000" lon="-3.388800">
        <ele>1944.0</ele>
        <time>2016-07-25T14:16:11Z</time>
      </trkpt>
      <trkpt lat="41.393083" lon="-3.388800">
        <ele>1948.0</ele>
        <time>2016-07-25T14:16:13Z</time>
      </trkpt>
      <trkpt lat="41.393167" lon="-3.388750">
        <ele>1950.0</ele>
        <time>2016-07-25T14:16:15Z</time>
      </trkpt>
      <trkpt lat="41.393250" lon="-3.388650">
        <ele>1952.0</ele>
        <time>2016-07-25T14:16:17Z</time>
      </trkpt>
      <trkpt lat="41.393333" lon="-3.388483">
        <ele>1955.0</ele>
        <time>2016-07-25T14:16:19Z</time>
      </trkpt>
      <trkpt lat="41.393367" lon="-3.388267">
        <ele>1960.0</ele>
        <time>2016-07-25T14:16:21Z</time>
      </trkpt>
      <trkpt lat="41.393367" lon="-3.388000">
        <ele>1961.0</ele>
        <time>2016-07-25T14:16:23Z</time>
      </trkpt>
      <trkpt lat="41.393300" lon="-3.387633">
        <ele>1961.0</ele>
        <time>2016-07-25T14:16:25Z</time>
      </trkpt>
      <trkpt lat="41.393100" lon="-3.387317">
        <ele>1962.0</ele>
        <time>2016-07-25T14:16:27Z</time>
      </trkpt>
      <trkpt lat="41.392800" lon="-3.387150">
        <ele>1963.0</ele>
        <time>2016-07-25T14:16:29Z</time>
      </trkpt>
      <trkpt lat="41.392550" lon="-3.387017">
        <ele>1969.0</ele>
        <time>2016-07-25T14:16:31Z</time>
      </trkpt>
      <trkpt lat="41.392350" lon="-3.386917">
        <ele>1971.0</ele>
        <time>2016-07-25T14:16:33Z</time>
      </trkpt>
      <trkpt lat="41.392100" lon="-3.386883">
        <ele>1970.0</ele>
        <time>2016-07-25T14:16:35Z</time>
      </trkpt>
      <trkpt lat="41.391883" lon="-3.386950">
        <ele>1971.0</ele>
        <time>2016-07-25T14:16:37Z</time>
      </trkpt>
      <trkpt lat="41.391733" lon="-3.387067">
        <ele>1973.0</ele>
        <time>2016-07-25T14:16:39Z</time>
      </trkpt>
      <trkpt lat="41.391633" lon="-3.387200">
        <ele>1975.0</ele>
        <time>2016-07-25T14:16:41Z</time>
      </trkpt>
      <trkpt lat="41.391600" lon="-3.387350">
        <ele>1978.0</ele>
        <time>2016-07-25T14:16:43Z</time>
      </trkpt>
      <trkpt lat="41.391600" lon="-3.387483">
        <ele>1983.0</ele>
        <time>2016-07-25T14:16:45Z</time>
      </trkpt>
      <trkpt lat="41.391650" lon="-3.387567">
        <ele>1986.0</ele>
        <time>2016-07-25T14:16:47Z</time>
      </trkpt>
      <trkpt lat="41.391733" lon="-3.387583">
        <ele>1988.0</ele>
        <time>2016-07-25T14:16:49Z</time>
      </trkpt>
      <trkpt lat="41.391817" lon="-3.387517">
        <ele>1991.0</ele>
        <time>2016-07-25T14:16:51Z</time>
      </trkpt>
      <trkpt lat="41.391917" lon="-3.387400">
        <ele>1991.0</ele>
        <time>2016-07-25T14:16:53Z</time>
      </trkpt>
      <trkpt lat="41.392017" lon="-3.387167">
        <ele>1992.0</ele>
        <time>2016-07-25T14:16:55Z</time>
      </trkpt>
      <trkpt lat="41.392017" lon="-3.386883">
        <ele>1994.0</ele>
        <time>2016-07-25T14:16:57Z</time>
      </trkpt>
      <trkpt lat="41.391983" lon="-3.386567">
        <ele>1994.0</ele>
        <time>2016-07-25T14:16:59Z</time>
      </trkpt>
      <trkpt lat="41.391883" lon="-3.386217">
        <ele>1994.0</ele>
        <time>2016-07-25T14:17:01Z</time>
      </trkpt>
      <trkpt lat="41.391700" lon="-3.385900">
        <ele>1994.0</ele>
        <time>2016-07-25T14:17:03Z</time>
      </trkpt>
      <trkpt lat="41.391433" lon="-3.385700">
        <ele>1996.0</ele>
        <time>2016-07-25T14:17:05Z</time>
      </trkpt>
      <trkpt lat="41.391200" lon="-3.385550">
        <ele>1999.0</ele>
        <time>2016-07-25T14:17:07Z</time>
      </trkpt>
      <trkpt lat="41.390950" lon="-3.385467">
        <ele>2000.0</ele>
        <time>2016-07-25T14:17:09Z</time>
      </trkpt>
      <trkpt lat="41.390700" lon="-3.385450">
        <ele>2000.0</ele>
        <time>2016-07-25T14:17:11Z</time>
      </trkpt>
      <trkpt lat="41.390483" lon="-3.385500">
        <ele>2001.0</ele>
        <time>2016-07-25T14:17:13Z</time>
      </trkpt>
      <trkpt lat="41.390267" lon="-3.385583">
        <ele>2003.0</ele>
        <time>2016-07-25T14:17:15Z</time>
      </trkpt>
      <trkpt lat="41.390100" lon="-3.385667">
        <ele>2006.0</ele>
        <time>2016-07-25T14:17:17Z</time>
      </trkpt>
      <trkpt lat="41.390000" lon="-3.385800">
        <ele>2007.0</ele>
        <time>2016-07-25T14:17:19Z</time>
      </trkpt>
      <trkpt lat="41.389933" lon="-3.385950">
        <ele>2008.0</ele>
        <time>2016-07-25T14:17:21Z</time>
      </trkpt>
      <trkpt lat="41.389933" lon="-3.386083">
        <ele>2013.0</ele>
        <time>2016-07-25T14:17:23Z</time>
      </trkpt>
      <trkpt lat="41.389933" lon="-3.386167">
        <ele>2018.0</ele>
        <time>2016-07-25T14:17:25Z</time>
      </trkpt>
      <trkpt lat="41.389967" lon="-3.386233">
        <ele>2020.0</ele>
        <time>2016-07-25T14:17:27Z</time>
      </trkpt>
      <trkpt lat="41.390050" lon="-3.386233">
        <ele>2021.0</ele>
        <time>2016-07-25T14:17:29Z</time>
      </trkpt>
      <trkpt lat="41.390133" lon="-3.386133">
        <ele>2023.0</ele>
        <time>2016-07-25T14:17:31Z</time>
      </trkpt>
      <trkpt lat="41.390200" lon="-3.385950">
        <ele>2025.0</ele>
        <time>2016-07-25T14:17:33Z</time>
      </trkpt>
      <trkpt lat="41.390217" lon="-3.385700">
        <ele>2029.0</ele>
        <time>2016-07-25T14:17:35Z</time>
      </trkpt>
      <trkpt lat="41.390183" lon="-3.385383">
        <ele>2031.0</ele>
        <time>2016-07-25T14:17:37Z</time>
      </trkpt>
      <trkpt lat="41.390067" lon="-3.385050">
        <ele>2033.0</ele>
        <time>2016-07-25T14:17:39Z</time>
      </trkpt>
      <trkpt lat="41.389850" lon="-3.384783">
        <ele>2033.0</ele>
        <time>2016-07-25T14:17:41Z</time>
      </trkpt>
      <trkpt lat="41.389600" lon="-3.384633">
        <ele>2035.0</ele>
        <time>2016-07-25T14:17:43Z</time>
      </trkpt>
      <trkpt lat="41.389367" lon="-3.384533">
        <ele>2036.0</ele>
        <time>2016-07-25T14:17:45Z</time>
      </trkpt>
      <trkpt lat="41.389133" lon="-3.384500">
        <ele>2035.0</ele>
        <time>2016-07-25T14:17:47Z</time>
      </trkpt>
      <trkpt lat="41.388900" lon="-3.384567">
        <ele>2036.0</ele>
        <time>2016-07-25T14:17:49Z</time>
      </trkpt>
      <trkpt lat="41.388767" lon="-3.384683">
        <ele>2038.0</ele>
        <time>2016-07-25T14:17:51Z</time>
      </trkpt>
      <trkpt lat="41.388700" lon="-3.384817">
        <ele>2039.0</ele>
        <time>2016-07-25T14:17:53Z</time>
      </trkpt>
      <trkpt lat="41.388667" lon="-3.384967">
        <ele>2040.0</ele>
        <time>2016-07-25T14:17:55Z</time>
      </trkpt>
      <trkpt lat="41.388633" lon="-3.385117">
        <ele>2042.0</ele>
        <time>2016-07-25T14:17:57Z</time>
      </trkpt>
      <trkpt lat="41.388633" lon="-3.385250">
        <ele>2045.0</ele>
        <time>2016-07-25T14:17:59Z</time>
      </trkpt>
      <trkpt lat="41.388650" lon="-3.385333">
        <ele>2047.0</ele>
        <time>2016-07-25T14:18:01Z</time>
      </trkpt>
      <trkpt lat="41.388700" lon="-3.385400">
        <ele>2050.0</ele>
        <time>2016-07-25T14:18:03Z</time>
      </trkpt>
      <trkpt lat="41.388783" lon="-3.385417">
        <ele>2053.0</ele>
        <time>2016-07-25T14:18:05Z</time>
      </trkpt>
      <trkpt lat="41.388883" lon="-3.385383">
        <ele>2058.0</ele>
        <time>2016-07-25T14:18:07Z</time>
      </trkpt>
      <trkpt lat="41.388967" lon="-3.385350">
        <ele>2063.0</ele>
        <time>2016-07-25T14:18:09Z</time>
      </trkpt>
      <trkpt lat="41.389033" lon="-3.385250">
        <ele>2067.0</ele>
        <time>2016-07-25T14:18:11Z</time>
      </trkpt>
      <trkpt lat="41.389117" lon="-3.385050">
        <ele>2070.0</ele>
        <time>2016-07-25T14:18:13Z</time>
      </trkpt>
      <trkpt lat="41.389150" lon="-3.384817">
        <ele>2077.0</ele>
        <time>2016-07-25T14:18:15Z</time>
      </trkpt>
      <trkpt lat="41.389133" lon="-3.384550">
        <ele>2083.0</ele>
        <time>2016-07-25T14:18:17Z</time>
      </trkpt>
      <trkpt lat="41.389050" lon="-3.384267">
        <ele>2085.0</ele>
        <time>2016-07-25T14:18:19Z</time>
      </trkpt>
      <trkpt lat="41.388883" lon="-3.383983">
        <ele>2085.0</ele>
        <time>2016-07-25T14:18:21Z</time>
      </trkpt>
      <trkpt lat="41.388617" lon="-3.383783">
        <ele>2086.0</ele>
        <time>2016-07-25T14:18:23Z</time>
      </trkpt>
      <trkpt lat="41.388317" lon="-3.383733">
        <ele>2089.0</ele>
        <time>2016-07-25T14:18:25Z</time>
      </trkpt>
      <trkpt lat="41.388083" lon="-3.383733">
        <ele>2095.0</ele>
        <time>2016-07-25T14:18:27Z</time>
      </trkpt>
      <trkpt lat="41.387883" lon="-3.383800">
        <ele>2097.0</ele>
        <time>2016-07-25T14:18:29Z</time>
      </trkpt>
      <trkpt lat="41.387717" lon="-3.383950">
        <ele>2098.0</ele>
        <time>2016-07-25T14:18:31Z</time>
      </trkpt>
      <trkpt lat="41.387550" lon="-3.384117">
        <ele>2102.0</ele>
        <time>2016-07-25T14:18:33Z</time>
      </trkpt>
      <trkpt lat="41.387417" lon="-3.384250">
        <ele>2106.0</ele>
        <time>2016-07-25T14:18:35Z</time>
      </trkpt>
      <trkpt lat="41.387283" lon="-3.384417">
        <ele>2107.0</ele>
        <time>2016-07-25T14:18:37Z</time>
      </trkpt>
      <trkpt lat="41.387217" lon="-3.384600">
        <ele>2109.0</ele>
        <time>2016-07-25T14:18:39Z</time>
      </trkpt>
      <trkpt lat="41.387167" lon="-3.384783">
        <ele>2114.0</ele>
        <time>2016-07-25T14:18:41Z</time>
      </trkpt>
      <trkpt lat="41.387150" lon="-3.384933">
        <ele>2119.0</ele>
        <time>2016-07-25T14:18:43Z</time>
      </trkpt>
      <trkpt lat="41.387133" lon="-3.385100">
        <ele>2124.0</ele>
        <time>2016-07-25T14:18:45Z</time>
      </trkpt>
      <trkpt lat="41.387167" lon="-3.385250">
        <ele>2130.0</ele>
        <time>2016-07-25T14:18:47Z</time>
      </trkpt>
      <trkpt lat="41.387217" lon="-3.385367">
        <ele>2135.0</ele>
        <time>2016-07-25T14:18:49Z</time>
      </trkpt>
      <trkpt lat="41.387300" lon="-3.385400">
        <ele>2138.0</ele>
        <time>2016-07-25T14:18:51Z</time>
      </trkpt>
      <trkpt lat="41.387417" lon="-3.385367">
        <ele>2142.0</ele>
        <time>2016-07-25T14:18:53Z</time>
      </trkpt>
      <trkpt lat="41.387517" lon="-3.385250">
        <ele>2146.0</ele>
        <time>2016-07-25T14:18:55Z</time>
      </trkpt>
      <trkpt lat="41.387567" lon="-3.385050">
        <ele>2149.0</ele>
        <time>2016-07-25T14:18:57Z</time>
      </trkpt>
      <trkpt lat="41.387583" lon="-3.384850">
        <ele>2152.0</ele>
        <time>2016-07-25T14:18:59Z</time>
      </trkpt>
      <trkpt lat="41.387533" lon="-3.384600">
        <ele>2149.0</ele>
        <time>2016-07-25T14:19:01Z</time>
      </trkpt>
      <trkpt lat="41.387367" lon="-3.384333">
        <ele>2146.0</ele>
        <time>2016-07-25T14:19:03Z</time>
      </trkpt>
      <trkpt lat="41.387150" lon="-3.384133">
        <ele>2152.0</ele>
        <time>2016-07-25T14:19:05Z</time>
      </trkpt>
      <trkpt lat="41.386950" lon="-3.384117">
        <ele>2155.0</ele>
        <time>2016-07-25T14:19:07Z</time>
      </trkpt>
      <trkpt lat="41.386750" lon="-3.384217">
        <ele>2157.0</ele>
        <time>2016-07-25T14:19:09Z</time>
      </trkpt>
      <trkpt lat="41.386600" lon="-3.384350">
        <ele>2161.0</ele>
        <time>2016-07-25T14:19:11Z</time>
      </trkpt>
      <trkpt lat="41.386433" lon="-3.384500">
        <ele>2167.0</ele>
        <time>2016-07-25T14:19:13Z</time>
      </trkpt>
      <trkpt lat="41.386300" lon="-3.384650">
        <ele>2172.0</ele>
        <time>2016-07-25T14:19:15Z</time>
      </trkpt>
      <trkpt lat="41.386217" lon="-3.384800">
        <ele>2177.0</ele>
        <time>2016-07-25T14:19:17Z</time>
      </trkpt>
      <trkpt lat="41.386200" lon="-3.384950">
        <ele>2176.0</ele>
        <time>2016-07-25T14:19:19Z</time>
      </trkpt>
      <trkpt lat="41.386217" lon="-3.385150">
        <ele>2175.0</ele>
        <time>2016-07-25T14:19:21Z</time>
      </trkpt>
      <trkpt lat="41.386217" lon="-3.385317">
        <ele>2179.0</ele>
        <time>2016-07-25T14:19:23Z</time>
      </trkpt>
      <trkpt lat="41.386267" lon="-3.385417">
        <ele>2179.0</ele>
        <time>2016-07-25T14:19:25Z</time>
      </trkpt>
      <trkpt lat="41.386350" lon="-3.385450">
        <ele>2177.0</ele>
        <time>2016-07-25T14:19:27Z</time>
      </trkpt>
      <trkpt lat="41.386483" lon="-3.385417">
        <ele>2175.0</ele>
        <time>2016-07-25T14:19:29Z</time>
      </trkpt>
      <trkpt lat="41.386617" lon="-3.385333">
        <ele>2174.0</ele>
        <time>2016-07-25T14:19:31Z</time>
      </trkpt>
      <trkpt lat="41.386733" lon="-3.385300">
        <ele>2173.0</ele>
        <time>2016-07-25T14:19:33Z</time>
      </trkpt>
      <trkpt lat="41.386833" lon="-3.385183">
        <ele>2172.0</ele>
        <time>2016-07-25T14:19:35Z</time>
      </trkpt>
      <trkpt lat="41.386900" lon="-3.384917">
        <ele>2169.0</ele>
        <time>2016-07-25T14:19:37Z</time>
      </trkpt>
      <trkpt lat="41.386900" lon="-3.384617">
        <ele>2165.0</ele>
        <time>2016-07-25T14:19:39Z</time>
      </trkpt>
      <trkpt lat="41.386883" lon="-3.384350">
        <ele>2163.0</ele>
        <time>2016-07-25T14:19:41Z</time>
      </trkpt>
      <trkpt lat="41.386817" lon="-3.384083">
        <ele>2159.0</ele>
        <time>2016-07-25T14:19:43Z</time>
      </trkpt>
      <trkpt lat="41.386700" lon="-3.383817">
        <ele>2154.0</ele>
        <time>2016-07-25T14:19:45Z</time>
      </trkpt>
      <trkpt lat="41.386550" lon="-3.383550">
        <ele>2146.0</ele>
        <time>2016-07-25T14:19:47Z</time>
      </trkpt>
      <trkpt lat="41.386383" lon="-3.383250">
        <ele>2141.0</ele>
        <time>2016-07-25T14:19:49Z</time>
      </trkpt>
      <trkpt lat="41.386200" lon="-3.383033">
        <ele>2142.0</ele>
        <time>2016-07-25T14:19:51Z</time>
      </trkpt>
      <trkpt lat="41.386033" lon="-3.382850">
        <ele>2141.0</ele>
        <time>2016-07-25T14:19:53Z</time>
      </trkpt>
      <trkpt lat="41.385833" lon="-3.382633">
        <ele>2137.0</ele>
        <time>2016-07-25T14:19:55Z</time>
      </trkpt>
      <trkpt lat="41.385583" lon="-3.382467">
        <ele>2134.0</ele>
        <time>2016-07-25T14:19:57Z</time>
      </trkpt>
      <trkpt lat="41.385333" lon="-3.382283">
        <ele>2135.0</ele>
        <time>2016-07-25T14:19:59Z</time>
      </trkpt>
      <trkpt lat="41.385083" lon="-3.382067">
        <ele>2140.0</ele>
        <time>2016-07-25T14:20:01Z</time>
      </trkpt>
      <trkpt lat="41.384850" lon="-3.381917">
        <ele>2146.0</ele>
        <time>2016-07-25T14:20:03Z</time>
      </trkpt>
      <trkpt lat="41.384633" lon="-3.381750">
        <ele>2151.0</ele>
        <time>2016-07-25T14:20:05Z</time>
      </trkpt>
      <trkpt lat="41.384483" lon="-3.381467">
        <ele>2155.0</ele>
        <time>2016-07-25T14:20:07Z</time>
      </trkpt>
      <trkpt lat="41.384400" lon="-3.381217">
        <ele>2161.0</ele>
        <time>2016-07-25T14:20:09Z</time>
      </trkpt>
      <trkpt lat="41.384367" lon="-3.380983">
        <ele>2164.0</ele>
        <time>2016-07-25T14:20:11Z</time>
      </trkpt>
      <trkpt lat="41.384400" lon="-3.380750">
        <ele>2167.0</ele>
        <time>2016-07-25T14:20:13Z</time>
      </trkpt>
      <trkpt lat="41.384433" lon="-3.380500">
        <ele>2171.0</ele>
        <time>2016-07-25T14:20:15Z</time>
      </trkpt>
      <trkpt lat="41.384433" lon="-3.380250">
        <ele>2177.0</ele>
        <time>2016-07-25T14:20:17Z</time>
      </trkpt>
      <trkpt lat="41.384467" lon="-3.380017">
        <ele>2181.0</ele>
        <time>2016-07-25T14:20:19Z</time>
      </trkpt>
      <trkpt lat="41.384550" lon="-3.379817">
        <ele>2184.0</ele>
        <time>2016-07-25T14:20:21Z</time>
      </trkpt>
      <trkpt lat="41.384633" lon="-3.379717">
        <ele>2188.0</ele>
        <time>2016-07-25T14:20:23Z</time>
      </trkpt>
      <trkpt lat="41.384700" lon="-3.379650">
        <ele>2192.0</ele>
        <time>2016-07-25T14:20:25Z</time>
      </trkpt>
      <trkpt lat="41.384783" lon="-3.379683">
        <ele>2191.0</ele>
        <time>2016-07-25T14:20:27Z</time>
      </trkpt>
      <trkpt lat="41.384817" lon="-3.379817">
        <ele>2193.0</ele>
        <time>2016-07-25T14:20:29Z</time>
      </trkpt>
      <trkpt lat="41.384733" lon="-3.379950">
        <ele>2197.0</ele>
        <time>2016-07-25T14:20:31Z</time>
      </trkpt>
      <trkpt lat="41.384617" lon="-3.380050">
        <ele>2200.0</ele>
        <time>2016-07-25T14:20:33Z</time>
      </trkpt>
      <trkpt lat="41.384417" lon="-3.380133">
        <ele>2200.0</ele>
        <time>2016-07-25T14:20:35Z</time>
      </trkpt>
      <trkpt lat="41.384150" lon="-3.380183">
        <ele>2203.0</ele>
        <time>2016-07-25T14:20:37Z</time>
      </trkpt>
      <trkpt lat="41.383917" lon="-3.380117">
        <ele>2211.0</ele>
        <time>2016-07-25T14:20:39Z</time>
      </trkpt>
      <trkpt lat="41.383717" lon="-3.379967">
        <ele>2217.0</ele>
        <time>2016-07-25T14:20:41Z</time>
      </trkpt>
      <trkpt lat="41.383533" lon="-3.379767">
        <ele>2220.0</ele>
        <time>2016-07-25T14:20:43Z</time>
      </trkpt>
      <trkpt lat="41.383383" lon="-3.379483">
        <ele>2224.0</ele>
        <time>2016-07-25T14:20:45Z</time>
      </trkpt>
      <trkpt lat="41.383300" lon="-3.379217">
        <ele>2232.0</ele>
        <time>2016-07-25T14:20:47Z</time>
      </trkpt>
      <trkpt lat="41.383217" lon="-3.378983">
        <ele>2238.0</ele>
        <time>2016-07-25T14:20:49Z</time>
      </trkpt>
      <trkpt lat="41.383200" lon="-3.378717">
        <ele>2239.0</ele>
        <time>2016-07-25T14:20:51Z</time>
      </trkpt>
      <trkpt lat="41.383233" lon="-3.378450">
        <ele>2242.0</ele>
        <time>2016-07-25T14:20:53Z</time>
      </trkpt>
      <trkpt lat="41.383317" lon="-3.378283">
        <ele>2244.0</ele>
        <time>2016-07-25T14:20:55Z</time>
      </trkpt>
      <trkpt lat="41.383417" lon="-3.378200">
        <ele>2245.0</ele>
        <time>2016-07-25T14:20:57Z</time>
      </trkpt>
      <trkpt lat="41.383500" lon="-3.378200">
        <ele>2244.0</ele>
        <time>2016-07-25T14:20:59Z</time>
      </trkpt>
      <trkpt lat="41.383550" lon="-3.378283">
        <ele>2243.0</ele>
        <time>2016-07-25T14:21:01Z</time>
      </trkpt>
      <trkpt lat="41.383617" lon="-3.378383">
        <ele>2245.0</ele>
        <time>2016-07-25T14:21:03Z</time>
      </trkpt>
      <trkpt lat="41.383667" lon="-3.378500">
        <ele>2248.0</ele>
        <time>2016-07-25T14:21:05Z</time>
      </trkpt>
      <trkpt lat="41.383667" lon="-3.378633">
        <ele>2251.0</ele>
        <time>2016-07-25T14:21:07Z</time>
      </trkpt>
      <trkpt lat="41.383583" lon="-3.378817">
        <ele>2251.0</ele>
        <time>2016-07-25T14:21:09Z</time>
      </trkpt>
      <trkpt lat="41.383400" lon="-3.378967">
        <ele>2253.0</ele>
        <time>2016-07-25T14:21:11Z</time>
      </trkpt>
      <trkpt lat="41.383150" lon="-3.379050">
        <ele>2258.0</ele>
        <time>2016-07-25T14:21:13Z</time>
      </trkpt>
      <trkpt lat="41.382933" lon="-3.379050">
        <ele>2265.0</ele>
        <time>2016-07-25T14:21:15Z</time>
      </trkpt>
      <trkpt lat="41.382717" lon="-3.379000">
        <ele>2269.0</ele>
        <time>2016-07-25T14:21:17Z</time>
      </trkpt>
      <trkpt lat="41.382517" lon="-3.378850">
        <ele>2272.0</ele>
        <time>2016-07-25T14:21:19Z</time>
      </trkpt>
      <trkpt lat="41.382350" lon="-3.378650">
        <ele>2275.0</ele>
        <time>2016-07-25T14:21:21Z</time>
      </trkpt>
      <trkpt lat="41.382233" lon="-3.378383">
        <ele>2277.0</ele>
        <time>2016-07-25T14:21:23Z</time>
      </trkpt>
      <trkpt lat="41.382183" lon="-3.378067">
        <ele>2280.0</ele>
        <time>2016-07-25T14:21:25Z</time>
      </trkpt>
      <trkpt lat="41.382200" lon="-3.377800">
        <ele>2287.0</ele>
        <time>2016-07-25T14:21:27Z</time>
      </trkpt>
      <trkpt lat="41.382267" lon="-3.377617">
        <ele>2291.0</ele>
        <time>2016-07-25T14:21:29Z</time>
      </trkpt>
      <trkpt lat="41.382350" lon="-3.377483">
        <ele>2291.0</ele>
        <time>2016-07-25T14:21:31Z</time>
      </trkpt>
      <trkpt lat="41.382483" lon="-3.377450">
        <ele>2287.0</ele>
        <time>2016-07-25T14:21:33Z</time>
      </trkpt>
      <trkpt lat="41.382617" lon="-3.377533">
        <ele>2291.0</ele>
        <time>2016-07-25T14:21:35Z</time>
      </trkpt>
      <trkpt lat="41.382667" lon="-3.377617">
        <ele>2298.0</ele>
        <time>2016-07-25T14:21:37Z</time>
      </trkpt>
      <trkpt lat="41.382667" lon="-3.377733">
        <ele>2296.0</ele>
        <time>2016-07-25T14:21:39Z</time>
      </trkpt>
      <trkpt lat="41.382617" lon="-3.377917">
        <ele>2293.0</ele>
        <time>2016-07-25T14:21:41Z</time>
      </trkpt>
      <trkpt lat="41.382483" lon="-3.378150">
        <ele>2289.0</ele>
        <time>2016-07-25T14:21:43Z</time>
      </trkpt>
      <trkpt lat="41.382250" lon="-3.378283">
        <ele>2288.0</ele>
        <time>2016-07-25T14:21:45Z</time>
      </trkpt>
      <trkpt lat="41.382033" lon="-3.378283">
        <ele>2291.0</ele>
        <time>2016-07-25T14:21:47Z</time>
      </trkpt>
      <trkpt lat="41.381833" lon="-3.378200">
        <ele>2292.0</ele>
        <time>2016-07-25T14:21:49Z</time>
      </trkpt>
      <trkpt lat="41.381633" lon="-3.378000">
        <ele>2289.0</ele>
        <time>2016-07-25T14:21:51Z</time>
      </trkpt>
      <trkpt lat="41.381500" lon="-3.377700">
        <ele>2288.0</ele>
        <time>2016-07-25T14:21:53Z</time>
      </trkpt>
      <trkpt lat="41.381483" lon="-3.377383">
        <ele>2289.0</ele>
        <time>2016-07-25T14:21:55Z</time>
      </trkpt>
      <trkpt lat="41.381483" lon="-3.377100">
        <ele>2292.0</ele>
        <time>2016-07-25T14:21:57Z</time>
      </trkpt>
      <trkpt lat="41.381500" lon="-3.376850">
        <ele>2295.0</ele>
        <time>2016-07-25T14:21:59Z</time>
      </trkpt>
      <trkpt lat="41.381583" lon="-3.376633">
        <ele>2295.0</ele>
        <time>2016-07-25T14:22:01Z</time>
      </trkpt>
      <trkpt lat="41.381733" lon="-3.376483">
        <ele>2298.0</ele>
        <time>2016-07-25T14:22:03Z</time>
      </trkpt>
      <trkpt lat="41.381817" lon="-3.376417">
        <ele>2303.0</ele>
        <time>2016-07-25T14:22:05Z</time>
      </trkpt>
      <trkpt lat="41.381883" lon="-3.376417">
        <ele>2301.0</ele>
        <time>2016-07-25T14:22:07Z</time>
      </trkpt>
      <trkpt lat="41.381967" lon="-3.376450">
        <ele>2298.0</ele>
        <time>2016-07-25T14:22:09Z</time>
      </trkpt>
      <trkpt lat="41.381983" lon="-3.376583">
        <ele>2294.0</ele>
        <time>2016-07-25T14:22:11Z</time>
      </trkpt>
      <trkpt lat="41.381950" lon="-3.376783">
        <ele>2287.0</ele>
        <time>2016-07-25T14:22:13Z</time>
      </trkpt>
      <trkpt lat="41.381883" lon="-3.376983">
        <ele>2282.0</ele>
        <time>2016-07-25T14:22:15Z</time>
      </trkpt>
      <trkpt lat="41.381733" lon="-3.377150">
        <ele>2277.0</ele>
        <time>2016-07-25T14:22:17Z</time>
      </trkpt>
      <trkpt lat="41.381483" lon="-3.377250">
        <ele>2270.0</ele>
        <time>2016-07-25T14:22:19Z</time>
      </trkpt>
      <trkpt lat="41.381217" lon="-3.377250">
        <ele>2264.0</ele>
        <time>2016-07-25T14:22:21Z</time>
      </trkpt>
      <trkpt lat="41.380967" lon="-3.377100">
        <ele>2258.0</ele>
        <time>2016-07-25T14:22:23Z</time>
      </trkpt>
      <trkpt lat="41.380750" lon="-3.376850">
        <ele>2256.0</ele>
        <time>2016-07-25T14:22:25Z</time>
      </trkpt>
      <trkpt lat="41.380583" lon="-3.376633">
        <ele>2257.0</ele>
        <time>2016-07-25T14:22:27Z</time>
      </trkpt>
      <trkpt lat="41.380483" lon="-3.376333">
        <ele>2255.0</ele>
        <time>2016-07-25T14:22:29Z</time>
      </trkpt>
      <trkpt lat="41.380467" lon="-3.376067">
        <ele>2254.0</ele>
        <time>2016-07-25T14:22:31Z</time>
      </trkpt>
      <trkpt lat="41.380500" lon="-3.375817">
        <ele>2254.0</ele>
        <time>2016-07-25T14:22:33Z</time>
      </trkpt>
      <trkpt lat="41.380550" lon="-3.375617">
        <ele>2254.0</ele>
        <time>2016-07-25T14:22:35Z</time>
      </trkpt>
      <trkpt lat="41.380600" lon="-3.375433">
        <ele>2256.0</ele>
        <time>2016-07-25T14:22:37Z</time>
      </trkpt>
      <trkpt lat="41.380667" lon="-3.375283">
        <ele>2255.0</ele>
        <time>2016-07-25T14:22:39Z</time>
      </trkpt>
      <trkpt lat="41.380783" lon="-3.375183">
        <ele>2251.0</ele>
        <time>2016-07-25T14:22:41Z</time>
      </trkpt>
      <trkpt lat="41.380917" lon="-3.375133">
        <ele>2251.0</ele>
        <time>2016-07-25T14:22:43Z</time>
      </trkpt>
      <trkpt lat="41.381067" lon="-3.375100">
        <ele>2251.0</ele>
        <time>2016-07-25T14:22:45Z</time>
      </trkpt>
      <trkpt lat="41.381167" lon="-3.375083">
        <ele>2249.0</ele>
        <time>2016-07-25T14:22:47Z</time>
      </trkpt>
      <trkpt lat="41.381267" lon="-3.375083">
        <ele>2245.0</ele>
        <time>2016-07-25T14:22:49Z</time>
      </trkpt>
      <trkpt lat="41.381367" lon="-3.375133">
        <ele>2241.0</ele>
        <time>2016-07-25T14:22:51Z</time>
      </trkpt>
      <trkpt lat="41.381467" lon="-3.375167">
        <ele>2236.0</ele>
        <time>2016-07-25T14:22:53Z</time>
      </trkpt>
      <trkpt lat="41.381600" lon="-3.375217">
        <ele>2230.0</ele>
        <time>2016-07-25T14:22:55Z</time>
      </trkpt>
      <trkpt lat="41.381717" lon="-3.375250">
        <ele>2226.0</ele>
        <time>2016-07-25T14:22:57Z</time>
      </trkpt>
      <trkpt lat="41.381817" lon="-3.375333">
        <ele>2223.0</ele>
        <time>2016-07-25T14:22:59Z</time>
      </trkpt>
      <trkpt lat="41.381933" lon="-3.375383">
        <ele>2220.0</ele>
        <time>2016-07-25T14:23:01Z</time>
      </trkpt>
      <trkpt lat="41.382067" lon="-3.375367">
        <ele>2221.0</ele>
        <time>2016-07-25T14:23:03Z</time>
      </trkpt>
      <trkpt lat="41.382167" lon="-3.375333">
        <ele>2221.0</ele>
        <time>2016-07-25T14:23:05Z</time>
      </trkpt>
      <trkpt lat="41.382267" lon="-3.375300">
        <ele>2218.0</ele>
        <time>2016-07-25T14:23:07Z</time>
      </trkpt>
      <trkpt lat="41.382367" lon="-3.375350">
        <ele>2214.0</ele>
        <time>2016-07-25T14:23:09Z</time>
      </trkpt>
      <trkpt lat="41.382467" lon="-3.375417">
        <ele>2212.0</ele>
        <time>2016-07-25T14:23:11Z</time>
      </trkpt>
      <trkpt lat="41.382550" lon="-3.375450">
        <ele>2211.0</ele>
        <time>2016-07-25T14:23:13Z</time>
      </trkpt>
      <trkpt lat="41.382667" lon="-3.375500">
        <ele>2208.0</ele>
        <time>2016-07-25T14:23:15Z</time>
      </trkpt>
      <trkpt lat="41.382750" lon="-3.375517">
        <ele>2207.0</ele>
        <time>2016-07-25T14:23:17Z</time>
      </trkpt>
      <trkpt lat="41.382867" lon="-3.375500">
        <ele>2204.0</ele>
        <time>2016-07-25T14:23:19Z</time>
      </trkpt>
      <trkpt lat="41.382983" lon="-3.375467">
        <ele>2201.0</ele>
        <time>2016-07-25T14:23:21Z</time>
      </trkpt>
      <trkpt lat="41.383100" lon="-3.375467">
        <ele>2197.0</ele>
        <time>2016-07-25T14:23:23Z</time>
      </trkpt>
      <trkpt lat="41.383233" lon="-3.375450">
        <ele>2194.0</ele>
        <time>2016-07-25T14:23:25Z</time>
      </trkpt>
      <trkpt lat="41.383367" lon="-3.375433">
        <ele>2192.0</ele>
        <time>2016-07-25T14:23:27Z</time>
      </trkpt>
      <trkpt lat="41.383483" lon="-3.375400">
        <ele>2187.0</ele>
        <time>2016-07-25T14:23:29Z</time>
      </trkpt>
      <trkpt lat="41.383617" lon="-3.375367">
        <ele>2181.0</ele>
        <time>2016-07-25T14:23:31Z</time>
      </trkpt>
      <trkpt lat="41.383750" lon="-3.375333">
        <ele>2176.0</ele>
        <time>2016-07-25T14:23:33Z</time>
      </trkpt>
      <trkpt lat="41.383883" lon="-3.375300">
        <ele>2170.0</ele>
        <time>2016-07-25T14:23:35Z</time>
      </trkpt>
      <trkpt lat="41.384000" lon="-3.375250">
        <ele>2163.0</ele>
        <time>2016-07-25T14:23:37Z</time>
      </trkpt>
      <trkpt lat="41.384133" lon="-3.375233">
        <ele>2156.0</ele>
        <time>2016-07-25T14:23:39Z</time>
      </trkpt>
      <trkpt lat="41.384283" lon="-3.375217">
        <ele>2150.0</ele>
        <time>2016-07-25T14:23:41Z</time>
      </trkpt>
      <trkpt lat="41.384400" lon="-3.375117">
        <ele>2144.0</ele>
        <time>2016-07-25T14:23:43Z</time>
      </trkpt>
      <trkpt lat="41.384550" lon="-3.375000">
        <ele>2138.0</ele>
        <time>2016-07-25T14:23:45Z</time>
      </trkpt>
      <trkpt lat="41.384683" lon="-3.374917">
        <ele>2134.0</ele>
        <time>2016-07-25T14:23:47Z</time>
      </trkpt>
      <trkpt lat="41.384800" lon="-3.374833">
        <ele>2129.0</ele>
        <time>2016-07-25T14:23:49Z</time>
      </trkpt>
      <trkpt lat="41.384950" lon="-3.374767">
        <ele>2118.0</ele>
        <time>2016-07-25T14:23:51Z</time>
      </trkpt>
      <trkpt lat="41.385133" lon="-3.374717">
        <ele>2108.0</ele>
        <time>2016-07-25T14:23:53Z</time>
      </trkpt>
      <trkpt lat="41.385267" lon="-3.374667">
        <ele>2102.0</ele>
        <time>2016-07-25T14:23:55Z</time>
      </trkpt>
      <trkpt lat="41.385400" lon="-3.374633">
        <ele>2094.0</ele>
        <time>2016-07-25T14:23:57Z</time>
      </trkpt>
      <trkpt lat="41.385550" lon="-3.374600">
        <ele>2084.0</ele>
        <time>2016-07-25T14:23:59Z</time>
      </trkpt>
      <trkpt lat="41.385683" lon="-3.374550">
        <ele>2076.0</ele>
        <time>2016-07-25T14:24:01Z</time>
      </trkpt>
      <trkpt lat="41.385833" lon="-3.374483">
        <ele>2068.0</ele>
        <time>2016-07-25T14:24:03Z</time>
      </trkpt>
      <trkpt lat="41.385983" lon="-3.374417">
        <ele>2060.0</ele>
        <time>2016-07-25T14:24:05Z</time>
      </trkpt>
      <trkpt lat="41.386117" lon="-3.374333">
        <ele>2052.0</ele>
        <time>2016-07-25T14:24:07Z</time>
      </trkpt>
      <trkpt lat="41.386283" lon="-3.374250">
        <ele>2044.0</ele>
        <time>2016-07-25T14:24:09Z</time>
      </trkpt>
      <trkpt lat="41.386433" lon="-3.374183">
        <ele>2037.0</ele>
        <time>2016-07-25T14:24:11Z</time>
      </trkpt>
      <trkpt lat="41.386567" lon="-3.374100">
        <ele>2031.0</ele>
        <time>2016-07-25T14:24:13Z</time>
      </trkpt>
      <trkpt lat="41.386700" lon="-3.374017">
        <ele>2024.0</ele>
        <time>2016-07-25T14:24:15Z</time>
      </trkpt>
      <trkpt lat="41.386833" lon="-3.373950">
        <ele>2016.0</ele>
        <time>2016-07-25T14:24:17Z</time>
      </trkpt>
      <trkpt lat="41.387000" lon="-3.373867">
        <ele>2010.0</ele>
        <time>2016-07-25T14:24:19Z</time>
      </trkpt>
      <trkpt lat="41.387117" lon="-3.373767">
        <ele>2006.0</ele>
        <time>2016-07-25T14:24:21Z</time>
      </trkpt>
      <trkpt lat="41.387250" lon="-3.373683">
        <ele>2000.0</ele>
        <time>2016-07-25T14:24:23Z</time>
      </trkpt>
      <trkpt lat="41.387383" lon="-3.373583">
        <ele>1994.0</ele>
        <time>2016-07-25T14:24:25Z</time>
      </trkpt>
      <trkpt lat="41.387517" lon="-3.373517">
        <ele>1990.0</ele>
        <time>2016-07-25T14:24:27Z</time>
      </trkpt>
      <trkpt lat="41.387650" lon="-3.373417">
        <ele>1984.0</ele>
        <time>2016-07-25T14:24:29Z</time>
      </trkpt>
      <trkpt lat="41.387800" lon="-3.373317">
        <ele>1978.0</ele>
        <time>2016-07-25T14:24:31Z</time>
      </trkpt>
      <trkpt lat="41.387950" lon="-3.373200">
        <ele>1972.0</ele>
        <time>2016-07-25T14:24:33Z</time>
      </trkpt>
      <trkpt lat="41.388083" lon="-3.373083">
        <ele>1965.0</ele>
        <time>2016-07-25T14:24:35Z</time>
      </trkpt>
      <trkpt lat="41.388217" lon="-3.373000">
        <ele>1956.0</ele>
        <time>2016-07-25T14:24:37Z</time>
      </trkpt>
      <trkpt lat="41.388383" lon="-3.372900">
        <ele>1949.0</ele>
        <time>2016-07-25T14:24:39Z</time>
      </trkpt>
      <trkpt lat="41.388517" lon="-3.372833">
        <ele>1946.0</ele>
        <time>2016-07-25T14:24:41Z</time>
      </trkpt>
      <trkpt lat="41.388633" lon="-3.372767">
        <ele>1940.0</ele>
        <time>2016-07-25T14:24:43Z</time>
      </trkpt>
      <trkpt lat="41.388767" lon="-3.372700">
        <ele>1931.0</ele>
        <time>2016-07-25T14:24:45Z</time>
      </trkpt>
      <trkpt lat="41.388933" lon="-3.372617">
        <ele>1924.0</ele>
        <time>2016-07-25T14:24:47Z</time>
      </trkpt>
      <trkpt lat="41.389067" lon="-3.372533">
        <ele>1919.0</ele>
        <time>2016-07-25T14:24:49Z</time>
      </trkpt>
      <trkpt lat="41.389200" lon="-3.372467">
        <ele>1912.0</ele>
        <time>2016-07-25T14:24:51Z</time>
      </trkpt>
      <trkpt lat="41.389350" lon="-3.372433">
        <ele>1904.0</ele>
        <time>2016-07-25T14:24:53Z</time>
      </trkpt>
      <trkpt lat="41.389500" lon="-3.372383">
        <ele>1899.0</ele>
        <time>2016-07-25T14:24:55Z</time>
      </trkpt>
      <trkpt lat="41.389650" lon="-3.372333">
        <ele>1893.0</ele>
        <time>2016-07-25T14:24:57Z</time>
      </trkpt>
      <trkpt lat="41.389800" lon="-3.372283">
        <ele>1888.0</ele>
        <time>2016-07-25T14:24:59Z</time>
      </trkpt>
      <trkpt lat="41.389950" lon="-3.372200">
        <ele>1883.0</ele>
        <time>2016-07-25T14:25:01Z</time>
      </trkpt>
      <trkpt lat="41.390083" lon="-3.372150">
        <ele>1878.0</ele>
        <time>2016-07-25T14:25:03Z</time>
      </trkpt>
      <trkpt lat="41.390233" lon="-3.372083">
        <ele>1870.0</ele>
        <time>2016-07-25T14:25:05Z</time>
      </trkpt>
      <trkpt lat="41.390383" lon="-3.372050">
        <ele>1865.0</ele>
        <time>2016-07-25T14:25:07Z</time>
      </trkpt>
      <trkpt lat="41.390517" lon="-3.372050">
        <ele>1860.0</ele>
        <time>2016-07-25T14:25:09Z</time>
      </trkpt>
      <trkpt lat="41.390650" lon="-3.372067">
        <ele>1853.0</ele>
        <time>2016-07-25T14:25:11Z</time>
      </trkpt>
      <trkpt lat="41.390800" lon="-3.372050">
        <ele>1848.0</ele>
        <time>2016-07-25T14:25:13Z</time>
      </trkpt>
      <trkpt lat="41.390933" lon="-3.372050">
        <ele>1843.0</ele>
        <time>2016-07-25T14:25:15Z</time>
      </trkpt>
      <trkpt lat="41.391050" lon="-3.372067">
        <ele>1836.0</ele>
        <time>2016-07-25T14:25:17Z</time>
      </trkpt>
      <trkpt lat="41.391200" lon="-3.372033">
        <ele>1830.0</ele>
        <time>2016-07-25T14:25:19Z</time>
      </trkpt>
      <trkpt lat="41.391333" lon="-3.372000">
        <ele>1824.0</ele>
        <time>2016-07-25T14:25:21Z</time>
      </trkpt>
      <trkpt lat="41.391483" lon="-3.371933">
        <ele>1818.0</ele>
        <time>2016-07-25T14:25:23Z</time>
      </trkpt>
      <trkpt lat="41.391633" lon="-3.371883">
        <ele>1812.0</ele>
        <time>2016-07-25T14:25:25Z</time>
      </trkpt>
      <trkpt lat="41.391783" lon="-3.371833">
        <ele>1806.0</ele>
        <time>2016-07-25T14:25:27Z</time>
      </trkpt>
      <trkpt lat="41.391917" lon="-3.371800">
        <ele>1800.0</ele>
        <time>2016-07-25T14:25:29Z</time>
      </trkpt>
      <trkpt lat="41.392067" lon="-3.371767">
        <ele>1793.0</ele>
        <time>2016-07-25T14:25:31Z</time>
      </trkpt>
      <trkpt lat="41.392233" lon="-3.371717">
        <ele>1787.0</ele>
        <time>2016-07-25T14:25:33Z</time>
      </trkpt>
      <trkpt lat="41.392383" lon="-3.371667">
        <ele>1782.0</ele>
        <time>2016-07-25T14:25:35Z</time>
      </trkpt>
      <trkpt lat="41.392533" lon="-3.371600">
        <ele>1776.0</ele>
        <time>2016-07-25T14:25:37Z</time>
      </trkpt>
      <trkpt lat="41.392683" lon="-3.371550">
        <ele>1771.0</ele>
        <time>2016-07-25T14:25:39Z</time>
      </trkpt>
      <trkpt lat="41.392817" lon="-3.371500">
        <ele>1764.0</ele>
        <time>2016-07-25T14:25:41Z</time>
      </trkpt>
      <trkpt lat="41.392967" lon="-3.371467">
        <ele>1755.0</ele>
        <time>2016-07-25T14:25:43Z</time>
      </trkpt>
      <trkpt lat="41.393117" lon="-3.371417">
        <ele>1749.0</ele>
        <time>2016-07-25T14:25:45Z</time>
      </trkpt>
      <trkpt lat="41.393250" lon="-3.371350">
        <ele>1743.0</ele>
        <time>2016-07-25T14:25:47Z</time>
      </trkpt>
      <trkpt lat="41.393383" lon="-3.371317">
        <ele>1736.0</ele>
        <time>2016-07-25T14:25:49Z</time>
      </trkpt>
      <trkpt lat="41.393550" lon="-3.371283">
        <ele>1729.0</ele>
        <time>2016-07-25T14:25:51Z</time>
      </trkpt>
      <trkpt lat="41.393683" lon="-3.371267">
        <ele>1725.0</ele>
        <time>2016-07-25T14:25:53Z</time>
      </trkpt>
      <trkpt lat="41.393817" lon="-3.371217">
        <ele>1720.0</ele>
        <time>2016-07-25T14:25:55Z</time>
      </trkpt>
      <trkpt lat="41.393967" lon="-3.371150">
        <ele>1713.0</ele>
        <time>2016-07-25T14:25:57Z</time>
      </trkpt>
      <trkpt lat="41.394117" lon="-3.371083">
        <ele>1706.0</ele>
        <time>2016-07-25T14:25:59Z</time>
      </trkpt>
      <trkpt lat="41.394267" lon="-3.371000">
        <ele>1701.0</ele>
        <time>2016-07-25T14:26:01Z</time>
      </trkpt>
      <trkpt lat="41.394417" lon="-3.370917">
        <ele>1695.0</ele>
        <time>2016-07-25T14:26:03Z</time>
      </trkpt>
      <trkpt lat="41.394567" lon="-3.370817">
        <ele>1689.0</ele>
        <time>2016-07-25T14:26:05Z</time>
      </trkpt>
      <trkpt lat="41.394717" lon="-3.370733">
        <ele>1683.0</ele>
        <time>2016-07-25T14:26:07Z</time>
      </trkpt>
      <trkpt lat="41.394883" lon="-3.370650">
        <ele>1677.0</ele>
        <time>2016-07-25T14:26:09Z</time>
      </trkpt>
      <trkpt lat="41.395050" lon="-3.370600">
        <ele>1672.0</ele>
        <time>2016-07-25T14:26:11Z</time>
      </trkpt>
      <trkpt lat="41.395183" lon="-3.370550">
        <ele>1669.0</ele>
        <time>2016-07-25T14:26:13Z</time>
      </trkpt>
      <trkpt lat="41.395333" lon="-3.370483">
        <ele>1664.0</ele>
        <time>2016-07-25T14:26:15Z</time>
      </trkpt>
      <trkpt lat="41.395483" lon="-3.370417">
        <ele>1657.0</ele>
        <time>2016-07-25T14:26:17Z</time>
      </trkpt>
      <trkpt lat="41.395633" lon="-3.370350">
        <ele>1652.0</ele>
        <time>2016-07-25T14:26:19Z</time>
      </trkpt>
      <trkpt lat="41.395767" lon="-3.370283">
        <ele>1645.0</ele>
        <time>2016-07-25T14:26:21Z</time>
      </trkpt>
      <trkpt lat="41.395917" lon="-3.370233">
        <ele>1637.0</ele>
        <time>2016-07-25T14:26:23Z</time>
      </trkpt>
      <trkpt lat="41.396083" lon="-3.370200">
        <ele>1631.0</ele>
        <time>2016-07-25T14:26:25Z</time>
      </trkpt>
      <trkpt lat="41.396233" lon="-3.370150">
        <ele>1627.0</ele>
        <time>2016-07-25T14:26:27Z</time>
      </trkpt>
      <trkpt lat="41.396383" lon="-3.370100">
        <ele>1622.0</ele>
        <time>2016-07-25T14:26:29Z</time>
      </trkpt>
      <trkpt lat="41.396533" lon="-3.370050">
        <ele>1617.0</ele>
        <time>2016-07-25T14:26:31Z</time>
      </trkpt>
      <trkpt lat="41.396683" lon="-3.369967">
        <ele>1614.0</ele>
        <time>2016-07-25T14:26:33Z</time>
      </trkpt>
      <trkpt lat="41.396817" lon="-3.369883">
        <ele>1610.0</ele>
        <time>2016-07-25T14:26:35Z</time>
      </trkpt>
      <trkpt lat="41.396983" lon="-3.369800">
        <ele>1604.0</ele>
        <time>2016-07-25T14:26:37Z</time>
      </trkpt>
      <trkpt lat="41.397150" lon="-3.369717">
        <ele>1601.0</ele>
        <time>2016-07-25T14:26:39Z</time>
      </trkpt>
      <trkpt lat="41.397283" lon="-3.369650">
        <ele>1599.0</ele>
        <time>2016-07-25T14:26:41Z</time>
      </trkpt>
      <trkpt lat="41.397417" lon="-3.369567">
        <ele>1594.0</ele>
        <time>2016-07-25T14:26:43Z</time>
      </trkpt>
      <trkpt lat="41.397567" lon="-3.369483">
        <ele>1588.0</ele>
        <time>2016-07-25T14:26:45Z</time>
      </trkpt>
      <trkpt lat="41.397717" lon="-3.369400">
        <ele>1583.0</ele>
        <time>2016-07-25T14:26:47Z</time>
      </trkpt>
      <trkpt lat="41.397850" lon="-3.369300">
        <ele>1578.0</ele>
        <time>2016-07-25T14:26:49Z</time>
      </trkpt>
      <trkpt lat="41.398000" lon="-3.369233">
        <ele>1572.0</ele>
        <time>2016-07-25T14:26:51Z</time>
      </trkpt>
      <trkpt lat="41.398150" lon="-3.369150">
        <ele>1568.0</ele>
        <time>2016-07-25T14:26:53Z</time>
      </trkpt>
      <trkpt lat="41.398283" lon="-3.369083">
        <ele>1563.0</ele>
        <time>2016-07-25T14:26:55Z</time>
      </trkpt>
      <trkpt lat="41.398417" lon="-3.369017">
        <ele>1557.0</ele>
        <time>2016-07-25T14:26:57Z</time>
      </trkpt>
      <trkpt lat="41.398567" lon="-3.368950">
        <ele>1550.0</ele>
        <time>2016-07-25T14:26:59Z</time>
      </trkpt>
      <trkpt lat="41.398700" lon="-3.368883">
        <ele>1545.0</ele>
        <time>2016-07-25T14:27:01Z</time>
      </trkpt>
      <trkpt lat="41.398850" lon="-3.368833">
        <ele>1537.0</ele>
        <time>2016-07-25T14:27:03Z</time>
      </trkpt>
      <trkpt lat="41.399017" lon="-3.368767">
        <ele>1532.0</ele>
        <time>2016-07-25T14:27:05Z</time>
      </trkpt>
      <trkpt lat="41.399167" lon="-3.368700">
        <ele>1529.0</ele>
        <time>2016-07-25T14:27:07Z</time>
      </trkpt>
      <trkpt lat="41.399300" lon="-3.368633">
        <ele>1525.0</ele>
        <time>2016-07-25T14:27:09Z</time>
      </trkpt>
      <trkpt lat="41.399450" lon="-3.368550">
        <ele>1520.0</ele>
        <time>2016-07-25T14:27:11Z</time>
      </trkpt>
      <trkpt lat="41.399583" lon="-3.368467">
        <ele>1516.0</ele>
        <time>2016-07-25T14:27:13Z</time>
      </trkpt>
      <trkpt lat="41.399717" lon="-3.368383">
        <ele>1510.0</ele>
        <time>2016-07-25T14:27:15Z</time>
      </trkpt>
      <trkpt lat="41.399883" lon="-3.368317">
        <ele>1504.0</ele>
        <time>2016-07-25T14:27:17Z</time>
      </trkpt>
      <trkpt lat="41.400033" lon="-3.368267">
        <ele>1499.0</ele>
        <time>2016-07-25T14:27:19Z</time>
      </trkpt>
      <trkpt lat="41.400200" lon="-3.368183">
        <ele>1495.0</ele>
        <time>2016-07-25T14:27:21Z</time>
      </trkpt>
      <trkpt lat="41.400350" lon="-3.368117">
        <ele>1490.0</ele>
        <time>2016-07-25T14:27:23Z</time>
      </trkpt>
      <trkpt lat="41.400500" lon="-3.368033">
        <ele>1485.0</ele>
        <time>2016-07-25T14:27:25Z</time>
      </trkpt>
      <trkpt lat="41.400650" lon="-3.367983">
        <ele>1483.0</ele>
        <time>2016-07-25T14:27:27Z</time>
      </trkpt>
      <trkpt lat="41.400783" lon="-3.367883">
        <ele>1479.0</ele>
        <time>2016-07-25T14:27:29Z</time>
      </trkpt>
      <trkpt lat="41.400917" lon="-3.367700">
        <ele>1474.0</ele>
        <time>2016-07-25T14:27:31Z</time>
      </trkpt>
      <trkpt lat="41.401067" lon="-3.367567">
        <ele>1473.0</ele>
        <time>2016-07-25T14:27:33Z</time>
      </trkpt>
      <trkpt lat="41.401200" lon="-3.367483">
        <ele>1474.0</ele>
        <time>2016-07-25T14:27:35Z</time>
      </trkpt>
      <trkpt lat="41.401367" lon="-3.367383">
        <ele>1474.0</ele>
        <time>2016-07-25T14:27:37Z</time>
      </trkpt>
      <trkpt lat="41.401533" lon="-3.367350">
        <ele>1477.0</ele>
        <time>2016-07-25T14:27:39Z</time>
      </trkpt>
      <trkpt lat="41.401683" lon="-3.367283">
        <ele>1480.0</ele>
        <time>2016-07-25T14:27:41Z</time>
      </trkpt>
      <trkpt lat="41.401817" lon="-3.367133">
        <ele>1478.0</ele>
        <time>2016-07-25T14:27:43Z</time>
      </trkpt>
      <trkpt lat="41.401967" lon="-3.366950">
        <ele>1477.0</ele>
        <time>2016-07-25T14:27:45Z</time>
      </trkpt>
      <trkpt lat="41.402133" lon="-3.366783">
        <ele>1477.0</ele>
        <time>2016-07-25T14:27:47Z</time>
      </trkpt>
      <trkpt lat="41.402300" lon="-3.366683">
        <ele>1482.0</ele>
        <time>2016-07-25T14:27:49Z</time>
      </trkpt>
      <trkpt lat="41.402433" lon="-3.366617">
        <ele>1486.0</ele>
        <time>2016-07-25T14:27:51Z</time>
      </trkpt>
      <trkpt lat="41.402533" lon="-3.366617">
        <ele>1485.0</ele>
        <time>2016-07-25T14:27:53Z</time>
      </trkpt>
      <trkpt lat="41.402683" lon="-3.366683">
        <ele>1484.0</ele>
        <time>2016-07-25T14:27:55Z</time>
      </trkpt>
      <trkpt lat="41.402800" lon="-3.366750">
        <ele>1486.0</ele>
        <time>2016-07-25T14:27:57Z</time>
      </trkpt>
      <trkpt lat="41.402917" lon="-3.366800">
        <ele>1487.0</ele>
        <time>2016-07-25T14:27:59Z</time>
      </trkpt>
      <trkpt lat="41.403050" lon="-3.366817">
        <ele>1485.0</ele>
        <time>2016-07-25T14:28:01Z</time>
      </trkpt>
      <trkpt lat="41.403217" lon="-3.366783">
        <ele>1482.0</ele>
        <time>2016-07-25T14:28:03Z</time>
      </trkpt>
      <trkpt lat="41.403400" lon="-3.366750">
        <ele>1481.0</ele>
        <time>2016-07-25T14:28:05Z</time>
      </trkpt>
      <trkpt lat="41.403550" lon="-3.366733">
        <ele>1480.0</ele>
        <time>2016-07-25T14:28:07Z</time>
      </trkpt>
      <trkpt lat="41.403700" lon="-3.366733">
        <ele>1478.0</ele>
        <time>2016-07-25T14:28:09Z</time>
      </trkpt>
      <trkpt lat="41.403817" lon="-3.366783">
        <ele>1476.0</ele>
        <time>2016-07-25T14:28:11Z</time>
      </trkpt>
      <trkpt lat="41.403933" lon="-3.366867">
        <ele>1474.0</ele>
        <time>2016-07-25T14:28:13Z</time>
      </trkpt>
      <trkpt lat="41.404033" lon="-3.366933">
        <ele>1472.0</ele>
        <time>2016-07-25T14:28:15Z</time>
      </trkpt>
      <trkpt lat="41.404150" lon="-3.367000">
        <ele>1469.0</ele>
        <time>2016-07-25T14:28:17Z</time>
      </trkpt>
      <trkpt lat="41.404267" lon="-3.367083">
        <ele>1468.0</ele>
        <time>2016-07-25T14:28:19Z</time>
      </trkpt>
      <trkpt lat="41.404350" lon="-3.367150">
        <ele>1469.0</ele>
        <time>2016-07-25T14:28:21Z</time>
      </trkpt>
      <trkpt lat="41.404450" lon="-3.367200">
        <ele>1469.0</ele>
        <time>2016-07-25T14:28:23Z</time>
      </trkpt>
      <trkpt lat="41.404550" lon="-3.367267">
        <ele>1469.0</ele>
        <time>2016-07-25T14:28:25Z</time>
      </trkpt>
      <trkpt lat="41.404650" lon="-3.367317">
        <ele>1468.0</ele>
        <time>2016-07-25T14:28:27Z</time>
      </trkpt>
      <trkpt lat="41.404767" lon="-3.367350">
        <ele>1468.0</ele>
        <time>2016-07-25T14:28:29Z</time>
      </trkpt>
      <trkpt lat="41.404883" lon="-3.367400">
        <ele>1466.0</ele>
        <time>2016-07-25T14:28:31Z</time>
      </trkpt>
      <trkpt lat="41.405017" lon="-3.367450">
        <ele>1465.0</ele>
        <time>2016-07-25T14:28:33Z</time>
      </trkpt>
      <trkpt lat="41.405150" lon="-3.367483">
        <ele>1467.0</ele>
        <time>2016-07-25T14:28:35Z</time>
      </trkpt>
      <trkpt lat="41.405250" lon="-3.367517">
        <ele>1470.0</ele>
        <time>2016-07-25T14:28:37Z</time>
      </trkpt>
      <trkpt lat="41.405367" lon="-3.367550">
        <ele>1472.0</ele>
        <time>2016-07-25T14:28:39Z</time>
      </trkpt>
      <trkpt lat="41.405483" lon="-3.367500">
        <ele>1474.0</ele>
        <time>2016-07-25T14:28:41Z</time>
      </trkpt>
      <trkpt lat="41.405600" lon="-3.367400">
        <ele>1474.0</ele>
        <time>2016-07-25T14:28:43Z</time>
      </trkpt>
      <trkpt lat="41.405717" lon="-3.367233">
        <ele>1476.0</ele>
        <time>2016-07-25T14:28:45Z</time>
      </trkpt>
      <trkpt lat="41.405733" lon="-3.367017">
        <ele>1479.0</ele>
        <time>2016-07-25T14:28:47Z</time>
      </trkpt>
      <trkpt lat="41.405717" lon="-3.366800">
        <ele>1481.0</ele>
        <time>2016-07-25T14:28:49Z</time>
      </trkpt>
      <trkpt lat="41.405650" lon="-3.366550">
        <ele>1480.0</ele>
        <time>2016-07-25T14:28:51Z</time>
      </trkpt>
      <trkpt lat="41.405483" lon="-3.366317">
        <ele>1480.0</ele>
        <time>2016-07-25T14:28:53Z</time>
      </trkpt>
      <trkpt lat="41.405267" lon="-3.366150">
        <ele>1482.0</ele>
        <time>2016-07-25T14:28:55Z</time>
      </trkpt>
      <trkpt lat="41.405067" lon="-3.366100">
        <ele>1484.0</ele>
        <time>2016-07-25T14:28:57Z</time>
      </trkpt>
      <trkpt lat="41.404883" lon="-3.366167">
        <ele>1484.0</ele>
        <time>2016-07-25T14:28:59Z</time>
      </trkpt>
      <trkpt lat="41.404767" lon="-3.366300">
        <ele>1486.0</ele>
        <time>2016-07-25T14:29:01Z</time>
      </trkpt>
      <trkpt lat="41.404750" lon="-3.366450">
        <ele>1486.0</ele>
        <time>2016-07-25T14:29:03Z</time>
      </trkpt>
      <trkpt lat="41.404817" lon="-3.366600">
        <ele>1488.0</ele>
        <time>2016-07-25T14:29:05Z</time>
      </trkpt>
      <trkpt lat="41.404867" lon="-3.366717">
        <ele>1491.0</ele>
        <time>2016-07-25T14:29:07Z</time>
      </trkpt>
      <trkpt lat="41.404900" lon="-3.366883">
        <ele>1491.0</ele>
        <time>2016-07-25T14:29:09Z</time>
      </trkpt>
      <trkpt lat="41.404950" lon="-3.367067">
        <ele>1490.0</ele>
        <time>2016-07-25T14:29:11Z</time>
      </trkpt>
      <trkpt lat="41.404983" lon="-3.367267">
        <ele>1492.0</ele>
        <time>2016-07-25T14:29:13Z</time>
      </trkpt>
      <trkpt lat="41.405000" lon="-3.367417">
        <ele>1492.0</ele>
        <time>2016-07-25T14:29:15Z</time>
      </trkpt>
      <trkpt lat="41.405050" lon="-3.367550">
        <ele>1488.0</ele>
        <time>2016-07-25T14:29:17Z</time>
      </trkpt>
      <trkpt lat="41.405133" lon="-3.367650">
        <ele>1484.0</ele>
        <time>2016-07-25T14:29:19Z</time>
      </trkpt>
      <trkpt lat="41.405217" lon="-3.367783">
        <ele>1482.0</ele>
        <time>2016-07-25T14:29:21Z</time>
      </trkpt>
      <trkpt lat="41.405333" lon="-3.367850">
        <ele>1481.0</ele>
        <time>2016-07-25T14:29:23Z</time>
      </trkpt>
      <trkpt lat="41.405433" lon="-3.367950">
        <ele>1479.0</ele>
        <time>2016-07-25T14:29:25Z</time>
      </trkpt>
      <trkpt lat="41.405550" lon="-3.368067">
        <ele>1479.0</ele>
        <time>2016-07-25T14:29:27Z</time>
      </trkpt>
      <trkpt lat="41.405650" lon="-3.368117">
        <ele>1482.0</ele>
        <time>2016-07-25T14:29:29Z</time>
      </trkpt>
      <trkpt lat="41.405717" lon="-3.368183">
        <ele>1479.0</ele>
        <time>2016-07-25T14:29:31Z</time>
      </trkpt>
      <trkpt lat="41.405783" lon="-3.368233">
        <ele>1475.0</ele>
        <time>2016-07-25T14:29:33Z</time>
      </trkpt>
      <trkpt lat="41.405850" lon="-3.368283">
        <ele>1472.0</ele>
        <time>2016-07-25T14:29:35Z</time>
      </trkpt>
      <trkpt lat="41.405933" lon="-3.368333">
        <ele>1466.0</ele>
        <time>2016-07-25T14:29:37Z</time>
      </trkpt>
      <trkpt lat="41.406033" lon="-3.368383">
        <ele>1461.0</ele>
        <time>2016-07-25T14:29:39Z</time>
      </trkpt>
      <trkpt lat="41.406150" lon="-3.368433">
        <ele>1461.0</ele>
        <time>2016-07-25T14:29:41Z</time>
      </trkpt>
      <trkpt lat="41.406200" lon="-3.368483">
        <ele>1461.0</ele>
        <time>2016-07-25T14:29:43Z</time>
      </trkpt>
      <trkpt lat="41.406283" lon="-3.368550">
        <ele>1458.0</ele>
        <time>2016-07-25T14:29:45Z</time>
      </trkpt>
      <trkpt lat="41.406383" lon="-3.368617">
        <ele>1456.0</ele>
        <time>2016-07-25T14:29:47Z</time>
      </trkpt>
      <trkpt lat="41.406467" lon="-3.368700">
        <ele>1454.0</ele>
        <time>2016-07-25T14:29:49Z</time>
      </trkpt>
      <trkpt lat="41.406567" lon="-3.368767">
        <ele>1453.0</ele>
        <time>2016-07-25T14:29:51Z</time>
      </trkpt>
      <trkpt lat="41.406683" lon="-3.368850">
        <ele>1453.0</ele>
        <time>2016-07-25T14:29:53Z</time>
      </trkpt>
      <trkpt lat="41.406800" lon="-3.368950">
        <ele>1456.0</ele>
        <time>2016-07-25T14:29:55Z</time>
      </trkpt>
      <trkpt lat="41.406900" lon="-3.369050">
        <ele>1458.0</ele>
        <time>2016-07-25T14:29:57Z</time>
      </trkpt>
      <trkpt lat="41.407000" lon="-3.369083">
        <ele>1457.0</ele>
        <time>2016-07-25T14:29:59Z</time>
      </trkpt>
      <trkpt lat="41.407133" lon="-3.369017">
        <ele>1457.0</ele>
        <time>2016-07-25T14:30:01Z</time>
      </trkpt>
      <trkpt lat="41.407233" lon="-3.369017">
        <ele>1461.0</ele>
        <time>2016-07-25T14:30:03Z</time>
      </trkpt>
      <trkpt lat="41.407300" lon="-3.369100">
        <ele>1464.0</ele>
        <time>2016-07-25T14:30:05Z</time>
      </trkpt>
      <trkpt lat="41.407350" lon="-3.369233">
        <ele>1460.0</ele>
        <time>2016-07-25T14:30:07Z</time>
      </trkpt>
      <trkpt lat="41.407367" lon="-3.369450">
        <ele>1456.0</ele>
        <time>2016-07-25T14:30:09Z</time>
      </trkpt>
      <trkpt lat="41.407283" lon="-3.369683">
        <ele>1455.0</ele>
        <time>2016-07-25T14:30:11Z</time>
      </trkpt>
      <trkpt lat="41.407117" lon="-3.369833">
        <ele>1455.0</ele>
        <time>2016-07-25T14:30:13Z</time>
      </trkpt>
      <trkpt lat="41.406917" lon="-3.369867">
        <ele>1452.0</ele>
        <time>2016-07-25T14:30:15Z</time>
      </trkpt>
      <trkpt lat="41.406683" lon="-3.369833">
        <ele>1448.0</ele>
        <time>2016-07-25T14:30:17Z</time>
      </trkpt>
      <trkpt lat="41.406450" lon="-3.369733">
        <ele>1443.0</ele>
        <time>2016-07-25T14:30:19Z</time>
      </trkpt>
      <trkpt lat="41.406217" lon="-3.369600">
        <ele>1441.0</ele>
        <time>2016-07-25T14:30:21Z</time>
      </trkpt>
      <trkpt lat="41.406000" lon="-3.369417">
        <ele>1438.0</ele>
        <time>2016-07-25T14:30:23Z</time>
      </trkpt>
      <trkpt lat="41.405833" lon="-3.369183">
        <ele>1438.0</ele>
        <time>2016-07-25T14:30:25Z</time>
      </trkpt>
      <trkpt lat="41.405700" lon="-3.368933">
        <ele>1439.0</ele>
        <time>2016-07-25T14:30:27Z</time>
      </trkpt>
      <trkpt lat="41.405600" lon="-3.368683">
        <ele>1440.0</ele>
        <time>2016-07-25T14:30:29Z</time>
      </trkpt>
      <trkpt lat="41.405533" lon="-3.368450">
        <ele>1444.0</ele>
        <time>2016-07-25T14:30:31Z</time>
      </trkpt>
      <trkpt lat="41.405517" lon="-3.368250">
        <ele>1444.0</ele>
        <time>2016-07-25T14:30:33Z</time>
      </trkpt>
      <trkpt lat="41.405567" lon="-3.368033">
        <ele>1443.0</ele>
        <time>2016-07-25T14:30:35Z</time>
      </trkpt>
      <trkpt lat="41.405617" lon="-3.367833">
        <ele>1445.0</ele>
        <time>2016-07-25T14:30:37Z</time>
      </trkpt>
      <trkpt lat="41.405683" lon="-3.367683">
        <ele>1446.0</ele>
        <time>2016-07-25T14:30:39Z</time>
      </trkpt>
      <trkpt lat="41.405783" lon="-3.367533">
        <ele>1442.0</ele>
        <time>2016-07-25T14:30:41Z</time>
      </trkpt>
      <trkpt lat="41.405900" lon="-3.367400">
        <ele>1444.0</ele>
        <time>2016-07-25T14:30:43Z</time>
      </trkpt>
      <trkpt lat="41.405983" lon="-3.367317">
        <ele>1446.0</ele>
        <time>2016-07-25T14:30:45Z</time>
      </trkpt>
      <trkpt lat="41.406050" lon="-3.367250">
        <ele>1445.0</ele>
        <time>2016-07-25T14:30:47Z</time>
      </trkpt>
      <trkpt lat="41.406167" lon="-3.367183">
        <ele>1443.0</ele>
        <time>2016-07-25T14:30:49Z</time>
      </trkpt>
      <trkpt lat="41.406283" lon="-3.367133">
        <ele>1445.0</ele>
        <time>2016-07-25T14:30:51Z</time>
      </trkpt>
      <trkpt lat="41.406383" lon="-3.367117">
        <ele>1449.0</ele>
        <time>2016-07-25T14:30:53Z</time>
      </trkpt>
      <trkpt lat="41.406467" lon="-3.367050">
        <ele>1451.0</ele>
        <time>2016-07-25T14:30:55Z</time>
      </trkpt>
      <trkpt lat="41.406583" lon="-3.367000">
        <ele>1452.0</ele>
        <time>2016-07-25T14:30:57Z</time>
      </trkpt>
      <trkpt lat="41.406700" lon="-3.367033">
        <ele>1457.0</ele>
        <time>2016-07-25T14:30:59Z</time>
      </trkpt>
      <trkpt lat="41.406783" lon="-3.367100">
        <ele>1464.0</ele>
        <time>2016-07-25T14:31:01Z</time>
      </trkpt>
      <trkpt lat="41.406833" lon="-3.367200">
        <ele>1468.0</ele>
        <time>2016-07-25T14:31:03Z</time>
      </trkpt>
      <trkpt lat="41.406817" lon="-3.367400">
        <ele>1472.0</ele>
        <time>2016-07-25T14:31:05Z</time>
      </trkpt>
      <trkpt lat="41.406700" lon="-3.367567">
        <ele>1479.0</ele>
        <time>2016-07-25T14:31:07Z</time>
      </trkpt>
      <trkpt lat="41.406567" lon="-3.367633">
        <ele>1484.0</ele>
        <time>2016-07-25T14:31:09Z</time>
      </trkpt>
      <trkpt lat="41.406333" lon="-3.367700">
        <ele>1484.0</ele>
        <time>2016-07-25T14:31:11Z</time>
      </trkpt>
      <trkpt lat="41.406083" lon="-3.367667">
        <ele>1486.0</ele>
        <time>2016-07-25T14:31:13Z</time>
      </trkpt>
      <trkpt lat="41.405883" lon="-3.367533">
        <ele>1491.0</ele>
        <time>2016-07-25T14:31:15Z</time>
      </trkpt>
      <trkpt lat="41.405733" lon="-3.367367">
        <ele>1493.0</ele>
        <time>2016-07-25T14:31:17Z</time>
      </trkpt>
      <trkpt lat="41.405650" lon="-3.367083">
        <ele>1493.0</ele>
        <time>2016-07-25T14:31:19Z</time>
      </trkpt>
      <trkpt lat="41.405667" lon="-3.366800">
        <ele>1496.0</ele>
        <time>2016-07-25T14:31:21Z</time>
      </trkpt>
      <trkpt lat="41.405750" lon="-3.366667">
        <ele>1502.0</ele>
        <time>2016-07-25T14:31:23Z</time>
      </trkpt>
      <trkpt lat="41.405833" lon="-3.366617">
        <ele>1505.0</ele>
        <time>2016-07-25T14:31:25Z</time>
      </trkpt>
      <trkpt lat="41.405950" lon="-3.366550">
        <ele>1506.0</ele>
        <time>2016-07-25T14:31:27Z</time>
      </trkpt>
      <trkpt lat="41.406067" lon="-3.366450">
        <ele>1511.0</ele>
        <time>2016-07-25T14:31:29Z</time>
      </trkpt>
      <trkpt lat="41.406183" lon="-3.366367">
        <ele>1516.0</ele>
        <time>2016-07-25T14:31:31Z</time>
      </trkpt>
      <trkpt lat="41.406267" lon="-3.366350">
        <ele>1518.0</ele>
        <time>2016-07-25T14:31:33Z</time>
      </trkpt>
      <trkpt lat="41.406350" lon="-3.366433">
        <ele>1518.0</ele>
        <time>2016-07-25T14:31:35Z</time>
      </trkpt>
      <trkpt lat="41.406383" lon="-3.366600">
        <ele>1519.0</ele>
        <time>2016-07-25T14:31:37Z</time>
      </trkpt>
      <trkpt lat="41.406367" lon="-3.366800">
        <ele>1522.0</ele>
        <time>2016-07-25T14:31:39Z</time>
      </trkpt>
      <trkpt lat="41.406233" lon="-3.366967">
        <ele>1524.0</ele>
        <time>2016-07-25T14:31:41Z</time>
      </trkpt>
      <trkpt lat="41.406050" lon="-3.367083">
        <ele>1527.0</ele>
        <time>2016-07-25T14:31:43Z</time>
      </trkpt>
      <trkpt lat="41.405833" lon="-3.367133">
        <ele>1531.0</ele>
        <time>2016-07-25T14:31:45Z</time>
      </trkpt>
      <trkpt lat="41.405600" lon="-3.367100">
        <ele>1535.0</ele>
        <time>2016-07-25T14:31:47Z</time>
      </trkpt>
      <trkpt lat="41.405400" lon="-3.366983">
        <ele>1537.0</ele>
        <time>2016-07-25T14:31:49Z</time>
      </trkpt>
      <trkpt lat="41.405217" lon="-3.366750">
        <ele>1536.0</ele>
        <time>2016-07-25T14:31:51Z</time>
      </trkpt>
      <trkpt lat="41.405083" lon="-3.366433">
        <ele>1537.0</ele>
        <time>2016-07-25T14:31:53Z</time>
      </trkpt>
      <trkpt lat="41.405017" lon="-3.366150">
        <ele>1542.0</ele>
        <time>2016-07-25T14:31:55Z</time>
      </trkpt>
      <trkpt lat="41.405000" lon="-3.365900">
        <ele>1545.0</ele>
        <time>2016-07-25T14:31:57Z</time>
      </trkpt>
      <trkpt lat="41.405033" lon="-3.365667">
        <ele>1545.0</ele>
        <time>2016-07-25T14:31:59Z</time>
      </trkpt>
      <trkpt lat="41.405150" lon="-3.365450">
        <ele>1546.0</ele>
        <time>2016-07-25T14:32:01Z</time>
      </trkpt>
      <trkpt lat="41.405267" lon="-3.365350">
        <ele>1549.0</ele>
        <time>2016-07-25T14:32:03Z</time>
      </trkpt>
      <trkpt lat="41.405383" lon="-3.365283">
        <ele>1550.0</ele>
        <time>2016-07-25T14:32:05Z</time>
      </trkpt>
      <trkpt lat="41.405500" lon="-3.365283">
        <ele>1553.0</ele>
        <time>2016-07-25T14:32:07Z</time>
      </trkpt>
      <trkpt lat="41.405600" lon="-3.365300">
        <ele>1554.0</ele>
        <time>2016-07-25T14:32:09Z</time>
      </trkpt>
      <trkpt lat="41.405683" lon="-3.365367">
        <ele>1553.0</ele>
        <time>2016-07-25T14:32:11Z</time>
      </trkpt>
      <trkpt lat="41.405767" lon="-3.365533">
        <ele>1552.0</ele>
        <time>2016-07-25T14:32:13Z</time>
      </trkpt>
      <trkpt lat="41.405817" lon="-3.365683">
        <ele>1555.0</ele>
        <time>2016-07-25T14:32:15Z</time>
      </trkpt>
      <trkpt lat="41.405850" lon="-3.365817">
        <ele>1557.0</ele>
        <time>2016-07-25T14:32:17Z</time>
      </trkpt>
      <trkpt lat="41.405900" lon="-3.365967">
        <ele>1557.0</ele>
        <time>2016-07-25T14:32:19Z</time>
      </trkpt>
      <trkpt lat="41.405917" lon="-3.366133">
        <ele>1559.0</ele>
        <time>2016-07-25T14:32:21Z</time>
      </trkpt>
      <trkpt lat="41.405850" lon="-3.366317">
        <ele>1561.0</ele>
        <time>2016-07-25T14:32:23Z</time>
      </trkpt>
      <trkpt lat="41.405717" lon="-3.366500">
        <ele>1564.0</ele>
        <time>2016-07-25T14:32:25Z</time>
      </trkpt>
      <trkpt lat="41.405583" lon="-3.366600">
        <ele>1570.0</ele>
        <time>2016-07-25T14:32:27Z</time>
      </trkpt>
      <trkpt lat="41.405417" lon="-3.366633">
        <ele>1571.0</ele>
        <time>2016-07-25T14:32:29Z</time>
      </trkpt>
      <trkpt lat="41.405233" lon="-3.366633">
        <ele>1570.0</ele>
        <time>2016-07-25T14:32:31Z</time>
      </trkpt>
      <trkpt lat="41.405000" lon="-3.366550">
        <ele>1568.0</ele>
        <time>2016-07-25T14:32:33Z</time>
      </trkpt>
      <trkpt lat="41.404783" lon="-3.366333">
        <ele>1568.0</ele>
        <time>2016-07-25T14:32:35Z</time>
      </trkpt>
      <trkpt lat="41.404650" lon="-3.366067">
        <ele>1568.0</ele>
        <time>2016-07-25T14:32:37Z</time>
      </trkpt>
      <trkpt lat="41.404567" lon="-3.365733">
        <ele>1567.0</ele>
        <time>2016-07-25T14:32:39Z</time>
      </trkpt>
      <trkpt lat="41.404517" lon="-3.365367">
        <ele>1568.0</ele>
        <time>2016-07-25T14:32:41Z</time>
      </trkpt>
      <trkpt lat="41.404517" lon="-3.365067">
        <ele>1574.0</ele>
        <time>2016-07-25T14:32:43Z</time>
      </trkpt>
      <trkpt lat="41.404533" lon="-3.364817">
        <ele>1578.0</ele>
        <time>2016-07-25T14:32:45Z</time>
      </trkpt>
      <trkpt lat="41.404567" lon="-3.364583">
        <ele>1579.0</ele>
        <time>2016-07-25T14:32:47Z</time>
      </trkpt>
      <trkpt lat="41.404683" lon="-3.364417">
        <ele>1580.0</ele>
        <time>2016-07-25T14:32:49Z</time>
      </trkpt>
      <trkpt lat="41.404783" lon="-3.364350">
        <ele>1581.0</ele>
        <time>2016-07-25T14:32:51Z</time>
      </trkpt>
      <trkpt lat="41.404900" lon="-3.364367">
        <ele>1581.0</ele>
        <time>2016-07-25T14:32:53Z</time>
      </trkpt>
      <trkpt lat="41.405017" lon="-3.364400">
        <ele>1581.0</ele>
        <time>2016-07-25T14:32:55Z</time>
      </trkpt>
      <trkpt lat="41.405100" lon="-3.364500">
        <ele>1581.0</ele>
        <time>2016-07-25T14:32:57Z</time>
      </trkpt>
      <trkpt lat="41.405183" lon="-3.364617">
        <ele>1581.0</ele>
        <time>2016-07-25T14:32:59Z</time>
      </trkpt>
      <trkpt lat="41.405250" lon="-3.364733">
        <ele>1582.0</ele>
        <time>2016-07-25T14:33:01Z</time>
      </trkpt>
      <trkpt lat="41.405283" lon="-3.364850">
        <ele>1582.0</ele>
        <time>2016-07-25T14:33:03Z</time>
      </trkpt>
      <trkpt lat="41.405283" lon="-3.365000">
        <ele>1581.0</ele>
        <time>2016-07-25T14:33:05Z</time>
      </trkpt>
      <trkpt lat="41.405267" lon="-3.365167">
        <ele>1582.0</ele>
        <time>2016-07-25T14:33:07Z</time>
      </trkpt>
      <trkpt lat="41.405250" lon="-3.365350">
        <ele>1582.0</ele>
        <time>2016-07-25T14:33:09Z</time>
      </trkpt>
      <trkpt lat="41.405183" lon="-3.365567">
        <ele>1581.0</ele>
        <time>2016-07-25T14:33:11Z</time>
      </trkpt>
      <trkpt lat="41.405117" lon="-3.365767">
        <ele>1584.0</ele>
        <time>2016-07-25T14:33:13Z</time>
      </trkpt>
      <trkpt lat="41.405033" lon="-3.365917">
        <ele>1584.0</ele>
        <time>2016-07-25T14:33:15Z</time>
      </trkpt>
      <trkpt lat="41.404900" lon="-3.366083">
        <ele>1581.0</ele>
        <time>2016-07-25T14:33:17Z</time>
      </trkpt>
      <trkpt lat="41.404700" lon="-3.366250">
        <ele>1580.0</ele>
        <time>2016-07-25T14:33:19Z</time>
      </trkpt>
      <trkpt lat="41.404500" lon="-3.366333">
        <ele>1584.0</ele>
        <time>2016-07-25T14:33:21Z</time>
      </trkpt>
      <trkpt lat="41.404283" lon="-3.366367">
        <ele>1587.0</ele>
        <time>2016-07-25T14:33:23Z</time>
      </trkpt>
      <trkpt lat="41.404050" lon="-3.366367">
        <ele>1590.0</ele>
        <time>2016-07-25T14:33:25Z</time>
      </trkpt>
      <trkpt lat="41.403817" lon="-3.366317">
        <ele>1593.0</ele>
        <time>2016-07-25T14:33:27Z</time>
      </trkpt>
      <trkpt lat="41.403583" lon="-3.366167">
        <ele>1594.0</ele>
        <time>2016-07-25T14:33:29Z</time>
      </trkpt>
      <trkpt lat="41.403383" lon="-3.365933">
        <ele>1596.0</ele>
        <time>2016-07-25T14:33:31Z</time>
      </trkpt>
      <trkpt lat="41.403250" lon="-3.365633">
        <ele>1597.0</ele>
        <time>2016-07-25T14:33:33Z</time>
      </trkpt>
      <trkpt lat="41.403183" lon="-3.365283">
        <ele>1601.0</ele>
        <time>2016-07-25T14:33:35Z</time>
      </trkpt>
      <trkpt lat="41.403200" lon="-3.365000">
        <ele>1609.0</ele>
        <time>2016-07-25T14:33:37Z</time>
      </trkpt>
      <trkpt lat="41.403250" lon="-3.364800">
        <ele>1614.0</ele>
        <time>2016-07-25T14:33:39Z</time>
      </trkpt>
      <trkpt lat="41.403333" lon="-3.364617">
        <ele>1615.0</ele>
        <time>2016-07-25T14:33:41Z</time>
      </trkpt>
      <trkpt lat="41.403467" lon="-3.364500">
        <ele>1614.0</ele>
        <time>2016-07-25T14:33:43Z</time>
      </trkpt>
      <trkpt lat="41.403583" lon="-3.364467">
        <ele>1615.0</ele>
        <time>2016-07-25T14:33:45Z</time>
      </trkpt>
      <trkpt lat="41.403667" lon="-3.364517">
        <ele>1616.0</ele>
        <time>2016-07-25T14:33:47Z</time>
      </trkpt>
      <trkpt lat="41.403733" lon="-3.364633">
        <ele>1616.0</ele>
        <time>2016-07-25T14:33:49Z</time>
      </trkpt>
      <trkpt lat="41.403750" lon="-3.364800">
        <ele>1617.0</ele>
        <time>2016-07-25T14:33:51Z</time>
      </trkpt>
      <trkpt lat="41.403717" lon="-3.365000">
        <ele>1620.0</ele>
        <time>2016-07-25T14:33:53Z</time>
      </trkpt>
      <trkpt lat="41.403650" lon="-3.365183">
        <ele>1623.0</ele>
        <time>2016-07-25T14:33:55Z</time>
      </trkpt>
      <trkpt lat="41.403533" lon="-3.365367">
        <ele>1625.0</ele>
        <time>2016-07-25T14:33:57Z</time>
      </trkpt>
      <trkpt lat="41.403317" lon="-3.365483">
        <ele>1625.0</ele>
        <time>2016-07-25T14:33:59Z</time>
      </trkpt>
      <trkpt lat="41.403083" lon="-3.365467">
        <ele>1629.0</ele>
        <time>2016-07-25T14:34:01Z</time>
      </trkpt>
      <trkpt lat="41.402883" lon="-3.365367">
        <ele>1629.0</ele>
        <time>2016-07-25T14:34:03Z</time>
      </trkpt>
      <trkpt lat="41.402683" lon="-3.365150">
        <ele>1629.0</ele>
        <time>2016-07-25T14:34:05Z</time>
      </trkpt>
      <trkpt lat="41.402550" lon="-3.364867">
        <ele>1633.0</ele>
        <time>2016-07-25T14:34:07Z</time>
      </trkpt>
      <trkpt lat="41.402500" lon="-3.364617">
        <ele>1639.0</ele>
        <time>2016-07-25T14:34:09Z</time>
      </trkpt>
      <trkpt lat="41.402517" lon="-3.364400">
        <ele>1642.0</ele>
        <time>2016-07-25T14:34:11Z</time>
      </trkpt>
      <trkpt lat="41.402583" lon="-3.364267">
        <ele>1643.0</ele>
        <time>2016-07-25T14:34:13Z</time>
      </trkpt>
      <trkpt lat="41.402667" lon="-3.364183">
        <ele>1645.0</ele>
        <time>2016-07-25T14:34:15Z</time>
      </trkpt>
      <trkpt lat="41.402767" lon="-3.364150">
        <ele>1645.0</ele>
        <time>2016-07-25T14:34:17Z</time>
      </trkpt>
      <trkpt lat="41.402883" lon="-3.364167">
        <ele>1646.0</ele>
        <time>2016-07-25T14:34:19Z</time>
      </trkpt>
      <trkpt lat="41.403017" lon="-3.364200">
        <ele>1649.0</ele>
        <time>2016-07-25T14:34:21Z</time>
      </trkpt>
      <trkpt lat="41.403117" lon="-3.364233">
        <ele>1652.0</ele>
        <time>2016-07-25T14:34:23Z</time>
      </trkpt>
      <trkpt lat="41.403200" lon="-3.364317">
        <ele>1655.0</ele>
        <time>2016-07-25T14:34:25Z</time>
      </trkpt>
      <trkpt lat="41.403283" lon="-3.364433">
        <ele>1659.0</ele>
        <time>2016-07-25T14:34:27Z</time>
      </trkpt>
      <trkpt lat="41.403317" lon="-3.364533">
        <ele>1664.0</ele>
        <time>2016-07-25T14:34:29Z</time>
      </trkpt>
      <trkpt lat="41.403300" lon="-3.364650">
        <ele>1666.0</ele>
        <time>2016-07-25T14:34:31Z</time>
      </trkpt>
      <trkpt lat="41.403267" lon="-3.364850">
        <ele>1665.0</ele>
        <time>2016-07-25T14:34:33Z</time>
      </trkpt>
      <trkpt lat="41.403183" lon="-3.365067">
        <ele>1667.0</ele>
        <time>2016-07-25T14:34:35Z</time>
      </trkpt>
      <trkpt lat="41.403083" lon="-3.365233">
        <ele>1673.0</ele>
        <time>2016-07-25T14:34:37Z</time>
      </trkpt>
      <trkpt lat="41.403000" lon="-3.365450">
        <ele>1677.0</ele>
        <time>2016-07-25T14:34:39Z</time>
      </trkpt>
      <trkpt lat="41.402867" lon="-3.365667">
        <ele>1681.0</ele>
        <time>2016-07-25T14:34:41Z</time>
      </trkpt>
      <trkpt lat="41.402683" lon="-3.365817">
        <ele>1684.0</ele>
        <time>2016-07-25T14:34:43Z</time>
      </trkpt>
      <trkpt lat="41.402483" lon="-3.365883">
        <ele>1685.0</ele>
        <time>2016-07-25T14:34:45Z</time>
      </trkpt>
      <trkpt lat="41.402250" lon="-3.365850">
        <ele>1683.0</ele>
        <time>2016-07-25T14:34:47Z</time>
      </trkpt>
      <trkpt lat="41.402050" lon="-3.365683">
        <ele>1680.0</ele>
        <time>2016-07-25T14:34:49Z</time>
      </trkpt>
      <trkpt lat="41.401900" lon="-3.365433">
        <ele>1680.0</ele>
        <time>2016-07-25T14:34:51Z</time>
      </trkpt>
      <trkpt lat="41.401850" lon="-3.365200">
        <ele>1683.0</ele>
        <time>2016-07-25T14:34:53Z</time>
      </trkpt>
      <trkpt lat="41.401850" lon="-3.364983">
        <ele>1688.0</ele>
        <time>2016-07-25T14:34:55Z</time>
      </trkpt>
      <trkpt lat="41.401850" lon="-3.364767">
        <ele>1695.0</ele>
        <time>2016-07-25T14:34:57Z</time>
      </trkpt>
      <trkpt lat="41.401867" lon="-3.364567">
        <ele>1701.0</ele>
        <time>2016-07-25T14:34:59Z</time>
      </trkpt>
      <trkpt lat="41.401950" lon="-3.364417">
        <ele>1706.0</ele>
        <time>2016-07-25T14:35:01Z</time>
      </trkpt>
      <trkpt lat="41.402067" lon="-3.364367">
        <ele>1713.0</ele>
        <time>2016-07-25T14:35:03Z</time>
      </trkpt>
      <trkpt lat="41.402167" lon="-3.364383">
        <ele>1720.0</ele>
        <time>2016-07-25T14:35:05Z</time>
      </trkpt>
      <trkpt lat="41.402250" lon="-3.364500">
        <ele>1726.0</ele>
        <time>2016-07-25T14:35:07Z</time>
      </trkpt>
      <trkpt lat="41.402250" lon="-3.364650">
        <ele>1733.0</ele>
        <time>2016-07-25T14:35:09Z</time>
      </trkpt>
      <trkpt lat="41.402167" lon="-3.364817">
        <ele>1737.0</ele>
        <time>2016-07-25T14:35:11Z</time>
      </trkpt>
      <trkpt lat="41.402000" lon="-3.365000">
        <ele>1738.0</ele>
        <time>2016-07-25T14:35:13Z</time>
      </trkpt>
      <trkpt lat="41.401783" lon="-3.365133">
        <ele>1738.0</ele>
        <time>2016-07-25T14:35:15Z</time>
      </trkpt>
      <trkpt lat="41.401600" lon="-3.365183">
        <ele>1738.0</ele>
        <time>2016-07-25T14:35:17Z</time>
      </trkpt>
      <trkpt lat="41.401417" lon="-3.365133">
        <ele>1735.0</ele>
        <time>2016-07-25T14:35:19Z</time>
      </trkpt>
      <trkpt lat="41.401183" lon="-3.364983">
        <ele>1727.0</ele>
        <time>2016-07-25T14:35:21Z</time>
      </trkpt>
      <trkpt lat="41.400967" lon="-3.364733">
        <ele>1724.0</ele>
        <time>2016-07-25T14:35:23Z</time>
      </trkpt>
      <trkpt lat="41.400833" lon="-3.364450">
        <ele>1724.0</ele>
        <time>2016-07-25T14:35:25Z</time>
      </trkpt>
      <trkpt lat="41.400767" lon="-3.364100">
        <ele>1728.0</ele>
        <time>2016-07-25T14:35:27Z</time>
      </trkpt>
      <trkpt lat="41.400733" lon="-3.363833">
        <ele>1737.0</ele>
        <time>2016-07-25T14:35:29Z</time>
      </trkpt>
      <trkpt lat="41.400700" lon="-3.363617">
        <ele>1742.0</ele>
        <time>2016-07-25T14:35:31Z</time>
      </trkpt>
      <trkpt lat="41.400717" lon="-3.363383">
        <ele>1744.0</ele>
        <time>2016-07-25T14:35:33Z</time>
      </trkpt>
      <trkpt lat="41.400800" lon="-3.363183">
        <ele>1747.0</ele>
        <time>2016-07-25T14:35:35Z</time>
      </trkpt>
      <trkpt lat="41.400900" lon="-3.363050">
        <ele>1753.0</ele>
        <time>2016-07-25T14:35:37Z</time>
      </trkpt>
      <trkpt lat="41.401017" lon="-3.363033">
        <ele>1759.0</ele>
        <time>2016-07-25T14:35:39Z</time>
      </trkpt>
      <trkpt lat="41.401133" lon="-3.363050">
        <ele>1766.0</ele>
        <time>2016-07-25T14:35:41Z</time>
      </trkpt>
      <trkpt lat="41.401217" lon="-3.363133">
        <ele>1773.0</ele>
        <time>2016-07-25T14:35:43Z</time>
      </trkpt>
      <trkpt lat="41.401233" lon="-3.363267">
        <ele>1779.0</ele>
        <time>2016-07-25T14:35:45Z</time>
      </trkpt>
      <trkpt lat="41.401217" lon="-3.363433">
        <ele>1783.0</ele>
        <time>2016-07-25T14:35:47Z</time>
      </trkpt>
      <trkpt lat="41.401133" lon="-3.363583">
        <ele>1786.0</ele>
        <time>2016-07-25T14:35:49Z</time>
      </trkpt>
      <trkpt lat="41.400967" lon="-3.363700">
        <ele>1788.0</ele>
        <time>2016-07-25T14:35:51Z</time>
      </trkpt>
      <trkpt lat="41.400750" lon="-3.363733">
        <ele>1790.0</ele>
        <time>2016-07-25T14:35:53Z</time>
      </trkpt>
      <trkpt lat="41.400500" lon="-3.363633">
        <ele>1789.0</ele>
        <time>2016-07-25T14:35:55Z</time>
      </trkpt>
      <trkpt lat="41.400250" lon="-3.363367">
        <ele>1789.0</ele>
        <time>2016-07-25T14:35:57Z</time>
      </trkpt>
      <trkpt lat="41.400067" lon="-3.363083">
        <ele>1795.0</ele>
        <time>2016-07-25T14:35:59Z</time>
      </trkpt>
      <trkpt lat="41.399933" lon="-3.362817">
        <ele>1800.0</ele>
        <time>2016-07-25T14:36:01Z</time>
      </trkpt>
      <trkpt lat="41.399850" lon="-3.362550">
        <ele>1806.0</ele>
        <time>2016-07-25T14:36:03Z</time>
      </trkpt>
      <trkpt lat="41.399833" lon="-3.362300">
        <ele>1812.0</ele>
        <time>2016-07-25T14:36:05Z</time>
      </trkpt>
      <trkpt lat="41.399867" lon="-3.362050">
        <ele>1818.0</ele>
        <time>2016-07-25T14:36:07Z</time>
      </trkpt>
      <trkpt lat="41.399950" lon="-3.361867">
        <ele>1825.0</ele>
        <time>2016-07-25T14:36:09Z</time>
      </trkpt>
      <trkpt lat="41.400067" lon="-3.361750">
        <ele>1832.0</ele>
        <time>2016-07-25T14:36:11Z</time>
      </trkpt>
      <trkpt lat="41.400200" lon="-3.361733">
        <ele>1838.0</ele>
        <time>2016-07-25T14:36:13Z</time>
      </trkpt>
      <trkpt lat="41.400300" lon="-3.361783">
        <ele>1847.0</ele>
        <time>2016-07-25T14:36:15Z</time>
      </trkpt>
      <trkpt lat="41.400383" lon="-3.361883">
        <ele>1855.0</ele>
        <time>2016-07-25T14:36:17Z</time>
      </trkpt>
      <trkpt lat="41.400383" lon="-3.362050">
        <ele>1862.0</ele>
        <time>2016-07-25T14:36:19Z</time>
      </trkpt>
      <trkpt lat="41.400300" lon="-3.362217">
        <ele>1868.0</ele>
        <time>2016-07-25T14:36:21Z</time>
      </trkpt>
      <trkpt lat="41.400200" lon="-3.362317">
        <ele>1874.0</ele>
        <time>2016-07-25T14:36:23Z</time>
      </trkpt>
      <trkpt lat="41.400000" lon="-3.362383">
        <ele>1873.0</ele>
        <time>2016-07-25T14:36:25Z</time>
      </trkpt>
      <trkpt lat="41.399717" lon="-3.362333">
        <ele>1875.0</ele>
        <time>2016-07-25T14:36:27Z</time>
      </trkpt>
      <trkpt lat="41.399500" lon="-3.362167">
        <ele>1879.0</ele>
        <time>2016-07-25T14:36:29Z</time>
      </trkpt>
      <trkpt lat="41.399300" lon="-3.361933">
        <ele>1885.0</ele>
        <time>2016-07-25T14:36:31Z</time>
      </trkpt>
      <trkpt lat="41.399183" lon="-3.361650">
        <ele>1891.0</ele>
        <time>2016-07-25T14:36:33Z</time>
      </trkpt>
      <trkpt lat="41.399117" lon="-3.361350">
        <ele>1896.0</ele>
        <time>2016-07-25T14:36:35Z</time>
      </trkpt>
      <trkpt lat="41.399133" lon="-3.361083">
        <ele>1905.0</ele>
        <time>2016-07-25T14:36:37Z</time>
      </trkpt>
      <trkpt lat="41.399233" lon="-3.360933">
        <ele>1912.0</ele>
        <time>2016-07-25T14:36:39Z</time>
      </trkpt>
      <trkpt lat="41.399317" lon="-3.360850">
        <ele>1917.0</ele>
        <time>2016-07-25T14:36:41Z</time>
      </trkpt>
      <trkpt lat="41.399433" lon="-3.360833">
        <ele>1921.0</ele>
        <time>2016-07-25T14:36:43Z</time>
      </trkpt>
      <trkpt lat="41.399550" lon="-3.360900">
        <ele>1928.0</ele>
        <time>2016-07-25T14:36:45Z</time>
      </trkpt>
      <trkpt lat="41.399600" lon="-3.361017">
        <ele>1935.0</ele>
        <time>2016-07-25T14:36:47Z</time>
      </trkpt>
      <trkpt lat="41.399617" lon="-3.361183">
        <ele>1941.0</ele>
        <time>2016-07-25T14:36:49Z</time>
      </trkpt>
      <trkpt lat="41.399533" lon="-3.361350">
        <ele>1945.0</ele>
        <time>2016-07-25T14:36:51Z</time>
      </trkpt>
      <trkpt lat="41.399383" lon="-3.361517">
        <ele>1949.0</ele>
        <time>2016-07-25T14:36:53Z</time>
      </trkpt>
      <trkpt lat="41.399167" lon="-3.361633">
        <ele>1951.0</ele>
        <time>2016-07-25T14:36:55Z</time>
      </trkpt>
      <trkpt lat="41.398933" lon="-3.361633">
        <ele>1952.0</ele>
        <time>2016-07-25T14:36:57Z</time>
      </trkpt>
      <trkpt lat="41.398683" lon="-3.361550">
        <ele>1955.0</ele>
        <time>2016-07-25T14:36:59Z</time>
      </trkpt>
      <trkpt lat="41.398467" lon="-3.361367">
        <ele>1957.0</ele>
        <time>2016-07-25T14:37:01Z</time>
      </trkpt>
      <trkpt lat="41.398283" lon="-3.361100">
        <ele>1962.0</ele>
        <time>2016-07-25T14:37:03Z</time>
      </trkpt>
      <trkpt lat="41.398200" lon="-3.360850">
        <ele>1969.0</ele>
        <time>2016-07-25T14:37:05Z</time>
      </trkpt>
      <trkpt lat="41.398150" lon="-3.360617">
        <ele>1974.0</ele>
        <time>2016-07-25T14:37:07Z</time>
      </trkpt>
      <trkpt lat="41.398167" lon="-3.360350">
        <ele>1978.0</ele>
        <time>2016-07-25T14:37:09Z</time>
      </trkpt>
      <trkpt lat="41.398233" lon="-3.360133">
        <ele>1988.0</ele>
        <time>2016-07-25T14:37:11Z</time>
      </trkpt>
      <trkpt lat="41.398283" lon="-3.360000">
        <ele>1994.0</ele>
        <time>2016-07-25T14:37:13Z</time>
      </trkpt>
      <trkpt lat="41.398383" lon="-3.359883">
        <ele>1994.0</ele>
        <time>2016-07-25T14:37:15Z</time>
      </trkpt>
      <trkpt lat="41.398533" lon="-3.359833">
        <ele>1998.0</ele>
        <time>2016-07-25T14:37:17Z</time>
      </trkpt>
      <trkpt lat="41.398683" lon="-3.359850">
        <ele>2007.0</ele>
        <time>2016-07-25T14:37:19Z</time>
      </trkpt>
      <trkpt lat="41.398750" lon="-3.359933">
        <ele>2017.0</ele>
        <time>2016-07-25T14:37:21Z</time>
      </trkpt>
      <trkpt lat="41.398817" lon="-3.360017">
        <ele>2022.0</ele>
        <time>2016-07-25T14:37:23Z</time>
      </trkpt>
      <trkpt lat="41.398833" lon="-3.360167">
        <ele>2022.0</ele>
        <time>2016-07-25T14:37:25Z</time>
      </trkpt>
      <trkpt lat="41.398733" lon="-3.360400">
        <ele>2023.0</ele>
        <time>2016-07-25T14:37:27Z</time>
      </trkpt>
      <trkpt lat="41.398567" lon="-3.360550">
        <ele>2026.0</ele>
        <time>2016-07-25T14:37:29Z</time>
      </trkpt>
      <trkpt lat="41.398350" lon="-3.360600">
        <ele>2027.0</ele>
        <time>2016-07-25T14:37:31Z</time>
      </trkpt>
      <trkpt lat="41.398117" lon="-3.360550">
        <ele>2025.0</ele>
        <time>2016-07-25T14:37:33Z</time>
      </trkpt>
      <trkpt lat="41.397867" lon="-3.360350">
        <ele>2024.0</ele>
        <time>2016-07-25T14:37:35Z</time>
      </trkpt>
      <trkpt lat="41.397683" lon="-3.360067">
        <ele>2029.0</ele>
        <time>2016-07-25T14:37:37Z</time>
      </trkpt>
      <trkpt lat="41.397600" lon="-3.359783">
        <ele>2036.0</ele>
        <time>2016-07-25T14:37:39Z</time>
      </trkpt>
      <trkpt lat="41.397567" lon="-3.359517">
        <ele>2043.0</ele>
        <time>2016-07-25T14:37:41Z</time>
      </trkpt>
      <trkpt lat="41.397583" lon="-3.359267">
        <ele>2049.0</ele>
        <time>2016-07-25T14:37:43Z</time>
      </trkpt>
      <trkpt lat="41.397633" lon="-3.359067">
        <ele>2053.0</ele>
        <time>2016-07-25T14:37:45Z</time>
      </trkpt>
      <trkpt lat="41.397717" lon="-3.358883">
        <ele>2058.0</ele>
        <time>2016-07-25T14:37:47Z</time>
      </trkpt>
      <trkpt lat="41.397833" lon="-3.358700">
        <ele>2064.0</ele>
        <time>2016-07-25T14:37:49Z</time>
      </trkpt>
      <trkpt lat="41.397933" lon="-3.358550">
        <ele>2071.0</ele>
        <time>2016-07-25T14:37:51Z</time>
      </trkpt>
      <trkpt lat="41.398033" lon="-3.358500">
        <ele>2076.0</ele>
        <time>2016-07-25T14:37:53Z</time>
      </trkpt>
      <trkpt lat="41.398150" lon="-3.358517">
        <ele>2081.0</ele>
        <time>2016-07-25T14:37:55Z</time>
      </trkpt>
      <trkpt lat="41.398233" lon="-3.358567">
        <ele>2087.0</ele>
        <time>2016-07-25T14:37:57Z</time>
      </trkpt>
      <trkpt lat="41.398267" lon="-3.358717">
        <ele>2091.0</ele>
        <time>2016-07-25T14:37:59Z</time>
      </trkpt>
      <trkpt lat="41.398250" lon="-3.358900">
        <ele>2095.0</ele>
        <time>2016-07-25T14:38:01Z</time>
      </trkpt>
      <trkpt lat="41.398183" lon="-3.359083">
        <ele>2100.0</ele>
        <time>2016-07-25T14:38:03Z</time>
      </trkpt>
      <trkpt lat="41.398050" lon="-3.359233">
        <ele>2101.0</ele>
        <time>2016-07-25T14:38:05Z</time>
      </trkpt>
      <trkpt lat="41.397817" lon="-3.359333">
        <ele>2102.0</ele>
        <time>2016-07-25T14:38:07Z</time>
      </trkpt>
      <trkpt lat="41.397600" lon="-3.359333">
        <ele>2107.0</ele>
        <time>2016-07-25T14:38:09Z</time>
      </trkpt>
      <trkpt lat="41.397417" lon="-3.359250">
        <ele>2109.0</ele>
        <time>2016-07-25T14:38:11Z</time>
      </trkpt>
      <trkpt lat="41.397233" lon="-3.359017">
        <ele>2111.0</ele>
        <time>2016-07-25T14:38:13Z</time>
      </trkpt>
      <trkpt lat="41.397133" lon="-3.358717">
        <ele>2117.0</ele>
        <time>2016-07-25T14:38:15Z</time>
      </trkpt>
      <trkpt lat="41.397083" lon="-3.358467">
        <ele>2122.0</ele>
        <time>2016-07-25T14:38:17Z</time>
      </trkpt>
      <trkpt lat="41.397067" lon="-3.358183">
        <ele>2125.0</ele>
        <time>2016-07-25T14:38:19Z</time>
      </trkpt>
      <trkpt lat="41.397100" lon="-3.357883">
        <ele>2128.0</ele>
        <time>2016-07-25T14:38:21Z</time>
      </trkpt>
      <trkpt lat="41.397200" lon="-3.357683">
        <ele>2135.0</ele>
        <time>2016-07-25T14:38:23Z</time>
      </trkpt>
      <trkpt lat="41.397300" lon="-3.357517">
        <ele>2141.0</ele>
        <time>2016-07-25T14:38:25Z</time>
      </trkpt>
      <trkpt lat="41.397417" lon="-3.357417">
        <ele>2147.0</ele>
        <time>2016-07-25T14:38:27Z</time>
      </trkpt>
      <trkpt lat="41.397517" lon="-3.357400">
        <ele>2152.0</ele>
        <time>2016-07-25T14:38:29Z</time>
      </trkpt>
      <trkpt lat="41.397633" lon="-3.357450">
        <ele>2157.0</ele>
        <time>2016-07-25T14:38:31Z</time>
      </trkpt>
      <trkpt lat="41.397700" lon="-3.357533">
        <ele>2162.0</ele>
        <time>2016-07-25T14:38:33Z</time>
      </trkpt>
      <trkpt lat="41.397750" lon="-3.357683">
        <ele>2166.0</ele>
        <time>2016-07-25T14:38:35Z</time>
      </trkpt>
      <trkpt lat="41.397733" lon="-3.357883">
        <ele>2172.0</ele>
        <time>2016-07-25T14:38:37Z</time>
      </trkpt>
      <trkpt lat="41.397633" lon="-3.358067">
        <ele>2177.0</ele>
        <time>2016-07-25T14:38:39Z</time>
      </trkpt>
      <trkpt lat="41.397483" lon="-3.358217">
        <ele>2182.0</ele>
        <time>2016-07-25T14:38:41Z</time>
      </trkpt>
      <trkpt lat="41.397317" lon="-3.358317">
        <ele>2183.0</ele>
        <time>2016-07-25T14:38:43Z</time>
      </trkpt>
      <trkpt lat="41.397083" lon="-3.358367">
        <ele>2182.0</ele>
        <time>2016-07-25T14:38:45Z</time>
      </trkpt>
      <trkpt lat="41.396833" lon="-3.358283">
        <ele>2181.0</ele>
        <time>2016-07-25T14:38:47Z</time>
      </trkpt>
      <trkpt lat="41.396633" lon="-3.358117">
        <ele>2182.0</ele>
        <time>2016-07-25T14:38:49Z</time>
      </trkpt>
      <trkpt lat="41.396500" lon="-3.357900">
        <ele>2184.0</ele>
        <time>2016-07-25T14:38:51Z</time>
      </trkpt>
      <trkpt lat="41.396400" lon="-3.357650">
        <ele>2184.0</ele>
        <time>2016-07-25T14:38:53Z</time>
      </trkpt>
      <trkpt lat="41.396367" lon="-3.357350">
        <ele>2183.0</ele>
        <time>2016-07-25T14:38:55Z</time>
      </trkpt>
      <trkpt lat="41.396367" lon="-3.357033">
        <ele>2185.0</ele>
        <time>2016-07-25T14:38:57Z</time>
      </trkpt>
      <trkpt lat="41.396417" lon="-3.356767">
        <ele>2190.0</ele>
        <time>2016-07-25T14:38:59Z</time>
      </trkpt>
      <trkpt lat="41.396483" lon="-3.356533">
        <ele>2194.0</ele>
        <time>2016-07-25T14:39:01Z</time>
      </trkpt>
      <trkpt lat="41.396600" lon="-3.356300">
        <ele>2198.0</ele>
        <time>2016-07-25T14:39:03Z</time>
      </trkpt>
      <trkpt lat="41.396717" lon="-3.356150">
        <ele>2205.0</ele>
        <time>2016-07-25T14:39:05Z</time>
      </trkpt>
      <trkpt lat="41.396833" lon="-3.356067">
        <ele>2211.0</ele>
        <time>2016-07-25T14:39:07Z</time>
      </trkpt>
      <trkpt lat="41.396950" lon="-3.356017">
        <ele>2215.0</ele>
        <time>2016-07-25T14:39:09Z</time>
      </trkpt>
      <trkpt lat="41.397083" lon="-3.356017">
        <ele>2220.0</ele>
        <time>2016-07-25T14:39:11Z</time>
      </trkpt>
      <trkpt lat="41.397217" lon="-3.356033">
        <ele>2226.0</ele>
        <time>2016-07-25T14:39:13Z</time>
      </trkpt>
      <trkpt lat="41.397317" lon="-3.356117">
        <ele>2231.0</ele>
        <time>2016-07-25T14:39:15Z</time>
      </trkpt>
      <trkpt lat="41.397367" lon="-3.356217">
        <ele>2235.0</ele>
        <time>2016-07-25T14:39:17Z</time>
      </trkpt>
      <trkpt lat="41.397333" lon="-3.356367">
        <ele>2237.0</ele>
        <time>2016-07-25T14:39:19Z</time>
      </trkpt>
      <trkpt lat="41.397250" lon="-3.356533">
        <ele>2239.0</ele>
        <time>2016-07-25T14:39:21Z</time>
      </trkpt>
      <trkpt lat="41.397117" lon="-3.356667">
        <ele>2241.0</ele>
        <time>2016-07-25T14:39:23Z</time>
      </trkpt>
      <trkpt lat="41.396917" lon="-3.356750">
        <ele>2243.0</ele>
        <time>2016-07-25T14:39:25Z</time>
      </trkpt>
      <trkpt lat="41.396700" lon="-3.356750">
        <ele>2247.0</ele>
        <time>2016-07-25T14:39:27Z</time>
      </trkpt>
      <trkpt lat="41.396467" lon="-3.356650">
        <ele>2251.0</ele>
        <time>2016-07-25T14:39:29Z</time>
      </trkpt>
      <trkpt lat="41.396250" lon="-3.356450">
        <ele>2253.0</ele>
        <time>2016-07-25T14:39:31Z</time>
      </trkpt>
      <trkpt lat="41.396083" lon="-3.356200">
        <ele>2256.0</ele>
        <time>2016-07-25T14:39:33Z</time>
      </trkpt>
      <trkpt lat="41.396017" lon="-3.355900">
        <ele>2259.0</ele>
        <time>2016-07-25T14:39:35Z</time>
      </trkpt>
      <trkpt lat="41.395967" lon="-3.355567">
        <ele>2264.0</ele>
        <time>2016-07-25T14:39:37Z</time>
      </trkpt>
      <trkpt lat="41.395967" lon="-3.355300">
        <ele>2270.0</ele>
        <time>2016-07-25T14:39:39Z</time>
      </trkpt>
      <trkpt lat="41.396000" lon="-3.355050">
        <ele>2274.0</ele>
        <time>2016-07-25T14:39:41Z</time>
      </trkpt>
      <trkpt lat="41.396083" lon="-3.354817">
        <ele>2280.0</ele>
        <time>2016-07-25T14:39:43Z</time>
      </trkpt>
      <trkpt lat="41.396167" lon="-3.354650">
        <ele>2285.0</ele>
        <time>2016-07-25T14:39:45Z</time>
      </trkpt>
      <trkpt lat="41.396300" lon="-3.354550">
        <ele>2286.0</ele>
        <time>2016-07-25T14:39:47Z</time>
      </trkpt>
      <trkpt lat="41.396433" lon="-3.354500">
        <ele>2289.0</ele>
        <time>2016-07-25T14:39:49Z</time>
      </trkpt>
      <trkpt lat="41.396533" lon="-3.354550">
        <ele>2292.0</ele>
        <time>2016-07-25T14:39:51Z</time>
      </trkpt>
      <trkpt lat="41.396617" lon="-3.354600">
        <ele>2294.0</ele>
        <time>2016-07-25T14:39:53Z</time>
      </trkpt>
      <trkpt lat="41.396667" lon="-3.354683">
        <ele>2294.0</ele>
        <time>2016-07-25T14:39:55Z</time>
      </trkpt>
      <trkpt lat="41.396733" lon="-3.354800">
        <ele>2296.0</ele>
        <time>2016-07-25T14:39:57Z</time>
      </trkpt>
      <trkpt lat="41.396783" lon="-3.354917">
        <ele>2299.0</ele>
        <time>2016-07-25T14:39:59Z</time>
      </trkpt>
      <trkpt lat="41.396783" lon="-3.355083">
        <ele>2300.0</ele>
        <time>2016-07-25T14:40:01Z</time>
      </trkpt>
      <trkpt lat="41.396700" lon="-3.355250">
        <ele>2304.0</ele>
        <time>2016-07-25T14:40:03Z</time>
      </trkpt>
      <trkpt lat="41.396600" lon="-3.355333">
        <ele>2307.0</ele>
        <time>2016-07-25T14:40:05Z</time>
      </trkpt>
      <trkpt lat="41.396483" lon="-3.355400">
        <ele>2303.0</ele>
        <time>2016-07-25T14:40:07Z</time>
      </trkpt>
      <trkpt lat="41.396250" lon="-3.355433">
        <ele>2298.0</ele>
        <time>2016-07-25T14:40:09Z</time>
      </trkpt>
      <trkpt lat="41.396017" lon="-3.355333">
        <ele>2298.0</ele>
        <time>2016-07-25T14:40:11Z</time>
      </trkpt>
      <trkpt lat="41.395800" lon="-3.355150">
        <ele>2297.0</ele>
        <time>2016-07-25T14:40:13Z</time>
      </trkpt>
      <trkpt lat="41.395617" lon="-3.354867">
        <ele>2298.0</ele>
        <time>2016-07-25T14:40:15Z</time>
      </trkpt>
      <trkpt lat="41.395533" lon="-3.354533">
        <ele>2302.0</ele>
        <time>2016-07-25T14:40:17Z</time>
      </trkpt>
      <trkpt lat="41.395467" lon="-3.354267">
        <ele>2306.0</ele>
        <time>2016-07-25T14:40:19Z</time>
      </trkpt>
      <trkpt lat="41.395433" lon="-3.353950">
        <ele>2306.0</ele>
        <time>2016-07-25T14:40:21Z</time>
      </trkpt>
      <trkpt lat="41.395467" lon="-3.353633">
        <ele>2309.0</ele>
        <time>2016-07-25T14:40:23Z</time>
      </trkpt>
      <trkpt lat="41.395533" lon="-3.353400">
        <ele>2313.0</ele>
        <time>2016-07-25T14:40:25Z</time>
      </trkpt>
      <trkpt lat="41.395617" lon="-3.353233">
        <ele>2314.0</ele>
        <time>2016-07-25T14:40:27Z</time>
      </trkpt>
      <trkpt lat="41.395750" lon="-3.353083">
        <ele>2315.0</ele>
        <time>2016-07-25T14:40:29Z</time>
      </trkpt>
      <trkpt lat="41.395867" lon="-3.353017">
        <ele>2320.0</ele>
        <time>2016-07-25T14:40:31Z</time>
      </trkpt>
      <trkpt lat="41.395950" lon="-3.352967">
        <ele>2325.0</ele>
        <time>2016-07-25T14:40:33Z</time>
      </trkpt>
      <trkpt lat="41.396050" lon="-3.352967">
        <ele>2327.0</ele>
        <time>2016-07-25T14:40:35Z</time>
      </trkpt>
      <trkpt lat="41.396100" lon="-3.353017">
        <ele>2326.0</ele>
        <time>2016-07-25T14:40:37Z</time>
      </trkpt>
      <trkpt lat="41.396117" lon="-3.353083">
        <ele>2325.0</ele>
        <time>2016-07-25T14:40:39Z</time>
      </trkpt>
      <trkpt lat="41.396167" lon="-3.353200">
        <ele>2325.0</ele>
        <time>2016-07-25T14:40:41Z</time>
      </trkpt>
      <trkpt lat="41.396167" lon="-3.353317">
        <ele>2327.0</ele>
        <time>2016-07-25T14:40:43Z</time>
      </trkpt>
      <trkpt lat="41.396083" lon="-3.353400">
        <ele>2326.0</ele>
        <time>2016-07-25T14:40:45Z</time>
      </trkpt>
      <trkpt lat="41.395933" lon="-3.353483">
        <ele>2325.0</ele>
        <time>2016-07-25T14:40:47Z</time>
      </trkpt>
      <trkpt lat="41.395733" lon="-3.353450">
        <ele>2325.0</ele>
        <time>2016-07-25T14:40:49Z</time>
      </trkpt>
      <trkpt lat="41.395550" lon="-3.353300">
        <ele>2325.0</ele>
        <time>2016-07-25T14:40:51Z</time>
      </trkpt>
      <trkpt lat="41.395367" lon="-3.353067">
        <ele>2327.0</ele>
        <time>2016-07-25T14:40:53Z</time>
      </trkpt>
      <trkpt lat="41.395217" lon="-3.352817">
        <ele>2334.0</ele>
        <time>2016-07-25T14:40:55Z</time>
      </trkpt>
      <trkpt lat="41.395117" lon="-3.352583">
        <ele>2339.0</ele>
        <time>2016-07-25T14:40:57Z</time>
      </trkpt>
      <trkpt lat="41.395033" lon="-3.352317">
        <ele>2339.0</ele>
        <time>2016-07-25T14:40:59Z</time>
      </trkpt>
      <trkpt lat="41.395050" lon="-3.352000">
        <ele>2336.0</ele>
        <time>2016-07-25T14:41:01Z</time>
      </trkpt>
      <trkpt lat="41.395133" lon="-3.351750">
        <ele>2340.0</ele>
        <time>2016-07-25T14:41:03Z</time>
      </trkpt>
      <trkpt lat="41.395200" lon="-3.351550">
        <ele>2344.0</ele>
        <time>2016-07-25T14:41:05Z</time>
      </trkpt>
      <trkpt lat="41.395267" lon="-3.351367">
        <ele>2343.0</ele>
        <time>2016-07-25T14:41:07Z</time>
      </trkpt>
      <trkpt lat="41.395383" lon="-3.351200">
        <ele>2340.0</ele>
        <time>2016-07-25T14:41:09Z</time>
      </trkpt>
      <trkpt lat="41.395500" lon="-3.351050">
        <ele>2340.0</ele>
        <time>2016-07-25T14:41:11Z</time>
      </trkpt>
      <trkpt lat="41.395600" lon="-3.350917">
        <ele>2341.0</ele>
        <time>2016-07-25T14:41:13Z</time>
      </trkpt>
      <trkpt lat="41.395733" lon="-3.350833">
        <ele>2338.0</ele>
        <time>2016-07-25T14:41:15Z</time>
      </trkpt>
      <trkpt lat="41.395917" lon="-3.350800">
        <ele>2336.0</ele>
        <time>2016-07-25T14:41:17Z</time>
      </trkpt>
      <trkpt lat="41.396083" lon="-3.350767">
        <ele>2347.0</ele>
        <time>2016-07-25T14:41:19Z</time>
      </trkpt>
      <trkpt lat="41.396183" lon="-3.350700">
        <ele>2357.0</ele>
        <time>2016-07-25T14:41:21Z</time>
      </trkpt>
      <trkpt lat="41.396300" lon="-3.350633">
        <ele>2364.0</ele>
        <time>2016-07-25T14:41:23Z</time>
      </trkpt>
      <trkpt lat="41.396417" lon="-3.350650">
        <ele>2371.0</ele>
        <time>2016-07-25T14:41:25Z</time>
      </trkpt>
      <trkpt lat="41.396483" lon="-3.350717">
        <ele>2380.0</ele>
        <time>2016-07-25T14:41:27Z</time>
      </trkpt>
      <trkpt lat="41.396467" lon="-3.350833">
        <ele>2385.0</ele>
        <time>2016-07-25T14:41:29Z</time>
      </trkpt>
      <trkpt lat="41.396383" lon="-3.350983">
        <ele>2392.0</ele>
        <time>2016-07-25T14:41:31Z</time>
      </trkpt>
      <trkpt lat="41.396217" lon="-3.351067">
        <ele>2399.0</ele>
        <time>2016-07-25T14:41:33Z</time>
      </trkpt>
      <trkpt lat="41.396000" lon="-3.351050">
        <ele>2404.0</ele>
        <time>2016-07-25T14:41:35Z</time>
      </trkpt>
      <trkpt lat="41.395767" lon="-3.350933">
        <ele>2410.0</ele>
        <time>2016-07-25T14:41:37Z</time>
      </trkpt>
      <trkpt lat="41.395567" lon="-3.350717">
        <ele>2415.0</ele>
        <time>2016-07-25T14:41:39Z</time>
      </trkpt>
      <trkpt lat="41.395433" lon="-3.350417">
        <ele>2419.0</ele>
        <time>2016-07-25T14:41:41Z</time>
      </trkpt>
      <trkpt lat="41.395350" lon="-3.350083">
        <ele>2422.0</ele>
        <time>2016-07-25T14:41:43Z</time>
      </trkpt>
      <trkpt lat="41.395350" lon="-3.349767">
        <ele>2427.0</ele>
        <time>2016-07-25T14:41:45Z</time>
      </trkpt>
      <trkpt lat="41.395400" lon="-3.349500">
        <ele>2435.0</ele>
        <time>2016-07-25T14:41:47Z</time>
      </trkpt>
      <trkpt lat="41.395433" lon="-3.349217">
        <ele>2443.0</ele>
        <time>2016-07-25T14:41:49Z</time>
      </trkpt>
      <trkpt lat="41.395483" lon="-3.349017">
        <ele>2450.0</ele>
        <time>2016-07-25T14:41:51Z</time>
      </trkpt>
      <trkpt lat="41.395567" lon="-3.348883">
        <ele>2451.0</ele>
        <time>2016-07-25T14:41:53Z</time>
      </trkpt>
      <trkpt lat="41.395683" lon="-3.348850">
        <ele>2451.0</ele>
        <time>2016-07-25T14:41:55Z</time>
      </trkpt>
      <trkpt lat="41.395817" lon="-3.348850">
        <ele>2455.0</ele>
        <time>2016-07-25T14:41:57Z</time>
      </trkpt>
      <trkpt lat="41.395933" lon="-3.348833">
        <ele>2462.0</ele>
        <time>2016-07-25T14:41:59Z</time>
      </trkpt>
      <trkpt lat="41.395983" lon="-3.348833">
        <ele>2467.0</ele>
        <time>2016-07-25T14:42:01Z</time>
      </trkpt>
      <trkpt lat="41.396050" lon="-3.348900">
        <ele>2469.0</ele>
        <time>2016-07-25T14:42:03Z</time>
      </trkpt>
      <trkpt lat="41.396050" lon="-3.349033">
        <ele>2472.0</ele>
        <time>2016-07-25T14:42:05Z</time>
      </trkpt>
      <trkpt lat="41.395950" lon="-3.349183">
        <ele>2474.0</ele>
        <time>2016-07-25T14:42:07Z</time>
      </trkpt>
      <trkpt lat="41.395817" lon="-3.349300">
        <ele>2476.0</ele>
        <time>2016-07-25T14:42:09Z</time>
      </trkpt>
      <trkpt lat="41.395617" lon="-3.349383">
        <ele>2476.0</ele>
        <time>2016-07-25T14:42:11Z</time>
      </trkpt>
      <trkpt lat="41.395367" lon="-3.349350">
        <ele>2478.0</ele>
        <time>2016-07-25T14:42:13Z</time>
      </trkpt>
      <trkpt lat="41.395117" lon="-3.349233">
        <ele>2482.0</ele>
        <time>2016-07-25T14:42:15Z</time>
      </trkpt>
      <trkpt lat="41.394900" lon="-3.349000">
        <ele>2485.0</ele>
        <time>2016-07-25T14:42:17Z</time>
      </trkpt>
      <trkpt lat="41.394767" lon="-3.348683">
        <ele>2489.0</ele>
        <time>2016-07-25T14:42:19Z</time>
      </trkpt>
      <trkpt lat="41.394683" lon="-3.348383">
        <ele>2492.0</ele>
        <time>2016-07-25T14:42:21Z</time>
      </trkpt>
      <trkpt lat="41.394650" lon="-3.348067">
        <ele>2495.0</ele>
        <time>2016-07-25T14:42:23Z</time>
      </trkpt>
      <trkpt lat="41.394650" lon="-3.347700">
        <ele>2501.0</ele>
        <time>2016-07-25T14:42:25Z</time>
      </trkpt>
      <trkpt lat="41.394683" lon="-3.347417">
        <ele>2508.0</ele>
        <time>2016-07-25T14:42:27Z</time>
      </trkpt>
      <trkpt lat="41.394750" lon="-3.347200">
        <ele>2513.0</ele>
        <time>2016-07-25T14:42:29Z</time>
      </trkpt>
      <trkpt lat="41.394850" lon="-3.346983">
        <ele>2516.0</ele>
        <time>2016-07-25T14:42:31Z</time>
      </trkpt>
      <trkpt lat="41.394983" lon="-3.346817">
        <ele>2522.0</ele>
        <time>2016-07-25T14:42:33Z</time>
      </trkpt>
      <trkpt lat="41.395117" lon="-3.346717">
        <ele>2528.0</ele>
        <time>2016-07-25T14:42:35Z</time>
      </trkpt>
      <trkpt lat="41.395233" lon="-3.346683">
        <ele>2533.0</ele>
        <time>2016-07-25T14:42:37Z</time>
      </trkpt>
      <trkpt lat="41.395333" lon="-3.346717">
        <ele>2538.0</ele>
        <time>2016-07-25T14:42:39Z</time>
      </trkpt>
      <trkpt lat="41.395367" lon="-3.346783">
        <ele>2543.0</ele>
        <time>2016-07-25T14:42:41Z</time>
      </trkpt>
      <trkpt lat="41.395383" lon="-3.346850">
        <ele>2546.0</ele>
        <time>2016-07-25T14:42:43Z</time>
      </trkpt>
      <trkpt lat="41.395350" lon="-3.347000">
        <ele>2546.0</ele>
        <time>2016-07-25T14:42:45Z</time>
      </trkpt>
      <trkpt lat="41.395233" lon="-3.347150">
        <ele>2548.0</ele>
        <time>2016-07-25T14:42:47Z</time>
      </trkpt>
      <trkpt lat="41.395083" lon="-3.347233">
        <ele>2552.0</ele>
        <time>2016-07-25T14:42:49Z</time>
      </trkpt>
      <trkpt lat="41.394883" lon="-3.347267">
        <ele>2554.0</ele>
        <time>2016-07-25T14:42:51Z</time>
      </trkpt>
      <trkpt lat="41.394650" lon="-3.347267">
        <ele>2554.0</ele>
        <time>2016-07-25T14:42:53Z</time>
      </trkpt>
      <trkpt lat="41.394400" lon="-3.347150">
        <ele>2556.0</ele>
        <time>2016-07-25T14:42:55Z</time>
      </trkpt>
      <trkpt lat="41.394200" lon="-3.346967">
        <ele>2560.0</ele>
        <time>2016-07-25T14:42:57Z</time>
      </trkpt>
      <trkpt lat="41.394033" lon="-3.346717">
        <ele>2563.0</ele>
        <time>2016-07-25T14:42:59Z</time>
      </trkpt>
      <trkpt lat="41.393933" lon="-3.346400">
        <ele>2565.0</ele>
        <time>2016-07-25T14:43:01Z</time>
      </trkpt>
      <trkpt lat="41.393883" lon="-3.346083">
        <ele>2569.0</ele>
        <time>2016-07-25T14:43:03Z</time>
      </trkpt>
      <trkpt lat="41.393883" lon="-3.345817">
        <ele>2575.0</ele>
        <time>2016-07-25T14:43:05Z</time>
      </trkpt>
      <trkpt lat="41.393900" lon="-3.345517">
        <ele>2579.0</ele>
        <time>2016-07-25T14:43:07Z</time>
      </trkpt>
      <trkpt lat="41.393983" lon="-3.345217">
        <ele>2582.0</ele>
        <time>2016-07-25T14:43:09Z</time>
      </trkpt>
      <trkpt lat="41.394100" lon="-3.345017">
        <ele>2587.0</ele>
        <time>2016-07-25T14:43:11Z</time>
      </trkpt>
      <trkpt lat="41.394250" lon="-3.344900">
        <ele>2591.0</ele>
        <time>2016-07-25T14:43:13Z</time>
      </trkpt>
      <trkpt lat="41.394400" lon="-3.344800">
        <ele>2595.0</ele>
        <time>2016-07-25T14:43:15Z</time>
      </trkpt>
      <trkpt lat="41.394533" lon="-3.344767">
        <ele>2601.0</ele>
        <time>2016-07-25T14:43:17Z</time>
      </trkpt>
      <trkpt lat="41.394650" lon="-3.344733">
        <ele>2606.0</ele>
        <time>2016-07-25T14:43:19Z</time>
      </trkpt>
      <trkpt lat="41.394767" lon="-3.344750">
        <ele>2609.0</ele>
        <time>2016-07-25T14:43:21Z</time>
      </trkpt>
      <trkpt lat="41.394833" lon="-3.344867">
        <ele>2611.0</ele>
        <time>2016-07-25T14:43:23Z</time>
      </trkpt>
      <trkpt lat="41.394883" lon="-3.344967">
        <ele>2615.0</ele>
        <time>2016-07-25T14:43:25Z</time>
      </trkpt>
      <trkpt lat="41.394900" lon="-3.345100">
        <ele>2616.0</ele>
        <time>2016-07-25T14:43:27Z</time>
      </trkpt>
      <trkpt lat="41.394850" lon="-3.345250">
        <ele>2617.0</ele>
        <time>2016-07-25T14:43:29Z</time>
      </trkpt>
      <trkpt lat="41.394767" lon="-3.345400">
        <ele>2619.0</ele>
        <time>2016-07-25T14:43:31Z</time>
      </trkpt>
      <trkpt lat="41.394650" lon="-3.345517">
        <ele>2620.0</ele>
        <time>2016-07-25T14:43:33Z</time>
      </trkpt>
      <trkpt lat="41.394467" lon="-3.345567">
        <ele>2620.0</ele>
        <time>2016-07-25T14:43:35Z</time>
      </trkpt>
      <trkpt lat="41.394217" lon="-3.345533">
        <ele>2621.0</ele>
        <time>2016-07-25T14:43:37Z</time>
      </trkpt>
      <trkpt lat="41.394000" lon="-3.345400">
        <ele>2624.0</ele>
        <time>2016-07-25T14:43:39Z</time>
      </trkpt>
      <trkpt lat="41.393800" lon="-3.345200">
        <ele>2627.0</ele>
        <time>2016-07-25T14:43:41Z</time>
      </trkpt>
      <trkpt lat="41.393617" lon="-3.344900">
        <ele>2628.0</ele>
        <time>2016-07-25T14:43:43Z</time>
      </trkpt>
      <trkpt lat="41.393483" lon="-3.344583">
        <ele>2632.0</ele>
        <time>2016-07-25T14:43:45Z</time>
      </trkpt>
      <trkpt lat="41.393433" lon="-3.344267">
        <ele>2633.0</ele>
        <time>2016-07-25T14:43:47Z</time>
      </trkpt>
      <trkpt lat="41.393433" lon="-3.343917">
        <ele>2635.0</ele>
        <time>2016-07-25T14:43:49Z</time>
      </trkpt>
      <trkpt lat="41.393517" lon="-3.343650">
        <ele>2640.0</ele>
        <time>2016-07-25T14:43:51Z</time>
      </trkpt>
      <trkpt lat="41.393617" lon="-3.343433">
        <ele>2645.0</ele>
        <time>2016-07-25T14:43:53Z</time>
      </trkpt>
      <trkpt lat="41.393750" lon="-3.343283">
        <ele>2650.0</ele>
        <time>2016-07-25T14:43:55Z</time>
      </trkpt>
      <trkpt lat="41.393883" lon="-3.343217">
        <ele>2654.0</ele>
        <time>2016-07-25T14:43:57Z</time>
      </trkpt>
      <trkpt lat="41.394000" lon="-3.343200">
        <ele>2658.0</ele>
        <time>2016-07-25T14:43:59Z</time>
      </trkpt>
      <trkpt lat="41.394100" lon="-3.343183">
        <ele>2662.0</ele>
        <time>2016-07-25T14:44:01Z</time>
      </trkpt>
      <trkpt lat="41.394183" lon="-3.343217">
        <ele>2664.0</ele>
        <time>2016-07-25T14:44:03Z</time>
      </trkpt>
      <trkpt lat="41.394250" lon="-3.343300">
        <ele>2664.0</ele>
        <time>2016-07-25T14:44:05Z</time>
      </trkpt>
      <trkpt lat="41.394350" lon="-3.343383">
        <ele>2667.0</ele>
        <time>2016-07-25T14:44:07Z</time>
      </trkpt>
      <trkpt lat="41.394417" lon="-3.343400">
        <ele>2671.0</ele>
        <time>2016-07-25T14:44:09Z</time>
      </trkpt>
      <trkpt lat="41.394500" lon="-3.343417">
        <ele>2668.0</ele>
        <time>2016-07-25T14:44:11Z</time>
      </trkpt>
      <trkpt lat="41.394633" lon="-3.343500">
        <ele>2666.0</ele>
        <time>2016-07-25T14:44:13Z</time>
      </trkpt>
      <trkpt lat="41.394783" lon="-3.343533">
        <ele>2670.0</ele>
        <time>2016-07-25T14:44:15Z</time>
      </trkpt>
      <trkpt lat="41.394933" lon="-3.343517">
        <ele>2673.0</ele>
        <time>2016-07-25T14:44:17Z</time>
      </trkpt>
      <trkpt lat="41.395083" lon="-3.343517">
        <ele>2676.0</ele>
        <time>2016-07-25T14:44:19Z</time>
      </trkpt>
      <trkpt lat="41.395217" lon="-3.343450">
        <ele>2676.0</ele>
        <time>2016-07-25T14:44:21Z</time>
      </trkpt>
      <trkpt lat="41.395367" lon="-3.343383">
        <ele>2675.0</ele>
        <time>2016-07-25T14:44:23Z</time>
      </trkpt>
      <trkpt lat="41.395533" lon="-3.343300">
        <ele>2676.0</ele>
        <time>2016-07-25T14:44:25Z</time>
      </trkpt>
      <trkpt lat="41.395717" lon="-3.343200">
        <ele>2678.0</ele>
        <time>2016-07-25T14:44:27Z</time>
      </trkpt>
      <trkpt lat="41.395850" lon="-3.343100">
        <ele>2680.0</ele>
        <time>2016-07-25T14:44:29Z</time>
      </trkpt>
      <trkpt lat="41.395983" lon="-3.343000">
        <ele>2677.0</ele>
        <time>2016-07-25T14:44:31Z</time>
      </trkpt>
      <trkpt lat="41.396133" lon="-3.342933">
        <ele>2673.0</ele>
        <time>2016-07-25T14:44:33Z</time>
      </trkpt>
      <trkpt lat="41.396267" lon="-3.342867">
        <ele>2671.0</ele>
        <time>2016-07-25T14:44:35Z</time>
      </trkpt>
      <trkpt lat="41.396417" lon="-3.342750">
        <ele>2668.0</ele>
        <time>2016-07-25T14:44:37Z</time>
      </trkpt>
      <trkpt lat="41.396550" lon="-3.342700">
        <ele>2664.0</ele>
        <time>2016-07-25T14:44:39Z</time>
      </trkpt>
      <trkpt lat="41.396683" lon="-3.342700">
        <ele>2662.0</ele>
        <time>2016-07-25T14:44:41Z</time>
      </trkpt>
      <trkpt lat="41.396817" lon="-3.342717">
        <ele>2658.0</ele>
        <time>2016-07-25T14:44:43Z</time>
      </trkpt>
      <trkpt lat="41.396933" lon="-3.342767">
        <ele>2653.0</ele>
        <time>2016-07-25T14:44:45Z</time>
      </trkpt>
      <trkpt lat="41.397067" lon="-3.342750">
        <ele>2650.0</ele>
        <time>2016-07-25T14:44:47Z</time>
      </trkpt>
      <trkpt lat="41.397217" lon="-3.342683">
        <ele>2646.0</ele>
        <time>2016-07-25T14:44:49Z</time>
      </trkpt>
      <trkpt lat="41.397367" lon="-3.342650">
        <ele>2642.0</ele>
        <time>2016-07-25T14:44:51Z</time>
      </trkpt>
      <trkpt lat="41.397500" lon="-3.342567">
        <ele>2639.0</ele>
        <time>2016-07-25T14:44:53Z</time>
      </trkpt>
      <trkpt lat="41.397650" lon="-3.342417">
        <ele>2633.0</ele>
        <time>2016-07-25T14:44:55Z</time>
      </trkpt>
      <trkpt lat="41.397800" lon="-3.342267">
        <ele>2629.0</ele>
        <time>2016-07-25T14:44:57Z</time>
      </trkpt>
      <trkpt lat="41.397933" lon="-3.342117">
        <ele>2625.0</ele>
        <time>2016-07-25T14:44:59Z</time>
      </trkpt>
      <trkpt lat="41.398067" lon="-3.341950">
        <ele>2620.0</ele>
        <time>2016-07-25T14:45:01Z</time>
      </trkpt>
      <trkpt lat="41.398233" lon="-3.341767">
        <ele>2616.0</ele>
        <time>2016-07-25T14:45:03Z</time>
      </trkpt>
      <trkpt lat="41.398367" lon="-3.341567">
        <ele>2614.0</ele>
        <time>2016-07-25T14:45:05Z</time>
      </trkpt>
      <trkpt lat="41.398483" lon="-3.341383">
        <ele>2611.0</ele>
        <time>2016-07-25T14:45:07Z</time>
      </trkpt>
      <trkpt lat="41.398633" lon="-3.341250">
        <ele>2607.0</ele>
        <time>2016-07-25T14:45:09Z</time>
      </trkpt>
      <trkpt lat="41.398767" lon="-3.341067">
        <ele>2602.0</ele>
        <time>2016-07-25T14:45:11Z</time>
      </trkpt>
      <trkpt lat="41.398917" lon="-3.340867">
        <ele>2600.0</ele>
        <time>2016-07-25T14:45:13Z</time>
      </trkpt>
      <trkpt lat="41.399050" lon="-3.340683">
        <ele>2598.0</ele>
        <time>2016-07-25T14:45:15Z</time>
      </trkpt>
      <trkpt lat="41.399150" lon="-3.340483">
        <ele>2595.0</ele>
        <time>2016-07-25T14:45:17Z</time>
      </trkpt>
      <trkpt lat="41.399283" lon="-3.340267">
        <ele>2591.0</ele>
        <time>2016-07-25T14:45:19Z</time>
      </trkpt>
      <trkpt lat="41.399383" lon="-3.340033">
        <ele>2588.0</ele>
        <time>2016-07-25T14:45:21Z</time>
      </trkpt>
      <trkpt lat="41.399417" lon="-3.339767">
        <ele>2583.0</ele>
        <time>2016-07-25T14:45:23Z</time>
      </trkpt>
      <trkpt lat="41.399400" lon="-3.339467">
        <ele>2577.0</ele>
        <time>2016-07-25T14:45:25Z</time>
      </trkpt>
      <trkpt lat="41.399383" lon="-3.339150">
        <ele>2572.0</ele>
        <time>2016-07-25T14:45:27Z</time>
      </trkpt>
      <trkpt lat="41.399283" lon="-3.338850">
        <ele>2567.0</ele>
        <time>2016-07-25T14:45:29Z</time>
      </trkpt>
      <trkpt lat="41.399150" lon="-3.338600">
        <ele>2563.0</ele>
        <time>2016-07-25T14:45:31Z</time>
      </trkpt>
      <trkpt lat="41.398983" lon="-3.338400">
        <ele>2557.0</ele>
        <time>2016-07-25T14:45:33Z</time>
      </trkpt>
      <trkpt lat="41.398800" lon="-3.338233">
        <ele>2550.0</ele>
        <time>2016-07-25T14:45:35Z</time>
      </trkpt>
      <trkpt lat="41.398583" lon="-3.338117">
        <ele>2545.0</ele>
        <time>2016-07-25T14:45:37Z</time>
      </trkpt>
      <trkpt lat="41.398383" lon="-3.338033">
        <ele>2541.0</ele>
        <time>2016-07-25T14:45:39Z</time>
      </trkpt>
      <trkpt lat="41.398183" lon="-3.338017">
        <ele>2535.0</ele>
        <time>2016-07-25T14:45:41Z</time>
      </trkpt>
      <trkpt lat="41.398000" lon="-3.338083">
        <ele>2530.0</ele>
        <time>2016-07-25T14:45:43Z</time>
      </trkpt>
      <trkpt lat="41.397867" lon="-3.338217">
        <ele>2527.0</ele>
        <time>2016-07-25T14:45:45Z</time>
      </trkpt>
      <trkpt lat="41.397817" lon="-3.338333">
        <ele>2525.0</ele>
        <time>2016-07-25T14:45:47Z</time>
      </trkpt>
      <trkpt lat="41.397800" lon="-3.338467">
        <ele>2521.0</ele>
        <time>2016-07-25T14:45:49Z</time>
      </trkpt>
      <trkpt lat="41.397850" lon="-3.338600">
        <ele>2518.0</ele>
        <time>2016-07-25T14:45:51Z</time>
      </trkpt>
      <trkpt lat="41.397933" lon="-3.338683">
        <ele>2515.0</ele>
        <time>2016-07-25T14:45:53Z</time>
      </trkpt>
      <trkpt lat="41.398017" lon="-3.338767">
        <ele>2513.0</ele>
        <time>2016-07-25T14:45:55Z</time>
      </trkpt>
      <trkpt lat="41.398117" lon="-3.338817">
        <ele>2509.0</ele>
        <time>2016-07-25T14:45:57Z</time>
      </trkpt>
      <trkpt lat="41.398233" lon="-3.338850">
        <ele>2505.0</ele>
        <time>2016-07-25T14:45:59Z</time>
      </trkpt>
      <trkpt lat="41.398367" lon="-3.338850">
        <ele>2501.0</ele>
        <time>2016-07-25T14:46:01Z</time>
      </trkpt>
      <trkpt lat="41.398483" lon="-3.338850">
        <ele>2496.0</ele>
        <time>2016-07-25T14:46:03Z</time>
      </trkpt>
      <trkpt lat="41.398633" lon="-3.338833">
        <ele>2491.0</ele>
        <time>2016-07-25T14:46:05Z</time>
      </trkpt>
      <trkpt lat="41.398767" lon="-3.338850">
        <ele>2486.0</ele>
        <time>2016-07-25T14:46:07Z</time>
      </trkpt>
      <trkpt lat="41.398900" lon="-3.338867">
        <ele>2482.0</ele>
        <time>2016-07-25T14:46:09Z</time>
      </trkpt>
      <trkpt lat="41.399033" lon="-3.338850">
        <ele>2478.0</ele>
        <time>2016-07-25T14:46:11Z</time>
      </trkpt>
      <trkpt lat="41.399183" lon="-3.338833">
        <ele>2473.0</ele>
        <time>2016-07-25T14:46:13Z</time>
      </trkpt>
      <trkpt lat="41.399333" lon="-3.338817">
        <ele>2469.0</ele>
        <time>2016-07-25T14:46:15Z</time>
      </trkpt>
      <trkpt lat="41.399483" lon="-3.338817">
        <ele>2463.0</ele>
        <time>2016-07-25T14:46:17Z</time>
      </trkpt>
      <trkpt lat="41.399650" lon="-3.338800">
        <ele>2460.0</ele>
        <time>2016-07-25T14:46:19Z</time>
      </trkpt>
      <trkpt lat="41.399800" lon="-3.338767">
        <ele>2457.0</ele>
        <time>2016-07-25T14:46:21Z</time>
      </trkpt>
      <trkpt lat="41.399933" lon="-3.338733">
        <ele>2452.0</ele>
        <time>2016-07-25T14:46:23Z</time>
      </trkpt>
      <trkpt lat="41.400083" lon="-3.338733">
        <ele>2447.0</ele>
        <time>2016-07-25T14:46:25Z</time>
      </trkpt>
      <trkpt lat="41.400217" lon="-3.338700">
        <ele>2443.0</ele>
        <time>2016-07-25T14:46:27Z</time>
      </trkpt>
      <trkpt lat="41.400367" lon="-3.338650">
        <ele>2437.0</ele>
        <time>2016-07-25T14:46:29Z</time>
      </trkpt>
      <trkpt lat="41.400533" lon="-3.338600">
        <ele>2431.0</ele>
        <time>2016-07-25T14:46:31Z</time>
      </trkpt>
      <trkpt lat="41.400667" lon="-3.338550">
        <ele>2427.0</ele>
        <time>2016-07-25T14:46:33Z</time>
      </trkpt>
      <trkpt lat="41.400817" lon="-3.338500">
        <ele>2421.0</ele>
        <time>2016-07-25T14:46:35Z</time>
      </trkpt>
      <trkpt lat="41.400950" lon="-3.338450">
        <ele>2415.0</ele>
        <time>2016-07-25T14:46:37Z</time>
      </trkpt>
      <trkpt lat="41.401083" lon="-3.338433">
        <ele>2409.0</ele>
        <time>2016-07-25T14:46:39Z</time>
      </trkpt>
      <trkpt lat="41.401233" lon="-3.338400">
        <ele>2403.0</ele>
        <time>2016-07-25T14:46:41Z</time>
      </trkpt>
      <trkpt lat="41.401367" lon="-3.338367">
        <ele>2397.0</ele>
        <time>2016-07-25T14:46:43Z</time>
      </trkpt>
      <trkpt lat="41.401517" lon="-3.338350">
        <ele>2391.0</ele>
        <time>2016-07-25T14:46:45Z</time>
      </trkpt>
      <trkpt lat="41.401667" lon="-3.338300">
        <ele>2386.0</ele>
        <time>2016-07-25T14:46:47Z</time>
      </trkpt>
      <trkpt lat="41.401800" lon="-3.338267">
        <ele>2381.0</ele>
        <time>2016-07-25T14:46:49Z</time>
      </trkpt>
      <trkpt lat="41.401967" lon="-3.338250">
        <ele>2374.0</ele>
        <time>2016-07-25T14:46:51Z</time>
      </trkpt>
      <trkpt lat="41.402150" lon="-3.338200">
        <ele>2371.0</ele>
        <time>2016-07-25T14:46:53Z</time>
      </trkpt>
      <trkpt lat="41.402300" lon="-3.338183">
        <ele>2370.0</ele>
        <time>2016-07-25T14:46:55Z</time>
      </trkpt>
      <trkpt lat="41.402467" lon="-3.338133">
        <ele>2366.0</ele>
        <time>2016-07-25T14:46:57Z</time>
      </trkpt>
      <trkpt lat="41.402633" lon="-3.338083">
        <ele>2360.0</ele>
        <time>2016-07-25T14:46:59Z</time>
      </trkpt>
      <trkpt lat="41.402817" lon="-3.338083">
        <ele>2357.0</ele>
        <time>2016-07-25T14:47:01Z</time>
      </trkpt>
      <trkpt lat="41.402950" lon="-3.338050">
        <ele>2353.0</ele>
        <time>2016-07-25T14:47:03Z</time>
      </trkpt>
      <trkpt lat="41.403100" lon="-3.338017">
        <ele>2346.0</ele>
        <time>2016-07-25T14:47:05Z</time>
      </trkpt>
      <trkpt lat="41.403267" lon="-3.338000">
        <ele>2338.0</ele>
        <time>2016-07-25T14:47:07Z</time>
      </trkpt>
      <trkpt lat="41.403467" lon="-3.338000">
        <ele>2332.0</ele>
        <time>2016-07-25T14:47:09Z</time>
      </trkpt>
      <trkpt lat="41.403650" lon="-3.338000">
        <ele>2327.0</ele>
        <time>2016-07-25T14:47:11Z</time>
      </trkpt>
      <trkpt lat="41.403800" lon="-3.337983">
        <ele>2323.0</ele>
        <time>2016-07-25T14:47:13Z</time>
      </trkpt>
      <trkpt lat="41.403933" lon="-3.337933">
        <ele>2317.0</ele>
        <time>2016-07-25T14:47:15Z</time>
      </trkpt>
      <trkpt lat="41.404083" lon="-3.337867">
        <ele>2310.0</ele>
        <time>2016-07-25T14:47:17Z</time>
      </trkpt>
      <trkpt lat="41.404267" lon="-3.337783">
        <ele>2304.0</ele>
        <time>2016-07-25T14:47:19Z</time>
      </trkpt>
      <trkpt lat="41.404450" lon="-3.337733">
        <ele>2301.0</ele>
        <time>2016-07-25T14:47:21Z</time>
      </trkpt>
      <trkpt lat="41.404600" lon="-3.337683">
        <ele>2295.0</ele>
        <time>2016-07-25T14:47:23Z</time>
      </trkpt>
      <trkpt lat="41.404783" lon="-3.337617">
        <ele>2289.0</ele>
        <time>2016-07-25T14:47:25Z</time>
      </trkpt>
      <trkpt lat="41.404950" lon="-3.337567">
        <ele>2286.0</ele>
        <time>2016-07-25T14:47:27Z</time>
      </trkpt>
      <trkpt lat="41.405133" lon="-3.337483">
        <ele>2282.0</ele>
        <time>2016-07-25T14:47:29Z</time>
      </trkpt>
      <trkpt lat="41.405283" lon="-3.337383">
        <ele>2277.0</ele>
        <time>2016-07-25T14:47:31Z</time>
      </trkpt>
      <trkpt lat="41.405450" lon="-3.337300">
        <ele>2273.0</ele>
        <time>2016-07-25T14:47:33Z</time>
      </trkpt>
      <trkpt lat="41.405633" lon="-3.337183">
        <ele>2270.0</ele>
        <time>2016-07-25T14:47:35Z</time>
      </trkpt>
      <trkpt lat="41.405800" lon="-3.337083">
        <ele>2266.0</ele>
        <time>2016-07-25T14:47:37Z</time>
      </trkpt>
      <trkpt lat="41.405967" lon="-3.337017">
        <ele>2263.0</ele>
        <time>2016-07-25T14:47:39Z</time>
      </trkpt>
      <trkpt lat="41.406133" lon="-3.336900">
        <ele>2260.0</ele>
        <time>2016-07-25T14:47:41Z</time>
      </trkpt>
      <trkpt lat="41.406300" lon="-3.336800">
        <ele>2256.0</ele>
        <time>2016-07-25T14:47:43Z</time>
      </trkpt>
      <trkpt lat="41.406450" lon="-3.336733">
        <ele>2253.0</ele>
        <time>2016-07-25T14:47:45Z</time>
      </trkpt>
      <trkpt lat="41.406617" lon="-3.336683">
        <ele>2248.0</ele>
        <time>2016-07-25T14:47:47Z</time>
      </trkpt>
      <trkpt lat="41.406800" lon="-3.336633">
        <ele>2244.0</ele>
        <time>2016-07-25T14:47:49Z</time>
      </trkpt>
      <trkpt lat="41.406967" lon="-3.336617">
        <ele>2241.0</ele>
        <time>2016-07-25T14:47:51Z</time>
      </trkpt>
      <trkpt lat="41.407133" lon="-3.336600">
        <ele>2237.0</ele>
        <time>2016-07-25T14:47:53Z</time>
      </trkpt>
      <trkpt lat="41.407300" lon="-3.336583">
        <ele>2232.0</ele>
        <time>2016-07-25T14:47:55Z</time>
      </trkpt>
      <trkpt lat="41.407483" lon="-3.336567">
        <ele>2229.0</ele>
        <time>2016-07-25T14:47:57Z</time>
      </trkpt>
      <trkpt lat="41.407650" lon="-3.336533">
        <ele>2224.0</ele>
        <time>2016-07-25T14:47:59Z</time>
      </trkpt>
      <trkpt lat="41.407817" lon="-3.336500">
        <ele>2220.0</ele>
        <time>2016-07-25T14:48:01Z</time>
      </trkpt>
      <trkpt lat="41.407983" lon="-3.336500">
        <ele>2216.0</ele>
        <time>2016-07-25T14:48:03Z</time>
      </trkpt>
      <trkpt lat="41.408150" lon="-3.336467">
        <ele>2212.0</ele>
        <time>2016-07-25T14:48:05Z</time>
      </trkpt>
      <trkpt lat="41.408333" lon="-3.336433">
        <ele>2209.0</ele>
        <time>2016-07-25T14:48:07Z</time>
      </trkpt>
      <trkpt lat="41.408500" lon="-3.336417">
        <ele>2205.0</ele>
        <time>2016-07-25T14:48:09Z</time>
      </trkpt>
      <trkpt lat="41.408667" lon="-3.336400">
        <ele>2201.0</ele>
        <time>2016-07-25T14:48:11Z</time>
      </trkpt>
      <trkpt lat="41.408817" lon="-3.336367">
        <ele>2197.0</ele>
        <time>2016-07-25T14:48:13Z</time>
      </trkpt>
      <trkpt lat="41.409000" lon="-3.336350">
        <ele>2193.0</ele>
        <time>2016-07-25T14:48:15Z</time>
      </trkpt>
      <trkpt lat="41.409167" lon="-3.336317">
        <ele>2188.0</ele>
        <time>2016-07-25T14:48:17Z</time>
      </trkpt>
      <trkpt lat="41.409333" lon="-3.336267">
        <ele>2183.0</ele>
        <time>2016-07-25T14:48:19Z</time>
      </trkpt>
      <trkpt lat="41.409500" lon="-3.336217">
        <ele>2181.0</ele>
        <time>2016-07-25T14:48:21Z</time>
      </trkpt>
      <trkpt lat="41.409667" lon="-3.336167">
        <ele>2177.0</ele>
        <time>2016-07-25T14:48:23Z</time>
      </trkpt>
      <trkpt lat="41.409850" lon="-3.336150">
        <ele>2174.0</ele>
        <time>2016-07-25T14:48:25Z</time>
      </trkpt>
      <trkpt lat="41.410017" lon="-3.336117">
        <ele>2172.0</ele>
        <time>2016-07-25T14:48:27Z</time>
      </trkpt>
      <trkpt lat="41.410167" lon="-3.336083">
        <ele>2169.0</ele>
        <time>2016-07-25T14:48:29Z</time>
      </trkpt>
      <trkpt lat="41.410333" lon="-3.336067">
        <ele>2164.0</ele>
        <time>2016-07-25T14:48:31Z</time>
      </trkpt>
      <trkpt lat="41.410517" lon="-3.336050">
        <ele>2160.0</ele>
        <time>2016-07-25T14:48:33Z</time>
      </trkpt>
      <trkpt lat="41.410683" lon="-3.336017">
        <ele>2158.0</ele>
        <time>2016-07-25T14:48:35Z</time>
      </trkpt>
      <trkpt lat="41.410833" lon="-3.336017">
        <ele>2155.0</ele>
        <time>2016-07-25T14:48:37Z</time>
      </trkpt>
      <trkpt lat="41.410983" lon="-3.335983">
        <ele>2151.0</ele>
        <time>2016-07-25T14:48:39Z</time>
      </trkpt>
      <trkpt lat="41.411133" lon="-3.335950">
        <ele>2146.0</ele>
        <time>2016-07-25T14:48:41Z</time>
      </trkpt>
      <trkpt lat="41.411283" lon="-3.335933">
        <ele>2141.0</ele>
        <time>2016-07-25T14:48:43Z</time>
      </trkpt>
      <trkpt lat="41.411450" lon="-3.335917">
        <ele>2137.0</ele>
        <time>2016-07-25T14:48:45Z</time>
      </trkpt>
      <trkpt lat="41.411617" lon="-3.335900">
        <ele>2132.0</ele>
        <time>2016-07-25T14:48:47Z</time>
      </trkpt>
      <trkpt lat="41.411750" lon="-3.335883">
        <ele>2127.0</ele>
        <time>2016-07-25T14:48:49Z</time>
      </trkpt>
      <trkpt lat="41.411917" lon="-3.335867">
        <ele>2122.0</ele>
        <time>2016-07-25T14:48:51Z</time>
      </trkpt>
      <trkpt lat="41.412067" lon="-3.335883">
        <ele>2120.0</ele>
        <time>2016-07-25T14:48:53Z</time>
      </trkpt>
      <trkpt lat="41.412200" lon="-3.335867">
        <ele>2120.0</ele>
        <time>2016-07-25T14:48:55Z</time>
      </trkpt>
      <trkpt lat="41.412283" lon="-3.335867">
        <ele>2118.0</ele>
        <time>2016-07-25T14:48:57Z</time>
      </trkpt>
      <trkpt lat="41.412383" lon="-3.335850">
        <ele>2114.0</ele>
        <time>2016-07-25T14:48:59Z</time>
      </trkpt>
      <trkpt lat="41.412500" lon="-3.335833">
        <ele>2110.0</ele>
        <time>2016-07-25T14:49:01Z</time>
      </trkpt>
      <trkpt lat="41.412617" lon="-3.335833">
        <ele>2108.0</ele>
        <time>2016-07-25T14:49:03Z</time>
      </trkpt>
      <trkpt lat="41.412733" lon="-3.335817">
        <ele>2107.0</ele>
        <time>2016-07-25T14:49:05Z</time>
      </trkpt>
      <trkpt lat="41.412850" lon="-3.335783">
        <ele>2103.0</ele>
        <time>2016-07-25T14:49:07Z</time>
      </trkpt>
      <trkpt lat="41.412967" lon="-3.335767">
        <ele>2099.0</ele>
        <time>2016-07-25T14:49:09Z</time>
      </trkpt>
      <trkpt lat="41.413083" lon="-3.335767">
        <ele>2093.0</ele>
        <time>2016-07-25T14:49:11Z</time>
      </trkpt>
      <trkpt lat="41.413200" lon="-3.335767">
        <ele>2087.0</ele>
        <time>2016-07-25T14:49:13Z</time>
      </trkpt>
      <trkpt lat="41.413333" lon="-3.335783">
        <ele>2080.0</ele>
        <time>2016-07-25T14:49:15Z</time>
      </trkpt>
      <trkpt lat="41.413450" lon="-3.335800">
        <ele>2074.0</ele>
        <time>2016-07-25T14:49:17Z</time>
      </trkpt>
      <trkpt lat="41.413567" lon="-3.335783">
        <ele>2067.0</ele>
        <time>2016-07-25T14:49:19Z</time>
      </trkpt>
      <trkpt lat="41.413667" lon="-3.335767">
        <ele>2058.0</ele>
        <time>2016-07-25T14:49:21Z</time>
      </trkpt>
      <trkpt lat="41.413783" lon="-3.335750">
        <ele>2049.0</ele>
        <time>2016-07-25T14:49:23Z</time>
      </trkpt>
      <trkpt lat="41.413883" lon="-3.335717">
        <ele>2041.0</ele>
        <time>2016-07-25T14:49:25Z</time>
      </trkpt>
      <trkpt lat="41.413983" lon="-3.335667">
        <ele>2031.0</ele>
        <time>2016-07-25T14:49:27Z</time>
      </trkpt>
      <trkpt lat="41.414083" lon="-3.335633">
        <ele>2020.0</ele>
        <time>2016-07-25T14:49:29Z</time>
      </trkpt>
      <trkpt lat="41.414200" lon="-3.335617">
        <ele>2013.0</ele>
        <time>2016-07-25T14:49:31Z</time>
      </trkpt>
      <trkpt lat="41.414300" lon="-3.335550">
        <ele>2005.0</ele>
        <time>2016-07-25T14:49:33Z</time>
      </trkpt>
      <trkpt lat="41.414383" lon="-3.335483">
        <ele>1995.0</ele>
        <time>2016-07-25T14:49:35Z</time>
      </trkpt>
      <trkpt lat="41.414500" lon="-3.335450">
        <ele>1985.0</ele>
        <time>2016-07-25T14:49:37Z</time>
      </trkpt>
      <trkpt lat="41.414617" lon="-3.335450">
        <ele>1976.0</ele>
        <time>2016-07-25T14:49:39Z</time>
      </trkpt>
      <trkpt lat="41.414733" lon="-3.335433">
        <ele>1965.0</ele>
        <time>2016-07-25T14:49:41Z</time>
      </trkpt>
      <trkpt lat="41.414867" lon="-3.335450">
        <ele>1954.0</ele>
        <time>2016-07-25T14:49:43Z</time>
      </trkpt>
      <trkpt lat="41.415000" lon="-3.335433">
        <ele>1944.0</ele>
        <time>2016-07-25T14:49:45Z</time>
      </trkpt>
      <trkpt lat="41.415117" lon="-3.335417">
        <ele>1936.0</ele>
        <time>2016-07-25T14:49:47Z</time>
      </trkpt>
      <trkpt lat="41.415250" lon="-3.335383">
        <ele>1925.0</ele>
        <time>2016-07-25T14:49:49Z</time>
      </trkpt>
      <trkpt lat="41.415400" lon="-3.335367">
        <ele>1916.0</ele>
        <time>2016-07-25T14:49:51Z</time>
      </trkpt>
      <trkpt lat="41.415533" lon="-3.335367">
        <ele>1908.0</ele>
        <time>2016-07-25T14:49:53Z</time>
      </trkpt>
      <trkpt lat="41.415633" lon="-3.335400">
        <ele>1899.0</ele>
        <time>2016-07-25T14:49:55Z</time>
      </trkpt>
      <trkpt lat="41.415717" lon="-3.335483">
        <ele>1890.0</ele>
        <time>2016-07-25T14:49:57Z</time>
      </trkpt>
      <trkpt lat="41.415800" lon="-3.335583">
        <ele>1881.0</ele>
        <time>2016-07-25T14:49:59Z</time>
      </trkpt>
      <trkpt lat="41.415883" lon="-3.335683">
        <ele>1872.0</ele>
        <time>2016-07-25T14:50:01Z</time>
      </trkpt>
      <trkpt lat="41.415950" lon="-3.335783">
        <ele>1862.0</ele>
        <time>2016-07-25T14:50:03Z</time>
      </trkpt>
      <trkpt lat="41.416017" lon="-3.335900">
        <ele>1852.0</ele>
        <time>2016-07-25T14:50:05Z</time>
      </trkpt>
      <trkpt lat="41.416100" lon="-3.336033">
        <ele>1845.0</ele>
        <time>2016-07-25T14:50:07Z</time>
      </trkpt>
      <trkpt lat="41.416167" lon="-3.336133">
        <ele>1839.0</ele>
        <time>2016-07-25T14:50:09Z</time>
      </trkpt>
      <trkpt lat="41.416217" lon="-3.336233">
        <ele>1833.0</ele>
        <time>2016-07-25T14:50:11Z</time>
      </trkpt>
      <trkpt lat="41.416267" lon="-3.336333">
        <ele>1827.0</ele>
        <time>2016-07-25T14:50:13Z</time>
      </trkpt>
      <trkpt lat="41.416333" lon="-3.336450">
        <ele>1821.0</ele>
        <time>2016-07-25T14:50:15Z</time>
      </trkpt>
      <trkpt lat="41.416400" lon="-3.336550">
        <ele>1818.0</ele>
        <time>2016-07-25T14:50:17Z</time>
      </trkpt>
      <trkpt lat="41.416450" lon="-3.336650">
        <ele>1813.0</ele>
        <time>2016-07-25T14:50:19Z</time>
      </trkpt>
      <trkpt lat="41.416517" lon="-3.336733">
        <ele>1805.0</ele>
        <time>2016-07-25T14:50:21Z</time>
      </trkpt>
      <trkpt lat="41.416600" lon="-3.336817">
        <ele>1800.0</ele>
        <time>2016-07-25T14:50:23Z</time>
      </trkpt>
      <trkpt lat="41.416650" lon="-3.336883">
        <ele>1796.0</ele>
        <time>2016-07-25T14:50:25Z</time>
      </trkpt>
      <trkpt lat="41.416717" lon="-3.336950">
        <ele>1788.0</ele>
        <time>2016-07-25T14:50:27Z</time>
      </trkpt>
      <trkpt lat="41.416817" lon="-3.337000">
        <ele>1782.0</ele>
        <time>2016-07-25T14:50:29Z</time>
      </trkpt>
      <trkpt lat="41.416883" lon="-3.337033">
        <ele>1777.0</ele>
        <time>2016-07-25T14:50:31Z</time>
      </trkpt>
      <trkpt lat="41.416967" lon="-3.337067">
        <ele>1769.0</ele>
        <time>2016-07-25T14:50:33Z</time>
      </trkpt>
      <trkpt lat="41.417067" lon="-3.337100">
        <ele>1762.0</ele>
        <time>2016-07-25T14:50:35Z</time>
      </trkpt>
      <trkpt lat="41.417150" lon="-3.337150">
        <ele>1756.0</ele>
        <time>2016-07-25T14:50:37Z</time>
      </trkpt>
      <trkpt lat="41.417250" lon="-3.337200">
        <ele>1750.0</ele>
        <time>2016-07-25T14:50:39Z</time>
      </trkpt>
      <trkpt lat="41.417333" lon="-3.337233">
        <ele>1743.0</ele>
        <time>2016-07-25T14:50:41Z</time>
      </trkpt>
      <trkpt lat="41.417433" lon="-3.337267">
        <ele>1737.0</ele>
        <time>2016-07-25T14:50:43Z</time>
      </trkpt>
      <trkpt lat="41.417550" lon="-3.337283">
        <ele>1733.0</ele>
        <time>2016-07-25T14:50:45Z</time>
      </trkpt>
      <trkpt lat="41.417717" lon="-3.337283">
        <ele>1732.0</ele>
        <time>2016-07-25T14:50:47Z</time>
      </trkpt>
      <trkpt lat="41.417883" lon="-3.337283">
        <ele>1731.0</ele>
        <time>2016-07-25T14:50:49Z</time>
      </trkpt>
      <trkpt lat="41.418017" lon="-3.337283">
        <ele>1731.0</ele>
        <time>2016-07-25T14:50:51Z</time>
      </trkpt>
      <trkpt lat="41.418150" lon="-3.337300">
        <ele>1729.0</ele>
        <time>2016-07-25T14:50:53Z</time>
      </trkpt>
      <trkpt lat="41.418317" lon="-3.337283">
        <ele>1727.0</ele>
        <time>2016-07-25T14:50:55Z</time>
      </trkpt>
      <trkpt lat="41.418467" lon="-3.337300">
        <ele>1727.0</ele>
        <time>2016-07-25T14:50:57Z</time>
      </trkpt>
      <trkpt lat="41.418600" lon="-3.337317">
        <ele>1729.0</ele>
        <time>2016-07-25T14:50:59Z</time>
      </trkpt>
      <trkpt lat="41.418733" lon="-3.337333">
        <ele>1728.0</ele>
        <time>2016-07-25T14:51:01Z</time>
      </trkpt>
      <trkpt lat="41.418883" lon="-3.337350">
        <ele>1728.0</ele>
        <time>2016-07-25T14:51:03Z</time>
      </trkpt>
      <trkpt lat="41.419017" lon="-3.337333">
        <ele>1728.0</ele>
        <time>2016-07-25T14:51:05Z</time>
      </trkpt>
      <trkpt lat="41.419150" lon="-3.337317">
        <ele>1728.0</ele>
        <time>2016-07-25T14:51:07Z</time>
      </trkpt>
      <trkpt lat="41.419300" lon="-3.337300">
        <ele>1728.0</ele>
        <time>2016-07-25T14:51:09Z</time>
      </trkpt>
      <trkpt lat="41.419450" lon="-3.337233">
        <ele>1729.0</ele>
        <time>2016-07-25T14:51:11Z</time>
      </trkpt>
      <trkpt lat="41.419583" lon="-3.337183">
        <ele>1731.0</ele>
        <time>2016-07-25T14:51:13Z</time>
      </trkpt>
      <trkpt lat="41.419717" lon="-3.337150">
        <ele>1732.0</ele>
        <time>2016-07-25T14:51:15Z</time>
      </trkpt>
      <trkpt lat="41.419850" lon="-3.337117">
        <ele>1733.0</ele>
        <time>2016-07-25T14:51:17Z</time>
      </trkpt>
      <trkpt lat="41.420000" lon="-3.337067">
        <ele>1733.0</ele>
        <time>2016-07-25T14:51:19Z</time>
      </trkpt>
      <trkpt lat="41.420133" lon="-3.336950">
        <ele>1735.0</ele>
        <time>2016-07-25T14:51:21Z</time>
      </trkpt>
      <trkpt lat="41.420250" lon="-3.336817">
        <ele>1735.0</ele>
        <time>2016-07-25T14:51:23Z</time>
      </trkpt>
      <trkpt lat="41.420400" lon="-3.336683">
        <ele>1733.0</ele>
        <time>2016-07-25T14:51:25Z</time>
      </trkpt>
      <trkpt lat="41.420550" lon="-3.336517">
        <ele>1734.0</ele>
        <time>2016-07-25T14:51:27Z</time>
      </trkpt>
      <trkpt lat="41.420700" lon="-3.336383">
        <ele>1736.0</ele>
        <time>2016-07-25T14:51:29Z</time>
      </trkpt>
      <trkpt lat="41.420833" lon="-3.336233">
        <ele>1737.0</ele>
        <time>2016-07-25T14:51:31Z</time>
      </trkpt>
      <trkpt lat="41.420967" lon="-3.336067">
        <ele>1736.0</ele>
        <time>2016-07-25T14:51:33Z</time>
      </trkpt>
      <trkpt lat="41.421083" lon="-3.335933">
        <ele>1736.0</ele>
        <time>2016-07-25T14:51:35Z</time>
      </trkpt>
      <trkpt lat="41.421200" lon="-3.335850">
        <ele>1735.0</ele>
        <time>2016-07-25T14:51:37Z</time>
      </trkpt>
      <trkpt lat="41.421317" lon="-3.335767">
        <ele>1731.0</ele>
        <time>2016-07-25T14:51:39Z</time>
      </trkpt>
      <trkpt lat="41.421467" lon="-3.335733">
        <ele>1728.0</ele>
        <time>2016-07-25T14:51:41Z</time>
      </trkpt>
      <trkpt lat="41.421617" lon="-3.335700">
        <ele>1725.0</ele>
        <time>2016-07-25T14:51:43Z</time>
      </trkpt>
      <trkpt lat="41.421767" lon="-3.335650">
        <ele>1723.0</ele>
        <time>2016-07-25T14:51:45Z</time>
      </trkpt>
      <trkpt lat="41.421917" lon="-3.335650">
        <ele>1722.0</ele>
        <time>2016-07-25T14:51:47Z</time>
      </trkpt>
      <trkpt lat="41.422083" lon="-3.335600">
        <ele>1722.0</ele>
        <time>2016-07-25T14:51:49Z</time>
      </trkpt>
      <trkpt lat="41.422200" lon="-3.335483">
        <ele>1720.0</ele>
        <time>2016-07-25T14:51:51Z</time>
      </trkpt>
      <trkpt lat="41.422350" lon="-3.335400">
        <ele>1719.0</ele>
        <time>2016-07-25T14:51:53Z</time>
      </trkpt>
      <trkpt lat="41.422483" lon="-3.335317">
        <ele>1718.0</ele>
        <time>2016-07-25T14:51:55Z</time>
      </trkpt>
      <trkpt lat="41.422617" lon="-3.335267">
        <ele>1717.0</ele>
        <time>2016-07-25T14:51:57Z</time>
      </trkpt>
      <trkpt lat="41.422783" lon="-3.335200">
        <ele>1717.0</ele>
        <time>2016-07-25T14:51:59Z</time>
      </trkpt>
      <trkpt lat="41.422917" lon="-3.335167">
        <ele>1722.0</ele>
        <time>2016-07-25T14:52:01Z</time>
      </trkpt>
      <trkpt lat="41.423017" lon="-3.335133">
        <ele>1727.0</ele>
        <time>2016-07-25T14:52:03Z</time>
      </trkpt>
      <trkpt lat="41.423117" lon="-3.335000">
        <ele>1730.0</ele>
        <time>2016-07-25T14:52:05Z</time>
      </trkpt>
      <trkpt lat="41.423183" lon="-3.334767">
        <ele>1731.0</ele>
        <time>2016-07-25T14:52:07Z</time>
      </trkpt>
      <trkpt lat="41.423200" lon="-3.334483">
        <ele>1734.0</ele>
        <time>2016-07-25T14:52:09Z</time>
      </trkpt>
      <trkpt lat="41.423117" lon="-3.334217">
        <ele>1737.0</ele>
        <time>2016-07-25T14:52:11Z</time>
      </trkpt>
      <trkpt lat="41.422983" lon="-3.334033">
        <ele>1738.0</ele>
        <time>2016-07-25T14:52:13Z</time>
      </trkpt>
      <trkpt lat="41.422800" lon="-3.333933">
        <ele>1738.0</ele>
        <time>2016-07-25T14:52:15Z</time>
      </trkpt>
      <trkpt lat="41.422650" lon="-3.333967">
        <ele>1739.0</ele>
        <time>2016-07-25T14:52:17Z</time>
      </trkpt>
      <trkpt lat="41.422583" lon="-3.334033">
        <ele>1741.0</ele>
        <time>2016-07-25T14:52:19Z</time>
      </trkpt>
      <trkpt lat="41.422567" lon="-3.334133">
        <ele>1742.0</ele>
        <time>2016-07-25T14:52:21Z</time>
      </trkpt>
      <trkpt lat="41.422583" lon="-3.334233">
        <ele>1744.0</ele>
        <time>2016-07-25T14:52:23Z</time>
      </trkpt>
      <trkpt lat="41.422617" lon="-3.334367">
        <ele>1747.0</ele>
        <time>2016-07-25T14:52:25Z</time>
      </trkpt>
      <trkpt lat="41.422683" lon="-3.334500">
        <ele>1750.0</ele>
        <time>2016-07-25T14:52:27Z</time>
      </trkpt>
      <trkpt lat="41.422733" lon="-3.334617">
        <ele>1752.0</ele>
        <time>2016-07-25T14:52:29Z</time>
      </trkpt>
      <trkpt lat="41.422850" lon="-3.334683">
        <ele>1752.0</ele>
        <time>2016-07-25T14:52:31Z</time>
      </trkpt>
      <trkpt lat="41.422983" lon="-3.334700">
        <ele>1753.0</ele>
        <time>2016-07-25T14:52:33Z</time>
      </trkpt>
      <trkpt lat="41.423083" lon="-3.334733">
        <ele>1753.0</ele>
        <time>2016-07-25T14:52:35Z</time>
      </trkpt>
      <trkpt lat="41.423217" lon="-3.334750">
        <ele>1749.0</ele>
        <time>2016-07-25T14:52:37Z</time>
      </trkpt>
      <trkpt lat="41.423417" lon="-3.334717">
        <ele>1748.0</ele>
        <time>2016-07-25T14:52:39Z</time>
      </trkpt>
      <trkpt lat="41.423600" lon="-3.334683">
        <ele>1752.0</ele>
        <time>2016-07-25T14:52:41Z</time>
      </trkpt>
      <trkpt lat="41.423750" lon="-3.334650">
        <ele>1755.0</ele>
        <time>2016-07-25T14:52:43Z</time>
      </trkpt>
      <trkpt lat="41.423900" lon="-3.334567">
        <ele>1756.0</ele>
        <time>2016-07-25T14:52:45Z</time>
      </trkpt>
      <trkpt lat="41.424050" lon="-3.334383">
        <ele>1756.0</ele>
        <time>2016-07-25T14:52:47Z</time>
      </trkpt>
      <trkpt lat="41.424100" lon="-3.334133">
        <ele>1755.0</ele>
        <time>2016-07-25T14:52:49Z</time>
      </trkpt>
      <trkpt lat="41.424067" lon="-3.333833">
        <ele>1755.0</ele>
        <time>2016-07-25T14:52:51Z</time>
      </trkpt>
      <trkpt lat="41.423933" lon="-3.333533">
        <ele>1757.0</ele>
        <time>2016-07-25T14:52:53Z</time>
      </trkpt>
      <trkpt lat="41.423733" lon="-3.333350">
        <ele>1764.0</ele>
        <time>2016-07-25T14:52:55Z</time>
      </trkpt>
      <trkpt lat="41.423533" lon="-3.333300">
        <ele>1770.0</ele>
        <time>2016-07-25T14:52:57Z</time>
      </trkpt>
      <trkpt lat="41.423333" lon="-3.333333">
        <ele>1774.0</ele>
        <time>2016-07-25T14:52:59Z</time>
      </trkpt>
      <trkpt lat="41.423167" lon="-3.333500">
        <ele>1778.0</ele>
        <time>2016-07-25T14:53:01Z</time>
      </trkpt>
      <trkpt lat="41.423117" lon="-3.333683">
        <ele>1784.0</ele>
        <time>2016-07-25T14:53:03Z</time>
      </trkpt>
      <trkpt lat="41.423117" lon="-3.333833">
        <ele>1786.0</ele>
        <time>2016-07-25T14:53:05Z</time>
      </trkpt>
      <trkpt lat="41.423200" lon="-3.333950">
        <ele>1784.0</ele>
        <time>2016-07-25T14:53:07Z</time>
      </trkpt>
      <trkpt lat="41.423333" lon="-3.334050">
        <ele>1783.0</ele>
        <time>2016-07-25T14:53:09Z</time>
      </trkpt>
      <trkpt lat="41.423483" lon="-3.334117">
        <ele>1784.0</ele>
        <time>2016-07-25T14:53:11Z</time>
      </trkpt>
      <trkpt lat="41.423683" lon="-3.334117">
        <ele>1782.0</ele>
        <time>2016-07-25T14:53:13Z</time>
      </trkpt>
      <trkpt lat="41.423867" lon="-3.334083">
        <ele>1781.0</ele>
        <time>2016-07-25T14:53:15Z</time>
      </trkpt>
      <trkpt lat="41.424033" lon="-3.334033">
        <ele>1777.0</ele>
        <time>2016-07-25T14:53:17Z</time>
      </trkpt>
      <trkpt lat="41.424217" lon="-3.333983">
        <ele>1772.0</ele>
        <time>2016-07-25T14:53:19Z</time>
      </trkpt>
      <trkpt lat="41.424417" lon="-3.333917">
        <ele>1769.0</ele>
        <time>2016-07-25T14:53:21Z</time>
      </trkpt>
      <trkpt lat="41.424583" lon="-3.333883">
        <ele>1764.0</ele>
        <time>2016-07-25T14:53:23Z</time>
      </trkpt>
      <trkpt lat="41.424783" lon="-3.333850">
        <ele>1758.0</ele>
        <time>2016-07-25T14:53:25Z</time>
      </trkpt>
      <trkpt lat="41.424967" lon="-3.333783">
        <ele>1754.0</ele>
        <time>2016-07-25T14:53:27Z</time>
      </trkpt>
      <trkpt lat="41.425150" lon="-3.333767">
        <ele>1750.0</ele>
        <time>2016-07-25T14:53:29Z</time>
      </trkpt>
      <trkpt lat="41.425333" lon="-3.333733">
        <ele>1745.0</ele>
        <time>2016-07-25T14:53:31Z</time>
      </trkpt>
      <trkpt lat="41.425533" lon="-3.333700">
        <ele>1740.0</ele>
        <time>2016-07-25T14:53:33Z</time>
      </trkpt>
      <trkpt lat="41.425733" lon="-3.333667">
        <ele>1737.0</ele>
        <time>2016-07-25T14:53:35Z</time>
      </trkpt>
      <trkpt lat="41.425933" lon="-3.333617">
        <ele>1734.0</ele>
        <time>2016-07-25T14:53:37Z</time>
      </trkpt>
      <trkpt lat="41.426100" lon="-3.333550">
        <ele>1730.0</ele>
        <time>2016-07-25T14:53:39Z</time>
      </trkpt>
      <trkpt lat="41.426300" lon="-3.333500">
        <ele>1726.0</ele>
        <time>2016-07-25T14:53:41Z</time>
      </trkpt>
      <trkpt lat="41.426483" lon="-3.333450">
        <ele>1723.0</ele>
        <time>2016-07-25T14:53:43Z</time>
      </trkpt>
      <trkpt lat="41.426650" lon="-3.333400">
        <ele>1720.0</ele>
        <time>2016-07-25T14:53:45Z</time>
      </trkpt>
      <trkpt lat="41.426850" lon="-3.333367">
        <ele>1716.0</ele>
        <time>2016-07-25T14:53:47Z</time>
      </trkpt>
      <trkpt lat="41.427033" lon="-3.333333">
        <ele>1713.0</ele>
        <time>2016-07-25T14:53:49Z</time>
      </trkpt>
      <trkpt lat="41.427217" lon="-3.333300">
        <ele>1709.0</ele>
        <time>2016-07-25T14:53:51Z</time>
      </trkpt>
      <trkpt lat="41.427400" lon="-3.333267">
        <ele>1705.0</ele>
        <time>2016-07-25T14:53:53Z</time>
      </trkpt>
      <trkpt lat="41.427583" lon="-3.333217">
        <ele>1700.0</ele>
        <time>2016-07-25T14:53:55Z</time>
      </trkpt>
      <trkpt lat="41.427767" lon="-3.333167">
        <ele>1696.0</ele>
        <time>2016-07-25T14:53:57Z</time>
      </trkpt>
      <trkpt lat="41.427933" lon="-3.333117">
        <ele>1693.0</ele>
        <time>2016-07-25T14:53:59Z</time>
      </trkpt>
      <trkpt lat="41.428083" lon="-3.333083">
        <ele>1689.0</ele>
        <time>2016-07-25T14:54:01Z</time>
      </trkpt>
      <trkpt lat="41.428233" lon="-3.333000">
        <ele>1685.0</ele>
        <time>2016-07-25T14:54:03Z</time>
      </trkpt>
      <trkpt lat="41.428383" lon="-3.332933">
        <ele>1681.0</ele>
        <time>2016-07-25T14:54:05Z</time>
      </trkpt>
      <trkpt lat="41.428550" lon="-3.332850">
        <ele>1678.0</ele>
        <time>2016-07-25T14:54:07Z</time>
      </trkpt>
      <trkpt lat="41.428700" lon="-3.332783">
        <ele>1676.0</ele>
        <time>2016-07-25T14:54:09Z</time>
      </trkpt>
      <trkpt lat="41.428850" lon="-3.332700">
        <ele>1673.0</ele>
        <time>2016-07-25T14:54:11Z</time>
      </trkpt>
      <trkpt lat="41.428983" lon="-3.332600">
        <ele>1670.0</ele>
        <time>2016-07-25T14:54:13Z</time>
      </trkpt>
      <trkpt lat="41.429133" lon="-3.332517">
        <ele>1665.0</ele>
        <time>2016-07-25T14:54:15Z</time>
      </trkpt>
      <trkpt lat="41.429283" lon="-3.332467">
        <ele>1661.0</ele>
        <time>2016-07-25T14:54:17Z</time>
      </trkpt>
      <trkpt lat="41.429417" lon="-3.332433">
        <ele>1658.0</ele>
        <time>2016-07-25T14:54:19Z</time>
      </trkpt>
      <trkpt lat="41.429533" lon="-3.332400">
        <ele>1654.0</ele>
        <time>2016-07-25T14:54:21Z</time>
      </trkpt>
      <trkpt lat="41.429683" lon="-3.332383">
        <ele>1651.0</ele>
        <time>2016-07-25T14:54:23Z</time>
      </trkpt>
      <trkpt lat="41.429833" lon="-3.332350">
        <ele>1648.0</ele>
        <time>2016-07-25T14:54:25Z</time>
      </trkpt>
      <trkpt lat="41.429983" lon="-3.332317">
        <ele>1645.0</ele>
        <time>2016-07-25T14:54:27Z</time>
      </trkpt>
      <trkpt lat="41.430133" lon="-3.332300">
        <ele>1642.0</ele>
        <time>2016-07-25T14:54:29Z</time>
      </trkpt>
      <trkpt lat="41.430267" lon="-3.332283">
        <ele>1638.0</ele>
        <time>2016-07-25T14:54:31Z</time>
      </trkpt>
      <trkpt lat="41.430400" lon="-3.332267">
        <ele>1635.0</ele>
        <time>2016-07-25T14:54:33Z</time>
      </trkpt>
      <trkpt lat="41.430550" lon="-3.332267">
        <ele>1631.0</ele>
        <time>2016-07-25T14:54:35Z</time>
      </trkpt>
      <trkpt lat="41.430717" lon="-3.332233">
        <ele>1628.0</ele>
        <time>2016-07-25T14:54:37Z</time>
      </trkpt>
      <trkpt lat="41.430867" lon="-3.332217">
        <ele>1628.0</ele>
        <time>2016-07-25T14:54:39Z</time>
      </trkpt>
      <trkpt lat="41.431000" lon="-3.332200">
        <ele>1629.0</ele>
        <time>2016-07-25T14:54:41Z</time>
      </trkpt>
      <trkpt lat="41.431133" lon="-3.332167">
        <ele>1629.0</ele>
        <time>2016-07-25T14:54:43Z</time>
      </trkpt>
      <trkpt lat="41.431283" lon="-3.332100">
        <ele>1628.0</ele>
        <time>2016-07-25T14:54:45Z</time>
      </trkpt>
      <trkpt lat="41.431417" lon="-3.332000">
        <ele>1630.0</ele>
        <time>2016-07-25T14:54:47Z</time>
      </trkpt>
      <trkpt lat="41.431550" lon="-3.331917">
        <ele>1633.0</ele>
        <time>2016-07-25T14:54:49Z</time>
      </trkpt>
      <trkpt lat="41.431633" lon="-3.331683">
        <ele>1636.0</ele>
        <time>2016-07-25T14:54:51Z</time>
      </trkpt>
      <trkpt lat="41.431700" lon="-3.331400">
        <ele>1639.0</ele>
        <time>2016-07-25T14:54:53Z</time>
      </trkpt>
      <trkpt lat="41.431733" lon="-3.331117">
        <ele>1642.0</ele>
        <time>2016-07-25T14:54:55Z</time>
      </trkpt>
      <trkpt lat="41.431700" lon="-3.330817">
        <ele>1643.0</ele>
        <time>2016-07-25T14:54:57Z</time>
      </trkpt>
      <trkpt lat="41.431600" lon="-3.330517">
        <ele>1645.0</ele>
        <time>2016-07-25T14:54:59Z</time>
      </trkpt>
      <trkpt lat="41.431467" lon="-3.330233">
        <ele>1646.0</ele>
        <time>2016-07-25T14:55:01Z</time>
      </trkpt>
      <trkpt lat="41.431300" lon="-3.330017">
        <ele>1649.0</ele>
        <time>2016-07-25T14:55:03Z</time>
      </trkpt>
      <trkpt lat="41.431117" lon="-3.329883">
        <ele>1652.0</ele>
        <time>2016-07-25T14:55:05Z</time>
      </trkpt>
      <trkpt lat="41.430983" lon="-3.329833">
        <ele>1653.0</ele>
        <time>2016-07-25T14:55:07Z</time>
      </trkpt>
      <trkpt lat="41.430850" lon="-3.329867">
        <ele>1651.0</ele>
        <time>2016-07-25T14:55:09Z</time>
      </trkpt>
      <trkpt lat="41.430767" lon="-3.329967">
        <ele>1650.0</ele>
        <time>2016-07-25T14:55:11Z</time>
      </trkpt>
      <trkpt lat="41.430767" lon="-3.330083">
        <ele>1650.0</ele>
        <time>2016-07-25T14:55:13Z</time>
      </trkpt>
      <trkpt lat="41.430817" lon="-3.330183">
        <ele>1650.0</ele>
        <time>2016-07-25T14:55:15Z</time>
      </trkpt>
      <trkpt lat="41.430867" lon="-3.330250">
        <ele>1651.0</ele>
        <time>2016-07-25T14:55:17Z</time>
      </trkpt>
      <trkpt lat="41.430950" lon="-3.330283">
        <ele>1654.0</ele>
        <time>2016-07-25T14:55:19Z</time>
      </trkpt>
      <trkpt lat="41.431033" lon="-3.330300">
        <ele>1656.0</ele>
        <time>2016-07-25T14:55:21Z</time>
      </trkpt>
      <trkpt lat="41.431133" lon="-3.330283">
        <ele>1658.0</ele>
        <time>2016-07-25T14:55:23Z</time>
      </trkpt>
      <trkpt lat="41.431250" lon="-3.330217">
        <ele>1659.0</ele>
        <time>2016-07-25T14:55:25Z</time>
      </trkpt>
      <trkpt lat="41.431350" lon="-3.330067">
        <ele>1661.0</ele>
        <time>2016-07-25T14:55:27Z</time>
      </trkpt>
      <trkpt lat="41.431450" lon="-3.329950">
        <ele>1662.0</ele>
        <time>2016-07-25T14:55:29Z</time>
      </trkpt>
      <trkpt lat="41.431550" lon="-3.329867">
        <ele>1663.0</ele>
        <time>2016-07-25T14:55:31Z</time>
      </trkpt>
      <trkpt lat="41.431650" lon="-3.329750">
        <ele>1663.0</ele>
        <time>2016-07-25T14:55:33Z</time>
      </trkpt>
      <trkpt lat="41.431750" lon="-3.329567">
        <ele>1665.0</ele>
        <time>2016-07-25T14:55:35Z</time>
      </trkpt>
      <trkpt lat="41.431783" lon="-3.329300">
        <ele>1668.0</ele>
        <time>2016-07-25T14:55:37Z</time>
      </trkpt>
      <trkpt lat="41.431750" lon="-3.328983">
        <ele>1671.0</ele>
        <time>2016-07-25T14:55:39Z</time>
      </trkpt>
      <trkpt lat="41.431600" lon="-3.328667">
        <ele>1673.0</ele>
        <time>2016-07-25T14:55:41Z</time>
      </trkpt>
      <trkpt lat="41.431433" lon="-3.328467">
        <ele>1677.0</ele>
        <time>2016-07-25T14:55:43Z</time>
      </trkpt>
      <trkpt lat="41.431250" lon="-3.328333">
        <ele>1677.0</ele>
        <time>2016-07-25T14:55:45Z</time>
      </trkpt>
      <trkpt lat="41.431033" lon="-3.328267">
        <ele>1672.0</ele>
        <time>2016-07-25T14:55:47Z</time>
      </trkpt>
      <trkpt lat="41.430800" lon="-3.328300">
        <ele>1673.0</ele>
        <time>2016-07-25T14:55:49Z</time>
      </trkpt>
      <trkpt lat="41.430633" lon="-3.328333">
        <ele>1677.0</ele>
        <time>2016-07-25T14:55:51Z</time>
      </trkpt>
      <trkpt lat="41.430500" lon="-3.328400">
        <ele>1678.0</ele>
        <time>2016-07-25T14:55:53Z</time>
      </trkpt>
      <trkpt lat="41.430417" lon="-3.328567">
        <ele>1676.0</ele>
        <time>2016-07-25T14:55:55Z</time>
      </trkpt>
      <trkpt lat="41.430400" lon="-3.328717">
        <ele>1678.0</ele>
        <time>2016-07-25T14:55:57Z</time>
      </trkpt>
      <trkpt lat="41.430433" lon="-3.328817">
        <ele>1681.0</ele>
        <time>2016-07-25T14:55:59Z</time>
      </trkpt>
      <trkpt lat="41.430483" lon="-3.328900">
        <ele>1684.0</ele>
        <time>2016-07-25T14:56:01Z</time>
      </trkpt>
      <trkpt lat="41.430583" lon="-3.328950">
        <ele>1684.0</ele>
        <time>2016-07-25T14:56:03Z</time>
      </trkpt>
      <trkpt lat="41.430700" lon="-3.328950">
        <ele>1686.0</ele>
        <time>2016-07-25T14:56:05Z</time>
      </trkpt>
      <trkpt lat="41.430833" lon="-3.328933">
        <ele>1690.0</ele>
        <time>2016-07-25T14:56:07Z</time>
      </trkpt>
      <trkpt lat="41.430967" lon="-3.328883">
        <ele>1695.0</ele>
        <time>2016-07-25T14:56:09Z</time>
      </trkpt>
      <trkpt lat="41.431050" lon="-3.328800">
        <ele>1698.0</ele>
        <time>2016-07-25T14:56:11Z</time>
      </trkpt>
      <trkpt lat="41.431150" lon="-3.328633">
        <ele>1699.0</ele>
        <time>2016-07-25T14:56:13Z</time>
      </trkpt>
      <trkpt lat="41.431217" lon="-3.328350">
        <ele>1699.0</ele>
        <time>2016-07-25T14:56:15Z</time>
      </trkpt>
      <trkpt lat="41.431233" lon="-3.327983">
        <ele>1704.0</ele>
        <time>2016-07-25T14:56:17Z</time>
      </trkpt>
      <trkpt lat="41.431167" lon="-3.327667">
        <ele>1708.0</ele>
        <time>2016-07-25T14:56:19Z</time>
      </trkpt>
      <trkpt lat="41.431033" lon="-3.327350">
        <ele>1709.0</ele>
        <time>2016-07-25T14:56:21Z</time>
      </trkpt>
      <trkpt lat="41.430850" lon="-3.327033">
        <ele>1709.0</ele>
        <time>2016-07-25T14:56:23Z</time>
      </trkpt>
      <trkpt lat="41.430617" lon="-3.326800">
        <ele>1710.0</ele>
        <time>2016-07-25T14:56:25Z</time>
      </trkpt>
      <trkpt lat="41.430383" lon="-3.326683">
        <ele>1711.0</ele>
        <time>2016-07-25T14:56:27Z</time>
      </trkpt>
      <trkpt lat="41.430150" lon="-3.326667">
        <ele>1710.0</ele>
        <time>2016-07-25T14:56:29Z</time>
      </trkpt>
      <trkpt lat="41.429917" lon="-3.326667">
        <ele>1710.0</ele>
        <time>2016-07-25T14:56:31Z</time>
      </trkpt>
      <trkpt lat="41.429733" lon="-3.326733">
        <ele>1710.0</ele>
        <time>2016-07-25T14:56:33Z</time>
      </trkpt>
      <trkpt lat="41.429633" lon="-3.326850">
        <ele>1709.0</ele>
        <time>2016-07-25T14:56:35Z</time>
      </trkpt>
      <trkpt lat="41.429617" lon="-3.327017">
        <ele>1706.0</ele>
        <time>2016-07-25T14:56:37Z</time>
      </trkpt>
      <trkpt lat="41.429700" lon="-3.327183">
        <ele>1705.0</ele>
        <time>2016-07-25T14:56:39Z</time>
      </trkpt>
      <trkpt lat="41.429783" lon="-3.327317">
        <ele>1709.0</ele>
        <time>2016-07-25T14:56:41Z</time>
      </trkpt>
      <trkpt lat="41.429850" lon="-3.327417">
        <ele>1712.0</ele>
        <time>2016-07-25T14:56:43Z</time>
      </trkpt>
      <trkpt lat="41.429950" lon="-3.327483">
        <ele>1714.0</ele>
        <time>2016-07-25T14:56:45Z</time>
      </trkpt>
      <trkpt lat="41.430100" lon="-3.327517">
        <ele>1716.0</ele>
        <time>2016-07-25T14:56:47Z</time>
      </trkpt>
      <trkpt lat="41.430233" lon="-3.327533">
        <ele>1721.0</ele>
        <time>2016-07-25T14:56:49Z</time>
      </trkpt>
      <trkpt lat="41.430350" lon="-3.327467">
        <ele>1726.0</ele>
        <time>2016-07-25T14:56:51Z</time>
      </trkpt>
      <trkpt lat="41.430483" lon="-3.327333">
        <ele>1726.0</ele>
        <time>2016-07-25T14:56:53Z</time>
      </trkpt>
      <trkpt lat="41.430633" lon="-3.327117">
        <ele>1728.0</ele>
        <time>2016-07-25T14:56:55Z</time>
      </trkpt>
      <trkpt lat="41.430733" lon="-3.326850">
        <ele>1732.0</ele>
        <time>2016-07-25T14:56:57Z</time>
      </trkpt>
      <trkpt lat="41.430767" lon="-3.326550">
        <ele>1733.0</ele>
        <time>2016-07-25T14:56:59Z</time>
      </trkpt>
      <trkpt lat="41.430733" lon="-3.326167">
        <ele>1734.0</ele>
        <time>2016-07-25T14:57:01Z</time>
      </trkpt>
      <trkpt lat="41.430567" lon="-3.325817">
        <ele>1737.0</ele>
        <time>2016-07-25T14:57:03Z</time>
      </trkpt>
      <trkpt lat="41.430383" lon="-3.325583">
        <ele>1742.0</ele>
        <time>2016-07-25T14:57:05Z</time>
      </trkpt>
      <trkpt lat="41.430167" lon="-3.325483">
        <ele>1746.0</ele>
        <time>2016-07-25T14:57:07Z</time>
      </trkpt>
      <trkpt lat="41.430000" lon="-3.325500">
        <ele>1750.0</ele>
        <time>2016-07-25T14:57:09Z</time>
      </trkpt>
      <trkpt lat="41.429867" lon="-3.325567">
        <ele>1753.0</ele>
        <time>2016-07-25T14:57:11Z</time>
      </trkpt>
      <trkpt lat="41.429817" lon="-3.325667">
        <ele>1755.0</ele>
        <time>2016-07-25T14:57:13Z</time>
      </trkpt>
      <trkpt lat="41.429833" lon="-3.325783">
        <ele>1757.0</ele>
        <time>2016-07-25T14:57:15Z</time>
      </trkpt>
      <trkpt lat="41.429933" lon="-3.325850">
        <ele>1759.0</ele>
        <time>2016-07-25T14:57:17Z</time>
      </trkpt>
      <trkpt lat="41.430050" lon="-3.325850">
        <ele>1763.0</ele>
        <time>2016-07-25T14:57:19Z</time>
      </trkpt>
      <trkpt lat="41.430150" lon="-3.325800">
        <ele>1765.0</ele>
        <time>2016-07-25T14:57:21Z</time>
      </trkpt>
      <trkpt lat="41.430283" lon="-3.325750">
        <ele>1763.0</ele>
        <time>2016-07-25T14:57:23Z</time>
      </trkpt>
      <trkpt lat="41.430467" lon="-3.325633">
        <ele>1765.0</ele>
        <time>2016-07-25T14:57:25Z</time>
      </trkpt>
      <trkpt lat="41.430617" lon="-3.325483">
        <ele>1772.0</ele>
        <time>2016-07-25T14:57:27Z</time>
      </trkpt>
      <trkpt lat="41.430750" lon="-3.325267">
        <ele>1780.0</ele>
        <time>2016-07-25T14:57:29Z</time>
      </trkpt>
      <trkpt lat="41.430817" lon="-3.325000">
        <ele>1787.0</ele>
        <time>2016-07-25T14:57:31Z</time>
      </trkpt>
      <trkpt lat="41.430783" lon="-3.324667">
        <ele>1789.0</ele>
        <time>2016-07-25T14:57:33Z</time>
      </trkpt>
      <trkpt lat="41.430683" lon="-3.324300">
        <ele>1792.0</ele>
        <time>2016-07-25T14:57:35Z</time>
      </trkpt>
      <trkpt lat="41.430483" lon="-3.323983">
        <ele>1797.0</ele>
        <time>2016-07-25T14:57:37Z</time>
      </trkpt>
      <trkpt lat="41.430283" lon="-3.323783">
        <ele>1805.0</ele>
        <time>2016-07-25T14:57:39Z</time>
      </trkpt>
      <trkpt lat="41.430133" lon="-3.323667">
        <ele>1808.0</ele>
        <time>2016-07-25T14:57:41Z</time>
      </trkpt>
      <trkpt lat="41.429967" lon="-3.323633">
        <ele>1808.0</ele>
        <time>2016-07-25T14:57:43Z</time>
      </trkpt>
      <trkpt lat="41.429850" lon="-3.323683">
        <ele>1810.0</ele>
        <time>2016-07-25T14:57:45Z</time>
      </trkpt>
      <trkpt lat="41.429850" lon="-3.323767">
        <ele>1812.0</ele>
        <time>2016-07-25T14:57:47Z</time>
      </trkpt>
      <trkpt lat="41.429917" lon="-3.323750">
        <ele>1816.0</ele>
        <time>2016-07-25T14:57:49Z</time>
      </trkpt>
      <trkpt lat="41.430000" lon="-3.323717">
        <ele>1821.0</ele>
        <time>2016-07-25T14:57:51Z</time>
      </trkpt>
      <trkpt lat="41.430083" lon="-3.323633">
        <ele>1824.0</ele>
        <time>2016-07-25T14:57:53Z</time>
      </trkpt>
      <trkpt lat="41.430217" lon="-3.323433">
        <ele>1826.0</ele>
        <time>2016-07-25T14:57:55Z</time>
      </trkpt>
      <trkpt lat="41.430350" lon="-3.323117">
        <ele>1833.0</ele>
        <time>2016-07-25T14:57:57Z</time>
      </trkpt>
      <trkpt lat="41.430400" lon="-3.322783">
        <ele>1843.0</ele>
        <time>2016-07-25T14:57:59Z</time>
      </trkpt>
      <trkpt lat="41.430417" lon="-3.322450">
        <ele>1850.0</ele>
        <time>2016-07-25T14:58:01Z</time>
      </trkpt>
      <trkpt lat="41.430367" lon="-3.322083">
        <ele>1854.0</ele>
        <time>2016-07-25T14:58:03Z</time>
      </trkpt>
      <trkpt lat="41.430250" lon="-3.321717">
        <ele>1861.0</ele>
        <time>2016-07-25T14:58:05Z</time>
      </trkpt>
      <trkpt lat="41.430100" lon="-3.321450">
        <ele>1866.0</ele>
        <time>2016-07-25T14:58:07Z</time>
      </trkpt>
      <trkpt lat="41.429917" lon="-3.321300">
        <ele>1869.0</ele>
        <time>2016-07-25T14:58:09Z</time>
      </trkpt>
      <trkpt lat="41.429733" lon="-3.321267">
        <ele>1873.0</ele>
        <time>2016-07-25T14:58:11Z</time>
      </trkpt>
      <trkpt lat="41.429600" lon="-3.321300">
        <ele>1879.0</ele>
        <time>2016-07-25T14:58:13Z</time>
      </trkpt>
      <trkpt lat="41.429550" lon="-3.321333">
        <ele>1884.0</ele>
        <time>2016-07-25T14:58:15Z</time>
      </trkpt>
      <trkpt lat="41.429550" lon="-3.321417">
        <ele>1887.0</ele>
        <time>2016-07-25T14:58:17Z</time>
      </trkpt>
      <trkpt lat="41.429617" lon="-3.321467">
        <ele>1891.0</ele>
        <time>2016-07-25T14:58:19Z</time>
      </trkpt>
      <trkpt lat="41.429717" lon="-3.321483">
        <ele>1897.0</ele>
        <time>2016-07-25T14:58:21Z</time>
      </trkpt>
      <trkpt lat="41.429817" lon="-3.321517">
        <ele>1903.0</ele>
        <time>2016-07-25T14:58:23Z</time>
      </trkpt>
      <trkpt lat="41.429950" lon="-3.321483">
        <ele>1912.0</ele>
        <time>2016-07-25T14:58:25Z</time>
      </trkpt>
      <trkpt lat="41.430083" lon="-3.321383">
        <ele>1921.0</ele>
        <time>2016-07-25T14:58:27Z</time>
      </trkpt>
      <trkpt lat="41.430217" lon="-3.321233">
        <ele>1928.0</ele>
        <time>2016-07-25T14:58:29Z</time>
      </trkpt>
      <trkpt lat="41.430350" lon="-3.320967">
        <ele>1932.0</ele>
        <time>2016-07-25T14:58:31Z</time>
      </trkpt>
      <trkpt lat="41.430417" lon="-3.320633">
        <ele>1938.0</ele>
        <time>2016-07-25T14:58:33Z</time>
      </trkpt>
      <trkpt lat="41.430367" lon="-3.320267">
        <ele>1945.0</ele>
        <time>2016-07-25T14:58:35Z</time>
      </trkpt>
      <trkpt lat="41.430267" lon="-3.319950">
        <ele>1953.0</ele>
        <time>2016-07-25T14:58:37Z</time>
      </trkpt>
      <trkpt lat="41.430117" lon="-3.319683">
        <ele>1960.0</ele>
        <time>2016-07-25T14:58:39Z</time>
      </trkpt>
      <trkpt lat="41.429950" lon="-3.319517">
        <ele>1966.0</ele>
        <time>2016-07-25T14:58:41Z</time>
      </trkpt>
      <trkpt lat="41.429817" lon="-3.319517">
        <ele>1968.0</ele>
        <time>2016-07-25T14:58:43Z</time>
      </trkpt>
      <trkpt lat="41.429783" lon="-3.319633">
        <ele>1972.0</ele>
        <time>2016-07-25T14:58:45Z</time>
      </trkpt>
      <trkpt lat="41.429867" lon="-3.319717">
        <ele>1978.0</ele>
        <time>2016-07-25T14:58:47Z</time>
      </trkpt>
      <trkpt lat="41.430033" lon="-3.319750">
        <ele>1983.0</ele>
        <time>2016-07-25T14:58:49Z</time>
      </trkpt>
      <trkpt lat="41.430283" lon="-3.319667">
        <ele>1990.0</ele>
        <time>2016-07-25T14:58:51Z</time>
      </trkpt>
      <trkpt lat="41.430417" lon="-3.319533">
        <ele>2003.0</ele>
        <time>2016-07-25T14:58:53Z</time>
      </trkpt>
      <trkpt lat="41.430467" lon="-3.319450">
        <ele>2008.0</ele>
        <time>2016-07-25T14:58:55Z</time>
      </trkpt>
      <trkpt lat="41.430567" lon="-3.319300">
        <ele>2009.0</ele>
        <time>2016-07-25T14:58:57Z</time>
      </trkpt>
      <trkpt lat="41.430667" lon="-3.319083">
        <ele>2019.0</ele>
        <time>2016-07-25T14:58:59Z</time>
      </trkpt>
      <trkpt lat="41.430700" lon="-3.318800">
        <ele>2025.0</ele>
        <time>2016-07-25T14:59:01Z</time>
      </trkpt>
      <trkpt lat="41.430750" lon="-3.318467">
        <ele>2028.0</ele>
        <time>2016-07-25T14:59:03Z</time>
      </trkpt>
      <trkpt lat="41.430733" lon="-3.318100">
        <ele>2033.0</ele>
        <time>2016-07-25T14:59:05Z</time>
      </trkpt>
      <trkpt lat="41.430600" lon="-3.317817">
        <ele>2038.0</ele>
        <time>2016-07-25T14:59:07Z</time>
      </trkpt>
      <trkpt lat="41.430417" lon="-3.317683">
        <ele>2046.0</ele>
        <time>2016-07-25T14:59:09Z</time>
      </trkpt>
      <trkpt lat="41.430283" lon="-3.317600">
        <ele>2052.0</ele>
        <time>2016-07-25T14:59:11Z</time>
      </trkpt>
      <trkpt lat="41.430117" lon="-3.317600">
        <ele>2055.0</ele>
        <time>2016-07-25T14:59:13Z</time>
      </trkpt>
      <trkpt lat="41.430017" lon="-3.317683">
        <ele>2060.0</ele>
        <time>2016-07-25T14:59:15Z</time>
      </trkpt>
      <trkpt lat="41.429967" lon="-3.317800">
        <ele>2066.0</ele>
        <time>2016-07-25T14:59:17Z</time>
      </trkpt>
      <trkpt lat="41.430017" lon="-3.317950">
        <ele>2072.0</ele>
        <time>2016-07-25T14:59:19Z</time>
      </trkpt>
      <trkpt lat="41.430133" lon="-3.318050">
        <ele>2076.0</ele>
        <time>2016-07-25T14:59:21Z</time>
      </trkpt>
      <trkpt lat="41.430283" lon="-3.318117">
        <ele>2081.0</ele>
        <time>2016-07-25T14:59:23Z</time>
      </trkpt>
      <trkpt lat="41.430433" lon="-3.318133">
        <ele>2083.0</ele>
        <time>2016-07-25T14:59:25Z</time>
      </trkpt>
      <trkpt lat="41.430617" lon="-3.318150">
        <ele>2088.0</ele>
        <time>2016-07-25T14:59:27Z</time>
      </trkpt>
      <trkpt lat="41.430800" lon="-3.318117">
        <ele>2098.0</ele>
        <time>2016-07-25T14:59:29Z</time>
      </trkpt>
      <trkpt lat="41.430933" lon="-3.317967">
        <ele>2107.0</ele>
        <time>2016-07-25T14:59:31Z</time>
      </trkpt>
      <trkpt lat="41.431050" lon="-3.317750">
        <ele>2114.0</ele>
        <time>2016-07-25T14:59:33Z</time>
      </trkpt>
      <trkpt lat="41.431083" lon="-3.317483">
        <ele>2122.0</ele>
        <time>2016-07-25T14:59:35Z</time>
      </trkpt>
      <trkpt lat="41.431017" lon="-3.317200">
        <ele>2128.0</ele>
        <time>2016-07-25T14:59:37Z</time>
      </trkpt>
      <trkpt lat="41.430867" lon="-3.317017">
        <ele>2132.0</ele>
        <time>2016-07-25T14:59:39Z</time>
      </trkpt>
      <trkpt lat="41.430650" lon="-3.316950">
        <ele>2138.0</ele>
        <time>2016-07-25T14:59:41Z</time>
      </trkpt>
      <trkpt lat="41.430483" lon="-3.317000">
        <ele>2147.0</ele>
        <time>2016-07-25T14:59:43Z</time>
      </trkpt>
      <trkpt lat="41.430417" lon="-3.317117">
        <ele>2153.0</ele>
        <time>2016-07-25T14:59:45Z</time>
      </trkpt>
      <trkpt lat="41.430350" lon="-3.317267">
        <ele>2159.0</ele>
        <time>2016-07-25T14:59:47Z</time>
      </trkpt>
      <trkpt lat="41.430383" lon="-3.317433">
        <ele>2165.0</ele>
        <time>2016-07-25T14:59:49Z</time>
      </trkpt>
      <trkpt lat="41.430500" lon="-3.317550">
        <ele>2170.0</ele>
        <time>2016-07-25T14:59:51Z</time>
      </trkpt>
      <trkpt lat="41.430650" lon="-3.317567">
        <ele>2178.0</ele>
        <time>2016-07-25T14:59:53Z</time>
      </trkpt>
      <trkpt lat="41.430783" lon="-3.317500">
        <ele>2185.0</ele>
        <time>2016-07-25T14:59:55Z</time>
      </trkpt>
      <trkpt lat="41.430917" lon="-3.317350">
        <ele>2187.0</ele>
        <time>2016-07-25T14:59:57Z</time>
      </trkpt>
      <trkpt lat="41.431033" lon="-3.317133">
        <ele>2187.0</ele>
        <time>2016-07-25T14:59:59Z</time>
      </trkpt>
      <trkpt lat="41.431150" lon="-3.316900">
        <ele>2188.0</ele>
        <time>2016-07-25T15:00:01Z</time>
      </trkpt>
      <trkpt lat="41.431217" lon="-3.316633">
        <ele>2189.0</ele>
        <time>2016-07-25T15:00:03Z</time>
      </trkpt>
      <trkpt lat="41.431250" lon="-3.316300">
        <ele>2188.0</ele>
        <time>2016-07-25T15:00:05Z</time>
      </trkpt>
      <trkpt lat="41.431217" lon="-3.315950">
        <ele>2192.0</ele>
        <time>2016-07-25T15:00:07Z</time>
      </trkpt>
      <trkpt lat="41.431067" lon="-3.315650">
        <ele>2195.0</ele>
        <time>2016-07-25T15:00:09Z</time>
      </trkpt>
      <trkpt lat="41.430867" lon="-3.315433">
        <ele>2199.0</ele>
        <time>2016-07-25T15:00:11Z</time>
      </trkpt>
      <trkpt lat="41.430667" lon="-3.315317">
        <ele>2205.0</ele>
        <time>2016-07-25T15:00:13Z</time>
      </trkpt>
      <trkpt lat="41.430467" lon="-3.315300">
        <ele>2212.0</ele>
        <time>2016-07-25T15:00:15Z</time>
      </trkpt>
      <trkpt lat="41.430333" lon="-3.315383">
        <ele>2218.0</ele>
        <time>2016-07-25T15:00:17Z</time>
      </trkpt>
      <trkpt lat="41.430283" lon="-3.315550">
        <ele>2223.0</ele>
        <time>2016-07-25T15:00:19Z</time>
      </trkpt>
      <trkpt lat="41.430333" lon="-3.315717">
        <ele>2228.0</ele>
        <time>2016-07-25T15:00:21Z</time>
      </trkpt>
      <trkpt lat="41.430467" lon="-3.315833">
        <ele>2236.0</ele>
        <time>2016-07-25T15:00:23Z</time>
      </trkpt>
      <trkpt lat="41.430617" lon="-3.315867">
        <ele>2245.0</ele>
        <time>2016-07-25T15:00:25Z</time>
      </trkpt>
      <trkpt lat="41.430700" lon="-3.315900">
        <ele>2245.0</ele>
        <time>2016-07-25T15:00:27Z</time>
      </trkpt>
      <trkpt lat="41.430833" lon="-3.315900">
        <ele>2242.0</ele>
        <time>2016-07-25T15:00:29Z</time>
      </trkpt>
      <trkpt lat="41.431033" lon="-3.315800">
        <ele>2242.0</ele>
        <time>2016-07-25T15:00:31Z</time>
      </trkpt>
      <trkpt lat="41.431200" lon="-3.315617">
        <ele>2248.0</ele>
        <time>2016-07-25T15:00:33Z</time>
      </trkpt>
      <trkpt lat="41.431333" lon="-3.315467">
        <ele>2252.0</ele>
        <time>2016-07-25T15:00:35Z</time>
      </trkpt>
      <trkpt lat="41.431450" lon="-3.315233">
        <ele>2252.0</ele>
        <time>2016-07-25T15:00:37Z</time>
      </trkpt>
      <trkpt lat="41.431550" lon="-3.314883">
        <ele>2253.0</ele>
        <time>2016-07-25T15:00:39Z</time>
      </trkpt>
      <trkpt lat="41.431550" lon="-3.314500">
        <ele>2257.0</ele>
        <time>2016-07-25T15:00:41Z</time>
      </trkpt>
      <trkpt lat="41.431450" lon="-3.314167">
        <ele>2260.0</ele>
        <time>2016-07-25T15:00:43Z</time>
      </trkpt>
      <trkpt lat="41.431300" lon="-3.313900">
        <ele>2263.0</ele>
        <time>2016-07-25T15:00:45Z</time>
      </trkpt>
      <trkpt lat="41.431100" lon="-3.313683">
        <ele>2268.0</ele>
        <time>2016-07-25T15:00:47Z</time>
      </trkpt>
      <trkpt lat="41.430917" lon="-3.313533">
        <ele>2274.0</ele>
        <time>2016-07-25T15:00:49Z</time>
      </trkpt>
      <trkpt lat="41.430750" lon="-3.313483">
        <ele>2279.0</ele>
        <time>2016-07-25T15:00:51Z</time>
      </trkpt>
      <trkpt lat="41.430583" lon="-3.313533">
        <ele>2285.0</ele>
        <time>2016-07-25T15:00:53Z</time>
      </trkpt>
      <trkpt lat="41.430483" lon="-3.313600">
        <ele>2292.0</ele>
        <time>2016-07-25T15:00:55Z</time>
      </trkpt>
      <trkpt lat="41.430450" lon="-3.313683">
        <ele>2298.0</ele>
        <time>2016-07-25T15:00:57Z</time>
      </trkpt>
      <trkpt lat="41.430483" lon="-3.313750">
        <ele>2305.0</ele>
        <time>2016-07-25T15:00:59Z</time>
      </trkpt>
      <trkpt lat="41.430567" lon="-3.313750">
        <ele>2310.0</ele>
        <time>2016-07-25T15:01:01Z</time>
      </trkpt>
      <trkpt lat="41.430683" lon="-3.313683">
        <ele>2312.0</ele>
        <time>2016-07-25T15:01:03Z</time>
      </trkpt>
      <trkpt lat="41.430867" lon="-3.313533">
        <ele>2313.0</ele>
        <time>2016-07-25T15:01:05Z</time>
      </trkpt>
      <trkpt lat="41.431017" lon="-3.313250">
        <ele>2316.0</ele>
        <time>2016-07-25T15:01:07Z</time>
      </trkpt>
      <trkpt lat="41.431067" lon="-3.312900">
        <ele>2321.0</ele>
        <time>2016-07-25T15:01:09Z</time>
      </trkpt>
      <trkpt lat="41.431017" lon="-3.312583">
        <ele>2325.0</ele>
        <time>2016-07-25T15:01:11Z</time>
      </trkpt>
      <trkpt lat="41.430917" lon="-3.312267">
        <ele>2329.0</ele>
        <time>2016-07-25T15:01:13Z</time>
      </trkpt>
      <trkpt lat="41.430750" lon="-3.312050">
        <ele>2334.0</ele>
        <time>2016-07-25T15:01:15Z</time>
      </trkpt>
      <trkpt lat="41.430583" lon="-3.311933">
        <ele>2339.0</ele>
        <time>2016-07-25T15:01:17Z</time>
      </trkpt>
      <trkpt lat="41.430450" lon="-3.311933">
        <ele>2342.0</ele>
        <time>2016-07-25T15:01:19Z</time>
      </trkpt>
      <trkpt lat="41.430350" lon="-3.312033">
        <ele>2347.0</ele>
        <time>2016-07-25T15:01:21Z</time>
      </trkpt>
      <trkpt lat="41.430367" lon="-3.312150">
        <ele>2353.0</ele>
        <time>2016-07-25T15:01:23Z</time>
      </trkpt>
      <trkpt lat="41.430417" lon="-3.312217">
        <ele>2358.0</ele>
        <time>2016-07-25T15:01:25Z</time>
      </trkpt>
      <trkpt lat="41.430517" lon="-3.312250">
        <ele>2362.0</ele>
        <time>2016-07-25T15:01:27Z</time>
      </trkpt>
      <trkpt lat="41.430683" lon="-3.312250">
        <ele>2366.0</ele>
        <time>2016-07-25T15:01:29Z</time>
      </trkpt>
      <trkpt lat="41.430833" lon="-3.312167">
        <ele>2371.0</ele>
        <time>2016-07-25T15:01:31Z</time>
      </trkpt>
      <trkpt lat="41.430983" lon="-3.311983">
        <ele>2372.0</ele>
        <time>2016-07-25T15:01:33Z</time>
      </trkpt>
      <trkpt lat="41.431133" lon="-3.311717">
        <ele>2373.0</ele>
        <time>2016-07-25T15:01:35Z</time>
      </trkpt>
      <trkpt lat="41.431217" lon="-3.311383">
        <ele>2375.0</ele>
        <time>2016-07-25T15:01:37Z</time>
      </trkpt>
      <trkpt lat="41.431217" lon="-3.311017">
        <ele>2377.0</ele>
        <time>2016-07-25T15:01:39Z</time>
      </trkpt>
      <trkpt lat="41.431100" lon="-3.310700">
        <ele>2381.0</ele>
        <time>2016-07-25T15:01:41Z</time>
      </trkpt>
      <trkpt lat="41.430933" lon="-3.310467">
        <ele>2385.0</ele>
        <time>2016-07-25T15:01:43Z</time>
      </trkpt>
      <trkpt lat="41.430750" lon="-3.310350">
        <ele>2390.0</ele>
        <time>2016-07-25T15:01:45Z</time>
      </trkpt>
      <trkpt lat="41.430583" lon="-3.310367">
        <ele>2394.0</ele>
        <time>2016-07-25T15:01:47Z</time>
      </trkpt>
      <trkpt lat="41.430500" lon="-3.310450">
        <ele>2398.0</ele>
        <time>2016-07-25T15:01:49Z</time>
      </trkpt>
      <trkpt lat="41.430500" lon="-3.310567">
        <ele>2402.0</ele>
        <time>2016-07-25T15:01:51Z</time>
      </trkpt>
      <trkpt lat="41.430583" lon="-3.310650">
        <ele>2406.0</ele>
        <time>2016-07-25T15:01:53Z</time>
      </trkpt>
      <trkpt lat="41.430717" lon="-3.310683">
        <ele>2409.0</ele>
        <time>2016-07-25T15:01:55Z</time>
      </trkpt>
      <trkpt lat="41.430883" lon="-3.310617">
        <ele>2413.0</ele>
        <time>2016-07-25T15:01:57Z</time>
      </trkpt>
      <trkpt lat="41.431067" lon="-3.310467">
        <ele>2414.0</ele>
        <time>2016-07-25T15:01:59Z</time>
      </trkpt>
      <trkpt lat="41.431233" lon="-3.310217">
        <ele>2415.0</ele>
        <time>2016-07-25T15:02:01Z</time>
      </trkpt>
      <trkpt lat="41.431333" lon="-3.309917">
        <ele>2418.0</ele>
        <time>2016-07-25T15:02:03Z</time>
      </trkpt>
      <trkpt lat="41.431350" lon="-3.309567">
        <ele>2419.0</ele>
        <time>2016-07-25T15:02:05Z</time>
      </trkpt>
      <trkpt lat="41.431267" lon="-3.309200">
        <ele>2423.0</ele>
        <time>2016-07-25T15:02:07Z</time>
      </trkpt>
      <trkpt lat="41.431167" lon="-3.308933">
        <ele>2431.0</ele>
        <time>2016-07-25T15:02:09Z</time>
      </trkpt>
      <trkpt lat="41.431033" lon="-3.308717">
        <ele>2435.0</ele>
        <time>2016-07-25T15:02:11Z</time>
      </trkpt>
      <trkpt lat="41.430850" lon="-3.308583">
        <ele>2439.0</ele>
        <time>2016-07-25T15:02:13Z</time>
      </trkpt>
      <trkpt lat="41.430667" lon="-3.308567">
        <ele>2443.0</ele>
        <time>2016-07-25T15:02:15Z</time>
      </trkpt>
      <trkpt lat="41.430533" lon="-3.308650">
        <ele>2447.0</ele>
        <time>2016-07-25T15:02:17Z</time>
      </trkpt>
      <trkpt lat="41.430467" lon="-3.308800">
        <ele>2450.0</ele>
        <time>2016-07-25T15:02:19Z</time>
      </trkpt>
      <trkpt lat="41.430483" lon="-3.308917">
        <ele>2455.0</ele>
        <time>2016-07-25T15:02:21Z</time>
      </trkpt>
      <trkpt lat="41.430567" lon="-3.309017">
        <ele>2459.0</ele>
        <time>2016-07-25T15:02:23Z</time>
      </trkpt>
      <trkpt lat="41.430700" lon="-3.309067">
        <ele>2464.0</ele>
        <time>2016-07-25T15:02:25Z</time>
      </trkpt>
      <trkpt lat="41.430867" lon="-3.309017">
        <ele>2469.0</ele>
        <time>2016-07-25T15:02:27Z</time>
      </trkpt>
      <trkpt lat="41.431050" lon="-3.308850">
        <ele>2472.0</ele>
        <time>2016-07-25T15:02:29Z</time>
      </trkpt>
      <trkpt lat="41.431183" lon="-3.308567">
        <ele>2473.0</ele>
        <time>2016-07-25T15:02:31Z</time>
      </trkpt>
      <trkpt lat="41.431233" lon="-3.308217">
        <ele>2476.0</ele>
        <time>2016-07-25T15:02:33Z</time>
      </trkpt>
      <trkpt lat="41.431183" lon="-3.307900">
        <ele>2481.0</ele>
        <time>2016-07-25T15:02:35Z</time>
      </trkpt>
      <trkpt lat="41.431067" lon="-3.307633">
        <ele>2484.0</ele>
        <time>2016-07-25T15:02:37Z</time>
      </trkpt>
      <trkpt lat="41.430883" lon="-3.307467">
        <ele>2488.0</ele>
        <time>2016-07-25T15:02:39Z</time>
      </trkpt>
      <trkpt lat="41.430700" lon="-3.307417">
        <ele>2492.0</ele>
        <time>2016-07-25T15:02:41Z</time>
      </trkpt>
      <trkpt lat="41.430567" lon="-3.307450">
        <ele>2497.0</ele>
        <time>2016-07-25T15:02:43Z</time>
      </trkpt>
      <trkpt lat="41.430467" lon="-3.307533">
        <ele>2501.0</ele>
        <time>2016-07-25T15:02:45Z</time>
      </trkpt>
      <trkpt lat="41.430467" lon="-3.307667">
        <ele>2505.0</ele>
        <time>2016-07-25T15:02:47Z</time>
      </trkpt>
      <trkpt lat="41.430533" lon="-3.307767">
        <ele>2512.0</ele>
        <time>2016-07-25T15:02:49Z</time>
      </trkpt>
      <trkpt lat="41.430683" lon="-3.307783">
        <ele>2516.0</ele>
        <time>2016-07-25T15:02:51Z</time>
      </trkpt>
      <trkpt lat="41.430850" lon="-3.307733">
        <ele>2518.0</ele>
        <time>2016-07-25T15:02:53Z</time>
      </trkpt>
      <trkpt lat="41.431017" lon="-3.307617">
        <ele>2520.0</ele>
        <time>2016-07-25T15:02:55Z</time>
      </trkpt>
      <trkpt lat="41.431200" lon="-3.307400">
        <ele>2521.0</ele>
        <time>2016-07-25T15:02:57Z</time>
      </trkpt>
      <trkpt lat="41.431317" lon="-3.307100">
        <ele>2523.0</ele>
        <time>2016-07-25T15:02:59Z</time>
      </trkpt>
      <trkpt lat="41.431350" lon="-3.306750">
        <ele>2526.0</ele>
        <time>2016-07-25T15:03:01Z</time>
      </trkpt>
      <trkpt lat="41.431283" lon="-3.306400">
        <ele>2529.0</ele>
        <time>2016-07-25T15:03:03Z</time>
      </trkpt>
      <trkpt lat="41.431167" lon="-3.306133">
        <ele>2533.0</ele>
        <time>2016-07-25T15:03:05Z</time>
      </trkpt>
      <trkpt lat="41.431000" lon="-3.305950">
        <ele>2536.0</ele>
        <time>2016-07-25T15:03:07Z</time>
      </trkpt>
      <trkpt lat="41.430817" lon="-3.305850">
        <ele>2540.0</ele>
        <time>2016-07-25T15:03:09Z</time>
      </trkpt>
      <trkpt lat="41.430667" lon="-3.305850">
        <ele>2544.0</ele>
        <time>2016-07-25T15:03:11Z</time>
      </trkpt>
      <trkpt lat="41.430567" lon="-3.305917">
        <ele>2547.0</ele>
        <time>2016-07-25T15:03:13Z</time>
      </trkpt>
      <trkpt lat="41.430550" lon="-3.306033">
        <ele>2552.0</ele>
        <time>2016-07-25T15:03:15Z</time>
      </trkpt>
      <trkpt lat="41.430583" lon="-3.306150">
        <ele>2558.0</ele>
        <time>2016-07-25T15:03:17Z</time>
      </trkpt>
      <trkpt lat="41.430683" lon="-3.306183">
        <ele>2563.0</ele>
        <time>2016-07-25T15:03:19Z</time>
      </trkpt>
      <trkpt lat="41.430833" lon="-3.306217">
        <ele>2565.0</ele>
        <time>2016-07-25T15:03:21Z</time>
      </trkpt>
      <trkpt lat="41.431017" lon="-3.306150">
        <ele>2568.0</ele>
        <time>2016-07-25T15:03:23Z</time>
      </trkpt>
      <trkpt lat="41.431200" lon="-3.305967">
        <ele>2571.0</ele>
        <time>2016-07-25T15:03:25Z</time>
      </trkpt>
      <trkpt lat="41.431350" lon="-3.305667">
        <ele>2573.0</ele>
        <time>2016-07-25T15:03:27Z</time>
      </trkpt>
      <trkpt lat="41.431417" lon="-3.305333">
        <ele>2576.0</ele>
        <time>2016-07-25T15:03:29Z</time>
      </trkpt>
      <trkpt lat="41.431400" lon="-3.305000">
        <ele>2579.0</ele>
        <time>2016-07-25T15:03:31Z</time>
      </trkpt>
      <trkpt lat="41.431317" lon="-3.304683">
        <ele>2582.0</ele>
        <time>2016-07-25T15:03:33Z</time>
      </trkpt>
      <trkpt lat="41.431183" lon="-3.304433">
        <ele>2586.0</ele>
        <time>2016-07-25T15:03:35Z</time>
      </trkpt>
      <trkpt lat="41.431033" lon="-3.304317">
        <ele>2590.0</ele>
        <time>2016-07-25T15:03:37Z</time>
      </trkpt>
      <trkpt lat="41.430883" lon="-3.304300">
        <ele>2594.0</ele>
        <time>2016-07-25T15:03:39Z</time>
      </trkpt>
      <trkpt lat="41.430800" lon="-3.304350">
        <ele>2598.0</ele>
        <time>2016-07-25T15:03:41Z</time>
      </trkpt>
      <trkpt lat="41.430783" lon="-3.304467">
        <ele>2599.0</ele>
        <time>2016-07-25T15:03:43Z</time>
      </trkpt>
      <trkpt lat="41.430867" lon="-3.304583">
        <ele>2603.0</ele>
        <time>2016-07-25T15:03:45Z</time>
      </trkpt>
      <trkpt lat="41.431017" lon="-3.304617">
        <ele>2607.0</ele>
        <time>2016-07-25T15:03:47Z</time>
      </trkpt>
      <trkpt lat="41.431183" lon="-3.304600">
        <ele>2611.0</ele>
        <time>2016-07-25T15:03:49Z</time>
      </trkpt>
      <trkpt lat="41.431383" lon="-3.304483">
        <ele>2614.0</ele>
        <time>2016-07-25T15:03:51Z</time>
      </trkpt>
      <trkpt lat="41.431550" lon="-3.304250">
        <ele>2617.0</ele>
        <time>2016-07-25T15:03:53Z</time>
      </trkpt>
      <trkpt lat="41.431667" lon="-3.303950">
        <ele>2620.0</ele>
        <time>2016-07-25T15:03:55Z</time>
      </trkpt>
      <trkpt lat="41.431733" lon="-3.303600">
        <ele>2623.0</ele>
        <time>2016-07-25T15:03:57Z</time>
      </trkpt>
      <trkpt lat="41.431733" lon="-3.303233">
        <ele>2627.0</ele>
        <time>2016-07-25T15:03:59Z</time>
      </trkpt>
      <trkpt lat="41.431633" lon="-3.302917">
        <ele>2632.0</ele>
        <time>2016-07-25T15:04:01Z</time>
      </trkpt>
      <trkpt lat="41.431450" lon="-3.302733">
        <ele>2639.0</ele>
        <time>2016-07-25T15:04:03Z</time>
      </trkpt>
      <trkpt lat="41.431283" lon="-3.302667">
        <ele>2646.0</ele>
        <time>2016-07-25T15:04:05Z</time>
      </trkpt>
      <trkpt lat="41.431150" lon="-3.302633">
        <ele>2650.0</ele>
        <time>2016-07-25T15:04:07Z</time>
      </trkpt>
      <trkpt lat="41.431050" lon="-3.302717">
        <ele>2652.0</ele>
        <time>2016-07-25T15:04:09Z</time>
      </trkpt>
      <trkpt lat="41.431033" lon="-3.302850">
        <ele>2656.0</ele>
        <time>2016-07-25T15:04:11Z</time>
      </trkpt>
      <trkpt lat="41.431133" lon="-3.302933">
        <ele>2660.0</ele>
        <time>2016-07-25T15:04:13Z</time>
      </trkpt>
      <trkpt lat="41.431250" lon="-3.302983">
        <ele>2663.0</ele>
        <time>2016-07-25T15:04:15Z</time>
      </trkpt>
      <trkpt lat="41.431400" lon="-3.303083">
        <ele>2666.0</ele>
        <time>2016-07-25T15:04:17Z</time>
      </trkpt>
      <trkpt lat="41.431550" lon="-3.303150">
        <ele>2672.0</ele>
        <time>2016-07-25T15:04:19Z</time>
      </trkpt>
      <trkpt lat="41.431683" lon="-3.303200">
        <ele>2677.0</ele>
        <time>2016-07-25T15:04:21Z</time>
      </trkpt>
      <trkpt lat="41.431850" lon="-3.303267">
        <ele>2679.0</ele>
        <time>2016-07-25T15:04:23Z</time>
      </trkpt>
      <trkpt lat="41.432000" lon="-3.303283">
        <ele>2684.0</ele>
        <time>2016-07-25T15:04:25Z</time>
      </trkpt>
      <trkpt lat="41.432167" lon="-3.303133">
        <ele>2687.0</ele>
        <time>2016-07-25T15:04:27Z</time>
      </trkpt>
      <trkpt lat="41.432300" lon="-3.302867">
        <ele>2691.0</ele>
        <time>2016-07-25T15:04:29Z</time>
      </trkpt>
      <trkpt lat="41.432350" lon="-3.302567">
        <ele>2696.0</ele>
        <time>2016-07-25T15:04:31Z</time>
      </trkpt>
      <trkpt lat="41.432300" lon="-3.302233">
        <ele>2699.0</ele>
        <time>2016-07-25T15:04:33Z</time>
      </trkpt>
      <trkpt lat="41.432183" lon="-3.301950">
        <ele>2705.0</ele>
        <time>2016-07-25T15:04:35Z</time>
      </trkpt>
      <trkpt lat="41.432033" lon="-3.301783">
        <ele>2709.0</ele>
        <time>2016-07-25T15:04:37Z</time>
      </trkpt>
      <trkpt lat="41.431850" lon="-3.301683">
        <ele>2710.0</ele>
        <time>2016-07-25T15:04:39Z</time>
      </trkpt>
      <trkpt lat="41.431667" lon="-3.301717">
        <ele>2714.0</ele>
        <time>2016-07-25T15:04:41Z</time>
      </trkpt>
      <trkpt lat="41.431583" lon="-3.301833">
        <ele>2719.0</ele>
        <time>2016-07-25T15:04:43Z</time>
      </trkpt>
      <trkpt lat="41.431617" lon="-3.301950">
        <ele>2722.0</ele>
        <time>2016-07-25T15:04:45Z</time>
      </trkpt>
      <trkpt lat="41.431717" lon="-3.302050">
        <ele>2724.0</ele>
        <time>2016-07-25T15:04:47Z</time>
      </trkpt>
      <trkpt lat="41.431833" lon="-3.302183">
        <ele>2727.0</ele>
        <time>2016-07-25T15:04:49Z</time>
      </trkpt>
      <trkpt lat="41.431950" lon="-3.302333">
        <ele>2732.0</ele>
        <time>2016-07-25T15:04:51Z</time>
      </trkpt>
      <trkpt lat="41.432100" lon="-3.302417">
        <ele>2738.0</ele>
        <time>2016-07-25T15:04:53Z</time>
      </trkpt>
      <trkpt lat="41.432250" lon="-3.302483">
        <ele>2742.0</ele>
        <time>2016-07-25T15:04:55Z</time>
      </trkpt>
      <trkpt lat="41.432417" lon="-3.302583">
        <ele>2746.0</ele>
        <time>2016-07-25T15:04:57Z</time>
      </trkpt>
      <trkpt lat="41.432617" lon="-3.302650">
        <ele>2752.0</ele>
        <time>2016-07-25T15:04:59Z</time>
      </trkpt>
      <trkpt lat="41.432800" lon="-3.302717">
        <ele>2758.0</ele>
        <time>2016-07-25T15:05:01Z</time>
      </trkpt>
      <trkpt lat="41.432983" lon="-3.302783">
        <ele>2763.0</ele>
        <time>2016-07-25T15:05:03Z</time>
      </trkpt>
      <trkpt lat="41.433183" lon="-3.302833">
        <ele>2768.0</ele>
        <time>2016-07-25T15:05:05Z</time>
      </trkpt>
      <trkpt lat="41.433383" lon="-3.302900">
        <ele>2772.0</ele>
        <time>2016-07-25T15:05:07Z</time>
      </trkpt>
      <trkpt lat="41.433600" lon="-3.302967">
        <ele>2775.0</ele>
        <time>2016-07-25T15:05:09Z</time>
      </trkpt>
      <trkpt lat="41.433817" lon="-3.303000">
        <ele>2778.0</ele>
        <time>2016-07-25T15:05:11Z</time>
      </trkpt>
      <trkpt lat="41.434050" lon="-3.303017">
        <ele>2779.0</ele>
        <time>2016-07-25T15:05:13Z</time>
      </trkpt>
      <trkpt lat="41.434283" lon="-3.303067">
        <ele>2778.0</ele>
        <time>2016-07-25T15:05:15Z</time>
      </trkpt>
      <trkpt lat="41.434533" lon="-3.303117">
        <ele>2778.0</ele>
        <time>2016-07-25T15:05:17Z</time>
      </trkpt>
      <trkpt lat="41.434750" lon="-3.303183">
        <ele>2779.0</ele>
        <time>2016-07-25T15:05:19Z</time>
      </trkpt>
      <trkpt lat="41.434967" lon="-3.303267">
        <ele>2779.0</ele>
        <time>2016-07-25T15:05:21Z</time>
      </trkpt>
      <trkpt lat="41.435150" lon="-3.303350">
        <ele>2778.0</ele>
        <time>2016-07-25T15:05:23Z</time>
      </trkpt>
      <trkpt lat="41.435350" lon="-3.303417">
        <ele>2776.0</ele>
        <time>2016-07-25T15:05:25Z</time>
      </trkpt>
      <trkpt lat="41.435550" lon="-3.303500">
        <ele>2776.0</ele>
        <time>2016-07-25T15:05:27Z</time>
      </trkpt>
      <trkpt lat="41.435717" lon="-3.303550">
        <ele>2777.0</ele>
        <time>2016-07-25T15:05:29Z</time>
      </trkpt>
      <trkpt lat="41.435900" lon="-3.303600">
        <ele>2772.0</ele>
        <time>2016-07-25T15:05:31Z</time>
      </trkpt>
      <trkpt lat="41.436117" lon="-3.303683">
        <ele>2767.0</ele>
        <time>2016-07-25T15:05:33Z</time>
      </trkpt>
      <trkpt lat="41.436300" lon="-3.303700">
        <ele>2769.0</ele>
        <time>2016-07-25T15:05:35Z</time>
      </trkpt>
      <trkpt lat="41.436417" lon="-3.303733">
        <ele>2764.0</ele>
        <time>2016-07-25T15:05:37Z</time>
      </trkpt>
      <trkpt lat="41.436600" lon="-3.303817">
        <ele>2756.0</ele>
        <time>2016-07-25T15:05:39Z</time>
      </trkpt>
      <trkpt lat="41.436800" lon="-3.303917">
        <ele>2754.0</ele>
        <time>2016-07-25T15:05:41Z</time>
      </trkpt>
      <trkpt lat="41.436967" lon="-3.303967">
        <ele>2753.0</ele>
        <time>2016-07-25T15:05:43Z</time>
      </trkpt>
      <trkpt lat="41.437133" lon="-3.304000">
        <ele>2751.0</ele>
        <time>2016-07-25T15:05:45Z</time>
      </trkpt>
      <trkpt lat="41.437317" lon="-3.304067">
        <ele>2750.0</ele>
        <time>2016-07-25T15:05:47Z</time>
      </trkpt>
      <trkpt lat="41.437500" lon="-3.304083">
        <ele>2751.0</ele>
        <time>2016-07-25T15:05:49Z</time>
      </trkpt>
      <trkpt lat="41.437667" lon="-3.304100">
        <ele>2751.0</ele>
        <time>2016-07-25T15:05:51Z</time>
      </trkpt>
      <trkpt lat="41.437817" lon="-3.304150">
        <ele>2750.0</ele>
        <time>2016-07-25T15:05:53Z</time>
      </trkpt>
      <trkpt lat="41.437983" lon="-3.304200">
        <ele>2751.0</ele>
        <time>2016-07-25T15:05:55Z</time>
      </trkpt>
      <trkpt lat="41.438100" lon="-3.304217">
        <ele>2751.0</ele>
        <time>2016-07-25T15:05:57Z</time>
      </trkpt>
      <trkpt lat="41.438233" lon="-3.304233">
        <ele>2747.0</ele>
        <time>2016-07-25T15:05:59Z</time>
      </trkpt>
      <trkpt lat="41.438383" lon="-3.304267">
        <ele>2744.0</ele>
        <time>2016-07-25T15:06:01Z</time>
      </trkpt>
      <trkpt lat="41.438500" lon="-3.304267">
        <ele>2740.0</ele>
        <time>2016-07-25T15:06:03Z</time>
      </trkpt>
      <trkpt lat="41.438617" lon="-3.304283">
        <ele>2736.0</ele>
        <time>2016-07-25T15:06:05Z</time>
      </trkpt>
      <trkpt lat="41.438717" lon="-3.304267">
        <ele>2732.0</ele>
        <time>2016-07-25T15:06:07Z</time>
      </trkpt>
      <trkpt lat="41.438833" lon="-3.304233">
        <ele>2726.0</ele>
        <time>2016-07-25T15:06:09Z</time>
      </trkpt>
      <trkpt lat="41.438967" lon="-3.304217">
        <ele>2720.0</ele>
        <time>2016-07-25T15:06:11Z</time>
      </trkpt>
      <trkpt lat="41.439083" lon="-3.304167">
        <ele>2715.0</ele>
        <time>2016-07-25T15:06:13Z</time>
      </trkpt>
      <trkpt lat="41.439200" lon="-3.304133">
        <ele>2708.0</ele>
        <time>2016-07-25T15:06:15Z</time>
      </trkpt>
      <trkpt lat="41.439350" lon="-3.304100">
        <ele>2701.0</ele>
        <time>2016-07-25T15:06:17Z</time>
      </trkpt>
      <trkpt lat="41.439483" lon="-3.304050">
        <ele>2697.0</ele>
        <time>2016-07-25T15:06:19Z</time>
      </trkpt>
      <trkpt lat="41.439600" lon="-3.304017">
        <ele>2692.0</ele>
        <time>2016-07-25T15:06:21Z</time>
      </trkpt>
      <trkpt lat="41.439717" lon="-3.303983">
        <ele>2686.0</ele>
        <time>2016-07-25T15:06:23Z</time>
      </trkpt>
      <trkpt lat="41.439850" lon="-3.303933">
        <ele>2680.0</ele>
        <time>2016-07-25T15:06:25Z</time>
      </trkpt>
      <trkpt lat="41.439967" lon="-3.303883">
        <ele>2675.0</ele>
        <time>2016-07-25T15:06:27Z</time>
      </trkpt>
      <trkpt lat="41.440083" lon="-3.303817">
        <ele>2668.0</ele>
        <time>2016-07-25T15:06:29Z</time>
      </trkpt>
      <trkpt lat="41.440200" lon="-3.303750">
        <ele>2662.0</ele>
        <time>2016-07-25T15:06:31Z</time>
      </trkpt>
      <trkpt lat="41.440333" lon="-3.303683">
        <ele>2657.0</ele>
        <time>2016-07-25T15:06:33Z</time>
      </trkpt>
      <trkpt lat="41.440450" lon="-3.303600">
        <ele>2652.0</ele>
        <time>2016-07-25T15:06:35Z</time>
      </trkpt>
      <trkpt lat="41.440550" lon="-3.303517">
        <ele>2646.0</ele>
        <time>2016-07-25T15:06:37Z</time>
      </trkpt>
      <trkpt lat="41.440650" lon="-3.303450">
        <ele>2640.0</ele>
        <time>2016-07-25T15:06:39Z</time>
      </trkpt>
      <trkpt lat="41.440767" lon="-3.303383">
        <ele>2634.0</ele>
        <time>2016-07-25T15:06:41Z</time>
      </trkpt>
      <trkpt lat="41.440867" lon="-3.303350">
        <ele>2626.0</ele>
        <time>2016-07-25T15:06:43Z</time>
      </trkpt>
      <trkpt lat="41.440983" lon="-3.303300">
        <ele>2620.0</ele>
        <time>2016-07-25T15:06:45Z</time>
      </trkpt>
      <trkpt lat="41.441100" lon="-3.303250">
        <ele>2614.0</ele>
        <time>2016-07-25T15:06:47Z</time>
      </trkpt>
      <trkpt lat="41.441200" lon="-3.303217">
        <ele>2608.0</ele>
        <time>2016-07-25T15:06:49Z</time>
      </trkpt>
      <trkpt lat="41.441300" lon="-3.303200">
        <ele>2603.0</ele>
        <time>2016-07-25T15:06:51Z</time>
      </trkpt>
      <trkpt lat="41.441400" lon="-3.303150">
        <ele>2598.0</ele>
        <time>2016-07-25T15:06:53Z</time>
      </trkpt>
      <trkpt lat="41.441483" lon="-3.303100">
        <ele>2593.0</ele>
        <time>2016-07-25T15:06:55Z</time>
      </trkpt>
      <trkpt lat="41.441583" lon="-3.303067">
        <ele>2587.0</ele>
        <time>2016-07-25T15:06:57Z</time>
      </trkpt>
      <trkpt lat="41.441683" lon="-3.303050">
        <ele>2582.0</ele>
        <time>2016-07-25T15:06:59Z</time>
      </trkpt>
      <trkpt lat="41.441783" lon="-3.303050">
        <ele>2576.0</ele>
        <time>2016-07-25T15:07:01Z</time>
      </trkpt>
      <trkpt lat="41.441900" lon="-3.303033">
        <ele>2570.0</ele>
        <time>2016-07-25T15:07:03Z</time>
      </trkpt>
      <trkpt lat="41.442017" lon="-3.303017">
        <ele>2566.0</ele>
        <time>2016-07-25T15:07:05Z</time>
      </trkpt>
      <trkpt lat="41.442100" lon="-3.303017">
        <ele>2561.0</ele>
        <time>2016-07-25T15:07:07Z</time>
      </trkpt>
      <trkpt lat="41.442217" lon="-3.303000">
        <ele>2554.0</ele>
        <time>2016-07-25T15:07:09Z</time>
      </trkpt>
      <trkpt lat="41.442333" lon="-3.303000">
        <ele>2548.0</ele>
        <time>2016-07-25T15:07:11Z</time>
      </trkpt>
      <trkpt lat="41.442467" lon="-3.302967">
        <ele>2544.0</ele>
        <time>2016-07-25T15:07:13Z</time>
      </trkpt>
      <trkpt lat="41.442567" lon="-3.302933">
        <ele>2539.0</ele>
        <time>2016-07-25T15:07:15Z</time>
      </trkpt>
      <trkpt lat="41.442667" lon="-3.302900">
        <ele>2531.0</ele>
        <time>2016-07-25T15:07:17Z</time>
      </trkpt>
      <trkpt lat="41.442800" lon="-3.302900">
        <ele>2523.0</ele>
        <time>2016-07-25T15:07:19Z</time>
      </trkpt>
      <trkpt lat="41.442917" lon="-3.302900">
        <ele>2517.0</ele>
        <time>2016-07-25T15:07:21Z</time>
      </trkpt>
      <trkpt lat="41.443050" lon="-3.302900">
        <ele>2509.0</ele>
        <time>2016-07-25T15:07:23Z</time>
      </trkpt>
      <trkpt lat="41.443183" lon="-3.302933">
        <ele>2501.0</ele>
        <time>2016-07-25T15:07:25Z</time>
      </trkpt>
      <trkpt lat="41.443300" lon="-3.303000">
        <ele>2494.0</ele>
        <time>2016-07-25T15:07:27Z</time>
      </trkpt>
      <trkpt lat="41.443417" lon="-3.303050">
        <ele>2487.0</ele>
        <time>2016-07-25T15:07:29Z</time>
      </trkpt>
      <trkpt lat="41.443550" lon="-3.303100">
        <ele>2480.0</ele>
        <time>2016-07-25T15:07:31Z</time>
      </trkpt>
      <trkpt lat="41.443667" lon="-3.303133">
        <ele>2476.0</ele>
        <time>2016-07-25T15:07:33Z</time>
      </trkpt>
      <trkpt lat="41.443783" lon="-3.303150">
        <ele>2470.0</ele>
        <time>2016-07-25T15:07:35Z</time>
      </trkpt>
      <trkpt lat="41.443933" lon="-3.303167">
        <ele>2464.0</ele>
        <time>2016-07-25T15:07:37Z</time>
      </trkpt>
      <trkpt lat="41.444067" lon="-3.303200">
        <ele>2460.0</ele>
        <time>2016-07-25T15:07:39Z</time>
      </trkpt>
      <trkpt lat="41.444200" lon="-3.303217">
        <ele>2456.0</ele>
        <time>2016-07-25T15:07:41Z</time>
      </trkpt>
      <trkpt lat="41.444350" lon="-3.303250">
        <ele>2451.0</ele>
        <time>2016-07-25T15:07:43Z</time>
      </trkpt>
      <trkpt lat="41.444500" lon="-3.303283">
        <ele>2447.0</ele>
        <time>2016-07-25T15:07:45Z</time>
      </trkpt>
      <trkpt lat="41.444650" lon="-3.303300">
        <ele>2442.0</ele>
        <time>2016-07-25T15:07:47Z</time>
      </trkpt>
      <trkpt lat="41.444783" lon="-3.303317">
        <ele>2435.0</ele>
        <time>2016-07-25T15:07:49Z</time>
      </trkpt>
      <trkpt lat="41.444950" lon="-3.303317">
        <ele>2428.0</ele>
        <time>2016-07-25T15:07:51Z</time>
      </trkpt>
      <trkpt lat="41.445100" lon="-3.303317">
        <ele>2423.0</ele>
        <time>2016-07-25T15:07:53Z</time>
      </trkpt>
      <trkpt lat="41.445233" lon="-3.303333">
        <ele>2418.0</ele>
        <time>2016-07-25T15:07:55Z</time>
      </trkpt>
      <trkpt lat="41.445383" lon="-3.303350">
        <ele>2411.0</ele>
        <time>2016-07-25T15:07:57Z</time>
      </trkpt>
      <trkpt lat="41.445533" lon="-3.303350">
        <ele>2407.0</ele>
        <time>2016-07-25T15:07:59Z</time>
      </trkpt>
      <trkpt lat="41.445650" lon="-3.303367">
        <ele>2402.0</ele>
        <time>2016-07-25T15:08:01Z</time>
      </trkpt>
      <trkpt lat="41.445800" lon="-3.303367">
        <ele>2393.0</ele>
        <time>2016-07-25T15:08:03Z</time>
      </trkpt>
      <trkpt lat="41.445950" lon="-3.303367">
        <ele>2387.0</ele>
        <time>2016-07-25T15:08:05Z</time>
      </trkpt>
      <trkpt lat="41.446083" lon="-3.303350">
        <ele>2383.0</ele>
        <time>2016-07-25T15:08:07Z</time>
      </trkpt>
      <trkpt lat="41.446217" lon="-3.303350">
        <ele>2376.0</ele>
        <time>2016-07-25T15:08:09Z</time>
      </trkpt>
      <trkpt lat="41.446367" lon="-3.303350">
        <ele>2367.0</ele>
        <time>2016-07-25T15:08:11Z</time>
      </trkpt>
      <trkpt lat="41.446517" lon="-3.303350">
        <ele>2361.0</ele>
        <time>2016-07-25T15:08:13Z</time>
      </trkpt>
      <trkpt lat="41.446667" lon="-3.303383">
        <ele>2354.0</ele>
        <time>2016-07-25T15:08:15Z</time>
      </trkpt>
      <trkpt lat="41.446833" lon="-3.303400">
        <ele>2347.0</ele>
        <time>2016-07-25T15:08:17Z</time>
      </trkpt>
      <trkpt lat="41.447000" lon="-3.303400">
        <ele>2343.0</ele>
        <time>2016-07-25T15:08:19Z</time>
      </trkpt>
      <trkpt lat="41.447150" lon="-3.303400">
        <ele>2337.0</ele>
        <time>2016-07-25T15:08:21Z</time>
      </trkpt>
      <trkpt lat="41.447317" lon="-3.303383">
        <ele>2331.0</ele>
        <time>2016-07-25T15:08:23Z</time>
      </trkpt>
      <trkpt lat="41.447483" lon="-3.303367">
        <ele>2328.0</ele>
        <time>2016-07-25T15:08:25Z</time>
      </trkpt>
      <trkpt lat="41.447617" lon="-3.303333">
        <ele>2325.0</ele>
        <time>2016-07-25T15:08:27Z</time>
      </trkpt>
      <trkpt lat="41.447767" lon="-3.303317">
        <ele>2318.0</ele>
        <time>2016-07-25T15:08:29Z</time>
      </trkpt>
      <trkpt lat="41.447933" lon="-3.303283">
        <ele>2312.0</ele>
        <time>2016-07-25T15:08:31Z</time>
      </trkpt>
      <trkpt lat="41.448100" lon="-3.303250">
        <ele>2306.0</ele>
        <time>2016-07-25T15:08:33Z</time>
      </trkpt>
      <trkpt lat="41.448250" lon="-3.303200">
        <ele>2301.0</ele>
        <time>2016-07-25T15:08:35Z</time>
      </trkpt>
      <trkpt lat="41.448400" lon="-3.303117">
        <ele>2294.0</ele>
        <time>2016-07-25T15:08:37Z</time>
      </trkpt>
      <trkpt lat="41.448567" lon="-3.303100">
        <ele>2286.0</ele>
        <time>2016-07-25T15:08:39Z</time>
      </trkpt>
      <trkpt lat="41.448717" lon="-3.303133">
        <ele>2280.0</ele>
        <time>2016-07-25T15:08:41Z</time>
      </trkpt>
      <trkpt lat="41.448867" lon="-3.303183">
        <ele>2274.0</ele>
        <time>2016-07-25T15:08:43Z</time>
      </trkpt>
      <trkpt lat="41.449017" lon="-3.303267">
        <ele>2267.0</ele>
        <time>2016-07-25T15:08:45Z</time>
      </trkpt>
      <trkpt lat="41.449167" lon="-3.303350">
        <ele>2260.0</ele>
        <time>2016-07-25T15:08:47Z</time>
      </trkpt>
      <trkpt lat="41.449317" lon="-3.303433">
        <ele>2254.0</ele>
        <time>2016-07-25T15:08:49Z</time>
      </trkpt>
      <trkpt lat="41.449450" lon="-3.303533">
        <ele>2247.0</ele>
        <time>2016-07-25T15:08:51Z</time>
      </trkpt>
      <trkpt lat="41.449583" lon="-3.303633">
        <ele>2239.0</ele>
        <time>2016-07-25T15:08:53Z</time>
      </trkpt>
      <trkpt lat="41.449750" lon="-3.303750">
        <ele>2231.0</ele>
        <time>2016-07-25T15:08:55Z</time>
      </trkpt>
      <trkpt lat="41.449917" lon="-3.303850">
        <ele>2228.0</ele>
        <time>2016-07-25T15:08:57Z</time>
      </trkpt>
      <trkpt lat="41.450033" lon="-3.303917">
        <ele>2228.0</ele>
        <time>2016-07-25T15:08:59Z</time>
      </trkpt>
      <trkpt lat="41.450133" lon="-3.304000">
        <ele>2222.0</ele>
        <time>2016-07-25T15:09:01Z</time>
      </trkpt>
      <trkpt lat="41.450267" lon="-3.304083">
        <ele>2216.0</ele>
        <time>2016-07-25T15:09:03Z</time>
      </trkpt>
      <trkpt lat="41.450400" lon="-3.304183">
        <ele>2214.0</ele>
        <time>2016-07-25T15:09:05Z</time>
      </trkpt>
      <trkpt lat="41.450483" lon="-3.304267">
        <ele>2209.0</ele>
        <time>2016-07-25T15:09:07Z</time>
      </trkpt>
      <trkpt lat="41.450600" lon="-3.304350">
        <ele>2201.0</ele>
        <time>2016-07-25T15:09:09Z</time>
      </trkpt>
      <trkpt lat="41.450717" lon="-3.304483">
        <ele>2196.0</ele>
        <time>2016-07-25T15:09:11Z</time>
      </trkpt>
      <trkpt lat="41.450817" lon="-3.304583">
        <ele>2191.0</ele>
        <time>2016-07-25T15:09:13Z</time>
      </trkpt>
      <trkpt lat="41.450917" lon="-3.304683">
        <ele>2184.0</ele>
        <time>2016-07-25T15:09:15Z</time>
      </trkpt>
      <trkpt lat="41.451050" lon="-3.304767">
        <ele>2178.0</ele>
        <time>2016-07-25T15:09:17Z</time>
      </trkpt>
      <trkpt lat="41.451167" lon="-3.304850">
        <ele>2172.0</ele>
        <time>2016-07-25T15:09:19Z</time>
      </trkpt>
      <trkpt lat="41.451283" lon="-3.304933">
        <ele>2166.0</ele>
        <time>2016-07-25T15:09:21Z</time>
      </trkpt>
      <trkpt lat="41.451417" lon="-3.305000">
        <ele>2159.0</ele>
        <time>2016-07-25T15:09:23Z</time>
      </trkpt>
      <trkpt lat="41.451583" lon="-3.305083">
        <ele>2152.0</ele>
        <time>2016-07-25T15:09:25Z</time>
      </trkpt>
      <trkpt lat="41.451733" lon="-3.305167">
        <ele>2147.0</ele>
        <time>2016-07-25T15:09:27Z</time>
      </trkpt>
      <trkpt lat="41.451850" lon="-3.305217">
        <ele>2141.0</ele>
        <time>2016-07-25T15:09:29Z</time>
      </trkpt>
      <trkpt lat="41.451967" lon="-3.305267">
        <ele>2135.0</ele>
        <time>2016-07-25T15:09:31Z</time>
      </trkpt>
      <trkpt lat="41.452100" lon="-3.305317">
        <ele>2129.0</ele>
        <time>2016-07-25T15:09:33Z</time>
      </trkpt>
      <trkpt lat="41.452217" lon="-3.305333">
        <ele>2123.0</ele>
        <time>2016-07-25T15:09:35Z</time>
      </trkpt>
      <trkpt lat="41.452350" lon="-3.305383">
        <ele>2117.0</ele>
        <time>2016-07-25T15:09:37Z</time>
      </trkpt>
      <trkpt lat="41.452483" lon="-3.305417">
        <ele>2113.0</ele>
        <time>2016-07-25T15:09:39Z</time>
      </trkpt>
      <trkpt lat="41.452600" lon="-3.305450">
        <ele>2109.0</ele>
        <time>2016-07-25T15:09:41Z</time>
      </trkpt>
      <trkpt lat="41.452717" lon="-3.305467">
        <ele>2102.0</ele>
        <time>2016-07-25T15:09:43Z</time>
      </trkpt>
      <trkpt lat="41.452867" lon="-3.305467">
        <ele>2096.0</ele>
        <time>2016-07-25T15:09:45Z</time>
      </trkpt>
      <trkpt lat="41.453000" lon="-3.305483">
        <ele>2092.0</ele>
        <time>2016-07-25T15:09:47Z</time>
      </trkpt>
      <trkpt lat="41.453117" lon="-3.305500">
        <ele>2086.0</ele>
        <time>2016-07-25T15:09:49Z</time>
      </trkpt>
      <trkpt lat="41.453250" lon="-3.305517">
        <ele>2081.0</ele>
        <time>2016-07-25T15:09:51Z</time>
      </trkpt>
      <trkpt lat="41.453383" lon="-3.305550">
        <ele>2079.0</ele>
        <time>2016-07-25T15:09:53Z</time>
      </trkpt>
      <trkpt lat="41.453517" lon="-3.305583">
        <ele>2077.0</ele>
        <time>2016-07-25T15:09:55Z</time>
      </trkpt>
      <trkpt lat="41.453650" lon="-3.305617">
        <ele>2075.0</ele>
        <time>2016-07-25T15:09:57Z</time>
      </trkpt>
      <trkpt lat="41.453783" lon="-3.305633">
        <ele>2072.0</ele>
        <time>2016-07-25T15:09:59Z</time>
      </trkpt>
      <trkpt lat="41.453917" lon="-3.305633">
        <ele>2070.0</ele>
        <time>2016-07-25T15:10:01Z</time>
      </trkpt>
      <trkpt lat="41.454050" lon="-3.305650">
        <ele>2067.0</ele>
        <time>2016-07-25T15:10:03Z</time>
      </trkpt>
      <trkpt lat="41.454167" lon="-3.305667">
        <ele>2064.0</ele>
        <time>2016-07-25T15:10:05Z</time>
      </trkpt>
      <trkpt lat="41.454283" lon="-3.305667">
        <ele>2060.0</ele>
        <time>2016-07-25T15:10:07Z</time>
      </trkpt>
      <trkpt lat="41.454400" lon="-3.305700">
        <ele>2055.0</ele>
        <time>2016-07-25T15:10:09Z</time>
      </trkpt>
      <trkpt lat="41.454533" lon="-3.305700">
        <ele>2049.0</ele>
        <time>2016-07-25T15:10:11Z</time>
      </trkpt>
      <trkpt lat="41.454650" lon="-3.305717">
        <ele>2046.0</ele>
        <time>2016-07-25T15:10:13Z</time>
      </trkpt>
      <trkpt lat="41.454767" lon="-3.305717">
        <ele>2042.0</ele>
        <time>2016-07-25T15:10:15Z</time>
      </trkpt>
      <trkpt lat="41.454883" lon="-3.305717">
        <ele>2038.0</ele>
        <time>2016-07-25T15:10:17Z</time>
      </trkpt>
      <trkpt lat="41.455000" lon="-3.305717">
        <ele>2033.0</ele>
        <time>2016-07-25T15:10:19Z</time>
      </trkpt>
      <trkpt lat="41.455117" lon="-3.305717">
        <ele>2028.0</ele>
        <time>2016-07-25T15:10:21Z</time>
      </trkpt>
      <trkpt lat="41.455217" lon="-3.305767">
        <ele>2023.0</ele>
        <time>2016-07-25T15:10:23Z</time>
      </trkpt>
      <trkpt lat="41.455333" lon="-3.305800">
        <ele>2019.0</ele>
        <time>2016-07-25T15:10:25Z</time>
      </trkpt>
      <trkpt lat="41.455450" lon="-3.305783">
        <ele>2018.0</ele>
        <time>2016-07-25T15:10:27Z</time>
      </trkpt>
      <trkpt lat="41.455550" lon="-3.305800">
        <ele>2017.0</ele>
        <time>2016-07-25T15:10:29Z</time>
      </trkpt>
      <trkpt lat="41.455633" lon="-3.305850">
        <ele>2018.0</ele>
        <time>2016-07-25T15:10:31Z</time>
      </trkpt>
      <trkpt lat="41.455733" lon="-3.305850">
        <ele>2017.0</ele>
        <time>2016-07-25T15:10:33Z</time>
      </trkpt>
      <trkpt lat="41.455833" lon="-3.305817">
        <ele>2017.0</ele>
        <time>2016-07-25T15:10:35Z</time>
      </trkpt>
      <trkpt lat="41.455933" lon="-3.305833">
        <ele>2016.0</ele>
        <time>2016-07-25T15:10:37Z</time>
      </trkpt>
      <trkpt lat="41.456067" lon="-3.305817">
        <ele>2016.0</ele>
        <time>2016-07-25T15:10:39Z</time>
      </trkpt>
      <trkpt lat="41.456167" lon="-3.305783">
        <ele>2017.0</ele>
        <time>2016-07-25T15:10:41Z</time>
      </trkpt>
      <trkpt lat="41.456300" lon="-3.305783">
        <ele>2015.0</ele>
        <time>2016-07-25T15:10:43Z</time>
      </trkpt>
      <trkpt lat="41.456450" lon="-3.305733">
        <ele>2016.0</ele>
        <time>2016-07-25T15:10:45Z</time>
      </trkpt>
      <trkpt lat="41.456583" lon="-3.305667">
        <ele>2020.0</ele>
        <time>2016-07-25T15:10:47Z</time>
      </trkpt>
      <trkpt lat="41.456700" lon="-3.305600">
        <ele>2021.0</ele>
        <time>2016-07-25T15:10:49Z</time>
      </trkpt>
      <trkpt lat="41.456800" lon="-3.305567">
        <ele>2018.0</ele>
        <time>2016-07-25T15:10:51Z</time>
      </trkpt>
      <trkpt lat="41.456917" lon="-3.305517">
        <ele>2014.0</ele>
        <time>2016-07-25T15:10:53Z</time>
      </trkpt>
      <trkpt lat="41.457033" lon="-3.305450">
        <ele>2010.0</ele>
        <time>2016-07-25T15:10:55Z</time>
      </trkpt>
      <trkpt lat="41.457167" lon="-3.305383">
        <ele>2005.0</ele>
        <time>2016-07-25T15:10:57Z</time>
      </trkpt>
      <trkpt lat="41.457317" lon="-3.305317">
        <ele>2002.0</ele>
        <time>2016-07-25T15:10:59Z</time>
      </trkpt>
      <trkpt lat="41.457433" lon="-3.305250">
        <ele>1999.0</ele>
        <time>2016-07-25T15:11:01Z</time>
      </trkpt>
      <trkpt lat="41.457583" lon="-3.305200">
        <ele>1995.0</ele>
        <time>2016-07-25T15:11:03Z</time>
      </trkpt>
      <trkpt lat="41.457700" lon="-3.305167">
        <ele>1994.0</ele>
        <time>2016-07-25T15:11:05Z</time>
      </trkpt>
      <trkpt lat="41.457800" lon="-3.305117">
        <ele>1988.0</ele>
        <time>2016-07-25T15:11:07Z</time>
      </trkpt>
      <trkpt lat="41.457933" lon="-3.305067">
        <ele>1980.0</ele>
        <time>2016-07-25T15:11:09Z</time>
      </trkpt>
      <trkpt lat="41.458083" lon="-3.305017">
        <ele>1975.0</ele>
        <time>2016-07-25T15:11:11Z</time>
      </trkpt>
      <trkpt lat="41.458200" lon="-3.304983">
        <ele>1974.0</ele>
        <time>2016-07-25T15:11:13Z</time>
      </trkpt>
      <trkpt lat="41.458300" lon="-3.304933">
        <ele>1972.0</ele>
        <time>2016-07-25T15:11:15Z</time>
      </trkpt>
      <trkpt lat="41.458417" lon="-3.304883">
        <ele>1968.0</ele>
        <time>2016-07-25T15:11:17Z</time>
      </trkpt>
      <trkpt lat="41.458583" lon="-3.304850">
        <ele>1966.0</ele>
        <time>2016-07-25T15:11:19Z</time>
      </trkpt>
      <trkpt lat="41.458700" lon="-3.304817">
        <ele>1967.0</ele>
        <time>2016-07-25T15:11:21Z</time>
      </trkpt>
      <trkpt lat="41.458817" lon="-3.304800">
        <ele>1965.0</ele>
        <time>2016-07-25T15:11:23Z</time>
      </trkpt>
      <trkpt lat="41.458967" lon="-3.304800">
        <ele>1963.0</ele>
        <time>2016-07-25T15:11:25Z</time>
      </trkpt>
      <trkpt lat="41.459100" lon="-3.304800">
        <ele>1964.0</ele>
        <time>2016-07-25T15:11:27Z</time>
      </trkpt>
      <trkpt lat="41.459217" lon="-3.304833">
        <ele>1964.0</ele>
        <time>2016-07-25T15:11:29Z</time>
      </trkpt>
      <trkpt lat="41.459350" lon="-3.304833">
        <ele>1963.0</ele>
        <time>2016-07-25T15:11:31Z</time>
      </trkpt>
      <trkpt lat="41.459483" lon="-3.304833">
        <ele>1963.0</ele>
        <time>2016-07-25T15:11:33Z</time>
      </trkpt>
      <trkpt lat="41.459633" lon="-3.304850">
        <ele>1963.0</ele>
        <time>2016-07-25T15:11:35Z</time>
      </trkpt>
      <trkpt lat="41.459783" lon="-3.304850">
        <ele>1964.0</ele>
        <time>2016-07-25T15:11:37Z</time>
      </trkpt>
      <trkpt lat="41.459933" lon="-3.304817">
        <ele>1965.0</ele>
        <time>2016-07-25T15:11:39Z</time>
      </trkpt>
      <trkpt lat="41.460100" lon="-3.304800">
        <ele>1966.0</ele>
        <time>2016-07-25T15:11:41Z</time>
      </trkpt>
      <trkpt lat="41.460233" lon="-3.304833">
        <ele>1970.0</ele>
        <time>2016-07-25T15:11:43Z</time>
      </trkpt>
      <trkpt lat="41.460317" lon="-3.304817">
        <ele>1973.0</ele>
        <time>2016-07-25T15:11:45Z</time>
      </trkpt>
      <trkpt lat="41.460350" lon="-3.304683">
        <ele>1972.0</ele>
        <time>2016-07-25T15:11:47Z</time>
      </trkpt>
      <trkpt lat="41.460300" lon="-3.304467">
        <ele>1974.0</ele>
        <time>2016-07-25T15:11:49Z</time>
      </trkpt>
      <trkpt lat="41.460167" lon="-3.304250">
        <ele>1977.0</ele>
        <time>2016-07-25T15:11:51Z</time>
      </trkpt>
      <trkpt lat="41.459967" lon="-3.304117">
        <ele>1978.0</ele>
        <time>2016-07-25T15:11:53Z</time>
      </trkpt>
      <trkpt lat="41.459767" lon="-3.304100">
        <ele>1977.0</ele>
        <time>2016-07-25T15:11:55Z</time>
      </trkpt>
      <trkpt lat="41.459550" lon="-3.304217">
        <ele>1975.0</ele>
        <time>2016-07-25T15:11:57Z</time>
      </trkpt>
      <trkpt lat="41.459400" lon="-3.304417">
        <ele>1976.0</ele>
        <time>2016-07-25T15:11:59Z</time>
      </trkpt>
      <trkpt lat="41.459333" lon="-3.304650">
        <ele>1977.0</ele>
        <time>2016-07-25T15:12:01Z</time>
      </trkpt>
      <trkpt lat="41.459300" lon="-3.304900">
        <ele>1977.0</ele>
        <time>2016-07-25T15:12:03Z</time>
      </trkpt>
      <trkpt lat="41.459317" lon="-3.305133">
        <ele>1980.0</ele>
        <time>2016-07-25T15:12:05Z</time>
      </trkpt>
      <trkpt lat="41.459317" lon="-3.305317">
        <ele>1986.0</ele>
        <time>2016-07-25T15:12:07Z</time>
      </trkpt>
      <trkpt lat="41.459283" lon="-3.305450">
        <ele>1989.0</ele>
        <time>2016-07-25T15:12:09Z</time>
      </trkpt>
      <trkpt lat="41.459317" lon="-3.305550">
        <ele>1989.0</ele>
        <time>2016-07-25T15:12:11Z</time>
      </trkpt>
      <trkpt lat="41.459367" lon="-3.305533">
        <ele>1992.0</ele>
        <time>2016-07-25T15:12:13Z</time>
      </trkpt>
      <trkpt lat="41.459383" lon="-3.305400">
        <ele>1997.0</ele>
        <time>2016-07-25T15:12:15Z</time>
      </trkpt>
      <trkpt lat="41.459350" lon="-3.305183">
        <ele>2000.0</ele>
        <time>2016-07-25T15:12:17Z</time>
      </trkpt>
      <trkpt lat="41.459250" lon="-3.304933">
        <ele>2003.0</ele>
        <time>2016-07-25T15:12:19Z</time>
      </trkpt>
      <trkpt lat="41.459050" lon="-3.304717">
        <ele>2007.0</ele>
        <time>2016-07-25T15:12:21Z</time>
      </trkpt>
      <trkpt lat="41.458800" lon="-3.304567">
        <ele>2010.0</ele>
        <time>2016-07-25T15:12:23Z</time>
      </trkpt>
      <trkpt lat="41.458533" lon="-3.304533">
        <ele>2012.0</ele>
        <time>2016-07-25T15:12:25Z</time>
      </trkpt>
      <trkpt lat="41.458283" lon="-3.304567">
        <ele>2016.0</ele>
        <time>2016-07-25T15:12:27Z</time>
      </trkpt>
      <trkpt lat="41.458050" lon="-3.304650">
        <ele>2021.0</ele>
        <time>2016-07-25T15:12:29Z</time>
      </trkpt>
      <trkpt lat="41.457833" lon="-3.304767">
        <ele>2025.0</ele>
        <time>2016-07-25T15:12:31Z</time>
      </trkpt>
      <trkpt lat="41.457650" lon="-3.304867">
        <ele>2028.0</ele>
        <time>2016-07-25T15:12:33Z</time>
      </trkpt>
      <trkpt lat="41.457500" lon="-3.304983">
        <ele>2028.0</ele>
        <time>2016-07-25T15:12:35Z</time>
      </trkpt>
      <trkpt lat="41.457433" lon="-3.305150">
        <ele>2026.0</ele>
        <time>2016-07-25T15:12:37Z</time>
      </trkpt>
      <trkpt lat="41.457450" lon="-3.305283">
        <ele>2024.0</ele>
        <time>2016-07-25T15:12:39Z</time>
      </trkpt>
      <trkpt lat="41.457567" lon="-3.305333">
        <ele>2022.0</ele>
        <time>2016-07-25T15:12:41Z</time>
      </trkpt>
      <trkpt lat="41.457700" lon="-3.305333">
        <ele>2027.0</ele>
        <time>2016-07-25T15:12:43Z</time>
      </trkpt>
      <trkpt lat="41.457767" lon="-3.305317">
        <ele>2035.0</ele>
        <time>2016-07-25T15:12:45Z</time>
      </trkpt>
      <trkpt lat="41.457817" lon="-3.305217">
        <ele>2038.0</ele>
        <time>2016-07-25T15:12:47Z</time>
      </trkpt>
      <trkpt lat="41.457850" lon="-3.305033">
        <ele>2042.0</ele>
        <time>2016-07-25T15:12:49Z</time>
      </trkpt>
      <trkpt lat="41.457817" lon="-3.304817">
        <ele>2048.0</ele>
        <time>2016-07-25T15:12:51Z</time>
      </trkpt>
      <trkpt lat="41.457683" lon="-3.304600">
        <ele>2052.0</ele>
        <time>2016-07-25T15:12:53Z</time>
      </trkpt>
      <trkpt lat="41.457467" lon="-3.304467">
        <ele>2055.0</ele>
        <time>2016-07-25T15:12:55Z</time>
      </trkpt>
      <trkpt lat="41.457183" lon="-3.304617">
        <ele>2050.0</ele>
        <time>2016-07-25T15:12:57Z</time>
      </trkpt>
      <trkpt lat="41.456967" lon="-3.304833">
        <ele>2059.0</ele>
        <time>2016-07-25T15:12:59Z</time>
      </trkpt>
      <trkpt lat="41.456817" lon="-3.304950">
        <ele>2067.0</ele>
        <time>2016-07-25T15:13:01Z</time>
      </trkpt>
      <trkpt lat="41.456717" lon="-3.305117">
        <ele>2068.0</ele>
        <time>2016-07-25T15:13:03Z</time>
      </trkpt>
      <trkpt lat="41.456683" lon="-3.305333">
        <ele>2069.0</ele>
        <time>2016-07-25T15:13:05Z</time>
      </trkpt>
      <trkpt lat="41.456717" lon="-3.305517">
        <ele>2071.0</ele>
        <time>2016-07-25T15:13:07Z</time>
      </trkpt>
      <trkpt lat="41.456800" lon="-3.305650">
        <ele>2072.0</ele>
        <time>2016-07-25T15:13:09Z</time>
      </trkpt>
      <trkpt lat="41.456900" lon="-3.305683">
        <ele>2075.0</ele>
        <time>2016-07-25T15:13:11Z</time>
      </trkpt>
      <trkpt lat="41.456983" lon="-3.305617">
        <ele>2079.0</ele>
        <time>2016-07-25T15:13:13Z</time>
      </trkpt>
      <trkpt lat="41.457033" lon="-3.305483">
        <ele>2082.0</ele>
        <time>2016-07-25T15:13:15Z</time>
      </trkpt>
      <trkpt lat="41.457050" lon="-3.305283">
        <ele>2084.0</ele>
        <time>2016-07-25T15:13:17Z</time>
      </trkpt>
      <trkpt lat="41.457017" lon="-3.305017">
        <ele>2087.0</ele>
        <time>2016-07-25T15:13:19Z</time>
      </trkpt>
      <trkpt lat="41.456917" lon="-3.304750">
        <ele>2093.0</ele>
        <time>2016-07-25T15:13:21Z</time>
      </trkpt>
      <trkpt lat="41.456750" lon="-3.304500">
        <ele>2098.0</ele>
        <time>2016-07-25T15:13:23Z</time>
      </trkpt>
      <trkpt lat="41.456533" lon="-3.304317">
        <ele>2102.0</ele>
        <time>2016-07-25T15:13:25Z</time>
      </trkpt>
      <trkpt lat="41.456267" lon="-3.304183">
        <ele>2106.0</ele>
        <time>2016-07-25T15:13:27Z</time>
      </trkpt>
      <trkpt lat="41.456033" lon="-3.304150">
        <ele>2110.0</ele>
        <time>2016-07-25T15:13:29Z</time>
      </trkpt>
      <trkpt lat="41.455850" lon="-3.304200">
        <ele>2110.0</ele>
        <time>2016-07-25T15:13:31Z</time>
      </trkpt>
      <trkpt lat="41.455633" lon="-3.304317">
        <ele>2108.0</ele>
        <time>2016-07-25T15:13:33Z</time>
      </trkpt>
      <trkpt lat="41.455450" lon="-3.304467">
        <ele>2112.0</ele>
        <time>2016-07-25T15:13:35Z</time>
      </trkpt>
      <trkpt lat="41.455333" lon="-3.304617">
        <ele>2115.0</ele>
        <time>2016-07-25T15:13:37Z</time>
      </trkpt>
      <trkpt lat="41.455300" lon="-3.304800">
        <ele>2114.0</ele>
        <time>2016-07-25T15:13:39Z</time>
      </trkpt>
      <trkpt lat="41.455317" lon="-3.305000">
        <ele>2115.0</ele>
        <time>2016-07-25T15:13:41Z</time>
      </trkpt>
      <trkpt lat="41.455367" lon="-3.305167">
        <ele>2120.0</ele>
        <time>2016-07-25T15:13:43Z</time>
      </trkpt>
      <trkpt lat="41.455400" lon="-3.305300">
        <ele>2124.0</ele>
        <time>2016-07-25T15:13:45Z</time>
      </trkpt>
      <trkpt lat="41.455467" lon="-3.305367">
        <ele>2125.0</ele>
        <time>2016-07-25T15:13:47Z</time>
      </trkpt>
      <trkpt lat="41.455567" lon="-3.305350">
        <ele>2127.0</ele>
        <time>2016-07-25T15:13:49Z</time>
      </trkpt>
      <trkpt lat="41.455650" lon="-3.305267">
        <ele>2129.0</ele>
        <time>2016-07-25T15:13:51Z</time>
      </trkpt>
      <trkpt lat="41.455700" lon="-3.305100">
        <ele>2132.0</ele>
        <time>2016-07-25T15:13:53Z</time>
      </trkpt>
      <trkpt lat="41.455700" lon="-3.304867">
        <ele>2134.0</ele>
        <time>2016-07-25T15:13:55Z</time>
      </trkpt>
      <trkpt lat="41.455633" lon="-3.304617">
        <ele>2135.0</ele>
        <time>2016-07-25T15:13:57Z</time>
      </trkpt>
      <trkpt lat="41.455483" lon="-3.304350">
        <ele>2137.0</ele>
        <time>2016-07-25T15:13:59Z</time>
      </trkpt>
      <trkpt lat="41.455283" lon="-3.304133">
        <ele>2144.0</ele>
        <time>2016-07-25T15:14:01Z</time>
      </trkpt>
      <trkpt lat="41.455067" lon="-3.304033">
        <ele>2151.0</ele>
        <time>2016-07-25T15:14:03Z</time>
      </trkpt>
      <trkpt lat="41.454833" lon="-3.304017">
        <ele>2155.0</ele>
        <time>2016-07-25T15:14:05Z</time>
      </trkpt>
      <trkpt lat="41.454600" lon="-3.304033">
        <ele>2156.0</ele>
        <time>2016-07-25T15:14:07Z</time>
      </trkpt>
      <trkpt lat="41.454383" lon="-3.304133">
        <ele>2159.0</ele>
        <time>2016-07-25T15:14:09Z</time>
      </trkpt>
      <trkpt lat="41.454233" lon="-3.304300">
        <ele>2162.0</ele>
        <time>2016-07-25T15:14:11Z</time>
      </trkpt>
      <trkpt lat="41.454150" lon="-3.304483">
        <ele>2165.0</ele>
        <time>2016-07-25T15:14:13Z</time>
      </trkpt>
      <trkpt lat="41.454167" lon="-3.304683">
        <ele>2166.0</ele>
        <time>2016-07-25T15:14:15Z</time>
      </trkpt>
      <trkpt lat="41.454233" lon="-3.304833">
        <ele>2168.0</ele>
        <time>2016-07-25T15:14:17Z</time>
      </trkpt>
      <trkpt lat="41.454300" lon="-3.304933">
        <ele>2171.0</ele>
        <time>2016-07-25T15:14:19Z</time>
      </trkpt>
      <trkpt lat="41.454400" lon="-3.304983">
        <ele>2173.0</ele>
        <time>2016-07-25T15:14:21Z</time>
      </trkpt>
      <trkpt lat="41.454483" lon="-3.304933">
        <ele>2175.0</ele>
        <time>2016-07-25T15:14:23Z</time>
      </trkpt>
      <trkpt lat="41.454550" lon="-3.304800">
        <ele>2175.0</ele>
        <time>2016-07-25T15:14:25Z</time>
      </trkpt>
      <trkpt lat="41.454600" lon="-3.304650">
        <ele>2177.0</ele>
        <time>2016-07-25T15:14:27Z</time>
      </trkpt>
      <trkpt lat="41.454617" lon="-3.304450">
        <ele>2181.0</ele>
        <time>2016-07-25T15:14:29Z</time>
      </trkpt>
      <trkpt lat="41.454550" lon="-3.304217">
        <ele>2183.0</ele>
        <time>2016-07-25T15:14:31Z</time>
      </trkpt>
      <trkpt lat="41.454383" lon="-3.304000">
        <ele>2186.0</ele>
        <time>2016-07-25T15:14:33Z</time>
      </trkpt>
      <trkpt lat="41.454167" lon="-3.303883">
        <ele>2189.0</ele>
        <time>2016-07-25T15:14:35Z</time>
      </trkpt>
      <trkpt lat="41.453917" lon="-3.303900">
        <ele>2192.0</ele>
        <time>2016-07-25T15:14:37Z</time>
      </trkpt>
      <trkpt lat="41.453717" lon="-3.304033">
        <ele>2193.0</ele>
        <time>2016-07-25T15:14:39Z</time>
      </trkpt>
      <trkpt lat="41.453550" lon="-3.304233">
        <ele>2195.0</ele>
        <time>2016-07-25T15:14:41Z</time>
      </trkpt>
      <trkpt lat="41.453450" lon="-3.304450">
        <ele>2200.0</ele>
        <time>2016-07-25T15:14:43Z</time>
      </trkpt>
      <trkpt lat="41.453417" lon="-3.304617">
        <ele>2202.0</ele>
        <time>2016-07-25T15:14:45Z</time>
      </trkpt>
      <trkpt lat="41.453417" lon="-3.304783">
        <ele>2201.0</ele>
        <time>2016-07-25T15:14:47Z</time>
      </trkpt>
      <trkpt lat="41.453467" lon="-3.304933">
        <ele>2201.0</ele>
        <time>2016-07-25T15:14:49Z</time>
      </trkpt>
      <trkpt lat="41.453550" lon="-3.305033">
        <ele>2203.0</ele>
        <time>2016-07-25T15:14:51Z</time>
      </trkpt>
      <trkpt lat="41.453650" lon="-3.305083">
        <ele>2204.0</ele>
        <time>2016-07-25T15:14:53Z</time>
      </trkpt>
      <trkpt lat="41.453750" lon="-3.305083">
        <ele>2204.0</ele>
        <time>2016-07-25T15:14:55Z</time>
      </trkpt>
      <trkpt lat="41.453867" lon="-3.305067">
        <ele>2207.0</ele>
        <time>2016-07-25T15:14:57Z</time>
      </trkpt>
      <trkpt lat="41.453950" lon="-3.305050">
        <ele>2210.0</ele>
        <time>2016-07-25T15:14:59Z</time>
      </trkpt>
      <trkpt lat="41.454033" lon="-3.305033">
        <ele>2211.0</ele>
        <time>2016-07-25T15:15:01Z</time>
      </trkpt>
      <trkpt lat="41.454117" lon="-3.304983">
        <ele>2213.0</ele>
        <time>2016-07-25T15:15:03Z</time>
      </trkpt>
      <trkpt lat="41.454233" lon="-3.304967">
        <ele>2213.0</ele>
        <time>2016-07-25T15:15:05Z</time>
      </trkpt>
      <trkpt lat="41.454350" lon="-3.304950">
        <ele>2216.0</ele>
        <time>2016-07-25T15:15:07Z</time>
      </trkpt>
      <trkpt lat="41.454467" lon="-3.304950">
        <ele>2221.0</ele>
        <time>2016-07-25T15:15:09Z</time>
      </trkpt>
      <trkpt lat="41.454567" lon="-3.304933">
        <ele>2224.0</ele>
        <time>2016-07-25T15:15:11Z</time>
      </trkpt>
      <trkpt lat="41.454667" lon="-3.304817">
        <ele>2224.0</ele>
        <time>2016-07-25T15:15:13Z</time>
      </trkpt>
      <trkpt lat="41.454717" lon="-3.304567">
        <ele>2227.0</ele>
        <time>2016-07-25T15:15:15Z</time>
      </trkpt>
      <trkpt lat="41.454700" lon="-3.304300">
        <ele>2231.0</ele>
        <time>2016-07-25T15:15:17Z</time>
      </trkpt>
      <trkpt lat="41.454600" lon="-3.304050">
        <ele>2236.0</ele>
        <time>2016-07-25T15:15:19Z</time>
      </trkpt>
      <trkpt lat="41.454417" lon="-3.303850">
        <ele>2239.0</ele>
        <time>2016-07-25T15:15:21Z</time>
      </trkpt>
      <trkpt lat="41.454183" lon="-3.303783">
        <ele>2241.0</ele>
        <time>2016-07-25T15:15:23Z</time>
      </trkpt>
      <trkpt lat="41.453950" lon="-3.303800">
        <ele>2241.0</ele>
        <time>2016-07-25T15:15:25Z</time>
      </trkpt>
      <trkpt lat="41.453717" lon="-3.303867">
        <ele>2243.0</ele>
        <time>2016-07-25T15:15:27Z</time>
      </trkpt>
      <trkpt lat="41.453550" lon="-3.304000">
        <ele>2246.0</ele>
        <time>2016-07-25T15:15:29Z</time>
      </trkpt>
      <trkpt lat="41.453433" lon="-3.304183">
        <ele>2249.0</ele>
        <time>2016-07-25T15:15:31Z</time>
      </trkpt>
      <trkpt lat="41.453350" lon="-3.304400">
        <ele>2253.0</ele>
        <time>2016-07-25T15:15:33Z</time>
      </trkpt>
      <trkpt lat="41.453350" lon="-3.304550">
        <ele>2259.0</ele>
        <time>2016-07-25T15:15:35Z</time>
      </trkpt>
      <trkpt lat="41.453417" lon="-3.304617">
        <ele>2262.0</ele>
        <time>2016-07-25T15:15:37Z</time>
      </trkpt>
      <trkpt lat="41.453517" lon="-3.304583">
        <ele>2263.0</ele>
        <time>2016-07-25T15:15:39Z</time>
      </trkpt>
      <trkpt lat="41.453617" lon="-3.304467">
        <ele>2266.0</ele>
        <time>2016-07-25T15:15:41Z</time>
      </trkpt>
      <trkpt lat="41.453650" lon="-3.304250">
        <ele>2269.0</ele>
        <time>2016-07-25T15:15:43Z</time>
      </trkpt>
      <trkpt lat="41.453583" lon="-3.303983">
        <ele>2272.0</ele>
        <time>2016-07-25T15:15:45Z</time>
      </trkpt>
      <trkpt lat="41.453433" lon="-3.303767">
        <ele>2275.0</ele>
        <time>2016-07-25T15:15:47Z</time>
      </trkpt>
      <trkpt lat="41.453200" lon="-3.303667">
        <ele>2276.0</ele>
        <time>2016-07-25T15:15:49Z</time>
      </trkpt>
      <trkpt lat="41.452967" lon="-3.303683">
        <ele>2277.0</ele>
        <time>2016-07-25T15:15:51Z</time>
      </trkpt>
      <trkpt lat="41.452733" lon="-3.303800">
        <ele>2279.0</ele>
        <time>2016-07-25T15:15:53Z</time>
      </trkpt>
      <trkpt lat="41.452583" lon="-3.303983">
        <ele>2283.0</ele>
        <time>2016-07-25T15:15:55Z</time>
      </trkpt>
      <trkpt lat="41.452517" lon="-3.304200">
        <ele>2288.0</ele>
        <time>2016-07-25T15:15:57Z</time>
      </trkpt>
      <trkpt lat="41.452517" lon="-3.304383">
        <ele>2292.0</ele>
        <time>2016-07-25T15:15:59Z</time>
      </trkpt>
      <trkpt lat="41.452567" lon="-3.304517">
        <ele>2296.0</ele>
        <time>2016-07-25T15:16:01Z</time>
      </trkpt>
      <trkpt lat="41.452650" lon="-3.304567">
        <ele>2298.0</ele>
        <time>2016-07-25T15:16:03Z</time>
      </trkpt>
      <trkpt lat="41.452767" lon="-3.304533">
        <ele>2300.0</ele>
        <time>2016-07-25T15:16:05Z</time>
      </trkpt>
      <trkpt lat="41.452850" lon="-3.304433">
        <ele>2303.0</ele>
        <time>2016-07-25T15:16:07Z</time>
      </trkpt>
      <trkpt lat="41.452900" lon="-3.304233">
        <ele>2304.0</ele>
        <time>2016-07-25T15:16:09Z</time>
      </trkpt>
      <trkpt lat="41.452917" lon="-3.304000">
        <ele>2308.0</ele>
        <time>2016-07-25T15:16:11Z</time>
      </trkpt>
      <trkpt lat="41.452867" lon="-3.303767">
        <ele>2314.0</ele>
        <time>2016-07-25T15:16:13Z</time>
      </trkpt>
      <trkpt lat="41.452717" lon="-3.303567">
        <ele>2317.0</ele>
        <time>2016-07-25T15:16:15Z</time>
      </trkpt>
      <trkpt lat="41.452533" lon="-3.303400">
        <ele>2318.0</ele>
        <time>2016-07-25T15:16:17Z</time>
      </trkpt>
      <trkpt lat="41.452300" lon="-3.303317">
        <ele>2318.0</ele>
        <time>2016-07-25T15:16:19Z</time>
      </trkpt>
      <trkpt lat="41.452067" lon="-3.303383">
        <ele>2319.0</ele>
        <time>2016-07-25T15:16:21Z</time>
      </trkpt>
      <trkpt lat="41.451850" lon="-3.303550">
        <ele>2322.0</ele>
        <time>2016-07-25T15:16:23Z</time>
      </trkpt>
      <trkpt lat="41.451667" lon="-3.303700">
        <ele>2325.0</ele>
        <time>2016-07-25T15:16:25Z</time>
      </trkpt>
      <trkpt lat="41.451550" lon="-3.303917">
        <ele>2328.0</ele>
        <time>2016-07-25T15:16:27Z</time>
      </trkpt>
      <trkpt lat="41.451467" lon="-3.304150">
        <ele>2331.0</ele>
        <time>2016-07-25T15:16:29Z</time>
      </trkpt>
      <trkpt lat="41.451483" lon="-3.304350">
        <ele>2335.0</ele>
        <time>2016-07-25T15:16:31Z</time>
      </trkpt>
      <trkpt lat="41.451533" lon="-3.304450">
        <ele>2337.0</ele>
        <time>2016-07-25T15:16:33Z</time>
      </trkpt>
      <trkpt lat="41.451617" lon="-3.304550">
        <ele>2336.0</ele>
        <time>2016-07-25T15:16:35Z</time>
      </trkpt>
      <trkpt lat="41.451733" lon="-3.304567">
        <ele>2335.0</ele>
        <time>2016-07-25T15:16:37Z</time>
      </trkpt>
      <trkpt lat="41.451850" lon="-3.304567">
        <ele>2337.0</ele>
        <time>2016-07-25T15:16:39Z</time>
      </trkpt>
      <trkpt lat="41.451950" lon="-3.304583">
        <ele>2340.0</ele>
        <time>2016-07-25T15:16:41Z</time>
      </trkpt>
      <trkpt lat="41.452050" lon="-3.304600">
        <ele>2342.0</ele>
        <time>2016-07-25T15:16:43Z</time>
      </trkpt>
      <trkpt lat="41.452167" lon="-3.304567">
        <ele>2342.0</ele>
        <time>2016-07-25T15:16:45Z</time>
      </trkpt>
      <trkpt lat="41.452283" lon="-3.304500">
        <ele>2342.0</ele>
        <time>2016-07-25T15:16:47Z</time>
      </trkpt>
      <trkpt lat="41.452417" lon="-3.304433">
        <ele>2345.0</ele>
        <time>2016-07-25T15:16:49Z</time>
      </trkpt>
      <trkpt lat="41.452550" lon="-3.304333">
        <ele>2349.0</ele>
        <time>2016-07-25T15:16:51Z</time>
      </trkpt>
      <trkpt lat="41.452667" lon="-3.304250">
        <ele>2351.0</ele>
        <time>2016-07-25T15:16:53Z</time>
      </trkpt>
      <trkpt lat="41.452817" lon="-3.304167">
        <ele>2352.0</ele>
        <time>2016-07-25T15:16:55Z</time>
      </trkpt>
      <trkpt lat="41.452967" lon="-3.304083">
        <ele>2355.0</ele>
        <time>2016-07-25T15:16:57Z</time>
      </trkpt>
      <trkpt lat="41.453100" lon="-3.304000">
        <ele>2359.0</ele>
        <time>2016-07-25T15:16:59Z</time>
      </trkpt>
      <trkpt lat="41.453233" lon="-3.303850">
        <ele>2362.0</ele>
        <time>2016-07-25T15:17:01Z</time>
      </trkpt>
      <trkpt lat="41.453350" lon="-3.303667">
        <ele>2366.0</ele>
        <time>2016-07-25T15:17:03Z</time>
      </trkpt>
      <trkpt lat="41.453367" lon="-3.303367">
        <ele>2367.0</ele>
        <time>2016-07-25T15:17:05Z</time>
      </trkpt>
      <trkpt lat="41.453300" lon="-3.303067">
        <ele>2367.0</ele>
        <time>2016-07-25T15:17:07Z</time>
      </trkpt>
      <trkpt lat="41.453117" lon="-3.302850">
        <ele>2365.0</ele>
        <time>2016-07-25T15:17:09Z</time>
      </trkpt>
      <trkpt lat="41.452867" lon="-3.302750">
        <ele>2362.0</ele>
        <time>2016-07-25T15:17:11Z</time>
      </trkpt>
      <trkpt lat="41.452650" lon="-3.302783">
        <ele>2364.0</ele>
        <time>2016-07-25T15:17:13Z</time>
      </trkpt>
      <trkpt lat="41.452517" lon="-3.302917">
        <ele>2366.0</ele>
        <time>2016-07-25T15:17:15Z</time>
      </trkpt>
      <trkpt lat="41.452417" lon="-3.303033">
        <ele>2367.0</ele>
        <time>2016-07-25T15:17:17Z</time>
      </trkpt>
      <trkpt lat="41.452367" lon="-3.303200">
        <ele>2367.0</ele>
        <time>2016-07-25T15:17:19Z</time>
      </trkpt>
      <trkpt lat="41.452367" lon="-3.303350">
        <ele>2369.0</ele>
        <time>2016-07-25T15:17:21Z</time>
      </trkpt>
      <trkpt lat="41.452450" lon="-3.303450">
        <ele>2372.0</ele>
        <time>2016-07-25T15:17:23Z</time>
      </trkpt>
      <trkpt lat="41.452567" lon="-3.303467">
        <ele>2375.0</ele>
        <time>2016-07-25T15:17:25Z</time>
      </trkpt>
      <trkpt lat="41.452700" lon="-3.303433">
        <ele>2378.0</ele>
        <time>2016-07-25T15:17:27Z</time>
      </trkpt>
      <trkpt lat="41.452850" lon="-3.303367">
        <ele>2379.0</ele>
        <time>2016-07-25T15:17:29Z</time>
      </trkpt>
      <trkpt lat="41.453017" lon="-3.303283">
        <ele>2381.0</ele>
        <time>2016-07-25T15:17:31Z</time>
      </trkpt>
      <trkpt lat="41.453183" lon="-3.303183">
        <ele>2382.0</ele>
        <time>2016-07-25T15:17:33Z</time>
      </trkpt>
      <trkpt lat="41.453367" lon="-3.303117">
        <ele>2382.0</ele>
        <time>2016-07-25T15:17:35Z</time>
      </trkpt>
      <trkpt lat="41.453550" lon="-3.303067">
        <ele>2382.0</ele>
        <time>2016-07-25T15:17:37Z</time>
      </trkpt>
      <trkpt lat="41.453717" lon="-3.303017">
        <ele>2384.0</ele>
        <time>2016-07-25T15:17:39Z</time>
      </trkpt>
      <trkpt lat="41.453867" lon="-3.302983">
        <ele>2384.0</ele>
        <time>2016-07-25T15:17:41Z</time>
      </trkpt>
      <trkpt lat="41.454017" lon="-3.302917">
        <ele>2385.0</ele>
        <time>2016-07-25T15:17:43Z</time>
      </trkpt>
      <trkpt lat="41.454167" lon="-3.302833">
        <ele>2384.0</ele>
        <time>2016-07-25T15:17:45Z</time>
      </trkpt>
      <trkpt lat="41.454317" lon="-3.302767">
        <ele>2382.0</ele>
        <time>2016-07-25T15:17:47Z</time>
      </trkpt>
      <trkpt lat="41.454483" lon="-3.302717">
        <ele>2381.0</ele>
        <time>2016-07-25T15:17:49Z</time>
      </trkpt>
      <trkpt lat="41.454633" lon="-3.302700">
        <ele>2378.0</ele>
        <time>2016-07-25T15:17:51Z</time>
      </trkpt>
      <trkpt lat="41.454800" lon="-3.302683">
        <ele>2374.0</ele>
        <time>2016-07-25T15:17:53Z</time>
      </trkpt>
      <trkpt lat="41.454983" lon="-3.302633">
        <ele>2374.0</ele>
        <time>2016-07-25T15:17:55Z</time>
      </trkpt>
      <trkpt lat="41.455117" lon="-3.302583">
        <ele>2374.0</ele>
        <time>2016-07-25T15:17:57Z</time>
      </trkpt>
      <trkpt lat="41.455267" lon="-3.302567">
        <ele>2369.0</ele>
        <time>2016-07-25T15:17:59Z</time>
      </trkpt>
      <trkpt lat="41.455433" lon="-3.302550">
        <ele>2363.0</ele>
        <time>2016-07-25T15:18:01Z</time>
      </trkpt>
      <trkpt lat="41.455617" lon="-3.302517">
        <ele>2359.0</ele>
        <time>2016-07-25T15:18:03Z</time>
      </trkpt>
      <trkpt lat="41.455783" lon="-3.302533">
        <ele>2356.0</ele>
        <time>2016-07-25T15:18:05Z</time>
      </trkpt>
      <trkpt lat="41.455967" lon="-3.302550">
        <ele>2353.0</ele>
        <time>2016-07-25T15:18:07Z</time>
      </trkpt>
      <trkpt lat="41.456133" lon="-3.302567">
        <ele>2351.0</ele>
        <time>2016-07-25T15:18:09Z</time>
      </trkpt>
      <trkpt lat="41.456300" lon="-3.302567">
        <ele>2348.0</ele>
        <time>2016-07-25T15:18:11Z</time>
      </trkpt>
      <trkpt lat="41.456467" lon="-3.302567">
        <ele>2344.0</ele>
        <time>2016-07-25T15:18:13Z</time>
      </trkpt>
      <trkpt lat="41.456633" lon="-3.302550">
        <ele>2340.0</ele>
        <time>2016-07-25T15:18:15Z</time>
      </trkpt>
      <trkpt lat="41.456800" lon="-3.302567">
        <ele>2337.0</ele>
        <time>2016-07-25T15:18:17Z</time>
      </trkpt>
      <trkpt lat="41.456967" lon="-3.302583">
        <ele>2334.0</ele>
        <time>2016-07-25T15:18:19Z</time>
      </trkpt>
      <trkpt lat="41.457133" lon="-3.302617">
        <ele>2330.0</ele>
        <time>2016-07-25T15:18:21Z</time>
      </trkpt>
      <trkpt lat="41.457300" lon="-3.302617">
        <ele>2326.0</ele>
        <time>2016-07-25T15:18:23Z</time>
      </trkpt>
      <trkpt lat="41.457483" lon="-3.302600">
        <ele>2324.0</ele>
        <time>2016-07-25T15:18:25Z</time>
      </trkpt>
      <trkpt lat="41.457650" lon="-3.302567">
        <ele>2321.0</ele>
        <time>2016-07-25T15:18:27Z</time>
      </trkpt>
      <trkpt lat="41.457850" lon="-3.302517">
        <ele>2317.0</ele>
        <time>2016-07-25T15:18:29Z</time>
      </trkpt>
      <trkpt lat="41.458033" lon="-3.302467">
        <ele>2315.0</ele>
        <time>2016-07-25T15:18:31Z</time>
      </trkpt>
      <trkpt lat="41.458200" lon="-3.302417">
        <ele>2314.0</ele>
        <time>2016-07-25T15:18:33Z</time>
      </trkpt>
      <trkpt lat="41.458367" lon="-3.302350">
        <ele>2312.0</ele>
        <time>2016-07-25T15:18:35Z</time>
      </trkpt>
      <trkpt lat="41.458550" lon="-3.302250">
        <ele>2310.0</ele>
        <time>2016-07-25T15:18:37Z</time>
      </trkpt>
      <trkpt lat="41.458717" lon="-3.302183">
        <ele>2308.0</ele>
        <time>2016-07-25T15:18:39Z</time>
      </trkpt>
      <trkpt lat="41.458850" lon="-3.302150">
        <ele>2304.0</ele>
        <time>2016-07-25T15:18:41Z</time>
      </trkpt>
      <trkpt lat="41.458983" lon="-3.302067">
        <ele>2297.0</ele>
        <time>2016-07-25T15:18:43Z</time>
      </trkpt>
      <trkpt lat="41.459150" lon="-3.301983">
        <ele>2293.0</ele>
        <time>2016-07-25T15:18:45Z</time>
      </trkpt>
      <trkpt lat="41.459283" lon="-3.301883">
        <ele>2289.0</ele>
        <time>2016-07-25T15:18:47Z</time>
      </trkpt>
      <trkpt lat="41.459417" lon="-3.301783">
        <ele>2285.0</ele>
        <time>2016-07-25T15:18:49Z</time>
      </trkpt>
      <trkpt lat="41.459567" lon="-3.301667">
        <ele>2280.0</ele>
        <time>2016-07-25T15:18:51Z</time>
      </trkpt>
      <trkpt lat="41.459717" lon="-3.301567">
        <ele>2276.0</ele>
        <time>2016-07-25T15:18:53Z</time>
      </trkpt>
      <trkpt lat="41.459850" lon="-3.301450">
        <ele>2270.0</ele>
        <time>2016-07-25T15:18:55Z</time>
      </trkpt>
      <trkpt lat="41.460000" lon="-3.301317">
        <ele>2264.0</ele>
        <time>2016-07-25T15:18:57Z</time>
      </trkpt>
      <trkpt lat="41.460150" lon="-3.301167">
        <ele>2260.0</ele>
        <time>2016-07-25T15:18:59Z</time>
      </trkpt>
      <trkpt lat="41.460267" lon="-3.301000">
        <ele>2256.0</ele>
        <time>2016-07-25T15:19:01Z</time>
      </trkpt>
      <trkpt lat="41.460417" lon="-3.300833">
        <ele>2253.0</ele>
        <time>2016-07-25T15:19:03Z</time>
      </trkpt>
      <trkpt lat="41.460533" lon="-3.300683">
        <ele>2250.0</ele>
        <time>2016-07-25T15:19:05Z</time>
      </trkpt>
      <trkpt lat="41.460633" lon="-3.300533">
        <ele>2244.0</ele>
        <time>2016-07-25T15:19:07Z</time>
      </trkpt>
      <trkpt lat="41.460733" lon="-3.300367">
        <ele>2237.0</ele>
        <time>2016-07-25T15:19:09Z</time>
      </trkpt>
      <trkpt lat="41.460883" lon="-3.300233">
        <ele>2232.0</ele>
        <time>2016-07-25T15:19:11Z</time>
      </trkpt>
      <trkpt lat="41.461017" lon="-3.300083">
        <ele>2230.0</ele>
        <time>2016-07-25T15:19:13Z</time>
      </trkpt>
      <trkpt lat="41.461133" lon="-3.299917">
        <ele>2229.0</ele>
        <time>2016-07-25T15:19:15Z</time>
      </trkpt>
      <trkpt lat="41.461200" lon="-3.299750">
        <ele>2224.0</ele>
        <time>2016-07-25T15:19:17Z</time>
      </trkpt>
      <trkpt lat="41.461317" lon="-3.299567">
        <ele>2217.0</ele>
        <time>2016-07-25T15:19:19Z</time>
      </trkpt>
      <trkpt lat="41.461450" lon="-3.299367">
        <ele>2216.0</ele>
        <time>2016-07-25T15:19:21Z</time>
      </trkpt>
      <trkpt lat="41.461550" lon="-3.299183">
        <ele>2218.0</ele>
        <time>2016-07-25T15:19:23Z</time>
      </trkpt>
      <trkpt lat="41.461633" lon="-3.299083">
        <ele>2219.0</ele>
        <time>2016-07-25T15:19:25Z</time>
      </trkpt>
      <trkpt lat="41.461733" lon="-3.299017">
        <ele>2218.0</ele>
        <time>2016-07-25T15:19:27Z</time>
      </trkpt>
      <trkpt lat="41.461850" lon="-3.298917">
        <ele>2218.0</ele>
        <time>2016-07-25T15:19:29Z</time>
      </trkpt>
      <trkpt lat="41.461933" lon="-3.298833">
        <ele>2218.0</ele>
        <time>2016-07-25T15:19:31Z</time>
      </trkpt>
      <trkpt lat="41.462017" lon="-3.298767">
        <ele>2217.0</ele>
        <time>2016-07-25T15:19:33Z</time>
      </trkpt>
      <trkpt lat="41.462150" lon="-3.298667">
        <ele>2217.0</ele>
        <time>2016-07-25T15:19:35Z</time>
      </trkpt>
      <trkpt lat="41.462300" lon="-3.298500">
        <ele>2219.0</ele>
        <time>2016-07-25T15:19:37Z</time>
      </trkpt>
      <trkpt lat="41.462433" lon="-3.298350">
        <ele>2220.0</ele>
        <time>2016-07-25T15:19:39Z</time>
      </trkpt>
      <trkpt lat="41.462617" lon="-3.298183">
        <ele>2219.0</ele>
        <time>2016-07-25T15:19:41Z</time>
      </trkpt>
      <trkpt lat="41.462767" lon="-3.298050">
        <ele>2222.0</ele>
        <time>2016-07-25T15:19:43Z</time>
      </trkpt>
      <trkpt lat="41.462900" lon="-3.297967">
        <ele>2225.0</ele>
        <time>2016-07-25T15:19:45Z</time>
      </trkpt>
      <trkpt lat="41.463050" lon="-3.297900">
        <ele>2225.0</ele>
        <time>2016-07-25T15:19:47Z</time>
      </trkpt>
      <trkpt lat="41.463200" lon="-3.297783">
        <ele>2226.0</ele>
        <time>2016-07-25T15:19:49Z</time>
      </trkpt>
      <trkpt lat="41.463333" lon="-3.297667">
        <ele>2227.0</ele>
        <time>2016-07-25T15:19:51Z</time>
      </trkpt>
      <trkpt lat="41.463483" lon="-3.297567">
        <ele>2227.0</ele>
        <time>2016-07-25T15:19:53Z</time>
      </trkpt>
      <trkpt lat="41.463617" lon="-3.297450">
        <ele>2230.0</ele>
        <time>2016-07-25T15:19:55Z</time>
      </trkpt>
      <trkpt lat="41.463733" lon="-3.297317">
        <ele>2231.0</ele>
        <time>2016-07-25T15:19:57Z</time>
      </trkpt>
      <trkpt lat="41.463883" lon="-3.297217">
        <ele>2230.0</ele>
        <time>2016-07-25T15:19:59Z</time>
      </trkpt>
      <trkpt lat="41.464050" lon="-3.297117">
        <ele>2231.0</ele>
        <time>2016-07-25T15:20:01Z</time>
      </trkpt>
      <trkpt lat="41.464200" lon="-3.297017">
        <ele>2233.0</ele>
        <time>2016-07-25T15:20:03Z</time>
      </trkpt>
      <trkpt lat="41.464367" lon="-3.296933">
        <ele>2233.0</ele>
        <time>2016-07-25T15:20:05Z</time>
      </trkpt>
      <trkpt lat="41.464500" lon="-3.296817">
        <ele>2233.0</ele>
        <time>2016-07-25T15:20:07Z</time>
      </trkpt>
      <trkpt lat="41.464650" lon="-3.296700">
        <ele>2232.0</ele>
        <time>2016-07-25T15:20:09Z</time>
      </trkpt>
      <trkpt lat="41.464800" lon="-3.296583">
        <ele>2230.0</ele>
        <time>2016-07-25T15:20:11Z</time>
      </trkpt>
      <trkpt lat="41.464950" lon="-3.296433">
        <ele>2231.0</ele>
        <time>2016-07-25T15:20:13Z</time>
      </trkpt>
      <trkpt lat="41.465100" lon="-3.296300">
        <ele>2234.0</ele>
        <time>2016-07-25T15:20:15Z</time>
      </trkpt>
      <trkpt lat="41.465233" lon="-3.296150">
        <ele>2234.0</ele>
        <time>2016-07-25T15:20:17Z</time>
      </trkpt>
      <trkpt lat="41.465367" lon="-3.295967">
        <ele>2233.0</ele>
        <time>2016-07-25T15:20:19Z</time>
      </trkpt>
      <trkpt lat="41.465500" lon="-3.295783">
        <ele>2233.0</ele>
        <time>2016-07-25T15:20:21Z</time>
      </trkpt>
      <trkpt lat="41.465617" lon="-3.295667">
        <ele>2231.0</ele>
        <time>2016-07-25T15:20:23Z</time>
      </trkpt>
      <trkpt lat="41.465800" lon="-3.295633">
        <ele>2228.0</ele>
        <time>2016-07-25T15:20:25Z</time>
      </trkpt>
      <trkpt lat="41.465950" lon="-3.295533">
        <ele>2224.0</ele>
        <time>2016-07-25T15:20:27Z</time>
      </trkpt>
      <trkpt lat="41.466067" lon="-3.295400">
        <ele>2221.0</ele>
        <time>2016-07-25T15:20:29Z</time>
      </trkpt>
      <trkpt lat="41.466167" lon="-3.295250">
        <ele>2215.0</ele>
        <time>2016-07-25T15:20:31Z</time>
      </trkpt>
      <trkpt lat="41.466267" lon="-3.295100">
        <ele>2211.0</ele>
        <time>2016-07-25T15:20:33Z</time>
      </trkpt>
      <trkpt lat="41.466367" lon="-3.294967">
        <ele>2206.0</ele>
        <time>2016-07-25T15:20:35Z</time>
      </trkpt>
      <trkpt lat="41.466467" lon="-3.294850">
        <ele>2201.0</ele>
        <time>2016-07-25T15:20:37Z</time>
      </trkpt>
      <trkpt lat="41.466567" lon="-3.294750">
        <ele>2197.0</ele>
        <time>2016-07-25T15:20:39Z</time>
      </trkpt>
      <trkpt lat="41.466683" lon="-3.294667">
        <ele>2193.0</ele>
        <time>2016-07-25T15:20:41Z</time>
      </trkpt>
      <trkpt lat="41.466783" lon="-3.294583">
        <ele>2190.0</ele>
        <time>2016-07-25T15:20:43Z</time>
      </trkpt>
      <trkpt lat="41.466883" lon="-3.294533">
        <ele>2187.0</ele>
        <time>2016-07-25T15:20:45Z</time>
      </trkpt>
      <trkpt lat="41.467000" lon="-3.294483">
        <ele>2183.0</ele>
        <time>2016-07-25T15:20:47Z</time>
      </trkpt>
      <trkpt lat="41.467117" lon="-3.294417">
        <ele>2178.0</ele>
        <time>2016-07-25T15:20:49Z</time>
      </trkpt>
      <trkpt lat="41.467217" lon="-3.294300">
        <ele>2175.0</ele>
        <time>2016-07-25T15:20:51Z</time>
      </trkpt>
      <trkpt lat="41.467317" lon="-3.294150">
        <ele>2171.0</ele>
        <time>2016-07-25T15:20:53Z</time>
      </trkpt>
      <trkpt lat="41.467450" lon="-3.294033">
        <ele>2167.0</ele>
        <time>2016-07-25T15:20:55Z</time>
      </trkpt>
      <trkpt lat="41.467567" lon="-3.293900">
        <ele>2166.0</ele>
        <time>2016-07-25T15:20:57Z</time>
      </trkpt>
      <trkpt lat="41.467683" lon="-3.293767">
        <ele>2164.0</ele>
        <time>2016-07-25T15:20:59Z</time>
      </trkpt>
      <trkpt lat="41.467800" lon="-3.293633">
        <ele>2160.0</ele>
        <time>2016-07-25T15:21:01Z</time>
      </trkpt>
      <trkpt lat="41.467933" lon="-3.293483">
        <ele>2158.0</ele>
        <time>2016-07-25T15:21:03Z</time>
      </trkpt>
      <trkpt lat="41.468050" lon="-3.293350">
        <ele>2155.0</ele>
        <time>2016-07-25T15:21:05Z</time>
      </trkpt>
      <trkpt lat="41.468183" lon="-3.293233">
        <ele>2152.0</ele>
        <time>2016-07-25T15:21:07Z</time>
      </trkpt>
      <trkpt lat="41.468333" lon="-3.293100">
        <ele>2148.0</ele>
        <time>2016-07-25T15:21:09Z</time>
      </trkpt>
      <trkpt lat="41.468450" lon="-3.292967">
        <ele>2146.0</ele>
        <time>2016-07-25T15:21:11Z</time>
      </trkpt>
      <trkpt lat="41.468567" lon="-3.292817">
        <ele>2143.0</ele>
        <time>2016-07-25T15:21:13Z</time>
      </trkpt>
      <trkpt lat="41.468683" lon="-3.292667">
        <ele>2140.0</ele>
        <time>2016-07-25T15:21:15Z</time>
      </trkpt>
      <trkpt lat="41.468833" lon="-3.292500">
        <ele>2138.0</ele>
        <time>2016-07-25T15:21:17Z</time>
      </trkpt>
      <trkpt lat="41.468967" lon="-3.292333">
        <ele>2141.0</ele>
        <time>2016-07-25T15:21:19Z</time>
      </trkpt>
      <trkpt lat="41.469067" lon="-3.292200">
        <ele>2143.0</ele>
        <time>2016-07-25T15:21:21Z</time>
      </trkpt>
      <trkpt lat="41.469183" lon="-3.292083">
        <ele>2144.0</ele>
        <time>2016-07-25T15:21:23Z</time>
      </trkpt>
      <trkpt lat="41.469333" lon="-3.292067">
        <ele>2148.0</ele>
        <time>2016-07-25T15:21:25Z</time>
      </trkpt>
      <trkpt lat="41.469433" lon="-3.292150">
        <ele>2155.0</ele>
        <time>2016-07-25T15:21:27Z</time>
      </trkpt>
      <trkpt lat="41.469500" lon="-3.292267">
        <ele>2161.0</ele>
        <time>2016-07-25T15:21:29Z</time>
      </trkpt>
      <trkpt lat="41.469533" lon="-3.292450">
        <ele>2164.0</ele>
        <time>2016-07-25T15:21:31Z</time>
      </trkpt>
      <trkpt lat="41.469417" lon="-3.292600">
        <ele>2163.0</ele>
        <time>2016-07-25T15:21:33Z</time>
      </trkpt>
      <trkpt lat="41.469200" lon="-3.292633">
        <ele>2164.0</ele>
        <time>2016-07-25T15:21:35Z</time>
      </trkpt>
      <trkpt lat="41.469000" lon="-3.292550">
        <ele>2172.0</ele>
        <time>2016-07-25T15:21:37Z</time>
      </trkpt>
      <trkpt lat="41.468867" lon="-3.292433">
        <ele>2175.0</ele>
        <time>2016-07-25T15:21:39Z</time>
      </trkpt>
      <trkpt lat="41.468733" lon="-3.292217">
        <ele>2173.0</ele>
        <time>2016-07-25T15:21:41Z</time>
      </trkpt>
      <trkpt lat="41.468583" lon="-3.291950">
        <ele>2176.0</ele>
        <time>2016-07-25T15:21:43Z</time>
      </trkpt>
      <trkpt lat="41.468550" lon="-3.291717">
        <ele>2179.0</ele>
        <time>2016-07-25T15:21:45Z</time>
      </trkpt>
      <trkpt lat="41.468583" lon="-3.291517">
        <ele>2181.0</ele>
        <time>2016-07-25T15:21:47Z</time>
      </trkpt>
      <trkpt lat="41.468650" lon="-3.291333">
        <ele>2183.0</ele>
        <time>2016-07-25T15:21:49Z</time>
      </trkpt>
      <trkpt lat="41.468783" lon="-3.291233">
        <ele>2183.0</ele>
        <time>2016-07-25T15:21:51Z</time>
      </trkpt>
      <trkpt lat="41.468950" lon="-3.291267">
        <ele>2186.0</ele>
        <time>2016-07-25T15:21:53Z</time>
      </trkpt>
      <trkpt lat="41.469083" lon="-3.291283">
        <ele>2193.0</ele>
        <time>2016-07-25T15:21:55Z</time>
      </trkpt>
      <trkpt lat="41.469217" lon="-3.291317">
        <ele>2198.0</ele>
        <time>2016-07-25T15:21:57Z</time>
      </trkpt>
      <trkpt lat="41.469300" lon="-3.291433">
        <ele>2200.0</ele>
        <time>2016-07-25T15:21:59Z</time>
      </trkpt>
      <trkpt lat="41.469317" lon="-3.291567">
        <ele>2201.0</ele>
        <time>2016-07-25T15:22:01Z</time>
      </trkpt>
      <trkpt lat="41.469217" lon="-3.291700">
        <ele>2201.0</ele>
        <time>2016-07-25T15:22:03Z</time>
      </trkpt>
      <trkpt lat="41.469033" lon="-3.291767">
        <ele>2203.0</ele>
        <time>2016-07-25T15:22:05Z</time>
      </trkpt>
      <trkpt lat="41.468833" lon="-3.291717">
        <ele>2210.0</ele>
        <time>2016-07-25T15:22:07Z</time>
      </trkpt>
      <trkpt lat="41.468700" lon="-3.291600">
        <ele>2214.0</ele>
        <time>2016-07-25T15:22:09Z</time>
      </trkpt>
      <trkpt lat="41.468550" lon="-3.291483">
        <ele>2213.0</ele>
        <time>2016-07-25T15:22:11Z</time>
      </trkpt>
      <trkpt lat="41.468383" lon="-3.291250">
        <ele>2213.0</ele>
        <time>2016-07-25T15:22:13Z</time>
      </trkpt>
      <trkpt lat="41.468317" lon="-3.290933">
        <ele>2217.0</ele>
        <time>2016-07-25T15:22:15Z</time>
      </trkpt>
      <trkpt lat="41.468367" lon="-3.290683">
        <ele>2223.0</ele>
        <time>2016-07-25T15:22:17Z</time>
      </trkpt>
      <trkpt lat="41.468433" lon="-3.290517">
        <ele>2229.0</ele>
        <time>2016-07-25T15:22:19Z</time>
      </trkpt>
      <trkpt lat="41.468533" lon="-3.290383">
        <ele>2230.0</ele>
        <time>2016-07-25T15:22:21Z</time>
      </trkpt>
      <trkpt lat="41.468683" lon="-3.290283">
        <ele>2231.0</ele>
        <time>2016-07-25T15:22:23Z</time>
      </trkpt>
      <trkpt lat="41.468833" lon="-3.290267">
        <ele>2234.0</ele>
        <time>2016-07-25T15:22:25Z</time>
      </trkpt>
      <trkpt lat="41.468950" lon="-3.290333">
        <ele>2238.0</ele>
        <time>2016-07-25T15:22:27Z</time>
      </trkpt>
      <trkpt lat="41.469017" lon="-3.290467">
        <ele>2241.0</ele>
        <time>2016-07-25T15:22:29Z</time>
      </trkpt>
      <trkpt lat="41.469000" lon="-3.290633">
        <ele>2243.0</ele>
        <time>2016-07-25T15:22:31Z</time>
      </trkpt>
      <trkpt lat="41.468900" lon="-3.290783">
        <ele>2245.0</ele>
        <time>2016-07-25T15:22:33Z</time>
      </trkpt>
      <trkpt lat="41.468750" lon="-3.290867">
        <ele>2247.0</ele>
        <time>2016-07-25T15:22:35Z</time>
      </trkpt>
      <trkpt lat="41.468583" lon="-3.290833">
        <ele>2250.0</ele>
        <time>2016-07-25T15:22:37Z</time>
      </trkpt>
      <trkpt lat="41.468433" lon="-3.290700">
        <ele>2252.0</ele>
        <time>2016-07-25T15:22:39Z</time>
      </trkpt>
      <trkpt lat="41.468350" lon="-3.290433">
        <ele>2252.0</ele>
        <time>2016-07-25T15:22:41Z</time>
      </trkpt>
      <trkpt lat="41.468350" lon="-3.290083">
        <ele>2254.0</ele>
        <time>2016-07-25T15:22:43Z</time>
      </trkpt>
      <trkpt lat="41.468417" lon="-3.289833">
        <ele>2262.0</ele>
        <time>2016-07-25T15:22:45Z</time>
      </trkpt>
      <trkpt lat="41.468500" lon="-3.289650">
        <ele>2267.0</ele>
        <time>2016-07-25T15:22:47Z</time>
      </trkpt>
      <trkpt lat="41.468650" lon="-3.289467">
        <ele>2267.0</ele>
        <time>2016-07-25T15:22:49Z</time>
      </trkpt>
      <trkpt lat="41.468833" lon="-3.289333">
        <ele>2271.0</ele>
        <time>2016-07-25T15:22:51Z</time>
      </trkpt>
      <trkpt lat="41.468983" lon="-3.289300">
        <ele>2277.0</ele>
        <time>2016-07-25T15:22:53Z</time>
      </trkpt>
      <trkpt lat="41.469117" lon="-3.289333">
        <ele>2279.0</ele>
        <time>2016-07-25T15:22:55Z</time>
      </trkpt>
      <trkpt lat="41.469217" lon="-3.289450">
        <ele>2280.0</ele>
        <time>2016-07-25T15:22:57Z</time>
      </trkpt>
      <trkpt lat="41.469217" lon="-3.289617">
        <ele>2281.0</ele>
        <time>2016-07-25T15:22:59Z</time>
      </trkpt>
      <trkpt lat="41.469133" lon="-3.289767">
        <ele>2282.0</ele>
        <time>2016-07-25T15:23:01Z</time>
      </trkpt>
      <trkpt lat="41.469000" lon="-3.289867">
        <ele>2285.0</ele>
        <time>2016-07-25T15:23:03Z</time>
      </trkpt>
      <trkpt lat="41.468817" lon="-3.289850">
        <ele>2286.0</ele>
        <time>2016-07-25T15:23:05Z</time>
      </trkpt>
      <trkpt lat="41.468650" lon="-3.289750">
        <ele>2287.0</ele>
        <time>2016-07-25T15:23:07Z</time>
      </trkpt>
      <trkpt lat="41.468500" lon="-3.289533">
        <ele>2287.0</ele>
        <time>2016-07-25T15:23:09Z</time>
      </trkpt>
      <trkpt lat="41.468417" lon="-3.289267">
        <ele>2286.0</ele>
        <time>2016-07-25T15:23:11Z</time>
      </trkpt>
      <trkpt lat="41.468433" lon="-3.288967">
        <ele>2286.0</ele>
        <time>2016-07-25T15:23:13Z</time>
      </trkpt>
      <trkpt lat="41.468533" lon="-3.288700">
        <ele>2287.0</ele>
        <time>2016-07-25T15:23:15Z</time>
      </trkpt>
      <trkpt lat="41.468667" lon="-3.288500">
        <ele>2289.0</ele>
        <time>2016-07-25T15:23:17Z</time>
      </trkpt>
      <trkpt lat="41.468817" lon="-3.288350">
        <ele>2291.0</ele>
        <time>2016-07-25T15:23:19Z</time>
      </trkpt>
      <trkpt lat="41.469000" lon="-3.288233">
        <ele>2292.0</ele>
        <time>2016-07-25T15:23:21Z</time>
      </trkpt>
      <trkpt lat="41.469167" lon="-3.288117">
        <ele>2293.0</ele>
        <time>2016-07-25T15:23:23Z</time>
      </trkpt>
      <trkpt lat="41.469350" lon="-3.287967">
        <ele>2295.0</ele>
        <time>2016-07-25T15:23:25Z</time>
      </trkpt>
      <trkpt lat="41.469517" lon="-3.287833">
        <ele>2297.0</ele>
        <time>2016-07-25T15:23:27Z</time>
      </trkpt>
      <trkpt lat="41.469700" lon="-3.287700">
        <ele>2297.0</ele>
        <time>2016-07-25T15:23:29Z</time>
      </trkpt>
      <trkpt lat="41.469900" lon="-3.287533">
        <ele>2296.0</ele>
        <time>2016-07-25T15:23:31Z</time>
      </trkpt>
      <trkpt lat="41.470117" lon="-3.287383">
        <ele>2299.0</ele>
        <time>2016-07-25T15:23:33Z</time>
      </trkpt>
      <trkpt lat="41.470250" lon="-3.287283">
        <ele>2302.0</ele>
        <time>2016-07-25T15:23:35Z</time>
      </trkpt>
      <trkpt lat="41.470400" lon="-3.287233">
        <ele>2298.0</ele>
        <time>2016-07-25T15:23:37Z</time>
      </trkpt>
      <trkpt lat="41.470600" lon="-3.287150">
        <ele>2293.0</ele>
        <time>2016-07-25T15:23:39Z</time>
      </trkpt>
      <trkpt lat="41.470800" lon="-3.287067">
        <ele>2295.0</ele>
        <time>2016-07-25T15:23:41Z</time>
      </trkpt>
      <trkpt lat="41.470950" lon="-3.287000">
        <ele>2298.0</ele>
        <time>2016-07-25T15:23:43Z</time>
      </trkpt>
      <trkpt lat="41.471100" lon="-3.286933">
        <ele>2295.0</ele>
        <time>2016-07-25T15:23:45Z</time>
      </trkpt>
      <trkpt lat="41.471283" lon="-3.286817">
        <ele>2290.0</ele>
        <time>2016-07-25T15:23:47Z</time>
      </trkpt>
      <trkpt lat="41.471467" lon="-3.286683">
        <ele>2290.0</ele>
        <time>2016-07-25T15:23:49Z</time>
      </trkpt>
      <trkpt lat="41.471617" lon="-3.286583">
        <ele>2289.0</ele>
        <time>2016-07-25T15:23:51Z</time>
      </trkpt>
      <trkpt lat="41.471767" lon="-3.286500">
        <ele>2285.0</ele>
        <time>2016-07-25T15:23:53Z</time>
      </trkpt>
      <trkpt lat="41.471917" lon="-3.286367">
        <ele>2278.0</ele>
        <time>2016-07-25T15:23:55Z</time>
      </trkpt>
      <trkpt lat="41.472100" lon="-3.286233">
        <ele>2274.0</ele>
        <time>2016-07-25T15:23:57Z</time>
      </trkpt>
      <trkpt lat="41.472250" lon="-3.286083">
        <ele>2271.0</ele>
        <time>2016-07-25T15:23:59Z</time>
      </trkpt>
      <trkpt lat="41.472417" lon="-3.285933">
        <ele>2267.0</ele>
        <time>2016-07-25T15:24:01Z</time>
      </trkpt>
      <trkpt lat="41.472567" lon="-3.285767">
        <ele>2264.0</ele>
        <time>2016-07-25T15:24:03Z</time>
      </trkpt>
      <trkpt lat="41.472717" lon="-3.285583">
        <ele>2261.0</ele>
        <time>2016-07-25T15:24:05Z</time>
      </trkpt>
      <trkpt lat="41.472900" lon="-3.285383">
        <ele>2257.0</ele>
        <time>2016-07-25T15:24:07Z</time>
      </trkpt>
      <trkpt lat="41.473067" lon="-3.285183">
        <ele>2254.0</ele>
        <time>2016-07-25T15:24:09Z</time>
      </trkpt>
      <trkpt lat="41.473217" lon="-3.285017">
        <ele>2250.0</ele>
        <time>2016-07-25T15:24:11Z</time>
      </trkpt>
      <trkpt lat="41.473400" lon="-3.284833">
        <ele>2246.0</ele>
        <time>2016-07-25T15:24:13Z</time>
      </trkpt>
      <trkpt lat="41.473567" lon="-3.284650">
        <ele>2242.0</ele>
        <time>2016-07-25T15:24:15Z</time>
      </trkpt>
      <trkpt lat="41.473733" lon="-3.284483">
        <ele>2239.0</ele>
        <time>2016-07-25T15:24:17Z</time>
      </trkpt>
      <trkpt lat="41.473917" lon="-3.284283">
        <ele>2234.0</ele>
        <time>2016-07-25T15:24:19Z</time>
      </trkpt>
      <trkpt lat="41.474100" lon="-3.284083">
        <ele>2231.0</ele>
        <time>2016-07-25T15:24:21Z</time>
      </trkpt>
      <trkpt lat="41.474250" lon="-3.283917">
        <ele>2228.0</ele>
        <time>2016-07-25T15:24:23Z</time>
      </trkpt>
      <trkpt lat="41.474400" lon="-3.283717">
        <ele>2222.0</ele>
        <time>2016-07-25T15:24:25Z</time>
      </trkpt>
      <trkpt lat="41.474583" lon="-3.283517">
        <ele>2215.0</ele>
        <time>2016-07-25T15:24:27Z</time>
      </trkpt>
      <trkpt lat="41.474767" lon="-3.283317">
        <ele>2212.0</ele>
        <time>2016-07-25T15:24:29Z</time>
      </trkpt>
      <trkpt lat="41.474917" lon="-3.283133">
        <ele>2209.0</ele>
        <time>2016-07-25T15:24:31Z</time>
      </trkpt>
      <trkpt lat="41.475100" lon="-3.282933">
        <ele>2204.0</ele>
        <time>2016-07-25T15:24:33Z</time>
      </trkpt>
      <trkpt lat="41.475267" lon="-3.282717">
        <ele>2201.0</ele>
        <time>2016-07-25T15:24:35Z</time>
      </trkpt>
      <trkpt lat="41.475433" lon="-3.282517">
        <ele>2199.0</ele>
        <time>2016-07-25T15:24:37Z</time>
      </trkpt>
      <trkpt lat="41.475600" lon="-3.282300">
        <ele>2194.0</ele>
        <time>2016-07-25T15:24:39Z</time>
      </trkpt>
      <trkpt lat="41.475767" lon="-3.282100">
        <ele>2191.0</ele>
        <time>2016-07-25T15:24:41Z</time>
      </trkpt>
      <trkpt lat="41.475917" lon="-3.281933">
        <ele>2189.0</ele>
        <time>2016-07-25T15:24:43Z</time>
      </trkpt>
      <trkpt lat="41.476100" lon="-3.281750">
        <ele>2184.0</ele>
        <time>2016-07-25T15:24:45Z</time>
      </trkpt>
      <trkpt lat="41.476267" lon="-3.281583">
        <ele>2180.0</ele>
        <time>2016-07-25T15:24:47Z</time>
      </trkpt>
      <trkpt lat="41.476450" lon="-3.281433">
        <ele>2174.0</ele>
        <time>2016-07-25T15:24:49Z</time>
      </trkpt>
      <trkpt lat="41.476633" lon="-3.281267">
        <ele>2171.0</ele>
        <time>2016-07-25T15:24:51Z</time>
      </trkpt>
      <trkpt lat="41.476783" lon="-3.281100">
        <ele>2167.0</ele>
        <time>2016-07-25T15:24:53Z</time>
      </trkpt>
      <trkpt lat="41.476950" lon="-3.280933">
        <ele>2161.0</ele>
        <time>2016-07-25T15:24:55Z</time>
      </trkpt>
      <trkpt lat="41.477133" lon="-3.280767">
        <ele>2156.0</ele>
        <time>2016-07-25T15:24:57Z</time>
      </trkpt>
      <trkpt lat="41.477283" lon="-3.280567">
        <ele>2152.0</ele>
        <time>2016-07-25T15:24:59Z</time>
      </trkpt>
      <trkpt lat="41.477450" lon="-3.280400">
        <ele>2146.0</ele>
        <time>2016-07-25T15:25:01Z</time>
      </trkpt>
      <trkpt lat="41.477617" lon="-3.280200">
        <ele>2140.0</ele>
        <time>2016-07-25T15:25:03Z</time>
      </trkpt>
      <trkpt lat="41.477783" lon="-3.280017">
        <ele>2136.0</ele>
        <time>2016-07-25T15:25:05Z</time>
      </trkpt>
      <trkpt lat="41.477950" lon="-3.279850">
        <ele>2132.0</ele>
        <time>2016-07-25T15:25:07Z</time>
      </trkpt>
      <trkpt lat="41.478100" lon="-3.279667">
        <ele>2127.0</ele>
        <time>2016-07-25T15:25:09Z</time>
      </trkpt>
      <trkpt lat="41.478267" lon="-3.279500">
        <ele>2122.0</ele>
        <time>2016-07-25T15:25:11Z</time>
      </trkpt>
      <trkpt lat="41.478433" lon="-3.279350">
        <ele>2117.0</ele>
        <time>2016-07-25T15:25:13Z</time>
      </trkpt>
      <trkpt lat="41.478600" lon="-3.279200">
        <ele>2111.0</ele>
        <time>2016-07-25T15:25:15Z</time>
      </trkpt>
      <trkpt lat="41.478767" lon="-3.279033">
        <ele>2107.0</ele>
        <time>2016-07-25T15:25:17Z</time>
      </trkpt>
      <trkpt lat="41.478933" lon="-3.278867">
        <ele>2102.0</ele>
        <time>2016-07-25T15:25:19Z</time>
      </trkpt>
      <trkpt lat="41.479083" lon="-3.278717">
        <ele>2097.0</ele>
        <time>2016-07-25T15:25:21Z</time>
      </trkpt>
      <trkpt lat="41.479250" lon="-3.278550">
        <ele>2092.0</ele>
        <time>2016-07-25T15:25:23Z</time>
      </trkpt>
      <trkpt lat="41.479417" lon="-3.278400">
        <ele>2087.0</ele>
        <time>2016-07-25T15:25:25Z</time>
      </trkpt>
      <trkpt lat="41.479567" lon="-3.278250">
        <ele>2082.0</ele>
        <time>2016-07-25T15:25:27Z</time>
      </trkpt>
      <trkpt lat="41.479733" lon="-3.278100">
        <ele>2078.0</ele>
        <time>2016-07-25T15:25:29Z</time>
      </trkpt>
      <trkpt lat="41.479883" lon="-3.277933">
        <ele>2073.0</ele>
        <time>2016-07-25T15:25:31Z</time>
      </trkpt>
      <trkpt lat="41.480033" lon="-3.277783">
        <ele>2068.0</ele>
        <time>2016-07-25T15:25:33Z</time>
      </trkpt>
      <trkpt lat="41.480200" lon="-3.277650">
        <ele>2063.0</ele>
        <time>2016-07-25T15:25:35Z</time>
      </trkpt>
      <trkpt lat="41.480350" lon="-3.277517">
        <ele>2058.0</ele>
        <time>2016-07-25T15:25:37Z</time>
      </trkpt>
      <trkpt lat="41.480517" lon="-3.277383">
        <ele>2053.0</ele>
        <time>2016-07-25T15:25:39Z</time>
      </trkpt>
      <trkpt lat="41.480683" lon="-3.277250">
        <ele>2047.0</ele>
        <time>2016-07-25T15:25:41Z</time>
      </trkpt>
      <trkpt lat="41.480850" lon="-3.277100">
        <ele>2042.0</ele>
        <time>2016-07-25T15:25:43Z</time>
      </trkpt>
      <trkpt lat="41.481017" lon="-3.276967">
        <ele>2038.0</ele>
        <time>2016-07-25T15:25:45Z</time>
      </trkpt>
      <trkpt lat="41.481150" lon="-3.276850">
        <ele>2036.0</ele>
        <time>2016-07-25T15:25:47Z</time>
      </trkpt>
      <trkpt lat="41.481267" lon="-3.276717">
        <ele>2031.0</ele>
        <time>2016-07-25T15:25:49Z</time>
      </trkpt>
      <trkpt lat="41.481400" lon="-3.276600">
        <ele>2026.0</ele>
        <time>2016-07-25T15:25:51Z</time>
      </trkpt>
      <trkpt lat="41.481533" lon="-3.276500">
        <ele>2023.0</ele>
        <time>2016-07-25T15:25:53Z</time>
      </trkpt>
      <trkpt lat="41.481650" lon="-3.276400">
        <ele>2020.0</ele>
        <time>2016-07-25T15:25:55Z</time>
      </trkpt>
      <trkpt lat="41.481800" lon="-3.276300">
        <ele>2014.0</ele>
        <time>2016-07-25T15:25:57Z</time>
      </trkpt>
      <trkpt lat="41.481950" lon="-3.276200">
        <ele>2012.0</ele>
        <time>2016-07-25T15:25:59Z</time>
      </trkpt>
      <trkpt lat="41.482100" lon="-3.276133">
        <ele>2012.0</ele>
        <time>2016-07-25T15:26:01Z</time>
      </trkpt>
      <trkpt lat="41.482233" lon="-3.276067">
        <ele>2012.0</ele>
        <time>2016-07-25T15:26:03Z</time>
      </trkpt>
      <trkpt lat="41.482350" lon="-3.275983">
        <ele>2010.0</ele>
        <time>2016-07-25T15:26:05Z</time>
      </trkpt>
      <trkpt lat="41.482467" lon="-3.275917">
        <ele>2007.0</ele>
        <time>2016-07-25T15:26:07Z</time>
      </trkpt>
      <trkpt lat="41.482600" lon="-3.275800">
        <ele>2005.0</ele>
        <time>2016-07-25T15:26:09Z</time>
      </trkpt>
      <trkpt lat="41.482733" lon="-3.275700">
        <ele>2006.0</ele>
        <time>2016-07-25T15:26:11Z</time>
      </trkpt>
      <trkpt lat="41.482850" lon="-3.275600">
        <ele>2005.0</ele>
        <time>2016-07-25T15:26:13Z</time>
      </trkpt>
      <trkpt lat="41.482950" lon="-3.275467">
        <ele>2003.0</ele>
        <time>2016-07-25T15:26:15Z</time>
      </trkpt>
      <trkpt lat="41.483067" lon="-3.275383">
        <ele>2000.0</ele>
        <time>2016-07-25T15:26:17Z</time>
      </trkpt>
      <trkpt lat="41.483200" lon="-3.275283">
        <ele>1999.0</ele>
        <time>2016-07-25T15:26:19Z</time>
      </trkpt>
      <trkpt lat="41.483300" lon="-3.275167">
        <ele>2000.0</ele>
        <time>2016-07-25T15:26:21Z</time>
      </trkpt>
      <trkpt lat="41.483400" lon="-3.275100">
        <ele>1999.0</ele>
        <time>2016-07-25T15:26:23Z</time>
      </trkpt>
      <trkpt lat="41.483500" lon="-3.275033">
        <ele>1994.0</ele>
        <time>2016-07-25T15:26:25Z</time>
      </trkpt>
      <trkpt lat="41.483617" lon="-3.274950">
        <ele>1991.0</ele>
        <time>2016-07-25T15:26:27Z</time>
      </trkpt>
      <trkpt lat="41.483717" lon="-3.274883">
        <ele>1989.0</ele>
        <time>2016-07-25T15:26:29Z</time>
      </trkpt>
      <trkpt lat="41.483817" lon="-3.274817">
        <ele>1984.0</ele>
        <time>2016-07-25T15:26:31Z</time>
      </trkpt>
      <trkpt lat="41.483967" lon="-3.274733">
        <ele>1981.0</ele>
        <time>2016-07-25T15:26:33Z</time>
      </trkpt>
      <trkpt lat="41.484083" lon="-3.274617">
        <ele>1980.0</ele>
        <time>2016-07-25T15:26:35Z</time>
      </trkpt>
      <trkpt lat="41.484183" lon="-3.274517">
        <ele>1979.0</ele>
        <time>2016-07-25T15:26:37Z</time>
      </trkpt>
      <trkpt lat="41.484300" lon="-3.274417">
        <ele>1974.0</ele>
        <time>2016-07-25T15:26:39Z</time>
      </trkpt>
      <trkpt lat="41.484433" lon="-3.274300">
        <ele>1968.0</ele>
        <time>2016-07-25T15:26:41Z</time>
      </trkpt>
      <trkpt lat="41.484567" lon="-3.274250">
        <ele>1966.0</ele>
        <time>2016-07-25T15:26:43Z</time>
      </trkpt>
      <trkpt lat="41.484667" lon="-3.274183">
        <ele>1962.0</ele>
        <time>2016-07-25T15:26:45Z</time>
      </trkpt>
      <trkpt lat="41.484800" lon="-3.274100">
        <ele>1954.0</ele>
        <time>2016-07-25T15:26:47Z</time>
      </trkpt>
      <trkpt lat="41.484933" lon="-3.274017">
        <ele>1949.0</ele>
        <time>2016-07-25T15:26:49Z</time>
      </trkpt>
      <trkpt lat="41.485050" lon="-3.273933">
        <ele>1943.0</ele>
        <time>2016-07-25T15:26:51Z</time>
      </trkpt>
      <trkpt lat="41.485183" lon="-3.273833">
        <ele>1935.0</ele>
        <time>2016-07-25T15:26:53Z</time>
      </trkpt>
      <trkpt lat="41.485333" lon="-3.273717">
        <ele>1928.0</ele>
        <time>2016-07-25T15:26:55Z</time>
      </trkpt>
      <trkpt lat="41.485483" lon="-3.273633">
        <ele>1926.0</ele>
        <time>2016-07-25T15:26:57Z</time>
      </trkpt>
      <trkpt lat="41.485600" lon="-3.273567">
        <ele>1921.0</ele>
        <time>2016-07-25T15:26:59Z</time>
      </trkpt>
      <trkpt lat="41.485750" lon="-3.273467">
        <ele>1916.0</ele>
        <time>2016-07-25T15:27:01Z</time>
      </trkpt>
      <trkpt lat="41.485883" lon="-3.273367">
        <ele>1913.0</ele>
        <time>2016-07-25T15:27:03Z</time>
      </trkpt>
      <trkpt lat="41.486000" lon="-3.273267">
        <ele>1910.0</ele>
        <time>2016-07-25T15:27:05Z</time>
      </trkpt>
      <trkpt lat="41.486117" lon="-3.273150">
        <ele>1903.0</ele>
        <time>2016-07-25T15:27:07Z</time>
      </trkpt>
      <trkpt lat="41.486250" lon="-3.273033">
        <ele>1896.0</ele>
        <time>2016-07-25T15:27:09Z</time>
      </trkpt>
      <trkpt lat="41.486367" lon="-3.272883">
        <ele>1891.0</ele>
        <time>2016-07-25T15:27:11Z</time>
      </trkpt>
      <trkpt lat="41.486500" lon="-3.272767">
        <ele>1884.0</ele>
        <time>2016-07-25T15:27:13Z</time>
      </trkpt>
      <trkpt lat="41.486633" lon="-3.272650">
        <ele>1879.0</ele>
        <time>2016-07-25T15:27:15Z</time>
      </trkpt>
      <trkpt lat="41.486783" lon="-3.272533">
        <ele>1874.0</ele>
        <time>2016-07-25T15:27:17Z</time>
      </trkpt>
      <trkpt lat="41.486900" lon="-3.272433">
        <ele>1869.0</ele>
        <time>2016-07-25T15:27:19Z</time>
      </trkpt>
      <trkpt lat="41.487050" lon="-3.272317">
        <ele>1862.0</ele>
        <time>2016-07-25T15:27:21Z</time>
      </trkpt>
      <trkpt lat="41.487200" lon="-3.272183">
        <ele>1856.0</ele>
        <time>2016-07-25T15:27:23Z</time>
      </trkpt>
      <trkpt lat="41.487333" lon="-3.272067">
        <ele>1852.0</ele>
        <time>2016-07-25T15:27:25Z</time>
      </trkpt>
      <trkpt lat="41.487467" lon="-3.271967">
        <ele>1847.0</ele>
        <time>2016-07-25T15:27:27Z</time>
      </trkpt>
      <trkpt lat="41.487600" lon="-3.271867">
        <ele>1841.0</ele>
        <time>2016-07-25T15:27:29Z</time>
      </trkpt>
      <trkpt lat="41.487750" lon="-3.271767">
        <ele>1836.0</ele>
        <time>2016-07-25T15:27:31Z</time>
      </trkpt>
      <trkpt lat="41.487900" lon="-3.271633">
        <ele>1833.0</ele>
        <time>2016-07-25T15:27:33Z</time>
      </trkpt>
      <trkpt lat="41.488033" lon="-3.271500">
        <ele>1829.0</ele>
        <time>2016-07-25T15:27:35Z</time>
      </trkpt>
      <trkpt lat="41.488183" lon="-3.271383">
        <ele>1823.0</ele>
        <time>2016-07-25T15:27:37Z</time>
      </trkpt>
      <trkpt lat="41.488350" lon="-3.271250">
        <ele>1820.0</ele>
        <time>2016-07-25T15:27:39Z</time>
      </trkpt>
      <trkpt lat="41.488483" lon="-3.271133">
        <ele>1817.0</ele>
        <time>2016-07-25T15:27:41Z</time>
      </trkpt>
      <trkpt lat="41.488633" lon="-3.271000">
        <ele>1812.0</ele>
        <time>2016-07-25T15:27:43Z</time>
      </trkpt>
      <trkpt lat="41.488783" lon="-3.270900">
        <ele>1809.0</ele>
        <time>2016-07-25T15:27:45Z</time>
      </trkpt>
      <trkpt lat="41.488933" lon="-3.270783">
        <ele>1805.0</ele>
        <time>2016-07-25T15:27:47Z</time>
      </trkpt>
      <trkpt lat="41.489083" lon="-3.270667">
        <ele>1799.0</ele>
        <time>2016-07-25T15:27:49Z</time>
      </trkpt>
      <trkpt lat="41.489233" lon="-3.270550">
        <ele>1795.0</ele>
        <time>2016-07-25T15:27:51Z</time>
      </trkpt>
      <trkpt lat="41.489367" lon="-3.270417">
        <ele>1791.0</ele>
        <time>2016-07-25T15:27:53Z</time>
      </trkpt>
      <trkpt lat="41.489517" lon="-3.270267">
        <ele>1785.0</ele>
        <time>2016-07-25T15:27:55Z</time>
      </trkpt>
      <trkpt lat="41.489667" lon="-3.270117">
        <ele>1780.0</ele>
        <time>2016-07-25T15:27:57Z</time>
      </trkpt>
      <trkpt lat="41.489800" lon="-3.269967">
        <ele>1775.0</ele>
        <time>2016-07-25T15:27:59Z</time>
      </trkpt>
      <trkpt lat="41.489933" lon="-3.269817">
        <ele>1768.0</ele>
        <time>2016-07-25T15:28:01Z</time>
      </trkpt>
      <trkpt lat="41.490083" lon="-3.269650">
        <ele>1763.0</ele>
        <time>2016-07-25T15:28:03Z</time>
      </trkpt>
      <trkpt lat="41.490217" lon="-3.269500">
        <ele>1758.0</ele>
        <time>2016-07-25T15:28:05Z</time>
      </trkpt>
      <trkpt lat="41.490367" lon="-3.269350">
        <ele>1753.0</ele>
        <time>2016-07-25T15:28:07Z</time>
      </trkpt>
      <trkpt lat="41.490517" lon="-3.269200">
        <ele>1748.0</ele>
        <time>2016-07-25T15:28:09Z</time>
      </trkpt>
      <trkpt lat="41.490683" lon="-3.269050">
        <ele>1744.0</ele>
        <time>2016-07-25T15:28:11Z</time>
      </trkpt>
      <trkpt lat="41.490833" lon="-3.268900">
        <ele>1740.0</ele>
        <time>2016-07-25T15:28:13Z</time>
      </trkpt>
      <trkpt lat="41.490967" lon="-3.268733">
        <ele>1736.0</ele>
        <time>2016-07-25T15:28:15Z</time>
      </trkpt>
      <trkpt lat="41.491117" lon="-3.268550">
        <ele>1731.0</ele>
        <time>2016-07-25T15:28:17Z</time>
      </trkpt>
      <trkpt lat="41.491267" lon="-3.268383">
        <ele>1729.0</ele>
        <time>2016-07-25T15:28:19Z</time>
      </trkpt>
      <trkpt lat="41.491400" lon="-3.268250">
        <ele>1727.0</ele>
        <time>2016-07-25T15:28:21Z</time>
      </trkpt>
      <trkpt lat="41.491533" lon="-3.268133">
        <ele>1725.0</ele>
        <time>2016-07-25T15:28:23Z</time>
      </trkpt>
      <trkpt lat="41.491667" lon="-3.268000">
        <ele>1722.0</ele>
        <time>2016-07-25T15:28:25Z</time>
      </trkpt>
      <trkpt lat="41.491817" lon="-3.267867">
        <ele>1718.0</ele>
        <time>2016-07-25T15:28:27Z</time>
      </trkpt>
      <trkpt lat="41.491967" lon="-3.267750">
        <ele>1716.0</ele>
        <time>2016-07-25T15:28:29Z</time>
      </trkpt>
      <trkpt lat="41.492117" lon="-3.267633">
        <ele>1716.0</ele>
        <time>2016-07-25T15:28:31Z</time>
      </trkpt>
      <trkpt lat="41.492283" lon="-3.267533">
        <ele>1717.0</ele>
        <time>2016-07-25T15:28:33Z</time>
      </trkpt>
      <trkpt lat="41.492450" lon="-3.267417">
        <ele>1719.0</ele>
        <time>2016-07-25T15:28:35Z</time>
      </trkpt>
      <trkpt lat="41.492617" lon="-3.267283">
        <ele>1719.0</ele>
        <time>2016-07-25T15:28:37Z</time>
      </trkpt>
      <trkpt lat="41.492783" lon="-3.267200">
        <ele>1722.0</ele>
        <time>2016-07-25T15:28:39Z</time>
      </trkpt>
      <trkpt lat="41.492933" lon="-3.267150">
        <ele>1725.0</ele>
        <time>2016-07-25T15:28:41Z</time>
      </trkpt>
      <trkpt lat="41.493083" lon="-3.267050">
        <ele>1727.0</ele>
        <time>2016-07-25T15:28:43Z</time>
      </trkpt>
      <trkpt lat="41.493217" lon="-3.266833">
        <ele>1728.0</ele>
        <time>2016-07-25T15:28:45Z</time>
      </trkpt>
      <trkpt lat="41.493250" lon="-3.266550">
        <ele>1731.0</ele>
        <time>2016-07-25T15:28:47Z</time>
      </trkpt>
      <trkpt lat="41.493200" lon="-3.266250">
        <ele>1734.0</ele>
        <time>2016-07-25T15:28:49Z</time>
      </trkpt>
      <trkpt lat="41.493083" lon="-3.265983">
        <ele>1738.0</ele>
        <time>2016-07-25T15:28:51Z</time>
      </trkpt>
      <trkpt lat="41.492917" lon="-3.265817">
        <ele>1741.0</ele>
        <time>2016-07-25T15:28:53Z</time>
      </trkpt>
      <trkpt lat="41.492733" lon="-3.265750">
        <ele>1745.0</ele>
        <time>2016-07-25T15:28:55Z</time>
      </trkpt>
      <trkpt lat="41.492567" lon="-3.265750">
        <ele>1751.0</ele>
        <time>2016-07-25T15:28:57Z</time>
      </trkpt>
      <trkpt lat="41.492450" lon="-3.265800">
        <ele>1755.0</ele>
        <time>2016-07-25T15:28:59Z</time>
      </trkpt>
      <trkpt lat="41.492350" lon="-3.265933">
        <ele>1756.0</ele>
        <time>2016-07-25T15:29:01Z</time>
      </trkpt>
      <trkpt lat="41.492333" lon="-3.266117">
        <ele>1759.0</ele>
        <time>2016-07-25T15:29:03Z</time>
      </trkpt>
      <trkpt lat="41.492400" lon="-3.266250">
        <ele>1763.0</ele>
        <time>2016-07-25T15:29:05Z</time>
      </trkpt>
      <trkpt lat="41.492517" lon="-3.266300">
        <ele>1765.0</ele>
        <time>2016-07-25T15:29:07Z</time>
      </trkpt>
      <trkpt lat="41.492633" lon="-3.266333">
        <ele>1766.0</ele>
        <time>2016-07-25T15:29:09Z</time>
      </trkpt>
      <trkpt lat="41.492750" lon="-3.266300">
        <ele>1768.0</ele>
        <time>2016-07-25T15:29:11Z</time>
      </trkpt>
      <trkpt lat="41.492900" lon="-3.266200">
        <ele>1770.0</ele>
        <time>2016-07-25T15:29:13Z</time>
      </trkpt>
      <trkpt lat="41.493050" lon="-3.266117">
        <ele>1773.0</ele>
        <time>2016-07-25T15:29:15Z</time>
      </trkpt>
      <trkpt lat="41.493183" lon="-3.266000">
        <ele>1775.0</ele>
        <time>2016-07-25T15:29:17Z</time>
      </trkpt>
      <trkpt lat="41.493317" lon="-3.265800">
        <ele>1777.0</ele>
        <time>2016-07-25T15:29:19Z</time>
      </trkpt>
      <trkpt lat="41.493383" lon="-3.265500">
        <ele>1780.0</ele>
        <time>2016-07-25T15:29:21Z</time>
      </trkpt>
      <trkpt lat="41.493367" lon="-3.265183">
        <ele>1784.0</ele>
        <time>2016-07-25T15:29:23Z</time>
      </trkpt>
      <trkpt lat="41.493267" lon="-3.264883">
        <ele>1786.0</ele>
        <time>2016-07-25T15:29:25Z</time>
      </trkpt>
      <trkpt lat="41.493100" lon="-3.264633">
        <ele>1790.0</ele>
        <time>2016-07-25T15:29:27Z</time>
      </trkpt>
      <trkpt lat="41.492933" lon="-3.264500">
        <ele>1793.0</ele>
        <time>2016-07-25T15:29:29Z</time>
      </trkpt>
      <trkpt lat="41.492750" lon="-3.264467">
        <ele>1795.0</ele>
        <time>2016-07-25T15:29:31Z</time>
      </trkpt>
      <trkpt lat="41.492633" lon="-3.264533">
        <ele>1801.0</ele>
        <time>2016-07-25T15:29:33Z</time>
      </trkpt>
      <trkpt lat="41.492583" lon="-3.264650">
        <ele>1804.0</ele>
        <time>2016-07-25T15:29:35Z</time>
      </trkpt>
      <trkpt lat="41.492600" lon="-3.264750">
        <ele>1808.0</ele>
        <time>2016-07-25T15:29:37Z</time>
      </trkpt>
      <trkpt lat="41.492683" lon="-3.264800">
        <ele>1810.0</ele>
        <time>2016-07-25T15:29:39Z</time>
      </trkpt>
      <trkpt lat="41.492817" lon="-3.264817">
        <ele>1810.0</ele>
        <time>2016-07-25T15:29:41Z</time>
      </trkpt>
      <trkpt lat="41.492967" lon="-3.264733">
        <ele>1811.0</ele>
        <time>2016-07-25T15:29:43Z</time>
      </trkpt>
      <trkpt lat="41.493150" lon="-3.264683">
        <ele>1813.0</ele>
        <time>2016-07-25T15:29:45Z</time>
      </trkpt>
      <trkpt lat="41.493317" lon="-3.264617">
        <ele>1817.0</ele>
        <time>2016-07-25T15:29:47Z</time>
      </trkpt>
      <trkpt lat="41.493450" lon="-3.264467">
        <ele>1820.0</ele>
        <time>2016-07-25T15:29:49Z</time>
      </trkpt>
      <trkpt lat="41.493517" lon="-3.264267">
        <ele>1820.0</ele>
        <time>2016-07-25T15:29:51Z</time>
      </trkpt>
      <trkpt lat="41.493550" lon="-3.264033">
        <ele>1814.0</ele>
        <time>2016-07-25T15:29:53Z</time>
      </trkpt>
      <trkpt lat="41.493500" lon="-3.263717">
        <ele>1806.0</ele>
        <time>2016-07-25T15:29:55Z</time>
      </trkpt>
      <trkpt lat="41.493367" lon="-3.263433">
        <ele>1804.0</ele>
        <time>2016-07-25T15:29:57Z</time>
      </trkpt>
      <trkpt lat="41.493217" lon="-3.263183">
        <ele>1804.0</ele>
        <time>2016-07-25T15:29:59Z</time>
      </trkpt>
      <trkpt lat="41.493050" lon="-3.263000">
        <ele>1804.0</ele>
        <time>2016-07-25T15:30:01Z</time>
      </trkpt>
      <trkpt lat="41.492833" lon="-3.262883">
        <ele>1800.0</ele>
        <time>2016-07-25T15:30:03Z</time>
      </trkpt>
      <trkpt lat="41.492617" lon="-3.262867">
        <ele>1798.0</ele>
        <time>2016-07-25T15:30:05Z</time>
      </trkpt>
      <trkpt lat="41.492417" lon="-3.262900">
        <ele>1799.0</ele>
        <time>2016-07-25T15:30:07Z</time>
      </trkpt>
      <trkpt lat="41.492267" lon="-3.263033">
        <ele>1802.0</ele>
        <time>2016-07-25T15:30:09Z</time>
      </trkpt>
      <trkpt lat="41.492200" lon="-3.263183">
        <ele>1807.0</ele>
        <time>2016-07-25T15:30:11Z</time>
      </trkpt>
      <trkpt lat="41.492200" lon="-3.263317">
        <ele>1811.0</ele>
        <time>2016-07-25T15:30:13Z</time>
      </trkpt>
      <trkpt lat="41.492250" lon="-3.263467">
        <ele>1813.0</ele>
        <time>2016-07-25T15:30:15Z</time>
      </trkpt>
      <trkpt lat="41.492383" lon="-3.263550">
        <ele>1816.0</ele>
        <time>2016-07-25T15:30:17Z</time>
      </trkpt>
      <trkpt lat="41.492533" lon="-3.263533">
        <ele>1821.0</ele>
        <time>2016-07-25T15:30:19Z</time>
      </trkpt>
      <trkpt lat="41.492650" lon="-3.263483">
        <ele>1827.0</ele>
        <time>2016-07-25T15:30:21Z</time>
      </trkpt>
      <trkpt lat="41.492750" lon="-3.263417">
        <ele>1830.0</ele>
        <time>2016-07-25T15:30:23Z</time>
      </trkpt>
      <trkpt lat="41.492850" lon="-3.263233">
        <ele>1826.0</ele>
        <time>2016-07-25T15:30:25Z</time>
      </trkpt>
      <trkpt lat="41.492867" lon="-3.262950">
        <ele>1820.0</ele>
        <time>2016-07-25T15:30:27Z</time>
      </trkpt>
      <trkpt lat="41.492783" lon="-3.262667">
        <ele>1817.0</ele>
        <time>2016-07-25T15:30:29Z</time>
      </trkpt>
      <trkpt lat="41.492583" lon="-3.262467">
        <ele>1814.0</ele>
        <time>2016-07-25T15:30:31Z</time>
      </trkpt>
      <trkpt lat="41.492350" lon="-3.262367">
        <ele>1813.0</ele>
        <time>2016-07-25T15:30:33Z</time>
      </trkpt>
      <trkpt lat="41.492133" lon="-3.262350">
        <ele>1817.0</ele>
        <time>2016-07-25T15:30:35Z</time>
      </trkpt>
      <trkpt lat="41.492000" lon="-3.262417">
        <ele>1820.0</ele>
        <time>2016-07-25T15:30:37Z</time>
      </trkpt>
      <trkpt lat="41.491867" lon="-3.262533">
        <ele>1820.0</ele>
        <time>2016-07-25T15:30:39Z</time>
      </trkpt>
      <trkpt lat="41.491800" lon="-3.262717">
        <ele>1820.0</ele>
        <time>2016-07-25T15:30:41Z</time>
      </trkpt>
      <trkpt lat="41.491750" lon="-3.262883">
        <ele>1823.0</ele>
        <time>2016-07-25T15:30:43Z</time>
      </trkpt>
      <trkpt lat="41.491750" lon="-3.263067">
        <ele>1824.0</ele>
        <time>2016-07-25T15:30:45Z</time>
      </trkpt>
      <trkpt lat="41.491833" lon="-3.263267">
        <ele>1826.0</ele>
        <time>2016-07-25T15:30:47Z</time>
      </trkpt>
      <trkpt lat="41.491900" lon="-3.263400">
        <ele>1831.0</ele>
        <time>2016-07-25T15:30:49Z</time>
      </trkpt>
      <trkpt lat="41.492000" lon="-3.263483">
        <ele>1832.0</ele>
        <time>2016-07-25T15:30:51Z</time>
      </trkpt>
      <trkpt lat="41.492167" lon="-3.263550">
        <ele>1833.0</ele>
        <time>2016-07-25T15:30:53Z</time>
      </trkpt>
      <trkpt lat="41.492317" lon="-3.263600">
        <ele>1839.0</ele>
        <time>2016-07-25T15:30:55Z</time>
      </trkpt>
      <trkpt lat="41.492467" lon="-3.263633">
        <ele>1843.0</ele>
        <time>2016-07-25T15:30:57Z</time>
      </trkpt>
      <trkpt lat="41.492633" lon="-3.263633">
        <ele>1847.0</ele>
        <time>2016-07-25T15:30:59Z</time>
      </trkpt>
      <trkpt lat="41.492750" lon="-3.263533">
        <ele>1850.0</ele>
        <time>2016-07-25T15:31:01Z</time>
      </trkpt>
      <trkpt lat="41.492850" lon="-3.263367">
        <ele>1849.0</ele>
        <time>2016-07-25T15:31:03Z</time>
      </trkpt>
      <trkpt lat="41.492883" lon="-3.263083">
        <ele>1846.0</ele>
        <time>2016-07-25T15:31:05Z</time>
      </trkpt>
      <trkpt lat="41.492833" lon="-3.262800">
        <ele>1846.0</ele>
        <time>2016-07-25T15:31:07Z</time>
      </trkpt>
      <trkpt lat="41.492700" lon="-3.262550">
        <ele>1846.0</ele>
        <time>2016-07-25T15:31:09Z</time>
      </trkpt>
      <trkpt lat="41.492533" lon="-3.262383">
        <ele>1847.0</ele>
        <time>2016-07-25T15:31:11Z</time>
      </trkpt>
      <trkpt lat="41.492350" lon="-3.262333">
        <ele>1846.0</ele>
        <time>2016-07-25T15:31:13Z</time>
      </trkpt>
      <trkpt lat="41.492167" lon="-3.262350">
        <ele>1845.0</ele>
        <time>2016-07-25T15:31:15Z</time>
      </trkpt>
      <trkpt lat="41.492017" lon="-3.262433">
        <ele>1844.0</ele>
        <time>2016-07-25T15:31:17Z</time>
      </trkpt>
      <trkpt lat="41.491917" lon="-3.262600">
        <ele>1843.0</ele>
        <time>2016-07-25T15:31:19Z</time>
      </trkpt>
      <trkpt lat="41.491900" lon="-3.262800">
        <ele>1843.0</ele>
        <time>2016-07-25T15:31:21Z</time>
      </trkpt>
      <trkpt lat="41.491950" lon="-3.263017">
        <ele>1846.0</ele>
        <time>2016-07-25T15:31:23Z</time>
      </trkpt>
      <trkpt lat="41.492017" lon="-3.263117">
        <ele>1850.0</ele>
        <time>2016-07-25T15:31:25Z</time>
      </trkpt>
      <trkpt lat="41.492117" lon="-3.263167">
        <ele>1850.0</ele>
        <time>2016-07-25T15:31:27Z</time>
      </trkpt>
      <trkpt lat="41.492233" lon="-3.263200">
        <ele>1851.0</ele>
        <time>2016-07-25T15:31:29Z</time>
      </trkpt>
      <trkpt lat="41.492333" lon="-3.263183">
        <ele>1852.0</ele>
        <time>2016-07-25T15:31:31Z</time>
      </trkpt>
      <trkpt lat="41.492433" lon="-3.263183">
        <ele>1852.0</ele>
        <time>2016-07-25T15:31:33Z</time>
      </trkpt>
      <trkpt lat="41.492533" lon="-3.263183">
        <ele>1853.0</ele>
        <time>2016-07-25T15:31:35Z</time>
      </trkpt>
      <trkpt lat="41.492667" lon="-3.263167">
        <ele>1851.0</ele>
        <time>2016-07-25T15:31:37Z</time>
      </trkpt>
      <trkpt lat="41.492800" lon="-3.263117">
        <ele>1851.0</ele>
        <time>2016-07-25T15:31:39Z</time>
      </trkpt>
      <trkpt lat="41.492917" lon="-3.263100">
        <ele>1852.0</ele>
        <time>2016-07-25T15:31:41Z</time>
      </trkpt>
      <trkpt lat="41.493050" lon="-3.263067">
        <ele>1851.0</ele>
        <time>2016-07-25T15:31:43Z</time>
      </trkpt>
      <trkpt lat="41.493183" lon="-3.263050">
        <ele>1852.0</ele>
        <time>2016-07-25T15:31:45Z</time>
      </trkpt>
      <trkpt lat="41.493300" lon="-3.263033">
        <ele>1852.0</ele>
        <time>2016-07-25T15:31:47Z</time>
      </trkpt>
      <trkpt lat="41.493417" lon="-3.262983">
        <ele>1850.0</ele>
        <time>2016-07-25T15:31:49Z</time>
      </trkpt>
      <trkpt lat="41.493533" lon="-3.262900">
        <ele>1846.0</ele>
        <time>2016-07-25T15:31:51Z</time>
      </trkpt>
      <trkpt lat="41.493633" lon="-3.262767">
        <ele>1843.0</ele>
        <time>2016-07-25T15:31:53Z</time>
      </trkpt>
      <trkpt lat="41.493717" lon="-3.262633">
        <ele>1837.0</ele>
        <time>2016-07-25T15:31:55Z</time>
      </trkpt>
      <trkpt lat="41.493817" lon="-3.262517">
        <ele>1828.0</ele>
        <time>2016-07-25T15:31:57Z</time>
      </trkpt>
      <trkpt lat="41.493967" lon="-3.262400">
        <ele>1822.0</ele>
        <time>2016-07-25T15:31:59Z</time>
      </trkpt>
      <trkpt lat="41.494083" lon="-3.262317">
        <ele>1818.0</ele>
        <time>2016-07-25T15:32:01Z</time>
      </trkpt>
      <trkpt lat="41.494233" lon="-3.262267">
        <ele>1815.0</ele>
        <time>2016-07-25T15:32:03Z</time>
      </trkpt>
      <trkpt lat="41.494417" lon="-3.262200">
        <ele>1813.0</ele>
        <time>2016-07-25T15:32:05Z</time>
      </trkpt>
      <trkpt lat="41.494550" lon="-3.262167">
        <ele>1812.0</ele>
        <time>2016-07-25T15:32:07Z</time>
      </trkpt>
      <trkpt lat="41.494683" lon="-3.262133">
        <ele>1811.0</ele>
        <time>2016-07-25T15:32:09Z</time>
      </trkpt>
      <trkpt lat="41.494850" lon="-3.262067">
        <ele>1807.0</ele>
        <time>2016-07-25T15:32:11Z</time>
      </trkpt>
      <trkpt lat="41.495000" lon="-3.262017">
        <ele>1803.0</ele>
        <time>2016-07-25T15:32:13Z</time>
      </trkpt>
      <trkpt lat="41.495183" lon="-3.261950">
        <ele>1799.0</ele>
        <time>2016-07-25T15:32:15Z</time>
      </trkpt>
      <trkpt lat="41.495367" lon="-3.261900">
        <ele>1798.0</ele>
        <time>2016-07-25T15:32:17Z</time>
      </trkpt>
      <trkpt lat="41.495517" lon="-3.261833">
        <ele>1798.0</ele>
        <time>2016-07-25T15:32:19Z</time>
      </trkpt>
      <trkpt lat="41.495683" lon="-3.261767">
        <ele>1794.0</ele>
        <time>2016-07-25T15:32:21Z</time>
      </trkpt>
      <trkpt lat="41.495867" lon="-3.261750">
        <ele>1792.0</ele>
        <time>2016-07-25T15:32:23Z</time>
      </trkpt>
      <trkpt lat="41.496000" lon="-3.261750">
        <ele>1793.0</ele>
        <time>2016-07-25T15:32:25Z</time>
      </trkpt>
      <trkpt lat="41.496117" lon="-3.261717">
        <ele>1795.0</ele>
        <time>2016-07-25T15:32:27Z</time>
      </trkpt>
      <trkpt lat="41.496217" lon="-3.261683">
        <ele>1795.0</ele>
        <time>2016-07-25T15:32:29Z</time>
      </trkpt>
      <trkpt lat="41.496367" lon="-3.261650">
        <ele>1792.0</ele>
        <time>2016-07-25T15:32:31Z</time>
      </trkpt>
      <trkpt lat="41.496500" lon="-3.261650">
        <ele>1790.0</ele>
        <time>2016-07-25T15:32:33Z</time>
      </trkpt>
      <trkpt lat="41.496600" lon="-3.261700">
        <ele>1788.0</ele>
        <time>2016-07-25T15:32:35Z</time>
      </trkpt>
      <trkpt lat="41.496717" lon="-3.261750">
        <ele>1782.0</ele>
        <time>2016-07-25T15:32:37Z</time>
      </trkpt>
      <trkpt lat="41.496867" lon="-3.261783">
        <ele>1777.0</ele>
        <time>2016-07-25T15:32:39Z</time>
      </trkpt>
      <trkpt lat="41.496983" lon="-3.261817">
        <ele>1775.0</ele>
        <time>2016-07-25T15:32:41Z</time>
      </trkpt>
      <trkpt lat="41.497083" lon="-3.261833">
        <ele>1771.0</ele>
        <time>2016-07-25T15:32:43Z</time>
      </trkpt>
      <trkpt lat="41.497217" lon="-3.261833">
        <ele>1764.0</ele>
        <time>2016-07-25T15:32:45Z</time>
      </trkpt>
      <trkpt lat="41.497350" lon="-3.261833">
        <ele>1760.0</ele>
        <time>2016-07-25T15:32:47Z</time>
      </trkpt>
      <trkpt lat="41.497483" lon="-3.261833">
        <ele>1756.0</ele>
        <time>2016-07-25T15:32:49Z</time>
      </trkpt>
      <trkpt lat="41.497617" lon="-3.261817">
        <ele>1750.0</ele>
        <time>2016-07-25T15:32:51Z</time>
      </trkpt>
      <trkpt lat="41.497767" lon="-3.261833">
        <ele>1745.0</ele>
        <time>2016-07-25T15:32:53Z</time>
      </trkpt>
      <trkpt lat="41.497883" lon="-3.261833">
        <ele>1740.0</ele>
        <time>2016-07-25T15:32:55Z</time>
      </trkpt>
      <trkpt lat="41.498017" lon="-3.261833">
        <ele>1732.0</ele>
        <time>2016-07-25T15:32:57Z</time>
      </trkpt>
      <trkpt lat="41.498167" lon="-3.261833">
        <ele>1722.0</ele>
        <time>2016-07-25T15:32:59Z</time>
      </trkpt>
      <trkpt lat="41.498333" lon="-3.261783">
        <ele>1715.0</ele>
        <time>2016-07-25T15:33:01Z</time>
      </trkpt>
      <trkpt lat="41.498467" lon="-3.261717">
        <ele>1708.0</ele>
        <time>2016-07-25T15:33:03Z</time>
      </trkpt>
      <trkpt lat="41.498617" lon="-3.261683">
        <ele>1701.0</ele>
        <time>2016-07-25T15:33:05Z</time>
      </trkpt>
      <trkpt lat="41.498767" lon="-3.261650">
        <ele>1697.0</ele>
        <time>2016-07-25T15:33:07Z</time>
      </trkpt>
      <trkpt lat="41.498883" lon="-3.261633">
        <ele>1692.0</ele>
        <time>2016-07-25T15:33:09Z</time>
      </trkpt>
      <trkpt lat="41.499017" lon="-3.261617">
        <ele>1684.0</ele>
        <time>2016-07-25T15:33:11Z</time>
      </trkpt>
      <trkpt lat="41.499150" lon="-3.261583">
        <ele>1679.0</ele>
        <time>2016-07-25T15:33:13Z</time>
      </trkpt>
      <trkpt lat="41.499267" lon="-3.261567">
        <ele>1672.0</ele>
        <time>2016-07-25T15:33:15Z</time>
      </trkpt>
      <trkpt lat="41.499383" lon="-3.261550">
        <ele>1661.0</ele>
        <time>2016-07-25T15:33:17Z</time>
      </trkpt>
      <trkpt lat="41.499533" lon="-3.261500">
        <ele>1653.0</ele>
        <time>2016-07-25T15:33:19Z</time>
      </trkpt>
      <trkpt lat="41.499683" lon="-3.261450">
        <ele>1648.0</ele>
        <time>2016-07-25T15:33:21Z</time>
      </trkpt>
      <trkpt lat="41.499817" lon="-3.261383">
        <ele>1642.0</ele>
        <time>2016-07-25T15:33:23Z</time>
      </trkpt>
      <trkpt lat="41.499917" lon="-3.261350">
        <ele>1635.0</ele>
        <time>2016-07-25T15:33:25Z</time>
      </trkpt>
      <trkpt lat="41.500033" lon="-3.261350">
        <ele>1626.0</ele>
        <time>2016-07-25T15:33:27Z</time>
      </trkpt>
      <trkpt lat="41.500167" lon="-3.261333">
        <ele>1619.0</ele>
        <time>2016-07-25T15:33:29Z</time>
      </trkpt>
      <trkpt lat="41.500283" lon="-3.261283">
        <ele>1613.0</ele>
        <time>2016-07-25T15:33:31Z</time>
      </trkpt>
      <trkpt lat="41.500417" lon="-3.261267">
        <ele>1606.0</ele>
        <time>2016-07-25T15:33:33Z</time>
      </trkpt>
      <trkpt lat="41.500567" lon="-3.261233">
        <ele>1601.0</ele>
        <time>2016-07-25T15:33:35Z</time>
      </trkpt>
      <trkpt lat="41.500683" lon="-3.261200">
        <ele>1595.0</ele>
        <time>2016-07-25T15:33:37Z</time>
      </trkpt>
      <trkpt lat="41.500800" lon="-3.261167">
        <ele>1587.0</ele>
        <time>2016-07-25T15:33:39Z</time>
      </trkpt>
      <trkpt lat="41.500917" lon="-3.261150">
        <ele>1578.0</ele>
        <time>2016-07-25T15:33:41Z</time>
      </trkpt>
      <trkpt lat="41.501067" lon="-3.261133">
        <ele>1571.0</ele>
        <time>2016-07-25T15:33:43Z</time>
      </trkpt>
      <trkpt lat="41.501200" lon="-3.261133">
        <ele>1566.0</ele>
        <time>2016-07-25T15:33:45Z</time>
      </trkpt>
      <trkpt lat="41.501333" lon="-3.261150">
        <ele>1560.0</ele>
        <time>2016-07-25T15:33:47Z</time>
      </trkpt>
      <trkpt lat="41.501467" lon="-3.261150">
        <ele>1555.0</ele>
        <time>2016-07-25T15:33:49Z</time>
      </trkpt>
      <trkpt lat="41.501583" lon="-3.261150">
        <ele>1552.0</ele>
        <time>2016-07-25T15:33:51Z</time>
      </trkpt>
      <trkpt lat="41.501717" lon="-3.261150">
        <ele>1548.0</ele>
        <time>2016-07-25T15:33:53Z</time>
      </trkpt>
      <trkpt lat="41.501850" lon="-3.261150">
        <ele>1546.0</ele>
        <time>2016-07-25T15:33:55Z</time>
      </trkpt>
      <trkpt lat="41.501983" lon="-3.261150">
        <ele>1546.0</ele>
        <time>2016-07-25T15:33:57Z</time>
      </trkpt>
      <trkpt lat="41.502067" lon="-3.261167">
        <ele>1546.0</ele>
        <time>2016-07-25T15:33:59Z</time>
      </trkpt>
      <trkpt lat="41.502150" lon="-3.261167">
        <ele>1541.0</ele>
        <time>2016-07-25T15:34:01Z</time>
      </trkpt>
      <trkpt lat="41.502283" lon="-3.261200">
        <ele>1537.0</ele>
        <time>2016-07-25T15:34:03Z</time>
      </trkpt>
      <trkpt lat="41.502417" lon="-3.261233">
        <ele>1539.0</ele>
        <time>2016-07-25T15:34:05Z</time>
      </trkpt>
      <trkpt lat="41.502533" lon="-3.261267">
        <ele>1541.0</ele>
        <time>2016-07-25T15:34:07Z</time>
      </trkpt>
      <trkpt lat="41.502650" lon="-3.261300">
        <ele>1543.0</ele>
        <time>2016-07-25T15:34:09Z</time>
      </trkpt>
      <trkpt lat="41.502733" lon="-3.261333">
        <ele>1546.0</ele>
        <time>2016-07-25T15:34:11Z</time>
      </trkpt>
      <trkpt lat="41.502817" lon="-3.261367">
        <ele>1546.0</ele>
        <time>2016-07-25T15:34:13Z</time>
      </trkpt>
      <trkpt lat="41.502933" lon="-3.261467">
        <ele>1545.0</ele>
        <time>2016-07-25T15:34:15Z</time>
      </trkpt>
      <trkpt lat="41.503017" lon="-3.261600">
        <ele>1547.0</ele>
        <time>2016-07-25T15:34:17Z</time>
      </trkpt>
      <trkpt lat="41.503133" lon="-3.261717">
        <ele>1548.0</ele>
        <time>2016-07-25T15:34:19Z</time>
      </trkpt>
      <trkpt lat="41.503283" lon="-3.261817">
        <ele>1550.0</ele>
        <time>2016-07-25T15:34:21Z</time>
      </trkpt>
      <trkpt lat="41.503400" lon="-3.261867">
        <ele>1555.0</ele>
        <time>2016-07-25T15:34:23Z</time>
      </trkpt>
      <trkpt lat="41.503500" lon="-3.261800">
        <ele>1557.0</ele>
        <time>2016-07-25T15:34:25Z</time>
      </trkpt>
      <trkpt lat="41.503567" lon="-3.261667">
        <ele>1560.0</ele>
        <time>2016-07-25T15:34:27Z</time>
      </trkpt>
      <trkpt lat="41.503600" lon="-3.261517">
        <ele>1564.0</ele>
        <time>2016-07-25T15:34:29Z</time>
      </trkpt>
      <trkpt lat="41.503600" lon="-3.261317">
        <ele>1564.0</ele>
        <time>2016-07-25T15:34:31Z</time>
      </trkpt>
      <trkpt lat="41.503500" lon="-3.261083">
        <ele>1566.0</ele>
        <time>2016-07-25T15:34:33Z</time>
      </trkpt>
      <trkpt lat="41.503350" lon="-3.260917">
        <ele>1569.0</ele>
        <time>2016-07-25T15:34:35Z</time>
      </trkpt>
      <trkpt lat="41.503133" lon="-3.260833">
        <ele>1570.0</ele>
        <time>2016-07-25T15:34:37Z</time>
      </trkpt>
      <trkpt lat="41.502900" lon="-3.260817">
        <ele>1570.0</ele>
        <time>2016-07-25T15:34:39Z</time>
      </trkpt>
      <trkpt lat="41.502667" lon="-3.260917">
        <ele>1569.0</ele>
        <time>2016-07-25T15:34:41Z</time>
      </trkpt>
      <trkpt lat="41.502483" lon="-3.261100">
        <ele>1569.0</ele>
        <time>2016-07-25T15:34:43Z</time>
      </trkpt>
      <trkpt lat="41.502350" lon="-3.261333">
        <ele>1569.0</ele>
        <time>2016-07-25T15:34:45Z</time>
      </trkpt>
      <trkpt lat="41.502300" lon="-3.261583">
        <ele>1570.0</ele>
        <time>2016-07-25T15:34:47Z</time>
      </trkpt>
      <trkpt lat="41.502317" lon="-3.261783">
        <ele>1572.0</ele>
        <time>2016-07-25T15:34:49Z</time>
      </trkpt>
      <trkpt lat="41.502383" lon="-3.261950">
        <ele>1574.0</ele>
        <time>2016-07-25T15:34:51Z</time>
      </trkpt>
      <trkpt lat="41.502467" lon="-3.262083">
        <ele>1577.0</ele>
        <time>2016-07-25T15:34:53Z</time>
      </trkpt>
      <trkpt lat="41.502567" lon="-3.262167">
        <ele>1579.0</ele>
        <time>2016-07-25T15:34:55Z</time>
      </trkpt>
      <trkpt lat="41.502683" lon="-3.262250">
        <ele>1581.0</ele>
        <time>2016-07-25T15:34:57Z</time>
      </trkpt>
      <trkpt lat="41.502783" lon="-3.262317">
        <ele>1584.0</ele>
        <time>2016-07-25T15:34:59Z</time>
      </trkpt>
      <trkpt lat="41.502883" lon="-3.262350">
        <ele>1587.0</ele>
        <time>2016-07-25T15:35:01Z</time>
      </trkpt>
      <trkpt lat="41.502950" lon="-3.262300">
        <ele>1589.0</ele>
        <time>2016-07-25T15:35:03Z</time>
      </trkpt>
      <trkpt lat="41.503000" lon="-3.262133">
        <ele>1590.0</ele>
        <time>2016-07-25T15:35:05Z</time>
      </trkpt>
      <trkpt lat="41.502983" lon="-3.261950">
        <ele>1590.0</ele>
        <time>2016-07-25T15:35:07Z</time>
      </trkpt>
      <trkpt lat="41.502917" lon="-3.261750">
        <ele>1591.0</ele>
        <time>2016-07-25T15:35:09Z</time>
      </trkpt>
      <trkpt lat="41.502767" lon="-3.261567">
        <ele>1591.0</ele>
        <time>2016-07-25T15:35:11Z</time>
      </trkpt>
      <trkpt lat="41.502583" lon="-3.261433">
        <ele>1590.0</ele>
        <time>2016-07-25T15:35:13Z</time>
      </trkpt>
      <trkpt lat="41.502367" lon="-3.261400">
        <ele>1591.0</ele>
        <time>2016-07-25T15:35:15Z</time>
      </trkpt>
      <trkpt lat="41.502167" lon="-3.261483">
        <ele>1592.0</ele>
        <time>2016-07-25T15:35:17Z</time>
      </trkpt>
      <trkpt lat="41.502000" lon="-3.261650">
        <ele>1594.0</ele>
        <time>2016-07-25T15:35:19Z</time>
      </trkpt>
      <trkpt lat="41.501900" lon="-3.261883">
        <ele>1596.0</ele>
        <time>2016-07-25T15:35:21Z</time>
      </trkpt>
      <trkpt lat="41.501867" lon="-3.262117">
        <ele>1601.0</ele>
        <time>2016-07-25T15:35:23Z</time>
      </trkpt>
      <trkpt lat="41.501917" lon="-3.262283">
        <ele>1606.0</ele>
        <time>2016-07-25T15:35:25Z</time>
      </trkpt>
      <trkpt lat="41.502017" lon="-3.262417">
        <ele>1609.0</ele>
        <time>2016-07-25T15:35:27Z</time>
      </trkpt>
      <trkpt lat="41.502117" lon="-3.262483">
        <ele>1612.0</ele>
        <time>2016-07-25T15:35:29Z</time>
      </trkpt>
      <trkpt lat="41.502200" lon="-3.262417">
        <ele>1613.0</ele>
        <time>2016-07-25T15:35:31Z</time>
      </trkpt>
      <trkpt lat="41.502267" lon="-3.262300">
        <ele>1612.0</ele>
        <time>2016-07-25T15:35:33Z</time>
      </trkpt>
      <trkpt lat="41.502267" lon="-3.262100">
        <ele>1609.0</ele>
        <time>2016-07-25T15:35:35Z</time>
      </trkpt>
      <trkpt lat="41.502167" lon="-3.261867">
        <ele>1607.0</ele>
        <time>2016-07-25T15:35:37Z</time>
      </trkpt>
      <trkpt lat="41.502017" lon="-3.261683">
        <ele>1607.0</ele>
        <time>2016-07-25T15:35:39Z</time>
      </trkpt>
      <trkpt lat="41.501833" lon="-3.261583">
        <ele>1608.0</ele>
        <time>2016-07-25T15:35:41Z</time>
      </trkpt>
      <trkpt lat="41.501633" lon="-3.261550">
        <ele>1609.0</ele>
        <time>2016-07-25T15:35:43Z</time>
      </trkpt>
      <trkpt lat="41.501433" lon="-3.261650">
        <ele>1608.0</ele>
        <time>2016-07-25T15:35:45Z</time>
      </trkpt>
      <trkpt lat="41.501267" lon="-3.261817">
        <ele>1611.0</ele>
        <time>2016-07-25T15:35:47Z</time>
      </trkpt>
      <trkpt lat="41.501133" lon="-3.261983">
        <ele>1616.0</ele>
        <time>2016-07-25T15:35:49Z</time>
      </trkpt>
      <trkpt lat="41.501083" lon="-3.262167">
        <ele>1617.0</ele>
        <time>2016-07-25T15:35:51Z</time>
      </trkpt>
      <trkpt lat="41.501100" lon="-3.262333">
        <ele>1618.0</ele>
        <time>2016-07-25T15:35:53Z</time>
      </trkpt>
      <trkpt lat="41.501200" lon="-3.262400">
        <ele>1620.0</ele>
        <time>2016-07-25T15:35:55Z</time>
      </trkpt>
      <trkpt lat="41.501267" lon="-3.262367">
        <ele>1623.0</ele>
        <time>2016-07-25T15:35:57Z</time>
      </trkpt>
      <trkpt lat="41.501350" lon="-3.262350">
        <ele>1620.0</ele>
        <time>2016-07-25T15:35:59Z</time>
      </trkpt>
      <trkpt lat="41.501517" lon="-3.262283">
        <ele>1619.0</ele>
        <time>2016-07-25T15:36:01Z</time>
      </trkpt>
      <trkpt lat="41.501667" lon="-3.262167">
        <ele>1621.0</ele>
        <time>2016-07-25T15:36:03Z</time>
      </trkpt>
      <trkpt lat="41.501800" lon="-3.262067">
        <ele>1621.0</ele>
        <time>2016-07-25T15:36:05Z</time>
      </trkpt>
      <trkpt lat="41.501933" lon="-3.261883">
        <ele>1620.0</ele>
        <time>2016-07-25T15:36:07Z</time>
      </trkpt>
      <trkpt lat="41.502050" lon="-3.261633">
        <ele>1622.0</ele>
        <time>2016-07-25T15:36:09Z</time>
      </trkpt>
      <trkpt lat="41.502100" lon="-3.261450">
        <ele>1623.0</ele>
        <time>2016-07-25T15:36:11Z</time>
      </trkpt>
      <trkpt lat="41.502133" lon="-3.261200">
        <ele>1621.0</ele>
        <time>2016-07-25T15:36:13Z</time>
      </trkpt>
      <trkpt lat="41.502100" lon="-3.260933">
        <ele>1623.0</ele>
        <time>2016-07-25T15:36:15Z</time>
      </trkpt>
      <trkpt lat="41.502017" lon="-3.260733">
        <ele>1626.0</ele>
        <time>2016-07-25T15:36:17Z</time>
      </trkpt>
      <trkpt lat="41.501917" lon="-3.260583">
        <ele>1629.0</ele>
        <time>2016-07-25T15:36:19Z</time>
      </trkpt>
      <trkpt lat="41.501800" lon="-3.260450">
        <ele>1630.0</ele>
        <time>2016-07-25T15:36:21Z</time>
      </trkpt>
      <trkpt lat="41.501617" lon="-3.260350">
        <ele>1632.0</ele>
        <time>2016-07-25T15:36:23Z</time>
      </trkpt>
      <trkpt lat="41.501450" lon="-3.260350">
        <ele>1635.0</ele>
        <time>2016-07-25T15:36:25Z</time>
      </trkpt>
      <trkpt lat="41.501283" lon="-3.260417">
        <ele>1637.0</ele>
        <time>2016-07-25T15:36:27Z</time>
      </trkpt>
      <trkpt lat="41.501150" lon="-3.260583">
        <ele>1638.0</ele>
        <time>2016-07-25T15:36:29Z</time>
      </trkpt>
      <trkpt lat="41.501083" lon="-3.260783">
        <ele>1640.0</ele>
        <time>2016-07-25T15:36:31Z</time>
      </trkpt>
      <trkpt lat="41.501100" lon="-3.260933">
        <ele>1644.0</ele>
        <time>2016-07-25T15:36:33Z</time>
      </trkpt>
      <trkpt lat="41.501167" lon="-3.261017">
        <ele>1643.0</ele>
        <time>2016-07-25T15:36:35Z</time>
      </trkpt>
      <trkpt lat="41.501300" lon="-3.261067">
        <ele>1640.0</ele>
        <time>2016-07-25T15:36:37Z</time>
      </trkpt>
      <trkpt lat="41.501483" lon="-3.261100">
        <ele>1639.0</ele>
        <time>2016-07-25T15:36:39Z</time>
      </trkpt>
      <trkpt lat="41.501633" lon="-3.261117">
        <ele>1642.0</ele>
        <time>2016-07-25T15:36:41Z</time>
      </trkpt>
      <trkpt lat="41.501750" lon="-3.261117">
        <ele>1642.0</ele>
        <time>2016-07-25T15:36:43Z</time>
      </trkpt>
      <trkpt lat="41.501917" lon="-3.261117">
        <ele>1641.0</ele>
        <time>2016-07-25T15:36:45Z</time>
      </trkpt>
      <trkpt lat="41.502100" lon="-3.261133">
        <ele>1643.0</ele>
        <time>2016-07-25T15:36:47Z</time>
      </trkpt>
      <trkpt lat="41.502267" lon="-3.261167">
        <ele>1647.0</ele>
        <time>2016-07-25T15:36:49Z</time>
      </trkpt>
      <trkpt lat="41.502417" lon="-3.261167">
        <ele>1651.0</ele>
        <time>2016-07-25T15:36:51Z</time>
      </trkpt>
      <trkpt lat="41.502533" lon="-3.261117">
        <ele>1654.0</ele>
        <time>2016-07-25T15:36:53Z</time>
      </trkpt>
      <trkpt lat="41.502650" lon="-3.261000">
        <ele>1653.0</ele>
        <time>2016-07-25T15:36:55Z</time>
      </trkpt>
      <trkpt lat="41.502783" lon="-3.260783">
        <ele>1653.0</ele>
        <time>2016-07-25T15:36:57Z</time>
      </trkpt>
      <trkpt lat="41.502850" lon="-3.260550">
        <ele>1655.0</ele>
        <time>2016-07-25T15:36:59Z</time>
      </trkpt>
      <trkpt lat="41.502883" lon="-3.260333">
        <ele>1654.0</ele>
        <time>2016-07-25T15:37:01Z</time>
      </trkpt>
      <trkpt lat="41.502883" lon="-3.260067">
        <ele>1652.0</ele>
        <time>2016-07-25T15:37:03Z</time>
      </trkpt>
      <trkpt lat="41.502783" lon="-3.259817">
        <ele>1651.0</ele>
        <time>2016-07-25T15:37:05Z</time>
      </trkpt>
      <trkpt lat="41.502633" lon="-3.259617">
        <ele>1651.0</ele>
        <time>2016-07-25T15:37:07Z</time>
      </trkpt>
      <trkpt lat="41.502467" lon="-3.259467">
        <ele>1649.0</ele>
        <time>2016-07-25T15:37:09Z</time>
      </trkpt>
      <trkpt lat="41.502267" lon="-3.259400">
        <ele>1647.0</ele>
        <time>2016-07-25T15:37:11Z</time>
      </trkpt>
      <trkpt lat="41.502100" lon="-3.259417">
        <ele>1650.0</ele>
        <time>2016-07-25T15:37:13Z</time>
      </trkpt>
      <trkpt lat="41.502000" lon="-3.259483">
        <ele>1652.0</ele>
        <time>2016-07-25T15:37:15Z</time>
      </trkpt>
      <trkpt lat="41.501933" lon="-3.259633">
        <ele>1651.0</ele>
        <time>2016-07-25T15:37:17Z</time>
      </trkpt>
      <trkpt lat="41.501917" lon="-3.259833">
        <ele>1654.0</ele>
        <time>2016-07-25T15:37:19Z</time>
      </trkpt>
      <trkpt lat="41.501950" lon="-3.259967">
        <ele>1659.0</ele>
        <time>2016-07-25T15:37:21Z</time>
      </trkpt>
      <trkpt lat="41.502033" lon="-3.260017">
        <ele>1659.0</ele>
        <time>2016-07-25T15:37:23Z</time>
      </trkpt>
      <trkpt lat="41.502150" lon="-3.260067">
        <ele>1659.0</ele>
        <time>2016-07-25T15:37:25Z</time>
      </trkpt>
      <trkpt lat="41.502267" lon="-3.260050">
        <ele>1662.0</ele>
        <time>2016-07-25T15:37:27Z</time>
      </trkpt>
      <trkpt lat="41.502383" lon="-3.259967">
        <ele>1661.0</ele>
        <time>2016-07-25T15:37:29Z</time>
      </trkpt>
      <trkpt lat="41.502500" lon="-3.259800">
        <ele>1660.0</ele>
        <time>2016-07-25T15:37:31Z</time>
      </trkpt>
      <trkpt lat="41.502517" lon="-3.259550">
        <ele>1658.0</ele>
        <time>2016-07-25T15:37:33Z</time>
      </trkpt>
      <trkpt lat="41.502483" lon="-3.259267">
        <ele>1659.0</ele>
        <time>2016-07-25T15:37:35Z</time>
      </trkpt>
      <trkpt lat="41.502367" lon="-3.259050">
        <ele>1663.0</ele>
        <time>2016-07-25T15:37:37Z</time>
      </trkpt>
      <trkpt lat="41.502200" lon="-3.258933">
        <ele>1665.0</ele>
        <time>2016-07-25T15:37:39Z</time>
      </trkpt>
      <trkpt lat="41.502033" lon="-3.258900">
        <ele>1666.0</ele>
        <time>2016-07-25T15:37:41Z</time>
      </trkpt>
      <trkpt lat="41.501900" lon="-3.258983">
        <ele>1666.0</ele>
        <time>2016-07-25T15:37:43Z</time>
      </trkpt>
      <trkpt lat="41.501850" lon="-3.259150">
        <ele>1666.0</ele>
        <time>2016-07-25T15:37:45Z</time>
      </trkpt>
      <trkpt lat="41.501867" lon="-3.259317">
        <ele>1668.0</ele>
        <time>2016-07-25T15:37:47Z</time>
      </trkpt>
      <trkpt lat="41.501933" lon="-3.259433">
        <ele>1670.0</ele>
        <time>2016-07-25T15:37:49Z</time>
      </trkpt>
      <trkpt lat="41.502033" lon="-3.259517">
        <ele>1670.0</ele>
        <time>2016-07-25T15:37:51Z</time>
      </trkpt>
      <trkpt lat="41.502150" lon="-3.259583">
        <ele>1671.0</ele>
        <time>2016-07-25T15:37:53Z</time>
      </trkpt>
      <trkpt lat="41.502267" lon="-3.259650">
        <ele>1673.0</ele>
        <time>2016-07-25T15:37:55Z</time>
      </trkpt>
      <trkpt lat="41.502400" lon="-3.259700">
        <ele>1673.0</ele>
        <time>2016-07-25T15:37:57Z</time>
      </trkpt>
      <trkpt lat="41.502533" lon="-3.259750">
        <ele>1673.0</ele>
        <time>2016-07-25T15:37:59Z</time>
      </trkpt>
      <trkpt lat="41.502650" lon="-3.259833">
        <ele>1675.0</ele>
        <time>2016-07-25T15:38:01Z</time>
      </trkpt>
      <trkpt lat="41.502750" lon="-3.259867">
        <ele>1677.0</ele>
        <time>2016-07-25T15:38:03Z</time>
      </trkpt>
      <trkpt lat="41.502867" lon="-3.259883">
        <ele>1676.0</ele>
        <time>2016-07-25T15:38:05Z</time>
      </trkpt>
      <trkpt lat="41.503017" lon="-3.259900">
        <ele>1674.0</ele>
        <time>2016-07-25T15:38:07Z</time>
      </trkpt>
      <trkpt lat="41.503150" lon="-3.259900">
        <ele>1675.0</ele>
        <time>2016-07-25T15:38:09Z</time>
      </trkpt>
      <trkpt lat="41.503283" lon="-3.259867">
        <ele>1676.0</ele>
        <time>2016-07-25T15:38:11Z</time>
      </trkpt>
      <trkpt lat="41.503400" lon="-3.259850">
        <ele>1677.0</ele>
        <time>2016-07-25T15:38:13Z</time>
      </trkpt>
      <trkpt lat="41.503533" lon="-3.259833">
        <ele>1679.0</ele>
        <time>2016-07-25T15:38:15Z</time>
      </trkpt>
      <trkpt lat="41.503667" lon="-3.259883">
        <ele>1680.0</ele>
        <time>2016-07-25T15:38:17Z</time>
      </trkpt>
      <trkpt lat="41.503800" lon="-3.260017">
        <ele>1680.0</ele>
        <time>2016-07-25T15:38:19Z</time>
      </trkpt>
      <trkpt lat="41.503933" lon="-3.260100">
        <ele>1681.0</ele>
        <time>2016-07-25T15:38:21Z</time>
      </trkpt>
      <trkpt lat="41.504083" lon="-3.260167">
        <ele>1681.0</ele>
        <time>2016-07-25T15:38:23Z</time>
      </trkpt>
      <trkpt lat="41.504233" lon="-3.260217">
        <ele>1681.0</ele>
        <time>2016-07-25T15:38:25Z</time>
      </trkpt>
      <trkpt lat="41.504400" lon="-3.260250">
        <ele>1683.0</ele>
        <time>2016-07-25T15:38:27Z</time>
      </trkpt>
      <trkpt lat="41.504550" lon="-3.260300">
        <ele>1685.0</ele>
        <time>2016-07-25T15:38:29Z</time>
      </trkpt>
      <trkpt lat="41.504717" lon="-3.260333">
        <ele>1692.0</ele>
        <time>2016-07-25T15:38:31Z</time>
      </trkpt>
      <trkpt lat="41.504833" lon="-3.260350">
        <ele>1700.0</ele>
        <time>2016-07-25T15:38:33Z</time>
      </trkpt>
      <trkpt lat="41.504933" lon="-3.260350">
        <ele>1707.0</ele>
        <time>2016-07-25T15:38:35Z</time>
      </trkpt>
      <trkpt lat="41.505067" lon="-3.260267">
        <ele>1711.0</ele>
        <time>2016-07-25T15:38:37Z</time>
      </trkpt>
      <trkpt lat="41.505167" lon="-3.260067">
        <ele>1716.0</ele>
        <time>2016-07-25T15:38:39Z</time>
      </trkpt>
      <trkpt lat="41.505200" lon="-3.259833">
        <ele>1718.0</ele>
        <time>2016-07-25T15:38:41Z</time>
      </trkpt>
      <trkpt lat="41.505133" lon="-3.259583">
        <ele>1718.0</ele>
        <time>2016-07-25T15:38:43Z</time>
      </trkpt>
      <trkpt lat="41.504983" lon="-3.259383">
        <ele>1719.0</ele>
        <time>2016-07-25T15:38:45Z</time>
      </trkpt>
      <trkpt lat="41.504817" lon="-3.259350">
        <ele>1720.0</ele>
        <time>2016-07-25T15:38:47Z</time>
      </trkpt>
      <trkpt lat="41.504700" lon="-3.259483">
        <ele>1718.0</ele>
        <time>2016-07-25T15:38:49Z</time>
      </trkpt>
      <trkpt lat="41.504617" lon="-3.259667">
        <ele>1724.0</ele>
        <time>2016-07-25T15:38:51Z</time>
      </trkpt>
      <trkpt lat="41.504600" lon="-3.259817">
        <ele>1731.0</ele>
        <time>2016-07-25T15:38:53Z</time>
      </trkpt>
      <trkpt lat="41.504650" lon="-3.259950">
        <ele>1737.0</ele>
        <time>2016-07-25T15:38:55Z</time>
      </trkpt>
      <trkpt lat="41.504733" lon="-3.260033">
        <ele>1743.0</ele>
        <time>2016-07-25T15:38:57Z</time>
      </trkpt>
      <trkpt lat="41.504833" lon="-3.260083">
        <ele>1747.0</ele>
        <time>2016-07-25T15:38:59Z</time>
      </trkpt>
      <trkpt lat="41.505000" lon="-3.260050">
        <ele>1749.0</ele>
        <time>2016-07-25T15:39:01Z</time>
      </trkpt>
      <trkpt lat="41.505150" lon="-3.259883">
        <ele>1751.0</ele>
        <time>2016-07-25T15:39:03Z</time>
      </trkpt>
      <trkpt lat="41.505233" lon="-3.259650">
        <ele>1753.0</ele>
        <time>2016-07-25T15:39:05Z</time>
      </trkpt>
      <trkpt lat="41.505217" lon="-3.259350">
        <ele>1754.0</ele>
        <time>2016-07-25T15:39:07Z</time>
      </trkpt>
      <trkpt lat="41.505100" lon="-3.259083">
        <ele>1754.0</ele>
        <time>2016-07-25T15:39:09Z</time>
      </trkpt>
      <trkpt lat="41.504917" lon="-3.258917">
        <ele>1755.0</ele>
        <time>2016-07-25T15:39:11Z</time>
      </trkpt>
      <trkpt lat="41.504733" lon="-3.258850">
        <ele>1756.0</ele>
        <time>2016-07-25T15:39:13Z</time>
      </trkpt>
      <trkpt lat="41.504567" lon="-3.258917">
        <ele>1756.0</ele>
        <time>2016-07-25T15:39:15Z</time>
      </trkpt>
      <trkpt lat="41.504500" lon="-3.259083">
        <ele>1757.0</ele>
        <time>2016-07-25T15:39:17Z</time>
      </trkpt>
      <trkpt lat="41.504500" lon="-3.259233">
        <ele>1760.0</ele>
        <time>2016-07-25T15:39:19Z</time>
      </trkpt>
      <trkpt lat="41.504483" lon="-3.259367">
        <ele>1763.0</ele>
        <time>2016-07-25T15:39:21Z</time>
      </trkpt>
      <trkpt lat="41.504483" lon="-3.259533">
        <ele>1765.0</ele>
        <time>2016-07-25T15:39:23Z</time>
      </trkpt>
      <trkpt lat="41.504533" lon="-3.259650">
        <ele>1769.0</ele>
        <time>2016-07-25T15:39:25Z</time>
      </trkpt>
      <trkpt lat="41.504600" lon="-3.259700">
        <ele>1771.0</ele>
        <time>2016-07-25T15:39:27Z</time>
      </trkpt>
      <trkpt lat="41.504650" lon="-3.259700">
        <ele>1771.0</ele>
        <time>2016-07-25T15:39:29Z</time>
      </trkpt>
      <trkpt lat="41.504750" lon="-3.259717">
        <ele>1767.0</ele>
        <time>2016-07-25T15:39:31Z</time>
      </trkpt>
      <trkpt lat="41.504883" lon="-3.259683">
        <ele>1764.0</ele>
        <time>2016-07-25T15:39:33Z</time>
      </trkpt>
      <trkpt lat="41.505017" lon="-3.259633">
        <ele>1761.0</ele>
        <time>2016-07-25T15:39:35Z</time>
      </trkpt>
      <trkpt lat="41.505150" lon="-3.259567">
        <ele>1758.0</ele>
        <time>2016-07-25T15:39:37Z</time>
      </trkpt>
      <trkpt lat="41.505300" lon="-3.259550">
        <ele>1757.0</ele>
        <time>2016-07-25T15:39:39Z</time>
      </trkpt>
      <trkpt lat="41.505417" lon="-3.259533">
        <ele>1757.0</ele>
        <time>2016-07-25T15:39:41Z</time>
      </trkpt>
      <trkpt lat="41.505550" lon="-3.259567">
        <ele>1753.0</ele>
        <time>2016-07-25T15:39:43Z</time>
      </trkpt>
      <trkpt lat="41.505667" lon="-3.259600">
        <ele>1751.0</ele>
        <time>2016-07-25T15:39:45Z</time>
      </trkpt>
      <trkpt lat="41.505817" lon="-3.259617">
        <ele>1749.0</ele>
        <time>2016-07-25T15:39:47Z</time>
      </trkpt>
      <trkpt lat="41.505950" lon="-3.259600">
        <ele>1750.0</ele>
        <time>2016-07-25T15:39:49Z</time>
      </trkpt>
      <trkpt lat="41.506083" lon="-3.259567">
        <ele>1750.0</ele>
        <time>2016-07-25T15:39:51Z</time>
      </trkpt>
      <trkpt lat="41.506217" lon="-3.259533">
        <ele>1749.0</ele>
        <time>2016-07-25T15:39:53Z</time>
      </trkpt>
      <trkpt lat="41.506367" lon="-3.259533">
        <ele>1750.0</ele>
        <time>2016-07-25T15:39:55Z</time>
      </trkpt>
      <trkpt lat="41.506483" lon="-3.259450">
        <ele>1752.0</ele>
        <time>2016-07-25T15:39:57Z</time>
      </trkpt>
      <trkpt lat="41.506617" lon="-3.259367">
        <ele>1751.0</ele>
        <time>2016-07-25T15:39:59Z</time>
      </trkpt>
      <trkpt lat="41.506717" lon="-3.259317">
        <ele>1752.0</ele>
        <time>2016-07-25T15:40:01Z</time>
      </trkpt>
      <trkpt lat="41.506783" lon="-3.259283">
        <ele>1751.0</ele>
        <time>2016-07-25T15:40:03Z</time>
      </trkpt>
      <trkpt lat="41.506900" lon="-3.259250">
        <ele>1749.0</ele>
        <time>2016-07-25T15:40:05Z</time>
      </trkpt>
      <trkpt lat="41.507017" lon="-3.259233">
        <ele>1750.0</ele>
        <time>2016-07-25T15:40:07Z</time>
      </trkpt>
      <trkpt lat="41.507133" lon="-3.259183">
        <ele>1753.0</ele>
        <time>2016-07-25T15:40:09Z</time>
      </trkpt>
      <trkpt lat="41.507233" lon="-3.259150">
        <ele>1756.0</ele>
        <time>2016-07-25T15:40:11Z</time>
      </trkpt>
      <trkpt lat="41.507333" lon="-3.259117">
        <ele>1759.0</ele>
        <time>2016-07-25T15:40:13Z</time>
      </trkpt>
      <trkpt lat="41.507433" lon="-3.259017">
        <ele>1762.0</ele>
        <time>2016-07-25T15:40:15Z</time>
      </trkpt>
      <trkpt lat="41.507483" lon="-3.258817">
        <ele>1760.0</ele>
        <time>2016-07-25T15:40:17Z</time>
      </trkpt>
      <trkpt lat="41.507500" lon="-3.258533">
        <ele>1757.0</ele>
        <time>2016-07-25T15:40:19Z</time>
      </trkpt>
      <trkpt lat="41.507500" lon="-3.258167">
        <ele>1757.0</ele>
        <time>2016-07-25T15:40:21Z</time>
      </trkpt>
      <trkpt lat="41.507367" lon="-3.257850">
        <ele>1754.0</ele>
        <time>2016-07-25T15:40:23Z</time>
      </trkpt>
      <trkpt lat="41.507167" lon="-3.257583">
        <ele>1752.0</ele>
        <time>2016-07-25T15:40:25Z</time>
      </trkpt>
      <trkpt lat="41.506933" lon="-3.257400">
        <ele>1751.0</ele>
        <time>2016-07-25T15:40:27Z</time>
      </trkpt>
      <trkpt lat="41.506700" lon="-3.257367">
        <ele>1749.0</ele>
        <time>2016-07-25T15:40:29Z</time>
      </trkpt>
      <trkpt lat="41.506517" lon="-3.257433">
        <ele>1750.0</ele>
        <time>2016-07-25T15:40:31Z</time>
      </trkpt>
      <trkpt lat="41.506417" lon="-3.257500">
        <ele>1750.0</ele>
        <time>2016-07-25T15:40:33Z</time>
      </trkpt>
      <trkpt lat="41.506367" lon="-3.257617">
        <ele>1747.0</ele>
        <time>2016-07-25T15:40:35Z</time>
      </trkpt>
      <trkpt lat="41.506400" lon="-3.257750">
        <ele>1747.0</ele>
        <time>2016-07-25T15:40:37Z</time>
      </trkpt>
      <trkpt lat="41.506467" lon="-3.257833">
        <ele>1750.0</ele>
        <time>2016-07-25T15:40:39Z</time>
      </trkpt>
      <trkpt lat="41.506550" lon="-3.257867">
        <ele>1752.0</ele>
        <time>2016-07-25T15:40:41Z</time>
      </trkpt>
      <trkpt lat="41.506683" lon="-3.257917">
        <ele>1752.0</ele>
        <time>2016-07-25T15:40:43Z</time>
      </trkpt>
      <trkpt lat="41.506817" lon="-3.257917">
        <ele>1753.0</ele>
        <time>2016-07-25T15:40:45Z</time>
      </trkpt>
      <trkpt lat="41.506917" lon="-3.257950">
        <ele>1755.0</ele>
        <time>2016-07-25T15:40:47Z</time>
      </trkpt>
      <trkpt lat="41.507050" lon="-3.258033">
        <ele>1759.0</ele>
        <time>2016-07-25T15:40:49Z</time>
      </trkpt>
      <trkpt lat="41.507133" lon="-3.258067">
        <ele>1762.0</ele>
        <time>2016-07-25T15:40:51Z</time>
      </trkpt>
      <trkpt lat="41.507233" lon="-3.258083">
        <ele>1762.0</ele>
        <time>2016-07-25T15:40:53Z</time>
      </trkpt>
      <trkpt lat="41.507367" lon="-3.258067">
        <ele>1760.0</ele>
        <time>2016-07-25T15:40:55Z</time>
      </trkpt>
      <trkpt lat="41.507483" lon="-3.258067">
        <ele>1760.0</ele>
        <time>2016-07-25T15:40:57Z</time>
      </trkpt>
      <trkpt lat="41.507600" lon="-3.258033">
        <ele>1758.0</ele>
        <time>2016-07-25T15:40:59Z</time>
      </trkpt>
      <trkpt lat="41.507717" lon="-3.257983">
        <ele>1755.0</ele>
        <time>2016-07-25T15:41:01Z</time>
      </trkpt>
      <trkpt lat="41.507850" lon="-3.257983">
        <ele>1750.0</ele>
        <time>2016-07-25T15:41:03Z</time>
      </trkpt>
      <trkpt lat="41.508000" lon="-3.257967">
        <ele>1748.0</ele>
        <time>2016-07-25T15:41:05Z</time>
      </trkpt>
      <trkpt lat="41.508150" lon="-3.257917">
        <ele>1748.0</ele>
        <time>2016-07-25T15:41:07Z</time>
      </trkpt>
      <trkpt lat="41.508283" lon="-3.257850">
        <ele>1747.0</ele>
        <time>2016-07-25T15:41:09Z</time>
      </trkpt>
      <trkpt lat="41.508417" lon="-3.257800">
        <ele>1745.0</ele>
        <time>2016-07-25T15:41:11Z</time>
      </trkpt>
      <trkpt lat="41.508567" lon="-3.257700">
        <ele>1742.0</ele>
        <time>2016-07-25T15:41:13Z</time>
      </trkpt>
      <trkpt lat="41.508700" lon="-3.257617">
        <ele>1741.0</ele>
        <time>2016-07-25T15:41:15Z</time>
      </trkpt>
      <trkpt lat="41.508817" lon="-3.257550">
        <ele>1740.0</ele>
        <time>2016-07-25T15:41:17Z</time>
      </trkpt>
      <trkpt lat="41.508933" lon="-3.257433">
        <ele>1737.0</ele>
        <time>2016-07-25T15:41:19Z</time>
      </trkpt>
      <trkpt lat="41.509033" lon="-3.257333">
        <ele>1734.0</ele>
        <time>2016-07-25T15:41:21Z</time>
      </trkpt>
      <trkpt lat="41.509117" lon="-3.257233">
        <ele>1730.0</ele>
        <time>2016-07-25T15:41:23Z</time>
      </trkpt>
      <trkpt lat="41.509217" lon="-3.257167">
        <ele>1724.0</ele>
        <time>2016-07-25T15:41:25Z</time>
      </trkpt>
      <trkpt lat="41.509333" lon="-3.257100">
        <ele>1719.0</ele>
        <time>2016-07-25T15:41:27Z</time>
      </trkpt>
      <trkpt lat="41.509433" lon="-3.257050">
        <ele>1715.0</ele>
        <time>2016-07-25T15:41:29Z</time>
      </trkpt>
      <trkpt lat="41.509533" lon="-3.257017">
        <ele>1711.0</ele>
        <time>2016-07-25T15:41:31Z</time>
      </trkpt>
      <trkpt lat="41.509633" lon="-3.257000">
        <ele>1706.0</ele>
        <time>2016-07-25T15:41:33Z</time>
      </trkpt>
      <trkpt lat="41.509733" lon="-3.257000">
        <ele>1701.0</ele>
        <time>2016-07-25T15:41:35Z</time>
      </trkpt>
      <trkpt lat="41.509833" lon="-3.256967">
        <ele>1697.0</ele>
        <time>2016-07-25T15:41:37Z</time>
      </trkpt>
      <trkpt lat="41.509933" lon="-3.256950">
        <ele>1694.0</ele>
        <time>2016-07-25T15:41:39Z</time>
      </trkpt>
      <trkpt lat="41.510017" lon="-3.256900">
        <ele>1689.0</ele>
        <time>2016-07-25T15:41:41Z</time>
      </trkpt>
      <trkpt lat="41.510133" lon="-3.256850">
        <ele>1683.0</ele>
        <time>2016-07-25T15:41:43Z</time>
      </trkpt>
      <trkpt lat="41.510267" lon="-3.256817">
        <ele>1680.0</ele>
        <time>2016-07-25T15:41:45Z</time>
      </trkpt>
      <trkpt lat="41.510383" lon="-3.256783">
        <ele>1678.0</ele>
        <time>2016-07-25T15:41:47Z</time>
      </trkpt>
      <trkpt lat="41.510500" lon="-3.256733">
        <ele>1674.0</ele>
        <time>2016-07-25T15:41:49Z</time>
      </trkpt>
      <trkpt lat="41.510617" lon="-3.256700">
        <ele>1669.0</ele>
        <time>2016-07-25T15:41:51Z</time>
      </trkpt>
      <trkpt lat="41.510733" lon="-3.256683">
        <ele>1663.0</ele>
        <time>2016-07-25T15:41:53Z</time>
      </trkpt>
      <trkpt lat="41.510867" lon="-3.256667">
        <ele>1657.0</ele>
        <time>2016-07-25T15:41:55Z</time>
      </trkpt>
      <trkpt lat="41.510983" lon="-3.256683">
        <ele>1650.0</ele>
        <time>2016-07-25T15:41:57Z</time>
      </trkpt>
      <trkpt lat="41.511117" lon="-3.256683">
        <ele>1643.0</ele>
        <time>2016-07-25T15:41:59Z</time>
      </trkpt>
      <trkpt lat="41.511250" lon="-3.256667">
        <ele>1637.0</ele>
        <time>2016-07-25T15:42:01Z</time>
      </trkpt>
      <trkpt lat="41.511383" lon="-3.256667">
        <ele>1630.0</ele>
        <time>2016-07-25T15:42:03Z</time>
      </trkpt>
      <trkpt lat="41.511517" lon="-3.256667">
        <ele>1620.0</ele>
        <time>2016-07-25T15:42:05Z</time>
      </trkpt>
      <trkpt lat="41.511700" lon="-3.256650">
        <ele>1612.0</ele>
        <time>2016-07-25T15:42:07Z</time>
      </trkpt>
      <trkpt lat="41.511850" lon="-3.256617">
        <ele>1609.0</ele>
        <time>2016-07-25T15:42:09Z</time>
      </trkpt>
      <trkpt lat="41.511967" lon="-3.256600">
        <ele>1606.0</ele>
        <time>2016-07-25T15:42:11Z</time>
      </trkpt>
      <trkpt lat="41.512067" lon="-3.256600">
        <ele>1601.0</ele>
        <time>2016-07-25T15:42:13Z</time>
      </trkpt>
      <trkpt lat="41.512183" lon="-3.256617">
        <ele>1593.0</ele>
        <time>2016-07-25T15:42:15Z</time>
      </trkpt>
      <trkpt lat="41.512333" lon="-3.256650">
        <ele>1586.0</ele>
        <time>2016-07-25T15:42:17Z</time>
      </trkpt>
      <trkpt lat="41.512467" lon="-3.256650">
        <ele>1582.0</ele>
        <time>2016-07-25T15:42:19Z</time>
      </trkpt>
      <trkpt lat="41.512583" lon="-3.256633">
        <ele>1574.0</ele>
        <time>2016-07-25T15:42:21Z</time>
      </trkpt>
      <trkpt lat="41.512717" lon="-3.256667">
        <ele>1565.0</ele>
        <time>2016-07-25T15:42:23Z</time>
      </trkpt>
      <trkpt lat="41.512850" lon="-3.256650">
        <ele>1560.0</ele>
        <time>2016-07-25T15:42:25Z</time>
      </trkpt>
      <trkpt lat="41.512983" lon="-3.256617">
        <ele>1556.0</ele>
        <time>2016-07-25T15:42:27Z</time>
      </trkpt>
      <trkpt lat="41.513100" lon="-3.256617">
        <ele>1554.0</ele>
        <time>2016-07-25T15:42:29Z</time>
      </trkpt>
      <trkpt lat="41.513217" lon="-3.256633">
        <ele>1551.0</ele>
        <time>2016-07-25T15:42:31Z</time>
      </trkpt>
      <trkpt lat="41.513367" lon="-3.256633">
        <ele>1548.0</ele>
        <time>2016-07-25T15:42:33Z</time>
      </trkpt>
      <trkpt lat="41.513550" lon="-3.256633">
        <ele>1549.0</ele>
        <time>2016-07-25T15:42:35Z</time>
      </trkpt>
      <trkpt lat="41.513683" lon="-3.256633">
        <ele>1549.0</ele>
        <time>2016-07-25T15:42:37Z</time>
      </trkpt>
      <trkpt lat="41.513850" lon="-3.256633">
        <ele>1546.0</ele>
        <time>2016-07-25T15:42:39Z</time>
      </trkpt>
      <trkpt lat="41.514033" lon="-3.256633">
        <ele>1545.0</ele>
        <time>2016-07-25T15:42:41Z</time>
      </trkpt>
      <trkpt lat="41.514200" lon="-3.256633">
        <ele>1546.0</ele>
        <time>2016-07-25T15:42:43Z</time>
      </trkpt>
      <trkpt lat="41.514350" lon="-3.256617">
        <ele>1546.0</ele>
        <time>2016-07-25T15:42:45Z</time>
      </trkpt>
      <trkpt lat="41.514533" lon="-3.256617">
        <ele>1545.0</ele>
        <time>2016-07-25T15:42:47Z</time>
      </trkpt>
      <trkpt lat="41.514700" lon="-3.256617">
        <ele>1546.0</ele>
        <time>2016-07-25T15:42:49Z</time>
      </trkpt>
      <trkpt lat="41.514850" lon="-3.256600">
        <ele>1547.0</ele>
        <time>2016-07-25T15:42:51Z</time>
      </trkpt>
      <trkpt lat="41.515000" lon="-3.256533">
        <ele>1548.0</ele>
        <time>2016-07-25T15:42:53Z</time>
      </trkpt>
      <trkpt lat="41.515150" lon="-3.256483">
        <ele>1547.0</ele>
        <time>2016-07-25T15:42:55Z</time>
      </trkpt>
      <trkpt lat="41.515300" lon="-3.256417">
        <ele>1545.0</ele>
        <time>2016-07-25T15:42:57Z</time>
      </trkpt>
      <trkpt lat="41.515450" lon="-3.256300">
        <ele>1544.0</ele>
        <time>2016-07-25T15:42:59Z</time>
      </trkpt>
      <trkpt lat="41.515583" lon="-3.256233">
        <ele>1541.0</ele>
        <time>2016-07-25T15:43:01Z</time>
      </trkpt>
      <trkpt lat="41.515717" lon="-3.256217">
        <ele>1537.0</ele>
        <time>2016-07-25T15:43:03Z</time>
      </trkpt>
      <trkpt lat="41.515883" lon="-3.256233">
        <ele>1533.0</ele>
        <time>2016-07-25T15:43:05Z</time>
      </trkpt>
      <trkpt lat="41.516033" lon="-3.256283">
        <ele>1530.0</ele>
        <time>2016-07-25T15:43:07Z</time>
      </trkpt>
      <trkpt lat="41.516183" lon="-3.256317">
        <ele>1528.0</ele>
        <time>2016-07-25T15:43:09Z</time>
      </trkpt>
      <trkpt lat="41.516350" lon="-3.256333">
        <ele>1526.0</ele>
        <time>2016-07-25T15:43:11Z</time>
      </trkpt>
      <trkpt lat="41.516517" lon="-3.256333">
        <ele>1523.0</ele>
        <time>2016-07-25T15:43:13Z</time>
      </trkpt>
      <trkpt lat="41.516717" lon="-3.256300">
        <ele>1519.0</ele>
        <time>2016-07-25T15:43:15Z</time>
      </trkpt>
      <trkpt lat="41.516933" lon="-3.256267">
        <ele>1516.0</ele>
        <time>2016-07-25T15:43:17Z</time>
      </trkpt>
      <trkpt lat="41.517133" lon="-3.256233">
        <ele>1517.0</ele>
        <time>2016-07-25T15:43:19Z</time>
      </trkpt>
      <trkpt lat="41.517300" lon="-3.256217">
        <ele>1518.0</ele>
        <time>2016-07-25T15:43:21Z</time>
      </trkpt>
      <trkpt lat="41.517483" lon="-3.256150">
        <ele>1517.0</ele>
        <time>2016-07-25T15:43:23Z</time>
      </trkpt>
      <trkpt lat="41.517650" lon="-3.255933">
        <ele>1515.0</ele>
        <time>2016-07-25T15:43:25Z</time>
      </trkpt>
      <trkpt lat="41.517767" lon="-3.255600">
        <ele>1515.0</ele>
        <time>2016-07-25T15:43:27Z</time>
      </trkpt>
      <trkpt lat="41.517817" lon="-3.255283">
        <ele>1514.0</ele>
        <time>2016-07-25T15:43:29Z</time>
      </trkpt>
      <trkpt lat="41.517783" lon="-3.254933">
        <ele>1511.0</ele>
        <time>2016-07-25T15:43:31Z</time>
      </trkpt>
      <trkpt lat="41.517683" lon="-3.254617">
        <ele>1510.0</ele>
        <time>2016-07-25T15:43:33Z</time>
      </trkpt>
      <trkpt lat="41.517533" lon="-3.254433">
        <ele>1511.0</ele>
        <time>2016-07-25T15:43:35Z</time>
      </trkpt>
      <trkpt lat="41.517383" lon="-3.254333">
        <ele>1511.0</ele>
        <time>2016-07-25T15:43:37Z</time>
      </trkpt>
      <trkpt lat="41.517267" lon="-3.254317">
        <ele>1507.0</ele>
        <time>2016-07-25T15:43:39Z</time>
      </trkpt>
      <trkpt lat="41.517200" lon="-3.254417">
        <ele>1503.0</ele>
        <time>2016-07-25T15:43:41Z</time>
      </trkpt>
      <trkpt lat="41.517217" lon="-3.254550">
        <ele>1501.0</ele>
        <time>2016-07-25T15:43:43Z</time>
      </trkpt>
      <trkpt lat="41.517267" lon="-3.254667">
        <ele>1502.0</ele>
        <time>2016-07-25T15:43:45Z</time>
      </trkpt>
      <trkpt lat="41.517367" lon="-3.254750">
        <ele>1501.0</ele>
        <time>2016-07-25T15:43:47Z</time>
      </trkpt>
      <trkpt lat="41.517500" lon="-3.254833">
        <ele>1499.0</ele>
        <time>2016-07-25T15:43:49Z</time>
      </trkpt>
      <trkpt lat="41.517633" lon="-3.254917">
        <ele>1499.0</ele>
        <time>2016-07-25T15:43:51Z</time>
      </trkpt>
      <trkpt lat="41.517733" lon="-3.255017">
        <ele>1499.0</ele>
        <time>2016-07-25T15:43:53Z</time>
      </trkpt>
      <trkpt lat="41.517883" lon="-3.255083">
        <ele>1497.0</ele>
        <time>2016-07-25T15:43:55Z</time>
      </trkpt>
      <trkpt lat="41.518033" lon="-3.255150">
        <ele>1495.0</ele>
        <time>2016-07-25T15:43:57Z</time>
      </trkpt>
      <trkpt lat="41.518183" lon="-3.255233">
        <ele>1496.0</ele>
        <time>2016-07-25T15:43:59Z</time>
      </trkpt>
      <trkpt lat="41.518300" lon="-3.255250">
        <ele>1498.0</ele>
        <time>2016-07-25T15:44:01Z</time>
      </trkpt>
      <trkpt lat="41.518383" lon="-3.255283">
        <ele>1494.0</ele>
        <time>2016-07-25T15:44:03Z</time>
      </trkpt>
      <trkpt lat="41.518500" lon="-3.255350">
        <ele>1490.0</ele>
        <time>2016-07-25T15:44:05Z</time>
      </trkpt>
      <trkpt lat="41.518633" lon="-3.255433">
        <ele>1491.0</ele>
        <time>2016-07-25T15:44:07Z</time>
      </trkpt>
      <trkpt lat="41.518733" lon="-3.255500">
        <ele>1491.0</ele>
        <time>2016-07-25T15:44:09Z</time>
      </trkpt>
      <trkpt lat="41.518850" lon="-3.255567">
        <ele>1487.0</ele>
        <time>2016-07-25T15:44:11Z</time>
      </trkpt>
      <trkpt lat="41.518983" lon="-3.255650">
        <ele>1485.0</ele>
        <time>2016-07-25T15:44:13Z</time>
      </trkpt>
      <trkpt lat="41.519083" lon="-3.255750">
        <ele>1482.0</ele>
        <time>2016-07-25T15:44:15Z</time>
      </trkpt>
      <trkpt lat="41.519200" lon="-3.255850">
        <ele>1479.0</ele>
        <time>2016-07-25T15:44:17Z</time>
      </trkpt>
      <trkpt lat="41.519317" lon="-3.255950">
        <ele>1477.0</ele>
        <time>2016-07-25T15:44:19Z</time>
      </trkpt>
      <trkpt lat="41.519417" lon="-3.256017">
        <ele>1477.0</ele>
        <time>2016-07-25T15:44:21Z</time>
      </trkpt>
      <trkpt lat="41.519500" lon="-3.256067">
        <ele>1473.0</ele>
        <time>2016-07-25T15:44:23Z</time>
      </trkpt>
      <trkpt lat="41.519600" lon="-3.256117">
        <ele>1469.0</ele>
        <time>2016-07-25T15:44:25Z</time>
      </trkpt>
      <trkpt lat="41.519717" lon="-3.256133">
        <ele>1464.0</ele>
        <time>2016-07-25T15:44:27Z</time>
      </trkpt>
      <trkpt lat="41.519833" lon="-3.256183">
        <ele>1460.0</ele>
        <time>2016-07-25T15:44:29Z</time>
      </trkpt>
      <trkpt lat="41.519883" lon="-3.256267">
        <ele>1459.0</ele>
        <time>2016-07-25T15:44:31Z</time>
      </trkpt>
      <trkpt lat="41.519917" lon="-3.256333">
        <ele>1457.0</ele>
        <time>2016-07-25T15:44:33Z</time>
      </trkpt>
      <trkpt lat="41.519983" lon="-3.256383">
        <ele>1450.0</ele>
        <time>2016-07-25T15:44:35Z</time>
      </trkpt>
      <trkpt lat="41.520067" lon="-3.256417">
        <ele>1444.0</ele>
        <time>2016-07-25T15:44:37Z</time>
      </trkpt>
      <trkpt lat="41.520167" lon="-3.256417">
        <ele>1439.0</ele>
        <time>2016-07-25T15:44:39Z</time>
      </trkpt>
      <trkpt lat="41.520250" lon="-3.256450">
        <ele>1434.0</ele>
        <time>2016-07-25T15:44:41Z</time>
      </trkpt>
      <trkpt lat="41.520300" lon="-3.256483">
        <ele>1432.0</ele>
        <time>2016-07-25T15:44:43Z</time>
      </trkpt>
      <trkpt lat="41.520333" lon="-3.256500">
        <ele>1428.0</ele>
        <time>2016-07-25T15:44:45Z</time>
      </trkpt>
      <trkpt lat="41.520417" lon="-3.256483">
        <ele>1422.0</ele>
        <time>2016-07-25T15:44:47Z</time>
      </trkpt>
      <trkpt lat="41.520483" lon="-3.256467">
        <ele>1417.0</ele>
        <time>2016-07-25T15:44:49Z</time>
      </trkpt>
      <trkpt lat="41.520550" lon="-3.256467">
        <ele>1413.0</ele>
        <time>2016-07-25T15:44:51Z</time>
      </trkpt>
      <trkpt lat="41.520617" lon="-3.256433">
        <ele>1407.0</ele>
        <time>2016-07-25T15:44:53Z</time>
      </trkpt>
      <trkpt lat="41.520733" lon="-3.256400">
        <ele>1401.0</ele>
        <time>2016-07-25T15:44:55Z</time>
      </trkpt>
      <trkpt lat="41.520850" lon="-3.256367">
        <ele>1395.0</ele>
        <time>2016-07-25T15:44:57Z</time>
      </trkpt>
      <trkpt lat="41.520967" lon="-3.256367">
        <ele>1388.0</ele>
        <time>2016-07-25T15:44:59Z</time>
      </trkpt>
      <trkpt lat="41.521117" lon="-3.256333">
        <ele>1382.0</ele>
        <time>2016-07-25T15:45:01Z</time>
      </trkpt>
      <trkpt lat="41.521267" lon="-3.256300">
        <ele>1380.0</ele>
        <time>2016-07-25T15:45:03Z</time>
      </trkpt>
      <trkpt lat="41.521383" lon="-3.256350">
        <ele>1379.0</ele>
        <time>2016-07-25T15:45:05Z</time>
      </trkpt>
      <trkpt lat="41.521450" lon="-3.256417">
        <ele>1379.0</ele>
        <time>2016-07-25T15:45:07Z</time>
      </trkpt>
      <trkpt lat="41.521550" lon="-3.256500">
        <ele>1377.0</ele>
        <time>2016-07-25T15:45:09Z</time>
      </trkpt>
      <trkpt lat="41.521650" lon="-3.256583">
        <ele>1378.0</ele>
        <time>2016-07-25T15:45:11Z</time>
      </trkpt>
      <trkpt lat="41.521733" lon="-3.256633">
        <ele>1380.0</ele>
        <time>2016-07-25T15:45:13Z</time>
      </trkpt>
      <trkpt lat="41.521800" lon="-3.256583">
        <ele>1383.0</ele>
        <time>2016-07-25T15:45:15Z</time>
      </trkpt>
      <trkpt lat="41.521850" lon="-3.256433">
        <ele>1383.0</ele>
        <time>2016-07-25T15:45:17Z</time>
      </trkpt>
      <trkpt lat="41.521867" lon="-3.256183">
        <ele>1383.0</ele>
        <time>2016-07-25T15:45:19Z</time>
      </trkpt>
      <trkpt lat="41.521783" lon="-3.255883">
        <ele>1383.0</ele>
        <time>2016-07-25T15:45:21Z</time>
      </trkpt>
      <trkpt lat="41.521633" lon="-3.255600">
        <ele>1384.0</ele>
        <time>2016-07-25T15:45:23Z</time>
      </trkpt>
      <trkpt lat="41.521417" lon="-3.255400">
        <ele>1386.0</ele>
        <time>2016-07-25T15:45:25Z</time>
      </trkpt>
      <trkpt lat="41.521183" lon="-3.255333">
        <ele>1386.0</ele>
        <time>2016-07-25T15:45:27Z</time>
      </trkpt>
      <trkpt lat="41.520983" lon="-3.255367">
        <ele>1386.0</ele>
        <time>2016-07-25T15:45:29Z</time>
      </trkpt>
      <trkpt lat="41.520817" lon="-3.255483">
        <ele>1386.0</ele>
        <time>2016-07-25T15:45:31Z</time>
      </trkpt>
      <trkpt lat="41.520750" lon="-3.255650">
        <ele>1385.0</ele>
        <time>2016-07-25T15:45:33Z</time>
      </trkpt>
      <trkpt lat="41.520733" lon="-3.255767">
        <ele>1383.0</ele>
        <time>2016-07-25T15:45:35Z</time>
      </trkpt>
      <trkpt lat="41.520783" lon="-3.255867">
        <ele>1380.0</ele>
        <time>2016-07-25T15:45:37Z</time>
      </trkpt>
      <trkpt lat="41.520867" lon="-3.255950">
        <ele>1380.0</ele>
        <time>2016-07-25T15:45:39Z</time>
      </trkpt>
      <trkpt lat="41.520967" lon="-3.256017">
        <ele>1379.0</ele>
        <time>2016-07-25T15:45:41Z</time>
      </trkpt>
      <trkpt lat="41.521050" lon="-3.256083">
        <ele>1380.0</ele>
        <time>2016-07-25T15:45:43Z</time>
      </trkpt>
      <trkpt lat="41.521133" lon="-3.256133">
        <ele>1381.0</ele>
        <time>2016-07-25T15:45:45Z</time>
      </trkpt>
      <trkpt lat="41.521233" lon="-3.256200">
        <ele>1381.0</ele>
        <time>2016-07-25T15:45:47Z</time>
      </trkpt>
      <trkpt lat="41.521333" lon="-3.256267">
        <ele>1384.0</ele>
        <time>2016-07-25T15:45:49Z</time>
      </trkpt>
      <trkpt lat="41.521433" lon="-3.256317">
        <ele>1386.0</ele>
        <time>2016-07-25T15:45:51Z</time>
      </trkpt>
      <trkpt lat="41.521500" lon="-3.256367">
        <ele>1389.0</ele>
        <time>2016-07-25T15:45:53Z</time>
      </trkpt>
      <trkpt lat="41.521567" lon="-3.256350">
        <ele>1391.0</ele>
        <time>2016-07-25T15:45:55Z</time>
      </trkpt>
      <trkpt lat="41.521650" lon="-3.256233">
        <ele>1392.0</ele>
        <time>2016-07-25T15:45:57Z</time>
      </trkpt>
      <trkpt lat="41.521683" lon="-3.256017">
        <ele>1393.0</ele>
        <time>2016-07-25T15:45:59Z</time>
      </trkpt>
      <trkpt lat="41.521617" lon="-3.255750">
        <ele>1394.0</ele>
        <time>2016-07-25T15:46:01Z</time>
      </trkpt>
      <trkpt lat="41.521483" lon="-3.255517">
        <ele>1397.0</ele>
        <time>2016-07-25T15:46:03Z</time>
      </trkpt>
      <trkpt lat="41.521283" lon="-3.255350">
        <ele>1397.0</ele>
        <time>2016-07-25T15:46:05Z</time>
      </trkpt>
      <trkpt lat="41.521033" lon="-3.255283">
        <ele>1397.0</ele>
        <time>2016-07-25T15:46:07Z</time>
      </trkpt>
      <trkpt lat="41.520783" lon="-3.255317">
        <ele>1398.0</ele>
        <time>2016-07-25T15:46:09Z</time>
      </trkpt>
      <trkpt lat="41.520617" lon="-3.255433">
        <ele>1399.0</ele>
        <time>2016-07-25T15:46:11Z</time>
      </trkpt>
      <trkpt lat="41.520517" lon="-3.255567">
        <ele>1397.0</ele>
        <time>2016-07-25T15:46:13Z</time>
      </trkpt>
      <trkpt lat="41.520483" lon="-3.255733">
        <ele>1397.0</ele>
        <time>2016-07-25T15:46:15Z</time>
      </trkpt>
      <trkpt lat="41.520483" lon="-3.255867">
        <ele>1400.0</ele>
        <time>2016-07-25T15:46:17Z</time>
      </trkpt>
      <trkpt lat="41.520517" lon="-3.255967">
        <ele>1401.0</ele>
        <time>2016-07-25T15:46:19Z</time>
      </trkpt>
      <trkpt lat="41.520567" lon="-3.256067">
        <ele>1401.0</ele>
        <time>2016-07-25T15:46:21Z</time>
      </trkpt>
      <trkpt lat="41.520650" lon="-3.256150">
        <ele>1404.0</ele>
        <time>2016-07-25T15:46:23Z</time>
      </trkpt>
      <trkpt lat="41.520700" lon="-3.256233">
        <ele>1407.0</ele>
        <time>2016-07-25T15:46:25Z</time>
      </trkpt>
      <trkpt lat="41.520783" lon="-3.256283">
        <ele>1407.0</ele>
        <time>2016-07-25T15:46:27Z</time>
      </trkpt>
      <trkpt lat="41.520883" lon="-3.256267">
        <ele>1409.0</ele>
        <time>2016-07-25T15:46:29Z</time>
      </trkpt>
      <trkpt lat="41.520950" lon="-3.256200">
        <ele>1411.0</ele>
        <time>2016-07-25T15:46:31Z</time>
      </trkpt>
      <trkpt lat="41.521000" lon="-3.256017">
        <ele>1410.0</ele>
        <time>2016-07-25T15:46:33Z</time>
      </trkpt>
      <trkpt lat="41.521000" lon="-3.255750">
        <ele>1411.0</ele>
        <time>2016-07-25T15:46:35Z</time>
      </trkpt>
      <trkpt lat="41.520900" lon="-3.255500">
        <ele>1413.0</ele>
        <time>2016-07-25T15:46:37Z</time>
      </trkpt>
      <trkpt lat="41.520750" lon="-3.255283">
        <ele>1412.0</ele>
        <time>2016-07-25T15:46:39Z</time>
      </trkpt>
      <trkpt lat="41.520533" lon="-3.255117">
        <ele>1411.0</ele>
        <time>2016-07-25T15:46:41Z</time>
      </trkpt>
      <trkpt lat="41.520267" lon="-3.255000">
        <ele>1410.0</ele>
        <time>2016-07-25T15:46:43Z</time>
      </trkpt>
      <trkpt lat="41.520033" lon="-3.254983">
        <ele>1412.0</ele>
        <time>2016-07-25T15:46:45Z</time>
      </trkpt>
      <trkpt lat="41.519817" lon="-3.255050">
        <ele>1412.0</ele>
        <time>2016-07-25T15:46:47Z</time>
      </trkpt>
      <trkpt lat="41.519650" lon="-3.255167">
        <ele>1414.0</ele>
        <time>2016-07-25T15:46:49Z</time>
      </trkpt>
      <trkpt lat="41.519550" lon="-3.255300">
        <ele>1415.0</ele>
        <time>2016-07-25T15:46:51Z</time>
      </trkpt>
      <trkpt lat="41.519517" lon="-3.255450">
        <ele>1415.0</ele>
        <time>2016-07-25T15:46:53Z</time>
      </trkpt>
      <trkpt lat="41.519533" lon="-3.255600">
        <ele>1417.0</ele>
        <time>2016-07-25T15:46:55Z</time>
      </trkpt>
      <trkpt lat="41.519567" lon="-3.255733">
        <ele>1420.0</ele>
        <time>2016-07-25T15:46:57Z</time>
      </trkpt>
      <trkpt lat="41.519600" lon="-3.255850">
        <ele>1422.0</ele>
        <time>2016-07-25T15:46:59Z</time>
      </trkpt>
      <trkpt lat="41.519650" lon="-3.255933">
        <ele>1425.0</ele>
        <time>2016-07-25T15:47:01Z</time>
      </trkpt>
      <trkpt lat="41.519733" lon="-3.255967">
        <ele>1427.0</ele>
        <time>2016-07-25T15:47:03Z</time>
      </trkpt>
      <trkpt lat="41.519833" lon="-3.255883">
        <ele>1428.0</ele>
        <time>2016-07-25T15:47:05Z</time>
      </trkpt>
      <trkpt lat="41.519883" lon="-3.255700">
        <ele>1429.0</ele>
        <time>2016-07-25T15:47:07Z</time>
      </trkpt>
      <trkpt lat="41.519867" lon="-3.255433">
        <ele>1430.0</ele>
        <time>2016-07-25T15:47:09Z</time>
      </trkpt>
      <trkpt lat="41.519750" lon="-3.255183">
        <ele>1431.0</ele>
        <time>2016-07-25T15:47:11Z</time>
      </trkpt>
      <trkpt lat="41.519550" lon="-3.255000">
        <ele>1431.0</ele>
        <time>2016-07-25T15:47:13Z</time>
      </trkpt>
      <trkpt lat="41.519300" lon="-3.254917">
        <ele>1430.0</ele>
        <time>2016-07-25T15:47:15Z</time>
      </trkpt>
      <trkpt lat="41.519050" lon="-3.254950">
        <ele>1429.0</ele>
        <time>2016-07-25T15:47:17Z</time>
      </trkpt>
      <trkpt lat="41.518883" lon="-3.255083">
        <ele>1430.0</ele>
        <time>2016-07-25T15:47:19Z</time>
      </trkpt>
      <trkpt lat="41.518767" lon="-3.255250">
        <ele>1435.0</ele>
        <time>2016-07-25T15:47:21Z</time>
      </trkpt>
      <trkpt lat="41.518717" lon="-3.255383">
        <ele>1437.0</ele>
        <time>2016-07-25T15:47:23Z</time>
      </trkpt>
      <trkpt lat="41.518700" lon="-3.255533">
        <ele>1439.0</ele>
        <time>2016-07-25T15:47:25Z</time>
      </trkpt>
      <trkpt lat="41.518767" lon="-3.255667">
        <ele>1445.0</ele>
        <time>2016-07-25T15:47:27Z</time>
      </trkpt>
      <trkpt lat="41.518833" lon="-3.255717">
        <ele>1452.0</ele>
        <time>2016-07-25T15:47:29Z</time>
      </trkpt>
      <trkpt lat="41.518917" lon="-3.255750">
        <ele>1457.0</ele>
        <time>2016-07-25T15:47:31Z</time>
      </trkpt>
      <trkpt lat="41.519017" lon="-3.255700">
        <ele>1461.0</ele>
        <time>2016-07-25T15:47:33Z</time>
      </trkpt>
      <trkpt lat="41.519100" lon="-3.255550">
        <ele>1466.0</ele>
        <time>2016-07-25T15:47:35Z</time>
      </trkpt>
      <trkpt lat="41.519117" lon="-3.255317">
        <ele>1470.0</ele>
        <time>2016-07-25T15:47:37Z</time>
      </trkpt>
      <trkpt lat="41.519067" lon="-3.255050">
        <ele>1471.0</ele>
        <time>2016-07-25T15:47:39Z</time>
      </trkpt>
      <trkpt lat="41.518950" lon="-3.254817">
        <ele>1472.0</ele>
        <time>2016-07-25T15:47:41Z</time>
      </trkpt>
      <trkpt lat="41.518733" lon="-3.254650">
        <ele>1471.0</ele>
        <time>2016-07-25T15:47:43Z</time>
      </trkpt>
      <trkpt lat="41.518500" lon="-3.254600">
        <ele>1471.0</ele>
        <time>2016-07-25T15:47:45Z</time>
      </trkpt>
      <trkpt lat="41.518283" lon="-3.254667">
        <ele>1471.0</ele>
        <time>2016-07-25T15:47:47Z</time>
      </trkpt>
      <trkpt lat="41.518117" lon="-3.254817">
        <ele>1473.0</ele>
        <time>2016-07-25T15:47:49Z</time>
      </trkpt>
      <trkpt lat="41.518033" lon="-3.254967">
        <ele>1478.0</ele>
        <time>2016-07-25T15:47:51Z</time>
      </trkpt>
      <trkpt lat="41.517983" lon="-3.255050">
        <ele>1482.0</ele>
        <time>2016-07-25T15:47:53Z</time>
      </trkpt>
      <trkpt lat="41.517950" lon="-3.255183">
        <ele>1483.0</ele>
        <time>2016-07-25T15:47:55Z</time>
      </trkpt>
      <trkpt lat="41.518000" lon="-3.255300">
        <ele>1489.0</ele>
        <time>2016-07-25T15:47:57Z</time>
      </trkpt>
      <trkpt lat="41.518067" lon="-3.255367">
        <ele>1495.0</ele>
        <time>2016-07-25T15:47:59Z</time>
      </trkpt>
      <trkpt lat="41.518133" lon="-3.255450">
        <ele>1500.0</ele>
        <time>2016-07-25T15:48:01Z</time>
      </trkpt>
      <trkpt lat="41.518250" lon="-3.255417">
        <ele>1505.0</ele>
        <time>2016-07-25T15:48:03Z</time>
      </trkpt>
      <trkpt lat="41.518333" lon="-3.255233">
        <ele>1510.0</ele>
        <time>2016-07-25T15:48:05Z</time>
      </trkpt>
      <trkpt lat="41.518317" lon="-3.255033">
        <ele>1515.0</ele>
        <time>2016-07-25T15:48:07Z</time>
      </trkpt>
      <trkpt lat="41.518250" lon="-3.254783">
        <ele>1516.0</ele>
        <time>2016-07-25T15:48:09Z</time>
      </trkpt>
      <trkpt lat="41.518100" lon="-3.254550">
        <ele>1517.0</ele>
        <time>2016-07-25T15:48:11Z</time>
      </trkpt>
      <trkpt lat="41.517900" lon="-3.254417">
        <ele>1519.0</ele>
        <time>2016-07-25T15:48:13Z</time>
      </trkpt>
      <trkpt lat="41.517667" lon="-3.254383">
        <ele>1520.0</ele>
        <time>2016-07-25T15:48:15Z</time>
      </trkpt>
      <trkpt lat="41.517467" lon="-3.254467">
        <ele>1520.0</ele>
        <time>2016-07-25T15:48:17Z</time>
      </trkpt>
      <trkpt lat="41.517283" lon="-3.254650">
        <ele>1522.0</ele>
        <time>2016-07-25T15:48:19Z</time>
      </trkpt>
      <trkpt lat="41.517167" lon="-3.254850">
        <ele>1527.0</ele>
        <time>2016-07-25T15:48:21Z</time>
      </trkpt>
      <trkpt lat="41.517067" lon="-3.255050">
        <ele>1533.0</ele>
        <time>2016-07-25T15:48:23Z</time>
      </trkpt>
      <trkpt lat="41.516950" lon="-3.255233">
        <ele>1541.0</ele>
        <time>2016-07-25T15:48:25Z</time>
      </trkpt>
      <trkpt lat="41.516850" lon="-3.255383">
        <ele>1547.0</ele>
        <time>2016-07-25T15:48:27Z</time>
      </trkpt>
      <trkpt lat="41.516800" lon="-3.255567">
        <ele>1551.0</ele>
        <time>2016-07-25T15:48:29Z</time>
      </trkpt>
      <trkpt lat="41.516817" lon="-3.255750">
        <ele>1555.0</ele>
        <time>2016-07-25T15:48:31Z</time>
      </trkpt>
      <trkpt lat="41.516883" lon="-3.255883">
        <ele>1562.0</ele>
        <time>2016-07-25T15:48:33Z</time>
      </trkpt>
      <trkpt lat="41.516933" lon="-3.255950">
        <ele>1572.0</ele>
        <time>2016-07-25T15:48:35Z</time>
      </trkpt>
      <trkpt lat="41.516967" lon="-3.256050">
        <ele>1579.0</ele>
        <time>2016-07-25T15:48:37Z</time>
      </trkpt>
      <trkpt lat="41.517050" lon="-3.256150">
        <ele>1583.0</ele>
        <time>2016-07-25T15:48:39Z</time>
      </trkpt>
      <trkpt lat="41.517167" lon="-3.256150">
        <ele>1588.0</ele>
        <time>2016-07-25T15:48:41Z</time>
      </trkpt>
      <trkpt lat="41.517283" lon="-3.256033">
        <ele>1593.0</ele>
        <time>2016-07-25T15:48:43Z</time>
      </trkpt>
      <trkpt lat="41.517400" lon="-3.255833">
        <ele>1597.0</ele>
        <time>2016-07-25T15:48:45Z</time>
      </trkpt>
      <trkpt lat="41.517450" lon="-3.255550">
        <ele>1604.0</ele>
        <time>2016-07-25T15:48:47Z</time>
      </trkpt>
      <trkpt lat="41.517433" lon="-3.255300">
        <ele>1612.0</ele>
        <time>2016-07-25T15:48:49Z</time>
      </trkpt>
      <trkpt lat="41.517350" lon="-3.255067">
        <ele>1619.0</ele>
        <time>2016-07-25T15:48:51Z</time>
      </trkpt>
      <trkpt lat="41.517167" lon="-3.254850">
        <ele>1625.0</ele>
        <time>2016-07-25T15:48:53Z</time>
      </trkpt>
      <trkpt lat="41.516967" lon="-3.254700">
        <ele>1634.0</ele>
        <time>2016-07-25T15:48:55Z</time>
      </trkpt>
      <trkpt lat="41.516783" lon="-3.254700">
        <ele>1641.0</ele>
        <time>2016-07-25T15:48:57Z</time>
      </trkpt>
      <trkpt lat="41.516617" lon="-3.254767">
        <ele>1646.0</ele>
        <time>2016-07-25T15:48:59Z</time>
      </trkpt>
      <trkpt lat="41.516533" lon="-3.254950">
        <ele>1651.0</ele>
        <time>2016-07-25T15:49:01Z</time>
      </trkpt>
      <trkpt lat="41.516500" lon="-3.255133">
        <ele>1658.0</ele>
        <time>2016-07-25T15:49:03Z</time>
      </trkpt>
      <trkpt lat="41.516550" lon="-3.255283">
        <ele>1663.0</ele>
        <time>2016-07-25T15:49:05Z</time>
      </trkpt>
      <trkpt lat="41.516650" lon="-3.255383">
        <ele>1669.0</ele>
        <time>2016-07-25T15:49:07Z</time>
      </trkpt>
      <trkpt lat="41.516767" lon="-3.255417">
        <ele>1676.0</ele>
        <time>2016-07-25T15:49:09Z</time>
      </trkpt>
      <trkpt lat="41.516900" lon="-3.255417">
        <ele>1683.0</ele>
        <time>2016-07-25T15:49:11Z</time>
      </trkpt>
      <trkpt lat="41.517033" lon="-3.255333">
        <ele>1687.0</ele>
        <time>2016-07-25T15:49:13Z</time>
      </trkpt>
      <trkpt lat="41.517183" lon="-3.255167">
        <ele>1692.0</ele>
        <time>2016-07-25T15:49:15Z</time>
      </trkpt>
      <trkpt lat="41.517233" lon="-3.254933">
        <ele>1700.0</ele>
        <time>2016-07-25T15:49:17Z</time>
      </trkpt>
      <trkpt lat="41.517183" lon="-3.254683">
        <ele>1702.0</ele>
        <time>2016-07-25T15:49:19Z</time>
      </trkpt>
      <trkpt lat="41.517067" lon="-3.254400">
        <ele>1704.0</ele>
        <time>2016-07-25T15:49:21Z</time>
      </trkpt>
      <trkpt lat="41.516867" lon="-3.254200">
        <ele>1710.0</ele>
        <time>2016-07-25T15:49:23Z</time>
      </trkpt>
      <trkpt lat="41.516650" lon="-3.254150">
        <ele>1716.0</ele>
        <time>2016-07-25T15:49:25Z</time>
      </trkpt>
      <trkpt lat="41.516450" lon="-3.254217">
        <ele>1721.0</ele>
        <time>2016-07-25T15:49:27Z</time>
      </trkpt>
      <trkpt lat="41.516300" lon="-3.254383">
        <ele>1728.0</ele>
        <time>2016-07-25T15:49:29Z</time>
      </trkpt>
      <trkpt lat="41.516233" lon="-3.254517">
        <ele>1740.0</ele>
        <time>2016-07-25T15:49:31Z</time>
      </trkpt>
      <trkpt lat="41.516183" lon="-3.254600">
        <ele>1744.0</ele>
        <time>2016-07-25T15:49:33Z</time>
      </trkpt>
      <trkpt lat="41.516150" lon="-3.254783">
        <ele>1744.0</ele>
        <time>2016-07-25T15:49:35Z</time>
      </trkpt>
      <trkpt lat="41.516200" lon="-3.254950">
        <ele>1747.0</ele>
        <time>2016-07-25T15:49:37Z</time>
      </trkpt>
      <trkpt lat="41.516300" lon="-3.255033">
        <ele>1754.0</ele>
        <time>2016-07-25T15:49:39Z</time>
      </trkpt>
      <trkpt lat="41.516400" lon="-3.255100">
        <ele>1763.0</ele>
        <time>2016-07-25T15:49:41Z</time>
      </trkpt>
      <trkpt lat="41.516483" lon="-3.255100">
        <ele>1769.0</ele>
        <time>2016-07-25T15:49:43Z</time>
      </trkpt>
      <trkpt lat="41.516583" lon="-3.254983">
        <ele>1773.0</ele>
        <time>2016-07-25T15:49:45Z</time>
      </trkpt>
      <trkpt lat="41.516650" lon="-3.254717">
        <ele>1778.0</ele>
        <time>2016-07-25T15:49:47Z</time>
      </trkpt>
      <trkpt lat="41.516617" lon="-3.254467">
        <ele>1786.0</ele>
        <time>2016-07-25T15:49:49Z</time>
      </trkpt>
      <trkpt lat="41.516500" lon="-3.254233">
        <ele>1791.0</ele>
        <time>2016-07-25T15:49:51Z</time>
      </trkpt>
      <trkpt lat="41.516317" lon="-3.254033">
        <ele>1795.0</ele>
        <time>2016-07-25T15:49:53Z</time>
      </trkpt>
      <trkpt lat="41.516100" lon="-3.253967">
        <ele>1802.0</ele>
        <time>2016-07-25T15:49:55Z</time>
      </trkpt>
      <trkpt lat="41.515917" lon="-3.254033">
        <ele>1809.0</ele>
        <time>2016-07-25T15:49:57Z</time>
      </trkpt>
      <trkpt lat="41.515800" lon="-3.254183">
        <ele>1815.0</ele>
        <time>2016-07-25T15:49:59Z</time>
      </trkpt>
      <trkpt lat="41.515817" lon="-3.254383">
        <ele>1818.0</ele>
        <time>2016-07-25T15:50:01Z</time>
      </trkpt>
      <trkpt lat="41.515867" lon="-3.254550">
        <ele>1826.0</ele>
        <time>2016-07-25T15:50:03Z</time>
      </trkpt>
      <trkpt lat="41.515917" lon="-3.254617">
        <ele>1834.0</ele>
        <time>2016-07-25T15:50:05Z</time>
      </trkpt>
      <trkpt lat="41.516017" lon="-3.254617">
        <ele>1837.0</ele>
        <time>2016-07-25T15:50:07Z</time>
      </trkpt>
      <trkpt lat="41.516133" lon="-3.254533">
        <ele>1841.0</ele>
        <time>2016-07-25T15:50:09Z</time>
      </trkpt>
      <trkpt lat="41.516183" lon="-3.254350">
        <ele>1847.0</ele>
        <time>2016-07-25T15:50:11Z</time>
      </trkpt>
      <trkpt lat="41.516150" lon="-3.254100">
        <ele>1851.0</ele>
        <time>2016-07-25T15:50:13Z</time>
      </trkpt>
      <trkpt lat="41.516067" lon="-3.253850">
        <ele>1855.0</ele>
        <time>2016-07-25T15:50:15Z</time>
      </trkpt>
      <trkpt lat="41.515900" lon="-3.253633">
        <ele>1860.0</ele>
        <time>2016-07-25T15:50:17Z</time>
      </trkpt>
      <trkpt lat="41.515683" lon="-3.253550">
        <ele>1866.0</ele>
        <time>2016-07-25T15:50:19Z</time>
      </trkpt>
      <trkpt lat="41.515533" lon="-3.253567">
        <ele>1874.0</ele>
        <time>2016-07-25T15:50:21Z</time>
      </trkpt>
      <trkpt lat="41.515417" lon="-3.253667">
        <ele>1878.0</ele>
        <time>2016-07-25T15:50:23Z</time>
      </trkpt>
      <trkpt lat="41.515350" lon="-3.253867">
        <ele>1880.0</ele>
        <time>2016-07-25T15:50:25Z</time>
      </trkpt>
      <trkpt lat="41.515367" lon="-3.254050">
        <ele>1886.0</ele>
        <time>2016-07-25T15:50:27Z</time>
      </trkpt>
      <trkpt lat="41.515433" lon="-3.254150">
        <ele>1893.0</ele>
        <time>2016-07-25T15:50:29Z</time>
      </trkpt>
      <trkpt lat="41.515533" lon="-3.254183">
        <ele>1900.0</ele>
        <time>2016-07-25T15:50:31Z</time>
      </trkpt>
      <trkpt lat="41.515633" lon="-3.254133">
        <ele>1906.0</ele>
        <time>2016-07-25T15:50:33Z</time>
      </trkpt>
      <trkpt lat="41.515700" lon="-3.254000">
        <ele>1910.0</ele>
        <time>2016-07-25T15:50:35Z</time>
      </trkpt>
      <trkpt lat="41.515767" lon="-3.253783">
        <ele>1914.0</ele>
        <time>2016-07-25T15:50:37Z</time>
      </trkpt>
      <trkpt lat="41.515750" lon="-3.253483">
        <ele>1918.0</ele>
        <time>2016-07-25T15:50:39Z</time>
      </trkpt>
      <trkpt lat="41.515633" lon="-3.253200">
        <ele>1924.0</ele>
        <time>2016-07-25T15:50:41Z</time>
      </trkpt>
      <trkpt lat="41.515467" lon="-3.253017">
        <ele>1931.0</ele>
        <time>2016-07-25T15:50:43Z</time>
      </trkpt>
      <trkpt lat="41.515267" lon="-3.252933">
        <ele>1937.0</ele>
        <time>2016-07-25T15:50:45Z</time>
      </trkpt>
      <trkpt lat="41.515083" lon="-3.252983">
        <ele>1944.0</ele>
        <time>2016-07-25T15:50:47Z</time>
      </trkpt>
      <trkpt lat="41.514950" lon="-3.253133">
        <ele>1950.0</ele>
        <time>2016-07-25T15:50:49Z</time>
      </trkpt>
      <trkpt lat="41.514883" lon="-3.253317">
        <ele>1955.0</ele>
        <time>2016-07-25T15:50:51Z</time>
      </trkpt>
      <trkpt lat="41.514917" lon="-3.253517">
        <ele>1960.0</ele>
        <time>2016-07-25T15:50:53Z</time>
      </trkpt>
      <trkpt lat="41.515017" lon="-3.253617">
        <ele>1968.0</ele>
        <time>2016-07-25T15:50:55Z</time>
      </trkpt>
      <trkpt lat="41.515100" lon="-3.253567">
        <ele>1974.0</ele>
        <time>2016-07-25T15:50:57Z</time>
      </trkpt>
      <trkpt lat="41.515217" lon="-3.253433">
        <ele>1977.0</ele>
        <time>2016-07-25T15:50:59Z</time>
      </trkpt>
      <trkpt lat="41.515283" lon="-3.253200">
        <ele>1981.0</ele>
        <time>2016-07-25T15:51:01Z</time>
      </trkpt>
      <trkpt lat="41.515233" lon="-3.252933">
        <ele>1988.0</ele>
        <time>2016-07-25T15:51:03Z</time>
      </trkpt>
      <trkpt lat="41.515117" lon="-3.252683">
        <ele>1993.0</ele>
        <time>2016-07-25T15:51:05Z</time>
      </trkpt>
      <trkpt lat="41.514933" lon="-3.252517">
        <ele>1999.0</ele>
        <time>2016-07-25T15:51:07Z</time>
      </trkpt>
      <trkpt lat="41.514717" lon="-3.252517">
        <ele>2006.0</ele>
        <time>2016-07-25T15:51:09Z</time>
      </trkpt>
      <trkpt lat="41.514550" lon="-3.252583">
        <ele>2015.0</ele>
        <time>2016-07-25T15:51:11Z</time>
      </trkpt>
      <trkpt lat="41.514417" lon="-3.252717">
        <ele>2020.0</ele>
        <time>2016-07-25T15:51:13Z</time>
      </trkpt>
      <trkpt lat="41.514383" lon="-3.252917">
        <ele>2024.0</ele>
        <time>2016-07-25T15:51:15Z</time>
      </trkpt>
      <trkpt lat="41.514450" lon="-3.253083">
        <ele>2030.0</ele>
        <time>2016-07-25T15:51:17Z</time>
      </trkpt>
      <trkpt lat="41.514550" lon="-3.253167">
        <ele>2036.0</ele>
        <time>2016-07-25T15:51:19Z</time>
      </trkpt>
      <trkpt lat="41.514667" lon="-3.253167">
        <ele>2041.0</ele>
        <time>2016-07-25T15:51:21Z</time>
      </trkpt>
      <trkpt lat="41.514800" lon="-3.253100">
        <ele>2042.0</ele>
        <time>2016-07-25T15:51:23Z</time>
      </trkpt>
      <trkpt lat="41.514917" lon="-3.252917">
        <ele>2043.0</ele>
        <time>2016-07-25T15:51:25Z</time>
      </trkpt>
      <trkpt lat="41.514983" lon="-3.252633">
        <ele>2045.0</ele>
        <time>2016-07-25T15:51:27Z</time>
      </trkpt>
      <trkpt lat="41.514917" lon="-3.252317">
        <ele>2048.0</ele>
        <time>2016-07-25T15:51:29Z</time>
      </trkpt>
      <trkpt lat="41.514767" lon="-3.252083">
        <ele>2054.0</ele>
        <time>2016-07-25T15:51:31Z</time>
      </trkpt>
      <trkpt lat="41.514583" lon="-3.251917">
        <ele>2061.0</ele>
        <time>2016-07-25T15:51:33Z</time>
      </trkpt>
      <trkpt lat="41.514383" lon="-3.251850">
        <ele>2066.0</ele>
        <time>2016-07-25T15:51:35Z</time>
      </trkpt>
      <trkpt lat="41.514200" lon="-3.251917">
        <ele>2071.0</ele>
        <time>2016-07-25T15:51:37Z</time>
      </trkpt>
      <trkpt lat="41.514067" lon="-3.252067">
        <ele>2078.0</ele>
        <time>2016-07-25T15:51:39Z</time>
      </trkpt>
      <trkpt lat="41.514017" lon="-3.252267">
        <ele>2083.0</ele>
        <time>2016-07-25T15:51:41Z</time>
      </trkpt>
      <trkpt lat="41.514067" lon="-3.252433">
        <ele>2089.0</ele>
        <time>2016-07-25T15:51:43Z</time>
      </trkpt>
      <trkpt lat="41.514167" lon="-3.252500">
        <ele>2095.0</ele>
        <time>2016-07-25T15:51:45Z</time>
      </trkpt>
      <trkpt lat="41.514267" lon="-3.252483">
        <ele>2098.0</ele>
        <time>2016-07-25T15:51:47Z</time>
      </trkpt>
      <trkpt lat="41.514400" lon="-3.252383">
        <ele>2100.0</ele>
        <time>2016-07-25T15:51:49Z</time>
      </trkpt>
      <trkpt lat="41.514533" lon="-3.252167">
        <ele>2103.0</ele>
        <time>2016-07-25T15:51:51Z</time>
      </trkpt>
      <trkpt lat="41.514533" lon="-3.251900">
        <ele>2108.0</ele>
        <time>2016-07-25T15:51:53Z</time>
      </trkpt>
      <trkpt lat="41.514417" lon="-3.251683">
        <ele>2110.0</ele>
        <time>2016-07-25T15:51:55Z</time>
      </trkpt>
      <trkpt lat="41.514250" lon="-3.251533">
        <ele>2116.0</ele>
        <time>2016-07-25T15:51:57Z</time>
      </trkpt>
      <trkpt lat="41.514050" lon="-3.251483">
        <ele>2121.0</ele>
        <time>2016-07-25T15:51:59Z</time>
      </trkpt>
      <trkpt lat="41.513867" lon="-3.251583">
        <ele>2127.0</ele>
        <time>2016-07-25T15:52:01Z</time>
      </trkpt>
      <trkpt lat="41.513750" lon="-3.251717">
        <ele>2134.0</ele>
        <time>2016-07-25T15:52:03Z</time>
      </trkpt>
      <trkpt lat="41.513683" lon="-3.251867">
        <ele>2140.0</ele>
        <time>2016-07-25T15:52:05Z</time>
      </trkpt>
      <trkpt lat="41.513683" lon="-3.252033">
        <ele>2143.0</ele>
        <time>2016-07-25T15:52:07Z</time>
      </trkpt>
      <trkpt lat="41.513767" lon="-3.252167">
        <ele>2146.0</ele>
        <time>2016-07-25T15:52:09Z</time>
      </trkpt>
      <trkpt lat="41.513900" lon="-3.252183">
        <ele>2150.0</ele>
        <time>2016-07-25T15:52:11Z</time>
      </trkpt>
      <trkpt lat="41.514050" lon="-3.252117">
        <ele>2152.0</ele>
        <time>2016-07-25T15:52:13Z</time>
      </trkpt>
      <trkpt lat="41.514167" lon="-3.251950">
        <ele>2153.0</ele>
        <time>2016-07-25T15:52:15Z</time>
      </trkpt>
      <trkpt lat="41.514233" lon="-3.251683">
        <ele>2156.0</ele>
        <time>2016-07-25T15:52:17Z</time>
      </trkpt>
      <trkpt lat="41.514217" lon="-3.251383">
        <ele>2159.0</ele>
        <time>2016-07-25T15:52:19Z</time>
      </trkpt>
      <trkpt lat="41.514100" lon="-3.251083">
        <ele>2164.0</ele>
        <time>2016-07-25T15:52:21Z</time>
      </trkpt>
      <trkpt lat="41.513933" lon="-3.250883">
        <ele>2169.0</ele>
        <time>2016-07-25T15:52:23Z</time>
      </trkpt>
      <trkpt lat="41.513733" lon="-3.250817">
        <ele>2175.0</ele>
        <time>2016-07-25T15:52:25Z</time>
      </trkpt>
      <trkpt lat="41.513550" lon="-3.250900">
        <ele>2181.0</ele>
        <time>2016-07-25T15:52:27Z</time>
      </trkpt>
      <trkpt lat="41.513450" lon="-3.251050">
        <ele>2190.0</ele>
        <time>2016-07-25T15:52:29Z</time>
      </trkpt>
      <trkpt lat="41.513450" lon="-3.251183">
        <ele>2197.0</ele>
        <time>2016-07-25T15:52:31Z</time>
      </trkpt>
      <trkpt lat="41.513517" lon="-3.251267">
        <ele>2198.0</ele>
        <time>2016-07-25T15:52:33Z</time>
      </trkpt>
      <trkpt lat="41.513650" lon="-3.251233">
        <ele>2199.0</ele>
        <time>2016-07-25T15:52:35Z</time>
      </trkpt>
      <trkpt lat="41.513783" lon="-3.251067">
        <ele>2200.0</ele>
        <time>2016-07-25T15:52:37Z</time>
      </trkpt>
      <trkpt lat="41.513867" lon="-3.250767">
        <ele>2204.0</ele>
        <time>2016-07-25T15:52:39Z</time>
      </trkpt>
      <trkpt lat="41.513850" lon="-3.250433">
        <ele>2212.0</ele>
        <time>2016-07-25T15:52:41Z</time>
      </trkpt>
      <trkpt lat="41.513783" lon="-3.250167">
        <ele>2221.0</ele>
        <time>2016-07-25T15:52:43Z</time>
      </trkpt>
      <trkpt lat="41.513650" lon="-3.249983">
        <ele>2227.0</ele>
        <time>2016-07-25T15:52:45Z</time>
      </trkpt>
      <trkpt lat="41.513467" lon="-3.249917">
        <ele>2229.0</ele>
        <time>2016-07-25T15:52:47Z</time>
      </trkpt>
      <trkpt lat="41.513283" lon="-3.249983">
        <ele>2235.0</ele>
        <time>2016-07-25T15:52:49Z</time>
      </trkpt>
      <trkpt lat="41.513183" lon="-3.250100">
        <ele>2247.0</ele>
        <time>2016-07-25T15:52:51Z</time>
      </trkpt>
      <trkpt lat="41.513150" lon="-3.250183">
        <ele>2254.0</ele>
        <time>2016-07-25T15:52:53Z</time>
      </trkpt>
      <trkpt lat="41.513183" lon="-3.250267">
        <ele>2257.0</ele>
        <time>2016-07-25T15:52:55Z</time>
      </trkpt>
      <trkpt lat="41.513300" lon="-3.250300">
        <ele>2259.0</ele>
        <time>2016-07-25T15:52:57Z</time>
      </trkpt>
      <trkpt lat="41.513433" lon="-3.250217">
        <ele>2263.0</ele>
        <time>2016-07-25T15:52:59Z</time>
      </trkpt>
      <trkpt lat="41.513583" lon="-3.250067">
        <ele>2265.0</ele>
        <time>2016-07-25T15:53:01Z</time>
      </trkpt>
      <trkpt lat="41.513750" lon="-3.249850">
        <ele>2268.0</ele>
        <time>2016-07-25T15:53:03Z</time>
      </trkpt>
      <trkpt lat="41.513850" lon="-3.249567">
        <ele>2275.0</ele>
        <time>2016-07-25T15:53:05Z</time>
      </trkpt>
      <trkpt lat="41.513900" lon="-3.249267">
        <ele>2280.0</ele>
        <time>2016-07-25T15:53:07Z</time>
      </trkpt>
      <trkpt lat="41.513850" lon="-3.248933">
        <ele>2284.0</ele>
        <time>2016-07-25T15:53:09Z</time>
      </trkpt>
      <trkpt lat="41.513683" lon="-3.248700">
        <ele>2287.0</ele>
        <time>2016-07-25T15:53:11Z</time>
      </trkpt>
      <trkpt lat="41.513483" lon="-3.248617">
        <ele>2290.0</ele>
        <time>2016-07-25T15:53:13Z</time>
      </trkpt>
      <trkpt lat="41.513317" lon="-3.248650">
        <ele>2293.0</ele>
        <time>2016-07-25T15:53:15Z</time>
      </trkpt>
      <trkpt lat="41.513200" lon="-3.248750">
        <ele>2295.0</ele>
        <time>2016-07-25T15:53:17Z</time>
      </trkpt>
      <trkpt lat="41.513183" lon="-3.248933">
        <ele>2298.0</ele>
        <time>2016-07-25T15:53:19Z</time>
      </trkpt>
      <trkpt lat="41.513283" lon="-3.249067">
        <ele>2304.0</ele>
        <time>2016-07-25T15:53:21Z</time>
      </trkpt>
      <trkpt lat="41.513417" lon="-3.249100">
        <ele>2310.0</ele>
        <time>2016-07-25T15:53:23Z</time>
      </trkpt>
      <trkpt lat="41.513567" lon="-3.249083">
        <ele>2314.0</ele>
        <time>2016-07-25T15:53:25Z</time>
      </trkpt>
      <trkpt lat="41.513767" lon="-3.248983">
        <ele>2317.0</ele>
        <time>2016-07-25T15:53:27Z</time>
      </trkpt>
      <trkpt lat="41.513933" lon="-3.248767">
        <ele>2319.0</ele>
        <time>2016-07-25T15:53:29Z</time>
      </trkpt>
      <trkpt lat="41.514000" lon="-3.248433">
        <ele>2320.0</ele>
        <time>2016-07-25T15:53:31Z</time>
      </trkpt>
      <trkpt lat="41.514000" lon="-3.248050">
        <ele>2322.0</ele>
        <time>2016-07-25T15:53:33Z</time>
      </trkpt>
      <trkpt lat="41.513917" lon="-3.247733">
        <ele>2328.0</ele>
        <time>2016-07-25T15:53:35Z</time>
      </trkpt>
      <trkpt lat="41.513733" lon="-3.247533">
        <ele>2331.0</ele>
        <time>2016-07-25T15:53:37Z</time>
      </trkpt>
      <trkpt lat="41.513533" lon="-3.247467">
        <ele>2334.0</ele>
        <time>2016-07-25T15:53:39Z</time>
      </trkpt>
      <trkpt lat="41.513433" lon="-3.247550">
        <ele>2337.0</ele>
        <time>2016-07-25T15:53:41Z</time>
      </trkpt>
      <trkpt lat="41.513400" lon="-3.247683">
        <ele>2340.0</ele>
        <time>2016-07-25T15:53:43Z</time>
      </trkpt>
      <trkpt lat="41.513450" lon="-3.247817">
        <ele>2345.0</ele>
        <time>2016-07-25T15:53:45Z</time>
      </trkpt>
      <trkpt lat="41.513583" lon="-3.247883">
        <ele>2350.0</ele>
        <time>2016-07-25T15:53:47Z</time>
      </trkpt>
      <trkpt lat="41.513733" lon="-3.247867">
        <ele>2355.0</ele>
        <time>2016-07-25T15:53:49Z</time>
      </trkpt>
      <trkpt lat="41.513900" lon="-3.247733">
        <ele>2357.0</ele>
        <time>2016-07-25T15:53:51Z</time>
      </trkpt>
      <trkpt lat="41.514050" lon="-3.247467">
        <ele>2357.0</ele>
        <time>2016-07-25T15:53:53Z</time>
      </trkpt>
      <trkpt lat="41.514100" lon="-3.247133">
        <ele>2361.0</ele>
        <time>2016-07-25T15:53:55Z</time>
      </trkpt>
      <trkpt lat="41.514067" lon="-3.246817">
        <ele>2364.0</ele>
        <time>2016-07-25T15:53:57Z</time>
      </trkpt>
      <trkpt lat="41.513950" lon="-3.246517">
        <ele>2365.0</ele>
        <time>2016-07-25T15:53:59Z</time>
      </trkpt>
      <trkpt lat="41.513767" lon="-3.246283">
        <ele>2367.0</ele>
        <time>2016-07-25T15:54:01Z</time>
      </trkpt>
      <trkpt lat="41.513550" lon="-3.246167">
        <ele>2369.0</ele>
        <time>2016-07-25T15:54:03Z</time>
      </trkpt>
      <trkpt lat="41.513367" lon="-3.246167">
        <ele>2371.0</ele>
        <time>2016-07-25T15:54:05Z</time>
      </trkpt>
      <trkpt lat="41.513250" lon="-3.246250">
        <ele>2373.0</ele>
        <time>2016-07-25T15:54:07Z</time>
      </trkpt>
      <trkpt lat="41.513200" lon="-3.246400">
        <ele>2377.0</ele>
        <time>2016-07-25T15:54:09Z</time>
      </trkpt>
      <trkpt lat="41.513267" lon="-3.246517">
        <ele>2380.0</ele>
        <time>2016-07-25T15:54:11Z</time>
      </trkpt>
      <trkpt lat="41.513400" lon="-3.246567">
        <ele>2385.0</ele>
        <time>2016-07-25T15:54:13Z</time>
      </trkpt>
      <trkpt lat="41.513550" lon="-3.246517">
        <ele>2390.0</ele>
        <time>2016-07-25T15:54:15Z</time>
      </trkpt>
      <trkpt lat="41.513683" lon="-3.246350">
        <ele>2393.0</ele>
        <time>2016-07-25T15:54:17Z</time>
      </trkpt>
      <trkpt lat="41.513750" lon="-3.246033">
        <ele>2393.0</ele>
        <time>2016-07-25T15:54:19Z</time>
      </trkpt>
      <trkpt lat="41.513717" lon="-3.245667">
        <ele>2394.0</ele>
        <time>2016-07-25T15:54:21Z</time>
      </trkpt>
      <trkpt lat="41.513600" lon="-3.245367">
        <ele>2399.0</ele>
        <time>2016-07-25T15:54:23Z</time>
      </trkpt>
      <trkpt lat="41.513433" lon="-3.245167">
        <ele>2401.0</ele>
        <time>2016-07-25T15:54:25Z</time>
      </trkpt>
      <trkpt lat="41.513233" lon="-3.245017">
        <ele>2402.0</ele>
        <time>2016-07-25T15:54:27Z</time>
      </trkpt>
      <trkpt lat="41.513017" lon="-3.244967">
        <ele>2403.0</ele>
        <time>2016-07-25T15:54:29Z</time>
      </trkpt>
      <trkpt lat="41.512850" lon="-3.245050">
        <ele>2404.0</ele>
        <time>2016-07-25T15:54:31Z</time>
      </trkpt>
      <trkpt lat="41.512767" lon="-3.245200">
        <ele>2407.0</ele>
        <time>2016-07-25T15:54:33Z</time>
      </trkpt>
      <trkpt lat="41.512783" lon="-3.245317">
        <ele>2411.0</ele>
        <time>2016-07-25T15:54:35Z</time>
      </trkpt>
      <trkpt lat="41.512850" lon="-3.245400">
        <ele>2414.0</ele>
        <time>2016-07-25T15:54:37Z</time>
      </trkpt>
      <trkpt lat="41.512950" lon="-3.245450">
        <ele>2417.0</ele>
        <time>2016-07-25T15:54:39Z</time>
      </trkpt>
      <trkpt lat="41.513117" lon="-3.245467">
        <ele>2420.0</ele>
        <time>2016-07-25T15:54:41Z</time>
      </trkpt>
      <trkpt lat="41.513300" lon="-3.245367">
        <ele>2424.0</ele>
        <time>2016-07-25T15:54:43Z</time>
      </trkpt>
      <trkpt lat="41.513433" lon="-3.245133">
        <ele>2428.0</ele>
        <time>2016-07-25T15:54:45Z</time>
      </trkpt>
      <trkpt lat="41.513483" lon="-3.244833">
        <ele>2431.0</ele>
        <time>2016-07-25T15:54:47Z</time>
      </trkpt>
      <trkpt lat="41.513450" lon="-3.244550">
        <ele>2433.0</ele>
        <time>2016-07-25T15:54:49Z</time>
      </trkpt>
      <trkpt lat="41.513367" lon="-3.244250">
        <ele>2434.0</ele>
        <time>2016-07-25T15:54:51Z</time>
      </trkpt>
      <trkpt lat="41.513183" lon="-3.244017">
        <ele>2433.0</ele>
        <time>2016-07-25T15:54:53Z</time>
      </trkpt>
      <trkpt lat="41.513000" lon="-3.243933">
        <ele>2436.0</ele>
        <time>2016-07-25T15:54:55Z</time>
      </trkpt>
      <trkpt lat="41.512833" lon="-3.243933">
        <ele>2436.0</ele>
        <time>2016-07-25T15:54:57Z</time>
      </trkpt>
      <trkpt lat="41.512700" lon="-3.244033">
        <ele>2437.0</ele>
        <time>2016-07-25T15:54:59Z</time>
      </trkpt>
      <trkpt lat="41.512667" lon="-3.244167">
        <ele>2440.0</ele>
        <time>2016-07-25T15:55:01Z</time>
      </trkpt>
      <trkpt lat="41.512683" lon="-3.244283">
        <ele>2443.0</ele>
        <time>2016-07-25T15:55:03Z</time>
      </trkpt>
      <trkpt lat="41.512733" lon="-3.244350">
        <ele>2445.0</ele>
        <time>2016-07-25T15:55:05Z</time>
      </trkpt>
      <trkpt lat="41.512867" lon="-3.244400">
        <ele>2446.0</ele>
        <time>2016-07-25T15:55:07Z</time>
      </trkpt>
      <trkpt lat="41.513033" lon="-3.244400">
        <ele>2448.0</ele>
        <time>2016-07-25T15:55:09Z</time>
      </trkpt>
      <trkpt lat="41.513183" lon="-3.244333">
        <ele>2452.0</ele>
        <time>2016-07-25T15:55:11Z</time>
      </trkpt>
      <trkpt lat="41.513333" lon="-3.244167">
        <ele>2454.0</ele>
        <time>2016-07-25T15:55:13Z</time>
      </trkpt>
      <trkpt lat="41.513450" lon="-3.243900">
        <ele>2456.0</ele>
        <time>2016-07-25T15:55:15Z</time>
      </trkpt>
      <trkpt lat="41.513500" lon="-3.243600">
        <ele>2459.0</ele>
        <time>2016-07-25T15:55:17Z</time>
      </trkpt>
      <trkpt lat="41.513433" lon="-3.243300">
        <ele>2458.0</ele>
        <time>2016-07-25T15:55:19Z</time>
      </trkpt>
      <trkpt lat="41.513317" lon="-3.243000">
        <ele>2457.0</ele>
        <time>2016-07-25T15:55:21Z</time>
      </trkpt>
      <trkpt lat="41.513117" lon="-3.242850">
        <ele>2457.0</ele>
        <time>2016-07-25T15:55:23Z</time>
      </trkpt>
      <trkpt lat="41.512950" lon="-3.242833">
        <ele>2457.0</ele>
        <time>2016-07-25T15:55:25Z</time>
      </trkpt>
      <trkpt lat="41.512817" lon="-3.242883">
        <ele>2458.0</ele>
        <time>2016-07-25T15:55:27Z</time>
      </trkpt>
      <trkpt lat="41.512767" lon="-3.243017">
        <ele>2457.0</ele>
        <time>2016-07-25T15:55:29Z</time>
      </trkpt>
      <trkpt lat="41.512817" lon="-3.243133">
        <ele>2457.0</ele>
        <time>2016-07-25T15:55:31Z</time>
      </trkpt>
      <trkpt lat="41.512917" lon="-3.243200">
        <ele>2460.0</ele>
        <time>2016-07-25T15:55:33Z</time>
      </trkpt>
      <trkpt lat="41.513017" lon="-3.243233">
        <ele>2461.0</ele>
        <time>2016-07-25T15:55:35Z</time>
      </trkpt>
      <trkpt lat="41.513150" lon="-3.243283">
        <ele>2461.0</ele>
        <time>2016-07-25T15:55:37Z</time>
      </trkpt>
      <trkpt lat="41.513300" lon="-3.243283">
        <ele>2461.0</ele>
        <time>2016-07-25T15:55:39Z</time>
      </trkpt>
      <trkpt lat="41.513433" lon="-3.243267">
        <ele>2461.0</ele>
        <time>2016-07-25T15:55:41Z</time>
      </trkpt>
      <trkpt lat="41.513583" lon="-3.243200">
        <ele>2458.0</ele>
        <time>2016-07-25T15:55:43Z</time>
      </trkpt>
      <trkpt lat="41.513733" lon="-3.243133">
        <ele>2456.0</ele>
        <time>2016-07-25T15:55:45Z</time>
      </trkpt>
      <trkpt lat="41.513850" lon="-3.243067">
        <ele>2455.0</ele>
        <time>2016-07-25T15:55:47Z</time>
      </trkpt>
      <trkpt lat="41.513983" lon="-3.242967">
        <ele>2451.0</ele>
        <time>2016-07-25T15:55:49Z</time>
      </trkpt>
      <trkpt lat="41.514150" lon="-3.242867">
        <ele>2448.0</ele>
        <time>2016-07-25T15:55:51Z</time>
      </trkpt>
      <trkpt lat="41.514283" lon="-3.242783">
        <ele>2449.0</ele>
        <time>2016-07-25T15:55:53Z</time>
      </trkpt>
      <trkpt lat="41.514383" lon="-3.242700">
        <ele>2445.0</ele>
        <time>2016-07-25T15:55:55Z</time>
      </trkpt>
      <trkpt lat="41.514550" lon="-3.242633">
        <ele>2441.0</ele>
        <time>2016-07-25T15:55:57Z</time>
      </trkpt>
      <trkpt lat="41.514683" lon="-3.242550">
        <ele>2440.0</ele>
        <time>2016-07-25T15:55:59Z</time>
      </trkpt>
      <trkpt lat="41.514800" lon="-3.242450">
        <ele>2437.0</ele>
        <time>2016-07-25T15:56:01Z</time>
      </trkpt>
      <trkpt lat="41.514917" lon="-3.242367">
        <ele>2433.0</ele>
        <time>2016-07-25T15:56:03Z</time>
      </trkpt>
      <trkpt lat="41.515033" lon="-3.242300">
        <ele>2429.0</ele>
        <time>2016-07-25T15:56:05Z</time>
      </trkpt>
      <trkpt lat="41.515150" lon="-3.242233">
        <ele>2425.0</ele>
        <time>2016-07-25T15:56:07Z</time>
      </trkpt>
      <trkpt lat="41.515283" lon="-3.242117">
        <ele>2423.0</ele>
        <time>2016-07-25T15:56:09Z</time>
      </trkpt>
      <trkpt lat="41.515400" lon="-3.242000">
        <ele>2422.0</ele>
        <time>2016-07-25T15:56:11Z</time>
      </trkpt>
      <trkpt lat="41.515483" lon="-3.241900">
        <ele>2419.0</ele>
        <time>2016-07-25T15:56:13Z</time>
      </trkpt>
      <trkpt lat="41.515600" lon="-3.241783">
        <ele>2413.0</ele>
        <time>2016-07-25T15:56:15Z</time>
      </trkpt>
      <trkpt lat="41.515733" lon="-3.241667">
        <ele>2409.0</ele>
        <time>2016-07-25T15:56:17Z</time>
      </trkpt>
      <trkpt lat="41.515833" lon="-3.241567">
        <ele>2406.0</ele>
        <time>2016-07-25T15:56:19Z</time>
      </trkpt>
      <trkpt lat="41.521867" lon="-3.230983">
        <ele>2092.0</ele>
        <time>2016-07-25T15:58:03Z</time>
      </trkpt>
      <trkpt lat="41.522033" lon="-3.230833">
        <ele>2083.0</ele>
        <time>2016-07-25T15:58:05Z</time>
      </trkpt>
      <trkpt lat="41.522200" lon="-3.230683">
        <ele>2076.0</ele>
        <time>2016-07-25T15:58:07Z</time>
      </trkpt>
      <trkpt lat="41.522350" lon="-3.230550">
        <ele>2070.0</ele>
        <time>2016-07-25T15:58:09Z</time>
      </trkpt>
      <trkpt lat="41.522500" lon="-3.230417">
        <ele>2064.0</ele>
        <time>2016-07-25T15:58:11Z</time>
      </trkpt>
      <trkpt lat="41.522667" lon="-3.230300">
        <ele>2058.0</ele>
        <time>2016-07-25T15:58:13Z</time>
      </trkpt>
      <trkpt lat="41.522817" lon="-3.230200">
        <ele>2053.0</ele>
        <time>2016-07-25T15:58:15Z</time>
      </trkpt>
      <trkpt lat="41.522967" lon="-3.230100">
        <ele>2046.0</ele>
        <time>2016-07-25T15:58:17Z</time>
      </trkpt>
      <trkpt lat="41.523150" lon="-3.230000">
        <ele>2039.0</ele>
        <time>2016-07-25T15:58:19Z</time>
      </trkpt>
      <trkpt lat="41.523333" lon="-3.229917">
        <ele>2033.0</ele>
        <time>2016-07-25T15:58:21Z</time>
      </trkpt>
      <trkpt lat="41.523517" lon="-3.229817">
        <ele>2029.0</ele>
        <time>2016-07-25T15:58:23Z</time>
      </trkpt>
      <trkpt lat="41.523683" lon="-3.229700">
        <ele>2026.0</ele>
        <time>2016-07-25T15:58:25Z</time>
      </trkpt>
      <trkpt lat="41.523800" lon="-3.229617">
        <ele>2020.0</ele>
        <time>2016-07-25T15:58:27Z</time>
      </trkpt>
      <trkpt lat="41.523950" lon="-3.229533">
        <ele>2011.0</ele>
        <time>2016-07-25T15:58:29Z</time>
      </trkpt>
      <trkpt lat="41.524117" lon="-3.229467">
        <ele>2002.0</ele>
        <time>2016-07-25T15:58:31Z</time>
      </trkpt>
      <trkpt lat="41.524267" lon="-3.229417">
        <ele>1996.0</ele>
        <time>2016-07-25T15:58:33Z</time>
      </trkpt>
      <trkpt lat="41.524417" lon="-3.229317">
        <ele>1989.0</ele>
        <time>2016-07-25T15:58:35Z</time>
      </trkpt>
      <trkpt lat="41.524583" lon="-3.229217">
        <ele>1980.0</ele>
        <time>2016-07-25T15:58:37Z</time>
      </trkpt>
      <trkpt lat="41.524750" lon="-3.229117">
        <ele>1973.0</ele>
        <time>2016-07-25T15:58:39Z</time>
      </trkpt>
      <trkpt lat="41.524917" lon="-3.229000">
        <ele>1966.0</ele>
        <time>2016-07-25T15:58:41Z</time>
      </trkpt>
      <trkpt lat="41.525100" lon="-3.228883">
        <ele>1961.0</ele>
        <time>2016-07-25T15:58:43Z</time>
      </trkpt>
      <trkpt lat="41.525250" lon="-3.228733">
        <ele>1962.0</ele>
        <time>2016-07-25T15:58:45Z</time>
      </trkpt>
      <trkpt lat="41.525383" lon="-3.228600">
        <ele>1961.0</ele>
        <time>2016-07-25T15:58:47Z</time>
      </trkpt>
      <trkpt lat="41.525533" lon="-3.228483">
        <ele>1958.0</ele>
        <time>2016-07-25T15:58:49Z</time>
      </trkpt>
      <trkpt lat="41.525667" lon="-3.228350">
        <ele>1956.0</ele>
        <time>2016-07-25T15:58:51Z</time>
      </trkpt>
      <trkpt lat="41.525817" lon="-3.228217">
        <ele>1954.0</ele>
        <time>2016-07-25T15:58:53Z</time>
      </trkpt>
      <trkpt lat="41.525967" lon="-3.228083">
        <ele>1951.0</ele>
        <time>2016-07-25T15:58:55Z</time>
      </trkpt>
      <trkpt lat="41.526117" lon="-3.227950">
        <ele>1949.0</ele>
        <time>2016-07-25T15:58:57Z</time>
      </trkpt>
      <trkpt lat="41.526250" lon="-3.227850">
        <ele>1948.0</ele>
        <time>2016-07-25T15:58:59Z</time>
      </trkpt>
      <trkpt lat="41.526433" lon="-3.227750">
        <ele>1946.0</ele>
        <time>2016-07-25T15:59:01Z</time>
      </trkpt>
      <trkpt lat="41.526617" lon="-3.227583">
        <ele>1947.0</ele>
        <time>2016-07-25T15:59:03Z</time>
      </trkpt>
      <trkpt lat="41.526800" lon="-3.227450">
        <ele>1953.0</ele>
        <time>2016-07-25T15:59:05Z</time>
      </trkpt>
      <trkpt lat="41.526933" lon="-3.227367">
        <ele>1957.0</ele>
        <time>2016-07-25T15:59:07Z</time>
      </trkpt>
      <trkpt lat="41.527067" lon="-3.227267">
        <ele>1954.0</ele>
        <time>2016-07-25T15:59:09Z</time>
      </trkpt>
      <trkpt lat="41.527217" lon="-3.227100">
        <ele>1950.0</ele>
        <time>2016-07-25T15:59:11Z</time>
      </trkpt>
      <trkpt lat="41.527283" lon="-3.226867">
        <ele>1950.0</ele>
        <time>2016-07-25T15:59:13Z</time>
      </trkpt>
      <trkpt lat="41.527233" lon="-3.226617">
        <ele>1947.0</ele>
        <time>2016-07-25T15:59:15Z</time>
      </trkpt>
      <trkpt lat="41.527117" lon="-3.226417">
        <ele>1945.0</ele>
        <time>2016-07-25T15:59:17Z</time>
      </trkpt>
      <trkpt lat="41.526933" lon="-3.226367">
        <ele>1943.0</ele>
        <time>2016-07-25T15:59:19Z</time>
      </trkpt>
      <trkpt lat="41.526750" lon="-3.226433">
        <ele>1942.0</ele>
        <time>2016-07-25T15:59:21Z</time>
      </trkpt>
      <trkpt lat="41.526650" lon="-3.226583">
        <ele>1945.0</ele>
        <time>2016-07-25T15:59:23Z</time>
      </trkpt>
      <trkpt lat="41.526633" lon="-3.226717">
        <ele>1948.0</ele>
        <time>2016-07-25T15:59:25Z</time>
      </trkpt>
      <trkpt lat="41.526683" lon="-3.226833">
        <ele>1950.0</ele>
        <time>2016-07-25T15:59:27Z</time>
      </trkpt>
      <trkpt lat="41.526750" lon="-3.226900">
        <ele>1953.0</ele>
        <time>2016-07-25T15:59:29Z</time>
      </trkpt>
      <trkpt lat="41.526833" lon="-3.226967">
        <ele>1955.0</ele>
        <time>2016-07-25T15:59:31Z</time>
      </trkpt>
      <trkpt lat="41.526983" lon="-3.227000">
        <ele>1957.0</ele>
        <time>2016-07-25T15:59:33Z</time>
      </trkpt>
      <trkpt lat="41.527100" lon="-3.227017">
        <ele>1959.0</ele>
        <time>2016-07-25T15:59:35Z</time>
      </trkpt>
      <trkpt lat="41.527250" lon="-3.227100">
        <ele>1958.0</ele>
        <time>2016-07-25T15:59:37Z</time>
      </trkpt>
      <trkpt lat="41.527417" lon="-3.227150">
        <ele>1961.0</ele>
        <time>2016-07-25T15:59:39Z</time>
      </trkpt>
      <trkpt lat="41.527533" lon="-3.227167">
        <ele>1967.0</ele>
        <time>2016-07-25T15:59:41Z</time>
      </trkpt>
      <trkpt lat="41.527650" lon="-3.227150">
        <ele>1969.0</ele>
        <time>2016-07-25T15:59:43Z</time>
      </trkpt>
      <trkpt lat="41.527800" lon="-3.227050">
        <ele>1968.0</ele>
        <time>2016-07-25T15:59:45Z</time>
      </trkpt>
      <trkpt lat="41.527950" lon="-3.226867">
        <ele>1972.0</ele>
        <time>2016-07-25T15:59:47Z</time>
      </trkpt>
      <trkpt lat="41.527983" lon="-3.226583">
        <ele>1975.0</ele>
        <time>2016-07-25T15:59:49Z</time>
      </trkpt>
      <trkpt lat="41.527917" lon="-3.226283">
        <ele>1976.0</ele>
        <time>2016-07-25T15:59:51Z</time>
      </trkpt>
      <trkpt lat="41.527767" lon="-3.226067">
        <ele>1977.0</ele>
        <time>2016-07-25T15:59:53Z</time>
      </trkpt>
      <trkpt lat="41.527567" lon="-3.225967">
        <ele>1977.0</ele>
        <time>2016-07-25T15:59:55Z</time>
      </trkpt>
      <trkpt lat="41.527400" lon="-3.225983">
        <ele>1980.0</ele>
        <time>2016-07-25T15:59:57Z</time>
      </trkpt>
      <trkpt lat="41.527300" lon="-3.226100">
        <ele>1981.0</ele>
        <time>2016-07-25T15:59:59Z</time>
      </trkpt>
      <trkpt lat="41.527267" lon="-3.226233">
        <ele>1983.0</ele>
        <time>2016-07-25T16:00:01Z</time>
      </trkpt>
      <trkpt lat="41.527283" lon="-3.226350">
        <ele>1985.0</ele>
        <time>2016-07-25T16:00:03Z</time>
      </trkpt>
      <trkpt lat="41.527383" lon="-3.226450">
        <ele>1985.0</ele>
        <time>2016-07-25T16:00:05Z</time>
      </trkpt>
      <trkpt lat="41.527483" lon="-3.226517">
        <ele>1989.0</ele>
        <time>2016-07-25T16:00:07Z</time>
      </trkpt>
      <trkpt lat="41.527600" lon="-3.226533">
        <ele>1992.0</ele>
        <time>2016-07-25T16:00:09Z</time>
      </trkpt>
      <trkpt lat="41.527717" lon="-3.226517">
        <ele>1995.0</ele>
        <time>2016-07-25T16:00:11Z</time>
      </trkpt>
      <trkpt lat="41.527867" lon="-3.226417">
        <ele>1998.0</ele>
        <time>2016-07-25T16:00:13Z</time>
      </trkpt>
      <trkpt lat="41.528017" lon="-3.226283">
        <ele>2003.0</ele>
        <time>2016-07-25T16:00:15Z</time>
      </trkpt>
      <trkpt lat="41.528100" lon="-3.226117">
        <ele>2007.0</ele>
        <time>2016-07-25T16:00:17Z</time>
      </trkpt>
      <trkpt lat="41.528183" lon="-3.225867">
        <ele>2006.0</ele>
        <time>2016-07-25T16:00:19Z</time>
      </trkpt>
      <trkpt lat="41.528200" lon="-3.225567">
        <ele>2008.0</ele>
        <time>2016-07-25T16:00:21Z</time>
      </trkpt>
      <trkpt lat="41.528133" lon="-3.225317">
        <ele>2011.0</ele>
        <time>2016-07-25T16:00:23Z</time>
      </trkpt>
      <trkpt lat="41.528000" lon="-3.225100">
        <ele>2011.0</ele>
        <time>2016-07-25T16:00:25Z</time>
      </trkpt>
      <trkpt lat="41.527833" lon="-3.224933">
        <ele>2009.0</ele>
        <time>2016-07-25T16:00:27Z</time>
      </trkpt>
      <trkpt lat="41.527667" lon="-3.224867">
        <ele>2009.0</ele>
        <time>2016-07-25T16:00:29Z</time>
      </trkpt>
      <trkpt lat="41.527533" lon="-3.224933">
        <ele>2007.0</ele>
        <time>2016-07-25T16:00:31Z</time>
      </trkpt>
      <trkpt lat="41.527467" lon="-3.225067">
        <ele>2006.0</ele>
        <time>2016-07-25T16:00:33Z</time>
      </trkpt>
      <trkpt lat="41.527483" lon="-3.225217">
        <ele>2005.0</ele>
        <time>2016-07-25T16:00:35Z</time>
      </trkpt>
      <trkpt lat="41.527583" lon="-3.225300">
        <ele>2007.0</ele>
        <time>2016-07-25T16:00:37Z</time>
      </trkpt>
      <trkpt lat="41.527683" lon="-3.225333">
        <ele>2010.0</ele>
        <time>2016-07-25T16:00:39Z</time>
      </trkpt>
      <trkpt lat="41.527800" lon="-3.225383">
        <ele>2010.0</ele>
        <time>2016-07-25T16:00:41Z</time>
      </trkpt>
      <trkpt lat="41.527933" lon="-3.225433">
        <ele>2012.0</ele>
        <time>2016-07-25T16:00:43Z</time>
      </trkpt>
      <trkpt lat="41.528067" lon="-3.225450">
        <ele>2015.0</ele>
        <time>2016-07-25T16:00:45Z</time>
      </trkpt>
      <trkpt lat="41.528200" lon="-3.225467">
        <ele>2015.0</ele>
        <time>2016-07-25T16:00:47Z</time>
      </trkpt>
      <trkpt lat="41.528367" lon="-3.225517">
        <ele>2015.0</ele>
        <time>2016-07-25T16:00:49Z</time>
      </trkpt>
      <trkpt lat="41.528500" lon="-3.225533">
        <ele>2019.0</ele>
        <time>2016-07-25T16:00:51Z</time>
      </trkpt>
      <trkpt lat="41.528617" lon="-3.225550">
        <ele>2020.0</ele>
        <time>2016-07-25T16:00:53Z</time>
      </trkpt>
      <trkpt lat="41.528767" lon="-3.225483">
        <ele>2022.0</ele>
        <time>2016-07-25T16:00:55Z</time>
      </trkpt>
      <trkpt lat="41.528900" lon="-3.225417">
        <ele>2026.0</ele>
        <time>2016-07-25T16:00:57Z</time>
      </trkpt>
      <trkpt lat="41.529033" lon="-3.225367">
        <ele>2029.0</ele>
        <time>2016-07-25T16:00:59Z</time>
      </trkpt>
      <trkpt lat="41.529150" lon="-3.225267">
        <ele>2031.0</ele>
        <time>2016-07-25T16:01:01Z</time>
      </trkpt>
      <trkpt lat="41.529267" lon="-3.225100">
        <ele>2030.0</ele>
        <time>2016-07-25T16:01:03Z</time>
      </trkpt>
      <trkpt lat="41.529350" lon="-3.224883">
        <ele>2031.0</ele>
        <time>2016-07-25T16:01:05Z</time>
      </trkpt>
      <trkpt lat="41.529333" lon="-3.224633">
        <ele>2030.0</ele>
        <time>2016-07-25T16:01:07Z</time>
      </trkpt>
      <trkpt lat="41.529267" lon="-3.224383">
        <ele>2027.0</ele>
        <time>2016-07-25T16:01:09Z</time>
      </trkpt>
      <trkpt lat="41.529100" lon="-3.224233">
        <ele>2023.0</ele>
        <time>2016-07-25T16:01:11Z</time>
      </trkpt>
      <trkpt lat="41.528917" lon="-3.224233">
        <ele>2021.0</ele>
        <time>2016-07-25T16:01:13Z</time>
      </trkpt>
      <trkpt lat="41.528783" lon="-3.224267">
        <ele>2016.0</ele>
        <time>2016-07-25T16:01:15Z</time>
      </trkpt>
      <trkpt lat="41.528633" lon="-3.224367">
        <ele>2008.0</ele>
        <time>2016-07-25T16:01:17Z</time>
      </trkpt>
      <trkpt lat="41.528550" lon="-3.224567">
        <ele>2002.0</ele>
        <time>2016-07-25T16:01:19Z</time>
      </trkpt>
      <trkpt lat="41.528600" lon="-3.224750">
        <ele>2001.0</ele>
        <time>2016-07-25T16:01:21Z</time>
      </trkpt>
      <trkpt lat="41.528717" lon="-3.224817">
        <ele>2001.0</ele>
        <time>2016-07-25T16:01:23Z</time>
      </trkpt>
      <trkpt lat="41.528850" lon="-3.224783">
        <ele>2003.0</ele>
        <time>2016-07-25T16:01:25Z</time>
      </trkpt>
      <trkpt lat="41.528967" lon="-3.224683">
        <ele>2001.0</ele>
        <time>2016-07-25T16:01:27Z</time>
      </trkpt>
      <trkpt lat="41.529100" lon="-3.224533">
        <ele>1999.0</ele>
        <time>2016-07-25T16:01:29Z</time>
      </trkpt>
      <trkpt lat="41.529233" lon="-3.224383">
        <ele>1999.0</ele>
        <time>2016-07-25T16:01:31Z</time>
      </trkpt>
      <trkpt lat="41.529350" lon="-3.224267">
        <ele>1998.0</ele>
        <time>2016-07-25T16:01:33Z</time>
      </trkpt>
      <trkpt lat="41.529500" lon="-3.224117">
        <ele>1995.0</ele>
        <time>2016-07-25T16:01:35Z</time>
      </trkpt>
      <trkpt lat="41.529617" lon="-3.223967">
        <ele>1996.0</ele>
        <time>2016-07-25T16:01:37Z</time>
      </trkpt>
      <trkpt lat="41.529717" lon="-3.223850">
        <ele>1995.0</ele>
        <time>2016-07-25T16:01:39Z</time>
      </trkpt>
      <trkpt lat="41.529867" lon="-3.223717">
        <ele>1991.0</ele>
        <time>2016-07-25T16:01:41Z</time>
      </trkpt>
      <trkpt lat="41.530000" lon="-3.223550">
        <ele>1991.0</ele>
        <time>2016-07-25T16:01:43Z</time>
      </trkpt>
      <trkpt lat="41.530117" lon="-3.223400">
        <ele>1989.0</ele>
        <time>2016-07-25T16:01:45Z</time>
      </trkpt>
      <trkpt lat="41.530250" lon="-3.223250">
        <ele>1985.0</ele>
        <time>2016-07-25T16:01:47Z</time>
      </trkpt>
      <trkpt lat="41.530383" lon="-3.223033">
        <ele>1983.0</ele>
        <time>2016-07-25T16:01:49Z</time>
      </trkpt>
      <trkpt lat="41.530500" lon="-3.222833">
        <ele>1982.0</ele>
        <time>2016-07-25T16:01:51Z</time>
      </trkpt>
      <trkpt lat="41.530633" lon="-3.222667">
        <ele>1978.0</ele>
        <time>2016-07-25T16:01:53Z</time>
      </trkpt>
      <trkpt lat="41.530783" lon="-3.222467">
        <ele>1976.0</ele>
        <time>2016-07-25T16:01:55Z</time>
      </trkpt>
      <trkpt lat="41.530900" lon="-3.222267">
        <ele>1974.0</ele>
        <time>2016-07-25T16:01:57Z</time>
      </trkpt>
      <trkpt lat="41.531033" lon="-3.222083">
        <ele>1970.0</ele>
        <time>2016-07-25T16:01:59Z</time>
      </trkpt>
      <trkpt lat="41.531167" lon="-3.221883">
        <ele>1966.0</ele>
        <time>2016-07-25T16:02:01Z</time>
      </trkpt>
      <trkpt lat="41.531317" lon="-3.221717">
        <ele>1964.0</ele>
        <time>2016-07-25T16:02:03Z</time>
      </trkpt>
      <trkpt lat="41.531467" lon="-3.221550">
        <ele>1962.0</ele>
        <time>2016-07-25T16:02:05Z</time>
      </trkpt>
      <trkpt lat="41.531600" lon="-3.221350">
        <ele>1958.0</ele>
        <time>2016-07-25T16:02:07Z</time>
      </trkpt>
      <trkpt lat="41.531750" lon="-3.221167">
        <ele>1954.0</ele>
        <time>2016-07-25T16:02:09Z</time>
      </trkpt>
      <trkpt lat="41.531883" lon="-3.221017">
        <ele>1950.0</ele>
        <time>2016-07-25T16:02:11Z</time>
      </trkpt>
      <trkpt lat="41.532000" lon="-3.220850">
        <ele>1945.0</ele>
        <time>2016-07-25T16:02:13Z</time>
      </trkpt>
      <trkpt lat="41.532150" lon="-3.220683">
        <ele>1939.0</ele>
        <time>2016-07-25T16:02:15Z</time>
      </trkpt>
      <trkpt lat="41.532250" lon="-3.220483">
        <ele>1935.0</ele>
        <time>2016-07-25T16:02:17Z</time>
      </trkpt>
      <trkpt lat="41.532367" lon="-3.220283">
        <ele>1930.0</ele>
        <time>2016-07-25T16:02:19Z</time>
      </trkpt>
      <trkpt lat="41.532500" lon="-3.220083">
        <ele>1924.0</ele>
        <time>2016-07-25T16:02:21Z</time>
      </trkpt>
      <trkpt lat="41.532633" lon="-3.219883">
        <ele>1919.0</ele>
        <time>2016-07-25T16:02:23Z</time>
      </trkpt>
      <trkpt lat="41.532750" lon="-3.219667">
        <ele>1914.0</ele>
        <time>2016-07-25T16:02:25Z</time>
      </trkpt>
      <trkpt lat="41.532900" lon="-3.219483">
        <ele>1908.0</ele>
        <time>2016-07-25T16:02:27Z</time>
      </trkpt>
      <trkpt lat="41.533067" lon="-3.219300">
        <ele>1903.0</ele>
        <time>2016-07-25T16:02:29Z</time>
      </trkpt>
      <trkpt lat="41.533200" lon="-3.219083">
        <ele>1899.0</ele>
        <time>2016-07-25T16:02:31Z</time>
      </trkpt>
      <trkpt lat="41.533350" lon="-3.218883">
        <ele>1894.0</ele>
        <time>2016-07-25T16:02:33Z</time>
      </trkpt>
      <trkpt lat="41.533533" lon="-3.218733">
        <ele>1890.0</ele>
        <time>2016-07-25T16:02:35Z</time>
      </trkpt>
      <trkpt lat="41.533683" lon="-3.218550">
        <ele>1886.0</ele>
        <time>2016-07-25T16:02:37Z</time>
      </trkpt>
      <trkpt lat="41.533850" lon="-3.218383">
        <ele>1882.0</ele>
        <time>2016-07-25T16:02:39Z</time>
      </trkpt>
      <trkpt lat="41.534017" lon="-3.218217">
        <ele>1878.0</ele>
        <time>2016-07-25T16:02:41Z</time>
      </trkpt>
      <trkpt lat="41.534150" lon="-3.218050">
        <ele>1874.0</ele>
        <time>2016-07-25T16:02:43Z</time>
      </trkpt>
      <trkpt lat="41.534317" lon="-3.217850">
        <ele>1869.0</ele>
        <time>2016-07-25T16:02:45Z</time>
      </trkpt>
      <trkpt lat="41.534467" lon="-3.217667">
        <ele>1864.0</ele>
        <time>2016-07-25T16:02:47Z</time>
      </trkpt>
      <trkpt lat="41.534617" lon="-3.217467">
        <ele>1860.0</ele>
        <time>2016-07-25T16:02:49Z</time>
      </trkpt>
      <trkpt lat="41.534767" lon="-3.217300">
        <ele>1855.0</ele>
        <time>2016-07-25T16:02:51Z</time>
      </trkpt>
      <trkpt lat="41.534933" lon="-3.217117">
        <ele>1850.0</ele>
        <time>2016-07-25T16:02:53Z</time>
      </trkpt>
      <trkpt lat="41.535100" lon="-3.216883">
        <ele>1846.0</ele>
        <time>2016-07-25T16:02:55Z</time>
      </trkpt>
      <trkpt lat="41.535250" lon="-3.216717">
        <ele>1840.0</ele>
        <time>2016-07-25T16:02:57Z</time>
      </trkpt>
      <trkpt lat="41.535433" lon="-3.216550">
        <ele>1833.0</ele>
        <time>2016-07-25T16:02:59Z</time>
      </trkpt>
      <trkpt lat="41.535617" lon="-3.216350">
        <ele>1828.0</ele>
        <time>2016-07-25T16:03:01Z</time>
      </trkpt>
      <trkpt lat="41.535783" lon="-3.216183">
        <ele>1827.0</ele>
        <time>2016-07-25T16:03:03Z</time>
      </trkpt>
      <trkpt lat="41.535933" lon="-3.216017">
        <ele>1824.0</ele>
        <time>2016-07-25T16:03:05Z</time>
      </trkpt>
      <trkpt lat="41.536083" lon="-3.215800">
        <ele>1820.0</ele>
        <time>2016-07-25T16:03:07Z</time>
      </trkpt>
      <trkpt lat="41.536217" lon="-3.215600">
        <ele>1816.0</ele>
        <time>2016-07-25T16:03:09Z</time>
      </trkpt>
      <trkpt lat="41.536350" lon="-3.215400">
        <ele>1812.0</ele>
        <time>2016-07-25T16:03:11Z</time>
      </trkpt>
      <trkpt lat="41.536467" lon="-3.215183">
        <ele>1809.0</ele>
        <time>2016-07-25T16:03:13Z</time>
      </trkpt>
      <trkpt lat="41.536583" lon="-3.214967">
        <ele>1804.0</ele>
        <time>2016-07-25T16:03:15Z</time>
      </trkpt>
      <trkpt lat="41.536700" lon="-3.214750">
        <ele>1799.0</ele>
        <time>2016-07-25T16:03:17Z</time>
      </trkpt>
      <trkpt lat="41.536817" lon="-3.214533">
        <ele>1795.0</ele>
        <time>2016-07-25T16:03:19Z</time>
      </trkpt>
      <trkpt lat="41.536933" lon="-3.214333">
        <ele>1790.0</ele>
        <time>2016-07-25T16:03:21Z</time>
      </trkpt>
      <trkpt lat="41.537067" lon="-3.214133">
        <ele>1782.0</ele>
        <time>2016-07-25T16:03:23Z</time>
      </trkpt>
      <trkpt lat="41.537200" lon="-3.213883">
        <ele>1777.0</ele>
        <time>2016-07-25T16:03:25Z</time>
      </trkpt>
      <trkpt lat="41.537333" lon="-3.213667">
        <ele>1774.0</ele>
        <time>2016-07-25T16:03:27Z</time>
      </trkpt>
      <trkpt lat="41.537467" lon="-3.213483">
        <ele>1770.0</ele>
        <time>2016-07-25T16:03:29Z</time>
      </trkpt>
      <trkpt lat="41.537617" lon="-3.213300">
        <ele>1765.0</ele>
        <time>2016-07-25T16:03:31Z</time>
      </trkpt>
      <trkpt lat="41.537767" lon="-3.213117">
        <ele>1760.0</ele>
        <time>2016-07-25T16:03:33Z</time>
      </trkpt>
      <trkpt lat="41.537900" lon="-3.212933">
        <ele>1756.0</ele>
        <time>2016-07-25T16:03:35Z</time>
      </trkpt>
      <trkpt lat="41.538050" lon="-3.212750">
        <ele>1751.0</ele>
        <time>2016-07-25T16:03:37Z</time>
      </trkpt>
      <trkpt lat="41.538200" lon="-3.212567">
        <ele>1747.0</ele>
        <time>2016-07-25T16:03:39Z</time>
      </trkpt>
      <trkpt lat="41.538317" lon="-3.212367">
        <ele>1742.0</ele>
        <time>2016-07-25T16:03:41Z</time>
      </trkpt>
      <trkpt lat="41.538467" lon="-3.212167">
        <ele>1737.0</ele>
        <time>2016-07-25T16:03:43Z</time>
      </trkpt>
      <trkpt lat="41.538600" lon="-3.211967">
        <ele>1733.0</ele>
        <time>2016-07-25T16:03:45Z</time>
      </trkpt>
      <trkpt lat="41.538733" lon="-3.211767">
        <ele>1728.0</ele>
        <time>2016-07-25T16:03:47Z</time>
      </trkpt>
      <trkpt lat="41.538883" lon="-3.211583">
        <ele>1723.0</ele>
        <time>2016-07-25T16:03:49Z</time>
      </trkpt>
      <trkpt lat="41.539017" lon="-3.211367">
        <ele>1719.0</ele>
        <time>2016-07-25T16:03:51Z</time>
      </trkpt>
      <trkpt lat="41.539150" lon="-3.211133">
        <ele>1716.0</ele>
        <time>2016-07-25T16:03:53Z</time>
      </trkpt>
      <trkpt lat="41.539300" lon="-3.210950">
        <ele>1712.0</ele>
        <time>2016-07-25T16:03:55Z</time>
      </trkpt>
      <trkpt lat="41.539417" lon="-3.210750">
        <ele>1708.0</ele>
        <time>2016-07-25T16:03:57Z</time>
      </trkpt>
      <trkpt lat="41.539567" lon="-3.210567">
        <ele>1702.0</ele>
        <time>2016-07-25T16:03:59Z</time>
      </trkpt>
      <trkpt lat="41.539700" lon="-3.210367">
        <ele>1698.0</ele>
        <time>2016-07-25T16:04:01Z</time>
      </trkpt>
      <trkpt lat="41.539817" lon="-3.210183">
        <ele>1694.0</ele>
        <time>2016-07-25T16:04:03Z</time>
      </trkpt>
      <trkpt lat="41.539950" lon="-3.210000">
        <ele>1689.0</ele>
        <time>2016-07-25T16:04:05Z</time>
      </trkpt>
      <trkpt lat="41.540067" lon="-3.209783">
        <ele>1683.0</ele>
        <time>2016-07-25T16:04:07Z</time>
      </trkpt>
      <trkpt lat="41.540200" lon="-3.209583">
        <ele>1680.0</ele>
        <time>2016-07-25T16:04:09Z</time>
      </trkpt>
      <trkpt lat="41.540300" lon="-3.209383">
        <ele>1676.0</ele>
        <time>2016-07-25T16:04:11Z</time>
      </trkpt>
      <trkpt lat="41.540400" lon="-3.209200">
        <ele>1670.0</ele>
        <time>2016-07-25T16:04:13Z</time>
      </trkpt>
      <trkpt lat="41.540517" lon="-3.209017">
        <ele>1665.0</ele>
        <time>2016-07-25T16:04:15Z</time>
      </trkpt>
      <trkpt lat="41.540633" lon="-3.208817">
        <ele>1660.0</ele>
        <time>2016-07-25T16:04:17Z</time>
      </trkpt>
      <trkpt lat="41.540717" lon="-3.208617">
        <ele>1654.0</ele>
        <time>2016-07-25T16:04:19Z</time>
      </trkpt>
      <trkpt lat="41.540817" lon="-3.208417">
        <ele>1648.0</ele>
        <time>2016-07-25T16:04:21Z</time>
      </trkpt>
      <trkpt lat="41.540917" lon="-3.208200">
        <ele>1643.0</ele>
        <time>2016-07-25T16:04:23Z</time>
      </trkpt>
      <trkpt lat="41.541000" lon="-3.208000">
        <ele>1637.0</ele>
        <time>2016-07-25T16:04:25Z</time>
      </trkpt>
      <trkpt lat="41.541100" lon="-3.207817">
        <ele>1632.0</ele>
        <time>2016-07-25T16:04:27Z</time>
      </trkpt>
      <trkpt lat="41.541200" lon="-3.207617">
        <ele>1625.0</ele>
        <time>2016-07-25T16:04:29Z</time>
      </trkpt>
      <trkpt lat="41.541300" lon="-3.207417">
        <ele>1620.0</ele>
        <time>2016-07-25T16:04:31Z</time>
      </trkpt>
      <trkpt lat="41.541400" lon="-3.207217">
        <ele>1615.0</ele>
        <time>2016-07-25T16:04:33Z</time>
      </trkpt>
      <trkpt lat="41.541500" lon="-3.207017">
        <ele>1608.0</ele>
        <time>2016-07-25T16:04:35Z</time>
      </trkpt>
      <trkpt lat="41.541600" lon="-3.206833">
        <ele>1601.0</ele>
        <time>2016-07-25T16:04:37Z</time>
      </trkpt>
      <trkpt lat="41.541700" lon="-3.206650">
        <ele>1595.0</ele>
        <time>2016-07-25T16:04:39Z</time>
      </trkpt>
      <trkpt lat="41.541800" lon="-3.206467">
        <ele>1589.0</ele>
        <time>2016-07-25T16:04:41Z</time>
      </trkpt>
      <trkpt lat="41.541900" lon="-3.206267">
        <ele>1581.0</ele>
        <time>2016-07-25T16:04:43Z</time>
      </trkpt>
      <trkpt lat="41.542017" lon="-3.206050">
        <ele>1574.0</ele>
        <time>2016-07-25T16:04:45Z</time>
      </trkpt>
      <trkpt lat="41.542117" lon="-3.205850">
        <ele>1567.0</ele>
        <time>2016-07-25T16:04:47Z</time>
      </trkpt>
      <trkpt lat="41.542233" lon="-3.205650">
        <ele>1561.0</ele>
        <time>2016-07-25T16:04:49Z</time>
      </trkpt>
      <trkpt lat="41.542350" lon="-3.205450">
        <ele>1554.0</ele>
        <time>2016-07-25T16:04:51Z</time>
      </trkpt>
      <trkpt lat="41.542467" lon="-3.205300">
        <ele>1548.0</ele>
        <time>2016-07-25T16:04:53Z</time>
      </trkpt>
      <trkpt lat="41.542600" lon="-3.205200">
        <ele>1543.0</ele>
        <time>2016-07-25T16:04:55Z</time>
      </trkpt>
      <trkpt lat="41.542733" lon="-3.205133">
        <ele>1537.0</ele>
        <time>2016-07-25T16:04:57Z</time>
      </trkpt>
      <trkpt lat="41.542850" lon="-3.205133">
        <ele>1534.0</ele>
        <time>2016-07-25T16:04:59Z</time>
      </trkpt>
      <trkpt lat="41.542950" lon="-3.205167">
        <ele>1530.0</ele>
        <time>2016-07-25T16:05:01Z</time>
      </trkpt>
      <trkpt lat="41.543067" lon="-3.205200">
        <ele>1526.0</ele>
        <time>2016-07-25T16:05:03Z</time>
      </trkpt>
      <trkpt lat="41.543167" lon="-3.205250">
        <ele>1523.0</ele>
        <time>2016-07-25T16:05:05Z</time>
      </trkpt>
      <trkpt lat="41.543267" lon="-3.205300">
        <ele>1520.0</ele>
        <time>2016-07-25T16:05:07Z</time>
      </trkpt>
      <trkpt lat="41.543383" lon="-3.205367">
        <ele>1517.0</ele>
        <time>2016-07-25T16:05:09Z</time>
      </trkpt>
      <trkpt lat="41.543483" lon="-3.205450">
        <ele>1516.0</ele>
        <time>2016-07-25T16:05:11Z</time>
      </trkpt>
      <trkpt lat="41.543583" lon="-3.205533">
        <ele>1515.0</ele>
        <time>2016-07-25T16:05:13Z</time>
      </trkpt>
      <trkpt lat="41.543700" lon="-3.205583">
        <ele>1511.0</ele>
        <time>2016-07-25T16:05:15Z</time>
      </trkpt>
      <trkpt lat="41.543817" lon="-3.205667">
        <ele>1505.0</ele>
        <time>2016-07-25T16:05:17Z</time>
      </trkpt>
      <trkpt lat="41.543967" lon="-3.205717">
        <ele>1502.0</ele>
        <time>2016-07-25T16:05:19Z</time>
      </trkpt>
      <trkpt lat="41.544083" lon="-3.205733">
        <ele>1498.0</ele>
        <time>2016-07-25T16:05:21Z</time>
      </trkpt>
      <trkpt lat="41.544200" lon="-3.205767">
        <ele>1492.0</ele>
        <time>2016-07-25T16:05:23Z</time>
      </trkpt>
      <trkpt lat="41.544333" lon="-3.205750">
        <ele>1486.0</ele>
        <time>2016-07-25T16:05:25Z</time>
      </trkpt>
      <trkpt lat="41.544450" lon="-3.205750">
        <ele>1482.0</ele>
        <time>2016-07-25T16:05:27Z</time>
      </trkpt>
      <trkpt lat="41.544567" lon="-3.205733">
        <ele>1477.0</ele>
        <time>2016-07-25T16:05:29Z</time>
      </trkpt>
      <trkpt lat="41.544717" lon="-3.205700">
        <ele>1472.0</ele>
        <time>2016-07-25T16:05:31Z</time>
      </trkpt>
      <trkpt lat="41.544850" lon="-3.205683">
        <ele>1470.0</ele>
        <time>2016-07-25T16:05:33Z</time>
      </trkpt>
      <trkpt lat="41.544950" lon="-3.205650">
        <ele>1467.0</ele>
        <time>2016-07-25T16:05:35Z</time>
      </trkpt>
      <trkpt lat="41.545067" lon="-3.205583">
        <ele>1462.0</ele>
        <time>2016-07-25T16:05:37Z</time>
      </trkpt>
      <trkpt lat="41.545200" lon="-3.205533">
        <ele>1458.0</ele>
        <time>2016-07-25T16:05:39Z</time>
      </trkpt>
      <trkpt lat="41.545317" lon="-3.205467">
        <ele>1457.0</ele>
        <time>2016-07-25T16:05:41Z</time>
      </trkpt>
      <trkpt lat="41.545417" lon="-3.205400">
        <ele>1455.0</ele>
        <time>2016-07-25T16:05:43Z</time>
      </trkpt>
      <trkpt lat="41.545583" lon="-3.205300">
        <ele>1454.0</ele>
        <time>2016-07-25T16:05:45Z</time>
      </trkpt>
      <trkpt lat="41.545750" lon="-3.205217">
        <ele>1458.0</ele>
        <time>2016-07-25T16:05:47Z</time>
      </trkpt>
      <trkpt lat="41.545867" lon="-3.205150">
        <ele>1462.0</ele>
        <time>2016-07-25T16:05:49Z</time>
      </trkpt>
      <trkpt lat="41.545967" lon="-3.205050">
        <ele>1462.0</ele>
        <time>2016-07-25T16:05:51Z</time>
      </trkpt>
      <trkpt lat="41.546083" lon="-3.204833">
        <ele>1461.0</ele>
        <time>2016-07-25T16:05:53Z</time>
      </trkpt>
      <trkpt lat="41.546133" lon="-3.204533">
        <ele>1465.0</ele>
        <time>2016-07-25T16:05:55Z</time>
      </trkpt>
      <trkpt lat="41.546150" lon="-3.204283">
        <ele>1468.0</ele>
        <time>2016-07-25T16:05:57Z</time>
      </trkpt>
      <trkpt lat="41.546100" lon="-3.203983">
        <ele>1469.0</ele>
        <time>2016-07-25T16:05:59Z</time>
      </trkpt>
      <trkpt lat="41.545983" lon="-3.203683">
        <ele>1468.0</ele>
        <time>2016-07-25T16:06:01Z</time>
      </trkpt>
      <trkpt lat="41.545817" lon="-3.203500">
        <ele>1467.0</ele>
        <time>2016-07-25T16:06:03Z</time>
      </trkpt>
      <trkpt lat="41.545633" lon="-3.203433">
        <ele>1462.0</ele>
        <time>2016-07-25T16:06:05Z</time>
      </trkpt>
      <trkpt lat="41.545467" lon="-3.203533">
        <ele>1455.0</ele>
        <time>2016-07-25T16:06:07Z</time>
      </trkpt>
      <trkpt lat="41.545367" lon="-3.203700">
        <ele>1452.0</ele>
        <time>2016-07-25T16:06:09Z</time>
      </trkpt>
      <trkpt lat="41.545317" lon="-3.203867">
        <ele>1452.0</ele>
        <time>2016-07-25T16:06:11Z</time>
      </trkpt>
      <trkpt lat="41.545333" lon="-3.204050">
        <ele>1451.0</ele>
        <time>2016-07-25T16:06:13Z</time>
      </trkpt>
      <trkpt lat="41.545333" lon="-3.204217">
        <ele>1455.0</ele>
        <time>2016-07-25T16:06:15Z</time>
      </trkpt>
      <trkpt lat="41.545333" lon="-3.204333">
        <ele>1458.0</ele>
        <time>2016-07-25T16:06:17Z</time>
      </trkpt>
      <trkpt lat="41.545350" lon="-3.204467">
        <ele>1457.0</ele>
        <time>2016-07-25T16:06:19Z</time>
      </trkpt>
      <trkpt lat="41.545400" lon="-3.204617">
        <ele>1457.0</ele>
        <time>2016-07-25T16:06:21Z</time>
      </trkpt>
      <trkpt lat="41.545417" lon="-3.204767">
        <ele>1458.0</ele>
        <time>2016-07-25T16:06:23Z</time>
      </trkpt>
      <trkpt lat="41.545467" lon="-3.204883">
        <ele>1457.0</ele>
        <time>2016-07-25T16:06:25Z</time>
      </trkpt>
      <trkpt lat="41.545550" lon="-3.204983">
        <ele>1453.0</ele>
        <time>2016-07-25T16:06:27Z</time>
      </trkpt>
      <trkpt lat="41.545667" lon="-3.205050">
        <ele>1449.0</ele>
        <time>2016-07-25T16:06:29Z</time>
      </trkpt>
      <trkpt lat="41.545767" lon="-3.205050">
        <ele>1444.0</ele>
        <time>2016-07-25T16:06:31Z</time>
      </trkpt>
      <trkpt lat="41.545900" lon="-3.205033">
        <ele>1437.0</ele>
        <time>2016-07-25T16:06:33Z</time>
      </trkpt>
      <trkpt lat="41.546033" lon="-3.205000">
        <ele>1430.0</ele>
        <time>2016-07-25T16:06:35Z</time>
      </trkpt>
      <trkpt lat="41.546167" lon="-3.204933">
        <ele>1424.0</ele>
        <time>2016-07-25T16:06:37Z</time>
      </trkpt>
      <trkpt lat="41.546300" lon="-3.204867">
        <ele>1418.0</ele>
        <time>2016-07-25T16:06:39Z</time>
      </trkpt>
      <trkpt lat="41.546433" lon="-3.204783">
        <ele>1413.0</ele>
        <time>2016-07-25T16:06:41Z</time>
      </trkpt>
      <trkpt lat="41.546567" lon="-3.204683">
        <ele>1407.0</ele>
        <time>2016-07-25T16:06:43Z</time>
      </trkpt>
      <trkpt lat="41.546700" lon="-3.204550">
        <ele>1400.0</ele>
        <time>2016-07-25T16:06:45Z</time>
      </trkpt>
      <trkpt lat="41.546833" lon="-3.204400">
        <ele>1396.0</ele>
        <time>2016-07-25T16:06:47Z</time>
      </trkpt>
      <trkpt lat="41.546950" lon="-3.204267">
        <ele>1391.0</ele>
        <time>2016-07-25T16:06:49Z</time>
      </trkpt>
      <trkpt lat="41.547050" lon="-3.204133">
        <ele>1385.0</ele>
        <time>2016-07-25T16:06:51Z</time>
      </trkpt>
      <trkpt lat="41.547167" lon="-3.203983">
        <ele>1379.0</ele>
        <time>2016-07-25T16:06:53Z</time>
      </trkpt>
      <trkpt lat="41.547283" lon="-3.203833">
        <ele>1374.0</ele>
        <time>2016-07-25T16:06:55Z</time>
      </trkpt>
      <trkpt lat="41.547367" lon="-3.203667">
        <ele>1368.0</ele>
        <time>2016-07-25T16:06:57Z</time>
      </trkpt>
      <trkpt lat="41.547467" lon="-3.203500">
        <ele>1361.0</ele>
        <time>2016-07-25T16:06:59Z</time>
      </trkpt>
      <trkpt lat="41.547583" lon="-3.203317">
        <ele>1354.0</ele>
        <time>2016-07-25T16:07:01Z</time>
      </trkpt>
      <trkpt lat="41.547700" lon="-3.203150">
        <ele>1348.0</ele>
        <time>2016-07-25T16:07:03Z</time>
      </trkpt>
      <trkpt lat="41.547800" lon="-3.203000">
        <ele>1342.0</ele>
        <time>2016-07-25T16:07:05Z</time>
      </trkpt>
      <trkpt lat="41.547900" lon="-3.202833">
        <ele>1335.0</ele>
        <time>2016-07-25T16:07:07Z</time>
      </trkpt>
      <trkpt lat="41.547983" lon="-3.202683">
        <ele>1326.0</ele>
        <time>2016-07-25T16:07:09Z</time>
      </trkpt>
      <trkpt lat="41.548117" lon="-3.202533">
        <ele>1318.0</ele>
        <time>2016-07-25T16:07:11Z</time>
      </trkpt>
      <trkpt lat="41.548267" lon="-3.202383">
        <ele>1312.0</ele>
        <time>2016-07-25T16:07:13Z</time>
      </trkpt>
      <trkpt lat="41.548367" lon="-3.202267">
        <ele>1306.0</ele>
        <time>2016-07-25T16:07:15Z</time>
      </trkpt>
      <trkpt lat="41.548500" lon="-3.202133">
        <ele>1297.0</ele>
        <time>2016-07-25T16:07:17Z</time>
      </trkpt>
      <trkpt lat="41.548650" lon="-3.202017">
        <ele>1292.0</ele>
        <time>2016-07-25T16:07:19Z</time>
      </trkpt>
      <trkpt lat="41.548767" lon="-3.201883">
        <ele>1288.0</ele>
        <time>2016-07-25T16:07:21Z</time>
      </trkpt>
      <trkpt lat="41.548883" lon="-3.201733">
        <ele>1280.0</ele>
        <time>2016-07-25T16:07:23Z</time>
      </trkpt>
      <trkpt lat="41.549033" lon="-3.201567">
        <ele>1276.0</ele>
        <time>2016-07-25T16:07:25Z</time>
      </trkpt>
      <trkpt lat="41.549133" lon="-3.201417">
        <ele>1273.0</ele>
        <time>2016-07-25T16:07:27Z</time>
      </trkpt>
      <trkpt lat="41.549250" lon="-3.201300">
        <ele>1267.0</ele>
        <time>2016-07-25T16:07:29Z</time>
      </trkpt>
      <trkpt lat="41.549383" lon="-3.201133">
        <ele>1260.0</ele>
        <time>2016-07-25T16:07:31Z</time>
      </trkpt>
      <trkpt lat="41.549500" lon="-3.200950">
        <ele>1258.0</ele>
        <time>2016-07-25T16:07:33Z</time>
      </trkpt>
      <trkpt lat="41.549650" lon="-3.200767">
        <ele>1256.0</ele>
        <time>2016-07-25T16:07:35Z</time>
      </trkpt>
      <trkpt lat="41.549783" lon="-3.200533">
        <ele>1256.0</ele>
        <time>2016-07-25T16:07:37Z</time>
      </trkpt>
      <trkpt lat="41.549817" lon="-3.200233">
        <ele>1259.0</ele>
        <time>2016-07-25T16:07:39Z</time>
      </trkpt>
      <trkpt lat="41.549800" lon="-3.199950">
        <ele>1264.0</ele>
        <time>2016-07-25T16:07:41Z</time>
      </trkpt>
      <trkpt lat="41.549767" lon="-3.199717">
        <ele>1266.0</ele>
        <time>2016-07-25T16:07:43Z</time>
      </trkpt>
      <trkpt lat="41.549667" lon="-3.199450">
        <ele>1262.0</ele>
        <time>2016-07-25T16:07:45Z</time>
      </trkpt>
      <trkpt lat="41.549450" lon="-3.199233">
        <ele>1262.0</ele>
        <time>2016-07-25T16:07:47Z</time>
      </trkpt>
      <trkpt lat="41.549233" lon="-3.199200">
        <ele>1264.0</ele>
        <time>2016-07-25T16:07:49Z</time>
      </trkpt>
      <trkpt lat="41.549050" lon="-3.199233">
        <ele>1263.0</ele>
        <time>2016-07-25T16:07:51Z</time>
      </trkpt>
      <trkpt lat="41.548883" lon="-3.199350">
        <ele>1260.0</ele>
        <time>2016-07-25T16:07:53Z</time>
      </trkpt>
      <trkpt lat="41.548800" lon="-3.199533">
        <ele>1260.0</ele>
        <time>2016-07-25T16:07:55Z</time>
      </trkpt>
      <trkpt lat="41.548750" lon="-3.199683">
        <ele>1262.0</ele>
        <time>2016-07-25T16:07:57Z</time>
      </trkpt>
      <trkpt lat="41.548700" lon="-3.199850">
        <ele>1260.0</ele>
        <time>2016-07-25T16:07:59Z</time>
      </trkpt>
      <trkpt lat="41.548683" lon="-3.200050">
        <ele>1257.0</ele>
        <time>2016-07-25T16:08:01Z</time>
      </trkpt>
      <trkpt lat="41.548733" lon="-3.200233">
        <ele>1256.0</ele>
        <time>2016-07-25T16:08:03Z</time>
      </trkpt>
      <trkpt lat="41.548750" lon="-3.200383">
        <ele>1252.0</ele>
        <time>2016-07-25T16:08:05Z</time>
      </trkpt>
      <trkpt lat="41.548800" lon="-3.200517">
        <ele>1246.0</ele>
        <time>2016-07-25T16:08:07Z</time>
      </trkpt>
      <trkpt lat="41.548867" lon="-3.200650">
        <ele>1239.0</ele>
        <time>2016-07-25T16:08:09Z</time>
      </trkpt>
      <trkpt lat="41.548967" lon="-3.200750">
        <ele>1235.0</ele>
        <time>2016-07-25T16:08:11Z</time>
      </trkpt>
      <trkpt lat="41.549050" lon="-3.200833">
        <ele>1230.0</ele>
        <time>2016-07-25T16:08:13Z</time>
      </trkpt>
      <trkpt lat="41.549167" lon="-3.200883">
        <ele>1226.0</ele>
        <time>2016-07-25T16:08:15Z</time>
      </trkpt>
      <trkpt lat="41.549283" lon="-3.200833">
        <ele>1224.0</ele>
        <time>2016-07-25T16:08:17Z</time>
      </trkpt>
      <trkpt lat="41.549400" lon="-3.200750">
        <ele>1223.0</ele>
        <time>2016-07-25T16:08:19Z</time>
      </trkpt>
      <trkpt lat="41.549500" lon="-3.200667">
        <ele>1221.0</ele>
        <time>2016-07-25T16:08:21Z</time>
      </trkpt>
      <trkpt lat="41.549600" lon="-3.200567">
        <ele>1217.0</ele>
        <time>2016-07-25T16:08:23Z</time>
      </trkpt>
      <trkpt lat="41.549733" lon="-3.200467">
        <ele>1216.0</ele>
        <time>2016-07-25T16:08:25Z</time>
      </trkpt>
      <trkpt lat="41.549833" lon="-3.200367">
        <ele>1216.0</ele>
        <time>2016-07-25T16:08:27Z</time>
      </trkpt>
      <trkpt lat="41.549933" lon="-3.200267">
        <ele>1213.0</ele>
        <time>2016-07-25T16:08:29Z</time>
      </trkpt>
      <trkpt lat="41.550083" lon="-3.200133">
        <ele>1210.0</ele>
        <time>2016-07-25T16:08:31Z</time>
      </trkpt>
      <trkpt lat="41.550217" lon="-3.200017">
        <ele>1212.0</ele>
        <time>2016-07-25T16:08:33Z</time>
      </trkpt>
      <trkpt lat="41.550317" lon="-3.199917">
        <ele>1211.0</ele>
        <time>2016-07-25T16:08:35Z</time>
      </trkpt>
      <trkpt lat="41.550467" lon="-3.199817">
        <ele>1208.0</ele>
        <time>2016-07-25T16:08:37Z</time>
      </trkpt>
      <trkpt lat="41.550600" lon="-3.199700">
        <ele>1206.0</ele>
        <time>2016-07-25T16:08:39Z</time>
      </trkpt>
      <trkpt lat="41.550717" lon="-3.199533">
        <ele>1204.0</ele>
        <time>2016-07-25T16:08:41Z</time>
      </trkpt>
      <trkpt lat="41.550817" lon="-3.199350">
        <ele>1200.0</ele>
        <time>2016-07-25T16:08:43Z</time>
      </trkpt>
      <trkpt lat="41.550950" lon="-3.199183">
        <ele>1196.0</ele>
        <time>2016-07-25T16:08:45Z</time>
      </trkpt>
      <trkpt lat="41.551083" lon="-3.199033">
        <ele>1192.0</ele>
        <time>2016-07-25T16:08:47Z</time>
      </trkpt>
      <trkpt lat="41.551183" lon="-3.198900">
        <ele>1189.0</ele>
        <time>2016-07-25T16:08:49Z</time>
      </trkpt>
      <trkpt lat="41.551300" lon="-3.198733">
        <ele>1184.0</ele>
        <time>2016-07-25T16:08:51Z</time>
      </trkpt>
      <trkpt lat="41.551400" lon="-3.198550">
        <ele>1179.0</ele>
        <time>2016-07-25T16:08:53Z</time>
      </trkpt>
      <trkpt lat="41.551500" lon="-3.198350">
        <ele>1175.0</ele>
        <time>2016-07-25T16:08:55Z</time>
      </trkpt>
      <trkpt lat="41.551583" lon="-3.198133">
        <ele>1170.0</ele>
        <time>2016-07-25T16:08:57Z</time>
      </trkpt>
      <trkpt lat="41.551683" lon="-3.197933">
        <ele>1165.0</ele>
        <time>2016-07-25T16:08:59Z</time>
      </trkpt>
      <trkpt lat="41.551783" lon="-3.197750">
        <ele>1159.0</ele>
        <time>2016-07-25T16:09:01Z</time>
      </trkpt>
      <trkpt lat="41.551900" lon="-3.197583">
        <ele>1152.0</ele>
        <time>2016-07-25T16:09:03Z</time>
      </trkpt>
      <trkpt lat="41.552000" lon="-3.197450">
        <ele>1144.0</ele>
        <time>2016-07-25T16:09:05Z</time>
      </trkpt>
      <trkpt lat="41.552150" lon="-3.197333">
        <ele>1135.0</ele>
        <time>2016-07-25T16:09:07Z</time>
      </trkpt>
      <trkpt lat="41.552300" lon="-3.197217">
        <ele>1129.0</ele>
        <time>2016-07-25T16:09:09Z</time>
      </trkpt>
      <trkpt lat="41.552417" lon="-3.197100">
        <ele>1123.0</ele>
        <time>2016-07-25T16:09:11Z</time>
      </trkpt>
      <trkpt lat="41.552550" lon="-3.196983">
        <ele>1115.0</ele>
        <time>2016-07-25T16:09:13Z</time>
      </trkpt>
      <trkpt lat="41.552700" lon="-3.196917">
        <ele>1112.0</ele>
        <time>2016-07-25T16:09:15Z</time>
      </trkpt>
      <trkpt lat="41.552800" lon="-3.196900">
        <ele>1109.0</ele>
        <time>2016-07-25T16:09:17Z</time>
      </trkpt>
      <trkpt lat="41.552917" lon="-3.196883">
        <ele>1104.0</ele>
        <time>2016-07-25T16:09:19Z</time>
      </trkpt>
      <trkpt lat="41.553017" lon="-3.196900">
        <ele>1101.0</ele>
        <time>2016-07-25T16:09:21Z</time>
      </trkpt>
      <trkpt lat="41.553083" lon="-3.196900">
        <ele>1099.0</ele>
        <time>2016-07-25T16:09:23Z</time>
      </trkpt>
      <trkpt lat="41.553150" lon="-3.196917">
        <ele>1094.0</ele>
        <time>2016-07-25T16:09:25Z</time>
      </trkpt>
      <trkpt lat="41.553250" lon="-3.196950">
        <ele>1089.0</ele>
        <time>2016-07-25T16:09:27Z</time>
      </trkpt>
      <trkpt lat="41.553333" lon="-3.197000">
        <ele>1087.0</ele>
        <time>2016-07-25T16:09:29Z</time>
      </trkpt>
      <trkpt lat="41.553433" lon="-3.197017">
        <ele>1085.0</ele>
        <time>2016-07-25T16:09:31Z</time>
      </trkpt>
      <trkpt lat="41.553533" lon="-3.197067">
        <ele>1082.0</ele>
        <time>2016-07-25T16:09:33Z</time>
      </trkpt>
      <trkpt lat="41.553633" lon="-3.197083">
        <ele>1081.0</ele>
        <time>2016-07-25T16:09:35Z</time>
      </trkpt>
      <trkpt lat="41.553700" lon="-3.197150">
        <ele>1078.0</ele>
        <time>2016-07-25T16:09:37Z</time>
      </trkpt>
      <trkpt lat="41.553767" lon="-3.197200">
        <ele>1074.0</ele>
        <time>2016-07-25T16:09:39Z</time>
      </trkpt>
      <trkpt lat="41.553867" lon="-3.197217">
        <ele>1071.0</ele>
        <time>2016-07-25T16:09:41Z</time>
      </trkpt>
      <trkpt lat="41.553967" lon="-3.197267">
        <ele>1068.0</ele>
        <time>2016-07-25T16:09:43Z</time>
      </trkpt>
      <trkpt lat="41.554067" lon="-3.197333">
        <ele>1067.0</ele>
        <time>2016-07-25T16:09:45Z</time>
      </trkpt>
      <trkpt lat="41.554133" lon="-3.197383">
        <ele>1066.0</ele>
        <time>2016-07-25T16:09:47Z</time>
      </trkpt>
      <trkpt lat="41.554200" lon="-3.197500">
        <ele>1061.0</ele>
        <time>2016-07-25T16:09:49Z</time>
      </trkpt>
      <trkpt lat="41.554217" lon="-3.197633">
        <ele>1057.0</ele>
        <time>2016-07-25T16:09:51Z</time>
      </trkpt>
      <trkpt lat="41.554167" lon="-3.197767">
        <ele>1056.0</ele>
        <time>2016-07-25T16:09:53Z</time>
      </trkpt>
      <trkpt lat="41.554050" lon="-3.197867">
        <ele>1054.0</ele>
        <time>2016-07-25T16:09:55Z</time>
      </trkpt>
      <trkpt lat="41.553933" lon="-3.197933">
        <ele>1050.0</ele>
        <time>2016-07-25T16:09:57Z</time>
      </trkpt>
      <trkpt lat="41.553800" lon="-3.198017">
        <ele>1046.0</ele>
        <time>2016-07-25T16:09:59Z</time>
      </trkpt>
      <trkpt lat="41.553633" lon="-3.198083">
        <ele>1042.0</ele>
        <time>2016-07-25T16:10:01Z</time>
      </trkpt>
      <trkpt lat="41.553450" lon="-3.198183">
        <ele>1038.0</ele>
        <time>2016-07-25T16:10:03Z</time>
      </trkpt>
      <trkpt lat="41.553283" lon="-3.198267">
        <ele>1036.0</ele>
        <time>2016-07-25T16:10:05Z</time>
      </trkpt>
      <trkpt lat="41.553100" lon="-3.198350">
        <ele>1033.0</ele>
        <time>2016-07-25T16:10:07Z</time>
      </trkpt>
      <trkpt lat="41.552933" lon="-3.198450">
        <ele>1030.0</ele>
        <time>2016-07-25T16:10:09Z</time>
      </trkpt>
      <trkpt lat="41.552767" lon="-3.198583">
        <ele>1028.0</ele>
        <time>2016-07-25T16:10:11Z</time>
      </trkpt>
      <trkpt lat="41.552600" lon="-3.198717">
        <ele>1028.0</ele>
        <time>2016-07-25T16:10:13Z</time>
      </trkpt>
      <trkpt lat="41.552450" lon="-3.198867">
        <ele>1029.0</ele>
        <time>2016-07-25T16:10:15Z</time>
      </trkpt>
      <trkpt lat="41.552367" lon="-3.199050">
        <ele>1030.0</ele>
        <time>2016-07-25T16:10:17Z</time>
      </trkpt>
      <trkpt lat="41.552300" lon="-3.199200">
        <ele>1030.0</ele>
        <time>2016-07-25T16:10:19Z</time>
      </trkpt>
      <trkpt lat="41.552267" lon="-3.199367">
        <ele>1028.0</ele>
        <time>2016-07-25T16:10:21Z</time>
      </trkpt>
      <trkpt lat="41.552300" lon="-3.199533">
        <ele>1028.0</ele>
        <time>2016-07-25T16:10:23Z</time>
      </trkpt>
      <trkpt lat="41.552367" lon="-3.199667">
        <ele>1028.0</ele>
        <time>2016-07-25T16:10:25Z</time>
      </trkpt>
      <trkpt lat="41.552450" lon="-3.199767">
        <ele>1028.0</ele>
        <time>2016-07-25T16:10:27Z</time>
      </trkpt>
      <trkpt lat="41.552583" lon="-3.199767">
        <ele>1028.0</ele>
        <time>2016-07-25T16:10:29Z</time>
      </trkpt>
      <trkpt lat="41.552683" lon="-3.199683">
        <ele>1029.0</ele>
        <time>2016-07-25T16:10:31Z</time>
      </trkpt>
      <trkpt lat="41.552767" lon="-3.199550">
        <ele>1028.0</ele>
        <time>2016-07-25T16:10:33Z</time>
      </trkpt>
      <trkpt lat="41.552817" lon="-3.199317">
        <ele>1026.0</ele>
        <time>2016-07-25T16:10:35Z</time>
      </trkpt>
      <trkpt lat="41.552767" lon="-3.199033">
        <ele>1024.0</ele>
        <time>2016-07-25T16:10:37Z</time>
      </trkpt>
      <trkpt lat="41.552600" lon="-3.198817">
        <ele>1023.0</ele>
        <time>2016-07-25T16:10:39Z</time>
      </trkpt>
      <trkpt lat="41.552400" lon="-3.198717">
        <ele>1023.0</ele>
        <time>2016-07-25T16:10:41Z</time>
      </trkpt>
      <trkpt lat="41.552183" lon="-3.198683">
        <ele>1022.0</ele>
        <time>2016-07-25T16:10:43Z</time>
      </trkpt>
      <trkpt lat="41.551967" lon="-3.198750">
        <ele>1022.0</ele>
        <time>2016-07-25T16:10:45Z</time>
      </trkpt>
      <trkpt lat="41.551767" lon="-3.198867">
        <ele>1024.0</ele>
        <time>2016-07-25T16:10:47Z</time>
      </trkpt>
      <trkpt lat="41.551617" lon="-3.199000">
        <ele>1023.0</ele>
        <time>2016-07-25T16:10:49Z</time>
      </trkpt>
      <trkpt lat="41.551500" lon="-3.199167">
        <ele>1021.0</ele>
        <time>2016-07-25T16:10:51Z</time>
      </trkpt>
      <trkpt lat="41.551467" lon="-3.199383">
        <ele>1020.0</ele>
        <time>2016-07-25T16:10:53Z</time>
      </trkpt>
      <trkpt lat="41.551467" lon="-3.199550">
        <ele>1021.0</ele>
        <time>2016-07-25T16:10:55Z</time>
      </trkpt>
      <trkpt lat="41.551483" lon="-3.199717">
        <ele>1021.0</ele>
        <time>2016-07-25T16:10:57Z</time>
      </trkpt>
      <trkpt lat="41.551517" lon="-3.199867">
        <ele>1021.0</ele>
        <time>2016-07-25T16:10:59Z</time>
      </trkpt>
      <trkpt lat="41.551617" lon="-3.199983">
        <ele>1020.0</ele>
        <time>2016-07-25T16:11:01Z</time>
      </trkpt>
      <trkpt lat="41.551717" lon="-3.200050">
        <ele>1022.0</ele>
        <time>2016-07-25T16:11:03Z</time>
      </trkpt>
      <trkpt lat="41.551800" lon="-3.200033">
        <ele>1023.0</ele>
        <time>2016-07-25T16:11:05Z</time>
      </trkpt>
      <trkpt lat="41.551917" lon="-3.199950">
        <ele>1024.0</ele>
        <time>2016-07-25T16:11:07Z</time>
      </trkpt>
      <trkpt lat="41.551983" lon="-3.199750">
        <ele>1026.0</ele>
        <time>2016-07-25T16:11:09Z</time>
      </trkpt>
      <trkpt lat="41.551917" lon="-3.199500">
        <ele>1026.0</ele>
        <time>2016-07-25T16:11:11Z</time>
      </trkpt>
      <trkpt lat="41.551767" lon="-3.199267">
        <ele>1028.0</ele>
        <time>2016-07-25T16:11:13Z</time>
      </trkpt>
      <trkpt lat="41.551583" lon="-3.199117">
        <ele>1030.0</ele>
        <time>2016-07-25T16:11:15Z</time>
      </trkpt>
      <trkpt lat="41.551383" lon="-3.199083">
        <ele>1031.0</ele>
        <time>2016-07-25T16:11:17Z</time>
      </trkpt>
      <trkpt lat="41.551183" lon="-3.199150">
        <ele>1032.0</ele>
        <time>2016-07-25T16:11:19Z</time>
      </trkpt>
      <trkpt lat="41.551033" lon="-3.199317">
        <ele>1033.0</ele>
        <time>2016-07-25T16:11:21Z</time>
      </trkpt>
      <trkpt lat="41.550983" lon="-3.199500">
        <ele>1033.0</ele>
        <time>2016-07-25T16:11:23Z</time>
      </trkpt>
      <trkpt lat="41.551000" lon="-3.199650">
        <ele>1032.0</ele>
        <time>2016-07-25T16:11:25Z</time>
      </trkpt>
      <trkpt lat="41.551050" lon="-3.199767">
        <ele>1031.0</ele>
        <time>2016-07-25T16:11:27Z</time>
      </trkpt>
      <trkpt lat="41.551133" lon="-3.199850">
        <ele>1030.0</ele>
        <time>2016-07-25T16:11:29Z</time>
      </trkpt>
      <trkpt lat="41.551233" lon="-3.199950">
        <ele>1030.0</ele>
        <time>2016-07-25T16:11:31Z</time>
      </trkpt>
      <trkpt lat="41.551333" lon="-3.200017">
        <ele>1034.0</ele>
        <time>2016-07-25T16:11:33Z</time>
      </trkpt>
      <trkpt lat="41.551450" lon="-3.200000">
        <ele>1035.0</ele>
        <time>2016-07-25T16:11:35Z</time>
      </trkpt>
      <trkpt lat="41.551567" lon="-3.199900">
        <ele>1037.0</ele>
        <time>2016-07-25T16:11:37Z</time>
      </trkpt>
      <trkpt lat="41.551617" lon="-3.199733">
        <ele>1036.0</ele>
        <time>2016-07-25T16:11:39Z</time>
      </trkpt>
      <trkpt lat="41.551567" lon="-3.199483">
        <ele>1034.0</ele>
        <time>2016-07-25T16:11:41Z</time>
      </trkpt>
      <trkpt lat="41.551450" lon="-3.199283">
        <ele>1031.0</ele>
        <time>2016-07-25T16:11:43Z</time>
      </trkpt>
      <trkpt lat="41.551267" lon="-3.199117">
        <ele>1030.0</ele>
        <time>2016-07-25T16:11:45Z</time>
      </trkpt>
      <trkpt lat="41.551033" lon="-3.199050">
        <ele>1030.0</ele>
        <time>2016-07-25T16:11:47Z</time>
      </trkpt>
      <trkpt lat="41.550833" lon="-3.199117">
        <ele>1032.0</ele>
        <time>2016-07-25T16:11:49Z</time>
      </trkpt>
      <trkpt lat="41.550683" lon="-3.199283">
        <ele>1034.0</ele>
        <time>2016-07-25T16:11:51Z</time>
      </trkpt>
      <trkpt lat="41.550617" lon="-3.199483">
        <ele>1035.0</ele>
        <time>2016-07-25T16:11:53Z</time>
      </trkpt>
      <trkpt lat="41.550583" lon="-3.199667">
        <ele>1035.0</ele>
        <time>2016-07-25T16:11:55Z</time>
      </trkpt>
      <trkpt lat="41.550600" lon="-3.199867">
        <ele>1036.0</ele>
        <time>2016-07-25T16:11:57Z</time>
      </trkpt>
      <trkpt lat="41.550667" lon="-3.200033">
        <ele>1037.0</ele>
        <time>2016-07-25T16:11:59Z</time>
      </trkpt>
      <trkpt lat="41.550783" lon="-3.200117">
        <ele>1037.0</ele>
        <time>2016-07-25T16:12:01Z</time>
      </trkpt>
      <trkpt lat="41.550933" lon="-3.200200">
        <ele>1038.0</ele>
        <time>2016-07-25T16:12:03Z</time>
      </trkpt>
      <trkpt lat="41.551050" lon="-3.200317">
        <ele>1042.0</ele>
        <time>2016-07-25T16:12:05Z</time>
      </trkpt>
      <trkpt lat="41.551133" lon="-3.200383">
        <ele>1046.0</ele>
        <time>2016-07-25T16:12:07Z</time>
      </trkpt>
      <trkpt lat="41.551217" lon="-3.200367">
        <ele>1047.0</ele>
        <time>2016-07-25T16:12:09Z</time>
      </trkpt>
      <trkpt lat="41.551300" lon="-3.200233">
        <ele>1045.0</ele>
        <time>2016-07-25T16:12:11Z</time>
      </trkpt>
      <trkpt lat="41.551283" lon="-3.199967">
        <ele>1044.0</ele>
        <time>2016-07-25T16:12:13Z</time>
      </trkpt>
      <trkpt lat="41.551183" lon="-3.199733">
        <ele>1043.0</ele>
        <time>2016-07-25T16:12:15Z</time>
      </trkpt>
      <trkpt lat="41.551017" lon="-3.199600">
        <ele>1041.0</ele>
        <time>2016-07-25T16:12:17Z</time>
      </trkpt>
      <trkpt lat="41.550800" lon="-3.199583">
        <ele>1039.0</ele>
        <time>2016-07-25T16:12:19Z</time>
      </trkpt>
      <trkpt lat="41.550600" lon="-3.199717">
        <ele>1039.0</ele>
        <time>2016-07-25T16:12:21Z</time>
      </trkpt>
      <trkpt lat="41.550500" lon="-3.199883">
        <ele>1043.0</ele>
        <time>2016-07-25T16:12:23Z</time>
      </trkpt>
      <trkpt lat="41.550467" lon="-3.200083">
        <ele>1044.0</ele>
        <time>2016-07-25T16:12:25Z</time>
      </trkpt>
      <trkpt lat="41.550467" lon="-3.200283">
        <ele>1046.0</ele>
        <time>2016-07-25T16:12:27Z</time>
      </trkpt>
      <trkpt lat="41.550500" lon="-3.200433">
        <ele>1049.0</ele>
        <time>2016-07-25T16:12:29Z</time>
      </trkpt>
      <trkpt lat="41.550583" lon="-3.200567">
        <ele>1049.0</ele>
        <time>2016-07-25T16:12:31Z</time>
      </trkpt>
      <trkpt lat="41.550683" lon="-3.200667">
        <ele>1049.0</ele>
        <time>2016-07-25T16:12:33Z</time>
      </trkpt>
      <trkpt lat="41.550800" lon="-3.200717">
        <ele>1049.0</ele>
        <time>2016-07-25T16:12:35Z</time>
      </trkpt>
      <trkpt lat="41.550933" lon="-3.200733">
        <ele>1049.0</ele>
        <time>2016-07-25T16:12:37Z</time>
      </trkpt>
      <trkpt lat="41.551067" lon="-3.200717">
        <ele>1048.0</ele>
        <time>2016-07-25T16:12:39Z</time>
      </trkpt>
      <trkpt lat="41.551200" lon="-3.200650">
        <ele>1049.0</ele>
        <time>2016-07-25T16:12:41Z</time>
      </trkpt>
      <trkpt lat="41.551317" lon="-3.200550">
        <ele>1050.0</ele>
        <time>2016-07-25T16:12:43Z</time>
      </trkpt>
      <trkpt lat="41.551400" lon="-3.200400">
        <ele>1049.0</ele>
        <time>2016-07-25T16:12:45Z</time>
      </trkpt>
      <trkpt lat="41.551450" lon="-3.200200">
        <ele>1045.0</ele>
        <time>2016-07-25T16:12:47Z</time>
      </trkpt>
      <trkpt lat="41.551433" lon="-3.199950">
        <ele>1039.0</ele>
        <time>2016-07-25T16:12:49Z</time>
      </trkpt>
      <trkpt lat="41.551300" lon="-3.199667">
        <ele>1032.0</ele>
        <time>2016-07-25T16:12:51Z</time>
      </trkpt>
      <trkpt lat="41.551133" lon="-3.199450">
        <ele>1033.0</ele>
        <time>2016-07-25T16:12:53Z</time>
      </trkpt>
      <trkpt lat="41.550967" lon="-3.199350">
        <ele>1034.0</ele>
        <time>2016-07-25T16:12:55Z</time>
      </trkpt>
      <trkpt lat="41.550783" lon="-3.199317">
        <ele>1030.0</ele>
        <time>2016-07-25T16:12:57Z</time>
      </trkpt>
      <trkpt lat="41.550567" lon="-3.199417">
        <ele>1029.0</ele>
        <time>2016-07-25T16:12:59Z</time>
      </trkpt>
      <trkpt lat="41.550467" lon="-3.199600">
        <ele>1032.0</ele>
        <time>2016-07-25T16:13:01Z</time>
      </trkpt>
      <trkpt lat="41.550450" lon="-3.199800">
        <ele>1034.0</ele>
        <time>2016-07-25T16:13:03Z</time>
      </trkpt>
      <trkpt lat="41.550500" lon="-3.199983">
        <ele>1036.0</ele>
        <time>2016-07-25T16:13:05Z</time>
      </trkpt>
      <trkpt lat="41.550567" lon="-3.200133">
        <ele>1039.0</ele>
        <time>2016-07-25T16:13:07Z</time>
      </trkpt>
      <trkpt lat="41.550667" lon="-3.200267">
        <ele>1040.0</ele>
        <time>2016-07-25T16:13:09Z</time>
      </trkpt>
      <trkpt lat="41.550767" lon="-3.200383">
        <ele>1043.0</ele>
        <time>2016-07-25T16:13:11Z</time>
      </trkpt>
      <trkpt lat="41.550850" lon="-3.200433">
        <ele>1042.0</ele>
        <time>2016-07-25T16:13:13Z</time>
      </trkpt>
      <trkpt lat="41.550967" lon="-3.200400">
        <ele>1035.0</ele>
        <time>2016-07-25T16:13:15Z</time>
      </trkpt>
      <trkpt lat="41.551133" lon="-3.200317">
        <ele>1029.0</ele>
        <time>2016-07-25T16:13:17Z</time>
      </trkpt>
      <trkpt lat="41.551217" lon="-3.200150">
        <ele>1025.0</ele>
        <time>2016-07-25T16:13:19Z</time>
      </trkpt>
      <trkpt lat="41.551217" lon="-3.199900">
        <ele>1018.0</ele>
        <time>2016-07-25T16:13:21Z</time>
      </trkpt>
      <trkpt lat="41.551150" lon="-3.199600">
        <ele>1011.0</ele>
        <time>2016-07-25T16:13:23Z</time>
      </trkpt>
      <trkpt lat="41.550983" lon="-3.199350">
        <ele>1007.0</ele>
        <time>2016-07-25T16:13:25Z</time>
      </trkpt>
      <trkpt lat="41.550767" lon="-3.199200">
        <ele>1003.0</ele>
        <time>2016-07-25T16:13:27Z</time>
      </trkpt>
      <trkpt lat="41.550567" lon="-3.199217">
        <ele>997.0</ele>
        <time>2016-07-25T16:13:29Z</time>
      </trkpt>
      <trkpt lat="41.550400" lon="-3.199383">
        <ele>992.0</ele>
        <time>2016-07-25T16:13:31Z</time>
      </trkpt>
      <trkpt lat="41.550333" lon="-3.199583">
        <ele>991.0</ele>
        <time>2016-07-25T16:13:33Z</time>
      </trkpt>
      <trkpt lat="41.550317" lon="-3.199750">
        <ele>993.0</ele>
        <time>2016-07-25T16:13:35Z</time>
      </trkpt>
      <trkpt lat="41.550300" lon="-3.199883">
        <ele>994.0</ele>
        <time>2016-07-25T16:13:37Z</time>
      </trkpt>
      <trkpt lat="41.550300" lon="-3.200033">
        <ele>991.0</ele>
        <time>2016-07-25T16:13:39Z</time>
      </trkpt>
      <trkpt lat="41.550383" lon="-3.200150">
        <ele>986.0</ele>
        <time>2016-07-25T16:13:41Z</time>
      </trkpt>
      <trkpt lat="41.550450" lon="-3.200217">
        <ele>981.0</ele>
        <time>2016-07-25T16:13:43Z</time>
      </trkpt>
      <trkpt lat="41.550517" lon="-3.200333">
        <ele>975.0</ele>
        <time>2016-07-25T16:13:45Z</time>
      </trkpt>
      <trkpt lat="41.550583" lon="-3.200450">
        <ele>972.0</ele>
        <time>2016-07-25T16:13:47Z</time>
      </trkpt>
      <trkpt lat="41.550650" lon="-3.200550">
        <ele>969.0</ele>
        <time>2016-07-25T16:13:49Z</time>
      </trkpt>
      <trkpt lat="41.550733" lon="-3.200633">
        <ele>965.0</ele>
        <time>2016-07-25T16:13:51Z</time>
      </trkpt>
      <trkpt lat="41.550800" lon="-3.200733">
        <ele>961.0</ele>
        <time>2016-07-25T16:13:53Z</time>
      </trkpt>
      <trkpt lat="41.550850" lon="-3.200867">
        <ele>958.0</ele>
        <time>2016-07-25T16:13:55Z</time>
      </trkpt>
      <trkpt lat="41.550933" lon="-3.200967">
        <ele>955.0</ele>
        <time>2016-07-25T16:13:57Z</time>
      </trkpt>
      <trkpt lat="41.551050" lon="-3.201033">
        <ele>952.0</ele>
        <time>2016-07-25T16:13:59Z</time>
      </trkpt>
      <trkpt lat="41.551150" lon="-3.201133">
        <ele>952.0</ele>
        <time>2016-07-25T16:14:01Z</time>
      </trkpt>
      <trkpt lat="41.551167" lon="-3.201283">
        <ele>951.0</ele>
        <time>2016-07-25T16:14:03Z</time>
      </trkpt>
      <trkpt lat="41.551117" lon="-3.201467">
        <ele>951.0</ele>
        <time>2016-07-25T16:14:05Z</time>
      </trkpt>
      <trkpt lat="41.551017" lon="-3.201633">
        <ele>952.0</ele>
        <time>2016-07-25T16:14:07Z</time>
      </trkpt>
      <trkpt lat="41.550867" lon="-3.201750">
        <ele>951.0</ele>
        <time>2016-07-25T16:14:09Z</time>
      </trkpt>
      <trkpt lat="41.550700" lon="-3.201850">
        <ele>949.0</ele>
        <time>2016-07-25T16:14:11Z</time>
      </trkpt>
      <trkpt lat="41.550517" lon="-3.201933">
        <ele>946.0</ele>
        <time>2016-07-25T16:14:13Z</time>
      </trkpt>
      <trkpt lat="41.550333" lon="-3.202000">
        <ele>944.0</ele>
        <time>2016-07-25T16:14:15Z</time>
      </trkpt>
      <trkpt lat="41.550133" lon="-3.202083">
        <ele>942.0</ele>
        <time>2016-07-25T16:14:17Z</time>
      </trkpt>
      <trkpt lat="41.549950" lon="-3.202200">
        <ele>942.0</ele>
        <time>2016-07-25T16:14:19Z</time>
      </trkpt>
      <trkpt lat="41.549800" lon="-3.202350">
        <ele>943.0</ele>
        <time>2016-07-25T16:14:21Z</time>
      </trkpt>
      <trkpt lat="41.549667" lon="-3.202483">
        <ele>942.0</ele>
        <time>2016-07-25T16:14:23Z</time>
      </trkpt>
      <trkpt lat="41.549567" lon="-3.202633">
        <ele>940.0</ele>
        <time>2016-07-25T16:14:25Z</time>
      </trkpt>
      <trkpt lat="41.549483" lon="-3.202783">
        <ele>937.0</ele>
        <time>2016-07-25T16:14:27Z</time>
      </trkpt>
      <trkpt lat="41.549400" lon="-3.202933">
        <ele>934.0</ele>
        <time>2016-07-25T16:14:29Z</time>
      </trkpt>
      <trkpt lat="41.549333" lon="-3.203083">
        <ele>931.0</ele>
        <time>2016-07-25T16:14:31Z</time>
      </trkpt>
      <trkpt lat="41.549300" lon="-3.203233">
        <ele>928.0</ele>
        <time>2016-07-25T16:14:33Z</time>
      </trkpt>
      <trkpt lat="41.549333" lon="-3.203350">
        <ele>925.0</ele>
        <time>2016-07-25T16:14:35Z</time>
      </trkpt>
      <trkpt lat="41.549417" lon="-3.203400">
        <ele>922.0</ele>
        <time>2016-07-25T16:14:37Z</time>
      </trkpt>
      <trkpt lat="41.549500" lon="-3.203417">
        <ele>919.0</ele>
        <time>2016-07-25T16:14:39Z</time>
      </trkpt>
      <trkpt lat="41.549583" lon="-3.203367">
        <ele>917.0</ele>
        <time>2016-07-25T16:14:41Z</time>
      </trkpt>
      <trkpt lat="41.549667" lon="-3.203250">
        <ele>914.0</ele>
        <time>2016-07-25T16:14:43Z</time>
      </trkpt>
      <trkpt lat="41.549733" lon="-3.203217">
        <ele>912.0</ele>
        <time>2016-07-25T16:14:45Z</time>
      </trkpt>
      <trkpt lat="41.549817" lon="-3.203267">
        <ele>911.0</ele>
        <time>2016-07-25T16:14:47Z</time>
      </trkpt>
      <trkpt lat="41.549867" lon="-3.203400">
        <ele>909.0</ele>
        <time>2016-07-25T16:14:49Z</time>
      </trkpt>
      <trkpt lat="41.549850" lon="-3.203583">
        <ele>908.0</ele>
        <time>2016-07-25T16:14:51Z</time>
      </trkpt>
      <trkpt lat="41.549783" lon="-3.203767">
        <ele>907.0</ele>
        <time>2016-07-25T16:14:53Z</time>
      </trkpt>
      <trkpt lat="41.549750" lon="-3.203933">
        <ele>907.0</ele>
        <time>2016-07-25T16:14:55Z</time>
      </trkpt>
      <trkpt lat="41.549817" lon="-3.204000">
        <ele>905.0</ele>
        <time>2016-07-25T16:14:57Z</time>
      </trkpt>
      <trkpt lat="41.549933" lon="-3.203983">
        <ele>904.0</ele>
        <time>2016-07-25T16:14:59Z</time>
      </trkpt>
      <trkpt lat="41.550017" lon="-3.203883">
        <ele>904.0</ele>
        <time>2016-07-25T16:15:01Z</time>
      </trkpt>
      <trkpt lat="41.550100" lon="-3.203733">
        <ele>900.0</ele>
        <time>2016-07-25T16:15:03Z</time>
      </trkpt>
      <trkpt lat="41.550233" lon="-3.203550">
        <ele>901.0</ele>
        <time>2016-07-25T16:15:05Z</time>
      </trkpt>
      <trkpt lat="41.550317" lon="-3.203383">
        <ele>903.0</ele>
        <time>2016-07-25T16:15:07Z</time>
      </trkpt>
      <trkpt lat="41.550367" lon="-3.203217">
        <ele>901.0</ele>
        <time>2016-07-25T16:15:09Z</time>
      </trkpt>
      <trkpt lat="41.550467" lon="-3.203083">
        <ele>897.0</ele>
        <time>2016-07-25T16:15:11Z</time>
      </trkpt>
      <trkpt lat="41.550550" lon="-3.202967">
        <ele>895.0</ele>
        <time>2016-07-25T16:15:13Z</time>
      </trkpt>
      <trkpt lat="41.550667" lon="-3.202933">
        <ele>891.0</ele>
        <time>2016-07-25T16:15:15Z</time>
      </trkpt>
      <trkpt lat="41.550767" lon="-3.202933">
        <ele>890.0</ele>
        <time>2016-07-25T16:15:17Z</time>
      </trkpt>
      <trkpt lat="41.550833" lon="-3.202917">
        <ele>888.0</ele>
        <time>2016-07-25T16:15:19Z</time>
      </trkpt>
      <trkpt lat="41.550850" lon="-3.202933">
        <ele>887.0</ele>
        <time>2016-07-25T16:15:21Z</time>
      </trkpt>
      <trkpt lat="41.550850" lon="-3.202933">
        <ele>887.0</ele>
        <time>2016-07-25T16:15:23Z</time>
      </trkpt>
      <trkpt lat="41.550850" lon="-3.202917">
        <ele>887.0</ele>
        <time>2016-07-25T16:15:25Z</time>
      </trkpt>
      <trkpt lat="41.550850" lon="-3.202917">
        <ele>887.0</ele>
        <time>2016-07-25T16:15:27Z</time>
      </trkpt>
      <trkpt lat="41.550850" lon="-3.202917">
        <ele>887.0</ele>
        <time>2016-07-25T16:15:29Z</time>
      </trkpt>
      <trkpt lat="41.550833" lon="-3.202917">
        <ele>887.0</ele>
        <time>2016-07-25T16:15:31Z</time>
      </trkpt>
      <trkpt lat="41.550833" lon="-3.202917">
        <ele>887.0</ele>
        <time>2016-07-25T16:15:33Z</time>
      </trkpt>
      <trkpt lat="41.550833" lon="-3.202917">
        <ele>887.0</ele>
        <time>2016-07-25T16:15:35Z</time>
      </trkpt>
      <trkpt lat="41.550833" lon="-3.202917">
        <ele>886.0</ele>
        <time>2016-07-25T16:15:37Z</time>
      </trkpt>
      <trkpt lat="41.550833" lon="-3.202917">
        <ele>886.0</ele>
        <time>2016-07-25T16:15:39Z</time>
      </trkpt>
      <trkpt lat="41.550833" lon="-3.202933">
        <ele>886.0</ele>
        <time>2016-07-25T16:15:41Z</time>
      </trkpt>
      <trkpt lat="41.550833" lon="-3.202933">
        <ele>885.0</ele>
        <time>2016-07-25T16:15:43Z</time>
      </trkpt>
      <trkpt lat="41.550833" lon="-3.202917">
        <ele>886.0</ele>
        <time>2016-07-25T16:15:45Z</time>
      </trkpt>
      <trkpt lat="41.550833" lon="-3.202917">
        <ele>886.0</ele>
        <time>2016-07-25T16:15:47Z</time>
      </trkpt>
    </trkseg>
  </trk>
</gpx>
